<?xml version="1.0" encoding="UTF-8"?>
<gpx version="1.1" creator="https://www.youtrack.es" xsi:schemaLocation="http://www.topografix.com/GPX/1/1 http://www.topografix.com/GPX/1/1/gpx.xsd http://www.garmin.com/xmlschemas/GpxExtensions/v3 http://www.garmin.com/xmlschemas/GpxExtensionsv3.xsd http://www.garmin.com/xmlschemas/TrackPointExtension/v1 http://www.garmin.com/xmlschemas/TrackPointExtensionv1.xsd" xmlns:gpxtpx="http://www.garmin.com/xmlschemas/TrackPointExtension/v1" xmlns:gpxx="http://www.garmin.com/xmlschemas/GpxExtensions/v3" xmlns:xsi="http://www.w3.org/2001/XMLSchema-instance">
  <metadata>
    <author>
      <name>Sergi Pérez Adsuara</name>
      <email id="sergipad" domain="hotmail.com"/>
    </author>
    <link href="https://www.youtrack.es">
      <text>YouTrack.es</text>
    </link>
    <time>2026-05-08T02:04:52Z</time>
  </metadata>
  <trk>
    <src>https://www.youtrack.es</src>
    <link href="https://www.youtrack.es/ruta/7824-unir">
      <text>YouTrack.es</text>
    </link>
    <trkseg>
      <trkpt lat="" lon=""/>
      <trkpt lat="42.408290" lon="0.742069">
        <ele>852.4</ele>
        <time>2016-06-07T06:19:38Z</time>
      </trkpt>
      <trkpt lat="42.408401" lon="0.741944">
        <ele>853.8</ele>
        <time>2016-06-07T06:19:50Z</time>
      </trkpt>
      <trkpt lat="42.408430" lon="0.741872">
        <ele>854.3</ele>
        <time>2016-06-07T06:19:58Z</time>
      </trkpt>
      <trkpt lat="42.408399" lon="0.741787">
        <ele>854.3</ele>
        <time>2016-06-07T06:20:07Z</time>
      </trkpt>
      <trkpt lat="42.408324" lon="0.741670">
        <ele>854.3</ele>
        <time>2016-06-07T06:20:19Z</time>
      </trkpt>
      <trkpt lat="42.408337" lon="0.741584">
        <ele>854.3</ele>
        <time>2016-06-07T06:20:24Z</time>
      </trkpt>
      <trkpt lat="42.408275" lon="0.741445">
        <ele>854.3</ele>
        <time>2016-06-07T06:20:53Z</time>
      </trkpt>
      <trkpt lat="42.408234" lon="0.741396">
        <ele>854.3</ele>
        <time>2016-06-07T06:21:06Z</time>
      </trkpt>
      <trkpt lat="42.408125" lon="0.741246">
        <ele>854.3</ele>
        <time>2016-06-07T06:35:10Z</time>
      </trkpt>
      <trkpt lat="42.407923" lon="0.740843">
        <ele>853.8</ele>
        <time>2016-06-07T06:35:24Z</time>
      </trkpt>
      <trkpt lat="42.407785" lon="0.740563">
        <ele>852.4</ele>
        <time>2016-06-07T06:35:35Z</time>
      </trkpt>
      <trkpt lat="42.407732" lon="0.740407">
        <ele>852.4</ele>
        <time>2016-06-07T06:35:42Z</time>
      </trkpt>
      <trkpt lat="42.407618" lon="0.740303">
        <ele>851.9</ele>
        <time>2016-06-07T06:35:52Z</time>
      </trkpt>
      <trkpt lat="42.407530" lon="0.740117">
        <ele>851.4</ele>
        <time>2016-06-07T06:35:58Z</time>
      </trkpt>
      <trkpt lat="42.407379" lon="0.740112">
        <ele>849.9</ele>
        <time>2016-06-07T06:36:08Z</time>
      </trkpt>
      <trkpt lat="42.407319" lon="0.740076">
        <ele>848.5</ele>
        <time>2016-06-07T06:36:12Z</time>
      </trkpt>
      <trkpt lat="42.407179" lon="0.739878">
        <ele>845.6</ele>
        <time>2016-06-07T06:36:25Z</time>
      </trkpt>
      <trkpt lat="42.407129" lon="0.739775">
        <ele>844.7</ele>
        <time>2016-06-07T06:36:37Z</time>
      </trkpt>
      <trkpt lat="42.407110" lon="0.739839">
        <ele>844.7</ele>
        <time>2016-06-07T06:36:41Z</time>
      </trkpt>
      <trkpt lat="42.407135" lon="0.739907">
        <ele>844.7</ele>
        <time>2016-06-07T06:36:46Z</time>
      </trkpt>
      <trkpt lat="42.407043" lon="0.740036">
        <ele>844.2</ele>
        <time>2016-06-07T06:36:51Z</time>
      </trkpt>
      <trkpt lat="42.406960" lon="0.740241">
        <ele>842.3</ele>
        <time>2016-06-07T06:36:56Z</time>
      </trkpt>
      <trkpt lat="42.406767" lon="0.740449">
        <ele>842.3</ele>
        <time>2016-06-07T06:37:02Z</time>
      </trkpt>
      <trkpt lat="42.406593" lon="0.740155">
        <ele>842.3</ele>
        <time>2016-06-07T06:37:12Z</time>
      </trkpt>
      <trkpt lat="42.406477" lon="0.739857">
        <ele>841.8</ele>
        <time>2016-06-07T06:37:25Z</time>
      </trkpt>
      <trkpt lat="42.406408" lon="0.739465">
        <ele>842.7</ele>
        <time>2016-06-07T06:37:49Z</time>
      </trkpt>
      <trkpt lat="42.406415" lon="0.739005">
        <ele>842.7</ele>
        <time>2016-06-07T06:38:03Z</time>
      </trkpt>
      <trkpt lat="42.406494" lon="0.738891">
        <ele>842.7</ele>
        <time>2016-06-07T06:38:08Z</time>
      </trkpt>
      <trkpt lat="42.406728" lon="0.738800">
        <ele>841.3</ele>
        <time>2016-06-07T06:38:16Z</time>
      </trkpt>
      <trkpt lat="42.406948" lon="0.738814">
        <ele>841.3</ele>
        <time>2016-06-07T06:38:23Z</time>
      </trkpt>
      <trkpt lat="42.406964" lon="0.738703">
        <ele>841.3</ele>
        <time>2016-06-07T06:38:27Z</time>
      </trkpt>
      <trkpt lat="42.406953" lon="0.738277">
        <ele>843.2</ele>
        <time>2016-06-07T06:38:44Z</time>
      </trkpt>
      <trkpt lat="42.406952" lon="0.737883">
        <ele>845.6</ele>
        <time>2016-06-07T06:39:01Z</time>
      </trkpt>
      <trkpt lat="42.406955" lon="0.737465">
        <ele>847.5</ele>
        <time>2016-06-07T06:39:20Z</time>
      </trkpt>
      <trkpt lat="42.406987" lon="0.737080">
        <ele>849.0</ele>
        <time>2016-06-07T06:39:36Z</time>
      </trkpt>
      <trkpt lat="42.407002" lon="0.736618">
        <ele>850.9</ele>
        <time>2016-06-07T06:39:55Z</time>
      </trkpt>
      <trkpt lat="42.407010" lon="0.736121">
        <ele>852.4</ele>
        <time>2016-06-07T06:40:16Z</time>
      </trkpt>
      <trkpt lat="42.406970" lon="0.735621">
        <ele>854.8</ele>
        <time>2016-06-07T06:40:37Z</time>
      </trkpt>
      <trkpt lat="42.406948" lon="0.735097">
        <ele>856.7</ele>
        <time>2016-06-07T06:40:59Z</time>
      </trkpt>
      <trkpt lat="42.406921" lon="0.734545">
        <ele>858.6</ele>
        <time>2016-06-07T06:41:22Z</time>
      </trkpt>
      <trkpt lat="42.406886" lon="0.734153">
        <ele>860.5</ele>
        <time>2016-06-07T06:41:39Z</time>
      </trkpt>
      <trkpt lat="42.406855" lon="0.733569">
        <ele>862.9</ele>
        <time>2016-06-07T06:42:04Z</time>
      </trkpt>
      <trkpt lat="42.406821" lon="0.733066">
        <ele>864.8</ele>
        <time>2016-06-07T06:42:26Z</time>
      </trkpt>
      <trkpt lat="42.406886" lon="0.732611">
        <ele>866.8</ele>
        <time>2016-06-07T06:42:45Z</time>
      </trkpt>
      <trkpt lat="42.407019" lon="0.732238">
        <ele>868.7</ele>
        <time>2016-06-07T06:43:03Z</time>
      </trkpt>
      <trkpt lat="42.407172" lon="0.731865">
        <ele>870.1</ele>
        <time>2016-06-07T06:43:22Z</time>
      </trkpt>
      <trkpt lat="42.407290" lon="0.731560">
        <ele>872.5</ele>
        <time>2016-06-07T06:43:39Z</time>
      </trkpt>
      <trkpt lat="42.407482" lon="0.731429">
        <ele>875.4</ele>
        <time>2016-06-07T06:43:56Z</time>
      </trkpt>
      <trkpt lat="42.407538" lon="0.731460">
        <ele>876.4</ele>
        <time>2016-06-07T06:44:01Z</time>
      </trkpt>
      <trkpt lat="42.407601" lon="0.731440">
        <ele>877.3</ele>
        <time>2016-06-07T06:44:06Z</time>
      </trkpt>
      <trkpt lat="42.407689" lon="0.731124">
        <ele>878.3</ele>
        <time>2016-06-07T06:44:22Z</time>
      </trkpt>
      <trkpt lat="42.407760" lon="0.730604">
        <ele>878.3</ele>
        <time>2016-06-07T06:44:37Z</time>
      </trkpt>
      <trkpt lat="42.407782" lon="0.730328">
        <ele>879.3</ele>
        <time>2016-06-07T06:44:50Z</time>
      </trkpt>
      <trkpt lat="42.407800" lon="0.729821">
        <ele>881.2</ele>
        <time>2016-06-07T06:45:11Z</time>
      </trkpt>
      <trkpt lat="42.407823" lon="0.729516">
        <ele>883.6</ele>
        <time>2016-06-07T06:45:26Z</time>
      </trkpt>
      <trkpt lat="42.407907" lon="0.729282">
        <ele>886.5</ele>
        <time>2016-06-07T06:45:41Z</time>
      </trkpt>
      <trkpt lat="42.407957" lon="0.729107">
        <ele>888.9</ele>
        <time>2016-06-07T06:45:53Z</time>
      </trkpt>
      <trkpt lat="42.408002" lon="0.729020">
        <ele>889.8</ele>
        <time>2016-06-07T06:45:59Z</time>
      </trkpt>
      <trkpt lat="42.408010" lon="0.728877">
        <ele>891.8</ele>
        <time>2016-06-07T06:46:08Z</time>
      </trkpt>
      <trkpt lat="42.408034" lon="0.728524">
        <ele>895.1</ele>
        <time>2016-06-07T06:46:28Z</time>
      </trkpt>
      <trkpt lat="42.408106" lon="0.728181">
        <ele>897.5</ele>
        <time>2016-06-07T06:46:46Z</time>
      </trkpt>
      <trkpt lat="42.408209" lon="0.727813">
        <ele>899.9</ele>
        <time>2016-06-07T06:47:06Z</time>
      </trkpt>
      <trkpt lat="42.408321" lon="0.727493">
        <ele>901.4</ele>
        <time>2016-06-07T06:47:24Z</time>
      </trkpt>
      <trkpt lat="42.408466" lon="0.727143">
        <ele>904.3</ele>
        <time>2016-06-07T06:47:45Z</time>
      </trkpt>
      <trkpt lat="42.408640" lon="0.726936">
        <ele>907.6</ele>
        <time>2016-06-07T06:48:03Z</time>
      </trkpt>
      <trkpt lat="42.408852" lon="0.726711">
        <ele>909.1</ele>
        <time>2016-06-07T06:48:21Z</time>
      </trkpt>
      <trkpt lat="42.409089" lon="0.726331">
        <ele>907.6</ele>
        <time>2016-06-07T06:48:32Z</time>
      </trkpt>
      <trkpt lat="42.409178" lon="0.726165">
        <ele>907.1</ele>
        <time>2016-06-07T06:48:35Z</time>
      </trkpt>
      <trkpt lat="42.409210" lon="0.725782">
        <ele>909.1</ele>
        <time>2016-06-07T06:48:46Z</time>
      </trkpt>
      <trkpt lat="42.409097" lon="0.725179">
        <ele>910.0</ele>
        <time>2016-06-07T06:49:09Z</time>
      </trkpt>
      <trkpt lat="42.409171" lon="0.724747">
        <ele>912.0</ele>
        <time>2016-06-07T06:49:27Z</time>
      </trkpt>
      <trkpt lat="42.409396" lon="0.724438">
        <ele>914.4</ele>
        <time>2016-06-07T06:49:46Z</time>
      </trkpt>
      <trkpt lat="42.409547" lon="0.724138">
        <ele>916.8</ele>
        <time>2016-06-07T06:50:04Z</time>
      </trkpt>
      <trkpt lat="42.409601" lon="0.723722">
        <ele>920.1</ele>
        <time>2016-06-07T06:50:26Z</time>
      </trkpt>
      <trkpt lat="42.409556" lon="0.723361">
        <ele>923.0</ele>
        <time>2016-06-07T06:50:46Z</time>
      </trkpt>
      <trkpt lat="42.409459" lon="0.723070">
        <ele>924.9</ele>
        <time>2016-06-07T06:51:03Z</time>
      </trkpt>
      <trkpt lat="42.409449" lon="0.722690">
        <ele>926.4</ele>
        <time>2016-06-07T06:51:20Z</time>
      </trkpt>
      <trkpt lat="42.409526" lon="0.722280">
        <ele>924.9</ele>
        <time>2016-06-07T06:51:29Z</time>
      </trkpt>
      <trkpt lat="42.409652" lon="0.721581">
        <ele>924.9</ele>
        <time>2016-06-07T06:51:41Z</time>
      </trkpt>
      <trkpt lat="42.409765" lon="0.721273">
        <ele>927.3</ele>
        <time>2016-06-07T06:51:58Z</time>
      </trkpt>
      <trkpt lat="42.409922" lon="0.720988">
        <ele>930.2</ele>
        <time>2016-06-07T06:52:17Z</time>
      </trkpt>
      <trkpt lat="42.409885" lon="0.720725">
        <ele>933.1</ele>
        <time>2016-06-07T06:52:33Z</time>
      </trkpt>
      <trkpt lat="42.409771" lon="0.720446">
        <ele>936.5</ele>
        <time>2016-06-07T06:52:51Z</time>
      </trkpt>
      <trkpt lat="42.409662" lon="0.720150">
        <ele>939.4</ele>
        <time>2016-06-07T06:53:10Z</time>
      </trkpt>
      <trkpt lat="42.409564" lon="0.719879">
        <ele>942.7</ele>
        <time>2016-06-07T06:53:28Z</time>
      </trkpt>
      <trkpt lat="42.409533" lon="0.719547">
        <ele>946.1</ele>
        <time>2016-06-07T06:53:48Z</time>
      </trkpt>
      <trkpt lat="42.409445" lon="0.719211">
        <ele>949.0</ele>
        <time>2016-06-07T06:54:09Z</time>
      </trkpt>
      <trkpt lat="42.409411" lon="0.718894">
        <ele>951.8</ele>
        <time>2016-06-07T06:54:28Z</time>
      </trkpt>
      <trkpt lat="42.409322" lon="0.718664">
        <ele>954.7</ele>
        <time>2016-06-07T06:54:45Z</time>
      </trkpt>
      <trkpt lat="42.409321" lon="0.718396">
        <ele>957.6</ele>
        <time>2016-06-07T06:55:03Z</time>
      </trkpt>
      <trkpt lat="42.409378" lon="0.718135">
        <ele>961.5</ele>
        <time>2016-06-07T06:55:21Z</time>
      </trkpt>
      <trkpt lat="42.409440" lon="0.717875">
        <ele>964.3</ele>
        <time>2016-06-07T06:55:38Z</time>
      </trkpt>
      <trkpt lat="42.409514" lon="0.717576">
        <ele>966.7</ele>
        <time>2016-06-07T06:55:56Z</time>
      </trkpt>
      <trkpt lat="42.409577" lon="0.717292">
        <ele>968.7</ele>
        <time>2016-06-07T06:56:13Z</time>
      </trkpt>
      <trkpt lat="42.409588" lon="0.716973">
        <ele>971.1</ele>
        <time>2016-06-07T06:56:30Z</time>
      </trkpt>
      <trkpt lat="42.409643" lon="0.716676">
        <ele>973.0</ele>
        <time>2016-06-07T06:56:47Z</time>
      </trkpt>
      <trkpt lat="42.409766" lon="0.716539">
        <ele>975.9</ele>
        <time>2016-06-07T06:57:01Z</time>
      </trkpt>
      <trkpt lat="42.409816" lon="0.716668">
        <ele>977.3</ele>
        <time>2016-06-07T06:57:11Z</time>
      </trkpt>
      <trkpt lat="42.409792" lon="0.716942">
        <ele>979.7</ele>
        <time>2016-06-07T06:57:28Z</time>
      </trkpt>
      <trkpt lat="42.409816" lon="0.717184">
        <ele>982.1</ele>
        <time>2016-06-07T06:57:43Z</time>
      </trkpt>
      <trkpt lat="42.409848" lon="0.717319">
        <ele>983.6</ele>
        <time>2016-06-07T06:57:52Z</time>
      </trkpt>
      <trkpt lat="42.409897" lon="0.717562">
        <ele>985.5</ele>
        <time>2016-06-07T06:58:07Z</time>
      </trkpt>
      <trkpt lat="42.409901" lon="0.717633">
        <ele>986.5</ele>
        <time>2016-06-07T06:58:11Z</time>
      </trkpt>
      <trkpt lat="42.409926" lon="0.717750">
        <ele>987.4</ele>
        <time>2016-06-07T06:58:19Z</time>
      </trkpt>
      <trkpt lat="42.409975" lon="0.717998">
        <ele>990.3</ele>
        <time>2016-06-07T06:58:36Z</time>
      </trkpt>
      <trkpt lat="42.410059" lon="0.718237">
        <ele>992.2</ele>
        <time>2016-06-07T06:58:52Z</time>
      </trkpt>
      <trkpt lat="42.410118" lon="0.718485">
        <ele>994.6</ele>
        <time>2016-06-07T06:59:08Z</time>
      </trkpt>
      <trkpt lat="42.410211" lon="0.718738">
        <ele>998.0</ele>
        <time>2016-06-07T06:59:26Z</time>
      </trkpt>
      <trkpt lat="42.410342" lon="0.718941">
        <ele>999.9</ele>
        <time>2016-06-07T06:59:43Z</time>
      </trkpt>
      <trkpt lat="42.410537" lon="0.718991">
        <ele>1002.8</ele>
        <time>2016-06-07T07:00:00Z</time>
      </trkpt>
      <trkpt lat="42.410583" lon="0.718969">
        <ele>1003.8</ele>
        <time>2016-06-07T07:00:04Z</time>
      </trkpt>
      <trkpt lat="42.410614" lon="0.718699">
        <ele>1007.1</ele>
        <time>2016-06-07T07:00:23Z</time>
      </trkpt>
      <trkpt lat="42.410532" lon="0.718390">
        <ele>1009.5</ele>
        <time>2016-06-07T07:00:43Z</time>
      </trkpt>
      <trkpt lat="42.410465" lon="0.718060">
        <ele>1011.9</ele>
        <time>2016-06-07T07:01:02Z</time>
      </trkpt>
      <trkpt lat="42.410529" lon="0.717824">
        <ele>1014.8</ele>
        <time>2016-06-07T07:01:19Z</time>
      </trkpt>
      <trkpt lat="42.410655" lon="0.718007">
        <ele>1016.3</ele>
        <time>2016-06-07T07:01:34Z</time>
      </trkpt>
      <trkpt lat="42.410821" lon="0.718337">
        <ele>1017.7</ele>
        <time>2016-06-07T07:01:54Z</time>
      </trkpt>
      <trkpt lat="42.410861" lon="0.718373">
        <ele>1018.2</ele>
        <time>2016-06-07T07:01:57Z</time>
      </trkpt>
      <trkpt lat="42.410950" lon="0.718275">
        <ele>1019.6</ele>
        <time>2016-06-07T07:02:08Z</time>
      </trkpt>
      <trkpt lat="42.410839" lon="0.718005">
        <ele>1022.0</ele>
        <time>2016-06-07T07:02:25Z</time>
      </trkpt>
      <trkpt lat="42.410752" lon="0.717662">
        <ele>1024.9</ele>
        <time>2016-06-07T07:02:46Z</time>
      </trkpt>
      <trkpt lat="42.410694" lon="0.717348">
        <ele>1027.8</ele>
        <time>2016-06-07T07:03:05Z</time>
      </trkpt>
      <trkpt lat="42.410651" lon="0.716986">
        <ele>1030.2</ele>
        <time>2016-06-07T07:03:26Z</time>
      </trkpt>
      <trkpt lat="42.410598" lon="0.716627">
        <ele>1033.1</ele>
        <time>2016-06-07T07:03:46Z</time>
      </trkpt>
      <trkpt lat="42.410583" lon="0.716545">
        <ele>1033.6</ele>
        <time>2016-06-07T07:03:51Z</time>
      </trkpt>
      <trkpt lat="42.410725" lon="0.716554">
        <ele>1035.5</ele>
        <time>2016-06-07T07:04:05Z</time>
      </trkpt>
      <trkpt lat="42.410778" lon="0.716813">
        <ele>1037.4</ele>
        <time>2016-06-07T07:04:20Z</time>
      </trkpt>
      <trkpt lat="42.410884" lon="0.717061">
        <ele>1038.8</ele>
        <time>2016-06-07T07:04:36Z</time>
      </trkpt>
      <trkpt lat="42.411081" lon="0.717338">
        <ele>1041.3</ele>
        <time>2016-06-07T07:04:57Z</time>
      </trkpt>
      <trkpt lat="42.411252" lon="0.717540">
        <ele>1043.7</ele>
        <time>2016-06-07T07:05:14Z</time>
      </trkpt>
      <trkpt lat="42.411345" lon="0.717527">
        <ele>1044.6</ele>
        <time>2016-06-07T07:05:22Z</time>
      </trkpt>
      <trkpt lat="42.411355" lon="0.717464">
        <ele>1046.1</ele>
        <time>2016-06-07T07:05:26Z</time>
      </trkpt>
      <trkpt lat="42.411249" lon="0.717185">
        <ele>1048.9</ele>
        <time>2016-06-07T07:05:45Z</time>
      </trkpt>
      <trkpt lat="42.411154" lon="0.716884">
        <ele>1051.8</ele>
        <time>2016-06-07T07:06:05Z</time>
      </trkpt>
      <trkpt lat="42.411124" lon="0.716606">
        <ele>1054.2</ele>
        <time>2016-06-07T07:06:22Z</time>
      </trkpt>
      <trkpt lat="42.411120" lon="0.716319">
        <ele>1056.6</ele>
        <time>2016-06-07T07:06:39Z</time>
      </trkpt>
      <trkpt lat="42.411186" lon="0.715997">
        <ele>1059.0</ele>
        <time>2016-06-07T07:06:59Z</time>
      </trkpt>
      <trkpt lat="42.411184" lon="0.715708">
        <ele>1061.4</ele>
        <time>2016-06-07T07:07:16Z</time>
      </trkpt>
      <trkpt lat="42.411177" lon="0.715388">
        <ele>1064.3</ele>
        <time>2016-06-07T07:07:35Z</time>
      </trkpt>
      <trkpt lat="42.411185" lon="0.715325">
        <ele>1065.3</ele>
        <time>2016-06-07T07:07:39Z</time>
      </trkpt>
      <trkpt lat="42.411187" lon="0.715232">
        <ele>1065.8</ele>
        <time>2016-06-07T07:07:45Z</time>
      </trkpt>
      <trkpt lat="42.411227" lon="0.715072">
        <ele>1067.2</ele>
        <time>2016-06-07T07:07:55Z</time>
      </trkpt>
      <trkpt lat="42.411280" lon="0.714782">
        <ele>1069.6</ele>
        <time>2016-06-07T07:08:14Z</time>
      </trkpt>
      <trkpt lat="42.411147" lon="0.714651">
        <ele>1071.1</ele>
        <time>2016-06-07T07:08:26Z</time>
      </trkpt>
      <trkpt lat="42.411000" lon="0.714313">
        <ele>1072.5</ele>
        <time>2016-06-07T07:08:46Z</time>
      </trkpt>
      <trkpt lat="42.410973" lon="0.713996">
        <ele>1073.9</ele>
        <time>2016-06-07T07:09:01Z</time>
      </trkpt>
      <trkpt lat="42.410991" lon="0.713643">
        <ele>1074.4</ele>
        <time>2016-06-07T07:09:16Z</time>
      </trkpt>
      <trkpt lat="42.411009" lon="0.713396">
        <ele>1074.4</ele>
        <time>2016-06-07T07:09:24Z</time>
      </trkpt>
      <trkpt lat="42.411139" lon="0.713352">
        <ele>1074.9</ele>
        <time>2016-06-07T07:09:32Z</time>
      </trkpt>
      <trkpt lat="42.411115" lon="0.713479">
        <ele>1076.3</ele>
        <time>2016-06-07T07:09:40Z</time>
      </trkpt>
      <trkpt lat="42.411141" lon="0.713655">
        <ele>1078.3</ele>
        <time>2016-06-07T07:09:50Z</time>
      </trkpt>
      <trkpt lat="42.411128" lon="0.713899">
        <ele>1080.2</ele>
        <time>2016-06-07T07:10:05Z</time>
      </trkpt>
      <trkpt lat="42.411163" lon="0.714176">
        <ele>1081.6</ele>
        <time>2016-06-07T07:10:20Z</time>
      </trkpt>
      <trkpt lat="42.411291" lon="0.714215">
        <ele>1083.1</ele>
        <time>2016-06-07T07:10:31Z</time>
      </trkpt>
      <trkpt lat="42.411340" lon="0.713990">
        <ele>1085.0</ele>
        <time>2016-06-07T07:10:47Z</time>
      </trkpt>
      <trkpt lat="42.411362" lon="0.713758">
        <ele>1087.4</ele>
        <time>2016-06-07T07:11:01Z</time>
      </trkpt>
      <trkpt lat="42.411439" lon="0.713502">
        <ele>1088.4</ele>
        <time>2016-06-07T07:11:16Z</time>
      </trkpt>
      <trkpt lat="42.411499" lon="0.713198">
        <ele>1089.8</ele>
        <time>2016-06-07T07:11:31Z</time>
      </trkpt>
      <trkpt lat="42.411527" lon="0.713045">
        <ele>1089.8</ele>
        <time>2016-06-07T07:11:38Z</time>
      </trkpt>
      <trkpt lat="42.411592" lon="0.712702">
        <ele>1090.3</ele>
        <time>2016-06-07T07:11:55Z</time>
      </trkpt>
      <trkpt lat="42.411646" lon="0.712340">
        <ele>1091.2</ele>
        <time>2016-06-07T07:12:09Z</time>
      </trkpt>
      <trkpt lat="42.411666" lon="0.712179">
        <ele>1090.3</ele>
        <time>2016-06-07T07:12:14Z</time>
      </trkpt>
      <trkpt lat="42.411788" lon="0.711743">
        <ele>1089.3</ele>
        <time>2016-06-07T07:12:30Z</time>
      </trkpt>
      <trkpt lat="42.411861" lon="0.711572">
        <ele>1090.8</ele>
        <time>2016-06-07T07:12:37Z</time>
      </trkpt>
      <trkpt lat="42.411999" lon="0.711219">
        <ele>1089.8</ele>
        <time>2016-06-07T07:12:51Z</time>
      </trkpt>
      <trkpt lat="42.412042" lon="0.710913">
        <ele>1089.8</ele>
        <time>2016-06-07T07:13:06Z</time>
      </trkpt>
      <trkpt lat="42.412054" lon="0.710794">
        <ele>1091.2</ele>
        <time>2016-06-07T07:13:12Z</time>
      </trkpt>
      <trkpt lat="42.412068" lon="0.710413">
        <ele>1092.7</ele>
        <time>2016-06-07T07:13:30Z</time>
      </trkpt>
      <trkpt lat="42.412150" lon="0.710018">
        <ele>1092.7</ele>
        <time>2016-06-07T07:13:45Z</time>
      </trkpt>
      <trkpt lat="42.412195" lon="0.709851">
        <ele>1092.7</ele>
        <time>2016-06-07T07:13:52Z</time>
      </trkpt>
      <trkpt lat="42.412256" lon="0.709391">
        <ele>1093.2</ele>
        <time>2016-06-07T07:14:10Z</time>
      </trkpt>
      <trkpt lat="42.412270" lon="0.709304">
        <ele>1093.2</ele>
        <time>2016-06-07T07:14:14Z</time>
      </trkpt>
      <trkpt lat="42.412441" lon="0.708891">
        <ele>1095.1</ele>
        <time>2016-06-07T07:14:34Z</time>
      </trkpt>
      <trkpt lat="42.412728" lon="0.708798">
        <ele>1095.6</ele>
        <time>2016-06-07T07:14:50Z</time>
      </trkpt>
      <trkpt lat="42.412875" lon="0.708695">
        <ele>1096.5</ele>
        <time>2016-06-07T07:15:00Z</time>
      </trkpt>
      <trkpt lat="42.412847" lon="0.708438">
        <ele>1098.4</ele>
        <time>2016-06-07T07:15:15Z</time>
      </trkpt>
      <trkpt lat="42.412808" lon="0.708289">
        <ele>1099.4</ele>
        <time>2016-06-07T07:15:23Z</time>
      </trkpt>
      <trkpt lat="42.412757" lon="0.707921">
        <ele>1100.9</ele>
        <time>2016-06-07T07:15:41Z</time>
      </trkpt>
      <trkpt lat="42.412804" lon="0.707651">
        <ele>1102.8</ele>
        <time>2016-06-07T07:15:57Z</time>
      </trkpt>
      <trkpt lat="42.412939" lon="0.707456">
        <ele>1105.2</ele>
        <time>2016-06-07T07:16:14Z</time>
      </trkpt>
      <trkpt lat="42.413092" lon="0.707318">
        <ele>1108.1</ele>
        <time>2016-06-07T07:16:30Z</time>
      </trkpt>
      <trkpt lat="42.413256" lon="0.707166">
        <ele>1110.5</ele>
        <time>2016-06-07T07:16:46Z</time>
      </trkpt>
      <trkpt lat="42.413466" lon="0.706962">
        <ele>1112.4</ele>
        <time>2016-06-07T07:17:04Z</time>
      </trkpt>
      <trkpt lat="42.413684" lon="0.706690">
        <ele>1112.4</ele>
        <time>2016-06-07T07:17:21Z</time>
      </trkpt>
      <trkpt lat="42.413770" lon="0.706568">
        <ele>1110.9</ele>
        <time>2016-06-07T07:17:25Z</time>
      </trkpt>
      <trkpt lat="42.413991" lon="0.706347">
        <ele>1110.5</ele>
        <time>2016-06-07T07:17:31Z</time>
      </trkpt>
      <trkpt lat="42.414194" lon="0.706229">
        <ele>1109.0</ele>
        <time>2016-06-07T07:17:37Z</time>
      </trkpt>
      <trkpt lat="42.414198" lon="0.706163">
        <ele>1109.0</ele>
        <time>2016-06-07T07:17:39Z</time>
      </trkpt>
      <trkpt lat="42.414162" lon="0.706040">
        <ele>1110.0</ele>
        <time>2016-06-07T07:17:46Z</time>
      </trkpt>
      <trkpt lat="42.413987" lon="0.705858">
        <ele>1111.9</ele>
        <time>2016-06-07T07:18:03Z</time>
      </trkpt>
      <trkpt lat="42.413797" lon="0.705847">
        <ele>1112.4</ele>
        <time>2016-06-07T07:18:15Z</time>
      </trkpt>
      <trkpt lat="42.413577" lon="0.705567">
        <ele>1112.4</ele>
        <time>2016-06-07T07:18:28Z</time>
      </trkpt>
      <trkpt lat="42.413548" lon="0.705134">
        <ele>1112.4</ele>
        <time>2016-06-07T07:18:43Z</time>
      </trkpt>
      <trkpt lat="42.413530" lon="0.704696">
        <ele>1112.4</ele>
        <time>2016-06-07T07:18:59Z</time>
      </trkpt>
      <trkpt lat="42.413548" lon="0.704334">
        <ele>1112.4</ele>
        <time>2016-06-07T07:19:12Z</time>
      </trkpt>
      <trkpt lat="42.413529" lon="0.704189">
        <ele>1113.8</ele>
        <time>2016-06-07T07:19:20Z</time>
      </trkpt>
      <trkpt lat="42.413708" lon="0.704093">
        <ele>1116.2</ele>
        <time>2016-06-07T07:19:36Z</time>
      </trkpt>
      <trkpt lat="42.413818" lon="0.704112">
        <ele>1118.2</ele>
        <time>2016-06-07T07:19:45Z</time>
      </trkpt>
      <trkpt lat="42.413971" lon="0.704137">
        <ele>1121.0</ele>
        <time>2016-06-07T07:20:00Z</time>
      </trkpt>
      <trkpt lat="42.414145" lon="0.704230">
        <ele>1123.9</ele>
        <time>2016-06-07T07:20:16Z</time>
      </trkpt>
      <trkpt lat="42.414279" lon="0.704384">
        <ele>1126.8</ele>
        <time>2016-06-07T07:20:32Z</time>
      </trkpt>
      <trkpt lat="42.414300" lon="0.704556">
        <ele>1128.7</ele>
        <time>2016-06-07T07:20:43Z</time>
      </trkpt>
      <trkpt lat="42.414288" lon="0.704641">
        <ele>1128.7</ele>
        <time>2016-06-07T07:20:48Z</time>
      </trkpt>
      <trkpt lat="42.414290" lon="0.704716">
        <ele>1129.2</ele>
        <time>2016-06-07T07:20:52Z</time>
      </trkpt>
      <trkpt lat="42.414276" lon="0.705037">
        <ele>1129.2</ele>
        <time>2016-06-07T07:21:08Z</time>
      </trkpt>
      <trkpt lat="42.414315" lon="0.705135">
        <ele>1130.2</ele>
        <time>2016-06-07T07:21:14Z</time>
      </trkpt>
      <trkpt lat="42.414397" lon="0.705082">
        <ele>1131.6</ele>
        <time>2016-06-07T07:21:23Z</time>
      </trkpt>
      <trkpt lat="42.414410" lon="0.704973">
        <ele>1132.6</ele>
        <time>2016-06-07T07:21:30Z</time>
      </trkpt>
      <trkpt lat="42.414539" lon="0.704796">
        <ele>1135.5</ele>
        <time>2016-06-07T07:21:46Z</time>
      </trkpt>
      <trkpt lat="42.414575" lon="0.704745">
        <ele>1135.9</ele>
        <time>2016-06-07T07:21:51Z</time>
      </trkpt>
      <trkpt lat="42.414774" lon="0.704480">
        <ele>1138.8</ele>
        <time>2016-06-07T07:22:14Z</time>
      </trkpt>
      <trkpt lat="42.414819" lon="0.704414">
        <ele>1139.3</ele>
        <time>2016-06-07T07:22:19Z</time>
      </trkpt>
      <trkpt lat="42.414967" lon="0.704206">
        <ele>1141.2</ele>
        <time>2016-06-07T07:22:37Z</time>
      </trkpt>
      <trkpt lat="42.415032" lon="0.704027">
        <ele>1142.7</ele>
        <time>2016-06-07T07:22:50Z</time>
      </trkpt>
      <trkpt lat="42.415124" lon="0.703786">
        <ele>1144.6</ele>
        <time>2016-06-07T07:23:05Z</time>
      </trkpt>
      <trkpt lat="42.415233" lon="0.703599">
        <ele>1147.0</ele>
        <time>2016-06-07T07:23:20Z</time>
      </trkpt>
      <trkpt lat="42.415255" lon="0.703527">
        <ele>1148.0</ele>
        <time>2016-06-07T07:23:25Z</time>
      </trkpt>
      <trkpt lat="42.415272" lon="0.703468">
        <ele>1148.9</ele>
        <time>2016-06-07T07:23:29Z</time>
      </trkpt>
      <trkpt lat="42.415271" lon="0.703145">
        <ele>1149.9</ele>
        <time>2016-06-07T07:23:45Z</time>
      </trkpt>
      <trkpt lat="42.415323" lon="0.702673">
        <ele>1149.9</ele>
        <time>2016-06-07T07:24:01Z</time>
      </trkpt>
      <trkpt lat="42.415421" lon="0.702298">
        <ele>1148.9</ele>
        <time>2016-06-07T07:24:13Z</time>
      </trkpt>
      <trkpt lat="42.415503" lon="0.701946">
        <ele>1148.9</ele>
        <time>2016-06-07T07:24:28Z</time>
      </trkpt>
      <trkpt lat="42.415575" lon="0.701647">
        <ele>1151.8</ele>
        <time>2016-06-07T07:24:44Z</time>
      </trkpt>
      <trkpt lat="42.415673" lon="0.701366">
        <ele>1151.8</ele>
        <time>2016-06-07T07:24:56Z</time>
      </trkpt>
      <trkpt lat="42.415761" lon="0.701037">
        <ele>1152.3</ele>
        <time>2016-06-07T07:25:12Z</time>
      </trkpt>
      <trkpt lat="42.415799" lon="0.700791">
        <ele>1153.7</ele>
        <time>2016-06-07T07:25:26Z</time>
      </trkpt>
      <trkpt lat="42.415928" lon="0.700527">
        <ele>1155.6</ele>
        <time>2016-06-07T07:25:44Z</time>
      </trkpt>
      <trkpt lat="42.416038" lon="0.700297">
        <ele>1157.1</ele>
        <time>2016-06-07T07:25:59Z</time>
      </trkpt>
      <trkpt lat="42.416167" lon="0.700110">
        <ele>1158.1</ele>
        <time>2016-06-07T07:26:12Z</time>
      </trkpt>
      <trkpt lat="42.416286" lon="0.699824">
        <ele>1160.9</ele>
        <time>2016-06-07T07:26:31Z</time>
      </trkpt>
      <trkpt lat="42.416453" lon="0.699600">
        <ele>1162.9</ele>
        <time>2016-06-07T07:26:49Z</time>
      </trkpt>
      <trkpt lat="42.416517" lon="0.699566">
        <ele>1163.3</ele>
        <time>2016-06-07T07:26:54Z</time>
      </trkpt>
      <trkpt lat="42.416786" lon="0.699551">
        <ele>1162.9</ele>
        <time>2016-06-07T07:27:08Z</time>
      </trkpt>
      <trkpt lat="42.416881" lon="0.699539">
        <ele>1162.4</ele>
        <time>2016-06-07T07:27:11Z</time>
      </trkpt>
      <trkpt lat="42.416935" lon="0.699337">
        <ele>1161.9</ele>
        <time>2016-06-07T07:27:19Z</time>
      </trkpt>
      <trkpt lat="42.416916" lon="0.699074">
        <ele>1162.9</ele>
        <time>2016-06-07T07:27:31Z</time>
      </trkpt>
      <trkpt lat="42.416800" lon="0.698762">
        <ele>1164.8</ele>
        <time>2016-06-07T07:27:48Z</time>
      </trkpt>
      <trkpt lat="42.416701" lon="0.698577">
        <ele>1166.2</ele>
        <time>2016-06-07T07:28:00Z</time>
      </trkpt>
      <trkpt lat="42.416602" lon="0.698423">
        <ele>1166.7</ele>
        <time>2016-06-07T07:28:10Z</time>
      </trkpt>
      <trkpt lat="42.416560" lon="0.698313">
        <ele>1167.7</ele>
        <time>2016-06-07T07:28:16Z</time>
      </trkpt>
      <trkpt lat="42.416512" lon="0.698227">
        <ele>1167.7</ele>
        <time>2016-06-07T07:28:21Z</time>
      </trkpt>
      <trkpt lat="42.416502" lon="0.697898">
        <ele>1169.1</ele>
        <time>2016-06-07T07:28:37Z</time>
      </trkpt>
      <trkpt lat="42.416526" lon="0.697575">
        <ele>1171.0</ele>
        <time>2016-06-07T07:28:53Z</time>
      </trkpt>
      <trkpt lat="42.416606" lon="0.697235">
        <ele>1171.5</ele>
        <time>2016-06-07T07:29:09Z</time>
      </trkpt>
      <trkpt lat="42.416681" lon="0.696928">
        <ele>1173.0</ele>
        <time>2016-06-07T07:29:25Z</time>
      </trkpt>
      <trkpt lat="42.416749" lon="0.696663">
        <ele>1174.9</ele>
        <time>2016-06-07T07:29:40Z</time>
      </trkpt>
      <trkpt lat="42.416781" lon="0.696591">
        <ele>1174.9</ele>
        <time>2016-06-07T07:29:44Z</time>
      </trkpt>
      <trkpt lat="42.416798" lon="0.696532">
        <ele>1175.4</ele>
        <time>2016-06-07T07:29:47Z</time>
      </trkpt>
      <trkpt lat="42.416880" lon="0.696248">
        <ele>1176.3</ele>
        <time>2016-06-07T07:30:02Z</time>
      </trkpt>
      <trkpt lat="42.416942" lon="0.695953">
        <ele>1177.3</ele>
        <time>2016-06-07T07:30:16Z</time>
      </trkpt>
      <trkpt lat="42.416993" lon="0.695624">
        <ele>1179.2</ele>
        <time>2016-06-07T07:30:32Z</time>
      </trkpt>
      <trkpt lat="42.417058" lon="0.695235">
        <ele>1180.2</ele>
        <time>2016-06-07T07:30:51Z</time>
      </trkpt>
      <trkpt lat="42.417065" lon="0.695159">
        <ele>1180.6</ele>
        <time>2016-06-07T07:30:55Z</time>
      </trkpt>
      <trkpt lat="42.417115" lon="0.694938">
        <ele>1182.1</ele>
        <time>2016-06-07T07:31:07Z</time>
      </trkpt>
      <trkpt lat="42.417094" lon="0.694767">
        <ele>1181.6</ele>
        <time>2016-06-07T07:31:15Z</time>
      </trkpt>
      <trkpt lat="42.417137" lon="0.694368">
        <ele>1181.6</ele>
        <time>2016-06-07T07:31:32Z</time>
      </trkpt>
      <trkpt lat="42.417111" lon="0.694077">
        <ele>1181.6</ele>
        <time>2016-06-07T07:31:44Z</time>
      </trkpt>
      <trkpt lat="42.417096" lon="0.693832">
        <ele>1181.6</ele>
        <time>2016-06-07T07:31:56Z</time>
      </trkpt>
      <trkpt lat="42.417078" lon="0.693576">
        <ele>1182.1</ele>
        <time>2016-06-07T07:32:07Z</time>
      </trkpt>
      <trkpt lat="42.416969" lon="0.693149">
        <ele>1182.1</ele>
        <time>2016-06-07T07:32:23Z</time>
      </trkpt>
      <trkpt lat="42.416916" lon="0.692721">
        <ele>1183.0</ele>
        <time>2016-06-07T07:32:40Z</time>
      </trkpt>
      <trkpt lat="42.416893" lon="0.692623">
        <ele>1183.0</ele>
        <time>2016-06-07T07:32:44Z</time>
      </trkpt>
      <trkpt lat="42.416885" lon="0.692442">
        <ele>1183.5</ele>
        <time>2016-06-07T07:32:51Z</time>
      </trkpt>
      <trkpt lat="42.416804" lon="0.692086">
        <ele>1185.0</ele>
        <time>2016-06-07T07:33:06Z</time>
      </trkpt>
      <trkpt lat="42.416794" lon="0.692004">
        <ele>1185.0</ele>
        <time>2016-06-07T07:33:10Z</time>
      </trkpt>
      <trkpt lat="42.416795" lon="0.691914">
        <ele>1185.4</ele>
        <time>2016-06-07T07:33:14Z</time>
      </trkpt>
      <trkpt lat="42.416727" lon="0.691493">
        <ele>1186.4</ele>
        <time>2016-06-07T07:33:33Z</time>
      </trkpt>
      <trkpt lat="42.416669" lon="0.691154">
        <ele>1187.9</ele>
        <time>2016-06-07T07:33:48Z</time>
      </trkpt>
      <trkpt lat="42.416684" lon="0.690870">
        <ele>1187.9</ele>
        <time>2016-06-07T07:33:59Z</time>
      </trkpt>
      <trkpt lat="42.416743" lon="0.690502">
        <ele>1188.3</ele>
        <time>2016-06-07T07:34:14Z</time>
      </trkpt>
      <trkpt lat="42.416822" lon="0.690188">
        <ele>1188.3</ele>
        <time>2016-06-07T07:34:28Z</time>
      </trkpt>
      <trkpt lat="42.416928" lon="0.689864">
        <ele>1188.3</ele>
        <time>2016-06-07T07:34:43Z</time>
      </trkpt>
      <trkpt lat="42.417040" lon="0.689441">
        <ele>1189.8</ele>
        <time>2016-06-07T07:35:02Z</time>
      </trkpt>
      <trkpt lat="42.417073" lon="0.689315">
        <ele>1190.3</ele>
        <time>2016-06-07T07:35:14Z</time>
      </trkpt>
      <trkpt lat="42.417091" lon="0.689241">
        <ele>1188.8</ele>
        <time>2016-06-07T07:35:45Z</time>
      </trkpt>
      <trkpt lat="42.417146" lon="0.688972">
        <ele>1189.3</ele>
        <time>2016-06-07T07:47:32Z</time>
      </trkpt>
      <trkpt lat="42.417278" lon="0.688611">
        <ele>1188.8</ele>
        <time>2016-06-07T07:47:46Z</time>
      </trkpt>
      <trkpt lat="42.417368" lon="0.688316">
        <ele>1188.8</ele>
        <time>2016-06-07T07:48:00Z</time>
      </trkpt>
      <trkpt lat="42.417445" lon="0.688023">
        <ele>1188.8</ele>
        <time>2016-06-07T07:48:14Z</time>
      </trkpt>
      <trkpt lat="42.417495" lon="0.687897">
        <ele>1188.8</ele>
        <time>2016-06-07T07:48:21Z</time>
      </trkpt>
      <trkpt lat="42.417556" lon="0.687734">
        <ele>1188.8</ele>
        <time>2016-06-07T07:48:30Z</time>
      </trkpt>
      <trkpt lat="42.417576" lon="0.687519">
        <ele>1188.8</ele>
        <time>2016-06-07T07:48:42Z</time>
      </trkpt>
      <trkpt lat="42.417668" lon="0.687197">
        <ele>1188.8</ele>
        <time>2016-06-07T07:48:57Z</time>
      </trkpt>
      <trkpt lat="42.417816" lon="0.686764">
        <ele>1189.8</ele>
        <time>2016-06-07T07:49:18Z</time>
      </trkpt>
      <trkpt lat="42.417890" lon="0.686619">
        <ele>1190.3</ele>
        <time>2016-06-07T07:49:32Z</time>
      </trkpt>
      <trkpt lat="42.418012" lon="0.686467">
        <ele>1190.3</ele>
        <time>2016-06-07T07:49:50Z</time>
      </trkpt>
      <trkpt lat="42.418070" lon="0.686370">
        <ele>1190.3</ele>
        <time>2016-06-07T07:50:05Z</time>
      </trkpt>
      <trkpt lat="42.418164" lon="0.686233">
        <ele>1190.7</ele>
        <time>2016-06-07T07:50:16Z</time>
      </trkpt>
      <trkpt lat="42.418289" lon="0.686062">
        <ele>1192.2</ele>
        <time>2016-06-07T07:50:30Z</time>
      </trkpt>
      <trkpt lat="42.418408" lon="0.685841">
        <ele>1193.1</ele>
        <time>2016-06-07T07:50:44Z</time>
      </trkpt>
      <trkpt lat="42.418467" lon="0.685750">
        <ele>1194.1</ele>
        <time>2016-06-07T07:50:50Z</time>
      </trkpt>
      <trkpt lat="42.418670" lon="0.685395">
        <ele>1192.7</ele>
        <time>2016-06-07T07:51:03Z</time>
      </trkpt>
      <trkpt lat="42.418819" lon="0.684908">
        <ele>1189.8</ele>
        <time>2016-06-07T07:51:14Z</time>
      </trkpt>
      <trkpt lat="42.418810" lon="0.684693">
        <ele>1187.9</ele>
        <time>2016-06-07T07:51:18Z</time>
      </trkpt>
      <trkpt lat="42.418794" lon="0.684572">
        <ele>1187.4</ele>
        <time>2016-06-07T07:51:20Z</time>
      </trkpt>
      <trkpt lat="42.418700" lon="0.684000">
        <ele>1183.5</ele>
        <time>2016-06-07T07:51:31Z</time>
      </trkpt>
      <trkpt lat="42.418679" lon="0.683908">
        <ele>1183.0</ele>
        <time>2016-06-07T07:51:33Z</time>
      </trkpt>
      <trkpt lat="42.418559" lon="0.683454">
        <ele>1179.2</ele>
        <time>2016-06-07T07:51:41Z</time>
      </trkpt>
      <trkpt lat="42.418462" lon="0.682896">
        <ele>1175.8</ele>
        <time>2016-06-07T07:51:52Z</time>
      </trkpt>
      <trkpt lat="42.418370" lon="0.682365">
        <ele>1173.4</ele>
        <time>2016-06-07T07:52:03Z</time>
      </trkpt>
      <trkpt lat="42.418220" lon="0.681993">
        <ele>1169.6</ele>
        <time>2016-06-07T07:52:10Z</time>
      </trkpt>
      <trkpt lat="42.418090" lon="0.681675">
        <ele>1168.6</ele>
        <time>2016-06-07T07:52:15Z</time>
      </trkpt>
      <trkpt lat="42.417896" lon="0.681256">
        <ele>1166.7</ele>
        <time>2016-06-07T07:52:26Z</time>
      </trkpt>
      <trkpt lat="42.417931" lon="0.681153">
        <ele>1166.7</ele>
        <time>2016-06-07T07:52:32Z</time>
      </trkpt>
      <trkpt lat="42.418055" lon="0.680899">
        <ele>1168.6</ele>
        <time>2016-06-07T07:52:46Z</time>
      </trkpt>
      <trkpt lat="42.418071" lon="0.680837">
        <ele>1168.6</ele>
        <time>2016-06-07T07:52:49Z</time>
      </trkpt>
      <trkpt lat="42.418161" lon="0.680642">
        <ele>1169.6</ele>
        <time>2016-06-07T07:53:00Z</time>
      </trkpt>
      <trkpt lat="42.418244" lon="0.680384">
        <ele>1169.6</ele>
        <time>2016-06-07T07:53:12Z</time>
      </trkpt>
      <trkpt lat="42.418283" lon="0.680133">
        <ele>1169.6</ele>
        <time>2016-06-07T07:53:24Z</time>
      </trkpt>
      <trkpt lat="42.418287" lon="0.680049">
        <ele>1169.6</ele>
        <time>2016-06-07T07:53:27Z</time>
      </trkpt>
      <trkpt lat="42.418323" lon="0.679729">
        <ele>1169.6</ele>
        <time>2016-06-07T07:53:42Z</time>
      </trkpt>
      <trkpt lat="42.418364" lon="0.679589">
        <ele>1169.6</ele>
        <time>2016-06-07T07:53:51Z</time>
      </trkpt>
      <trkpt lat="42.418249" lon="0.679371">
        <ele>1167.7</ele>
        <time>2016-06-07T07:53:59Z</time>
      </trkpt>
      <trkpt lat="42.418156" lon="0.679093">
        <ele>1166.2</ele>
        <time>2016-06-07T07:54:06Z</time>
      </trkpt>
      <trkpt lat="42.418146" lon="0.678933">
        <ele>1166.2</ele>
        <time>2016-06-07T07:54:10Z</time>
      </trkpt>
      <trkpt lat="42.418386" lon="0.678874">
        <ele>1167.7</ele>
        <time>2016-06-07T07:54:25Z</time>
      </trkpt>
      <trkpt lat="42.418607" lon="0.678869">
        <ele>1168.6</ele>
        <time>2016-06-07T07:54:40Z</time>
      </trkpt>
      <trkpt lat="42.418812" lon="0.678927">
        <ele>1170.1</ele>
        <time>2016-06-07T07:54:55Z</time>
      </trkpt>
      <trkpt lat="42.419033" lon="0.679024">
        <ele>1172.0</ele>
        <time>2016-06-07T07:55:11Z</time>
      </trkpt>
      <trkpt lat="42.419247" lon="0.679103">
        <ele>1174.4</ele>
        <time>2016-06-07T07:55:27Z</time>
      </trkpt>
      <trkpt lat="42.419435" lon="0.679231">
        <ele>1175.8</ele>
        <time>2016-06-07T07:55:42Z</time>
      </trkpt>
      <trkpt lat="42.419576" lon="0.679325">
        <ele>1178.2</ele>
        <time>2016-06-07T07:55:55Z</time>
      </trkpt>
      <trkpt lat="42.419707" lon="0.679390">
        <ele>1179.2</ele>
        <time>2016-06-07T07:56:05Z</time>
      </trkpt>
      <trkpt lat="42.419911" lon="0.679485">
        <ele>1181.6</ele>
        <time>2016-06-07T07:56:20Z</time>
      </trkpt>
      <trkpt lat="42.420103" lon="0.679569">
        <ele>1183.0</ele>
        <time>2016-06-07T07:56:34Z</time>
      </trkpt>
      <trkpt lat="42.420221" lon="0.679611">
        <ele>1184.5</ele>
        <time>2016-06-07T07:56:46Z</time>
      </trkpt>
      <trkpt lat="42.420381" lon="0.679697">
        <ele>1186.4</ele>
        <time>2016-06-07T07:57:01Z</time>
      </trkpt>
      <trkpt lat="42.420557" lon="0.679780">
        <ele>1189.3</ele>
        <time>2016-06-07T07:57:18Z</time>
      </trkpt>
      <trkpt lat="42.420709" lon="0.679808">
        <ele>1191.2</ele>
        <time>2016-06-07T07:57:30Z</time>
      </trkpt>
      <trkpt lat="42.420763" lon="0.679847">
        <ele>1191.7</ele>
        <time>2016-06-07T07:57:34Z</time>
      </trkpt>
      <trkpt lat="42.420925" lon="0.679909">
        <ele>1193.6</ele>
        <time>2016-06-07T07:57:48Z</time>
      </trkpt>
      <trkpt lat="42.421106" lon="0.679996">
        <ele>1196.0</ele>
        <time>2016-06-07T07:58:03Z</time>
      </trkpt>
      <trkpt lat="42.421185" lon="0.680041">
        <ele>1197.0</ele>
        <time>2016-06-07T07:58:09Z</time>
      </trkpt>
      <trkpt lat="42.421299" lon="0.680146">
        <ele>1198.9</ele>
        <time>2016-06-07T07:58:20Z</time>
      </trkpt>
      <trkpt lat="42.421505" lon="0.680306">
        <ele>1199.9</ele>
        <time>2016-06-07T07:58:30Z</time>
      </trkpt>
      <trkpt lat="42.421648" lon="0.680399">
        <ele>1201.8</ele>
        <time>2016-06-07T07:58:44Z</time>
      </trkpt>
      <trkpt lat="42.421796" lon="0.680434">
        <ele>1202.8</ele>
        <time>2016-06-07T07:58:52Z</time>
      </trkpt>
      <trkpt lat="42.421845" lon="0.680360">
        <ele>1203.7</ele>
        <time>2016-06-07T07:58:59Z</time>
      </trkpt>
      <trkpt lat="42.421813" lon="0.680192">
        <ele>1205.6</ele>
        <time>2016-06-07T07:59:12Z</time>
      </trkpt>
      <trkpt lat="42.421735" lon="0.679820">
        <ele>1207.6</ele>
        <time>2016-06-07T07:59:31Z</time>
      </trkpt>
      <trkpt lat="42.421648" lon="0.679558">
        <ele>1209.0</ele>
        <time>2016-06-07T07:59:45Z</time>
      </trkpt>
      <trkpt lat="42.421583" lon="0.679308">
        <ele>1210.0</ele>
        <time>2016-06-07T07:59:58Z</time>
      </trkpt>
      <trkpt lat="42.421578" lon="0.679236">
        <ele>1210.4</ele>
        <time>2016-06-07T08:00:02Z</time>
      </trkpt>
      <trkpt lat="42.421545" lon="0.679098">
        <ele>1210.9</ele>
        <time>2016-06-07T08:00:09Z</time>
      </trkpt>
      <trkpt lat="42.421376" lon="0.678868">
        <ele>1211.4</ele>
        <time>2016-06-07T08:00:21Z</time>
      </trkpt>
      <trkpt lat="42.421202" lon="0.678667">
        <ele>1211.9</ele>
        <time>2016-06-07T08:00:33Z</time>
      </trkpt>
      <trkpt lat="42.420987" lon="0.678451">
        <ele>1212.8</ele>
        <time>2016-06-07T08:00:48Z</time>
      </trkpt>
      <trkpt lat="42.420747" lon="0.678223">
        <ele>1213.8</ele>
        <time>2016-06-07T08:01:03Z</time>
      </trkpt>
      <trkpt lat="42.420611" lon="0.677906">
        <ele>1215.2</ele>
        <time>2016-06-07T08:01:19Z</time>
      </trkpt>
      <trkpt lat="42.420545" lon="0.677728">
        <ele>1216.2</ele>
        <time>2016-06-07T08:01:30Z</time>
      </trkpt>
      <trkpt lat="42.420481" lon="0.677488">
        <ele>1217.2</ele>
        <time>2016-06-07T08:01:43Z</time>
      </trkpt>
      <trkpt lat="42.420382" lon="0.677236">
        <ele>1218.6</ele>
        <time>2016-06-07T08:01:58Z</time>
      </trkpt>
      <trkpt lat="42.420331" lon="0.677057">
        <ele>1220.1</ele>
        <time>2016-06-07T08:02:12Z</time>
      </trkpt>
      <trkpt lat="42.420264" lon="0.676903">
        <ele>1221.5</ele>
        <time>2016-06-07T08:02:23Z</time>
      </trkpt>
      <trkpt lat="42.420157" lon="0.676701">
        <ele>1222.9</ele>
        <time>2016-06-07T08:02:37Z</time>
      </trkpt>
      <trkpt lat="42.419981" lon="0.676393">
        <ele>1225.3</ele>
        <time>2016-06-07T08:02:55Z</time>
      </trkpt>
      <trkpt lat="42.419807" lon="0.676088">
        <ele>1226.8</ele>
        <time>2016-06-07T08:03:10Z</time>
      </trkpt>
      <trkpt lat="42.419675" lon="0.675810">
        <ele>1227.7</ele>
        <time>2016-06-07T08:03:24Z</time>
      </trkpt>
      <trkpt lat="42.419662" lon="0.675745">
        <ele>1228.2</ele>
        <time>2016-06-07T08:03:28Z</time>
      </trkpt>
      <trkpt lat="42.419595" lon="0.675581">
        <ele>1229.2</ele>
        <time>2016-06-07T08:03:37Z</time>
      </trkpt>
      <trkpt lat="42.419528" lon="0.675093">
        <ele>1229.7</ele>
        <time>2016-06-07T08:03:49Z</time>
      </trkpt>
      <trkpt lat="42.419560" lon="0.674884">
        <ele>1229.7</ele>
        <time>2016-06-07T08:03:54Z</time>
      </trkpt>
      <trkpt lat="42.419686" lon="0.674335">
        <ele>1228.2</ele>
        <time>2016-06-07T08:04:08Z</time>
      </trkpt>
      <trkpt lat="42.419863" lon="0.673896">
        <ele>1228.2</ele>
        <time>2016-06-07T08:04:20Z</time>
      </trkpt>
      <trkpt lat="42.420079" lon="0.673499">
        <ele>1228.7</ele>
        <time>2016-06-07T08:04:31Z</time>
      </trkpt>
      <trkpt lat="42.420132" lon="0.672965">
        <ele>1228.7</ele>
        <time>2016-06-07T08:04:43Z</time>
      </trkpt>
      <trkpt lat="42.420092" lon="0.672535">
        <ele>1228.7</ele>
        <time>2016-06-07T08:04:53Z</time>
      </trkpt>
      <trkpt lat="42.419853" lon="0.671968">
        <ele>1227.7</ele>
        <time>2016-06-07T08:05:05Z</time>
      </trkpt>
      <trkpt lat="42.419687" lon="0.671453">
        <ele>1226.8</ele>
        <time>2016-06-07T08:05:15Z</time>
      </trkpt>
      <trkpt lat="42.419841" lon="0.671109">
        <ele>1223.4</ele>
        <time>2016-06-07T08:05:24Z</time>
      </trkpt>
      <trkpt lat="42.419965" lon="0.671103">
        <ele>1223.4</ele>
        <time>2016-06-07T08:05:30Z</time>
      </trkpt>
      <trkpt lat="42.420085" lon="0.671139">
        <ele>1223.4</ele>
        <time>2016-06-07T08:05:37Z</time>
      </trkpt>
      <trkpt lat="42.420353" lon="0.671160">
        <ele>1225.8</ele>
        <time>2016-06-07T08:05:52Z</time>
      </trkpt>
      <trkpt lat="42.420613" lon="0.671207">
        <ele>1226.8</ele>
        <time>2016-06-07T08:06:07Z</time>
      </trkpt>
      <trkpt lat="42.420815" lon="0.671248">
        <ele>1228.2</ele>
        <time>2016-06-07T08:06:20Z</time>
      </trkpt>
      <trkpt lat="42.421090" lon="0.671161">
        <ele>1230.1</ele>
        <time>2016-06-07T08:06:37Z</time>
      </trkpt>
      <trkpt lat="42.421307" lon="0.670965">
        <ele>1232.1</ele>
        <time>2016-06-07T08:06:53Z</time>
      </trkpt>
      <trkpt lat="42.421471" lon="0.670679">
        <ele>1234.0</ele>
        <time>2016-06-07T08:07:10Z</time>
      </trkpt>
      <trkpt lat="42.421611" lon="0.670347">
        <ele>1235.4</ele>
        <time>2016-06-07T08:07:27Z</time>
      </trkpt>
      <trkpt lat="42.421872" lon="0.670075">
        <ele>1237.4</ele>
        <time>2016-06-07T08:07:47Z</time>
      </trkpt>
      <trkpt lat="42.422084" lon="0.669817">
        <ele>1238.8</ele>
        <time>2016-06-07T08:08:05Z</time>
      </trkpt>
      <trkpt lat="42.422233" lon="0.669459">
        <ele>1240.2</ele>
        <time>2016-06-07T08:08:24Z</time>
      </trkpt>
      <trkpt lat="42.422227" lon="0.669100">
        <ele>1242.2</ele>
        <time>2016-06-07T08:08:40Z</time>
      </trkpt>
      <trkpt lat="42.422111" lon="0.668757">
        <ele>1244.1</ele>
        <time>2016-06-07T08:08:58Z</time>
      </trkpt>
      <trkpt lat="42.421922" lon="0.668553">
        <ele>1246.0</ele>
        <time>2016-06-07T08:09:14Z</time>
      </trkpt>
      <trkpt lat="42.421679" lon="0.668419">
        <ele>1247.9</ele>
        <time>2016-06-07T08:09:30Z</time>
      </trkpt>
      <trkpt lat="42.421379" lon="0.668410">
        <ele>1248.9</ele>
        <time>2016-06-07T08:09:48Z</time>
      </trkpt>
      <trkpt lat="42.421061" lon="0.668346">
        <ele>1250.3</ele>
        <time>2016-06-07T08:10:07Z</time>
      </trkpt>
      <trkpt lat="42.420746" lon="0.668222">
        <ele>1252.3</ele>
        <time>2016-06-07T08:10:24Z</time>
      </trkpt>
      <trkpt lat="42.420506" lon="0.668040">
        <ele>1250.8</ele>
        <time>2016-06-07T08:10:32Z</time>
      </trkpt>
      <trkpt lat="42.420037" lon="0.667456">
        <ele>1247.0</ele>
        <time>2016-06-07T08:10:43Z</time>
      </trkpt>
      <trkpt lat="42.419793" lon="0.667022">
        <ele>1243.1</ele>
        <time>2016-06-07T08:10:48Z</time>
      </trkpt>
      <trkpt lat="42.419696" lon="0.666860">
        <ele>1241.2</ele>
        <time>2016-06-07T08:10:50Z</time>
      </trkpt>
      <trkpt lat="42.419632" lon="0.666529">
        <ele>1236.4</ele>
        <time>2016-06-07T08:10:55Z</time>
      </trkpt>
      <trkpt lat="42.419885" lon="0.666414">
        <ele>1233.5</ele>
        <time>2016-06-07T08:11:01Z</time>
      </trkpt>
      <trkpt lat="42.420070" lon="0.666444">
        <ele>1233.0</ele>
        <time>2016-06-07T08:11:10Z</time>
      </trkpt>
      <trkpt lat="42.420322" lon="0.666496">
        <ele>1235.4</ele>
        <time>2016-06-07T08:11:25Z</time>
      </trkpt>
      <trkpt lat="42.420586" lon="0.666581">
        <ele>1236.4</ele>
        <time>2016-06-07T08:11:40Z</time>
      </trkpt>
      <trkpt lat="42.420893" lon="0.666720">
        <ele>1236.9</ele>
        <time>2016-06-07T08:11:52Z</time>
      </trkpt>
      <trkpt lat="42.421013" lon="0.666766">
        <ele>1235.4</ele>
        <time>2016-06-07T08:11:55Z</time>
      </trkpt>
      <trkpt lat="42.421294" lon="0.666739">
        <ele>1234.0</ele>
        <time>2016-06-07T08:12:01Z</time>
      </trkpt>
      <trkpt lat="42.421602" lon="0.666615">
        <ele>1233.0</ele>
        <time>2016-06-07T08:12:07Z</time>
      </trkpt>
      <trkpt lat="42.421882" lon="0.666574">
        <ele>1232.1</ele>
        <time>2016-06-07T08:12:12Z</time>
      </trkpt>
      <trkpt lat="42.422486" lon="0.666562">
        <ele>1232.1</ele>
        <time>2016-06-07T08:12:26Z</time>
      </trkpt>
      <trkpt lat="42.422768" lon="0.666553">
        <ele>1233.0</ele>
        <time>2016-06-07T08:12:40Z</time>
      </trkpt>
      <trkpt lat="42.423119" lon="0.666551">
        <ele>1234.0</ele>
        <time>2016-06-07T08:12:56Z</time>
      </trkpt>
      <trkpt lat="42.423482" lon="0.666536">
        <ele>1235.0</ele>
        <time>2016-06-07T08:13:12Z</time>
      </trkpt>
      <trkpt lat="42.423751" lon="0.666375">
        <ele>1235.9</ele>
        <time>2016-06-07T08:13:27Z</time>
      </trkpt>
      <trkpt lat="42.423929" lon="0.666111">
        <ele>1237.4</ele>
        <time>2016-06-07T08:13:41Z</time>
      </trkpt>
      <trkpt lat="42.424040" lon="0.665748">
        <ele>1237.8</ele>
        <time>2016-06-07T08:13:55Z</time>
      </trkpt>
      <trkpt lat="42.424072" lon="0.665213">
        <ele>1238.3</ele>
        <time>2016-06-07T08:14:10Z</time>
      </trkpt>
      <trkpt lat="42.423987" lon="0.664930">
        <ele>1238.3</ele>
        <time>2016-06-07T08:14:18Z</time>
      </trkpt>
      <trkpt lat="42.423928" lon="0.664847">
        <ele>1236.4</ele>
        <time>2016-06-07T08:14:20Z</time>
      </trkpt>
      <trkpt lat="42.423894" lon="0.664806">
        <ele>1236.4</ele>
        <time>2016-06-07T08:14:21Z</time>
      </trkpt>
      <trkpt lat="42.423799" lon="0.664608">
        <ele>1235.9</ele>
        <time>2016-06-07T08:14:25Z</time>
      </trkpt>
      <trkpt lat="42.423807" lon="0.664102">
        <ele>1234.5</ele>
        <time>2016-06-07T08:14:33Z</time>
      </trkpt>
      <trkpt lat="42.423947" lon="0.663728">
        <ele>1234.5</ele>
        <time>2016-06-07T08:14:43Z</time>
      </trkpt>
      <trkpt lat="42.424113" lon="0.663177">
        <ele>1234.5</ele>
        <time>2016-06-07T08:14:56Z</time>
      </trkpt>
      <trkpt lat="42.424251" lon="0.662767">
        <ele>1234.5</ele>
        <time>2016-06-07T08:15:05Z</time>
      </trkpt>
      <trkpt lat="42.424514" lon="0.661889">
        <ele>1233.0</ele>
        <time>2016-06-07T08:15:21Z</time>
      </trkpt>
      <trkpt lat="42.424815" lon="0.661272">
        <ele>1234.0</ele>
        <time>2016-06-07T08:15:37Z</time>
      </trkpt>
      <trkpt lat="42.425089" lon="0.661113">
        <ele>1234.0</ele>
        <time>2016-06-07T08:15:49Z</time>
      </trkpt>
      <trkpt lat="42.425262" lon="0.661462">
        <ele>1234.0</ele>
        <time>2016-06-07T08:16:05Z</time>
      </trkpt>
      <trkpt lat="42.425216" lon="0.661775">
        <ele>1234.5</ele>
        <time>2016-06-07T08:16:20Z</time>
      </trkpt>
      <trkpt lat="42.425169" lon="0.661932">
        <ele>1235.0</ele>
        <time>2016-06-07T08:16:34Z</time>
      </trkpt>
      <trkpt lat="42.425133" lon="0.662124">
        <ele>1235.0</ele>
        <time>2016-06-07T08:16:51Z</time>
      </trkpt>
      <trkpt lat="42.425105" lon="0.662272">
        <ele>1235.0</ele>
        <time>2016-06-07T08:17:02Z</time>
      </trkpt>
      <trkpt lat="42.425048" lon="0.662672">
        <ele>1235.0</ele>
        <time>2016-06-07T08:17:19Z</time>
      </trkpt>
      <trkpt lat="42.425033" lon="0.663019">
        <ele>1235.0</ele>
        <time>2016-06-07T08:17:35Z</time>
      </trkpt>
      <trkpt lat="42.425046" lon="0.663322">
        <ele>1235.0</ele>
        <time>2016-06-07T08:17:49Z</time>
      </trkpt>
      <trkpt lat="42.425062" lon="0.663490">
        <ele>1235.0</ele>
        <time>2016-06-07T08:18:01Z</time>
      </trkpt>
      <trkpt lat="42.425091" lon="0.663627">
        <ele>1235.0</ele>
        <time>2016-06-07T08:18:13Z</time>
      </trkpt>
      <trkpt lat="42.425226" lon="0.663958">
        <ele>1235.9</ele>
        <time>2016-06-07T08:18:30Z</time>
      </trkpt>
      <trkpt lat="42.425366" lon="0.664175">
        <ele>1236.4</ele>
        <time>2016-06-07T08:18:43Z</time>
      </trkpt>
      <trkpt lat="42.425628" lon="0.664323">
        <ele>1237.4</ele>
        <time>2016-06-07T08:18:59Z</time>
      </trkpt>
      <trkpt lat="42.425865" lon="0.664379">
        <ele>1237.8</ele>
        <time>2016-06-07T08:19:14Z</time>
      </trkpt>
      <trkpt lat="42.426172" lon="0.664256">
        <ele>1238.8</ele>
        <time>2016-06-07T08:19:31Z</time>
      </trkpt>
      <trkpt lat="42.426650" lon="0.663911">
        <ele>1235.9</ele>
        <time>2016-06-07T08:19:49Z</time>
      </trkpt>
      <trkpt lat="42.426944" lon="0.664121">
        <ele>1234.5</ele>
        <time>2016-06-07T08:20:02Z</time>
      </trkpt>
      <trkpt lat="42.427097" lon="0.664518">
        <ele>1232.1</ele>
        <time>2016-06-07T08:20:20Z</time>
      </trkpt>
      <trkpt lat="42.427133" lon="0.664599">
        <ele>1232.1</ele>
        <time>2016-06-07T08:20:26Z</time>
      </trkpt>
      <trkpt lat="42.427189" lon="0.664699">
        <ele>1231.1</ele>
        <time>2016-06-07T08:20:49Z</time>
      </trkpt>
      <trkpt lat="42.427272" lon="0.664941">
        <ele>1231.1</ele>
        <time>2016-06-07T08:21:12Z</time>
      </trkpt>
      <trkpt lat="42.427311" lon="0.665060">
        <ele>1233.5</ele>
        <time>2016-06-07T08:21:25Z</time>
      </trkpt>
      <trkpt lat="42.427324" lon="0.665162">
        <ele>1234.5</ele>
        <time>2016-06-07T08:21:41Z</time>
      </trkpt>
      <trkpt lat="42.427387" lon="0.665347">
        <ele>1237.4</ele>
        <time>2016-06-07T08:22:03Z</time>
      </trkpt>
      <trkpt lat="42.427439" lon="0.665496">
        <ele>1239.3</ele>
        <time>2016-06-07T08:22:21Z</time>
      </trkpt>
      <trkpt lat="42.427454" lon="0.665602">
        <ele>1240.2</ele>
        <time>2016-06-07T08:22:31Z</time>
      </trkpt>
      <trkpt lat="42.427571" lon="0.665648">
        <ele>1241.2</ele>
        <time>2016-06-07T08:22:46Z</time>
      </trkpt>
      <trkpt lat="42.427619" lon="0.665616">
        <ele>1241.2</ele>
        <time>2016-06-07T08:23:00Z</time>
      </trkpt>
      <trkpt lat="42.427873" lon="0.665414">
        <ele>1243.1</ele>
        <time>2016-06-07T08:23:19Z</time>
      </trkpt>
      <trkpt lat="42.428027" lon="0.665188">
        <ele>1245.0</ele>
        <time>2016-06-07T08:23:35Z</time>
      </trkpt>
      <trkpt lat="42.428084" lon="0.664818">
        <ele>1247.5</ele>
        <time>2016-06-07T08:23:53Z</time>
      </trkpt>
      <trkpt lat="42.428107" lon="0.664424">
        <ele>1249.9</ele>
        <time>2016-06-07T08:24:12Z</time>
      </trkpt>
      <trkpt lat="42.428080" lon="0.664089">
        <ele>1252.3</ele>
        <time>2016-06-07T08:24:28Z</time>
      </trkpt>
      <trkpt lat="42.428070" lon="0.663988">
        <ele>1252.7</ele>
        <time>2016-06-07T08:24:33Z</time>
      </trkpt>
      <trkpt lat="42.427982" lon="0.663569">
        <ele>1254.7</ele>
        <time>2016-06-07T08:24:54Z</time>
      </trkpt>
      <trkpt lat="42.427904" lon="0.663164">
        <ele>1257.1</ele>
        <time>2016-06-07T08:25:14Z</time>
      </trkpt>
      <trkpt lat="42.427841" lon="0.662801">
        <ele>1259.5</ele>
        <time>2016-06-07T08:25:32Z</time>
      </trkpt>
      <trkpt lat="42.427745" lon="0.662346">
        <ele>1261.9</ele>
        <time>2016-06-07T08:25:54Z</time>
      </trkpt>
      <trkpt lat="42.427705" lon="0.661919">
        <ele>1264.8</ele>
        <time>2016-06-07T08:26:15Z</time>
      </trkpt>
      <trkpt lat="42.427682" lon="0.661531">
        <ele>1267.2</ele>
        <time>2016-06-07T08:26:34Z</time>
      </trkpt>
      <trkpt lat="42.427654" lon="0.661191">
        <ele>1269.1</ele>
        <time>2016-06-07T08:26:50Z</time>
      </trkpt>
      <trkpt lat="42.427641" lon="0.660801">
        <ele>1271.5</ele>
        <time>2016-06-07T08:27:09Z</time>
      </trkpt>
      <trkpt lat="42.427621" lon="0.660425">
        <ele>1273.9</ele>
        <time>2016-06-07T08:27:27Z</time>
      </trkpt>
      <trkpt lat="42.427606" lon="0.660037">
        <ele>1276.3</ele>
        <time>2016-06-07T08:27:45Z</time>
      </trkpt>
      <trkpt lat="42.427626" lon="0.659633">
        <ele>1278.7</ele>
        <time>2016-06-07T08:28:04Z</time>
      </trkpt>
      <trkpt lat="42.427641" lon="0.659339">
        <ele>1280.1</ele>
        <time>2016-06-07T08:28:18Z</time>
      </trkpt>
      <trkpt lat="42.427665" lon="0.658984">
        <ele>1282.1</ele>
        <time>2016-06-07T08:28:35Z</time>
      </trkpt>
      <trkpt lat="42.427699" lon="0.658565">
        <ele>1284.9</ele>
        <time>2016-06-07T08:28:55Z</time>
      </trkpt>
      <trkpt lat="42.427656" lon="0.658225">
        <ele>1286.9</ele>
        <time>2016-06-07T08:29:11Z</time>
      </trkpt>
      <trkpt lat="42.427580" lon="0.657950">
        <ele>1288.8</ele>
        <time>2016-06-07T08:29:25Z</time>
      </trkpt>
      <trkpt lat="42.427428" lon="0.657705">
        <ele>1290.7</ele>
        <time>2016-06-07T08:29:41Z</time>
      </trkpt>
      <trkpt lat="42.427158" lon="0.657656">
        <ele>1293.1</ele>
        <time>2016-06-07T08:29:59Z</time>
      </trkpt>
      <trkpt lat="42.426924" lon="0.657711">
        <ele>1294.6</ele>
        <time>2016-06-07T08:30:14Z</time>
      </trkpt>
      <trkpt lat="42.426635" lon="0.657748">
        <ele>1297.0</ele>
        <time>2016-06-07T08:30:33Z</time>
      </trkpt>
      <trkpt lat="42.426388" lon="0.657722">
        <ele>1299.4</ele>
        <time>2016-06-07T08:30:49Z</time>
      </trkpt>
      <trkpt lat="42.426135" lon="0.657617">
        <ele>1301.3</ele>
        <time>2016-06-07T08:31:05Z</time>
      </trkpt>
      <trkpt lat="42.425902" lon="0.657442">
        <ele>1303.7</ele>
        <time>2016-06-07T08:31:22Z</time>
      </trkpt>
      <trkpt lat="42.425791" lon="0.657353">
        <ele>1304.2</ele>
        <time>2016-06-07T08:31:51Z</time>
      </trkpt>
      <trkpt lat="42.425604" lon="0.657103">
        <ele>1307.1</ele>
        <time>2016-06-07T08:32:08Z</time>
      </trkpt>
      <trkpt lat="42.425416" lon="0.656816">
        <ele>1309.0</ele>
        <time>2016-06-07T08:32:26Z</time>
      </trkpt>
      <trkpt lat="42.425192" lon="0.656490">
        <ele>1311.9</ele>
        <time>2016-06-07T08:32:47Z</time>
      </trkpt>
      <trkpt lat="42.425011" lon="0.656198">
        <ele>1313.8</ele>
        <time>2016-06-07T08:33:05Z</time>
      </trkpt>
      <trkpt lat="42.424829" lon="0.655838">
        <ele>1316.7</ele>
        <time>2016-06-07T08:33:25Z</time>
      </trkpt>
      <trkpt lat="42.424615" lon="0.655394">
        <ele>1319.6</ele>
        <time>2016-06-07T08:33:49Z</time>
      </trkpt>
      <trkpt lat="42.424464" lon="0.655061">
        <ele>1322.4</ele>
        <time>2016-06-07T08:34:07Z</time>
      </trkpt>
      <trkpt lat="42.424292" lon="0.654691">
        <ele>1325.3</ele>
        <time>2016-06-07T08:34:27Z</time>
      </trkpt>
      <trkpt lat="42.424152" lon="0.654349">
        <ele>1326.8</ele>
        <time>2016-06-07T08:34:45Z</time>
      </trkpt>
      <trkpt lat="42.424043" lon="0.653985">
        <ele>1329.6</ele>
        <time>2016-06-07T08:35:03Z</time>
      </trkpt>
      <trkpt lat="42.423946" lon="0.653584">
        <ele>1332.5</ele>
        <time>2016-06-07T08:35:23Z</time>
      </trkpt>
      <trkpt lat="42.423841" lon="0.653148">
        <ele>1334.9</ele>
        <time>2016-06-07T08:35:44Z</time>
      </trkpt>
      <trkpt lat="42.423761" lon="0.652791">
        <ele>1336.9</ele>
        <time>2016-06-07T08:36:01Z</time>
      </trkpt>
      <trkpt lat="42.423674" lon="0.652441">
        <ele>1339.3</ele>
        <time>2016-06-07T08:36:18Z</time>
      </trkpt>
      <trkpt lat="42.423598" lon="0.652084">
        <ele>1341.7</ele>
        <time>2016-06-07T08:36:35Z</time>
      </trkpt>
      <trkpt lat="42.423507" lon="0.651645">
        <ele>1344.1</ele>
        <time>2016-06-07T08:36:56Z</time>
      </trkpt>
      <trkpt lat="42.423423" lon="0.651217">
        <ele>1346.9</ele>
        <time>2016-06-07T08:37:16Z</time>
      </trkpt>
      <trkpt lat="42.423380" lon="0.650800">
        <ele>1349.8</ele>
        <time>2016-06-07T08:37:35Z</time>
      </trkpt>
      <trkpt lat="42.423358" lon="0.650429">
        <ele>1351.8</ele>
        <time>2016-06-07T08:37:52Z</time>
      </trkpt>
      <trkpt lat="42.423321" lon="0.649947">
        <ele>1354.6</ele>
        <time>2016-06-07T08:38:14Z</time>
      </trkpt>
      <trkpt lat="42.423296" lon="0.649533">
        <ele>1357.0</ele>
        <time>2016-06-07T08:38:33Z</time>
      </trkpt>
      <trkpt lat="42.423297" lon="0.649138">
        <ele>1359.4</ele>
        <time>2016-06-07T08:38:51Z</time>
      </trkpt>
      <trkpt lat="42.423414" lon="0.648694">
        <ele>1362.3</ele>
        <time>2016-06-07T08:39:12Z</time>
      </trkpt>
      <trkpt lat="42.423535" lon="0.648374">
        <ele>1363.8</ele>
        <time>2016-06-07T08:39:26Z</time>
      </trkpt>
      <trkpt lat="42.423580" lon="0.648309">
        <ele>1363.8</ele>
        <time>2016-06-07T08:39:40Z</time>
      </trkpt>
      <trkpt lat="42.423640" lon="0.648095">
        <ele>1365.2</ele>
        <time>2016-06-07T09:00:56Z</time>
      </trkpt>
      <trkpt lat="42.423751" lon="0.647795">
        <ele>1364.3</ele>
        <time>2016-06-07T09:01:06Z</time>
      </trkpt>
      <trkpt lat="42.424020" lon="0.647062">
        <ele>1362.3</ele>
        <time>2016-06-07T09:01:20Z</time>
      </trkpt>
      <trkpt lat="42.424394" lon="0.646113">
        <ele>1359.4</ele>
        <time>2016-06-07T09:01:33Z</time>
      </trkpt>
      <trkpt lat="42.424855" lon="0.644956">
        <ele>1356.6</ele>
        <time>2016-06-07T09:01:47Z</time>
      </trkpt>
      <trkpt lat="42.424943" lon="0.644776">
        <ele>1356.1</ele>
        <time>2016-06-07T09:01:49Z</time>
      </trkpt>
      <trkpt lat="42.425454" lon="0.644470">
        <ele>1352.7</ele>
        <time>2016-06-07T09:01:56Z</time>
      </trkpt>
      <trkpt lat="42.425625" lon="0.644531">
        <ele>1351.3</ele>
        <time>2016-06-07T09:01:58Z</time>
      </trkpt>
      <trkpt lat="42.426175" lon="0.644828">
        <ele>1347.4</ele>
        <time>2016-06-07T09:02:04Z</time>
      </trkpt>
      <trkpt lat="42.426456" lon="0.645235">
        <ele>1344.1</ele>
        <time>2016-06-07T09:02:08Z</time>
      </trkpt>
      <trkpt lat="42.426613" lon="0.645966">
        <ele>1340.2</ele>
        <time>2016-06-07T09:02:13Z</time>
      </trkpt>
      <trkpt lat="42.426588" lon="0.646431">
        <ele>1337.8</ele>
        <time>2016-06-07T09:02:16Z</time>
      </trkpt>
      <trkpt lat="42.426847" lon="0.647005">
        <ele>1333.5</ele>
        <time>2016-06-07T09:02:22Z</time>
      </trkpt>
      <trkpt lat="42.426938" lon="0.647024">
        <ele>1333.0</ele>
        <time>2016-06-07T09:02:23Z</time>
      </trkpt>
      <trkpt lat="42.427233" lon="0.647059">
        <ele>1331.1</ele>
        <time>2016-06-07T09:02:26Z</time>
      </trkpt>
      <trkpt lat="42.427692" lon="0.647352">
        <ele>1326.8</ele>
        <time>2016-06-07T09:02:31Z</time>
      </trkpt>
      <trkpt lat="42.427928" lon="0.647738">
        <ele>1323.9</ele>
        <time>2016-06-07T09:02:35Z</time>
      </trkpt>
      <trkpt lat="42.428372" lon="0.647694">
        <ele>1320.5</ele>
        <time>2016-06-07T09:02:40Z</time>
      </trkpt>
      <trkpt lat="42.428620" lon="0.647390">
        <ele>1318.1</ele>
        <time>2016-06-07T09:02:43Z</time>
      </trkpt>
      <trkpt lat="42.429139" lon="0.647146">
        <ele>1313.8</ele>
        <time>2016-06-07T09:02:48Z</time>
      </trkpt>
      <trkpt lat="42.429727" lon="0.647164">
        <ele>1309.5</ele>
        <time>2016-06-07T09:02:53Z</time>
      </trkpt>
      <trkpt lat="42.430148" lon="0.647232">
        <ele>1306.1</ele>
        <time>2016-06-07T09:02:56Z</time>
      </trkpt>
      <trkpt lat="42.430209" lon="0.647245">
        <ele>1305.6</ele>
        <time>2016-06-07T09:02:57Z</time>
      </trkpt>
      <trkpt lat="42.430377" lon="0.647255">
        <ele>1304.7</ele>
        <time>2016-06-07T09:02:58Z</time>
      </trkpt>
      <trkpt lat="42.430756" lon="0.647063">
        <ele>1302.2</ele>
        <time>2016-06-07T09:03:02Z</time>
      </trkpt>
      <trkpt lat="42.431054" lon="0.646805">
        <ele>1299.4</ele>
        <time>2016-06-07T09:03:05Z</time>
      </trkpt>
      <trkpt lat="42.431234" lon="0.646670">
        <ele>1297.9</ele>
        <time>2016-06-07T09:03:07Z</time>
      </trkpt>
      <trkpt lat="42.431336" lon="0.646491">
        <ele>1297.0</ele>
        <time>2016-06-07T09:03:09Z</time>
      </trkpt>
      <trkpt lat="42.431292" lon="0.646113">
        <ele>1295.5</ele>
        <time>2016-06-07T09:03:13Z</time>
      </trkpt>
      <trkpt lat="42.431165" lon="0.646014">
        <ele>1294.6</ele>
        <time>2016-06-07T09:03:15Z</time>
      </trkpt>
      <trkpt lat="42.430862" lon="0.646332">
        <ele>1291.7</ele>
        <time>2016-06-07T09:03:19Z</time>
      </trkpt>
      <trkpt lat="42.430638" lon="0.646759">
        <ele>1288.8</ele>
        <time>2016-06-07T09:03:23Z</time>
      </trkpt>
      <trkpt lat="42.430168" lon="0.646938">
        <ele>1284.5</ele>
        <time>2016-06-07T09:03:28Z</time>
      </trkpt>
      <trkpt lat="42.430036" lon="0.646897">
        <ele>1283.5</ele>
        <time>2016-06-07T09:03:29Z</time>
      </trkpt>
      <trkpt lat="42.429598" lon="0.646736">
        <ele>1279.7</ele>
        <time>2016-06-07T09:03:33Z</time>
      </trkpt>
      <trkpt lat="42.429478" lon="0.646686">
        <ele>1278.7</ele>
        <time>2016-06-07T09:03:34Z</time>
      </trkpt>
      <trkpt lat="42.428922" lon="0.646262">
        <ele>1274.4</ele>
        <time>2016-06-07T09:03:39Z</time>
      </trkpt>
      <trkpt lat="42.428478" lon="0.645985">
        <ele>1271.0</ele>
        <time>2016-06-07T09:03:43Z</time>
      </trkpt>
      <trkpt lat="42.428365" lon="0.645924">
        <ele>1270.0</ele>
        <time>2016-06-07T09:03:44Z</time>
      </trkpt>
      <trkpt lat="42.428023" lon="0.645529">
        <ele>1267.2</ele>
        <time>2016-06-07T09:03:48Z</time>
      </trkpt>
      <trkpt lat="42.427863" lon="0.645112">
        <ele>1264.8</ele>
        <time>2016-06-07T09:03:51Z</time>
      </trkpt>
      <trkpt lat="42.427869" lon="0.644514">
        <ele>1261.4</ele>
        <time>2016-06-07T09:03:55Z</time>
      </trkpt>
      <trkpt lat="42.427962" lon="0.643586">
        <ele>1256.1</ele>
        <time>2016-06-07T09:04:01Z</time>
      </trkpt>
      <trkpt lat="42.428025" lon="0.642922">
        <ele>1253.2</ele>
        <time>2016-06-07T09:04:05Z</time>
      </trkpt>
      <trkpt lat="42.428025" lon="0.642242">
        <ele>1249.4</ele>
        <time>2016-06-07T09:04:09Z</time>
      </trkpt>
      <trkpt lat="42.427959" lon="0.641553">
        <ele>1245.5</ele>
        <time>2016-06-07T09:04:13Z</time>
      </trkpt>
      <trkpt lat="42.427810" lon="0.640880">
        <ele>1241.7</ele>
        <time>2016-06-07T09:04:17Z</time>
      </trkpt>
      <trkpt lat="42.427683" lon="0.640386">
        <ele>1238.8</ele>
        <time>2016-06-07T09:04:20Z</time>
      </trkpt>
      <trkpt lat="42.427731" lon="0.639675">
        <ele>1234.5</ele>
        <time>2016-06-07T09:04:25Z</time>
      </trkpt>
      <trkpt lat="42.427816" lon="0.638939">
        <ele>1230.1</ele>
        <time>2016-06-07T09:04:30Z</time>
      </trkpt>
      <trkpt lat="42.427753" lon="0.638474">
        <ele>1227.7</ele>
        <time>2016-06-07T09:04:33Z</time>
      </trkpt>
      <trkpt lat="42.427755" lon="0.637647">
        <ele>1223.4</ele>
        <time>2016-06-07T09:04:38Z</time>
      </trkpt>
      <trkpt lat="42.427737" lon="0.636963">
        <ele>1219.6</ele>
        <time>2016-06-07T09:04:42Z</time>
      </trkpt>
      <trkpt lat="42.427724" lon="0.636617">
        <ele>1217.7</ele>
        <time>2016-06-07T09:04:44Z</time>
      </trkpt>
      <trkpt lat="42.427889" lon="0.635834">
        <ele>1212.8</ele>
        <time>2016-06-07T09:04:49Z</time>
      </trkpt>
      <trkpt lat="42.428156" lon="0.635560">
        <ele>1211.9</ele>
        <time>2016-06-07T09:04:52Z</time>
      </trkpt>
      <trkpt lat="42.428334" lon="0.635405">
        <ele>1211.4</ele>
        <time>2016-06-07T09:04:54Z</time>
      </trkpt>
      <trkpt lat="42.428537" lon="0.634750">
        <ele>1210.9</ele>
        <time>2016-06-07T09:05:00Z</time>
      </trkpt>
      <trkpt lat="42.428511" lon="0.634637">
        <ele>1210.4</ele>
        <time>2016-06-07T09:05:01Z</time>
      </trkpt>
      <trkpt lat="42.427860" lon="0.633219">
        <ele>1208.0</ele>
        <time>2016-06-07T09:05:17Z</time>
      </trkpt>
      <trkpt lat="42.427788" lon="0.633029">
        <ele>1207.1</ele>
        <time>2016-06-07T09:05:19Z</time>
      </trkpt>
      <trkpt lat="42.427807" lon="0.632148">
        <ele>1204.7</ele>
        <time>2016-06-07T09:05:27Z</time>
      </trkpt>
      <trkpt lat="42.428346" lon="0.630921">
        <ele>1201.3</ele>
        <time>2016-06-07T09:05:39Z</time>
      </trkpt>
      <trkpt lat="42.428726" lon="0.629575">
        <ele>1197.9</ele>
        <time>2016-06-07T09:05:52Z</time>
      </trkpt>
      <trkpt lat="42.428828" lon="0.628081">
        <ele>1195.1</ele>
        <time>2016-06-07T09:06:06Z</time>
      </trkpt>
      <trkpt lat="42.428819" lon="0.627575">
        <ele>1194.1</ele>
        <time>2016-06-07T09:06:11Z</time>
      </trkpt>
      <trkpt lat="42.428376" lon="0.626360">
        <ele>1192.2</ele>
        <time>2016-06-07T09:06:25Z</time>
      </trkpt>
      <trkpt lat="42.428035" lon="0.625505">
        <ele>1191.2</ele>
        <time>2016-06-07T09:06:36Z</time>
      </trkpt>
      <trkpt lat="42.428089" lon="0.624712">
        <ele>1189.3</ele>
        <time>2016-06-07T09:06:46Z</time>
      </trkpt>
      <trkpt lat="42.428285" lon="0.624303">
        <ele>1188.8</ele>
        <time>2016-06-07T09:06:52Z</time>
      </trkpt>
      <trkpt lat="42.428306" lon="0.623626">
        <ele>1186.4</ele>
        <time>2016-06-07T09:07:00Z</time>
      </trkpt>
      <trkpt lat="42.428240" lon="0.623322">
        <ele>1185.0</ele>
        <time>2016-06-07T09:07:03Z</time>
      </trkpt>
      <trkpt lat="42.428255" lon="0.622832">
        <ele>1182.1</ele>
        <time>2016-06-07T09:07:07Z</time>
      </trkpt>
      <trkpt lat="42.428297" lon="0.622574">
        <ele>1181.1</ele>
        <time>2016-06-07T09:07:09Z</time>
      </trkpt>
      <trkpt lat="42.428249" lon="0.622016">
        <ele>1178.2</ele>
        <time>2016-06-07T09:07:13Z</time>
      </trkpt>
      <trkpt lat="42.428237" lon="0.621462">
        <ele>1173.9</ele>
        <time>2016-06-07T09:07:17Z</time>
      </trkpt>
      <trkpt lat="42.428424" lon="0.621146">
        <ele>1171.5</ele>
        <time>2016-06-07T09:07:20Z</time>
      </trkpt>
      <trkpt lat="42.428598" lon="0.620986">
        <ele>1170.5</ele>
        <time>2016-06-07T09:07:22Z</time>
      </trkpt>
      <trkpt lat="42.428822" lon="0.620342">
        <ele>1166.2</ele>
        <time>2016-06-07T09:07:27Z</time>
      </trkpt>
      <trkpt lat="42.428808" lon="0.619734">
        <ele>1163.3</ele>
        <time>2016-06-07T09:07:31Z</time>
      </trkpt>
      <trkpt lat="42.428889" lon="0.619460">
        <ele>1161.9</ele>
        <time>2016-06-07T09:07:33Z</time>
      </trkpt>
      <trkpt lat="42.429149" lon="0.618879">
        <ele>1160.5</ele>
        <time>2016-06-07T09:07:38Z</time>
      </trkpt>
      <trkpt lat="42.429168" lon="0.618119">
        <ele>1160.0</ele>
        <time>2016-06-07T09:07:45Z</time>
      </trkpt>
      <trkpt lat="42.428953" lon="0.617789">
        <ele>1159.0</ele>
        <time>2016-06-07T09:07:51Z</time>
      </trkpt>
      <trkpt lat="42.428871" lon="0.617734">
        <ele>1159.5</ele>
        <time>2016-06-07T09:10:33Z</time>
      </trkpt>
      <trkpt lat="42.428981" lon="0.617629">
        <ele>1160.9</ele>
        <time>2016-06-07T09:10:43Z</time>
      </trkpt>
      <trkpt lat="42.429080" lon="0.617569">
        <ele>1161.9</ele>
        <time>2016-06-07T09:10:51Z</time>
      </trkpt>
      <trkpt lat="42.429211" lon="0.617529">
        <ele>1163.3</ele>
        <time>2016-06-07T09:11:01Z</time>
      </trkpt>
      <trkpt lat="42.429450" lon="0.617406">
        <ele>1166.2</ele>
        <time>2016-06-07T09:11:21Z</time>
      </trkpt>
      <trkpt lat="42.429625" lon="0.617301">
        <ele>1169.6</ele>
        <time>2016-06-07T09:11:35Z</time>
      </trkpt>
      <trkpt lat="42.429818" lon="0.617133">
        <ele>1171.5</ele>
        <time>2016-06-07T09:11:51Z</time>
      </trkpt>
      <trkpt lat="42.429887" lon="0.617055">
        <ele>1173.0</ele>
        <time>2016-06-07T09:11:59Z</time>
      </trkpt>
      <trkpt lat="42.429975" lon="0.617011">
        <ele>1173.4</ele>
        <time>2016-06-07T09:12:05Z</time>
      </trkpt>
      <trkpt lat="42.430061" lon="0.616983">
        <ele>1174.4</ele>
        <time>2016-06-07T09:12:11Z</time>
      </trkpt>
      <trkpt lat="42.430341" lon="0.616836">
        <ele>1176.8</ele>
        <time>2016-06-07T09:12:30Z</time>
      </trkpt>
      <trkpt lat="42.430590" lon="0.616653">
        <ele>1179.2</ele>
        <time>2016-06-07T09:12:49Z</time>
      </trkpt>
      <trkpt lat="42.430623" lon="0.616564">
        <ele>1180.2</ele>
        <time>2016-06-07T09:12:54Z</time>
      </trkpt>
      <trkpt lat="42.430592" lon="0.616424">
        <ele>1181.1</ele>
        <time>2016-06-07T09:13:02Z</time>
      </trkpt>
      <trkpt lat="42.430447" lon="0.616297">
        <ele>1182.6</ele>
        <time>2016-06-07T09:13:15Z</time>
      </trkpt>
      <trkpt lat="42.430399" lon="0.616277">
        <ele>1183.0</ele>
        <time>2016-06-07T09:13:19Z</time>
      </trkpt>
      <trkpt lat="42.430171" lon="0.616280">
        <ele>1185.0</ele>
        <time>2016-06-07T09:13:34Z</time>
      </trkpt>
      <trkpt lat="42.429945" lon="0.616318">
        <ele>1187.9</ele>
        <time>2016-06-07T09:13:50Z</time>
      </trkpt>
      <trkpt lat="42.429768" lon="0.616372">
        <ele>1189.8</ele>
        <time>2016-06-07T09:14:04Z</time>
      </trkpt>
      <trkpt lat="42.429565" lon="0.616494">
        <ele>1192.2</ele>
        <time>2016-06-07T09:14:20Z</time>
      </trkpt>
      <trkpt lat="42.429523" lon="0.616392">
        <ele>1194.1</ele>
        <time>2016-06-07T09:14:33Z</time>
      </trkpt>
      <trkpt lat="42.429679" lon="0.616229">
        <ele>1196.0</ele>
        <time>2016-06-07T09:14:49Z</time>
      </trkpt>
      <trkpt lat="42.429859" lon="0.616006">
        <ele>1198.9</ele>
        <time>2016-06-07T09:15:07Z</time>
      </trkpt>
      <trkpt lat="42.430019" lon="0.615753">
        <ele>1201.3</ele>
        <time>2016-06-07T09:15:26Z</time>
      </trkpt>
      <trkpt lat="42.430228" lon="0.615616">
        <ele>1204.7</ele>
        <time>2016-06-07T09:15:44Z</time>
      </trkpt>
      <trkpt lat="42.430424" lon="0.615409">
        <ele>1206.6</ele>
        <time>2016-06-07T09:15:59Z</time>
      </trkpt>
      <trkpt lat="42.430291" lon="0.615344">
        <ele>1207.6</ele>
        <time>2016-06-07T09:16:13Z</time>
      </trkpt>
      <trkpt lat="42.430059" lon="0.615431">
        <ele>1210.9</ele>
        <time>2016-06-07T09:16:32Z</time>
      </trkpt>
      <trkpt lat="42.429984" lon="0.615456">
        <ele>1211.4</ele>
        <time>2016-06-07T09:16:38Z</time>
      </trkpt>
      <trkpt lat="42.429794" lon="0.615579">
        <ele>1214.3</ele>
        <time>2016-06-07T09:16:56Z</time>
      </trkpt>
      <trkpt lat="42.429754" lon="0.615617">
        <ele>1215.2</ele>
        <time>2016-06-07T09:17:00Z</time>
      </trkpt>
      <trkpt lat="42.429478" lon="0.615723">
        <ele>1217.7</ele>
        <time>2016-06-07T09:17:21Z</time>
      </trkpt>
      <trkpt lat="42.429247" lon="0.615883">
        <ele>1220.1</ele>
        <time>2016-06-07T09:17:39Z</time>
      </trkpt>
      <trkpt lat="42.429082" lon="0.616044">
        <ele>1222.5</ele>
        <time>2016-06-07T09:17:55Z</time>
      </trkpt>
      <trkpt lat="42.428912" lon="0.616122">
        <ele>1224.4</ele>
        <time>2016-06-07T09:18:08Z</time>
      </trkpt>
      <trkpt lat="42.428862" lon="0.616009">
        <ele>1226.3</ele>
        <time>2016-06-07T09:18:19Z</time>
      </trkpt>
      <trkpt lat="42.429021" lon="0.615880">
        <ele>1228.7</ele>
        <time>2016-06-07T09:18:35Z</time>
      </trkpt>
      <trkpt lat="42.429153" lon="0.615683">
        <ele>1230.6</ele>
        <time>2016-06-07T09:18:52Z</time>
      </trkpt>
      <trkpt lat="42.429266" lon="0.615485">
        <ele>1233.5</ele>
        <time>2016-06-07T09:19:07Z</time>
      </trkpt>
      <trkpt lat="42.429329" lon="0.615420">
        <ele>1234.5</ele>
        <time>2016-06-07T09:19:14Z</time>
      </trkpt>
      <trkpt lat="42.429398" lon="0.615314">
        <ele>1235.9</ele>
        <time>2016-06-07T09:19:24Z</time>
      </trkpt>
      <trkpt lat="42.429454" lon="0.615197">
        <ele>1237.4</ele>
        <time>2016-06-07T09:19:32Z</time>
      </trkpt>
      <trkpt lat="42.429504" lon="0.615080">
        <ele>1238.3</ele>
        <time>2016-06-07T09:19:40Z</time>
      </trkpt>
      <trkpt lat="42.429581" lon="0.614835">
        <ele>1240.2</ele>
        <time>2016-06-07T09:19:53Z</time>
      </trkpt>
      <trkpt lat="42.429536" lon="0.614754">
        <ele>1241.2</ele>
        <time>2016-06-07T09:19:59Z</time>
      </trkpt>
      <trkpt lat="42.429372" lon="0.614864">
        <ele>1244.6</ele>
        <time>2016-06-07T09:20:18Z</time>
      </trkpt>
      <trkpt lat="42.429254" lon="0.614977">
        <ele>1246.0</ele>
        <time>2016-06-07T09:20:30Z</time>
      </trkpt>
      <trkpt lat="42.429069" lon="0.615131">
        <ele>1248.9</ele>
        <time>2016-06-07T09:20:48Z</time>
      </trkpt>
      <trkpt lat="42.428853" lon="0.615218">
        <ele>1251.3</ele>
        <time>2016-06-07T09:21:05Z</time>
      </trkpt>
      <trkpt lat="42.428661" lon="0.615121">
        <ele>1252.7</ele>
        <time>2016-06-07T09:21:20Z</time>
      </trkpt>
      <trkpt lat="42.428472" lon="0.614934">
        <ele>1255.1</ele>
        <time>2016-06-07T09:21:37Z</time>
      </trkpt>
      <trkpt lat="42.428617" lon="0.614656">
        <ele>1257.5</ele>
        <time>2016-06-07T09:21:57Z</time>
      </trkpt>
      <trkpt lat="42.428805" lon="0.614587">
        <ele>1259.5</ele>
        <time>2016-06-07T09:22:12Z</time>
      </trkpt>
      <trkpt lat="42.428957" lon="0.614528">
        <ele>1261.4</ele>
        <time>2016-06-07T09:22:24Z</time>
      </trkpt>
      <trkpt lat="42.429088" lon="0.614418">
        <ele>1263.3</ele>
        <time>2016-06-07T09:22:36Z</time>
      </trkpt>
      <trkpt lat="42.429254" lon="0.614146">
        <ele>1265.2</ele>
        <time>2016-06-07T09:22:54Z</time>
      </trkpt>
      <trkpt lat="42.429282" lon="0.614086">
        <ele>1265.2</ele>
        <time>2016-06-07T09:22:56Z</time>
      </trkpt>
      <trkpt lat="42.429355" lon="0.613958">
        <ele>1266.2</ele>
        <time>2016-06-07T09:23:05Z</time>
      </trkpt>
      <trkpt lat="42.429429" lon="0.613665">
        <ele>1267.6</ele>
        <time>2016-06-07T09:23:22Z</time>
      </trkpt>
      <trkpt lat="42.429538" lon="0.613329">
        <ele>1269.6</ele>
        <time>2016-06-07T09:23:38Z</time>
      </trkpt>
      <trkpt lat="42.429677" lon="0.613034">
        <ele>1272.0</ele>
        <time>2016-06-07T09:23:53Z</time>
      </trkpt>
      <trkpt lat="42.429810" lon="0.612686">
        <ele>1273.9</ele>
        <time>2016-06-07T09:24:10Z</time>
      </trkpt>
      <trkpt lat="42.429876" lon="0.612345">
        <ele>1273.9</ele>
        <time>2016-06-07T09:24:19Z</time>
      </trkpt>
      <trkpt lat="42.429944" lon="0.612172">
        <ele>1272.4</ele>
        <time>2016-06-07T09:24:22Z</time>
      </trkpt>
      <trkpt lat="42.429967" lon="0.612112">
        <ele>1272.4</ele>
        <time>2016-06-07T09:24:23Z</time>
      </trkpt>
      <trkpt lat="42.430099" lon="0.611392">
        <ele>1269.6</ele>
        <time>2016-06-07T09:24:32Z</time>
      </trkpt>
      <trkpt lat="42.430151" lon="0.611192">
        <ele>1269.1</ele>
        <time>2016-06-07T09:24:34Z</time>
      </trkpt>
      <trkpt lat="42.430400" lon="0.610725">
        <ele>1265.7</ele>
        <time>2016-06-07T09:24:39Z</time>
      </trkpt>
      <trkpt lat="42.430721" lon="0.610068">
        <ele>1263.3</ele>
        <time>2016-06-07T09:24:45Z</time>
      </trkpt>
      <trkpt lat="42.431099" lon="0.609233">
        <ele>1261.4</ele>
        <time>2016-06-07T09:24:53Z</time>
      </trkpt>
      <trkpt lat="42.431186" lon="0.609045">
        <ele>1261.4</ele>
        <time>2016-06-07T09:24:55Z</time>
      </trkpt>
      <trkpt lat="42.431298" lon="0.608615">
        <ele>1259.0</ele>
        <time>2016-06-07T09:24:59Z</time>
      </trkpt>
      <trkpt lat="42.431730" lon="0.607299">
        <ele>1255.1</ele>
        <time>2016-06-07T09:25:10Z</time>
      </trkpt>
      <trkpt lat="42.431892" lon="0.606888">
        <ele>1255.1</ele>
        <time>2016-06-07T09:25:14Z</time>
      </trkpt>
      <trkpt lat="42.432319" lon="0.606173">
        <ele>1252.7</ele>
        <time>2016-06-07T09:25:23Z</time>
      </trkpt>
      <trkpt lat="42.432684" lon="0.605237">
        <ele>1250.8</ele>
        <time>2016-06-07T09:25:33Z</time>
      </trkpt>
      <trkpt lat="42.432802" lon="0.604911">
        <ele>1252.3</ele>
        <time>2016-06-07T09:25:38Z</time>
      </trkpt>
      <trkpt lat="42.432895" lon="0.604533">
        <ele>1253.2</ele>
        <time>2016-06-07T09:25:48Z</time>
      </trkpt>
      <trkpt lat="42.433008" lon="0.604109">
        <ele>1254.2</ele>
        <time>2016-06-07T09:26:02Z</time>
      </trkpt>
      <trkpt lat="42.433025" lon="0.603807">
        <ele>1255.1</ele>
        <time>2016-06-07T09:26:14Z</time>
      </trkpt>
      <trkpt lat="42.433070" lon="0.603570">
        <ele>1257.1</ele>
        <time>2016-06-07T09:26:25Z</time>
      </trkpt>
      <trkpt lat="42.433070" lon="0.603493">
        <ele>1257.5</ele>
        <time>2016-06-07T09:26:29Z</time>
      </trkpt>
      <trkpt lat="42.433116" lon="0.603105">
        <ele>1258.0</ele>
        <time>2016-06-07T09:26:41Z</time>
      </trkpt>
      <trkpt lat="42.433086" lon="0.602505">
        <ele>1258.0</ele>
        <time>2016-06-07T09:26:53Z</time>
      </trkpt>
      <trkpt lat="42.433150" lon="0.602016">
        <ele>1258.0</ele>
        <time>2016-06-07T09:27:04Z</time>
      </trkpt>
      <trkpt lat="42.433110" lon="0.601561">
        <ele>1258.0</ele>
        <time>2016-06-07T09:27:14Z</time>
      </trkpt>
      <trkpt lat="42.433084" lon="0.601264">
        <ele>1258.5</ele>
        <time>2016-06-07T09:27:22Z</time>
      </trkpt>
      <trkpt lat="42.433099" lon="0.600816">
        <ele>1259.9</ele>
        <time>2016-06-07T09:27:36Z</time>
      </trkpt>
      <trkpt lat="42.433206" lon="0.600324">
        <ele>1261.4</ele>
        <time>2016-06-07T09:27:50Z</time>
      </trkpt>
      <trkpt lat="42.433214" lon="0.599782">
        <ele>1261.4</ele>
        <time>2016-06-07T09:28:02Z</time>
      </trkpt>
      <trkpt lat="42.433286" lon="0.599152">
        <ele>1261.4</ele>
        <time>2016-06-07T09:28:16Z</time>
      </trkpt>
      <trkpt lat="42.433267" lon="0.598490">
        <ele>1261.9</ele>
        <time>2016-06-07T09:28:30Z</time>
      </trkpt>
      <trkpt lat="42.433085" lon="0.598063">
        <ele>1261.9</ele>
        <time>2016-06-07T09:28:41Z</time>
      </trkpt>
      <trkpt lat="42.432836" lon="0.597806">
        <ele>1262.8</ele>
        <time>2016-06-07T09:28:53Z</time>
      </trkpt>
      <trkpt lat="42.432846" lon="0.597720">
        <ele>1263.3</ele>
        <time>2016-06-07T09:28:56Z</time>
      </trkpt>
      <trkpt lat="42.433037" lon="0.597477">
        <ele>1265.2</ele>
        <time>2016-06-07T09:29:11Z</time>
      </trkpt>
      <trkpt lat="42.433235" lon="0.597260">
        <ele>1267.2</ele>
        <time>2016-06-07T09:29:25Z</time>
      </trkpt>
      <trkpt lat="42.433344" lon="0.597043">
        <ele>1268.6</ele>
        <time>2016-06-07T09:29:37Z</time>
      </trkpt>
      <trkpt lat="42.433345" lon="0.596959">
        <ele>1269.1</ele>
        <time>2016-06-07T09:29:42Z</time>
      </trkpt>
      <trkpt lat="42.433395" lon="0.596627">
        <ele>1271.5</ele>
        <time>2016-06-07T09:29:59Z</time>
      </trkpt>
      <trkpt lat="42.433466" lon="0.596331">
        <ele>1272.4</ele>
        <time>2016-06-07T09:30:12Z</time>
      </trkpt>
      <trkpt lat="42.433487" lon="0.596210">
        <ele>1273.4</ele>
        <time>2016-06-07T09:30:19Z</time>
      </trkpt>
      <trkpt lat="42.433552" lon="0.595930">
        <ele>1274.9</ele>
        <time>2016-06-07T09:30:34Z</time>
      </trkpt>
      <trkpt lat="42.433602" lon="0.595679">
        <ele>1276.3</ele>
        <time>2016-06-07T09:30:47Z</time>
      </trkpt>
      <trkpt lat="42.433627" lon="0.595431">
        <ele>1277.7</ele>
        <time>2016-06-07T09:31:00Z</time>
      </trkpt>
      <trkpt lat="42.433660" lon="0.595254">
        <ele>1278.7</ele>
        <time>2016-06-07T09:31:10Z</time>
      </trkpt>
      <trkpt lat="42.433651" lon="0.595168">
        <ele>1279.2</ele>
        <time>2016-06-07T09:31:14Z</time>
      </trkpt>
      <trkpt lat="42.433672" lon="0.594936">
        <ele>1281.6</ele>
        <time>2016-06-07T09:31:26Z</time>
      </trkpt>
      <trkpt lat="42.433654" lon="0.594552">
        <ele>1283.0</ele>
        <time>2016-06-07T09:31:42Z</time>
      </trkpt>
      <trkpt lat="42.433588" lon="0.594214">
        <ele>1284.0</ele>
        <time>2016-06-07T09:31:56Z</time>
      </trkpt>
      <trkpt lat="42.433566" lon="0.593954">
        <ele>1284.9</ele>
        <time>2016-06-07T09:32:07Z</time>
      </trkpt>
      <trkpt lat="42.433731" lon="0.593718">
        <ele>1287.3</ele>
        <time>2016-06-07T09:32:22Z</time>
      </trkpt>
      <trkpt lat="42.433918" lon="0.593414">
        <ele>1289.3</ele>
        <time>2016-06-07T09:32:41Z</time>
      </trkpt>
      <trkpt lat="42.434056" lon="0.593102">
        <ele>1290.7</ele>
        <time>2016-06-07T09:32:57Z</time>
      </trkpt>
      <trkpt lat="42.434190" lon="0.592786">
        <ele>1293.1</ele>
        <time>2016-06-07T09:33:13Z</time>
      </trkpt>
      <trkpt lat="42.434247" lon="0.592505">
        <ele>1293.6</ele>
        <time>2016-06-07T09:33:26Z</time>
      </trkpt>
      <trkpt lat="42.434262" lon="0.592351">
        <ele>1294.1</ele>
        <time>2016-06-07T09:33:33Z</time>
      </trkpt>
      <trkpt lat="42.434291" lon="0.592197">
        <ele>1294.6</ele>
        <time>2016-06-07T09:33:40Z</time>
      </trkpt>
      <trkpt lat="42.434316" lon="0.591882">
        <ele>1296.0</ele>
        <time>2016-06-07T09:33:53Z</time>
      </trkpt>
      <trkpt lat="42.434390" lon="0.591504">
        <ele>1296.5</ele>
        <time>2016-06-07T09:34:06Z</time>
      </trkpt>
      <trkpt lat="42.434572" lon="0.591059">
        <ele>1296.5</ele>
        <time>2016-06-07T09:34:18Z</time>
      </trkpt>
      <trkpt lat="42.434684" lon="0.590805">
        <ele>1296.5</ele>
        <time>2016-06-07T09:34:24Z</time>
      </trkpt>
      <trkpt lat="42.434726" lon="0.590641">
        <ele>1295.0</ele>
        <time>2016-06-07T09:34:27Z</time>
      </trkpt>
      <trkpt lat="42.434740" lon="0.590371">
        <ele>1294.6</ele>
        <time>2016-06-07T09:34:31Z</time>
      </trkpt>
      <trkpt lat="42.434713" lon="0.589785">
        <ele>1290.7</ele>
        <time>2016-06-07T09:34:37Z</time>
      </trkpt>
      <trkpt lat="42.434688" lon="0.589071">
        <ele>1287.3</ele>
        <time>2016-06-07T09:34:43Z</time>
      </trkpt>
      <trkpt lat="42.434737" lon="0.588692">
        <ele>1285.4</ele>
        <time>2016-06-07T09:34:46Z</time>
      </trkpt>
      <trkpt lat="42.435080" lon="0.588144">
        <ele>1283.0</ele>
        <time>2016-06-07T09:34:52Z</time>
      </trkpt>
      <trkpt lat="42.435186" lon="0.587794">
        <ele>1283.0</ele>
        <time>2016-06-07T09:34:56Z</time>
      </trkpt>
      <trkpt lat="42.435351" lon="0.586749">
        <ele>1282.1</ele>
        <time>2016-06-07T09:35:09Z</time>
      </trkpt>
      <trkpt lat="42.435764" lon="0.585641">
        <ele>1278.7</ele>
        <time>2016-06-07T09:35:22Z</time>
      </trkpt>
      <trkpt lat="42.435987" lon="0.584709">
        <ele>1274.9</ele>
        <time>2016-06-07T09:35:31Z</time>
      </trkpt>
      <trkpt lat="42.436084" lon="0.584366">
        <ele>1272.9</ele>
        <time>2016-06-07T09:35:34Z</time>
      </trkpt>
      <trkpt lat="42.436126" lon="0.584250">
        <ele>1272.4</ele>
        <time>2016-06-07T09:35:35Z</time>
      </trkpt>
      <trkpt lat="42.436397" lon="0.583841">
        <ele>1268.6</ele>
        <time>2016-06-07T09:35:39Z</time>
      </trkpt>
      <trkpt lat="42.436630" lon="0.583567">
        <ele>1265.7</ele>
        <time>2016-06-07T09:35:42Z</time>
      </trkpt>
      <trkpt lat="42.436967" lon="0.583304">
        <ele>1261.4</ele>
        <time>2016-06-07T09:35:46Z</time>
      </trkpt>
      <trkpt lat="42.437037" lon="0.583277">
        <ele>1261.4</ele>
        <time>2016-06-07T09:35:47Z</time>
      </trkpt>
      <trkpt lat="42.437093" lon="0.583264">
        <ele>1260.9</ele>
        <time>2016-06-07T09:35:48Z</time>
      </trkpt>
      <trkpt lat="42.437153" lon="0.583166">
        <ele>1260.4</ele>
        <time>2016-06-07T09:35:56Z</time>
      </trkpt>
      <trkpt lat="42.437070" lon="0.583142">
        <ele>1262.4</ele>
        <time>2016-06-07T09:36:03Z</time>
      </trkpt>
      <trkpt lat="42.436898" lon="0.582933">
        <ele>1264.8</ele>
        <time>2016-06-07T09:36:19Z</time>
      </trkpt>
      <trkpt lat="42.436853" lon="0.582789">
        <ele>1266.2</ele>
        <time>2016-06-07T09:36:35Z</time>
      </trkpt>
      <trkpt lat="42.436815" lon="0.582715">
        <ele>1266.2</ele>
        <time>2016-06-07T09:37:23Z</time>
      </trkpt>
      <trkpt lat="42.436683" lon="0.582416">
        <ele>1269.1</ele>
        <time>2016-06-07T09:37:42Z</time>
      </trkpt>
      <trkpt lat="42.436762" lon="0.582228">
        <ele>1271.0</ele>
        <time>2016-06-07T09:37:57Z</time>
      </trkpt>
      <trkpt lat="42.436971" lon="0.582377">
        <ele>1272.9</ele>
        <time>2016-06-07T09:38:14Z</time>
      </trkpt>
      <trkpt lat="42.437149" lon="0.582558">
        <ele>1275.3</ele>
        <time>2016-06-07T09:38:31Z</time>
      </trkpt>
      <trkpt lat="42.437316" lon="0.582548">
        <ele>1277.3</ele>
        <time>2016-06-07T09:38:45Z</time>
      </trkpt>
      <trkpt lat="42.437430" lon="0.582318">
        <ele>1279.7</ele>
        <time>2016-06-07T09:39:02Z</time>
      </trkpt>
      <trkpt lat="42.437482" lon="0.582241">
        <ele>1281.6</ele>
        <time>2016-06-07T09:39:10Z</time>
      </trkpt>
      <trkpt lat="42.437530" lon="0.582135">
        <ele>1282.5</ele>
        <time>2016-06-07T09:39:19Z</time>
      </trkpt>
      <trkpt lat="42.437653" lon="0.581947">
        <ele>1284.9</ele>
        <time>2016-06-07T09:39:34Z</time>
      </trkpt>
      <trkpt lat="42.437698" lon="0.581762">
        <ele>1286.9</ele>
        <time>2016-06-07T09:39:46Z</time>
      </trkpt>
      <trkpt lat="42.437695" lon="0.581698">
        <ele>1287.3</ele>
        <time>2016-06-07T09:39:50Z</time>
      </trkpt>
      <trkpt lat="42.437769" lon="0.581424">
        <ele>1289.3</ele>
        <time>2016-06-07T09:40:08Z</time>
      </trkpt>
      <trkpt lat="42.437843" lon="0.581219">
        <ele>1290.7</ele>
        <time>2016-06-07T09:40:22Z</time>
      </trkpt>
      <trkpt lat="42.437869" lon="0.580949">
        <ele>1291.7</ele>
        <time>2016-06-07T09:40:36Z</time>
      </trkpt>
      <trkpt lat="42.437921" lon="0.580732">
        <ele>1293.1</ele>
        <time>2016-06-07T09:40:48Z</time>
      </trkpt>
      <trkpt lat="42.438063" lon="0.580476">
        <ele>1295.0</ele>
        <time>2016-06-07T09:41:05Z</time>
      </trkpt>
      <trkpt lat="42.438180" lon="0.580322">
        <ele>1296.5</ele>
        <time>2016-06-07T09:41:19Z</time>
      </trkpt>
      <trkpt lat="42.438216" lon="0.580254">
        <ele>1296.5</ele>
        <time>2016-06-07T09:41:24Z</time>
      </trkpt>
      <trkpt lat="42.438384" lon="0.580063">
        <ele>1298.4</ele>
        <time>2016-06-07T09:41:40Z</time>
      </trkpt>
      <trkpt lat="42.438520" lon="0.579909">
        <ele>1300.3</ele>
        <time>2016-06-07T09:41:54Z</time>
      </trkpt>
      <trkpt lat="42.438609" lon="0.579697">
        <ele>1301.8</ele>
        <time>2016-06-07T09:42:08Z</time>
      </trkpt>
      <trkpt lat="42.438718" lon="0.579522">
        <ele>1302.2</ele>
        <time>2016-06-07T09:42:22Z</time>
      </trkpt>
      <trkpt lat="42.438917" lon="0.579327">
        <ele>1303.2</ele>
        <time>2016-06-07T09:42:38Z</time>
      </trkpt>
      <trkpt lat="42.439057" lon="0.579171">
        <ele>1304.7</ele>
        <time>2016-06-07T09:42:51Z</time>
      </trkpt>
      <trkpt lat="42.439174" lon="0.578980">
        <ele>1306.6</ele>
        <time>2016-06-07T09:43:04Z</time>
      </trkpt>
      <trkpt lat="42.439258" lon="0.578751">
        <ele>1308.5</ele>
        <time>2016-06-07T09:43:18Z</time>
      </trkpt>
      <trkpt lat="42.439338" lon="0.578573">
        <ele>1310.4</ele>
        <time>2016-06-07T09:43:32Z</time>
      </trkpt>
      <trkpt lat="42.439411" lon="0.578397">
        <ele>1311.9</ele>
        <time>2016-06-07T09:43:44Z</time>
      </trkpt>
      <trkpt lat="42.439546" lon="0.578224">
        <ele>1314.3</ele>
        <time>2016-06-07T09:44:01Z</time>
      </trkpt>
      <trkpt lat="42.439640" lon="0.578110">
        <ele>1316.2</ele>
        <time>2016-06-07T09:44:12Z</time>
      </trkpt>
      <trkpt lat="42.439770" lon="0.577909">
        <ele>1317.6</ele>
        <time>2016-06-07T09:44:31Z</time>
      </trkpt>
      <trkpt lat="42.439813" lon="0.577847">
        <ele>1317.6</ele>
        <time>2016-06-07T09:44:57Z</time>
      </trkpt>
      <trkpt lat="42.439881" lon="0.577641">
        <ele>1320.0</ele>
        <time>2016-06-07T09:45:11Z</time>
      </trkpt>
      <trkpt lat="42.439893" lon="0.577489">
        <ele>1321.0</ele>
        <time>2016-06-07T09:45:20Z</time>
      </trkpt>
      <trkpt lat="42.439906" lon="0.577422">
        <ele>1321.5</ele>
        <time>2016-06-07T09:45:24Z</time>
      </trkpt>
      <trkpt lat="42.439979" lon="0.577252">
        <ele>1322.0</ele>
        <time>2016-06-07T09:45:36Z</time>
      </trkpt>
      <trkpt lat="42.440122" lon="0.577119">
        <ele>1324.4</ele>
        <time>2016-06-07T09:45:51Z</time>
      </trkpt>
      <trkpt lat="42.440230" lon="0.576924">
        <ele>1326.3</ele>
        <time>2016-06-07T09:46:05Z</time>
      </trkpt>
      <trkpt lat="42.440240" lon="0.576650">
        <ele>1327.2</ele>
        <time>2016-06-07T09:46:20Z</time>
      </trkpt>
      <trkpt lat="42.440270" lon="0.576503">
        <ele>1328.2</ele>
        <time>2016-06-07T09:46:28Z</time>
      </trkpt>
      <trkpt lat="42.440311" lon="0.576262">
        <ele>1330.6</ele>
        <time>2016-06-07T09:46:44Z</time>
      </trkpt>
      <trkpt lat="42.440300" lon="0.576197">
        <ele>1331.6</ele>
        <time>2016-06-07T09:46:49Z</time>
      </trkpt>
      <trkpt lat="42.440186" lon="0.576068">
        <ele>1333.5</ele>
        <time>2016-06-07T09:47:03Z</time>
      </trkpt>
      <trkpt lat="42.440155" lon="0.576126">
        <ele>1334.0</ele>
        <time>2016-06-07T09:47:11Z</time>
      </trkpt>
      <trkpt lat="42.440083" lon="0.576336">
        <ele>1335.9</ele>
        <time>2016-06-07T09:47:26Z</time>
      </trkpt>
      <trkpt lat="42.440033" lon="0.576513">
        <ele>1337.3</ele>
        <time>2016-06-07T09:47:40Z</time>
      </trkpt>
      <trkpt lat="42.440001" lon="0.576590">
        <ele>1338.3</ele>
        <time>2016-06-07T09:47:45Z</time>
      </trkpt>
      <trkpt lat="42.439956" lon="0.576677">
        <ele>1339.3</ele>
        <time>2016-06-07T09:47:50Z</time>
      </trkpt>
      <trkpt lat="42.439875" lon="0.576718">
        <ele>1339.7</ele>
        <time>2016-06-07T09:47:57Z</time>
      </trkpt>
      <trkpt lat="42.439819" lon="0.576637">
        <ele>1340.7</ele>
        <time>2016-06-07T09:48:04Z</time>
      </trkpt>
      <trkpt lat="42.439831" lon="0.576578">
        <ele>1341.2</ele>
        <time>2016-06-07T09:48:09Z</time>
      </trkpt>
      <trkpt lat="42.439854" lon="0.576374">
        <ele>1343.1</ele>
        <time>2016-06-07T09:48:24Z</time>
      </trkpt>
      <trkpt lat="42.439824" lon="0.576152">
        <ele>1344.5</ele>
        <time>2016-06-07T09:48:40Z</time>
      </trkpt>
      <trkpt lat="42.439820" lon="0.575940">
        <ele>1346.5</ele>
        <time>2016-06-07T09:48:55Z</time>
      </trkpt>
      <trkpt lat="42.439776" lon="0.575745">
        <ele>1347.9</ele>
        <time>2016-06-07T09:49:09Z</time>
      </trkpt>
      <trkpt lat="42.439756" lon="0.575649">
        <ele>1348.4</ele>
        <time>2016-06-07T09:49:15Z</time>
      </trkpt>
      <trkpt lat="42.439735" lon="0.575595">
        <ele>1349.4</ele>
        <time>2016-06-07T09:49:19Z</time>
      </trkpt>
      <trkpt lat="42.439708" lon="0.575545">
        <ele>1349.8</ele>
        <time>2016-06-07T09:49:23Z</time>
      </trkpt>
      <trkpt lat="42.439687" lon="0.575465">
        <ele>1350.3</ele>
        <time>2016-06-07T09:49:28Z</time>
      </trkpt>
      <trkpt lat="42.439670" lon="0.575357">
        <ele>1350.8</ele>
        <time>2016-06-07T09:49:44Z</time>
      </trkpt>
      <trkpt lat="42.439629" lon="0.575192">
        <ele>1351.8</ele>
        <time>2016-06-07T09:50:21Z</time>
      </trkpt>
      <trkpt lat="42.439572" lon="0.575129">
        <ele>1352.7</ele>
        <time>2016-06-07T09:50:27Z</time>
      </trkpt>
      <trkpt lat="42.439429" lon="0.575249">
        <ele>1355.1</ele>
        <time>2016-06-07T09:50:43Z</time>
      </trkpt>
      <trkpt lat="42.439301" lon="0.575366">
        <ele>1356.6</ele>
        <time>2016-06-07T09:50:58Z</time>
      </trkpt>
      <trkpt lat="42.439264" lon="0.575436">
        <ele>1357.5</ele>
        <time>2016-06-07T09:51:06Z</time>
      </trkpt>
      <trkpt lat="42.439073" lon="0.575569">
        <ele>1358.5</ele>
        <time>2016-06-07T09:51:21Z</time>
      </trkpt>
      <trkpt lat="42.438996" lon="0.575587">
        <ele>1359.0</ele>
        <time>2016-06-07T09:51:28Z</time>
      </trkpt>
      <trkpt lat="42.438943" lon="0.575575">
        <ele>1359.4</ele>
        <time>2016-06-07T09:51:32Z</time>
      </trkpt>
      <trkpt lat="42.438838" lon="0.575572">
        <ele>1359.4</ele>
        <time>2016-06-07T09:51:39Z</time>
      </trkpt>
      <trkpt lat="42.438604" lon="0.575608">
        <ele>1361.4</ele>
        <time>2016-06-07T09:51:56Z</time>
      </trkpt>
      <trkpt lat="42.438447" lon="0.575647">
        <ele>1362.8</ele>
        <time>2016-06-07T09:52:10Z</time>
      </trkpt>
      <trkpt lat="42.438281" lon="0.575694">
        <ele>1364.3</ele>
        <time>2016-06-07T09:52:25Z</time>
      </trkpt>
      <trkpt lat="42.438142" lon="0.575741">
        <ele>1366.2</ele>
        <time>2016-06-07T09:52:38Z</time>
      </trkpt>
      <trkpt lat="42.437976" lon="0.575794">
        <ele>1368.1</ele>
        <time>2016-06-07T09:52:53Z</time>
      </trkpt>
      <trkpt lat="42.437808" lon="0.575854">
        <ele>1371.5</ele>
        <time>2016-06-07T09:53:09Z</time>
      </trkpt>
      <trkpt lat="42.437731" lon="0.575888">
        <ele>1372.4</ele>
        <time>2016-06-07T09:53:17Z</time>
      </trkpt>
      <trkpt lat="42.437603" lon="0.575920">
        <ele>1374.3</ele>
        <time>2016-06-07T09:53:30Z</time>
      </trkpt>
      <trkpt lat="42.437558" lon="0.575945">
        <ele>1375.8</ele>
        <time>2016-06-07T09:53:35Z</time>
      </trkpt>
      <trkpt lat="42.437435" lon="0.576039">
        <ele>1377.2</ele>
        <time>2016-06-07T09:53:46Z</time>
      </trkpt>
      <trkpt lat="42.437294" lon="0.576080">
        <ele>1379.2</ele>
        <time>2016-06-07T09:54:01Z</time>
      </trkpt>
      <trkpt lat="42.437227" lon="0.576096">
        <ele>1380.1</ele>
        <time>2016-06-07T09:54:08Z</time>
      </trkpt>
      <trkpt lat="42.437113" lon="0.576176">
        <ele>1382.0</ele>
        <time>2016-06-07T09:54:22Z</time>
      </trkpt>
      <trkpt lat="42.436926" lon="0.576276">
        <ele>1383.5</ele>
        <time>2016-06-07T09:54:37Z</time>
      </trkpt>
      <trkpt lat="42.436763" lon="0.576361">
        <ele>1385.4</ele>
        <time>2016-06-07T09:54:52Z</time>
      </trkpt>
      <trkpt lat="42.436592" lon="0.576417">
        <ele>1387.8</ele>
        <time>2016-06-07T09:55:08Z</time>
      </trkpt>
      <trkpt lat="42.436484" lon="0.576418">
        <ele>1389.2</ele>
        <time>2016-06-07T09:55:20Z</time>
      </trkpt>
      <trkpt lat="42.436398" lon="0.576398">
        <ele>1390.7</ele>
        <time>2016-06-07T09:55:30Z</time>
      </trkpt>
      <trkpt lat="42.436287" lon="0.576327">
        <ele>1392.6</ele>
        <time>2016-06-07T09:55:42Z</time>
      </trkpt>
      <trkpt lat="42.436261" lon="0.576265">
        <ele>1393.6</ele>
        <time>2016-06-07T09:55:48Z</time>
      </trkpt>
      <trkpt lat="42.436105" lon="0.576231">
        <ele>1394.5</ele>
        <time>2016-06-07T09:55:59Z</time>
      </trkpt>
      <trkpt lat="42.436038" lon="0.576193">
        <ele>1395.5</ele>
        <time>2016-06-07T09:56:04Z</time>
      </trkpt>
      <trkpt lat="42.435876" lon="0.576111">
        <ele>1397.4</ele>
        <time>2016-06-07T09:56:20Z</time>
      </trkpt>
      <trkpt lat="42.435706" lon="0.576020">
        <ele>1399.3</ele>
        <time>2016-06-07T09:56:35Z</time>
      </trkpt>
      <trkpt lat="42.435456" lon="0.576080">
        <ele>1400.8</ele>
        <time>2016-06-07T09:56:54Z</time>
      </trkpt>
      <trkpt lat="42.435379" lon="0.576228">
        <ele>1401.3</ele>
        <time>2016-06-07T09:57:06Z</time>
      </trkpt>
      <trkpt lat="42.435353" lon="0.576278">
        <ele>1402.2</ele>
        <time>2016-06-07T09:57:09Z</time>
      </trkpt>
      <trkpt lat="42.435176" lon="0.576428">
        <ele>1402.2</ele>
        <time>2016-06-07T09:57:25Z</time>
      </trkpt>
      <trkpt lat="42.435101" lon="0.576524">
        <ele>1402.7</ele>
        <time>2016-06-07T09:57:33Z</time>
      </trkpt>
      <trkpt lat="42.435053" lon="0.576704">
        <ele>1404.1</ele>
        <time>2016-06-07T09:57:43Z</time>
      </trkpt>
      <trkpt lat="42.435081" lon="0.576772">
        <ele>1404.6</ele>
        <time>2016-06-07T09:57:48Z</time>
      </trkpt>
      <trkpt lat="42.435081" lon="0.576928">
        <ele>1405.6</ele>
        <time>2016-06-07T09:57:58Z</time>
      </trkpt>
      <trkpt lat="42.435062" lon="0.577153">
        <ele>1407.0</ele>
        <time>2016-06-07T09:58:12Z</time>
      </trkpt>
      <trkpt lat="42.435084" lon="0.577351">
        <ele>1409.0</ele>
        <time>2016-06-07T09:58:26Z</time>
      </trkpt>
      <trkpt lat="42.435096" lon="0.577490">
        <ele>1409.9</ele>
        <time>2016-06-07T09:58:37Z</time>
      </trkpt>
      <trkpt lat="42.435112" lon="0.577583">
        <ele>1411.4</ele>
        <time>2016-06-07T09:58:44Z</time>
      </trkpt>
      <trkpt lat="42.435078" lon="0.577733">
        <ele>1412.8</ele>
        <time>2016-06-07T09:58:55Z</time>
      </trkpt>
      <trkpt lat="42.435078" lon="0.577855">
        <ele>1414.2</ele>
        <time>2016-06-07T09:59:03Z</time>
      </trkpt>
      <trkpt lat="42.435055" lon="0.578030">
        <ele>1415.7</ele>
        <time>2016-06-07T09:59:15Z</time>
      </trkpt>
      <trkpt lat="42.434996" lon="0.578072">
        <ele>1416.6</ele>
        <time>2016-06-07T09:59:34Z</time>
      </trkpt>
      <trkpt lat="42.434950" lon="0.578052">
        <ele>1416.6</ele>
        <time>2016-06-07T10:00:27Z</time>
      </trkpt>
      <trkpt lat="42.434934" lon="0.577885">
        <ele>1417.6</ele>
        <time>2016-06-07T10:00:38Z</time>
      </trkpt>
      <trkpt lat="42.434941" lon="0.577647">
        <ele>1419.0</ele>
        <time>2016-06-07T10:00:51Z</time>
      </trkpt>
      <trkpt lat="42.434895" lon="0.577456">
        <ele>1420.0</ele>
        <time>2016-06-07T10:01:03Z</time>
      </trkpt>
      <trkpt lat="42.434897" lon="0.577368">
        <ele>1420.5</ele>
        <time>2016-06-07T10:01:08Z</time>
      </trkpt>
      <trkpt lat="42.434883" lon="0.577309">
        <ele>1421.0</ele>
        <time>2016-06-07T10:01:12Z</time>
      </trkpt>
      <trkpt lat="42.434915" lon="0.577140">
        <ele>1421.9</ele>
        <time>2016-06-07T10:01:21Z</time>
      </trkpt>
      <trkpt lat="42.434911" lon="0.577038">
        <ele>1422.9</ele>
        <time>2016-06-07T10:01:28Z</time>
      </trkpt>
      <trkpt lat="42.434860" lon="0.576953">
        <ele>1423.9</ele>
        <time>2016-06-07T10:01:35Z</time>
      </trkpt>
      <trkpt lat="42.434782" lon="0.576812">
        <ele>1425.3</ele>
        <time>2016-06-07T10:01:47Z</time>
      </trkpt>
      <trkpt lat="42.434606" lon="0.576655">
        <ele>1427.2</ele>
        <time>2016-06-07T10:02:04Z</time>
      </trkpt>
      <trkpt lat="42.434457" lon="0.576607">
        <ele>1428.7</ele>
        <time>2016-06-07T10:02:15Z</time>
      </trkpt>
      <trkpt lat="42.434403" lon="0.576586">
        <ele>1428.7</ele>
        <time>2016-06-07T10:02:19Z</time>
      </trkpt>
      <trkpt lat="42.434318" lon="0.576567">
        <ele>1430.1</ele>
        <time>2016-06-07T10:02:25Z</time>
      </trkpt>
      <trkpt lat="42.434214" lon="0.576592">
        <ele>1432.0</ele>
        <time>2016-06-07T10:02:36Z</time>
      </trkpt>
      <trkpt lat="42.434069" lon="0.576737">
        <ele>1434.4</ele>
        <time>2016-06-07T10:02:52Z</time>
      </trkpt>
      <trkpt lat="42.433924" lon="0.576721">
        <ele>1436.8</ele>
        <time>2016-06-07T10:03:09Z</time>
      </trkpt>
      <trkpt lat="42.433877" lon="0.576649">
        <ele>1438.3</ele>
        <time>2016-06-07T10:03:16Z</time>
      </trkpt>
      <trkpt lat="42.433824" lon="0.576552">
        <ele>1439.2</ele>
        <time>2016-06-07T10:03:25Z</time>
      </trkpt>
      <trkpt lat="42.433757" lon="0.576333">
        <ele>1441.6</ele>
        <time>2016-06-07T10:03:40Z</time>
      </trkpt>
      <trkpt lat="42.433749" lon="0.576273">
        <ele>1442.1</ele>
        <time>2016-06-07T10:03:44Z</time>
      </trkpt>
      <trkpt lat="42.433714" lon="0.576042">
        <ele>1443.6</ele>
        <time>2016-06-07T10:04:00Z</time>
      </trkpt>
      <trkpt lat="42.433709" lon="0.575970">
        <ele>1444.5</ele>
        <time>2016-06-07T10:04:05Z</time>
      </trkpt>
      <trkpt lat="42.433714" lon="0.575828">
        <ele>1446.0</ele>
        <time>2016-06-07T10:04:15Z</time>
      </trkpt>
      <trkpt lat="42.433700" lon="0.575622">
        <ele>1447.9</ele>
        <time>2016-06-07T10:04:29Z</time>
      </trkpt>
      <trkpt lat="42.433702" lon="0.575494">
        <ele>1448.8</ele>
        <time>2016-06-07T10:04:38Z</time>
      </trkpt>
      <trkpt lat="42.433680" lon="0.575392">
        <ele>1449.3</ele>
        <time>2016-06-07T10:04:45Z</time>
      </trkpt>
      <trkpt lat="42.433560" lon="0.575273">
        <ele>1451.7</ele>
        <time>2016-06-07T10:04:59Z</time>
      </trkpt>
      <trkpt lat="42.433389" lon="0.575398">
        <ele>1454.6</ele>
        <time>2016-06-07T10:05:16Z</time>
      </trkpt>
      <trkpt lat="42.433313" lon="0.575373">
        <ele>1456.5</ele>
        <time>2016-06-07T10:05:24Z</time>
      </trkpt>
      <trkpt lat="42.433296" lon="0.575290">
        <ele>1457.0</ele>
        <time>2016-06-07T10:05:31Z</time>
      </trkpt>
      <trkpt lat="42.433358" lon="0.575145">
        <ele>1458.5</ele>
        <time>2016-06-07T10:05:45Z</time>
      </trkpt>
      <trkpt lat="42.433393" lon="0.574973">
        <ele>1460.9</ele>
        <time>2016-06-07T10:05:59Z</time>
      </trkpt>
      <trkpt lat="42.433462" lon="0.574826">
        <ele>1462.8</ele>
        <time>2016-06-07T10:06:14Z</time>
      </trkpt>
      <trkpt lat="42.433515" lon="0.574689">
        <ele>1464.7</ele>
        <time>2016-06-07T10:06:27Z</time>
      </trkpt>
      <trkpt lat="42.433576" lon="0.574536">
        <ele>1466.6</ele>
        <time>2016-06-07T10:06:56Z</time>
      </trkpt>
      <trkpt lat="42.433609" lon="0.574438">
        <ele>1467.6</ele>
        <time>2016-06-07T10:07:09Z</time>
      </trkpt>
      <trkpt lat="42.433694" lon="0.574322">
        <ele>1469.0</ele>
        <time>2016-06-07T10:07:23Z</time>
      </trkpt>
      <trkpt lat="42.433760" lon="0.574249">
        <ele>1471.0</ele>
        <time>2016-06-07T10:07:37Z</time>
      </trkpt>
      <trkpt lat="42.433851" lon="0.574132">
        <ele>1472.4</ele>
        <time>2016-06-07T10:07:51Z</time>
      </trkpt>
      <trkpt lat="42.433910" lon="0.574013">
        <ele>1473.4</ele>
        <time>2016-06-07T10:08:05Z</time>
      </trkpt>
      <trkpt lat="42.434005" lon="0.573978">
        <ele>1475.3</ele>
        <time>2016-06-07T10:08:20Z</time>
      </trkpt>
      <trkpt lat="42.434127" lon="0.574043">
        <ele>1476.2</ele>
        <time>2016-06-07T10:08:43Z</time>
      </trkpt>
      <trkpt lat="42.434256" lon="0.574087">
        <ele>1477.2</ele>
        <time>2016-06-07T10:08:56Z</time>
      </trkpt>
      <trkpt lat="42.434366" lon="0.574153">
        <ele>1478.7</ele>
        <time>2016-06-07T10:09:10Z</time>
      </trkpt>
      <trkpt lat="42.434508" lon="0.574224">
        <ele>1481.1</ele>
        <time>2016-06-07T10:09:24Z</time>
      </trkpt>
      <trkpt lat="42.434642" lon="0.574270">
        <ele>1483.0</ele>
        <time>2016-06-07T10:09:38Z</time>
      </trkpt>
      <trkpt lat="42.434774" lon="0.574245">
        <ele>1484.4</ele>
        <time>2016-06-07T10:09:49Z</time>
      </trkpt>
      <trkpt lat="42.434887" lon="0.574041">
        <ele>1485.4</ele>
        <time>2016-06-07T10:10:04Z</time>
      </trkpt>
      <trkpt lat="42.434906" lon="0.573851">
        <ele>1487.3</ele>
        <time>2016-06-07T10:10:17Z</time>
      </trkpt>
      <trkpt lat="42.434840" lon="0.573695">
        <ele>1489.7</ele>
        <time>2016-06-07T10:10:31Z</time>
      </trkpt>
      <trkpt lat="42.434829" lon="0.573628">
        <ele>1489.7</ele>
        <time>2016-06-07T10:10:35Z</time>
      </trkpt>
      <trkpt lat="42.434790" lon="0.573514">
        <ele>1491.1</ele>
        <time>2016-06-07T10:10:43Z</time>
      </trkpt>
      <trkpt lat="42.434738" lon="0.573363">
        <ele>1493.1</ele>
        <time>2016-06-07T10:10:57Z</time>
      </trkpt>
      <trkpt lat="42.434673" lon="0.573293">
        <ele>1494.0</ele>
        <time>2016-06-07T10:11:05Z</time>
      </trkpt>
      <trkpt lat="42.434540" lon="0.573295">
        <ele>1494.5</ele>
        <time>2016-06-07T10:11:13Z</time>
      </trkpt>
      <trkpt lat="42.434466" lon="0.573317">
        <ele>1495.0</ele>
        <time>2016-06-07T10:11:17Z</time>
      </trkpt>
      <trkpt lat="42.434233" lon="0.573390">
        <ele>1493.6</ele>
        <time>2016-06-07T10:11:29Z</time>
      </trkpt>
      <trkpt lat="42.433867" lon="0.573483">
        <ele>1491.1</ele>
        <time>2016-06-07T10:11:41Z</time>
      </trkpt>
      <trkpt lat="42.433662" lon="0.573503">
        <ele>1491.1</ele>
        <time>2016-06-07T10:11:57Z</time>
      </trkpt>
      <trkpt lat="42.433609" lon="0.573412">
        <ele>1493.1</ele>
        <time>2016-06-07T10:12:05Z</time>
      </trkpt>
      <trkpt lat="42.433587" lon="0.573340">
        <ele>1494.0</ele>
        <time>2016-06-07T10:12:10Z</time>
      </trkpt>
      <trkpt lat="42.433586" lon="0.573175">
        <ele>1495.5</ele>
        <time>2016-06-07T10:12:21Z</time>
      </trkpt>
      <trkpt lat="42.433507" lon="0.573093">
        <ele>1496.4</ele>
        <time>2016-06-07T10:12:29Z</time>
      </trkpt>
      <trkpt lat="42.433443" lon="0.573022">
        <ele>1496.9</ele>
        <time>2016-06-07T10:12:35Z</time>
      </trkpt>
      <trkpt lat="42.433413" lon="0.572950">
        <ele>1497.4</ele>
        <time>2016-06-07T10:12:40Z</time>
      </trkpt>
      <trkpt lat="42.433280" lon="0.572791">
        <ele>1499.8</ele>
        <time>2016-06-07T10:12:55Z</time>
      </trkpt>
      <trkpt lat="42.433202" lon="0.572685">
        <ele>1501.2</ele>
        <time>2016-06-07T10:13:05Z</time>
      </trkpt>
      <trkpt lat="42.433072" lon="0.572444">
        <ele>1503.2</ele>
        <time>2016-06-07T10:13:25Z</time>
      </trkpt>
      <trkpt lat="42.433019" lon="0.572318">
        <ele>1504.6</ele>
        <time>2016-06-07T10:13:35Z</time>
      </trkpt>
      <trkpt lat="42.432960" lon="0.572042">
        <ele>1507.0</ele>
        <time>2016-06-07T10:13:55Z</time>
      </trkpt>
      <trkpt lat="42.432940" lon="0.571983">
        <ele>1508.0</ele>
        <time>2016-06-07T10:13:59Z</time>
      </trkpt>
      <trkpt lat="42.432896" lon="0.571786">
        <ele>1509.4</ele>
        <time>2016-06-07T10:14:13Z</time>
      </trkpt>
      <trkpt lat="42.432857" lon="0.571719">
        <ele>1509.9</ele>
        <time>2016-06-07T10:14:18Z</time>
      </trkpt>
      <trkpt lat="42.432825" lon="0.571537">
        <ele>1511.3</ele>
        <time>2016-06-07T10:14:30Z</time>
      </trkpt>
      <trkpt lat="42.432763" lon="0.571303">
        <ele>1513.3</ele>
        <time>2016-06-07T10:14:46Z</time>
      </trkpt>
      <trkpt lat="42.432760" lon="0.571208">
        <ele>1514.2</ele>
        <time>2016-06-07T10:14:52Z</time>
      </trkpt>
      <trkpt lat="42.432731" lon="0.571128">
        <ele>1515.2</ele>
        <time>2016-06-07T10:14:58Z</time>
      </trkpt>
      <trkpt lat="42.432700" lon="0.571026">
        <ele>1515.7</ele>
        <time>2016-06-07T10:15:06Z</time>
      </trkpt>
      <trkpt lat="42.432634" lon="0.570785">
        <ele>1518.1</ele>
        <time>2016-06-07T10:15:24Z</time>
      </trkpt>
      <trkpt lat="42.432538" lon="0.570569">
        <ele>1519.5</ele>
        <time>2016-06-07T10:15:41Z</time>
      </trkpt>
      <trkpt lat="42.432508" lon="0.570498">
        <ele>1520.0</ele>
        <time>2016-06-07T10:15:46Z</time>
      </trkpt>
      <trkpt lat="42.432372" lon="0.570324">
        <ele>1522.4</ele>
        <time>2016-06-07T10:16:03Z</time>
      </trkpt>
      <trkpt lat="42.432301" lon="0.570223">
        <ele>1523.4</ele>
        <time>2016-06-07T10:16:12Z</time>
      </trkpt>
      <trkpt lat="42.432255" lon="0.570175">
        <ele>1524.8</ele>
        <time>2016-06-07T10:17:00Z</time>
      </trkpt>
      <trkpt lat="42.432178" lon="0.570016">
        <ele>1526.2</ele>
        <time>2016-06-07T10:17:12Z</time>
      </trkpt>
      <trkpt lat="42.432142" lon="0.569932">
        <ele>1526.2</ele>
        <time>2016-06-07T10:17:18Z</time>
      </trkpt>
      <trkpt lat="42.432047" lon="0.569711">
        <ele>1528.6</ele>
        <time>2016-06-07T10:17:33Z</time>
      </trkpt>
      <trkpt lat="42.432002" lon="0.569530">
        <ele>1530.1</ele>
        <time>2016-06-07T10:17:46Z</time>
      </trkpt>
      <trkpt lat="42.431944" lon="0.569311">
        <ele>1532.0</ele>
        <time>2016-06-07T10:18:01Z</time>
      </trkpt>
      <trkpt lat="42.431886" lon="0.569086">
        <ele>1534.4</ele>
        <time>2016-06-07T10:18:17Z</time>
      </trkpt>
      <trkpt lat="42.431851" lon="0.568977">
        <ele>1535.4</ele>
        <time>2016-06-07T10:18:25Z</time>
      </trkpt>
      <trkpt lat="42.431834" lon="0.568898">
        <ele>1535.8</ele>
        <time>2016-06-07T10:18:30Z</time>
      </trkpt>
      <trkpt lat="42.431804" lon="0.568827">
        <ele>1536.3</ele>
        <time>2016-06-07T10:18:35Z</time>
      </trkpt>
      <trkpt lat="42.431748" lon="0.568757">
        <ele>1536.8</ele>
        <time>2016-06-07T10:18:41Z</time>
      </trkpt>
      <trkpt lat="42.431644" lon="0.568663">
        <ele>1537.3</ele>
        <time>2016-06-07T10:18:51Z</time>
      </trkpt>
      <trkpt lat="42.431503" lon="0.568418">
        <ele>1539.7</ele>
        <time>2016-06-07T10:19:09Z</time>
      </trkpt>
      <trkpt lat="42.431466" lon="0.568336">
        <ele>1540.2</ele>
        <time>2016-06-07T10:19:15Z</time>
      </trkpt>
      <trkpt lat="42.431334" lon="0.568105">
        <ele>1541.6</ele>
        <time>2016-06-07T10:19:33Z</time>
      </trkpt>
      <trkpt lat="42.431280" lon="0.568043">
        <ele>1542.6</ele>
        <time>2016-06-07T10:19:39Z</time>
      </trkpt>
      <trkpt lat="42.431115" lon="0.567959">
        <ele>1544.0</ele>
        <time>2016-06-07T10:19:54Z</time>
      </trkpt>
      <trkpt lat="42.430966" lon="0.567934">
        <ele>1545.0</ele>
        <time>2016-06-07T10:20:07Z</time>
      </trkpt>
      <trkpt lat="42.430831" lon="0.567825">
        <ele>1545.5</ele>
        <time>2016-06-07T10:20:17Z</time>
      </trkpt>
      <trkpt lat="42.430673" lon="0.567613">
        <ele>1546.4</ele>
        <time>2016-06-07T10:20:33Z</time>
      </trkpt>
      <trkpt lat="42.430628" lon="0.567449">
        <ele>1546.9</ele>
        <time>2016-06-07T10:20:43Z</time>
      </trkpt>
      <trkpt lat="42.430640" lon="0.567374">
        <ele>1547.4</ele>
        <time>2016-06-07T10:20:47Z</time>
      </trkpt>
      <trkpt lat="42.430742" lon="0.567117">
        <ele>1548.8</ele>
        <time>2016-06-07T10:21:03Z</time>
      </trkpt>
      <trkpt lat="42.430765" lon="0.566985">
        <ele>1549.3</ele>
        <time>2016-06-07T10:21:09Z</time>
      </trkpt>
      <trkpt lat="42.430762" lon="0.566851">
        <ele>1549.3</ele>
        <time>2016-06-07T10:21:14Z</time>
      </trkpt>
      <trkpt lat="42.430727" lon="0.566670">
        <ele>1547.9</ele>
        <time>2016-06-07T10:21:18Z</time>
      </trkpt>
      <trkpt lat="42.430677" lon="0.565955">
        <ele>1545.0</ele>
        <time>2016-06-07T10:21:29Z</time>
      </trkpt>
      <trkpt lat="42.430651" lon="0.565620">
        <ele>1543.5</ele>
        <time>2016-06-07T10:21:34Z</time>
      </trkpt>
      <trkpt lat="42.430608" lon="0.565407">
        <ele>1542.6</ele>
        <time>2016-06-07T10:21:37Z</time>
      </trkpt>
      <trkpt lat="42.430576" lon="0.565278">
        <ele>1542.6</ele>
        <time>2016-06-07T10:21:39Z</time>
      </trkpt>
      <trkpt lat="42.430620" lon="0.565001">
        <ele>1542.1</ele>
        <time>2016-06-07T10:21:44Z</time>
      </trkpt>
      <trkpt lat="42.430575" lon="0.564591">
        <ele>1541.6</ele>
        <time>2016-06-07T10:21:56Z</time>
      </trkpt>
      <trkpt lat="42.430570" lon="0.564426">
        <ele>1541.6</ele>
        <time>2016-06-07T10:22:04Z</time>
      </trkpt>
      <trkpt lat="42.430626" lon="0.564128">
        <ele>1544.5</ele>
        <time>2016-06-07T10:22:21Z</time>
      </trkpt>
      <trkpt lat="42.430649" lon="0.564062">
        <ele>1545.5</ele>
        <time>2016-06-07T10:22:25Z</time>
      </trkpt>
      <trkpt lat="42.430734" lon="0.564067">
        <ele>1546.4</ele>
        <time>2016-06-07T10:22:35Z</time>
      </trkpt>
      <trkpt lat="42.430745" lon="0.564150">
        <ele>1547.4</ele>
        <time>2016-06-07T10:22:41Z</time>
      </trkpt>
      <trkpt lat="42.430855" lon="0.564264">
        <ele>1548.8</ele>
        <time>2016-06-07T10:22:54Z</time>
      </trkpt>
      <trkpt lat="42.431043" lon="0.564311">
        <ele>1549.8</ele>
        <time>2016-06-07T10:23:09Z</time>
      </trkpt>
      <trkpt lat="42.431226" lon="0.564417">
        <ele>1551.2</ele>
        <time>2016-06-07T10:23:23Z</time>
      </trkpt>
      <trkpt lat="42.431356" lon="0.564629">
        <ele>1552.2</ele>
        <time>2016-06-07T10:23:38Z</time>
      </trkpt>
      <trkpt lat="42.431575" lon="0.564684">
        <ele>1553.2</ele>
        <time>2016-06-07T10:23:55Z</time>
      </trkpt>
      <trkpt lat="42.431711" lon="0.564531">
        <ele>1553.6</ele>
        <time>2016-06-07T10:24:06Z</time>
      </trkpt>
      <trkpt lat="42.431858" lon="0.564298">
        <ele>1554.6</ele>
        <time>2016-06-07T10:24:22Z</time>
      </trkpt>
      <trkpt lat="42.431990" lon="0.564066">
        <ele>1554.6</ele>
        <time>2016-06-07T10:24:37Z</time>
      </trkpt>
      <trkpt lat="42.432086" lon="0.563743">
        <ele>1556.5</ele>
        <time>2016-06-07T10:24:55Z</time>
      </trkpt>
      <trkpt lat="42.432108" lon="0.563450">
        <ele>1557.5</ele>
        <time>2016-06-07T10:25:11Z</time>
      </trkpt>
      <trkpt lat="42.432080" lon="0.563307">
        <ele>1558.0</ele>
        <time>2016-06-07T10:25:19Z</time>
      </trkpt>
      <trkpt lat="42.432034" lon="0.562977">
        <ele>1559.4</ele>
        <time>2016-06-07T10:25:37Z</time>
      </trkpt>
      <trkpt lat="42.432018" lon="0.562653">
        <ele>1560.8</ele>
        <time>2016-06-07T10:25:54Z</time>
      </trkpt>
      <trkpt lat="42.432012" lon="0.562579">
        <ele>1560.8</ele>
        <time>2016-06-07T10:25:58Z</time>
      </trkpt>
      <trkpt lat="42.432011" lon="0.562298">
        <ele>1562.3</ele>
        <time>2016-06-07T10:26:13Z</time>
      </trkpt>
      <trkpt lat="42.432067" lon="0.562068">
        <ele>1563.2</ele>
        <time>2016-06-07T10:26:26Z</time>
      </trkpt>
      <trkpt lat="42.432131" lon="0.561763">
        <ele>1565.2</ele>
        <time>2016-06-07T10:26:45Z</time>
      </trkpt>
      <trkpt lat="42.432171" lon="0.561716">
        <ele>1565.6</ele>
        <time>2016-06-07T10:27:04Z</time>
      </trkpt>
      <trkpt lat="42.432177" lon="0.561632">
        <ele>1566.1</ele>
        <time>2016-06-07T10:27:29Z</time>
      </trkpt>
      <trkpt lat="42.432207" lon="0.561454">
        <ele>1567.6</ele>
        <time>2016-06-07T10:27:41Z</time>
      </trkpt>
      <trkpt lat="42.432242" lon="0.561156">
        <ele>1568.1</ele>
        <time>2016-06-07T10:27:57Z</time>
      </trkpt>
      <trkpt lat="42.432253" lon="0.561001">
        <ele>1569.5</ele>
        <time>2016-06-07T10:28:06Z</time>
      </trkpt>
      <trkpt lat="42.432267" lon="0.560916">
        <ele>1570.0</ele>
        <time>2016-06-07T10:28:11Z</time>
      </trkpt>
      <trkpt lat="42.432359" lon="0.560654">
        <ele>1572.4</ele>
        <time>2016-06-07T10:28:28Z</time>
      </trkpt>
      <trkpt lat="42.432381" lon="0.560581">
        <ele>1573.3</ele>
        <time>2016-06-07T10:28:33Z</time>
      </trkpt>
      <trkpt lat="42.432429" lon="0.560404">
        <ele>1574.3</ele>
        <time>2016-06-07T10:28:44Z</time>
      </trkpt>
      <trkpt lat="42.432469" lon="0.560316">
        <ele>1574.8</ele>
        <time>2016-06-07T10:28:50Z</time>
      </trkpt>
      <trkpt lat="42.432535" lon="0.560033">
        <ele>1577.2</ele>
        <time>2016-06-07T10:29:08Z</time>
      </trkpt>
      <trkpt lat="42.432576" lon="0.559979">
        <ele>1577.7</ele>
        <time>2016-06-07T10:29:13Z</time>
      </trkpt>
      <trkpt lat="42.432669" lon="0.560061">
        <ele>1577.7</ele>
        <time>2016-06-07T10:29:24Z</time>
      </trkpt>
      <trkpt lat="42.432691" lon="0.560144">
        <ele>1578.1</ele>
        <time>2016-06-07T10:29:29Z</time>
      </trkpt>
      <trkpt lat="42.432814" lon="0.560286">
        <ele>1579.6</ele>
        <time>2016-06-07T10:29:41Z</time>
      </trkpt>
      <trkpt lat="42.432953" lon="0.560251">
        <ele>1581.0</ele>
        <time>2016-06-07T10:29:52Z</time>
      </trkpt>
      <trkpt lat="42.433048" lon="0.560035">
        <ele>1583.4</ele>
        <time>2016-06-07T10:30:09Z</time>
      </trkpt>
      <trkpt lat="42.433090" lon="0.559748">
        <ele>1585.8</ele>
        <time>2016-06-07T10:30:27Z</time>
      </trkpt>
      <trkpt lat="42.433093" lon="0.559643">
        <ele>1586.8</ele>
        <time>2016-06-07T10:30:34Z</time>
      </trkpt>
      <trkpt lat="42.433082" lon="0.559564">
        <ele>1587.3</ele>
        <time>2016-06-07T10:30:39Z</time>
      </trkpt>
      <trkpt lat="42.433197" lon="0.559363">
        <ele>1588.2</ele>
        <time>2016-06-07T10:30:53Z</time>
      </trkpt>
      <trkpt lat="42.433319" lon="0.559311">
        <ele>1589.7</ele>
        <time>2016-06-07T10:31:03Z</time>
      </trkpt>
      <trkpt lat="42.433385" lon="0.559353">
        <ele>1589.7</ele>
        <time>2016-06-07T10:31:09Z</time>
      </trkpt>
      <trkpt lat="42.433460" lon="0.559403">
        <ele>1590.2</ele>
        <time>2016-06-07T10:31:16Z</time>
      </trkpt>
      <trkpt lat="42.433618" lon="0.559485">
        <ele>1591.6</ele>
        <time>2016-06-07T10:31:30Z</time>
      </trkpt>
      <trkpt lat="42.433688" lon="0.559492">
        <ele>1592.1</ele>
        <time>2016-06-07T10:31:36Z</time>
      </trkpt>
      <trkpt lat="42.433780" lon="0.559573">
        <ele>1593.5</ele>
        <time>2016-06-07T10:31:45Z</time>
      </trkpt>
      <trkpt lat="42.433846" lon="0.559601">
        <ele>1594.5</ele>
        <time>2016-06-07T10:31:52Z</time>
      </trkpt>
      <trkpt lat="42.434001" lon="0.559656">
        <ele>1596.4</ele>
        <time>2016-06-07T10:32:06Z</time>
      </trkpt>
      <trkpt lat="42.434068" lon="0.559683">
        <ele>1596.9</ele>
        <time>2016-06-07T10:32:12Z</time>
      </trkpt>
      <trkpt lat="42.434251" lon="0.559727">
        <ele>1598.3</ele>
        <time>2016-06-07T10:32:27Z</time>
      </trkpt>
      <trkpt lat="42.434375" lon="0.559787">
        <ele>1600.3</ele>
        <time>2016-06-07T10:32:39Z</time>
      </trkpt>
      <trkpt lat="42.434537" lon="0.559799">
        <ele>1601.7</ele>
        <time>2016-06-07T10:32:54Z</time>
      </trkpt>
      <trkpt lat="42.434672" lon="0.559827">
        <ele>1602.7</ele>
        <time>2016-06-07T10:33:05Z</time>
      </trkpt>
      <trkpt lat="42.434750" lon="0.559864">
        <ele>1603.6</ele>
        <time>2016-06-07T10:33:12Z</time>
      </trkpt>
      <trkpt lat="42.434942" lon="0.559966">
        <ele>1605.5</ele>
        <time>2016-06-07T10:33:30Z</time>
      </trkpt>
      <trkpt lat="42.435133" lon="0.560096">
        <ele>1608.4</ele>
        <time>2016-06-07T10:33:50Z</time>
      </trkpt>
      <trkpt lat="42.435191" lon="0.560133">
        <ele>1608.9</ele>
        <time>2016-06-07T10:33:55Z</time>
      </trkpt>
      <trkpt lat="42.435441" lon="0.560114">
        <ele>1610.4</ele>
        <time>2016-06-07T10:34:12Z</time>
      </trkpt>
      <trkpt lat="42.435601" lon="0.559951">
        <ele>1608.9</ele>
        <time>2016-06-07T10:34:20Z</time>
      </trkpt>
      <trkpt lat="42.435684" lon="0.559633">
        <ele>1606.0</ele>
        <time>2016-06-07T10:34:29Z</time>
      </trkpt>
      <trkpt lat="42.435842" lon="0.559661">
        <ele>1604.1</ele>
        <time>2016-06-07T10:34:35Z</time>
      </trkpt>
      <trkpt lat="42.435964" lon="0.559841">
        <ele>1602.2</ele>
        <time>2016-06-07T10:34:39Z</time>
      </trkpt>
      <trkpt lat="42.436083" lon="0.560037">
        <ele>1600.3</ele>
        <time>2016-06-07T10:34:43Z</time>
      </trkpt>
      <trkpt lat="42.436232" lon="0.560309">
        <ele>1597.4</ele>
        <time>2016-06-07T10:34:49Z</time>
      </trkpt>
      <trkpt lat="42.436423" lon="0.560179">
        <ele>1593.0</ele>
        <time>2016-06-07T10:34:58Z</time>
      </trkpt>
      <trkpt lat="42.436434" lon="0.560012">
        <ele>1592.1</ele>
        <time>2016-06-07T10:35:01Z</time>
      </trkpt>
      <trkpt lat="42.436424" lon="0.559895">
        <ele>1590.6</ele>
        <time>2016-06-07T10:35:03Z</time>
      </trkpt>
      <trkpt lat="42.436394" lon="0.559726">
        <ele>1589.7</ele>
        <time>2016-06-07T10:35:06Z</time>
      </trkpt>
      <trkpt lat="42.436567" lon="0.559474">
        <ele>1586.3</ele>
        <time>2016-06-07T10:35:13Z</time>
      </trkpt>
      <trkpt lat="42.436624" lon="0.559421">
        <ele>1585.8</ele>
        <time>2016-06-07T10:35:15Z</time>
      </trkpt>
      <trkpt lat="42.436748" lon="0.559228">
        <ele>1583.9</ele>
        <time>2016-06-07T10:35:20Z</time>
      </trkpt>
      <trkpt lat="42.436871" lon="0.558761">
        <ele>1580.5</ele>
        <time>2016-06-07T10:35:30Z</time>
      </trkpt>
      <trkpt lat="42.436960" lon="0.558623">
        <ele>1579.1</ele>
        <time>2016-06-07T10:35:34Z</time>
      </trkpt>
      <trkpt lat="42.437066" lon="0.558541">
        <ele>1578.6</ele>
        <time>2016-06-07T10:35:37Z</time>
      </trkpt>
      <trkpt lat="42.437235" lon="0.558215">
        <ele>1574.3</ele>
        <time>2016-06-07T10:35:46Z</time>
      </trkpt>
      <trkpt lat="42.437273" lon="0.557747">
        <ele>1570.9</ele>
        <time>2016-06-07T10:35:56Z</time>
      </trkpt>
      <trkpt lat="42.437235" lon="0.557366">
        <ele>1568.1</ele>
        <time>2016-06-07T10:36:04Z</time>
      </trkpt>
      <trkpt lat="42.437324" lon="0.557011">
        <ele>1565.6</ele>
        <time>2016-06-07T10:36:12Z</time>
      </trkpt>
      <trkpt lat="42.437463" lon="0.556805">
        <ele>1564.2</ele>
        <time>2016-06-07T10:36:17Z</time>
      </trkpt>
      <trkpt lat="42.437509" lon="0.556276">
        <ele>1560.8</ele>
        <time>2016-06-07T10:36:29Z</time>
      </trkpt>
      <trkpt lat="42.437540" lon="0.555901">
        <ele>1558.0</ele>
        <time>2016-06-07T10:36:38Z</time>
      </trkpt>
      <trkpt lat="42.437585" lon="0.555767">
        <ele>1557.0</ele>
        <time>2016-06-07T10:36:41Z</time>
      </trkpt>
      <trkpt lat="42.437618" lon="0.555598">
        <ele>1556.0</ele>
        <time>2016-06-07T10:36:44Z</time>
      </trkpt>
      <trkpt lat="42.437624" lon="0.555484">
        <ele>1555.1</ele>
        <time>2016-06-07T10:36:46Z</time>
      </trkpt>
      <trkpt lat="42.437602" lon="0.555299">
        <ele>1554.1</ele>
        <time>2016-06-07T10:36:50Z</time>
      </trkpt>
      <trkpt lat="42.437547" lon="0.554895">
        <ele>1551.2</ele>
        <time>2016-06-07T10:37:25Z</time>
      </trkpt>
      <trkpt lat="42.437659" lon="0.554506">
        <ele>1547.9</ele>
        <time>2016-06-07T10:37:35Z</time>
      </trkpt>
      <trkpt lat="42.437743" lon="0.554174">
        <ele>1544.5</ele>
        <time>2016-06-07T10:37:43Z</time>
      </trkpt>
      <trkpt lat="42.437772" lon="0.554098">
        <ele>1544.0</ele>
        <time>2016-06-07T10:37:45Z</time>
      </trkpt>
      <trkpt lat="42.437885" lon="0.553770">
        <ele>1541.6</ele>
        <time>2016-06-07T10:37:53Z</time>
      </trkpt>
      <trkpt lat="42.438029" lon="0.553507">
        <ele>1538.7</ele>
        <time>2016-06-07T10:37:59Z</time>
      </trkpt>
      <trkpt lat="42.438216" lon="0.553227">
        <ele>1535.8</ele>
        <time>2016-06-07T10:38:07Z</time>
      </trkpt>
      <trkpt lat="42.438342" lon="0.553046">
        <ele>1534.4</ele>
        <time>2016-06-07T10:38:12Z</time>
      </trkpt>
      <trkpt lat="42.438509" lon="0.552828">
        <ele>1532.5</ele>
        <time>2016-06-07T10:38:17Z</time>
      </trkpt>
      <trkpt lat="42.438846" lon="0.552359">
        <ele>1529.1</ele>
        <time>2016-06-07T10:38:27Z</time>
      </trkpt>
      <trkpt lat="42.439155" lon="0.552027">
        <ele>1526.7</ele>
        <time>2016-06-07T10:38:38Z</time>
      </trkpt>
      <trkpt lat="42.439444" lon="0.551831">
        <ele>1524.8</ele>
        <time>2016-06-07T10:38:49Z</time>
      </trkpt>
      <trkpt lat="42.439622" lon="0.551720">
        <ele>1523.4</ele>
        <time>2016-06-07T10:38:55Z</time>
      </trkpt>
      <trkpt lat="42.439857" lon="0.551578">
        <ele>1521.9</ele>
        <time>2016-06-07T10:39:01Z</time>
      </trkpt>
      <trkpt lat="42.439927" lon="0.551522">
        <ele>1521.4</ele>
        <time>2016-06-07T10:39:03Z</time>
      </trkpt>
      <trkpt lat="42.440231" lon="0.551251">
        <ele>1520.0</ele>
        <time>2016-06-07T10:39:12Z</time>
      </trkpt>
      <trkpt lat="42.440359" lon="0.551091">
        <ele>1519.5</ele>
        <time>2016-06-07T10:39:16Z</time>
      </trkpt>
      <trkpt lat="42.440435" lon="0.550868">
        <ele>1518.5</ele>
        <time>2016-06-07T10:39:20Z</time>
      </trkpt>
      <trkpt lat="42.440452" lon="0.550759">
        <ele>1518.1</ele>
        <time>2016-06-07T10:39:22Z</time>
      </trkpt>
      <trkpt lat="42.440462" lon="0.550646">
        <ele>1517.6</ele>
        <time>2016-06-07T10:39:24Z</time>
      </trkpt>
      <trkpt lat="42.440515" lon="0.550309">
        <ele>1517.1</ele>
        <time>2016-06-07T10:39:30Z</time>
      </trkpt>
      <trkpt lat="42.440596" lon="0.550106">
        <ele>1516.6</ele>
        <time>2016-06-07T10:39:34Z</time>
      </trkpt>
      <trkpt lat="42.440998" lon="0.549427">
        <ele>1515.7</ele>
        <time>2016-06-07T10:39:51Z</time>
      </trkpt>
      <trkpt lat="42.441262" lon="0.548908">
        <ele>1515.2</ele>
        <time>2016-06-07T10:40:04Z</time>
      </trkpt>
      <trkpt lat="42.441351" lon="0.548659">
        <ele>1514.7</ele>
        <time>2016-06-07T10:40:11Z</time>
      </trkpt>
      <trkpt lat="42.441297" lon="0.548006">
        <ele>1513.3</ele>
        <time>2016-06-07T10:40:25Z</time>
      </trkpt>
      <trkpt lat="42.441256" lon="0.547449">
        <ele>1511.8</ele>
        <time>2016-06-07T10:40:37Z</time>
      </trkpt>
      <trkpt lat="42.441477" lon="0.546911">
        <ele>1510.9</ele>
        <time>2016-06-07T10:40:49Z</time>
      </trkpt>
      <trkpt lat="42.441754" lon="0.546478">
        <ele>1509.9</ele>
        <time>2016-06-07T10:41:03Z</time>
      </trkpt>
      <trkpt lat="42.441776" lon="0.546331">
        <ele>1509.9</ele>
        <time>2016-06-07T10:41:07Z</time>
      </trkpt>
      <trkpt lat="42.441729" lon="0.546105">
        <ele>1509.9</ele>
        <time>2016-06-07T10:41:13Z</time>
      </trkpt>
      <trkpt lat="42.441624" lon="0.545909">
        <ele>1509.4</ele>
        <time>2016-06-07T10:41:19Z</time>
      </trkpt>
      <trkpt lat="42.441553" lon="0.545744">
        <ele>1508.5</ele>
        <time>2016-06-07T10:41:23Z</time>
      </trkpt>
      <trkpt lat="42.441332" lon="0.545424">
        <ele>1507.0</ele>
        <time>2016-06-07T10:41:30Z</time>
      </trkpt>
      <trkpt lat="42.441025" lon="0.545056">
        <ele>1506.5</ele>
        <time>2016-06-07T10:41:41Z</time>
      </trkpt>
      <trkpt lat="42.440884" lon="0.544835">
        <ele>1506.5</ele>
        <time>2016-06-07T10:41:50Z</time>
      </trkpt>
      <trkpt lat="42.440742" lon="0.544450">
        <ele>1506.5</ele>
        <time>2016-06-07T10:42:01Z</time>
      </trkpt>
      <trkpt lat="42.440791" lon="0.543782">
        <ele>1504.6</ele>
        <time>2016-06-07T10:42:14Z</time>
      </trkpt>
      <trkpt lat="42.440917" lon="0.543311">
        <ele>1503.2</ele>
        <time>2016-06-07T10:42:23Z</time>
      </trkpt>
      <trkpt lat="42.440952" lon="0.543192">
        <ele>1502.7</ele>
        <time>2016-06-07T10:42:25Z</time>
      </trkpt>
      <trkpt lat="42.441146" lon="0.542742">
        <ele>1500.3</ele>
        <time>2016-06-07T10:42:34Z</time>
      </trkpt>
      <trkpt lat="42.441253" lon="0.542537">
        <ele>1499.8</ele>
        <time>2016-06-07T10:42:38Z</time>
      </trkpt>
      <trkpt lat="42.441384" lon="0.541934">
        <ele>1498.8</ele>
        <time>2016-06-07T10:42:51Z</time>
      </trkpt>
      <trkpt lat="42.441401" lon="0.541590">
        <ele>1497.9</ele>
        <time>2016-06-07T10:42:59Z</time>
      </trkpt>
      <trkpt lat="42.441456" lon="0.541438">
        <ele>1496.9</ele>
        <time>2016-06-07T10:43:03Z</time>
      </trkpt>
      <trkpt lat="42.441548" lon="0.541032">
        <ele>1496.0</ele>
        <time>2016-06-07T10:43:13Z</time>
      </trkpt>
      <trkpt lat="42.441765" lon="0.540532">
        <ele>1495.0</ele>
        <time>2016-06-07T10:43:25Z</time>
      </trkpt>
      <trkpt lat="42.442097" lon="0.540348">
        <ele>1494.5</ele>
        <time>2016-06-07T10:43:37Z</time>
      </trkpt>
      <trkpt lat="42.442361" lon="0.540255">
        <ele>1494.5</ele>
        <time>2016-06-07T10:43:49Z</time>
      </trkpt>
      <trkpt lat="42.442436" lon="0.540224">
        <ele>1494.5</ele>
        <time>2016-06-07T10:43:54Z</time>
      </trkpt>
      <trkpt lat="42.442502" lon="0.540188">
        <ele>1494.5</ele>
        <time>2016-06-07T10:44:05Z</time>
      </trkpt>
      <trkpt lat="42.442541" lon="0.540151">
        <ele>1494.5</ele>
        <time>2016-06-07T10:44:12Z</time>
      </trkpt>
      <trkpt lat="42.442607" lon="0.540110">
        <ele>1494.5</ele>
        <time>2016-06-07T10:44:16Z</time>
      </trkpt>
      <trkpt lat="42.442912" lon="0.539965">
        <ele>1494.5</ele>
        <time>2016-06-07T10:44:29Z</time>
      </trkpt>
      <trkpt lat="42.443277" lon="0.539752">
        <ele>1492.6</ele>
        <time>2016-06-07T10:44:43Z</time>
      </trkpt>
      <trkpt lat="42.443783" lon="0.539443">
        <ele>1491.6</ele>
        <time>2016-06-07T10:44:58Z</time>
      </trkpt>
      <trkpt lat="42.443892" lon="0.539383">
        <ele>1491.6</ele>
        <time>2016-06-07T10:45:01Z</time>
      </trkpt>
      <trkpt lat="42.444406" lon="0.539113">
        <ele>1489.2</ele>
        <time>2016-06-07T10:45:14Z</time>
      </trkpt>
      <trkpt lat="42.444455" lon="0.539088">
        <ele>1488.7</ele>
        <time>2016-06-07T10:45:15Z</time>
      </trkpt>
      <trkpt lat="42.444646" lon="0.538944">
        <ele>1488.3</ele>
        <time>2016-06-07T10:45:20Z</time>
      </trkpt>
      <trkpt lat="42.444843" lon="0.538817">
        <ele>1486.8</ele>
        <time>2016-06-07T10:45:25Z</time>
      </trkpt>
      <trkpt lat="42.444974" lon="0.538761">
        <ele>1485.9</ele>
        <time>2016-06-07T10:45:28Z</time>
      </trkpt>
      <trkpt lat="42.445342" lon="0.538514">
        <ele>1484.9</ele>
        <time>2016-06-07T10:45:38Z</time>
      </trkpt>
      <trkpt lat="42.445428" lon="0.538698">
        <ele>1483.9</ele>
        <time>2016-06-07T10:45:44Z</time>
      </trkpt>
      <trkpt lat="42.445452" lon="0.539154">
        <ele>1483.0</ele>
        <time>2016-06-07T10:45:54Z</time>
      </trkpt>
      <trkpt lat="42.445436" lon="0.539256">
        <ele>1482.0</ele>
        <time>2016-06-07T10:45:56Z</time>
      </trkpt>
      <trkpt lat="42.445498" lon="0.539406">
        <ele>1481.5</ele>
        <time>2016-06-07T10:46:00Z</time>
      </trkpt>
      <trkpt lat="42.445667" lon="0.539426">
        <ele>1481.1</ele>
        <time>2016-06-07T10:46:05Z</time>
      </trkpt>
      <trkpt lat="42.446034" lon="0.539365">
        <ele>1480.1</ele>
        <time>2016-06-07T10:46:16Z</time>
      </trkpt>
      <trkpt lat="42.446263" lon="0.539368">
        <ele>1477.7</ele>
        <time>2016-06-07T10:46:22Z</time>
      </trkpt>
      <trkpt lat="42.446639" lon="0.539053">
        <ele>1473.8</ele>
        <time>2016-06-07T10:46:33Z</time>
      </trkpt>
      <trkpt lat="42.446857" lon="0.538789">
        <ele>1471.0</ele>
        <time>2016-06-07T10:46:41Z</time>
      </trkpt>
      <trkpt lat="42.447123" lon="0.538662">
        <ele>1469.5</ele>
        <time>2016-06-07T10:46:48Z</time>
      </trkpt>
      <trkpt lat="42.447501" lon="0.538740">
        <ele>1466.6</ele>
        <time>2016-06-07T10:46:57Z</time>
      </trkpt>
      <trkpt lat="42.447725" lon="0.538749">
        <ele>1465.2</ele>
        <time>2016-06-07T10:47:02Z</time>
      </trkpt>
      <trkpt lat="42.447857" lon="0.538727">
        <ele>1465.2</ele>
        <time>2016-06-07T10:47:05Z</time>
      </trkpt>
      <trkpt lat="42.448207" lon="0.538635">
        <ele>1462.8</ele>
        <time>2016-06-07T10:47:13Z</time>
      </trkpt>
      <trkpt lat="42.448597" lon="0.538275">
        <ele>1461.8</ele>
        <time>2016-06-07T10:47:27Z</time>
      </trkpt>
      <trkpt lat="42.448628" lon="0.538177">
        <ele>1463.3</ele>
        <time>2016-06-07T10:47:31Z</time>
      </trkpt>
      <trkpt lat="42.448608" lon="0.537837">
        <ele>1464.2</ele>
        <time>2016-06-07T10:47:46Z</time>
      </trkpt>
      <trkpt lat="42.448435" lon="0.537599">
        <ele>1462.8</ele>
        <time>2016-06-07T10:48:07Z</time>
      </trkpt>
      <trkpt lat="42.448242" lon="0.537307">
        <ele>1462.8</ele>
        <time>2016-06-07T10:48:19Z</time>
      </trkpt>
      <trkpt lat="42.448017" lon="0.536824">
        <ele>1462.8</ele>
        <time>2016-06-07T10:48:32Z</time>
      </trkpt>
      <trkpt lat="42.447828" lon="0.536420">
        <ele>1461.8</ele>
        <time>2016-06-07T10:48:44Z</time>
      </trkpt>
      <trkpt lat="42.447634" lon="0.536010">
        <ele>1458.0</ele>
        <time>2016-06-07T10:48:53Z</time>
      </trkpt>
      <trkpt lat="42.447487" lon="0.535666">
        <ele>1455.6</ele>
        <time>2016-06-07T10:48:59Z</time>
      </trkpt>
      <trkpt lat="42.447434" lon="0.535454">
        <ele>1454.1</ele>
        <time>2016-06-07T10:49:02Z</time>
      </trkpt>
      <trkpt lat="42.447439" lon="0.535015">
        <ele>1450.3</ele>
        <time>2016-06-07T10:49:08Z</time>
      </trkpt>
      <trkpt lat="42.447646" lon="0.534789">
        <ele>1447.9</ele>
        <time>2016-06-07T10:49:13Z</time>
      </trkpt>
      <trkpt lat="42.447698" lon="0.534757">
        <ele>1446.4</ele>
        <time>2016-06-07T10:49:14Z</time>
      </trkpt>
      <trkpt lat="42.447809" lon="0.534689">
        <ele>1445.0</ele>
        <time>2016-06-07T10:49:16Z</time>
      </trkpt>
      <trkpt lat="42.447968" lon="0.534769">
        <ele>1442.1</ele>
        <time>2016-06-07T10:49:22Z</time>
      </trkpt>
      <trkpt lat="42.447862" lon="0.534928">
        <ele>1440.2</ele>
        <time>2016-06-07T10:49:26Z</time>
      </trkpt>
      <trkpt lat="42.447807" lon="0.535006">
        <ele>1439.7</ele>
        <time>2016-06-07T10:49:28Z</time>
      </trkpt>
      <trkpt lat="42.447735" lon="0.535222">
        <ele>1436.8</ele>
        <time>2016-06-07T10:49:32Z</time>
      </trkpt>
      <trkpt lat="42.447737" lon="0.535392">
        <ele>1435.9</ele>
        <time>2016-06-07T10:49:35Z</time>
      </trkpt>
      <trkpt lat="42.447815" lon="0.535572">
        <ele>1434.4</ele>
        <time>2016-06-07T10:49:38Z</time>
      </trkpt>
      <trkpt lat="42.447974" lon="0.535922">
        <ele>1431.5</ele>
        <time>2016-06-07T10:49:43Z</time>
      </trkpt>
      <trkpt lat="42.448177" lon="0.535956">
        <ele>1428.7</ele>
        <time>2016-06-07T10:49:50Z</time>
      </trkpt>
      <trkpt lat="42.448100" lon="0.535732">
        <ele>1426.7</ele>
        <time>2016-06-07T10:49:54Z</time>
      </trkpt>
      <trkpt lat="42.448187" lon="0.535422">
        <ele>1423.9</ele>
        <time>2016-06-07T10:50:00Z</time>
      </trkpt>
      <trkpt lat="42.448358" lon="0.535433">
        <ele>1421.5</ele>
        <time>2016-06-07T10:50:03Z</time>
      </trkpt>
      <trkpt lat="42.448541" lon="0.535405">
        <ele>1420.0</ele>
        <time>2016-06-07T10:50:06Z</time>
      </trkpt>
      <trkpt lat="42.448823" lon="0.534987">
        <ele>1416.6</ele>
        <time>2016-06-07T10:50:12Z</time>
      </trkpt>
      <trkpt lat="42.448870" lon="0.534929">
        <ele>1416.6</ele>
        <time>2016-06-07T10:50:13Z</time>
      </trkpt>
      <trkpt lat="42.448945" lon="0.534858">
        <ele>1416.2</ele>
        <time>2016-06-07T10:50:15Z</time>
      </trkpt>
      <trkpt lat="42.449326" lon="0.534686">
        <ele>1413.8</ele>
        <time>2016-06-07T10:50:21Z</time>
      </trkpt>
      <trkpt lat="42.449499" lon="0.534512">
        <ele>1412.8</ele>
        <time>2016-06-07T10:50:24Z</time>
      </trkpt>
      <trkpt lat="42.449730" lon="0.534379">
        <ele>1411.8</ele>
        <time>2016-06-07T10:50:28Z</time>
      </trkpt>
      <trkpt lat="42.449992" lon="0.534153">
        <ele>1409.4</ele>
        <time>2016-06-07T10:50:33Z</time>
      </trkpt>
      <trkpt lat="42.450381" lon="0.534134">
        <ele>1407.0</ele>
        <time>2016-06-07T10:50:41Z</time>
      </trkpt>
      <trkpt lat="42.450515" lon="0.534160">
        <ele>1407.0</ele>
        <time>2016-06-07T10:50:44Z</time>
      </trkpt>
      <trkpt lat="42.450776" lon="0.534179">
        <ele>1405.1</ele>
        <time>2016-06-07T10:50:50Z</time>
      </trkpt>
      <trkpt lat="42.451009" lon="0.534039">
        <ele>1403.7</ele>
        <time>2016-06-07T10:50:55Z</time>
      </trkpt>
      <trkpt lat="42.451203" lon="0.533661">
        <ele>1401.7</ele>
        <time>2016-06-07T10:51:00Z</time>
      </trkpt>
      <trkpt lat="42.451225" lon="0.533557">
        <ele>1400.3</ele>
        <time>2016-06-07T10:51:01Z</time>
      </trkpt>
      <trkpt lat="42.451404" lon="0.533124">
        <ele>1398.9</ele>
        <time>2016-06-07T10:51:08Z</time>
      </trkpt>
      <trkpt lat="42.451665" lon="0.533000">
        <ele>1398.9</ele>
        <time>2016-06-07T10:51:18Z</time>
      </trkpt>
      <trkpt lat="42.451807" lon="0.533100">
        <ele>1398.9</ele>
        <time>2016-06-07T10:51:26Z</time>
      </trkpt>
      <trkpt lat="42.452030" lon="0.533177">
        <ele>1398.9</ele>
        <time>2016-06-07T10:51:37Z</time>
      </trkpt>
      <trkpt lat="42.452101" lon="0.533204">
        <ele>1398.9</ele>
        <time>2016-06-07T10:51:41Z</time>
      </trkpt>
      <trkpt lat="42.452381" lon="0.533231">
        <ele>1398.9</ele>
        <time>2016-06-07T10:51:53Z</time>
      </trkpt>
      <trkpt lat="42.452671" lon="0.533156">
        <ele>1398.9</ele>
        <time>2016-06-07T10:52:05Z</time>
      </trkpt>
      <trkpt lat="42.452765" lon="0.533025">
        <ele>1398.9</ele>
        <time>2016-06-07T10:52:10Z</time>
      </trkpt>
      <trkpt lat="42.452953" lon="0.532350">
        <ele>1396.0</ele>
        <time>2016-06-07T10:52:21Z</time>
      </trkpt>
      <trkpt lat="42.453246" lon="0.532070">
        <ele>1395.5</ele>
        <time>2016-06-07T10:52:28Z</time>
      </trkpt>
      <trkpt lat="42.453395" lon="0.532060">
        <ele>1395.0</ele>
        <time>2016-06-07T10:52:31Z</time>
      </trkpt>
      <trkpt lat="42.453706" lon="0.531940">
        <ele>1393.1</ele>
        <time>2016-06-07T10:52:38Z</time>
      </trkpt>
      <trkpt lat="42.453908" lon="0.531777">
        <ele>1391.2</ele>
        <time>2016-06-07T10:52:43Z</time>
      </trkpt>
      <trkpt lat="42.454126" lon="0.531599">
        <ele>1390.2</ele>
        <time>2016-06-07T10:52:46Z</time>
      </trkpt>
      <trkpt lat="42.454404" lon="0.531373">
        <ele>1388.8</ele>
        <time>2016-06-07T10:52:51Z</time>
      </trkpt>
      <trkpt lat="42.454669" lon="0.531249">
        <ele>1387.8</ele>
        <time>2016-06-07T10:52:56Z</time>
      </trkpt>
      <trkpt lat="42.454903" lon="0.531117">
        <ele>1386.8</ele>
        <time>2016-06-07T10:53:01Z</time>
      </trkpt>
      <trkpt lat="42.455131" lon="0.531027">
        <ele>1386.8</ele>
        <time>2016-06-07T10:53:07Z</time>
      </trkpt>
      <trkpt lat="42.455273" lon="0.530937">
        <ele>1386.4</ele>
        <time>2016-06-07T10:53:12Z</time>
      </trkpt>
      <trkpt lat="42.455374" lon="0.530624">
        <ele>1385.9</ele>
        <time>2016-06-07T10:53:21Z</time>
      </trkpt>
      <trkpt lat="42.455524" lon="0.530356">
        <ele>1384.0</ele>
        <time>2016-06-07T10:53:27Z</time>
      </trkpt>
      <trkpt lat="42.455591" lon="0.530265">
        <ele>1383.0</ele>
        <time>2016-06-07T10:53:29Z</time>
      </trkpt>
      <trkpt lat="42.455667" lon="0.530182">
        <ele>1382.0</ele>
        <time>2016-06-07T10:53:31Z</time>
      </trkpt>
      <trkpt lat="42.455758" lon="0.530035">
        <ele>1380.6</ele>
        <time>2016-06-07T10:53:34Z</time>
      </trkpt>
      <trkpt lat="42.455785" lon="0.529981">
        <ele>1379.6</ele>
        <time>2016-06-07T10:53:35Z</time>
      </trkpt>
      <trkpt lat="42.455852" lon="0.529878">
        <ele>1378.7</ele>
        <time>2016-06-07T10:53:37Z</time>
      </trkpt>
      <trkpt lat="42.456012" lon="0.529675">
        <ele>1375.8</ele>
        <time>2016-06-07T10:53:41Z</time>
      </trkpt>
      <trkpt lat="42.456157" lon="0.529319">
        <ele>1372.9</ele>
        <time>2016-06-07T10:53:46Z</time>
      </trkpt>
      <trkpt lat="42.456191" lon="0.529156">
        <ele>1372.4</ele>
        <time>2016-06-07T10:53:48Z</time>
      </trkpt>
      <trkpt lat="42.456235" lon="0.529004">
        <ele>1372.9</ele>
        <time>2016-06-07T10:53:50Z</time>
      </trkpt>
      <trkpt lat="42.456354" lon="0.528786">
        <ele>1372.4</ele>
        <time>2016-06-07T10:53:54Z</time>
      </trkpt>
      <trkpt lat="42.456430" lon="0.528314">
        <ele>1372.4</ele>
        <time>2016-06-07T10:54:05Z</time>
      </trkpt>
      <trkpt lat="42.456505" lon="0.527751">
        <ele>1373.4</ele>
        <time>2016-06-07T10:54:18Z</time>
      </trkpt>
      <trkpt lat="42.456516" lon="0.527633">
        <ele>1371.9</ele>
        <time>2016-06-07T10:54:20Z</time>
      </trkpt>
      <trkpt lat="42.456680" lon="0.527108">
        <ele>1371.9</ele>
        <time>2016-06-07T10:54:33Z</time>
      </trkpt>
      <trkpt lat="42.456812" lon="0.526706">
        <ele>1372.9</ele>
        <time>2016-06-07T10:54:46Z</time>
      </trkpt>
      <trkpt lat="42.456909" lon="0.526335">
        <ele>1374.3</ele>
        <time>2016-06-07T10:54:59Z</time>
      </trkpt>
      <trkpt lat="42.457097" lon="0.525916">
        <ele>1376.3</ele>
        <time>2016-06-07T10:55:16Z</time>
      </trkpt>
      <trkpt lat="42.457140" lon="0.525573">
        <ele>1377.2</ele>
        <time>2016-06-07T10:55:29Z</time>
      </trkpt>
      <trkpt lat="42.457125" lon="0.525158">
        <ele>1378.7</ele>
        <time>2016-06-07T10:55:44Z</time>
      </trkpt>
      <trkpt lat="42.457125" lon="0.524870">
        <ele>1378.7</ele>
        <time>2016-06-07T10:55:57Z</time>
      </trkpt>
      <trkpt lat="42.457152" lon="0.524774">
        <ele>1373.9</ele>
        <time>2016-06-07T11:13:50Z</time>
      </trkpt>
      <trkpt lat="42.457211" lon="0.524640">
        <ele>1373.9</ele>
        <time>2016-06-07T11:14:13Z</time>
      </trkpt>
      <trkpt lat="42.457262" lon="0.524510">
        <ele>1373.9</ele>
        <time>2016-06-07T11:14:18Z</time>
      </trkpt>
      <trkpt lat="42.457357" lon="0.524183">
        <ele>1373.9</ele>
        <time>2016-06-07T11:14:30Z</time>
      </trkpt>
      <trkpt lat="42.457416" lon="0.523772">
        <ele>1373.9</ele>
        <time>2016-06-07T11:14:43Z</time>
      </trkpt>
      <trkpt lat="42.457433" lon="0.523495">
        <ele>1373.9</ele>
        <time>2016-06-07T11:14:53Z</time>
      </trkpt>
      <trkpt lat="42.457464" lon="0.523162">
        <ele>1373.4</ele>
        <time>2016-06-07T11:15:04Z</time>
      </trkpt>
      <trkpt lat="42.457524" lon="0.522793">
        <ele>1373.9</ele>
        <time>2016-06-07T11:15:17Z</time>
      </trkpt>
      <trkpt lat="42.457586" lon="0.522464">
        <ele>1373.4</ele>
        <time>2016-06-07T11:15:28Z</time>
      </trkpt>
      <trkpt lat="42.457689" lon="0.522104">
        <ele>1373.4</ele>
        <time>2016-06-07T11:15:41Z</time>
      </trkpt>
      <trkpt lat="42.457826" lon="0.521713">
        <ele>1374.3</ele>
        <time>2016-06-07T11:15:55Z</time>
      </trkpt>
      <trkpt lat="42.457931" lon="0.521372">
        <ele>1375.3</ele>
        <time>2016-06-07T11:16:09Z</time>
      </trkpt>
      <trkpt lat="42.458034" lon="0.521037">
        <ele>1377.2</ele>
        <time>2016-06-07T11:16:24Z</time>
      </trkpt>
      <trkpt lat="42.458090" lon="0.520773">
        <ele>1378.2</ele>
        <time>2016-06-07T11:16:37Z</time>
      </trkpt>
      <trkpt lat="42.458233" lon="0.520552">
        <ele>1380.1</ele>
        <time>2016-06-07T11:16:50Z</time>
      </trkpt>
      <trkpt lat="42.458432" lon="0.520243">
        <ele>1381.1</ele>
        <time>2016-06-07T11:17:05Z</time>
      </trkpt>
      <trkpt lat="42.458615" lon="0.519824">
        <ele>1379.6</ele>
        <time>2016-06-07T11:17:14Z</time>
      </trkpt>
      <trkpt lat="42.458873" lon="0.519114">
        <ele>1377.2</ele>
        <time>2016-06-07T11:17:26Z</time>
      </trkpt>
      <trkpt lat="42.459027" lon="0.518813">
        <ele>1378.7</ele>
        <time>2016-06-07T11:17:39Z</time>
      </trkpt>
      <trkpt lat="42.459061" lon="0.518444">
        <ele>1380.1</ele>
        <time>2016-06-07T11:17:54Z</time>
      </trkpt>
      <trkpt lat="42.459146" lon="0.518158">
        <ele>1381.1</ele>
        <time>2016-06-07T11:18:10Z</time>
      </trkpt>
      <trkpt lat="42.459274" lon="0.518044">
        <ele>1381.1</ele>
        <time>2016-06-07T11:18:26Z</time>
      </trkpt>
      <trkpt lat="42.459370" lon="0.517899">
        <ele>1381.1</ele>
        <time>2016-06-07T11:18:38Z</time>
      </trkpt>
      <trkpt lat="42.459390" lon="0.517806">
        <ele>1381.1</ele>
        <time>2016-06-07T11:18:48Z</time>
      </trkpt>
      <trkpt lat="42.459572" lon="0.517757">
        <ele>1380.1</ele>
        <time>2016-06-07T11:18:59Z</time>
      </trkpt>
      <trkpt lat="42.459930" lon="0.517642">
        <ele>1379.6</ele>
        <time>2016-06-07T11:19:10Z</time>
      </trkpt>
      <trkpt lat="42.460028" lon="0.517559">
        <ele>1379.2</ele>
        <time>2016-06-07T11:19:13Z</time>
      </trkpt>
      <trkpt lat="42.460308" lon="0.517328">
        <ele>1376.3</ele>
        <time>2016-06-07T11:19:20Z</time>
      </trkpt>
      <trkpt lat="42.460381" lon="0.517261">
        <ele>1375.3</ele>
        <time>2016-06-07T11:19:22Z</time>
      </trkpt>
      <trkpt lat="42.460443" lon="0.517215">
        <ele>1374.3</ele>
        <time>2016-06-07T11:19:24Z</time>
      </trkpt>
      <trkpt lat="42.460503" lon="0.517153">
        <ele>1373.9</ele>
        <time>2016-06-07T11:19:26Z</time>
      </trkpt>
      <trkpt lat="42.460603" lon="0.516815">
        <ele>1370.5</ele>
        <time>2016-06-07T11:19:32Z</time>
      </trkpt>
      <trkpt lat="42.460793" lon="0.516587">
        <ele>1369.5</ele>
        <time>2016-06-07T11:19:38Z</time>
      </trkpt>
      <trkpt lat="42.460873" lon="0.516591">
        <ele>1368.1</ele>
        <time>2016-06-07T11:19:40Z</time>
      </trkpt>
      <trkpt lat="42.461043" lon="0.516474">
        <ele>1366.2</ele>
        <time>2016-06-07T11:19:44Z</time>
      </trkpt>
      <trkpt lat="42.461118" lon="0.516382">
        <ele>1365.2</ele>
        <time>2016-06-07T11:19:46Z</time>
      </trkpt>
      <trkpt lat="42.461261" lon="0.515847">
        <ele>1362.3</ele>
        <time>2016-06-07T11:19:54Z</time>
      </trkpt>
      <trkpt lat="42.461276" lon="0.515630">
        <ele>1360.9</ele>
        <time>2016-06-07T11:19:57Z</time>
      </trkpt>
      <trkpt lat="42.461385" lon="0.515393">
        <ele>1358.5</ele>
        <time>2016-06-07T11:20:01Z</time>
      </trkpt>
      <trkpt lat="42.461535" lon="0.515248">
        <ele>1357.0</ele>
        <time>2016-06-07T11:20:04Z</time>
      </trkpt>
      <trkpt lat="42.461780" lon="0.515001">
        <ele>1355.1</ele>
        <time>2016-06-07T11:20:09Z</time>
      </trkpt>
      <trkpt lat="42.461973" lon="0.514766">
        <ele>1352.2</ele>
        <time>2016-06-07T11:20:13Z</time>
      </trkpt>
      <trkpt lat="42.462103" lon="0.514552">
        <ele>1350.3</ele>
        <time>2016-06-07T11:20:16Z</time>
      </trkpt>
      <trkpt lat="42.462311" lon="0.514312">
        <ele>1347.4</ele>
        <time>2016-06-07T11:20:20Z</time>
      </trkpt>
      <trkpt lat="42.462564" lon="0.514057">
        <ele>1345.0</ele>
        <time>2016-06-07T11:20:24Z</time>
      </trkpt>
      <trkpt lat="42.462700" lon="0.513935">
        <ele>1343.6</ele>
        <time>2016-06-07T11:20:26Z</time>
      </trkpt>
      <trkpt lat="42.463036" lon="0.513441">
        <ele>1341.2</ele>
        <time>2016-06-07T11:20:32Z</time>
      </trkpt>
      <trkpt lat="42.463231" lon="0.513212">
        <ele>1338.8</ele>
        <time>2016-06-07T11:20:35Z</time>
      </trkpt>
      <trkpt lat="42.463473" lon="0.512830">
        <ele>1336.4</ele>
        <time>2016-06-07T11:20:39Z</time>
      </trkpt>
      <trkpt lat="42.464136" lon="0.511809">
        <ele>1333.5</ele>
        <time>2016-06-07T11:20:51Z</time>
      </trkpt>
      <trkpt lat="42.464662" lon="0.511078">
        <ele>1331.6</ele>
        <time>2016-06-07T11:21:02Z</time>
      </trkpt>
      <trkpt lat="42.464823" lon="0.510716">
        <ele>1330.6</ele>
        <time>2016-06-07T11:21:07Z</time>
      </trkpt>
      <trkpt lat="42.464970" lon="0.510113">
        <ele>1328.7</ele>
        <time>2016-06-07T11:21:15Z</time>
      </trkpt>
      <trkpt lat="42.465045" lon="0.509909">
        <ele>1328.2</ele>
        <time>2016-06-07T11:21:18Z</time>
      </trkpt>
      <trkpt lat="42.465174" lon="0.509695">
        <ele>1328.2</ele>
        <time>2016-06-07T11:21:22Z</time>
      </trkpt>
      <trkpt lat="42.465315" lon="0.509527">
        <ele>1327.7</ele>
        <time>2016-06-07T11:21:26Z</time>
      </trkpt>
      <trkpt lat="42.465457" lon="0.509353">
        <ele>1327.2</ele>
        <time>2016-06-07T11:21:30Z</time>
      </trkpt>
      <trkpt lat="42.465736" lon="0.508950">
        <ele>1325.3</ele>
        <time>2016-06-07T11:21:37Z</time>
      </trkpt>
      <trkpt lat="42.465924" lon="0.508733">
        <ele>1323.4</ele>
        <time>2016-06-07T11:21:41Z</time>
      </trkpt>
      <trkpt lat="42.466018" lon="0.508609">
        <ele>1322.4</ele>
        <time>2016-06-07T11:21:44Z</time>
      </trkpt>
      <trkpt lat="42.466098" lon="0.508423">
        <ele>1322.0</ele>
        <time>2016-06-07T11:21:51Z</time>
      </trkpt>
      <trkpt lat="42.466125" lon="0.508304">
        <ele>1323.4</ele>
        <time>2016-06-07T11:22:06Z</time>
      </trkpt>
      <trkpt lat="42.466159" lon="0.508167">
        <ele>1325.3</ele>
        <time>2016-06-07T11:22:17Z</time>
      </trkpt>
      <trkpt lat="42.466193" lon="0.507995">
        <ele>1326.8</ele>
        <time>2016-06-07T11:22:31Z</time>
      </trkpt>
      <trkpt lat="42.466205" lon="0.507913">
        <ele>1327.7</ele>
        <time>2016-06-07T11:22:45Z</time>
      </trkpt>
      <trkpt lat="42.466187" lon="0.507842">
        <ele>1327.2</ele>
        <time>2016-06-07T11:23:30Z</time>
      </trkpt>
      <trkpt lat="42.466212" lon="0.507716">
        <ele>1327.7</ele>
        <time>2016-06-07T11:23:37Z</time>
      </trkpt>
      <trkpt lat="42.466292" lon="0.507448">
        <ele>1329.6</ele>
        <time>2016-06-07T11:23:52Z</time>
      </trkpt>
      <trkpt lat="42.466314" lon="0.507344">
        <ele>1330.1</ele>
        <time>2016-06-07T11:23:58Z</time>
      </trkpt>
      <trkpt lat="42.466351" lon="0.507295">
        <ele>1330.6</ele>
        <time>2016-06-07T11:24:01Z</time>
      </trkpt>
      <trkpt lat="42.466407" lon="0.507009">
        <ele>1332.5</ele>
        <time>2016-06-07T11:24:16Z</time>
      </trkpt>
      <trkpt lat="42.466400" lon="0.506799">
        <ele>1333.5</ele>
        <time>2016-06-07T11:24:27Z</time>
      </trkpt>
      <trkpt lat="42.466418" lon="0.506574">
        <ele>1334.5</ele>
        <time>2016-06-07T11:24:40Z</time>
      </trkpt>
      <trkpt lat="42.466436" lon="0.506469">
        <ele>1334.9</ele>
        <time>2016-06-07T11:24:45Z</time>
      </trkpt>
      <trkpt lat="42.466476" lon="0.506314">
        <ele>1335.9</ele>
        <time>2016-06-07T11:24:53Z</time>
      </trkpt>
      <trkpt lat="42.466500" lon="0.506179">
        <ele>1337.3</ele>
        <time>2016-06-07T11:25:01Z</time>
      </trkpt>
      <trkpt lat="42.466511" lon="0.506045">
        <ele>1338.8</ele>
        <time>2016-06-07T11:25:09Z</time>
      </trkpt>
      <trkpt lat="42.466565" lon="0.505853">
        <ele>1340.2</ele>
        <time>2016-06-07T11:25:21Z</time>
      </trkpt>
      <trkpt lat="42.466586" lon="0.505783">
        <ele>1341.7</ele>
        <time>2016-06-07T11:25:26Z</time>
      </trkpt>
      <trkpt lat="42.466611" lon="0.505724">
        <ele>1342.1</ele>
        <time>2016-06-07T11:25:30Z</time>
      </trkpt>
      <trkpt lat="42.466686" lon="0.505572">
        <ele>1343.6</ele>
        <time>2016-06-07T11:25:41Z</time>
      </trkpt>
      <trkpt lat="42.466715" lon="0.505511">
        <ele>1344.5</ele>
        <time>2016-06-07T11:25:45Z</time>
      </trkpt>
      <trkpt lat="42.466747" lon="0.505432">
        <ele>1345.5</ele>
        <time>2016-06-07T11:25:50Z</time>
      </trkpt>
      <trkpt lat="42.466826" lon="0.505198">
        <ele>1347.4</ele>
        <time>2016-06-07T11:26:04Z</time>
      </trkpt>
      <trkpt lat="42.466865" lon="0.504916">
        <ele>1347.9</ele>
        <time>2016-06-07T11:26:17Z</time>
      </trkpt>
      <trkpt lat="42.466883" lon="0.504817">
        <ele>1347.9</ele>
        <time>2016-06-07T11:26:22Z</time>
      </trkpt>
      <trkpt lat="42.466936" lon="0.504541">
        <ele>1349.4</ele>
        <time>2016-06-07T11:26:37Z</time>
      </trkpt>
      <trkpt lat="42.466958" lon="0.504425">
        <ele>1350.8</ele>
        <time>2016-06-07T11:26:45Z</time>
      </trkpt>
      <trkpt lat="42.467017" lon="0.504081">
        <ele>1352.7</ele>
        <time>2016-06-07T11:27:03Z</time>
      </trkpt>
      <trkpt lat="42.467058" lon="0.503913">
        <ele>1353.7</ele>
        <time>2016-06-07T11:27:12Z</time>
      </trkpt>
      <trkpt lat="42.467079" lon="0.503742">
        <ele>1354.6</ele>
        <time>2016-06-07T11:27:21Z</time>
      </trkpt>
      <trkpt lat="42.467095" lon="0.503660">
        <ele>1354.6</ele>
        <time>2016-06-07T11:27:25Z</time>
      </trkpt>
      <trkpt lat="42.467124" lon="0.503455">
        <ele>1354.6</ele>
        <time>2016-06-07T11:27:35Z</time>
      </trkpt>
      <trkpt lat="42.467136" lon="0.503365">
        <ele>1355.1</ele>
        <time>2016-06-07T11:27:39Z</time>
      </trkpt>
      <trkpt lat="42.467162" lon="0.503136">
        <ele>1355.6</ele>
        <time>2016-06-07T11:27:52Z</time>
      </trkpt>
      <trkpt lat="42.467184" lon="0.503029">
        <ele>1355.6</ele>
        <time>2016-06-07T11:28:05Z</time>
      </trkpt>
      <trkpt lat="42.467192" lon="0.502902">
        <ele>1356.1</ele>
        <time>2016-06-07T11:28:18Z</time>
      </trkpt>
      <trkpt lat="42.467265" lon="0.502604">
        <ele>1356.6</ele>
        <time>2016-06-07T11:28:36Z</time>
      </trkpt>
      <trkpt lat="42.467309" lon="0.502305">
        <ele>1357.5</ele>
        <time>2016-06-07T11:28:48Z</time>
      </trkpt>
      <trkpt lat="42.467374" lon="0.502054">
        <ele>1358.0</ele>
        <time>2016-06-07T11:28:59Z</time>
      </trkpt>
      <trkpt lat="42.467423" lon="0.501744">
        <ele>1359.0</ele>
        <time>2016-06-07T11:29:14Z</time>
      </trkpt>
      <trkpt lat="42.467480" lon="0.501592">
        <ele>1359.9</ele>
        <time>2016-06-07T11:29:22Z</time>
      </trkpt>
      <trkpt lat="42.467539" lon="0.501481">
        <ele>1360.9</ele>
        <time>2016-06-07T11:29:28Z</time>
      </trkpt>
      <trkpt lat="42.467622" lon="0.501208">
        <ele>1363.8</ele>
        <time>2016-06-07T11:29:45Z</time>
      </trkpt>
      <trkpt lat="42.467654" lon="0.501070">
        <ele>1364.7</ele>
        <time>2016-06-07T11:29:53Z</time>
      </trkpt>
      <trkpt lat="42.467688" lon="0.500980">
        <ele>1364.7</ele>
        <time>2016-06-07T11:29:59Z</time>
      </trkpt>
      <trkpt lat="42.467736" lon="0.500816">
        <ele>1366.7</ele>
        <time>2016-06-07T11:30:10Z</time>
      </trkpt>
      <trkpt lat="42.467853" lon="0.500596">
        <ele>1368.6</ele>
        <time>2016-06-07T11:30:26Z</time>
      </trkpt>
      <trkpt lat="42.467900" lon="0.500541">
        <ele>1369.1</ele>
        <time>2016-06-07T11:30:31Z</time>
      </trkpt>
      <trkpt lat="42.468035" lon="0.500470">
        <ele>1370.5</ele>
        <time>2016-06-07T11:30:43Z</time>
      </trkpt>
      <trkpt lat="42.468101" lon="0.500374">
        <ele>1371.5</ele>
        <time>2016-06-07T11:30:52Z</time>
      </trkpt>
      <trkpt lat="42.468246" lon="0.500229">
        <ele>1374.3</ele>
        <time>2016-06-07T11:31:07Z</time>
      </trkpt>
      <trkpt lat="42.468371" lon="0.500103">
        <ele>1375.3</ele>
        <time>2016-06-07T11:31:32Z</time>
      </trkpt>
      <trkpt lat="42.468397" lon="0.500039">
        <ele>1375.8</ele>
        <time>2016-06-07T11:31:37Z</time>
      </trkpt>
      <trkpt lat="42.468445" lon="0.499930">
        <ele>1375.8</ele>
        <time>2016-06-07T11:31:43Z</time>
      </trkpt>
      <trkpt lat="42.468473" lon="0.499842">
        <ele>1376.3</ele>
        <time>2016-06-07T11:31:48Z</time>
      </trkpt>
      <trkpt lat="42.468523" lon="0.499537">
        <ele>1377.7</ele>
        <time>2016-06-07T11:32:03Z</time>
      </trkpt>
      <trkpt lat="42.468549" lon="0.499464">
        <ele>1378.2</ele>
        <time>2016-06-07T11:32:08Z</time>
      </trkpt>
      <trkpt lat="42.468588" lon="0.499335">
        <ele>1378.2</ele>
        <time>2016-06-07T11:32:20Z</time>
      </trkpt>
      <trkpt lat="42.468589" lon="0.499206">
        <ele>1378.2</ele>
        <time>2016-06-07T11:32:25Z</time>
      </trkpt>
      <trkpt lat="42.468647" lon="0.498891">
        <ele>1377.2</ele>
        <time>2016-06-07T11:32:36Z</time>
      </trkpt>
      <trkpt lat="42.468703" lon="0.498811">
        <ele>1376.8</ele>
        <time>2016-06-07T11:32:41Z</time>
      </trkpt>
      <trkpt lat="42.468912" lon="0.498857">
        <ele>1376.8</ele>
        <time>2016-06-07T11:32:52Z</time>
      </trkpt>
      <trkpt lat="42.469200" lon="0.498857">
        <ele>1375.8</ele>
        <time>2016-06-07T11:33:05Z</time>
      </trkpt>
      <trkpt lat="42.469382" lon="0.498941">
        <ele>1372.4</ele>
        <time>2016-06-07T11:33:12Z</time>
      </trkpt>
      <trkpt lat="42.469539" lon="0.498822">
        <ele>1369.5</ele>
        <time>2016-06-07T11:33:19Z</time>
      </trkpt>
      <trkpt lat="42.469584" lon="0.498545">
        <ele>1368.6</ele>
        <time>2016-06-07T11:33:28Z</time>
      </trkpt>
      <trkpt lat="42.469688" lon="0.498451">
        <ele>1368.1</ele>
        <time>2016-06-07T11:33:32Z</time>
      </trkpt>
      <trkpt lat="42.469824" lon="0.498382">
        <ele>1366.7</ele>
        <time>2016-06-07T11:33:36Z</time>
      </trkpt>
      <trkpt lat="42.470152" lon="0.498087">
        <ele>1364.3</ele>
        <time>2016-06-07T11:33:44Z</time>
      </trkpt>
      <trkpt lat="42.470443" lon="0.497647">
        <ele>1363.3</ele>
        <time>2016-06-07T11:33:54Z</time>
      </trkpt>
      <trkpt lat="42.470637" lon="0.497470">
        <ele>1361.8</ele>
        <time>2016-06-07T11:34:04Z</time>
      </trkpt>
      <trkpt lat="42.470702" lon="0.497469">
        <ele>1360.9</ele>
        <time>2016-06-07T11:37:17Z</time>
      </trkpt>
      <trkpt lat="42.471030" lon="0.497321">
        <ele>1357.0</ele>
        <time>2016-06-07T11:37:27Z</time>
      </trkpt>
      <trkpt lat="42.471103" lon="0.497371">
        <ele>1356.1</ele>
        <time>2016-06-07T11:37:29Z</time>
      </trkpt>
      <trkpt lat="42.471483" lon="0.497604">
        <ele>1355.6</ele>
        <time>2016-06-07T11:37:41Z</time>
      </trkpt>
      <trkpt lat="42.471604" lon="0.497779">
        <ele>1354.6</ele>
        <time>2016-06-07T11:37:48Z</time>
      </trkpt>
      <trkpt lat="42.471881" lon="0.497892">
        <ele>1351.8</ele>
        <time>2016-06-07T11:37:57Z</time>
      </trkpt>
      <trkpt lat="42.471930" lon="0.497911">
        <ele>1351.3</ele>
        <time>2016-06-07T11:37:58Z</time>
      </trkpt>
      <trkpt lat="42.472124" lon="0.498074">
        <ele>1350.3</ele>
        <time>2016-06-07T11:38:08Z</time>
      </trkpt>
      <trkpt lat="42.472165" lon="0.498208">
        <ele>1350.3</ele>
        <time>2016-06-07T11:38:14Z</time>
      </trkpt>
      <trkpt lat="42.472188" lon="0.498269">
        <ele>1350.3</ele>
        <time>2016-06-07T11:38:16Z</time>
      </trkpt>
      <trkpt lat="42.472315" lon="0.498241">
        <ele>1350.3</ele>
        <time>2016-06-07T11:38:21Z</time>
      </trkpt>
      <trkpt lat="42.472550" lon="0.497679">
        <ele>1348.9</ele>
        <time>2016-06-07T11:38:34Z</time>
      </trkpt>
      <trkpt lat="42.472810" lon="0.497454">
        <ele>1347.9</ele>
        <time>2016-06-07T11:38:43Z</time>
      </trkpt>
      <trkpt lat="42.472912" lon="0.497346">
        <ele>1347.4</ele>
        <time>2016-06-07T11:38:46Z</time>
      </trkpt>
      <trkpt lat="42.473036" lon="0.497188">
        <ele>1346.9</ele>
        <time>2016-06-07T11:38:50Z</time>
      </trkpt>
      <trkpt lat="42.473167" lon="0.496964">
        <ele>1346.0</ele>
        <time>2016-06-07T11:39:00Z</time>
      </trkpt>
      <trkpt lat="42.473381" lon="0.496653">
        <ele>1343.1</ele>
        <time>2016-06-07T11:44:47Z</time>
      </trkpt>
      <trkpt lat="42.473596" lon="0.496186">
        <ele>1340.2</ele>
        <time>2016-06-07T11:44:59Z</time>
      </trkpt>
      <trkpt lat="42.473682" lon="0.496143">
        <ele>1338.8</ele>
        <time>2016-06-07T11:45:07Z</time>
      </trkpt>
      <trkpt lat="42.473789" lon="0.496149">
        <ele>1337.8</ele>
        <time>2016-06-07T11:45:10Z</time>
      </trkpt>
      <trkpt lat="42.473875" lon="0.496148">
        <ele>1336.9</ele>
        <time>2016-06-07T11:45:12Z</time>
      </trkpt>
      <trkpt lat="42.474022" lon="0.496051">
        <ele>1336.4</ele>
        <time>2016-06-07T11:45:16Z</time>
      </trkpt>
      <trkpt lat="42.474074" lon="0.495833">
        <ele>1334.0</ele>
        <time>2016-06-07T11:45:22Z</time>
      </trkpt>
      <trkpt lat="42.473947" lon="0.495545">
        <ele>1331.1</ele>
        <time>2016-06-07T11:45:28Z</time>
      </trkpt>
      <trkpt lat="42.474048" lon="0.495411">
        <ele>1329.6</ele>
        <time>2016-06-07T11:45:32Z</time>
      </trkpt>
      <trkpt lat="42.474433" lon="0.495278">
        <ele>1327.2</ele>
        <time>2016-06-07T11:45:39Z</time>
      </trkpt>
      <trkpt lat="42.474616" lon="0.495085">
        <ele>1326.3</ele>
        <time>2016-06-07T11:45:43Z</time>
      </trkpt>
      <trkpt lat="42.474695" lon="0.494989">
        <ele>1325.8</ele>
        <time>2016-06-07T11:45:45Z</time>
      </trkpt>
      <trkpt lat="42.474819" lon="0.494846">
        <ele>1324.4</ele>
        <time>2016-06-07T11:45:48Z</time>
      </trkpt>
      <trkpt lat="42.474956" lon="0.494695">
        <ele>1323.4</ele>
        <time>2016-06-07T11:45:51Z</time>
      </trkpt>
      <trkpt lat="42.475033" lon="0.494577">
        <ele>1322.4</ele>
        <time>2016-06-07T11:45:53Z</time>
      </trkpt>
      <trkpt lat="42.475273" lon="0.494432">
        <ele>1320.0</ele>
        <time>2016-06-07T11:46:00Z</time>
      </trkpt>
      <trkpt lat="42.475375" lon="0.494459">
        <ele>1319.6</ele>
        <time>2016-06-07T11:46:02Z</time>
      </trkpt>
      <trkpt lat="42.475472" lon="0.494497">
        <ele>1319.6</ele>
        <time>2016-06-07T11:46:04Z</time>
      </trkpt>
      <trkpt lat="42.475681" lon="0.494674">
        <ele>1319.6</ele>
        <time>2016-06-07T11:46:10Z</time>
      </trkpt>
      <trkpt lat="42.475899" lon="0.494781">
        <ele>1318.1</ele>
        <time>2016-06-07T11:46:15Z</time>
      </trkpt>
      <trkpt lat="42.475996" lon="0.494825">
        <ele>1317.6</ele>
        <time>2016-06-07T11:46:17Z</time>
      </trkpt>
      <trkpt lat="42.476209" lon="0.494818">
        <ele>1315.2</ele>
        <time>2016-06-07T11:46:21Z</time>
      </trkpt>
      <trkpt lat="42.476263" lon="0.494784">
        <ele>1314.3</ele>
        <time>2016-06-07T11:46:22Z</time>
      </trkpt>
      <trkpt lat="42.476647" lon="0.494588">
        <ele>1313.3</ele>
        <time>2016-06-07T11:46:29Z</time>
      </trkpt>
      <trkpt lat="42.477151" lon="0.494335">
        <ele>1313.3</ele>
        <time>2016-06-07T11:46:42Z</time>
      </trkpt>
      <trkpt lat="42.477334" lon="0.494254">
        <ele>1312.3</ele>
        <time>2016-06-07T11:46:47Z</time>
      </trkpt>
      <trkpt lat="42.477439" lon="0.494012">
        <ele>1311.4</ele>
        <time>2016-06-07T11:46:52Z</time>
      </trkpt>
      <trkpt lat="42.477578" lon="0.493637">
        <ele>1310.4</ele>
        <time>2016-06-07T11:47:01Z</time>
      </trkpt>
      <trkpt lat="42.477813" lon="0.493591">
        <ele>1311.9</ele>
        <time>2016-06-07T11:47:16Z</time>
      </trkpt>
      <trkpt lat="42.478060" lon="0.493326">
        <ele>1312.8</ele>
        <time>2016-06-07T11:47:29Z</time>
      </trkpt>
      <trkpt lat="42.478175" lon="0.493175">
        <ele>1312.8</ele>
        <time>2016-06-07T11:47:33Z</time>
      </trkpt>
      <trkpt lat="42.478264" lon="0.492907">
        <ele>1309.5</ele>
        <time>2016-06-07T11:47:37Z</time>
      </trkpt>
      <trkpt lat="42.478284" lon="0.492520">
        <ele>1308.5</ele>
        <time>2016-06-07T11:47:43Z</time>
      </trkpt>
      <trkpt lat="42.478538" lon="0.492002">
        <ele>1307.5</ele>
        <time>2016-06-07T11:47:55Z</time>
      </trkpt>
      <trkpt lat="42.478604" lon="0.491864">
        <ele>1307.5</ele>
        <time>2016-06-07T11:47:59Z</time>
      </trkpt>
      <trkpt lat="42.478636" lon="0.491481">
        <ele>1303.2</ele>
        <time>2016-06-07T11:48:06Z</time>
      </trkpt>
      <trkpt lat="42.478563" lon="0.491391">
        <ele>1301.3</ele>
        <time>2016-06-07T11:48:08Z</time>
      </trkpt>
      <trkpt lat="42.478272" lon="0.491111">
        <ele>1299.8</ele>
        <time>2016-06-07T11:48:19Z</time>
      </trkpt>
      <trkpt lat="42.478131" lon="0.490852">
        <ele>1301.3</ele>
        <time>2016-06-07T11:48:31Z</time>
      </trkpt>
      <trkpt lat="42.478013" lon="0.490660">
        <ele>1302.7</ele>
        <time>2016-06-07T11:48:41Z</time>
      </trkpt>
      <trkpt lat="42.478078" lon="0.490499">
        <ele>1304.2</ele>
        <time>2016-06-07T11:48:51Z</time>
      </trkpt>
      <trkpt lat="42.478139" lon="0.490274">
        <ele>1307.5</ele>
        <time>2016-06-07T11:49:05Z</time>
      </trkpt>
      <trkpt lat="42.478113" lon="0.490101">
        <ele>1309.5</ele>
        <time>2016-06-07T11:49:14Z</time>
      </trkpt>
      <trkpt lat="42.478150" lon="0.490020">
        <ele>1309.5</ele>
        <time>2016-06-07T11:49:18Z</time>
      </trkpt>
      <trkpt lat="42.478353" lon="0.490172">
        <ele>1309.0</ele>
        <time>2016-06-07T11:49:32Z</time>
      </trkpt>
      <trkpt lat="42.478579" lon="0.490483">
        <ele>1310.4</ele>
        <time>2016-06-07T11:49:52Z</time>
      </trkpt>
      <trkpt lat="42.478818" lon="0.490582">
        <ele>1313.3</ele>
        <time>2016-06-07T11:50:08Z</time>
      </trkpt>
      <trkpt lat="42.479059" lon="0.490637">
        <ele>1314.7</ele>
        <time>2016-06-07T11:50:23Z</time>
      </trkpt>
      <trkpt lat="42.479303" lon="0.490750">
        <ele>1316.2</ele>
        <time>2016-06-07T11:50:37Z</time>
      </trkpt>
      <trkpt lat="42.479397" lon="0.490732">
        <ele>1316.2</ele>
        <time>2016-06-07T11:50:41Z</time>
      </trkpt>
      <trkpt lat="42.479427" lon="0.490297">
        <ele>1311.4</ele>
        <time>2016-06-07T11:50:48Z</time>
      </trkpt>
      <trkpt lat="42.479325" lon="0.489973">
        <ele>1307.5</ele>
        <time>2016-06-07T11:50:53Z</time>
      </trkpt>
      <trkpt lat="42.479447" lon="0.489929">
        <ele>1304.7</ele>
        <time>2016-06-07T11:50:59Z</time>
      </trkpt>
      <trkpt lat="42.479582" lon="0.490208">
        <ele>1302.2</ele>
        <time>2016-06-07T11:51:04Z</time>
      </trkpt>
      <trkpt lat="42.479679" lon="0.490311">
        <ele>1301.3</ele>
        <time>2016-06-07T11:51:06Z</time>
      </trkpt>
      <trkpt lat="42.479886" lon="0.490700">
        <ele>1297.0</ele>
        <time>2016-06-07T11:51:11Z</time>
      </trkpt>
      <trkpt lat="42.479973" lon="0.490890">
        <ele>1294.1</ele>
        <time>2016-06-07T11:51:14Z</time>
      </trkpt>
      <trkpt lat="42.480156" lon="0.490764">
        <ele>1289.8</ele>
        <time>2016-06-07T11:51:21Z</time>
      </trkpt>
      <trkpt lat="42.480130" lon="0.490543">
        <ele>1286.9</ele>
        <time>2016-06-07T11:51:24Z</time>
      </trkpt>
      <trkpt lat="42.480065" lon="0.490249">
        <ele>1284.0</ele>
        <time>2016-06-07T11:51:28Z</time>
      </trkpt>
      <trkpt lat="42.480015" lon="0.489859">
        <ele>1280.1</ele>
        <time>2016-06-07T11:51:34Z</time>
      </trkpt>
      <trkpt lat="42.479827" lon="0.489147">
        <ele>1279.7</ele>
        <time>2016-06-07T11:51:45Z</time>
      </trkpt>
      <trkpt lat="42.479649" lon="0.488841">
        <ele>1279.2</ele>
        <time>2016-06-07T11:51:56Z</time>
      </trkpt>
      <trkpt lat="42.479457" lon="0.488546">
        <ele>1281.6</ele>
        <time>2016-06-07T11:52:10Z</time>
      </trkpt>
      <trkpt lat="42.479361" lon="0.488462">
        <ele>1283.0</ele>
        <time>2016-06-07T11:52:16Z</time>
      </trkpt>
      <trkpt lat="42.479422" lon="0.488230">
        <ele>1283.5</ele>
        <time>2016-06-07T11:52:26Z</time>
      </trkpt>
      <trkpt lat="42.479599" lon="0.488214">
        <ele>1281.6</ele>
        <time>2016-06-07T11:52:31Z</time>
      </trkpt>
      <trkpt lat="42.479676" lon="0.488196">
        <ele>1280.1</ele>
        <time>2016-06-07T11:52:33Z</time>
      </trkpt>
      <trkpt lat="42.479788" lon="0.488188">
        <ele>1279.7</ele>
        <time>2016-06-07T11:52:36Z</time>
      </trkpt>
      <trkpt lat="42.479996" lon="0.488162">
        <ele>1278.7</ele>
        <time>2016-06-07T11:52:41Z</time>
      </trkpt>
      <trkpt lat="42.480230" lon="0.488177">
        <ele>1276.3</ele>
        <time>2016-06-07T11:52:46Z</time>
      </trkpt>
      <trkpt lat="42.480417" lon="0.488205">
        <ele>1275.8</ele>
        <time>2016-06-07T11:52:50Z</time>
      </trkpt>
      <trkpt lat="42.480565" lon="0.488172">
        <ele>1273.9</ele>
        <time>2016-06-07T11:52:53Z</time>
      </trkpt>
      <trkpt lat="42.480663" lon="0.488151">
        <ele>1273.4</ele>
        <time>2016-06-07T11:52:55Z</time>
      </trkpt>
      <trkpt lat="42.480906" lon="0.487919">
        <ele>1271.5</ele>
        <time>2016-06-07T11:53:02Z</time>
      </trkpt>
      <trkpt lat="42.481068" lon="0.487568">
        <ele>1268.6</ele>
        <time>2016-06-07T11:53:08Z</time>
      </trkpt>
      <trkpt lat="42.481090" lon="0.487510">
        <ele>1268.1</ele>
        <time>2016-06-07T11:53:09Z</time>
      </trkpt>
      <trkpt lat="42.481266" lon="0.487212">
        <ele>1267.2</ele>
        <time>2016-06-07T11:53:15Z</time>
      </trkpt>
      <trkpt lat="42.481293" lon="0.487088">
        <ele>1267.2</ele>
        <time>2016-06-07T11:53:17Z</time>
      </trkpt>
      <trkpt lat="42.481546" lon="0.486794">
        <ele>1266.2</ele>
        <time>2016-06-07T11:53:25Z</time>
      </trkpt>
      <trkpt lat="42.481720" lon="0.486598">
        <ele>1267.6</ele>
        <time>2016-06-07T11:53:35Z</time>
      </trkpt>
      <trkpt lat="42.481774" lon="0.486199">
        <ele>1267.6</ele>
        <time>2016-06-07T11:53:46Z</time>
      </trkpt>
      <trkpt lat="42.481806" lon="0.485891">
        <ele>1269.6</ele>
        <time>2016-06-07T11:53:59Z</time>
      </trkpt>
      <trkpt lat="42.482017" lon="0.485711">
        <ele>1271.0</ele>
        <time>2016-06-07T11:54:12Z</time>
      </trkpt>
      <trkpt lat="42.482139" lon="0.485659">
        <ele>1271.0</ele>
        <time>2016-06-07T11:54:17Z</time>
      </trkpt>
      <trkpt lat="42.482221" lon="0.485654">
        <ele>1271.0</ele>
        <time>2016-06-07T11:54:22Z</time>
      </trkpt>
      <trkpt lat="42.482411" lon="0.485586">
        <ele>1272.4</ele>
        <time>2016-06-07T11:54:33Z</time>
      </trkpt>
      <trkpt lat="42.482470" lon="0.485565">
        <ele>1272.4</ele>
        <time>2016-06-07T11:54:37Z</time>
      </trkpt>
      <trkpt lat="42.482673" lon="0.485397">
        <ele>1273.9</ele>
        <time>2016-06-07T11:54:50Z</time>
      </trkpt>
      <trkpt lat="42.482827" lon="0.485063">
        <ele>1273.9</ele>
        <time>2016-06-07T11:55:00Z</time>
      </trkpt>
      <trkpt lat="42.482882" lon="0.484959">
        <ele>1272.9</ele>
        <time>2016-06-07T11:55:03Z</time>
      </trkpt>
      <trkpt lat="42.482993" lon="0.484563">
        <ele>1272.9</ele>
        <time>2016-06-07T11:55:13Z</time>
      </trkpt>
      <trkpt lat="42.482888" lon="0.484254">
        <ele>1271.0</ele>
        <time>2016-06-07T11:55:19Z</time>
      </trkpt>
      <trkpt lat="42.482828" lon="0.484069">
        <ele>1270.0</ele>
        <time>2016-06-07T11:55:22Z</time>
      </trkpt>
      <trkpt lat="42.482797" lon="0.483597">
        <ele>1268.1</ele>
        <time>2016-06-07T11:55:29Z</time>
      </trkpt>
      <trkpt lat="42.482746" lon="0.483475">
        <ele>1267.2</ele>
        <time>2016-06-07T11:55:31Z</time>
      </trkpt>
      <trkpt lat="42.482838" lon="0.483160">
        <ele>1266.7</ele>
        <time>2016-06-07T11:55:39Z</time>
      </trkpt>
      <trkpt lat="42.483016" lon="0.482915">
        <ele>1267.2</ele>
        <time>2016-06-07T11:55:48Z</time>
      </trkpt>
      <trkpt lat="42.483064" lon="0.482872">
        <ele>1268.6</ele>
        <time>2016-06-07T11:55:51Z</time>
      </trkpt>
      <trkpt lat="42.483292" lon="0.482806">
        <ele>1271.0</ele>
        <time>2016-06-07T11:56:05Z</time>
      </trkpt>
      <trkpt lat="42.483514" lon="0.482761">
        <ele>1272.9</ele>
        <time>2016-06-07T11:56:20Z</time>
      </trkpt>
      <trkpt lat="42.483732" lon="0.482634">
        <ele>1275.8</ele>
        <time>2016-06-07T11:56:37Z</time>
      </trkpt>
      <trkpt lat="42.483823" lon="0.482423">
        <ele>1279.2</ele>
        <time>2016-06-07T11:56:54Z</time>
      </trkpt>
      <trkpt lat="42.483713" lon="0.482202">
        <ele>1280.6</ele>
        <time>2016-06-07T11:57:11Z</time>
      </trkpt>
      <trkpt lat="42.483638" lon="0.481912">
        <ele>1282.5</ele>
        <time>2016-06-07T11:57:25Z</time>
      </trkpt>
      <trkpt lat="42.483745" lon="0.481714">
        <ele>1281.1</ele>
        <time>2016-06-07T11:57:33Z</time>
      </trkpt>
      <trkpt lat="42.483815" lon="0.481424">
        <ele>1280.6</ele>
        <time>2016-06-07T11:57:39Z</time>
      </trkpt>
      <trkpt lat="42.483912" lon="0.481037">
        <ele>1280.1</ele>
        <time>2016-06-07T11:57:51Z</time>
      </trkpt>
      <trkpt lat="42.484079" lon="0.480790">
        <ele>1280.1</ele>
        <time>2016-06-07T11:58:00Z</time>
      </trkpt>
      <trkpt lat="42.484025" lon="0.480404">
        <ele>1278.2</ele>
        <time>2016-06-07T11:58:07Z</time>
      </trkpt>
      <trkpt lat="42.483945" lon="0.480319">
        <ele>1278.2</ele>
        <time>2016-06-07T11:58:09Z</time>
      </trkpt>
      <trkpt lat="42.483847" lon="0.480186">
        <ele>1277.7</ele>
        <time>2016-06-07T11:58:12Z</time>
      </trkpt>
      <trkpt lat="42.483792" lon="0.480097">
        <ele>1277.7</ele>
        <time>2016-06-07T11:58:14Z</time>
      </trkpt>
      <trkpt lat="42.483729" lon="0.479863">
        <ele>1277.3</ele>
        <time>2016-06-07T11:58:18Z</time>
      </trkpt>
      <trkpt lat="42.483849" lon="0.479683">
        <ele>1276.8</ele>
        <time>2016-06-07T11:58:23Z</time>
      </trkpt>
      <trkpt lat="42.484172" lon="0.479476">
        <ele>1276.3</ele>
        <time>2016-06-07T11:58:34Z</time>
      </trkpt>
      <trkpt lat="42.484273" lon="0.479349">
        <ele>1277.3</ele>
        <time>2016-06-07T11:58:39Z</time>
      </trkpt>
      <trkpt lat="42.484281" lon="0.479123">
        <ele>1275.8</ele>
        <time>2016-06-07T11:58:43Z</time>
      </trkpt>
      <trkpt lat="42.484286" lon="0.478961">
        <ele>1275.3</ele>
        <time>2016-06-07T11:58:46Z</time>
      </trkpt>
      <trkpt lat="42.484322" lon="0.478762">
        <ele>1275.3</ele>
        <time>2016-06-07T11:58:51Z</time>
      </trkpt>
      <trkpt lat="42.484483" lon="0.478685">
        <ele>1275.3</ele>
        <time>2016-06-07T11:58:57Z</time>
      </trkpt>
      <trkpt lat="42.484707" lon="0.478683">
        <ele>1276.8</ele>
        <time>2016-06-07T11:59:08Z</time>
      </trkpt>
      <trkpt lat="42.484890" lon="0.478614">
        <ele>1279.2</ele>
        <time>2016-06-07T11:59:21Z</time>
      </trkpt>
      <trkpt lat="42.484982" lon="0.478602">
        <ele>1280.6</ele>
        <time>2016-06-07T11:59:29Z</time>
      </trkpt>
      <trkpt lat="42.485033" lon="0.478583">
        <ele>1281.1</ele>
        <time>2016-06-07T11:59:33Z</time>
      </trkpt>
      <trkpt lat="42.485249" lon="0.478412">
        <ele>1283.0</ele>
        <time>2016-06-07T11:59:51Z</time>
      </trkpt>
      <trkpt lat="42.485378" lon="0.478233">
        <ele>1284.5</ele>
        <time>2016-06-07T12:00:04Z</time>
      </trkpt>
      <trkpt lat="42.485514" lon="0.478087">
        <ele>1286.9</ele>
        <time>2016-06-07T12:00:18Z</time>
      </trkpt>
      <trkpt lat="42.485612" lon="0.478018">
        <ele>1288.3</ele>
        <time>2016-06-07T12:00:26Z</time>
      </trkpt>
      <trkpt lat="42.485750" lon="0.477943">
        <ele>1290.7</ele>
        <time>2016-06-07T12:00:38Z</time>
      </trkpt>
      <trkpt lat="42.485829" lon="0.477945">
        <ele>1292.6</ele>
        <time>2016-06-07T12:00:44Z</time>
      </trkpt>
      <trkpt lat="42.486161" lon="0.477955">
        <ele>1293.1</ele>
        <time>2016-06-07T12:01:01Z</time>
      </trkpt>
      <trkpt lat="42.486248" lon="0.477944">
        <ele>1291.2</ele>
        <time>2016-06-07T12:01:03Z</time>
      </trkpt>
      <trkpt lat="42.486402" lon="0.477956">
        <ele>1289.8</ele>
        <time>2016-06-07T12:01:06Z</time>
      </trkpt>
      <trkpt lat="42.486685" lon="0.477959">
        <ele>1286.4</ele>
        <time>2016-06-07T12:01:11Z</time>
      </trkpt>
      <trkpt lat="42.486734" lon="0.477959">
        <ele>1286.4</ele>
        <time>2016-06-07T12:01:12Z</time>
      </trkpt>
      <trkpt lat="42.486797" lon="0.477961">
        <ele>1285.9</ele>
        <time>2016-06-07T12:01:14Z</time>
      </trkpt>
      <trkpt lat="42.486885" lon="0.477781">
        <ele>1285.9</ele>
        <time>2016-06-07T12:01:26Z</time>
      </trkpt>
      <trkpt lat="42.486658" lon="0.477457">
        <ele>1287.3</ele>
        <time>2016-06-07T12:01:45Z</time>
      </trkpt>
      <trkpt lat="42.486417" lon="0.477277">
        <ele>1288.8</ele>
        <time>2016-06-07T12:01:59Z</time>
      </trkpt>
      <trkpt lat="42.486111" lon="0.477352">
        <ele>1289.3</ele>
        <time>2016-06-07T12:02:11Z</time>
      </trkpt>
      <trkpt lat="42.485856" lon="0.477573">
        <ele>1286.9</ele>
        <time>2016-06-07T12:02:18Z</time>
      </trkpt>
      <trkpt lat="42.485660" lon="0.477505">
        <ele>1285.4</ele>
        <time>2016-06-07T12:02:27Z</time>
      </trkpt>
      <trkpt lat="42.485613" lon="0.477464">
        <ele>1285.4</ele>
        <time>2016-06-07T12:02:29Z</time>
      </trkpt>
      <trkpt lat="42.485532" lon="0.477307">
        <ele>1284.9</ele>
        <time>2016-06-07T12:02:34Z</time>
      </trkpt>
      <trkpt lat="42.485522" lon="0.477050">
        <ele>1284.5</ele>
        <time>2016-06-07T12:02:40Z</time>
      </trkpt>
      <trkpt lat="42.485468" lon="0.476685">
        <ele>1282.5</ele>
        <time>2016-06-07T12:02:48Z</time>
      </trkpt>
      <trkpt lat="42.485518" lon="0.476620">
        <ele>1282.1</ele>
        <time>2016-06-07T12:02:50Z</time>
      </trkpt>
      <trkpt lat="42.485558" lon="0.476536">
        <ele>1281.1</ele>
        <time>2016-06-07T12:02:52Z</time>
      </trkpt>
      <trkpt lat="42.485587" lon="0.476422">
        <ele>1279.7</ele>
        <time>2016-06-07T12:02:54Z</time>
      </trkpt>
      <trkpt lat="42.485524" lon="0.476004">
        <ele>1276.3</ele>
        <time>2016-06-07T12:03:01Z</time>
      </trkpt>
      <trkpt lat="42.485342" lon="0.475716">
        <ele>1272.9</ele>
        <time>2016-06-07T12:03:08Z</time>
      </trkpt>
      <trkpt lat="42.485256" lon="0.475628">
        <ele>1270.5</ele>
        <time>2016-06-07T12:03:11Z</time>
      </trkpt>
      <trkpt lat="42.485170" lon="0.475508">
        <ele>1269.1</ele>
        <time>2016-06-07T12:03:14Z</time>
      </trkpt>
      <trkpt lat="42.485020" lon="0.475363">
        <ele>1266.7</ele>
        <time>2016-06-07T12:03:18Z</time>
      </trkpt>
      <trkpt lat="42.484931" lon="0.475298">
        <ele>1265.7</ele>
        <time>2016-06-07T12:03:20Z</time>
      </trkpt>
      <trkpt lat="42.484750" lon="0.475245">
        <ele>1264.3</ele>
        <time>2016-06-07T12:03:24Z</time>
      </trkpt>
      <trkpt lat="42.484318" lon="0.475181">
        <ele>1261.4</ele>
        <time>2016-06-07T12:03:33Z</time>
      </trkpt>
      <trkpt lat="42.484332" lon="0.475067">
        <ele>1261.4</ele>
        <time>2016-06-07T12:03:36Z</time>
      </trkpt>
      <trkpt lat="42.484498" lon="0.474788">
        <ele>1262.8</ele>
        <time>2016-06-07T12:03:48Z</time>
      </trkpt>
      <trkpt lat="42.484536" lon="0.474344">
        <ele>1262.4</ele>
        <time>2016-06-07T12:04:02Z</time>
      </trkpt>
      <trkpt lat="42.484473" lon="0.474283">
        <ele>1261.9</ele>
        <time>2016-06-07T12:04:04Z</time>
      </trkpt>
      <trkpt lat="42.484329" lon="0.474214">
        <ele>1260.4</ele>
        <time>2016-06-07T12:04:07Z</time>
      </trkpt>
      <trkpt lat="42.484231" lon="0.474160">
        <ele>1260.4</ele>
        <time>2016-06-07T12:04:09Z</time>
      </trkpt>
      <trkpt lat="42.484100" lon="0.473972">
        <ele>1259.9</ele>
        <time>2016-06-07T12:04:17Z</time>
      </trkpt>
      <trkpt lat="42.484131" lon="0.473913">
        <ele>1261.4</ele>
        <time>2016-06-07T12:04:20Z</time>
      </trkpt>
      <trkpt lat="42.484276" lon="0.473769">
        <ele>1262.8</ele>
        <time>2016-06-07T12:04:32Z</time>
      </trkpt>
      <trkpt lat="42.484419" lon="0.473576">
        <ele>1265.2</ele>
        <time>2016-06-07T12:04:47Z</time>
      </trkpt>
      <trkpt lat="42.484534" lon="0.473435">
        <ele>1268.1</ele>
        <time>2016-06-07T12:04:59Z</time>
      </trkpt>
      <trkpt lat="42.484543" lon="0.473286">
        <ele>1268.1</ele>
        <time>2016-06-07T12:05:06Z</time>
      </trkpt>
      <trkpt lat="42.484439" lon="0.473251">
        <ele>1265.7</ele>
        <time>2016-06-07T12:05:10Z</time>
      </trkpt>
      <trkpt lat="42.484322" lon="0.473202">
        <ele>1263.8</ele>
        <time>2016-06-07T12:05:13Z</time>
      </trkpt>
      <trkpt lat="42.484208" lon="0.473136">
        <ele>1262.8</ele>
        <time>2016-06-07T12:05:16Z</time>
      </trkpt>
      <trkpt lat="42.484066" lon="0.472852">
        <ele>1259.5</ele>
        <time>2016-06-07T12:05:25Z</time>
      </trkpt>
      <trkpt lat="42.484207" lon="0.472564">
        <ele>1259.5</ele>
        <time>2016-06-07T12:05:37Z</time>
      </trkpt>
      <trkpt lat="42.484274" lon="0.472391">
        <ele>1259.5</ele>
        <time>2016-06-07T12:05:43Z</time>
      </trkpt>
      <trkpt lat="42.484290" lon="0.472262">
        <ele>1260.4</ele>
        <time>2016-06-07T12:05:48Z</time>
      </trkpt>
      <trkpt lat="42.484335" lon="0.472155">
        <ele>1260.9</ele>
        <time>2016-06-07T12:05:54Z</time>
      </trkpt>
      <trkpt lat="42.484424" lon="0.472057">
        <ele>1262.4</ele>
        <time>2016-06-07T12:06:02Z</time>
      </trkpt>
      <trkpt lat="42.484525" lon="0.471928">
        <ele>1263.3</ele>
        <time>2016-06-07T12:06:11Z</time>
      </trkpt>
      <trkpt lat="42.484564" lon="0.471801">
        <ele>1263.3</ele>
        <time>2016-06-07T12:06:17Z</time>
      </trkpt>
      <trkpt lat="42.484628" lon="0.471516">
        <ele>1264.8</ele>
        <time>2016-06-07T12:06:30Z</time>
      </trkpt>
      <trkpt lat="42.484676" lon="0.471377">
        <ele>1264.8</ele>
        <time>2016-06-07T12:06:37Z</time>
      </trkpt>
      <trkpt lat="42.484827" lon="0.471160">
        <ele>1267.6</ele>
        <time>2016-06-07T12:06:52Z</time>
      </trkpt>
      <trkpt lat="42.485082" lon="0.470981">
        <ele>1269.1</ele>
        <time>2016-06-07T12:07:09Z</time>
      </trkpt>
      <trkpt lat="42.485308" lon="0.470810">
        <ele>1269.6</ele>
        <time>2016-06-07T12:07:23Z</time>
      </trkpt>
      <trkpt lat="42.485450" lon="0.470479">
        <ele>1270.0</ele>
        <time>2016-06-07T12:07:36Z</time>
      </trkpt>
      <trkpt lat="42.485437" lon="0.470291">
        <ele>1267.6</ele>
        <time>2016-06-07T12:07:40Z</time>
      </trkpt>
      <trkpt lat="42.485459" lon="0.469997">
        <ele>1264.3</ele>
        <time>2016-06-07T12:07:45Z</time>
      </trkpt>
      <trkpt lat="42.485510" lon="0.469720">
        <ele>1261.4</ele>
        <time>2016-06-07T12:07:50Z</time>
      </trkpt>
      <trkpt lat="42.485614" lon="0.469436">
        <ele>1257.1</ele>
        <time>2016-06-07T12:07:56Z</time>
      </trkpt>
      <trkpt lat="42.485667" lon="0.469358">
        <ele>1255.6</ele>
        <time>2016-06-07T12:07:58Z</time>
      </trkpt>
      <trkpt lat="42.485838" lon="0.469072">
        <ele>1251.8</ele>
        <time>2016-06-07T12:08:04Z</time>
      </trkpt>
      <trkpt lat="42.485846" lon="0.469007">
        <ele>1251.3</ele>
        <time>2016-06-07T12:08:05Z</time>
      </trkpt>
      <trkpt lat="42.485846" lon="0.468811">
        <ele>1248.9</ele>
        <time>2016-06-07T12:08:08Z</time>
      </trkpt>
      <trkpt lat="42.485650" lon="0.468618">
        <ele>1247.5</ele>
        <time>2016-06-07T12:08:14Z</time>
      </trkpt>
      <trkpt lat="42.485511" lon="0.468665">
        <ele>1247.0</ele>
        <time>2016-06-07T12:08:17Z</time>
      </trkpt>
      <trkpt lat="42.485254" lon="0.468833">
        <ele>1245.0</ele>
        <time>2016-06-07T12:08:23Z</time>
      </trkpt>
      <trkpt lat="42.485119" lon="0.468921">
        <ele>1243.1</ele>
        <time>2016-06-07T12:08:26Z</time>
      </trkpt>
      <trkpt lat="42.485073" lon="0.468954">
        <ele>1243.1</ele>
        <time>2016-06-07T12:08:27Z</time>
      </trkpt>
      <trkpt lat="42.484864" lon="0.469014">
        <ele>1242.2</ele>
        <time>2016-06-07T12:08:31Z</time>
      </trkpt>
      <trkpt lat="42.484649" lon="0.468911">
        <ele>1241.2</ele>
        <time>2016-06-07T12:08:36Z</time>
      </trkpt>
      <trkpt lat="42.484359" lon="0.468636">
        <ele>1239.8</ele>
        <time>2016-06-07T12:08:47Z</time>
      </trkpt>
      <trkpt lat="42.484207" lon="0.468652">
        <ele>1238.8</ele>
        <time>2016-06-07T12:09:29Z</time>
      </trkpt>
      <trkpt lat="42.483921" lon="0.468752">
        <ele>1238.8</ele>
        <time>2016-06-07T12:09:41Z</time>
      </trkpt>
      <trkpt lat="42.483759" lon="0.468441">
        <ele>1238.3</ele>
        <time>2016-06-07T12:09:52Z</time>
      </trkpt>
      <trkpt lat="42.483638" lon="0.467993">
        <ele>1236.9</ele>
        <time>2016-06-07T12:10:04Z</time>
      </trkpt>
      <trkpt lat="42.483364" lon="0.467981">
        <ele>1234.5</ele>
        <time>2016-06-07T12:10:12Z</time>
      </trkpt>
      <trkpt lat="42.483031" lon="0.468097">
        <ele>1232.1</ele>
        <time>2016-06-07T12:10:22Z</time>
      </trkpt>
      <trkpt lat="42.482880" lon="0.468334">
        <ele>1232.1</ele>
        <time>2016-06-07T12:10:34Z</time>
      </trkpt>
      <trkpt lat="42.482714" lon="0.468431">
        <ele>1228.2</ele>
        <time>2016-06-07T12:10:40Z</time>
      </trkpt>
      <trkpt lat="42.482569" lon="0.468471">
        <ele>1226.8</ele>
        <time>2016-06-07T12:10:44Z</time>
      </trkpt>
      <trkpt lat="42.482383" lon="0.468498">
        <ele>1225.8</ele>
        <time>2016-06-07T12:10:48Z</time>
      </trkpt>
      <trkpt lat="42.482278" lon="0.468515">
        <ele>1224.9</ele>
        <time>2016-06-07T12:10:51Z</time>
      </trkpt>
      <trkpt lat="42.482181" lon="0.468606">
        <ele>1222.9</ele>
        <time>2016-06-07T12:10:55Z</time>
      </trkpt>
      <trkpt lat="42.482129" lon="0.468647">
        <ele>1222.0</ele>
        <time>2016-06-07T12:10:57Z</time>
      </trkpt>
      <trkpt lat="42.482000" lon="0.468675">
        <ele>1220.1</ele>
        <time>2016-06-07T12:11:00Z</time>
      </trkpt>
      <trkpt lat="42.481790" lon="0.468548">
        <ele>1219.1</ele>
        <time>2016-06-07T12:11:07Z</time>
      </trkpt>
      <trkpt lat="42.481632" lon="0.468232">
        <ele>1219.6</ele>
        <time>2016-06-07T12:11:22Z</time>
      </trkpt>
      <trkpt lat="42.481709" lon="0.467940">
        <ele>1221.0</ele>
        <time>2016-06-07T12:11:34Z</time>
      </trkpt>
      <trkpt lat="42.481793" lon="0.467676">
        <ele>1222.5</ele>
        <time>2016-06-07T12:11:48Z</time>
      </trkpt>
      <trkpt lat="42.481884" lon="0.467354">
        <ele>1224.9</ele>
        <time>2016-06-07T12:12:04Z</time>
      </trkpt>
      <trkpt lat="42.481961" lon="0.466989">
        <ele>1224.9</ele>
        <time>2016-06-07T12:12:15Z</time>
      </trkpt>
      <trkpt lat="42.481943" lon="0.466853">
        <ele>1223.4</ele>
        <time>2016-06-07T12:12:18Z</time>
      </trkpt>
      <trkpt lat="42.481779" lon="0.466754">
        <ele>1220.5</ele>
        <time>2016-06-07T12:12:23Z</time>
      </trkpt>
      <trkpt lat="42.481614" lon="0.466737">
        <ele>1219.1</ele>
        <time>2016-06-07T12:12:26Z</time>
      </trkpt>
      <trkpt lat="42.481424" lon="0.466556">
        <ele>1218.6</ele>
        <time>2016-06-07T12:12:33Z</time>
      </trkpt>
      <trkpt lat="42.481467" lon="0.466480">
        <ele>1218.6</ele>
        <time>2016-06-07T12:12:36Z</time>
      </trkpt>
      <trkpt lat="42.481647" lon="0.466100">
        <ele>1218.6</ele>
        <time>2016-06-07T12:12:49Z</time>
      </trkpt>
      <trkpt lat="42.481654" lon="0.466001">
        <ele>1218.6</ele>
        <time>2016-06-07T12:12:51Z</time>
      </trkpt>
      <trkpt lat="42.481649" lon="0.465834">
        <ele>1216.7</ele>
        <time>2016-06-07T12:12:54Z</time>
      </trkpt>
      <trkpt lat="42.481628" lon="0.465658">
        <ele>1215.7</ele>
        <time>2016-06-07T12:12:57Z</time>
      </trkpt>
      <trkpt lat="42.481621" lon="0.465531">
        <ele>1214.3</ele>
        <time>2016-06-07T12:12:59Z</time>
      </trkpt>
      <trkpt lat="42.481617" lon="0.465302">
        <ele>1211.4</ele>
        <time>2016-06-07T12:13:03Z</time>
      </trkpt>
      <trkpt lat="42.481588" lon="0.465201">
        <ele>1210.4</ele>
        <time>2016-06-07T12:13:05Z</time>
      </trkpt>
      <trkpt lat="42.481524" lon="0.465117">
        <ele>1209.5</ele>
        <time>2016-06-07T12:13:07Z</time>
      </trkpt>
      <trkpt lat="42.481284" lon="0.464885">
        <ele>1204.7</ele>
        <time>2016-06-07T12:13:13Z</time>
      </trkpt>
      <trkpt lat="42.481232" lon="0.464794">
        <ele>1203.7</ele>
        <time>2016-06-07T12:13:15Z</time>
      </trkpt>
      <trkpt lat="42.481248" lon="0.464698">
        <ele>1203.7</ele>
        <time>2016-06-07T12:13:17Z</time>
      </trkpt>
      <trkpt lat="42.481199" lon="0.464483">
        <ele>1202.3</ele>
        <time>2016-06-07T12:13:22Z</time>
      </trkpt>
      <trkpt lat="42.481175" lon="0.464150">
        <ele>1202.3</ele>
        <time>2016-06-07T12:13:30Z</time>
      </trkpt>
      <trkpt lat="42.481218" lon="0.464111">
        <ele>1202.3</ele>
        <time>2016-06-07T12:13:32Z</time>
      </trkpt>
      <trkpt lat="42.481528" lon="0.463858">
        <ele>1203.2</ele>
        <time>2016-06-07T12:13:46Z</time>
      </trkpt>
      <trkpt lat="42.481782" lon="0.463649">
        <ele>1204.7</ele>
        <time>2016-06-07T12:13:59Z</time>
      </trkpt>
      <trkpt lat="42.481997" lon="0.463424">
        <ele>1205.2</ele>
        <time>2016-06-07T12:14:08Z</time>
      </trkpt>
      <trkpt lat="42.482100" lon="0.463244">
        <ele>1202.8</ele>
        <time>2016-06-07T12:14:12Z</time>
      </trkpt>
      <trkpt lat="42.482305" lon="0.462920">
        <ele>1198.9</ele>
        <time>2016-06-07T12:14:18Z</time>
      </trkpt>
      <trkpt lat="42.482363" lon="0.462799">
        <ele>1197.0</ele>
        <time>2016-06-07T12:14:20Z</time>
      </trkpt>
      <trkpt lat="42.482406" lon="0.462682">
        <ele>1196.0</ele>
        <time>2016-06-07T12:14:22Z</time>
      </trkpt>
      <trkpt lat="42.482457" lon="0.462502">
        <ele>1193.6</ele>
        <time>2016-06-07T12:14:25Z</time>
      </trkpt>
      <trkpt lat="42.482472" lon="0.462382">
        <ele>1193.1</ele>
        <time>2016-06-07T12:14:27Z</time>
      </trkpt>
      <trkpt lat="42.482419" lon="0.462132">
        <ele>1190.7</ele>
        <time>2016-06-07T12:14:31Z</time>
      </trkpt>
      <trkpt lat="42.482364" lon="0.461973">
        <ele>1188.8</ele>
        <time>2016-06-07T12:14:34Z</time>
      </trkpt>
      <trkpt lat="42.482343" lon="0.461916">
        <ele>1187.9</ele>
        <time>2016-06-07T12:14:35Z</time>
      </trkpt>
      <trkpt lat="42.482285" lon="0.461810">
        <ele>1186.4</ele>
        <time>2016-06-07T12:14:37Z</time>
      </trkpt>
      <trkpt lat="42.481967" lon="0.461773">
        <ele>1184.0</ele>
        <time>2016-06-07T12:14:45Z</time>
      </trkpt>
      <trkpt lat="42.481711" lon="0.461983">
        <ele>1182.6</ele>
        <time>2016-06-07T12:14:58Z</time>
      </trkpt>
      <trkpt lat="42.481581" lon="0.462058">
        <ele>1181.6</ele>
        <time>2016-06-07T12:15:02Z</time>
      </trkpt>
      <trkpt lat="42.481458" lon="0.462181">
        <ele>1179.2</ele>
        <time>2016-06-07T12:15:06Z</time>
      </trkpt>
      <trkpt lat="42.481363" lon="0.462243">
        <ele>1177.8</ele>
        <time>2016-06-07T12:15:09Z</time>
      </trkpt>
      <trkpt lat="42.481280" lon="0.462298">
        <ele>1176.8</ele>
        <time>2016-06-07T12:15:11Z</time>
      </trkpt>
      <trkpt lat="42.481236" lon="0.462324">
        <ele>1176.3</ele>
        <time>2016-06-07T12:15:12Z</time>
      </trkpt>
      <trkpt lat="42.481106" lon="0.462310">
        <ele>1175.4</ele>
        <time>2016-06-07T12:15:15Z</time>
      </trkpt>
      <trkpt lat="42.481043" lon="0.462277">
        <ele>1173.9</ele>
        <time>2016-06-07T12:15:17Z</time>
      </trkpt>
      <trkpt lat="42.480984" lon="0.462260">
        <ele>1173.0</ele>
        <time>2016-06-07T12:15:19Z</time>
      </trkpt>
      <trkpt lat="42.480913" lon="0.462211">
        <ele>1171.5</ele>
        <time>2016-06-07T12:15:21Z</time>
      </trkpt>
      <trkpt lat="42.480683" lon="0.462153">
        <ele>1169.1</ele>
        <time>2016-06-07T12:15:27Z</time>
      </trkpt>
      <trkpt lat="42.480617" lon="0.462025">
        <ele>1167.7</ele>
        <time>2016-06-07T12:15:30Z</time>
      </trkpt>
      <trkpt lat="42.480613" lon="0.461952">
        <ele>1167.2</ele>
        <time>2016-06-07T12:15:31Z</time>
      </trkpt>
      <trkpt lat="42.480650" lon="0.461681">
        <ele>1164.3</ele>
        <time>2016-06-07T12:15:35Z</time>
      </trkpt>
      <trkpt lat="42.480665" lon="0.461275">
        <ele>1160.0</ele>
        <time>2016-06-07T12:15:41Z</time>
      </trkpt>
      <trkpt lat="42.480455" lon="0.461155">
        <ele>1156.6</ele>
        <time>2016-06-07T12:15:46Z</time>
      </trkpt>
      <trkpt lat="42.480239" lon="0.461178">
        <ele>1153.7</ele>
        <time>2016-06-07T12:15:51Z</time>
      </trkpt>
      <trkpt lat="42.480110" lon="0.461198">
        <ele>1150.8</ele>
        <time>2016-06-07T12:15:54Z</time>
      </trkpt>
      <trkpt lat="42.479966" lon="0.461274">
        <ele>1149.4</ele>
        <time>2016-06-07T12:15:57Z</time>
      </trkpt>
      <trkpt lat="42.479774" lon="0.461302">
        <ele>1146.0</ele>
        <time>2016-06-07T12:16:01Z</time>
      </trkpt>
      <trkpt lat="42.479487" lon="0.461274">
        <ele>1142.7</ele>
        <time>2016-06-07T12:16:07Z</time>
      </trkpt>
      <trkpt lat="42.479368" lon="0.461234">
        <ele>1141.2</ele>
        <time>2016-06-07T12:16:10Z</time>
      </trkpt>
      <trkpt lat="42.479337" lon="0.461162">
        <ele>1141.2</ele>
        <time>2016-06-07T12:16:14Z</time>
      </trkpt>
      <trkpt lat="42.479321" lon="0.460856">
        <ele>1143.1</ele>
        <time>2016-06-07T12:16:30Z</time>
      </trkpt>
      <trkpt lat="42.479272" lon="0.460779">
        <ele>1144.1</ele>
        <time>2016-06-07T12:16:36Z</time>
      </trkpt>
      <trkpt lat="42.479220" lon="0.460747">
        <ele>1145.6</ele>
        <time>2016-06-07T12:16:41Z</time>
      </trkpt>
      <trkpt lat="42.479186" lon="0.460681">
        <ele>1146.0</ele>
        <time>2016-06-07T12:16:46Z</time>
      </trkpt>
      <trkpt lat="42.479162" lon="0.460381">
        <ele>1147.5</ele>
        <time>2016-06-07T12:17:03Z</time>
      </trkpt>
      <trkpt lat="42.479120" lon="0.460300">
        <ele>1148.0</ele>
        <time>2016-06-07T12:17:09Z</time>
      </trkpt>
      <trkpt lat="42.479028" lon="0.460231">
        <ele>1148.4</ele>
        <time>2016-06-07T12:17:17Z</time>
      </trkpt>
      <trkpt lat="42.479050" lon="0.459979">
        <ele>1149.4</ele>
        <time>2016-06-07T12:17:30Z</time>
      </trkpt>
      <trkpt lat="42.479115" lon="0.459699">
        <ele>1150.4</ele>
        <time>2016-06-07T12:17:44Z</time>
      </trkpt>
      <trkpt lat="42.479101" lon="0.459577">
        <ele>1151.8</ele>
        <time>2016-06-07T12:17:51Z</time>
      </trkpt>
      <trkpt lat="42.478987" lon="0.459441">
        <ele>1155.2</ele>
        <time>2016-06-07T12:18:05Z</time>
      </trkpt>
      <trkpt lat="42.478908" lon="0.459406">
        <ele>1156.6</ele>
        <time>2016-06-07T12:18:13Z</time>
      </trkpt>
      <trkpt lat="42.478840" lon="0.459258">
        <ele>1157.1</ele>
        <time>2016-06-07T12:18:20Z</time>
      </trkpt>
      <trkpt lat="42.478660" lon="0.459037">
        <ele>1152.3</ele>
        <time>2016-06-07T12:18:26Z</time>
      </trkpt>
      <trkpt lat="42.478478" lon="0.458937">
        <ele>1149.9</ele>
        <time>2016-06-07T12:18:33Z</time>
      </trkpt>
      <trkpt lat="42.478458" lon="0.458828">
        <ele>1148.9</ele>
        <time>2016-06-07T12:18:36Z</time>
      </trkpt>
      <trkpt lat="42.478432" lon="0.458673">
        <ele>1145.6</ele>
        <time>2016-06-07T12:18:39Z</time>
      </trkpt>
      <trkpt lat="42.478443" lon="0.458355">
        <ele>1142.7</ele>
        <time>2016-06-07T12:18:44Z</time>
      </trkpt>
      <trkpt lat="42.478420" lon="0.457824">
        <ele>1140.3</ele>
        <time>2016-06-07T12:18:54Z</time>
      </trkpt>
      <trkpt lat="42.478348" lon="0.457682">
        <ele>1137.9</ele>
        <time>2016-06-07T12:18:58Z</time>
      </trkpt>
      <trkpt lat="42.478243" lon="0.457590">
        <ele>1136.4</ele>
        <time>2016-06-07T12:19:01Z</time>
      </trkpt>
      <trkpt lat="42.478161" lon="0.457455">
        <ele>1135.5</ele>
        <time>2016-06-07T12:19:04Z</time>
      </trkpt>
      <trkpt lat="42.478281" lon="0.456988">
        <ele>1133.5</ele>
        <time>2016-06-07T12:19:13Z</time>
      </trkpt>
      <trkpt lat="42.478307" lon="0.456899">
        <ele>1133.5</ele>
        <time>2016-06-07T12:19:15Z</time>
      </trkpt>
      <trkpt lat="42.478344" lon="0.456276">
        <ele>1132.1</ele>
        <time>2016-06-07T12:19:26Z</time>
      </trkpt>
      <trkpt lat="42.478337" lon="0.456115">
        <ele>1131.6</ele>
        <time>2016-06-07T12:19:29Z</time>
      </trkpt>
      <trkpt lat="42.478296" lon="0.455744">
        <ele>1131.6</ele>
        <time>2016-06-07T12:19:38Z</time>
      </trkpt>
      <trkpt lat="42.478281" lon="0.455678">
        <ele>1131.6</ele>
        <time>2016-06-07T12:19:40Z</time>
      </trkpt>
      <trkpt lat="42.478149" lon="0.455492">
        <ele>1131.6</ele>
        <time>2016-06-07T12:19:47Z</time>
      </trkpt>
      <trkpt lat="42.477861" lon="0.455189">
        <ele>1129.2</ele>
        <time>2016-06-07T12:19:56Z</time>
      </trkpt>
      <trkpt lat="42.477930" lon="0.454959">
        <ele>1127.8</ele>
        <time>2016-06-07T12:20:00Z</time>
      </trkpt>
      <trkpt lat="42.478113" lon="0.454573">
        <ele>1126.3</ele>
        <time>2016-06-07T12:20:07Z</time>
      </trkpt>
      <trkpt lat="42.478145" lon="0.454441">
        <ele>1126.3</ele>
        <time>2016-06-07T12:20:09Z</time>
      </trkpt>
      <trkpt lat="42.478221" lon="0.454174">
        <ele>1125.4</ele>
        <time>2016-06-07T12:20:13Z</time>
      </trkpt>
      <trkpt lat="42.478349" lon="0.453879">
        <ele>1124.4</ele>
        <time>2016-06-07T12:20:18Z</time>
      </trkpt>
      <trkpt lat="42.478431" lon="0.453501">
        <ele>1123.9</ele>
        <time>2016-06-07T12:20:28Z</time>
      </trkpt>
      <trkpt lat="42.478396" lon="0.453035">
        <ele>1123.0</ele>
        <time>2016-06-07T12:20:40Z</time>
      </trkpt>
      <trkpt lat="42.478234" lon="0.452843">
        <ele>1121.5</ele>
        <time>2016-06-07T12:20:50Z</time>
      </trkpt>
      <trkpt lat="42.478229" lon="0.452775">
        <ele>1117.2</ele>
        <time>2016-06-07T12:35:36Z</time>
      </trkpt>
      <trkpt lat="42.478145" lon="0.452667">
        <ele>1115.8</ele>
        <time>2016-06-07T12:36:24Z</time>
      </trkpt>
      <trkpt lat="42.477834" lon="0.452328">
        <ele>1112.4</ele>
        <time>2016-06-07T12:36:35Z</time>
      </trkpt>
      <trkpt lat="42.477725" lon="0.452052">
        <ele>1109.0</ele>
        <time>2016-06-07T12:36:42Z</time>
      </trkpt>
      <trkpt lat="42.477695" lon="0.451959">
        <ele>1108.1</ele>
        <time>2016-06-07T12:36:44Z</time>
      </trkpt>
      <trkpt lat="42.477662" lon="0.451864">
        <ele>1107.1</ele>
        <time>2016-06-07T12:36:46Z</time>
      </trkpt>
      <trkpt lat="42.477572" lon="0.451736">
        <ele>1105.7</ele>
        <time>2016-06-07T12:36:49Z</time>
      </trkpt>
      <trkpt lat="42.477457" lon="0.451608">
        <ele>1104.7</ele>
        <time>2016-06-07T12:36:52Z</time>
      </trkpt>
      <trkpt lat="42.477289" lon="0.451444">
        <ele>1103.3</ele>
        <time>2016-06-07T12:36:56Z</time>
      </trkpt>
      <trkpt lat="42.477214" lon="0.451355">
        <ele>1102.8</ele>
        <time>2016-06-07T12:36:58Z</time>
      </trkpt>
      <trkpt lat="42.477108" lon="0.450949">
        <ele>1099.9</ele>
        <time>2016-06-07T12:37:07Z</time>
      </trkpt>
      <trkpt lat="42.476981" lon="0.450860">
        <ele>1097.5</ele>
        <time>2016-06-07T12:37:11Z</time>
      </trkpt>
      <trkpt lat="42.476803" lon="0.450909">
        <ele>1095.1</ele>
        <time>2016-06-07T12:37:16Z</time>
      </trkpt>
      <trkpt lat="42.476739" lon="0.450922">
        <ele>1094.1</ele>
        <time>2016-06-07T12:37:18Z</time>
      </trkpt>
      <trkpt lat="42.476622" lon="0.450878">
        <ele>1092.2</ele>
        <time>2016-06-07T12:37:21Z</time>
      </trkpt>
      <trkpt lat="42.476433" lon="0.450518">
        <ele>1089.8</ele>
        <time>2016-06-07T12:37:29Z</time>
      </trkpt>
      <trkpt lat="42.476362" lon="0.450263">
        <ele>1087.9</ele>
        <time>2016-06-07T12:37:33Z</time>
      </trkpt>
      <trkpt lat="42.476212" lon="0.450064">
        <ele>1084.0</ele>
        <time>2016-06-07T12:37:37Z</time>
      </trkpt>
      <trkpt lat="42.476161" lon="0.450045">
        <ele>1083.1</ele>
        <time>2016-06-07T12:37:38Z</time>
      </trkpt>
      <trkpt lat="42.475992" lon="0.450043">
        <ele>1080.2</ele>
        <time>2016-06-07T12:37:42Z</time>
      </trkpt>
      <trkpt lat="42.475905" lon="0.450081">
        <ele>1077.8</ele>
        <time>2016-06-07T12:37:44Z</time>
      </trkpt>
      <trkpt lat="42.475729" lon="0.450069">
        <ele>1073.5</ele>
        <time>2016-06-07T12:37:48Z</time>
      </trkpt>
      <trkpt lat="42.475652" lon="0.450016">
        <ele>1072.5</ele>
        <time>2016-06-07T12:37:50Z</time>
      </trkpt>
      <trkpt lat="42.475398" lon="0.449964">
        <ele>1067.2</ele>
        <time>2016-06-07T12:37:56Z</time>
      </trkpt>
      <trkpt lat="42.475254" lon="0.449818">
        <ele>1063.8</ele>
        <time>2016-06-07T12:38:00Z</time>
      </trkpt>
      <trkpt lat="42.475063" lon="0.449853">
        <ele>1060.5</ele>
        <time>2016-06-07T12:38:05Z</time>
      </trkpt>
      <trkpt lat="42.474923" lon="0.449730">
        <ele>1056.6</ele>
        <time>2016-06-07T12:38:09Z</time>
      </trkpt>
      <trkpt lat="42.474814" lon="0.449510">
        <ele>1052.3</ele>
        <time>2016-06-07T12:38:14Z</time>
      </trkpt>
      <trkpt lat="42.474705" lon="0.449381">
        <ele>1049.4</ele>
        <time>2016-06-07T12:38:18Z</time>
      </trkpt>
      <trkpt lat="42.474603" lon="0.449198">
        <ele>1046.1</ele>
        <time>2016-06-07T12:38:22Z</time>
      </trkpt>
      <trkpt lat="42.474573" lon="0.449092">
        <ele>1044.1</ele>
        <time>2016-06-07T12:38:24Z</time>
      </trkpt>
      <trkpt lat="42.474530" lon="0.448913">
        <ele>1041.7</ele>
        <time>2016-06-07T12:38:27Z</time>
      </trkpt>
      <trkpt lat="42.474480" lon="0.448577">
        <ele>1037.4</ele>
        <time>2016-06-07T12:38:32Z</time>
      </trkpt>
      <trkpt lat="42.474441" lon="0.448401">
        <ele>1035.0</ele>
        <time>2016-06-07T12:38:35Z</time>
      </trkpt>
      <trkpt lat="42.474312" lon="0.448114">
        <ele>1029.7</ele>
        <time>2016-06-07T12:38:41Z</time>
      </trkpt>
      <trkpt lat="42.474171" lon="0.448045">
        <ele>1026.3</ele>
        <time>2016-06-07T12:38:45Z</time>
      </trkpt>
      <trkpt lat="42.474046" lon="0.448011">
        <ele>1023.9</ele>
        <time>2016-06-07T12:38:48Z</time>
      </trkpt>
      <trkpt lat="42.473865" lon="0.447958">
        <ele>1020.1</ele>
        <time>2016-06-07T12:38:53Z</time>
      </trkpt>
      <trkpt lat="42.473607" lon="0.447843">
        <ele>1014.3</ele>
        <time>2016-06-07T12:38:59Z</time>
      </trkpt>
      <trkpt lat="42.473360" lon="0.447790">
        <ele>1010.0</ele>
        <time>2016-06-07T12:39:04Z</time>
      </trkpt>
      <trkpt lat="42.473279" lon="0.447704">
        <ele>1009.0</ele>
        <time>2016-06-07T12:39:07Z</time>
      </trkpt>
      <trkpt lat="42.473515" lon="0.447251">
        <ele>1008.1</ele>
        <time>2016-06-07T12:39:17Z</time>
      </trkpt>
      <trkpt lat="42.473650" lon="0.446903">
        <ele>1006.2</ele>
        <time>2016-06-07T12:39:23Z</time>
      </trkpt>
      <trkpt lat="42.473579" lon="0.446600">
        <ele>1003.3</ele>
        <time>2016-06-07T12:39:29Z</time>
      </trkpt>
      <trkpt lat="42.473443" lon="0.446555">
        <ele>1000.9</ele>
        <time>2016-06-07T12:39:32Z</time>
      </trkpt>
      <trkpt lat="42.473348" lon="0.446504">
        <ele>998.5</ele>
        <time>2016-06-07T12:39:34Z</time>
      </trkpt>
      <trkpt lat="42.473190" lon="0.446320">
        <ele>994.6</ele>
        <time>2016-06-07T12:39:39Z</time>
      </trkpt>
      <trkpt lat="42.473183" lon="0.446163">
        <ele>991.3</ele>
        <time>2016-06-07T12:39:42Z</time>
      </trkpt>
      <trkpt lat="42.473128" lon="0.445975">
        <ele>986.9</ele>
        <time>2016-06-07T12:39:46Z</time>
      </trkpt>
      <trkpt lat="42.473006" lon="0.445860">
        <ele>983.6</ele>
        <time>2016-06-07T12:39:49Z</time>
      </trkpt>
      <trkpt lat="42.472970" lon="0.445801">
        <ele>982.1</ele>
        <time>2016-06-07T12:39:50Z</time>
      </trkpt>
      <trkpt lat="42.472914" lon="0.445682">
        <ele>980.2</ele>
        <time>2016-06-07T12:39:52Z</time>
      </trkpt>
      <trkpt lat="42.472782" lon="0.445461">
        <ele>975.9</ele>
        <time>2016-06-07T12:39:56Z</time>
      </trkpt>
      <trkpt lat="42.472633" lon="0.445333">
        <ele>972.0</ele>
        <time>2016-06-07T12:39:59Z</time>
      </trkpt>
      <trkpt lat="42.472427" lon="0.445279">
        <ele>969.2</ele>
        <time>2016-06-07T12:40:03Z</time>
      </trkpt>
      <trkpt lat="42.472419" lon="0.445123">
        <ele>966.3</ele>
        <time>2016-06-07T12:40:06Z</time>
      </trkpt>
      <trkpt lat="42.472561" lon="0.444961">
        <ele>963.4</ele>
        <time>2016-06-07T12:40:10Z</time>
      </trkpt>
      <trkpt lat="42.472656" lon="0.444881">
        <ele>961.9</ele>
        <time>2016-06-07T12:40:12Z</time>
      </trkpt>
      <trkpt lat="42.472746" lon="0.444777">
        <ele>960.5</ele>
        <time>2016-06-07T12:40:14Z</time>
      </trkpt>
      <trkpt lat="42.472847" lon="0.444608">
        <ele>958.6</ele>
        <time>2016-06-07T12:40:17Z</time>
      </trkpt>
      <trkpt lat="42.472897" lon="0.444492">
        <ele>958.1</ele>
        <time>2016-06-07T12:40:19Z</time>
      </trkpt>
      <trkpt lat="42.472966" lon="0.444372">
        <ele>957.1</ele>
        <time>2016-06-07T12:40:21Z</time>
      </trkpt>
      <trkpt lat="42.473042" lon="0.444270">
        <ele>955.7</ele>
        <time>2016-06-07T12:40:23Z</time>
      </trkpt>
      <trkpt lat="42.473131" lon="0.444065">
        <ele>952.3</ele>
        <time>2016-06-07T12:40:27Z</time>
      </trkpt>
      <trkpt lat="42.473136" lon="0.443834">
        <ele>947.5</ele>
        <time>2016-06-07T12:40:31Z</time>
      </trkpt>
      <trkpt lat="42.473125" lon="0.443717">
        <ele>945.6</ele>
        <time>2016-06-07T12:40:33Z</time>
      </trkpt>
      <trkpt lat="42.473071" lon="0.443413">
        <ele>941.3</ele>
        <time>2016-06-07T12:40:38Z</time>
      </trkpt>
      <trkpt lat="42.473183" lon="0.443151">
        <ele>937.4</ele>
        <time>2016-06-07T12:40:42Z</time>
      </trkpt>
      <trkpt lat="42.473366" lon="0.443016">
        <ele>933.6</ele>
        <time>2016-06-07T12:40:46Z</time>
      </trkpt>
      <trkpt lat="42.473415" lon="0.442924">
        <ele>932.6</ele>
        <time>2016-06-07T12:40:48Z</time>
      </trkpt>
      <trkpt lat="42.473498" lon="0.442624">
        <ele>928.8</ele>
        <time>2016-06-07T12:40:53Z</time>
      </trkpt>
      <trkpt lat="42.473312" lon="0.442462">
        <ele>925.4</ele>
        <time>2016-06-07T12:40:59Z</time>
      </trkpt>
      <trkpt lat="42.473266" lon="0.442454">
        <ele>924.5</ele>
        <time>2016-06-07T12:41:00Z</time>
      </trkpt>
      <trkpt lat="42.472989" lon="0.442394">
        <ele>918.7</ele>
        <time>2016-06-07T12:41:05Z</time>
      </trkpt>
      <trkpt lat="42.472788" lon="0.442334">
        <ele>915.3</ele>
        <time>2016-06-07T12:41:08Z</time>
      </trkpt>
      <trkpt lat="42.472734" lon="0.442308">
        <ele>914.8</ele>
        <time>2016-06-07T12:41:09Z</time>
      </trkpt>
      <trkpt lat="42.472609" lon="0.442228">
        <ele>914.4</ele>
        <time>2016-06-07T12:41:12Z</time>
      </trkpt>
      <trkpt lat="42.472578" lon="0.442002">
        <ele>912.9</ele>
        <time>2016-06-07T12:41:19Z</time>
      </trkpt>
      <trkpt lat="42.472647" lon="0.441942">
        <ele>913.4</ele>
        <time>2016-06-07T12:41:23Z</time>
      </trkpt>
      <trkpt lat="42.472760" lon="0.441769">
        <ele>914.4</ele>
        <time>2016-06-07T12:41:30Z</time>
      </trkpt>
      <trkpt lat="42.472987" lon="0.441231">
        <ele>914.4</ele>
        <time>2016-06-07T12:41:44Z</time>
      </trkpt>
      <trkpt lat="42.473202" lon="0.440742">
        <ele>914.4</ele>
        <time>2016-06-07T12:41:57Z</time>
      </trkpt>
      <trkpt lat="42.473434" lon="0.440285">
        <ele>914.8</ele>
        <time>2016-06-07T12:42:10Z</time>
      </trkpt>
      <trkpt lat="42.473547" lon="0.439986">
        <ele>913.4</ele>
        <time>2016-06-07T12:42:16Z</time>
      </trkpt>
      <trkpt lat="42.473822" lon="0.439577">
        <ele>912.9</ele>
        <time>2016-06-07T12:42:28Z</time>
      </trkpt>
      <trkpt lat="42.473699" lon="0.439263">
        <ele>913.9</ele>
        <time>2016-06-07T12:42:36Z</time>
      </trkpt>
      <trkpt lat="42.473588" lon="0.439199">
        <ele>912.9</ele>
        <time>2016-06-07T12:42:39Z</time>
      </trkpt>
      <trkpt lat="42.473511" lon="0.439098">
        <ele>912.9</ele>
        <time>2016-06-07T12:42:42Z</time>
      </trkpt>
      <trkpt lat="42.473532" lon="0.438893">
        <ele>912.0</ele>
        <time>2016-06-07T12:42:46Z</time>
      </trkpt>
      <trkpt lat="42.473640" lon="0.438513">
        <ele>910.0</ele>
        <time>2016-06-07T12:42:51Z</time>
      </trkpt>
      <trkpt lat="42.473699" lon="0.438386">
        <ele>910.0</ele>
        <time>2016-06-07T12:42:53Z</time>
      </trkpt>
      <trkpt lat="42.473922" lon="0.438146">
        <ele>908.6</ele>
        <time>2016-06-07T12:42:58Z</time>
      </trkpt>
      <trkpt lat="42.474214" lon="0.437822">
        <ele>907.1</ele>
        <time>2016-06-07T12:43:05Z</time>
      </trkpt>
      <trkpt lat="42.474525" lon="0.437451">
        <ele>901.9</ele>
        <time>2016-06-07T12:43:12Z</time>
      </trkpt>
      <trkpt lat="42.474725" lon="0.437438">
        <ele>898.5</ele>
        <time>2016-06-07T12:43:15Z</time>
      </trkpt>
      <trkpt lat="42.474853" lon="0.437342">
        <ele>895.6</ele>
        <time>2016-06-07T12:43:19Z</time>
      </trkpt>
      <trkpt lat="42.474739" lon="0.437145">
        <ele>892.2</ele>
        <time>2016-06-07T12:43:23Z</time>
      </trkpt>
      <trkpt lat="42.474720" lon="0.436768">
        <ele>888.9</ele>
        <time>2016-06-07T12:43:28Z</time>
      </trkpt>
      <trkpt lat="42.474939" lon="0.436276">
        <ele>885.5</ele>
        <time>2016-06-07T12:43:34Z</time>
      </trkpt>
      <trkpt lat="42.475096" lon="0.435935">
        <ele>881.7</ele>
        <time>2016-06-07T12:43:38Z</time>
      </trkpt>
      <trkpt lat="42.475188" lon="0.435659">
        <ele>878.8</ele>
        <time>2016-06-07T12:43:41Z</time>
      </trkpt>
      <trkpt lat="42.475353" lon="0.435252">
        <ele>874.0</ele>
        <time>2016-06-07T12:43:46Z</time>
      </trkpt>
      <trkpt lat="42.475418" lon="0.435109">
        <ele>872.1</ele>
        <time>2016-06-07T12:43:48Z</time>
      </trkpt>
      <trkpt lat="42.475463" lon="0.434887">
        <ele>871.1</ele>
        <time>2016-06-07T12:43:51Z</time>
      </trkpt>
      <trkpt lat="42.475450" lon="0.434674">
        <ele>869.7</ele>
        <time>2016-06-07T12:43:54Z</time>
      </trkpt>
      <trkpt lat="42.475424" lon="0.434615">
        <ele>870.1</ele>
        <time>2016-06-07T12:43:55Z</time>
      </trkpt>
      <trkpt lat="42.475345" lon="0.434443">
        <ele>869.7</ele>
        <time>2016-06-07T12:43:58Z</time>
      </trkpt>
      <trkpt lat="42.475324" lon="0.434268">
        <ele>869.7</ele>
        <time>2016-06-07T12:44:01Z</time>
      </trkpt>
      <trkpt lat="42.475279" lon="0.433971">
        <ele>871.1</ele>
        <time>2016-06-07T12:44:08Z</time>
      </trkpt>
      <trkpt lat="42.475273" lon="0.433836">
        <ele>869.7</ele>
        <time>2016-06-07T12:44:10Z</time>
      </trkpt>
      <trkpt lat="42.475275" lon="0.433527">
        <ele>868.7</ele>
        <time>2016-06-07T12:44:14Z</time>
      </trkpt>
      <trkpt lat="42.475341" lon="0.433139">
        <ele>866.8</ele>
        <time>2016-06-07T12:44:18Z</time>
      </trkpt>
      <trkpt lat="42.475368" lon="0.432707">
        <ele>864.4</ele>
        <time>2016-06-07T12:44:22Z</time>
      </trkpt>
      <trkpt lat="42.475446" lon="0.432365">
        <ele>863.9</ele>
        <time>2016-06-07T12:44:25Z</time>
      </trkpt>
      <trkpt lat="42.475415" lon="0.431765">
        <ele>860.0</ele>
        <time>2016-06-07T12:44:30Z</time>
      </trkpt>
      <trkpt lat="42.475320" lon="0.431104">
        <ele>856.7</ele>
        <time>2016-06-07T12:44:35Z</time>
      </trkpt>
      <trkpt lat="42.475453" lon="0.430467">
        <ele>851.9</ele>
        <time>2016-06-07T12:44:40Z</time>
      </trkpt>
      <trkpt lat="42.475359" lon="0.429966">
        <ele>848.5</ele>
        <time>2016-06-07T12:44:44Z</time>
      </trkpt>
      <trkpt lat="42.475087" lon="0.429485">
        <ele>844.2</ele>
        <time>2016-06-07T12:44:48Z</time>
      </trkpt>
      <trkpt lat="42.474841" lon="0.428958">
        <ele>840.8</ele>
        <time>2016-06-07T12:44:52Z</time>
      </trkpt>
      <trkpt lat="42.474614" lon="0.428701">
        <ele>837.5</ele>
        <time>2016-06-07T12:44:55Z</time>
      </trkpt>
      <trkpt lat="42.474563" lon="0.428327">
        <ele>834.1</ele>
        <time>2016-06-07T12:45:00Z</time>
      </trkpt>
      <trkpt lat="42.474812" lon="0.428319">
        <ele>832.2</ele>
        <time>2016-06-07T12:45:03Z</time>
      </trkpt>
      <trkpt lat="42.474987" lon="0.428386">
        <ele>831.2</ele>
        <time>2016-06-07T12:45:05Z</time>
      </trkpt>
      <trkpt lat="42.475299" lon="0.428694">
        <ele>827.4</ele>
        <time>2016-06-07T12:45:09Z</time>
      </trkpt>
      <trkpt lat="42.475651" lon="0.429288">
        <ele>824.0</ele>
        <time>2016-06-07T12:45:15Z</time>
      </trkpt>
      <trkpt lat="42.475940" lon="0.429590">
        <ele>821.6</ele>
        <time>2016-06-07T12:45:19Z</time>
      </trkpt>
      <trkpt lat="42.476581" lon="0.430399">
        <ele>821.1</ele>
        <time>2016-06-07T12:45:31Z</time>
      </trkpt>
      <trkpt lat="42.476683" lon="0.430560">
        <ele>821.1</ele>
        <time>2016-06-07T12:45:34Z</time>
      </trkpt>
      <trkpt lat="42.476947" lon="0.431186">
        <ele>822.1</ele>
        <time>2016-06-07T12:45:47Z</time>
      </trkpt>
      <trkpt lat="42.477288" lon="0.432088">
        <ele>822.1</ele>
        <time>2016-06-07T12:46:05Z</time>
      </trkpt>
      <trkpt lat="42.477558" lon="0.432816">
        <ele>821.6</ele>
        <time>2016-06-07T12:46:20Z</time>
      </trkpt>
      <trkpt lat="42.477720" lon="0.433326">
        <ele>821.6</ele>
        <time>2016-06-07T12:46:31Z</time>
      </trkpt>
      <trkpt lat="42.477757" lon="0.433259">
        <ele>814.9</ele>
        <time>2016-06-07T13:31:37Z</time>
      </trkpt>
      <trkpt lat="42.477738" lon="0.433170">
        <ele>814.9</ele>
        <time>2016-06-07T13:31:49Z</time>
      </trkpt>
      <trkpt lat="42.477699" lon="0.433069">
        <ele>815.3</ele>
        <time>2016-06-07T13:32:05Z</time>
      </trkpt>
      <trkpt lat="42.477618" lon="0.432858">
        <ele>815.3</ele>
        <time>2016-06-07T13:32:20Z</time>
      </trkpt>
      <trkpt lat="42.477420" lon="0.432322">
        <ele>815.3</ele>
        <time>2016-06-07T13:32:36Z</time>
      </trkpt>
      <trkpt lat="42.477215" lon="0.431730">
        <ele>815.3</ele>
        <time>2016-06-07T13:32:52Z</time>
      </trkpt>
      <trkpt lat="42.476968" lon="0.431062">
        <ele>815.3</ele>
        <time>2016-06-07T13:33:08Z</time>
      </trkpt>
      <trkpt lat="42.476639" lon="0.430396">
        <ele>815.3</ele>
        <time>2016-06-07T13:33:25Z</time>
      </trkpt>
      <trkpt lat="42.476275" lon="0.429847">
        <ele>813.9</ele>
        <time>2016-06-07T13:33:40Z</time>
      </trkpt>
      <trkpt lat="42.475885" lon="0.429285">
        <ele>812.5</ele>
        <time>2016-06-07T13:33:57Z</time>
      </trkpt>
      <trkpt lat="42.475489" lon="0.428582">
        <ele>811.0</ele>
        <time>2016-06-07T13:34:12Z</time>
      </trkpt>
      <trkpt lat="42.475036" lon="0.427924">
        <ele>807.6</ele>
        <time>2016-06-07T13:34:22Z</time>
      </trkpt>
      <trkpt lat="42.474795" lon="0.427733">
        <ele>807.6</ele>
        <time>2016-06-07T13:34:26Z</time>
      </trkpt>
      <trkpt lat="42.474467" lon="0.427569">
        <ele>806.7</ele>
        <time>2016-06-07T13:34:31Z</time>
      </trkpt>
      <trkpt lat="42.473949" lon="0.426897">
        <ele>803.3</ele>
        <time>2016-06-07T13:34:40Z</time>
      </trkpt>
      <trkpt lat="42.473594" lon="0.425933">
        <ele>800.9</ele>
        <time>2016-06-07T13:34:49Z</time>
      </trkpt>
      <trkpt lat="42.473525" lon="0.424998">
        <ele>800.4</ele>
        <time>2016-06-07T13:34:58Z</time>
      </trkpt>
      <trkpt lat="42.473573" lon="0.424650">
        <ele>800.4</ele>
        <time>2016-06-07T13:35:02Z</time>
      </trkpt>
      <trkpt lat="42.473600" lon="0.424342">
        <ele>800.0</ele>
        <time>2016-06-07T13:35:06Z</time>
      </trkpt>
      <trkpt lat="42.473676" lon="0.423128">
        <ele>799.5</ele>
        <time>2016-06-07T13:35:23Z</time>
      </trkpt>
      <trkpt lat="42.473710" lon="0.422719">
        <ele>798.0</ele>
        <time>2016-06-07T13:35:28Z</time>
      </trkpt>
      <trkpt lat="42.473874" lon="0.421770">
        <ele>794.7</ele>
        <time>2016-06-07T13:35:38Z</time>
      </trkpt>
      <trkpt lat="42.473879" lon="0.421658">
        <ele>794.2</ele>
        <time>2016-06-07T13:35:39Z</time>
      </trkpt>
      <trkpt lat="42.473691" lon="0.420986">
        <ele>791.8</ele>
        <time>2016-06-07T13:35:46Z</time>
      </trkpt>
      <trkpt lat="42.473223" lon="0.420417">
        <ele>788.4</ele>
        <time>2016-06-07T13:35:53Z</time>
      </trkpt>
      <trkpt lat="42.473094" lon="0.420239">
        <ele>787.9</ele>
        <time>2016-06-07T13:35:55Z</time>
      </trkpt>
      <trkpt lat="42.473010" lon="0.420013">
        <ele>786.5</ele>
        <time>2016-06-07T13:35:57Z</time>
      </trkpt>
      <trkpt lat="42.472886" lon="0.419540">
        <ele>785.5</ele>
        <time>2016-06-07T13:36:01Z</time>
      </trkpt>
      <trkpt lat="42.472750" lon="0.419242">
        <ele>785.1</ele>
        <time>2016-06-07T13:36:04Z</time>
      </trkpt>
      <trkpt lat="42.472300" lon="0.418983">
        <ele>784.1</ele>
        <time>2016-06-07T13:36:11Z</time>
      </trkpt>
      <trkpt lat="42.471440" lon="0.419023">
        <ele>783.6</ele>
        <time>2016-06-07T13:36:27Z</time>
      </trkpt>
      <trkpt lat="42.470517" lon="0.418718">
        <ele>782.7</ele>
        <time>2016-06-07T13:36:45Z</time>
      </trkpt>
      <trkpt lat="42.469737" lon="0.418782">
        <ele>781.7</ele>
        <time>2016-06-07T13:37:00Z</time>
      </trkpt>
      <trkpt lat="42.468601" lon="0.419255">
        <ele>778.8</ele>
        <time>2016-06-07T13:37:21Z</time>
      </trkpt>
      <trkpt lat="42.467665" lon="0.419643">
        <ele>778.3</ele>
        <time>2016-06-07T13:37:40Z</time>
      </trkpt>
      <trkpt lat="42.467006" lon="0.419859">
        <ele>778.3</ele>
        <time>2016-06-07T13:37:54Z</time>
      </trkpt>
      <trkpt lat="42.466292" lon="0.419798">
        <ele>778.3</ele>
        <time>2016-06-07T13:38:09Z</time>
      </trkpt>
      <trkpt lat="42.465798" lon="0.419764">
        <ele>776.9</ele>
        <time>2016-06-07T13:38:20Z</time>
      </trkpt>
      <trkpt lat="42.465121" lon="0.419684">
        <ele>775.9</ele>
        <time>2016-06-07T13:38:33Z</time>
      </trkpt>
      <trkpt lat="42.464420" lon="0.419546">
        <ele>775.4</ele>
        <time>2016-06-07T13:38:47Z</time>
      </trkpt>
      <trkpt lat="42.464132" lon="0.419466">
        <ele>775.4</ele>
        <time>2016-06-07T13:38:52Z</time>
      </trkpt>
      <trkpt lat="42.463983" lon="0.419373">
        <ele>775.4</ele>
        <time>2016-06-07T13:38:55Z</time>
      </trkpt>
      <trkpt lat="42.463486" lon="0.418686">
        <ele>774.5</ele>
        <time>2016-06-07T13:39:08Z</time>
      </trkpt>
      <trkpt lat="42.463381" lon="0.418486">
        <ele>774.5</ele>
        <time>2016-06-07T13:39:12Z</time>
      </trkpt>
      <trkpt lat="42.463196" lon="0.417852">
        <ele>774.5</ele>
        <time>2016-06-07T13:39:23Z</time>
      </trkpt>
      <trkpt lat="42.463079" lon="0.417183">
        <ele>774.5</ele>
        <time>2016-06-07T13:39:34Z</time>
      </trkpt>
      <trkpt lat="42.463058" lon="0.416336">
        <ele>776.9</ele>
        <time>2016-06-07T13:39:48Z</time>
      </trkpt>
      <trkpt lat="42.463017" lon="0.415378">
        <ele>776.9</ele>
        <time>2016-06-07T13:40:04Z</time>
      </trkpt>
      <trkpt lat="42.463010" lon="0.415106">
        <ele>776.9</ele>
        <time>2016-06-07T13:40:08Z</time>
      </trkpt>
      <trkpt lat="42.462913" lon="0.414723">
        <ele>775.4</ele>
        <time>2016-06-07T13:40:13Z</time>
      </trkpt>
      <trkpt lat="42.462767" lon="0.414112">
        <ele>773.5</ele>
        <time>2016-06-07T13:40:20Z</time>
      </trkpt>
      <trkpt lat="42.462703" lon="0.413399">
        <ele>772.1</ele>
        <time>2016-06-07T13:40:28Z</time>
      </trkpt>
      <trkpt lat="42.462734" lon="0.413061">
        <ele>772.6</ele>
        <time>2016-06-07T13:40:33Z</time>
      </trkpt>
      <trkpt lat="42.462749" lon="0.412949">
        <ele>773.5</ele>
        <time>2016-06-07T13:40:35Z</time>
      </trkpt>
      <trkpt lat="42.462920" lon="0.412273">
        <ele>775.9</ele>
        <time>2016-06-07T13:40:50Z</time>
      </trkpt>
      <trkpt lat="42.463041" lon="0.411705">
        <ele>778.3</ele>
        <time>2016-06-07T13:41:06Z</time>
      </trkpt>
      <trkpt lat="42.463080" lon="0.411208">
        <ele>780.3</ele>
        <time>2016-06-07T13:41:20Z</time>
      </trkpt>
      <trkpt lat="42.463101" lon="0.410829">
        <ele>781.7</ele>
        <time>2016-06-07T13:41:31Z</time>
      </trkpt>
      <trkpt lat="42.463037" lon="0.410311">
        <ele>783.1</ele>
        <time>2016-06-07T13:41:46Z</time>
      </trkpt>
      <trkpt lat="42.462972" lon="0.409879">
        <ele>785.1</ele>
        <time>2016-06-07T13:41:59Z</time>
      </trkpt>
      <trkpt lat="42.463002" lon="0.409414">
        <ele>787.0</ele>
        <time>2016-06-07T13:42:13Z</time>
      </trkpt>
      <trkpt lat="42.463129" lon="0.408836">
        <ele>789.4</ele>
        <time>2016-06-07T13:42:30Z</time>
      </trkpt>
      <trkpt lat="42.463182" lon="0.408122">
        <ele>791.3</ele>
        <time>2016-06-07T13:42:50Z</time>
      </trkpt>
      <trkpt lat="42.463137" lon="0.407535">
        <ele>792.7</ele>
        <time>2016-06-07T13:43:06Z</time>
      </trkpt>
      <trkpt lat="42.463142" lon="0.407023">
        <ele>795.2</ele>
        <time>2016-06-07T13:43:20Z</time>
      </trkpt>
      <trkpt lat="42.463182" lon="0.406381">
        <ele>798.0</ele>
        <time>2016-06-07T13:43:38Z</time>
      </trkpt>
      <trkpt lat="42.463171" lon="0.405806">
        <ele>799.5</ele>
        <time>2016-06-07T13:43:53Z</time>
      </trkpt>
      <trkpt lat="42.462954" lon="0.405236">
        <ele>799.5</ele>
        <time>2016-06-07T13:44:06Z</time>
      </trkpt>
      <trkpt lat="42.462767" lon="0.404743">
        <ele>800.0</ele>
        <time>2016-06-07T13:44:18Z</time>
      </trkpt>
      <trkpt lat="42.462719" lon="0.404545">
        <ele>800.0</ele>
        <time>2016-06-07T13:44:22Z</time>
      </trkpt>
      <trkpt lat="42.462629" lon="0.404417">
        <ele>800.0</ele>
        <time>2016-06-07T13:44:25Z</time>
      </trkpt>
      <trkpt lat="42.462374" lon="0.404139">
        <ele>798.0</ele>
        <time>2016-06-07T13:44:31Z</time>
      </trkpt>
      <trkpt lat="42.462192" lon="0.403649">
        <ele>795.6</ele>
        <time>2016-06-07T13:44:37Z</time>
      </trkpt>
      <trkpt lat="42.462046" lon="0.403305">
        <ele>794.2</ele>
        <time>2016-06-07T13:44:41Z</time>
      </trkpt>
      <trkpt lat="42.461582" lon="0.402525">
        <ele>790.3</ele>
        <time>2016-06-07T13:44:50Z</time>
      </trkpt>
      <trkpt lat="42.461156" lon="0.401924">
        <ele>787.0</ele>
        <time>2016-06-07T13:44:57Z</time>
      </trkpt>
      <trkpt lat="42.461029" lon="0.401736">
        <ele>786.0</ele>
        <time>2016-06-07T13:44:59Z</time>
      </trkpt>
      <trkpt lat="42.460655" lon="0.401009">
        <ele>782.7</ele>
        <time>2016-06-07T13:45:06Z</time>
      </trkpt>
      <trkpt lat="42.460346" lon="0.400501">
        <ele>779.8</ele>
        <time>2016-06-07T13:45:11Z</time>
      </trkpt>
      <trkpt lat="42.460233" lon="0.400282">
        <ele>778.8</ele>
        <time>2016-06-07T13:45:13Z</time>
      </trkpt>
      <trkpt lat="42.460041" lon="0.399976">
        <ele>776.9</ele>
        <time>2016-06-07T13:45:16Z</time>
      </trkpt>
      <trkpt lat="42.459629" lon="0.399597">
        <ele>774.0</ele>
        <time>2016-06-07T13:45:21Z</time>
      </trkpt>
      <trkpt lat="42.459139" lon="0.398923">
        <ele>770.2</ele>
        <time>2016-06-07T13:45:28Z</time>
      </trkpt>
      <trkpt lat="42.458733" lon="0.398167">
        <ele>766.8</ele>
        <time>2016-06-07T13:45:35Z</time>
      </trkpt>
      <trkpt lat="42.458379" lon="0.397541">
        <ele>763.4</ele>
        <time>2016-06-07T13:45:41Z</time>
      </trkpt>
      <trkpt lat="42.458020" lon="0.396746">
        <ele>760.1</ele>
        <time>2016-06-07T13:45:49Z</time>
      </trkpt>
      <trkpt lat="42.457524" lon="0.395324">
        <ele>758.1</ele>
        <time>2016-06-07T13:46:03Z</time>
      </trkpt>
      <trkpt lat="42.457390" lon="0.394985">
        <ele>757.7</ele>
        <time>2016-06-07T13:46:07Z</time>
      </trkpt>
      <trkpt lat="42.457118" lon="0.394283">
        <ele>756.7</ele>
        <time>2016-06-07T13:46:16Z</time>
      </trkpt>
      <trkpt lat="42.456903" lon="0.393592">
        <ele>756.2</ele>
        <time>2016-06-07T13:46:25Z</time>
      </trkpt>
      <trkpt lat="42.456874" lon="0.393118">
        <ele>755.7</ele>
        <time>2016-06-07T13:46:31Z</time>
      </trkpt>
      <trkpt lat="42.456570" lon="0.392167">
        <ele>754.8</ele>
        <time>2016-06-07T13:46:46Z</time>
      </trkpt>
      <trkpt lat="42.456530" lon="0.392024">
        <ele>754.8</ele>
        <time>2016-06-07T13:46:49Z</time>
      </trkpt>
      <trkpt lat="42.456366" lon="0.391564">
        <ele>757.2</ele>
        <time>2016-06-07T13:46:59Z</time>
      </trkpt>
      <trkpt lat="42.456257" lon="0.391404">
        <ele>757.2</ele>
        <time>2016-06-07T13:47:03Z</time>
      </trkpt>
      <trkpt lat="42.456103" lon="0.391271">
        <ele>756.7</ele>
        <time>2016-06-07T13:47:07Z</time>
      </trkpt>
      <trkpt lat="42.455332" lon="0.390656">
        <ele>754.3</ele>
        <time>2016-06-07T13:47:26Z</time>
      </trkpt>
      <trkpt lat="42.455123" lon="0.390523">
        <ele>753.8</ele>
        <time>2016-06-07T13:47:31Z</time>
      </trkpt>
      <trkpt lat="42.454662" lon="0.390037">
        <ele>752.9</ele>
        <time>2016-06-07T13:47:43Z</time>
      </trkpt>
      <trkpt lat="42.453889" lon="0.389350">
        <ele>750.5</ele>
        <time>2016-06-07T13:47:59Z</time>
      </trkpt>
      <trkpt lat="42.453848" lon="0.389303">
        <ele>750.5</ele>
        <time>2016-06-07T13:48:00Z</time>
      </trkpt>
      <trkpt lat="42.453683" lon="0.388948">
        <ele>750.5</ele>
        <time>2016-06-07T13:48:06Z</time>
      </trkpt>
      <trkpt lat="42.453473" lon="0.388239">
        <ele>750.0</ele>
        <time>2016-06-07T13:48:17Z</time>
      </trkpt>
      <trkpt lat="42.453406" lon="0.388077">
        <ele>750.0</ele>
        <time>2016-06-07T13:48:20Z</time>
      </trkpt>
      <trkpt lat="42.453019" lon="0.387574">
        <ele>750.0</ele>
        <time>2016-06-07T13:48:32Z</time>
      </trkpt>
      <trkpt lat="42.452702" lon="0.387392">
        <ele>749.5</ele>
        <time>2016-06-07T13:48:40Z</time>
      </trkpt>
      <trkpt lat="42.452176" lon="0.387491">
        <ele>749.5</ele>
        <time>2016-06-07T13:48:52Z</time>
      </trkpt>
      <trkpt lat="42.451863" lon="0.387786">
        <ele>749.5</ele>
        <time>2016-06-07T13:49:00Z</time>
      </trkpt>
      <trkpt lat="42.451572" lon="0.387983">
        <ele>749.0</ele>
        <time>2016-06-07T13:49:07Z</time>
      </trkpt>
      <trkpt lat="42.451519" lon="0.387996">
        <ele>749.0</ele>
        <time>2016-06-07T13:49:08Z</time>
      </trkpt>
      <trkpt lat="42.451472" lon="0.388000">
        <ele>749.0</ele>
        <time>2016-06-07T13:49:09Z</time>
      </trkpt>
      <trkpt lat="42.450979" lon="0.387930">
        <ele>749.0</ele>
        <time>2016-06-07T13:49:19Z</time>
      </trkpt>
      <trkpt lat="42.450711" lon="0.387665">
        <ele>749.0</ele>
        <time>2016-06-07T13:49:26Z</time>
      </trkpt>
      <trkpt lat="42.450298" lon="0.387112">
        <ele>749.0</ele>
        <time>2016-06-07T13:49:38Z</time>
      </trkpt>
      <trkpt lat="42.450188" lon="0.386819">
        <ele>750.5</ele>
        <time>2016-06-07T13:49:43Z</time>
      </trkpt>
      <trkpt lat="42.450105" lon="0.386593">
        <ele>750.9</ele>
        <time>2016-06-07T13:49:47Z</time>
      </trkpt>
      <trkpt lat="42.450113" lon="0.385611">
        <ele>750.9</ele>
        <time>2016-06-07T13:50:02Z</time>
      </trkpt>
      <trkpt lat="42.450117" lon="0.384901">
        <ele>750.0</ele>
        <time>2016-06-07T13:50:12Z</time>
      </trkpt>
      <trkpt lat="42.449950" lon="0.384218">
        <ele>747.1</ele>
        <time>2016-06-07T13:50:20Z</time>
      </trkpt>
      <trkpt lat="42.449885" lon="0.384040">
        <ele>746.6</ele>
        <time>2016-06-07T13:50:22Z</time>
      </trkpt>
      <trkpt lat="42.449703" lon="0.383740">
        <ele>744.7</ele>
        <time>2016-06-07T13:50:26Z</time>
      </trkpt>
      <trkpt lat="42.449318" lon="0.383521">
        <ele>742.8</ele>
        <time>2016-06-07T13:50:31Z</time>
      </trkpt>
      <trkpt lat="42.449207" lon="0.383480">
        <ele>742.3</ele>
        <time>2016-06-07T13:50:32Z</time>
      </trkpt>
      <trkpt lat="42.449123" lon="0.383466">
        <ele>742.3</ele>
        <time>2016-06-07T13:50:33Z</time>
      </trkpt>
      <trkpt lat="42.448452" lon="0.383429">
        <ele>743.2</ele>
        <time>2016-06-07T13:50:44Z</time>
      </trkpt>
      <trkpt lat="42.447890" lon="0.383462">
        <ele>745.6</ele>
        <time>2016-06-07T13:50:58Z</time>
      </trkpt>
      <trkpt lat="42.447369" lon="0.383508">
        <ele>747.6</ele>
        <time>2016-06-07T13:51:14Z</time>
      </trkpt>
      <trkpt lat="42.446835" lon="0.383393">
        <ele>749.0</ele>
        <time>2016-06-07T13:51:33Z</time>
      </trkpt>
      <trkpt lat="42.446446" lon="0.383248">
        <ele>751.4</ele>
        <time>2016-06-07T13:51:47Z</time>
      </trkpt>
      <trkpt lat="42.446072" lon="0.382937">
        <ele>751.9</ele>
        <time>2016-06-07T13:52:01Z</time>
      </trkpt>
      <trkpt lat="42.445565" lon="0.382607">
        <ele>752.9</ele>
        <time>2016-06-07T13:52:15Z</time>
      </trkpt>
      <trkpt lat="42.445480" lon="0.382596">
        <ele>752.9</ele>
        <time>2016-06-07T13:52:17Z</time>
      </trkpt>
      <trkpt lat="42.445391" lon="0.382601">
        <ele>752.9</ele>
        <time>2016-06-07T13:52:19Z</time>
      </trkpt>
      <trkpt lat="42.445230" lon="0.382669">
        <ele>751.4</ele>
        <time>2016-06-07T13:52:23Z</time>
      </trkpt>
      <trkpt lat="42.444964" lon="0.382971">
        <ele>749.5</ele>
        <time>2016-06-07T13:52:29Z</time>
      </trkpt>
      <trkpt lat="42.444875" lon="0.383123">
        <ele>747.6</ele>
        <time>2016-06-07T13:52:31Z</time>
      </trkpt>
      <trkpt lat="42.444790" lon="0.383528">
        <ele>745.6</ele>
        <time>2016-06-07T13:52:35Z</time>
      </trkpt>
      <trkpt lat="42.444764" lon="0.384205">
        <ele>743.2</ele>
        <time>2016-06-07T13:52:41Z</time>
      </trkpt>
      <trkpt lat="42.444540" lon="0.385139">
        <ele>739.4</ele>
        <time>2016-06-07T13:52:49Z</time>
      </trkpt>
      <trkpt lat="42.443901" lon="0.386343">
        <ele>735.6</ele>
        <time>2016-06-07T13:53:01Z</time>
      </trkpt>
      <trkpt lat="42.443215" lon="0.387332">
        <ele>732.2</ele>
        <time>2016-06-07T13:53:12Z</time>
      </trkpt>
      <trkpt lat="42.442720" lon="0.388319">
        <ele>730.7</ele>
        <time>2016-06-07T13:53:22Z</time>
      </trkpt>
      <trkpt lat="42.442491" lon="0.388622">
        <ele>730.7</ele>
        <time>2016-06-07T13:53:26Z</time>
      </trkpt>
      <trkpt lat="42.442146" lon="0.388811">
        <ele>730.3</ele>
        <time>2016-06-07T13:53:32Z</time>
      </trkpt>
      <trkpt lat="42.441534" lon="0.388825">
        <ele>727.9</ele>
        <time>2016-06-07T13:53:41Z</time>
      </trkpt>
      <trkpt lat="42.441418" lon="0.388787">
        <ele>727.9</ele>
        <time>2016-06-07T13:53:43Z</time>
      </trkpt>
      <trkpt lat="42.441288" lon="0.388700">
        <ele>727.4</ele>
        <time>2016-06-07T13:53:45Z</time>
      </trkpt>
      <trkpt lat="42.440833" lon="0.388247">
        <ele>725.5</ele>
        <time>2016-06-07T13:53:52Z</time>
      </trkpt>
      <trkpt lat="42.440646" lon="0.387856">
        <ele>725.5</ele>
        <time>2016-06-07T13:53:57Z</time>
      </trkpt>
      <trkpt lat="42.440611" lon="0.387701">
        <ele>725.9</ele>
        <time>2016-06-07T13:53:59Z</time>
      </trkpt>
      <trkpt lat="42.440526" lon="0.387476">
        <ele>725.9</ele>
        <time>2016-06-07T13:54:03Z</time>
      </trkpt>
      <trkpt lat="42.440388" lon="0.387325">
        <ele>725.9</ele>
        <time>2016-06-07T13:54:07Z</time>
      </trkpt>
      <trkpt lat="42.440129" lon="0.387054">
        <ele>726.9</ele>
        <time>2016-06-07T13:54:16Z</time>
      </trkpt>
      <trkpt lat="42.439640" lon="0.387068">
        <ele>727.4</ele>
        <time>2016-06-07T13:54:29Z</time>
      </trkpt>
      <trkpt lat="42.439130" lon="0.387256">
        <ele>727.4</ele>
        <time>2016-06-07T13:54:42Z</time>
      </trkpt>
      <trkpt lat="42.439052" lon="0.387256">
        <ele>727.9</ele>
        <time>2016-06-07T13:54:44Z</time>
      </trkpt>
      <trkpt lat="42.438565" lon="0.387112">
        <ele>729.3</ele>
        <time>2016-06-07T13:54:59Z</time>
      </trkpt>
      <trkpt lat="42.438188" lon="0.387100">
        <ele>730.3</ele>
        <time>2016-06-07T13:55:15Z</time>
      </trkpt>
      <trkpt lat="42.437911" lon="0.386853">
        <ele>732.7</ele>
        <time>2016-06-07T13:55:30Z</time>
      </trkpt>
      <trkpt lat="42.437838" lon="0.386766">
        <ele>733.6</ele>
        <time>2016-06-07T13:55:35Z</time>
      </trkpt>
      <trkpt lat="42.437677" lon="0.386642">
        <ele>735.6</ele>
        <time>2016-06-07T13:55:45Z</time>
      </trkpt>
      <trkpt lat="42.437635" lon="0.386615">
        <ele>735.6</ele>
        <time>2016-06-07T13:55:59Z</time>
      </trkpt>
      <trkpt lat="42.437406" lon="0.386661">
        <ele>737.0</ele>
        <time>2016-06-07T13:56:29Z</time>
      </trkpt>
      <trkpt lat="42.437140" lon="0.386665">
        <ele>739.9</ele>
        <time>2016-06-07T13:56:44Z</time>
      </trkpt>
      <trkpt lat="42.436798" lon="0.386590">
        <ele>742.3</ele>
        <time>2016-06-07T13:57:02Z</time>
      </trkpt>
      <trkpt lat="42.436515" lon="0.386637">
        <ele>745.2</ele>
        <time>2016-06-07T13:57:18Z</time>
      </trkpt>
      <trkpt lat="42.436194" lon="0.386790">
        <ele>747.6</ele>
        <time>2016-06-07T13:57:35Z</time>
      </trkpt>
      <trkpt lat="42.435816" lon="0.387071">
        <ele>749.0</ele>
        <time>2016-06-07T13:57:53Z</time>
      </trkpt>
      <trkpt lat="42.435429" lon="0.387078">
        <ele>749.0</ele>
        <time>2016-06-07T13:58:08Z</time>
      </trkpt>
      <trkpt lat="42.434811" lon="0.387530">
        <ele>750.5</ele>
        <time>2016-06-07T13:58:27Z</time>
      </trkpt>
      <trkpt lat="42.434416" lon="0.387667">
        <ele>751.9</ele>
        <time>2016-06-07T13:58:42Z</time>
      </trkpt>
      <trkpt lat="42.434133" lon="0.387656">
        <ele>753.3</ele>
        <time>2016-06-07T13:58:54Z</time>
      </trkpt>
      <trkpt lat="42.433780" lon="0.387585">
        <ele>754.8</ele>
        <time>2016-06-07T13:59:07Z</time>
      </trkpt>
      <trkpt lat="42.432774" lon="0.386483">
        <ele>760.1</ele>
        <time>2016-06-07T13:59:57Z</time>
      </trkpt>
      <trkpt lat="42.432523" lon="0.386052">
        <ele>762.0</ele>
        <time>2016-06-07T14:00:14Z</time>
      </trkpt>
      <trkpt lat="42.432288" lon="0.385642">
        <ele>762.9</ele>
        <time>2016-06-07T14:00:29Z</time>
      </trkpt>
      <trkpt lat="42.432055" lon="0.385111">
        <ele>763.9</ele>
        <time>2016-06-07T14:00:44Z</time>
      </trkpt>
      <trkpt lat="42.431802" lon="0.384636">
        <ele>764.9</ele>
        <time>2016-06-07T14:00:57Z</time>
      </trkpt>
      <trkpt lat="42.431522" lon="0.384693">
        <ele>763.4</ele>
        <time>2016-06-07T14:01:03Z</time>
      </trkpt>
      <trkpt lat="42.431076" lon="0.384635">
        <ele>760.1</ele>
        <time>2016-06-07T14:01:09Z</time>
      </trkpt>
      <trkpt lat="42.430913" lon="0.384524">
        <ele>759.1</ele>
        <time>2016-06-07T14:01:11Z</time>
      </trkpt>
      <trkpt lat="42.430799" lon="0.384424">
        <ele>758.1</ele>
        <time>2016-06-07T14:01:12Z</time>
      </trkpt>
      <trkpt lat="42.430651" lon="0.384233">
        <ele>756.2</ele>
        <time>2016-06-07T14:01:14Z</time>
      </trkpt>
      <trkpt lat="42.430313" lon="0.383916">
        <ele>752.9</ele>
        <time>2016-06-07T14:01:18Z</time>
      </trkpt>
      <trkpt lat="42.429980" lon="0.383708">
        <ele>749.5</ele>
        <time>2016-06-07T14:01:21Z</time>
      </trkpt>
      <trkpt lat="42.429740" lon="0.383623">
        <ele>747.6</ele>
        <time>2016-06-07T14:01:23Z</time>
      </trkpt>
      <trkpt lat="42.429266" lon="0.383661">
        <ele>744.2</ele>
        <time>2016-06-07T14:01:27Z</time>
      </trkpt>
      <trkpt lat="42.428830" lon="0.384240">
        <ele>739.9</ele>
        <time>2016-06-07T14:01:33Z</time>
      </trkpt>
      <trkpt lat="42.428720" lon="0.384909">
        <ele>737.0</ele>
        <time>2016-06-07T14:01:37Z</time>
      </trkpt>
      <trkpt lat="42.428714" lon="0.385061">
        <ele>736.5</ele>
        <time>2016-06-07T14:01:38Z</time>
      </trkpt>
      <trkpt lat="42.428725" lon="0.385309">
        <ele>735.6</ele>
        <time>2016-06-07T14:01:40Z</time>
      </trkpt>
      <trkpt lat="42.428537" lon="0.386084">
        <ele>731.7</ele>
        <time>2016-06-07T14:01:46Z</time>
      </trkpt>
      <trkpt lat="42.428451" lon="0.386142">
        <ele>731.7</ele>
        <time>2016-06-07T14:01:47Z</time>
      </trkpt>
      <trkpt lat="42.428359" lon="0.386178">
        <ele>731.2</ele>
        <time>2016-06-07T14:01:48Z</time>
      </trkpt>
      <trkpt lat="42.427732" lon="0.386525">
        <ele>726.9</ele>
        <time>2016-06-07T14:01:55Z</time>
      </trkpt>
      <trkpt lat="42.427279" lon="0.386975">
        <ele>723.5</ele>
        <time>2016-06-07T14:01:59Z</time>
      </trkpt>
      <trkpt lat="42.427181" lon="0.387063">
        <ele>722.6</ele>
        <time>2016-06-07T14:02:00Z</time>
      </trkpt>
      <trkpt lat="42.426976" lon="0.387193">
        <ele>721.6</ele>
        <time>2016-06-07T14:02:02Z</time>
      </trkpt>
      <trkpt lat="42.426872" lon="0.387250">
        <ele>720.7</ele>
        <time>2016-06-07T14:02:03Z</time>
      </trkpt>
      <trkpt lat="42.426756" lon="0.387290">
        <ele>719.7</ele>
        <time>2016-06-07T14:02:04Z</time>
      </trkpt>
      <trkpt lat="42.426643" lon="0.387316">
        <ele>718.7</ele>
        <time>2016-06-07T14:02:05Z</time>
      </trkpt>
      <trkpt lat="42.426356" lon="0.387207">
        <ele>716.3</ele>
        <time>2016-06-07T14:02:08Z</time>
      </trkpt>
      <trkpt lat="42.426249" lon="0.387187">
        <ele>715.4</ele>
        <time>2016-06-07T14:02:09Z</time>
      </trkpt>
      <trkpt lat="42.425647" lon="0.387438">
        <ele>711.0</ele>
        <time>2016-06-07T14:02:15Z</time>
      </trkpt>
      <trkpt lat="42.425333" lon="0.387637">
        <ele>708.2</ele>
        <time>2016-06-07T14:02:18Z</time>
      </trkpt>
      <trkpt lat="42.424750" lon="0.387898">
        <ele>704.3</ele>
        <time>2016-06-07T14:02:23Z</time>
      </trkpt>
      <trkpt lat="42.423793" lon="0.388422">
        <ele>700.9</ele>
        <time>2016-06-07T14:02:32Z</time>
      </trkpt>
      <trkpt lat="42.422719" lon="0.389149">
        <ele>699.5</ele>
        <time>2016-06-07T14:02:45Z</time>
      </trkpt>
      <trkpt lat="42.421626" lon="0.389823">
        <ele>698.5</ele>
        <time>2016-06-07T14:03:02Z</time>
      </trkpt>
      <trkpt lat="42.420671" lon="0.390424">
        <ele>697.6</ele>
        <time>2016-06-07T14:03:21Z</time>
      </trkpt>
      <trkpt lat="42.419906" lon="0.390909">
        <ele>696.6</ele>
        <time>2016-06-07T14:03:38Z</time>
      </trkpt>
      <trkpt lat="42.419105" lon="0.391597">
        <ele>698.1</ele>
        <time>2016-06-07T14:04:00Z</time>
      </trkpt>
      <trkpt lat="42.418379" lon="0.392172">
        <ele>698.5</ele>
        <time>2016-06-07T14:04:19Z</time>
      </trkpt>
      <trkpt lat="42.417739" lon="0.392670">
        <ele>698.5</ele>
        <time>2016-06-07T14:04:35Z</time>
      </trkpt>
      <trkpt lat="42.417607" lon="0.392771">
        <ele>697.1</ele>
        <time>2016-06-07T14:04:38Z</time>
      </trkpt>
      <trkpt lat="42.416771" lon="0.393318">
        <ele>693.7</ele>
        <time>2016-06-07T14:04:54Z</time>
      </trkpt>
      <trkpt lat="42.415849" lon="0.393650">
        <ele>690.8</ele>
        <time>2016-06-07T14:05:07Z</time>
      </trkpt>
      <trkpt lat="42.415272" lon="0.394161">
        <ele>690.4</ele>
        <time>2016-06-07T14:05:19Z</time>
      </trkpt>
      <trkpt lat="42.414414" lon="0.394456">
        <ele>690.4</ele>
        <time>2016-06-07T14:05:38Z</time>
      </trkpt>
      <trkpt lat="42.413562" lon="0.394585">
        <ele>688.4</ele>
        <time>2016-06-07T14:05:56Z</time>
      </trkpt>
      <trkpt lat="42.412706" lon="0.394865">
        <ele>688.0</ele>
        <time>2016-06-07T14:06:15Z</time>
      </trkpt>
      <trkpt lat="42.412001" lon="0.395029">
        <ele>687.5</ele>
        <time>2016-06-07T14:06:31Z</time>
      </trkpt>
      <trkpt lat="42.411362" lon="0.394896">
        <ele>687.5</ele>
        <time>2016-06-07T14:06:46Z</time>
      </trkpt>
      <trkpt lat="42.410761" lon="0.394737">
        <ele>687.5</ele>
        <time>2016-06-07T14:07:01Z</time>
      </trkpt>
      <trkpt lat="42.410113" lon="0.394465">
        <ele>689.9</ele>
        <time>2016-06-07T14:07:18Z</time>
      </trkpt>
      <trkpt lat="42.409533" lon="0.394073">
        <ele>691.3</ele>
        <time>2016-06-07T14:07:36Z</time>
      </trkpt>
      <trkpt lat="42.408972" lon="0.393909">
        <ele>692.3</ele>
        <time>2016-06-07T14:07:53Z</time>
      </trkpt>
      <trkpt lat="42.408428" lon="0.394107">
        <ele>695.7</ele>
        <time>2016-06-07T14:08:12Z</time>
      </trkpt>
      <trkpt lat="42.407980" lon="0.394306">
        <ele>696.1</ele>
        <time>2016-06-07T14:08:28Z</time>
      </trkpt>
      <trkpt lat="42.407512" lon="0.394521">
        <ele>697.1</ele>
        <time>2016-06-07T14:08:43Z</time>
      </trkpt>
      <trkpt lat="42.407795" lon="0.394763">
        <ele>695.2</ele>
        <time>2016-06-07T14:11:47Z</time>
      </trkpt>
      <trkpt lat="42.407947" lon="0.395488">
        <ele>697.6</ele>
        <time>2016-06-07T14:12:04Z</time>
      </trkpt>
      <trkpt lat="42.408244" lon="0.396131">
        <ele>698.5</ele>
        <time>2016-06-07T14:12:22Z</time>
      </trkpt>
      <trkpt lat="42.408409" lon="0.396110">
        <ele>699.0</ele>
        <time>2016-06-07T14:12:27Z</time>
      </trkpt>
      <trkpt lat="42.408518" lon="0.396315">
        <ele>699.0</ele>
        <time>2016-06-07T14:12:33Z</time>
      </trkpt>
      <trkpt lat="42.408633" lon="0.397217">
        <ele>700.9</ele>
        <time>2016-06-07T14:12:53Z</time>
      </trkpt>
      <trkpt lat="42.408668" lon="0.397802">
        <ele>701.9</ele>
        <time>2016-06-07T14:13:07Z</time>
      </trkpt>
      <trkpt lat="42.408332" lon="0.397955">
        <ele>701.9</ele>
        <time>2016-06-07T14:13:17Z</time>
      </trkpt>
      <trkpt lat="42.408213" lon="0.397991">
        <ele>701.9</ele>
        <time>2016-06-07T14:13:20Z</time>
      </trkpt>
      <trkpt lat="42.408030" lon="0.398100">
        <ele>700.5</ele>
        <time>2016-06-07T14:13:25Z</time>
      </trkpt>
      <trkpt lat="42.407942" lon="0.398117">
        <ele>700.5</ele>
        <time>2016-06-07T14:13:28Z</time>
      </trkpt>
      <trkpt lat="42.407915" lon="0.398066">
        <ele>700.5</ele>
        <time>2016-06-07T14:13:31Z</time>
      </trkpt>
      <trkpt lat="42.407924" lon="0.398154">
        <ele>703.3</ele>
        <time>2016-06-08T06:58:14Z</time>
      </trkpt>
      <trkpt lat="42.408026" lon="0.398122">
        <ele>703.3</ele>
        <time>2016-06-08T06:58:29Z</time>
      </trkpt>
      <trkpt lat="42.408270" lon="0.397978">
        <ele>703.3</ele>
        <time>2016-06-08T06:58:43Z</time>
      </trkpt>
      <trkpt lat="42.408595" lon="0.397843">
        <ele>704.3</ele>
        <time>2016-06-08T06:58:58Z</time>
      </trkpt>
      <trkpt lat="42.408666" lon="0.397489">
        <ele>704.3</ele>
        <time>2016-06-08T06:59:08Z</time>
      </trkpt>
      <trkpt lat="42.408609" lon="0.397047">
        <ele>703.3</ele>
        <time>2016-06-08T06:59:16Z</time>
      </trkpt>
      <trkpt lat="42.408516" lon="0.396385">
        <ele>701.9</ele>
        <time>2016-06-08T06:59:26Z</time>
      </trkpt>
      <trkpt lat="42.408277" lon="0.396089">
        <ele>700.9</ele>
        <time>2016-06-08T06:59:33Z</time>
      </trkpt>
      <trkpt lat="42.408024" lon="0.395873">
        <ele>700.0</ele>
        <time>2016-06-08T06:59:40Z</time>
      </trkpt>
      <trkpt lat="42.407773" lon="0.394634">
        <ele>697.1</ele>
        <time>2016-06-08T06:59:58Z</time>
      </trkpt>
      <trkpt lat="42.407782" lon="0.394488">
        <ele>696.1</ele>
        <time>2016-06-08T07:00:01Z</time>
      </trkpt>
      <trkpt lat="42.408226" lon="0.394264">
        <ele>695.7</ele>
        <time>2016-06-08T07:00:13Z</time>
      </trkpt>
      <trkpt lat="42.408776" lon="0.394003">
        <ele>693.7</ele>
        <time>2016-06-08T07:00:26Z</time>
      </trkpt>
      <trkpt lat="42.409389" lon="0.394056">
        <ele>691.3</ele>
        <time>2016-06-08T07:00:35Z</time>
      </trkpt>
      <trkpt lat="42.410369" lon="0.394667">
        <ele>689.4</ele>
        <time>2016-06-08T07:00:52Z</time>
      </trkpt>
      <trkpt lat="42.411260" lon="0.394917">
        <ele>688.0</ele>
        <time>2016-06-08T07:01:07Z</time>
      </trkpt>
      <trkpt lat="42.411960" lon="0.395089">
        <ele>687.5</ele>
        <time>2016-06-08T07:01:22Z</time>
      </trkpt>
      <trkpt lat="42.412579" lon="0.394971">
        <ele>687.5</ele>
        <time>2016-06-08T07:01:37Z</time>
      </trkpt>
      <trkpt lat="42.413220" lon="0.394754">
        <ele>687.5</ele>
        <time>2016-06-08T07:01:52Z</time>
      </trkpt>
      <trkpt lat="42.413892" lon="0.394586">
        <ele>687.5</ele>
        <time>2016-06-08T07:02:09Z</time>
      </trkpt>
      <trkpt lat="42.414169" lon="0.394548">
        <ele>688.9</ele>
        <time>2016-06-08T07:02:16Z</time>
      </trkpt>
      <trkpt lat="42.414885" lon="0.394374">
        <ele>689.4</ele>
        <time>2016-06-08T07:02:34Z</time>
      </trkpt>
      <trkpt lat="42.415656" lon="0.393844">
        <ele>689.9</ele>
        <time>2016-06-08T07:02:54Z</time>
      </trkpt>
      <trkpt lat="42.416336" lon="0.393469">
        <ele>690.4</ele>
        <time>2016-06-08T07:03:12Z</time>
      </trkpt>
      <trkpt lat="42.416876" lon="0.393327">
        <ele>693.3</ele>
        <time>2016-06-08T07:03:30Z</time>
      </trkpt>
      <trkpt lat="42.417448" lon="0.392939">
        <ele>695.7</ele>
        <time>2016-06-08T07:03:51Z</time>
      </trkpt>
      <trkpt lat="42.418024" lon="0.392493">
        <ele>697.1</ele>
        <time>2016-06-08T07:04:12Z</time>
      </trkpt>
      <trkpt lat="42.418538" lon="0.392092">
        <ele>698.1</ele>
        <time>2016-06-08T07:04:30Z</time>
      </trkpt>
      <trkpt lat="42.419211" lon="0.391551">
        <ele>697.6</ele>
        <time>2016-06-08T07:04:50Z</time>
      </trkpt>
      <trkpt lat="42.419281" lon="0.391492">
        <ele>697.6</ele>
        <time>2016-06-08T07:04:52Z</time>
      </trkpt>
      <trkpt lat="42.420045" lon="0.390815">
        <ele>695.7</ele>
        <time>2016-06-08T07:05:13Z</time>
      </trkpt>
      <trkpt lat="42.420173" lon="0.390707">
        <ele>695.7</ele>
        <time>2016-06-08T07:05:16Z</time>
      </trkpt>
      <trkpt lat="42.420790" lon="0.390415">
        <ele>695.2</ele>
        <time>2016-06-08T07:05:32Z</time>
      </trkpt>
      <trkpt lat="42.421555" lon="0.389918">
        <ele>696.6</ele>
        <time>2016-06-08T07:05:53Z</time>
      </trkpt>
      <trkpt lat="42.422224" lon="0.389550">
        <ele>697.6</ele>
        <time>2016-06-08T07:06:12Z</time>
      </trkpt>
      <trkpt lat="42.422908" lon="0.389108">
        <ele>698.5</ele>
        <time>2016-06-08T07:06:32Z</time>
      </trkpt>
      <trkpt lat="42.423553" lon="0.388669">
        <ele>699.0</ele>
        <time>2016-06-08T07:06:51Z</time>
      </trkpt>
      <trkpt lat="42.424121" lon="0.388365">
        <ele>700.0</ele>
        <time>2016-06-08T07:07:08Z</time>
      </trkpt>
      <trkpt lat="42.424729" lon="0.388033">
        <ele>701.9</ele>
        <time>2016-06-08T07:07:28Z</time>
      </trkpt>
      <trkpt lat="42.425177" lon="0.387833">
        <ele>704.3</ele>
        <time>2016-06-08T07:07:47Z</time>
      </trkpt>
      <trkpt lat="42.425440" lon="0.387605">
        <ele>706.7</ele>
        <time>2016-06-08T07:08:01Z</time>
      </trkpt>
      <trkpt lat="42.425851" lon="0.387332">
        <ele>708.2</ele>
        <time>2016-06-08T07:08:19Z</time>
      </trkpt>
      <trkpt lat="42.426105" lon="0.387079">
        <ele>705.8</ele>
        <time>2016-06-08T07:08:31Z</time>
      </trkpt>
      <trkpt lat="42.426032" lon="0.386642">
        <ele>703.3</ele>
        <time>2016-06-08T07:13:02Z</time>
      </trkpt>
      <trkpt lat="42.426067" lon="0.386258">
        <ele>703.3</ele>
        <time>2016-06-08T07:13:15Z</time>
      </trkpt>
      <trkpt lat="42.426147" lon="0.386151">
        <ele>704.8</ele>
        <time>2016-06-08T07:13:21Z</time>
      </trkpt>
      <trkpt lat="42.426396" lon="0.385985">
        <ele>707.2</ele>
        <time>2016-06-08T07:13:38Z</time>
      </trkpt>
      <trkpt lat="42.426631" lon="0.385771">
        <ele>709.6</ele>
        <time>2016-06-08T07:13:57Z</time>
      </trkpt>
      <trkpt lat="42.426782" lon="0.385520">
        <ele>711.5</ele>
        <time>2016-06-08T07:14:13Z</time>
      </trkpt>
      <trkpt lat="42.426671" lon="0.385503">
        <ele>713.4</ele>
        <time>2016-06-08T07:14:25Z</time>
      </trkpt>
      <trkpt lat="42.426496" lon="0.385710">
        <ele>715.4</ele>
        <time>2016-06-08T07:14:41Z</time>
      </trkpt>
      <trkpt lat="42.426215" lon="0.385821">
        <ele>717.3</ele>
        <time>2016-06-08T07:15:00Z</time>
      </trkpt>
      <trkpt lat="42.426030" lon="0.385904">
        <ele>718.7</ele>
        <time>2016-06-08T07:15:14Z</time>
      </trkpt>
      <trkpt lat="42.425849" lon="0.385973">
        <ele>721.1</ele>
        <time>2016-06-08T07:15:29Z</time>
      </trkpt>
      <trkpt lat="42.425689" lon="0.386054">
        <ele>723.1</ele>
        <time>2016-06-08T07:15:42Z</time>
      </trkpt>
      <trkpt lat="42.425570" lon="0.386098">
        <ele>724.0</ele>
        <time>2016-06-08T07:15:50Z</time>
      </trkpt>
      <trkpt lat="42.425392" lon="0.386177">
        <ele>725.5</ele>
        <time>2016-06-08T07:16:04Z</time>
      </trkpt>
      <trkpt lat="42.425275" lon="0.386180">
        <ele>726.9</ele>
        <time>2016-06-08T07:16:13Z</time>
      </trkpt>
      <trkpt lat="42.425066" lon="0.386245">
        <ele>729.8</ele>
        <time>2016-06-08T07:16:27Z</time>
      </trkpt>
      <trkpt lat="42.424920" lon="0.386260">
        <ele>730.3</ele>
        <time>2016-06-08T07:16:35Z</time>
      </trkpt>
      <trkpt lat="42.424709" lon="0.386328">
        <ele>732.2</ele>
        <time>2016-06-08T07:16:48Z</time>
      </trkpt>
      <trkpt lat="42.424522" lon="0.386378">
        <ele>734.6</ele>
        <time>2016-06-08T07:17:02Z</time>
      </trkpt>
      <trkpt lat="42.424340" lon="0.386331">
        <ele>737.0</ele>
        <time>2016-06-08T07:17:16Z</time>
      </trkpt>
      <trkpt lat="42.424195" lon="0.386125">
        <ele>738.4</ele>
        <time>2016-06-08T07:17:26Z</time>
      </trkpt>
      <trkpt lat="42.424208" lon="0.385765">
        <ele>740.4</ele>
        <time>2016-06-08T07:17:43Z</time>
      </trkpt>
      <trkpt lat="42.424034" lon="0.385758">
        <ele>742.3</ele>
        <time>2016-06-08T07:17:57Z</time>
      </trkpt>
      <trkpt lat="42.423899" lon="0.385910">
        <ele>743.7</ele>
        <time>2016-06-08T07:18:10Z</time>
      </trkpt>
      <trkpt lat="42.423839" lon="0.385959">
        <ele>744.7</ele>
        <time>2016-06-08T07:18:17Z</time>
      </trkpt>
      <trkpt lat="42.423792" lon="0.385975">
        <ele>745.2</ele>
        <time>2016-06-08T07:18:21Z</time>
      </trkpt>
      <trkpt lat="42.423557" lon="0.386093">
        <ele>747.1</ele>
        <time>2016-06-08T07:18:37Z</time>
      </trkpt>
      <trkpt lat="42.423308" lon="0.386134">
        <ele>749.0</ele>
        <time>2016-06-08T07:18:51Z</time>
      </trkpt>
      <trkpt lat="42.423291" lon="0.385885">
        <ele>752.4</ele>
        <time>2016-06-08T07:19:08Z</time>
      </trkpt>
      <trkpt lat="42.423417" lon="0.385723">
        <ele>754.3</ele>
        <time>2016-06-08T07:19:21Z</time>
      </trkpt>
      <trkpt lat="42.423471" lon="0.385677">
        <ele>754.8</ele>
        <time>2016-06-08T07:19:25Z</time>
      </trkpt>
      <trkpt lat="42.423665" lon="0.385459">
        <ele>757.2</ele>
        <time>2016-06-08T07:19:42Z</time>
      </trkpt>
      <trkpt lat="42.423827" lon="0.385199">
        <ele>759.6</ele>
        <time>2016-06-08T07:19:59Z</time>
      </trkpt>
      <trkpt lat="42.423990" lon="0.384963">
        <ele>762.5</ele>
        <time>2016-06-08T07:20:16Z</time>
      </trkpt>
      <trkpt lat="42.424192" lon="0.384854">
        <ele>764.4</ele>
        <time>2016-06-08T07:20:32Z</time>
      </trkpt>
      <trkpt lat="42.424390" lon="0.384710">
        <ele>766.8</ele>
        <time>2016-06-08T07:20:48Z</time>
      </trkpt>
      <trkpt lat="42.424606" lon="0.384548">
        <ele>769.7</ele>
        <time>2016-06-08T07:21:05Z</time>
      </trkpt>
      <trkpt lat="42.424831" lon="0.384470">
        <ele>772.1</ele>
        <time>2016-06-08T07:21:21Z</time>
      </trkpt>
      <trkpt lat="42.425052" lon="0.384312">
        <ele>775.0</ele>
        <time>2016-06-08T07:21:40Z</time>
      </trkpt>
      <trkpt lat="42.425097" lon="0.384272">
        <ele>775.4</ele>
        <time>2016-06-08T07:21:44Z</time>
      </trkpt>
      <trkpt lat="42.425312" lon="0.384200">
        <ele>777.4</ele>
        <time>2016-06-08T07:22:00Z</time>
      </trkpt>
      <trkpt lat="42.425521" lon="0.384131">
        <ele>779.8</ele>
        <time>2016-06-08T07:22:15Z</time>
      </trkpt>
      <trkpt lat="42.425736" lon="0.384049">
        <ele>781.7</ele>
        <time>2016-06-08T07:22:31Z</time>
      </trkpt>
      <trkpt lat="42.425927" lon="0.384004">
        <ele>784.1</ele>
        <time>2016-06-08T07:22:45Z</time>
      </trkpt>
      <trkpt lat="42.426210" lon="0.383895">
        <ele>787.0</ele>
        <time>2016-06-08T07:23:05Z</time>
      </trkpt>
      <trkpt lat="42.426432" lon="0.383824">
        <ele>789.4</ele>
        <time>2016-06-08T07:23:21Z</time>
      </trkpt>
      <trkpt lat="42.426639" lon="0.383555">
        <ele>792.3</ele>
        <time>2016-06-08T07:23:41Z</time>
      </trkpt>
      <trkpt lat="42.426513" lon="0.383291">
        <ele>793.2</ele>
        <time>2016-06-08T07:23:56Z</time>
      </trkpt>
      <trkpt lat="42.426328" lon="0.383030">
        <ele>794.7</ele>
        <time>2016-06-08T07:24:13Z</time>
      </trkpt>
      <trkpt lat="42.426146" lon="0.382780">
        <ele>795.2</ele>
        <time>2016-06-08T07:24:28Z</time>
      </trkpt>
      <trkpt lat="42.425932" lon="0.382469">
        <ele>795.6</ele>
        <time>2016-06-08T07:24:44Z</time>
      </trkpt>
      <trkpt lat="42.425789" lon="0.382072">
        <ele>796.6</ele>
        <time>2016-06-08T07:25:01Z</time>
      </trkpt>
      <trkpt lat="42.425771" lon="0.381526">
        <ele>797.6</ele>
        <time>2016-06-08T07:25:21Z</time>
      </trkpt>
      <trkpt lat="42.425708" lon="0.381099">
        <ele>798.0</ele>
        <time>2016-06-08T07:25:37Z</time>
      </trkpt>
      <trkpt lat="42.425582" lon="0.380580">
        <ele>799.5</ele>
        <time>2016-06-08T07:25:57Z</time>
      </trkpt>
      <trkpt lat="42.425419" lon="0.380305">
        <ele>801.4</ele>
        <time>2016-06-08T07:26:12Z</time>
      </trkpt>
      <trkpt lat="42.425207" lon="0.380263">
        <ele>802.8</ele>
        <time>2016-06-08T07:26:26Z</time>
      </trkpt>
      <trkpt lat="42.424921" lon="0.380339">
        <ele>805.2</ele>
        <time>2016-06-08T07:26:45Z</time>
      </trkpt>
      <trkpt lat="42.424723" lon="0.380089">
        <ele>807.6</ele>
        <time>2016-06-08T07:27:02Z</time>
      </trkpt>
      <trkpt lat="42.424665" lon="0.379966">
        <ele>808.6</ele>
        <time>2016-06-08T07:27:09Z</time>
      </trkpt>
      <trkpt lat="42.424645" lon="0.379886">
        <ele>809.1</ele>
        <time>2016-06-08T07:27:13Z</time>
      </trkpt>
      <trkpt lat="42.424667" lon="0.379553">
        <ele>811.0</ele>
        <time>2016-06-08T07:27:30Z</time>
      </trkpt>
      <trkpt lat="42.424871" lon="0.379268">
        <ele>812.9</ele>
        <time>2016-06-08T07:27:48Z</time>
      </trkpt>
      <trkpt lat="42.424887" lon="0.378903">
        <ele>814.9</ele>
        <time>2016-06-08T07:28:06Z</time>
      </trkpt>
      <trkpt lat="42.424860" lon="0.378519">
        <ele>817.3</ele>
        <time>2016-06-08T07:28:25Z</time>
      </trkpt>
      <trkpt lat="42.424843" lon="0.378123">
        <ele>819.7</ele>
        <time>2016-06-08T07:28:44Z</time>
      </trkpt>
      <trkpt lat="42.424955" lon="0.377770">
        <ele>821.6</ele>
        <time>2016-06-08T07:29:02Z</time>
      </trkpt>
      <trkpt lat="42.425080" lon="0.377446">
        <ele>823.5</ele>
        <time>2016-06-08T07:29:19Z</time>
      </trkpt>
      <trkpt lat="42.425222" lon="0.377055">
        <ele>826.4</ele>
        <time>2016-06-08T07:29:41Z</time>
      </trkpt>
      <trkpt lat="42.425167" lon="0.376738">
        <ele>827.8</ele>
        <time>2016-06-08T07:29:57Z</time>
      </trkpt>
      <trkpt lat="42.425186" lon="0.376432">
        <ele>830.2</ele>
        <time>2016-06-08T07:30:12Z</time>
      </trkpt>
      <trkpt lat="42.425415" lon="0.376277">
        <ele>831.7</ele>
        <time>2016-06-08T07:30:28Z</time>
      </trkpt>
      <trkpt lat="42.425596" lon="0.376028">
        <ele>833.6</ele>
        <time>2016-06-08T07:30:45Z</time>
      </trkpt>
      <trkpt lat="42.425565" lon="0.375652">
        <ele>835.5</ele>
        <time>2016-06-08T07:31:04Z</time>
      </trkpt>
      <trkpt lat="42.425298" lon="0.375478">
        <ele>837.9</ele>
        <time>2016-06-08T07:31:23Z</time>
      </trkpt>
      <trkpt lat="42.425088" lon="0.375316">
        <ele>837.9</ele>
        <time>2016-06-08T07:31:37Z</time>
      </trkpt>
      <trkpt lat="42.425147" lon="0.374957">
        <ele>838.4</ele>
        <time>2016-06-08T07:31:53Z</time>
      </trkpt>
      <trkpt lat="42.425396" lon="0.374777">
        <ele>840.3</ele>
        <time>2016-06-08T07:32:10Z</time>
      </trkpt>
      <trkpt lat="42.425651" lon="0.374694">
        <ele>842.7</ele>
        <time>2016-06-08T07:32:27Z</time>
      </trkpt>
      <trkpt lat="42.425791" lon="0.374964">
        <ele>844.2</ele>
        <time>2016-06-08T07:32:43Z</time>
      </trkpt>
      <trkpt lat="42.426003" lon="0.374927">
        <ele>846.6</ele>
        <time>2016-06-08T07:32:58Z</time>
      </trkpt>
      <trkpt lat="42.426097" lon="0.374650">
        <ele>848.0</ele>
        <time>2016-06-08T07:33:13Z</time>
      </trkpt>
      <trkpt lat="42.426252" lon="0.374370">
        <ele>850.4</ele>
        <time>2016-06-08T07:33:30Z</time>
      </trkpt>
      <trkpt lat="42.426462" lon="0.374164">
        <ele>853.3</ele>
        <time>2016-06-08T07:33:48Z</time>
      </trkpt>
      <trkpt lat="42.426662" lon="0.373945">
        <ele>856.2</ele>
        <time>2016-06-08T07:34:06Z</time>
      </trkpt>
      <trkpt lat="42.426755" lon="0.373621">
        <ele>858.6</ele>
        <time>2016-06-08T07:34:24Z</time>
      </trkpt>
      <trkpt lat="42.426891" lon="0.373368">
        <ele>861.5</ele>
        <time>2016-06-08T07:34:40Z</time>
      </trkpt>
      <trkpt lat="42.427022" lon="0.373096">
        <ele>863.4</ele>
        <time>2016-06-08T07:34:56Z</time>
      </trkpt>
      <trkpt lat="42.427161" lon="0.372793">
        <ele>865.3</ele>
        <time>2016-06-08T07:35:13Z</time>
      </trkpt>
      <trkpt lat="42.427273" lon="0.372578">
        <ele>866.3</ele>
        <time>2016-06-08T07:35:26Z</time>
      </trkpt>
      <trkpt lat="42.427507" lon="0.372531">
        <ele>867.7</ele>
        <time>2016-06-08T07:35:41Z</time>
      </trkpt>
      <trkpt lat="42.427865" lon="0.372499">
        <ele>869.2</ele>
        <time>2016-06-08T07:36:02Z</time>
      </trkpt>
      <trkpt lat="42.428199" lon="0.372412">
        <ele>871.1</ele>
        <time>2016-06-08T07:36:23Z</time>
      </trkpt>
      <trkpt lat="42.428373" lon="0.372229">
        <ele>872.5</ele>
        <time>2016-06-08T07:36:37Z</time>
      </trkpt>
      <trkpt lat="42.428523" lon="0.371927">
        <ele>874.5</ele>
        <time>2016-06-08T07:36:54Z</time>
      </trkpt>
      <trkpt lat="42.428682" lon="0.371677">
        <ele>876.9</ele>
        <time>2016-06-08T07:37:11Z</time>
      </trkpt>
      <trkpt lat="42.428774" lon="0.371487">
        <ele>878.8</ele>
        <time>2016-06-08T07:37:22Z</time>
      </trkpt>
      <trkpt lat="42.428832" lon="0.371431">
        <ele>878.8</ele>
        <time>2016-06-08T07:37:27Z</time>
      </trkpt>
      <trkpt lat="42.428976" lon="0.371234">
        <ele>881.7</ele>
        <time>2016-06-08T07:37:42Z</time>
      </trkpt>
      <trkpt lat="42.429116" lon="0.371119">
        <ele>883.1</ele>
        <time>2016-06-08T07:37:53Z</time>
      </trkpt>
      <trkpt lat="42.429292" lon="0.370992">
        <ele>885.0</ele>
        <time>2016-06-08T07:38:07Z</time>
      </trkpt>
      <trkpt lat="42.429453" lon="0.370722">
        <ele>887.4</ele>
        <time>2016-06-08T07:38:24Z</time>
      </trkpt>
      <trkpt lat="42.429527" lon="0.370563">
        <ele>888.4</ele>
        <time>2016-06-08T07:38:33Z</time>
      </trkpt>
      <trkpt lat="42.429585" lon="0.370529">
        <ele>888.9</ele>
        <time>2016-06-08T07:38:37Z</time>
      </trkpt>
      <trkpt lat="42.429824" lon="0.370523">
        <ele>890.8</ele>
        <time>2016-06-08T07:38:52Z</time>
      </trkpt>
      <trkpt lat="42.430100" lon="0.370422">
        <ele>893.7</ele>
        <time>2016-06-08T07:39:11Z</time>
      </trkpt>
      <trkpt lat="42.430326" lon="0.370150">
        <ele>895.1</ele>
        <time>2016-06-08T07:39:29Z</time>
      </trkpt>
      <trkpt lat="42.430454" lon="0.369750">
        <ele>894.6</ele>
        <time>2016-06-08T07:39:43Z</time>
      </trkpt>
      <trkpt lat="42.430478" lon="0.369457">
        <ele>893.7</ele>
        <time>2016-06-08T07:39:48Z</time>
      </trkpt>
      <trkpt lat="42.430484" lon="0.369381">
        <ele>893.2</ele>
        <time>2016-06-08T07:39:49Z</time>
      </trkpt>
      <trkpt lat="42.430542" lon="0.368874">
        <ele>891.3</ele>
        <time>2016-06-08T07:39:55Z</time>
      </trkpt>
      <trkpt lat="42.430526" lon="0.368644">
        <ele>889.8</ele>
        <time>2016-06-08T07:39:58Z</time>
      </trkpt>
      <trkpt lat="42.430788" lon="0.368468">
        <ele>887.0</ele>
        <time>2016-06-08T07:40:04Z</time>
      </trkpt>
      <trkpt lat="42.430854" lon="0.368476">
        <ele>887.0</ele>
        <time>2016-06-08T07:40:05Z</time>
      </trkpt>
      <trkpt lat="42.431023" lon="0.368351">
        <ele>885.5</ele>
        <time>2016-06-08T07:40:08Z</time>
      </trkpt>
      <trkpt lat="42.431055" lon="0.368278">
        <ele>885.5</ele>
        <time>2016-06-08T07:40:09Z</time>
      </trkpt>
      <trkpt lat="42.431184" lon="0.367674">
        <ele>887.0</ele>
        <time>2016-06-08T07:40:22Z</time>
      </trkpt>
      <trkpt lat="42.431388" lon="0.367594">
        <ele>887.9</ele>
        <time>2016-06-08T07:40:35Z</time>
      </trkpt>
      <trkpt lat="42.431585" lon="0.367808">
        <ele>889.8</ele>
        <time>2016-06-08T07:40:50Z</time>
      </trkpt>
      <trkpt lat="42.431838" lon="0.367612">
        <ele>891.8</ele>
        <time>2016-06-08T07:41:07Z</time>
      </trkpt>
      <trkpt lat="42.431941" lon="0.367226">
        <ele>892.7</ele>
        <time>2016-06-08T07:41:24Z</time>
      </trkpt>
      <trkpt lat="42.432106" lon="0.366888">
        <ele>893.7</ele>
        <time>2016-06-08T07:41:41Z</time>
      </trkpt>
      <trkpt lat="42.432359" lon="0.366955">
        <ele>894.2</ele>
        <time>2016-06-08T07:41:53Z</time>
      </trkpt>
      <trkpt lat="42.432414" lon="0.367247">
        <ele>894.2</ele>
        <time>2016-06-08T07:42:06Z</time>
      </trkpt>
      <trkpt lat="42.432488" lon="0.367717">
        <ele>894.6</ele>
        <time>2016-06-08T07:42:25Z</time>
      </trkpt>
      <trkpt lat="42.432608" lon="0.368049">
        <ele>896.1</ele>
        <time>2016-06-08T07:42:42Z</time>
      </trkpt>
      <trkpt lat="42.432857" lon="0.368258">
        <ele>898.5</ele>
        <time>2016-06-08T07:43:01Z</time>
      </trkpt>
      <trkpt lat="42.433113" lon="0.368373">
        <ele>900.9</ele>
        <time>2016-06-08T07:43:19Z</time>
      </trkpt>
      <trkpt lat="42.433382" lon="0.368348">
        <ele>903.3</ele>
        <time>2016-06-08T07:43:37Z</time>
      </trkpt>
      <trkpt lat="42.433587" lon="0.368137">
        <ele>906.2</ele>
        <time>2016-06-08T07:43:55Z</time>
      </trkpt>
      <trkpt lat="42.433806" lon="0.367872">
        <ele>908.1</ele>
        <time>2016-06-08T07:44:14Z</time>
      </trkpt>
      <trkpt lat="42.433994" lon="0.367521">
        <ele>911.0</ele>
        <time>2016-06-08T07:44:35Z</time>
      </trkpt>
      <trkpt lat="42.434041" lon="0.367254">
        <ele>912.4</ele>
        <time>2016-06-08T07:44:49Z</time>
      </trkpt>
      <trkpt lat="42.434035" lon="0.366965">
        <ele>914.4</ele>
        <time>2016-06-08T07:45:03Z</time>
      </trkpt>
      <trkpt lat="42.434116" lon="0.366675">
        <ele>916.3</ele>
        <time>2016-06-08T07:45:19Z</time>
      </trkpt>
      <trkpt lat="42.434171" lon="0.366518">
        <ele>917.2</ele>
        <time>2016-06-08T07:45:28Z</time>
      </trkpt>
      <trkpt lat="42.434224" lon="0.366361">
        <ele>918.7</ele>
        <time>2016-06-08T07:45:37Z</time>
      </trkpt>
      <trkpt lat="42.434218" lon="0.366287">
        <ele>919.6</ele>
        <time>2016-06-08T07:45:41Z</time>
      </trkpt>
      <trkpt lat="42.434231" lon="0.366128">
        <ele>921.1</ele>
        <time>2016-06-08T07:45:50Z</time>
      </trkpt>
      <trkpt lat="42.434141" lon="0.365876">
        <ele>924.0</ele>
        <time>2016-06-08T07:46:07Z</time>
      </trkpt>
      <trkpt lat="42.434111" lon="0.365816">
        <ele>924.5</ele>
        <time>2016-06-08T07:47:22Z</time>
      </trkpt>
      <trkpt lat="42.434078" lon="0.365768">
        <ele>924.5</ele>
        <time>2016-06-08T07:47:26Z</time>
      </trkpt>
      <trkpt lat="42.434002" lon="0.365431">
        <ele>925.4</ele>
        <time>2016-06-08T07:47:42Z</time>
      </trkpt>
      <trkpt lat="42.434093" lon="0.365094">
        <ele>926.9</ele>
        <time>2016-06-08T07:47:59Z</time>
      </trkpt>
      <trkpt lat="42.434198" lon="0.364765">
        <ele>929.3</ele>
        <time>2016-06-08T07:48:17Z</time>
      </trkpt>
      <trkpt lat="42.434283" lon="0.364433">
        <ele>931.2</ele>
        <time>2016-06-08T07:48:34Z</time>
      </trkpt>
      <trkpt lat="42.434441" lon="0.364149">
        <ele>932.1</ele>
        <time>2016-06-08T07:48:50Z</time>
      </trkpt>
      <trkpt lat="42.434667" lon="0.363743">
        <ele>932.6</ele>
        <time>2016-06-08T07:49:11Z</time>
      </trkpt>
      <trkpt lat="42.434895" lon="0.363513">
        <ele>933.1</ele>
        <time>2016-06-08T07:49:27Z</time>
      </trkpt>
      <trkpt lat="42.434897" lon="0.363205">
        <ele>933.1</ele>
        <time>2016-06-08T07:49:39Z</time>
      </trkpt>
      <trkpt lat="42.434649" lon="0.363113">
        <ele>935.0</ele>
        <time>2016-06-08T07:49:56Z</time>
      </trkpt>
      <trkpt lat="42.434493" lon="0.362889">
        <ele>936.9</ele>
        <time>2016-06-08T07:50:12Z</time>
      </trkpt>
      <trkpt lat="42.434544" lon="0.362558">
        <ele>939.4</ele>
        <time>2016-06-08T07:50:29Z</time>
      </trkpt>
      <trkpt lat="42.434502" lon="0.362259">
        <ele>942.2</ele>
        <time>2016-06-08T07:50:46Z</time>
      </trkpt>
      <trkpt lat="42.434473" lon="0.362140">
        <ele>943.2</ele>
        <time>2016-06-08T07:50:53Z</time>
      </trkpt>
      <trkpt lat="42.434357" lon="0.361772">
        <ele>946.1</ele>
        <time>2016-06-08T07:51:14Z</time>
      </trkpt>
      <trkpt lat="42.434258" lon="0.361488">
        <ele>948.5</ele>
        <time>2016-06-08T07:51:31Z</time>
      </trkpt>
      <trkpt lat="42.434380" lon="0.361258">
        <ele>950.9</ele>
        <time>2016-06-08T07:51:47Z</time>
      </trkpt>
      <trkpt lat="42.434559" lon="0.361441">
        <ele>952.8</ele>
        <time>2016-06-08T07:52:03Z</time>
      </trkpt>
      <trkpt lat="42.434747" lon="0.361758">
        <ele>954.3</ele>
        <time>2016-06-08T07:52:23Z</time>
      </trkpt>
      <trkpt lat="42.434788" lon="0.361816">
        <ele>954.7</ele>
        <time>2016-06-08T07:52:27Z</time>
      </trkpt>
      <trkpt lat="42.435030" lon="0.361913">
        <ele>956.7</ele>
        <time>2016-06-08T07:52:45Z</time>
      </trkpt>
      <trkpt lat="42.435265" lon="0.362065">
        <ele>958.6</ele>
        <time>2016-06-08T07:53:03Z</time>
      </trkpt>
      <trkpt lat="42.435470" lon="0.362184">
        <ele>961.0</ele>
        <time>2016-06-08T07:53:20Z</time>
      </trkpt>
      <trkpt lat="42.435532" lon="0.361962">
        <ele>963.4</ele>
        <time>2016-06-08T07:53:34Z</time>
      </trkpt>
      <trkpt lat="42.435366" lon="0.361822">
        <ele>964.8</ele>
        <time>2016-06-08T07:53:49Z</time>
      </trkpt>
      <trkpt lat="42.435205" lon="0.361737">
        <ele>966.7</ele>
        <time>2016-06-08T07:54:01Z</time>
      </trkpt>
      <trkpt lat="42.435033" lon="0.361489">
        <ele>969.6</ele>
        <time>2016-06-08T07:54:20Z</time>
      </trkpt>
      <trkpt lat="42.435061" lon="0.361139">
        <ele>972.0</ele>
        <time>2016-06-08T07:54:39Z</time>
      </trkpt>
      <trkpt lat="42.435093" lon="0.360789">
        <ele>974.9</ele>
        <time>2016-06-08T07:54:59Z</time>
      </trkpt>
      <trkpt lat="42.435041" lon="0.360517">
        <ele>976.8</ele>
        <time>2016-06-08T07:55:15Z</time>
      </trkpt>
      <trkpt lat="42.435038" lon="0.360163">
        <ele>979.7</ele>
        <time>2016-06-08T07:55:34Z</time>
      </trkpt>
      <trkpt lat="42.435152" lon="0.359860">
        <ele>982.1</ele>
        <time>2016-06-08T07:55:53Z</time>
      </trkpt>
      <trkpt lat="42.435330" lon="0.359632">
        <ele>984.5</ele>
        <time>2016-06-08T07:56:11Z</time>
      </trkpt>
      <trkpt lat="42.435547" lon="0.359413">
        <ele>986.9</ele>
        <time>2016-06-08T07:56:31Z</time>
      </trkpt>
      <trkpt lat="42.435711" lon="0.359238">
        <ele>989.3</ele>
        <time>2016-06-08T07:56:47Z</time>
      </trkpt>
      <trkpt lat="42.435832" lon="0.358935">
        <ele>992.2</ele>
        <time>2016-06-08T07:57:05Z</time>
      </trkpt>
      <trkpt lat="42.435971" lon="0.358653">
        <ele>994.1</ele>
        <time>2016-06-08T07:57:23Z</time>
      </trkpt>
      <trkpt lat="42.436187" lon="0.358427">
        <ele>997.5</ele>
        <time>2016-06-08T07:57:43Z</time>
      </trkpt>
      <trkpt lat="42.436369" lon="0.358173">
        <ele>999.4</ele>
        <time>2016-06-08T07:58:02Z</time>
      </trkpt>
      <trkpt lat="42.436536" lon="0.357874">
        <ele>1001.4</ele>
        <time>2016-06-08T07:58:21Z</time>
      </trkpt>
      <trkpt lat="42.436573" lon="0.357503">
        <ele>1004.2</ele>
        <time>2016-06-08T07:58:41Z</time>
      </trkpt>
      <trkpt lat="42.436454" lon="0.357265">
        <ele>1005.7</ele>
        <time>2016-06-08T07:58:55Z</time>
      </trkpt>
      <trkpt lat="42.436390" lon="0.356961">
        <ele>1007.6</ele>
        <time>2016-06-08T07:59:11Z</time>
      </trkpt>
      <trkpt lat="42.436375" lon="0.356576">
        <ele>1009.0</ele>
        <time>2016-06-08T07:59:30Z</time>
      </trkpt>
      <trkpt lat="42.436544" lon="0.356363">
        <ele>1011.0</ele>
        <time>2016-06-08T07:59:46Z</time>
      </trkpt>
      <trkpt lat="42.436717" lon="0.356264">
        <ele>1012.9</ele>
        <time>2016-06-08T08:00:00Z</time>
      </trkpt>
      <trkpt lat="42.436817" lon="0.356235">
        <ele>1014.8</ele>
        <time>2016-06-08T08:00:08Z</time>
      </trkpt>
      <trkpt lat="42.436867" lon="0.356229">
        <ele>1015.3</ele>
        <time>2016-06-08T08:00:12Z</time>
      </trkpt>
      <trkpt lat="42.437102" lon="0.356079">
        <ele>1017.7</ele>
        <time>2016-06-08T08:00:31Z</time>
      </trkpt>
      <trkpt lat="42.437186" lon="0.355919">
        <ele>1019.1</ele>
        <time>2016-06-08T08:00:42Z</time>
      </trkpt>
      <trkpt lat="42.437251" lon="0.355619">
        <ele>1021.5</ele>
        <time>2016-06-08T08:00:59Z</time>
      </trkpt>
      <trkpt lat="42.437242" lon="0.355329">
        <ele>1023.5</ele>
        <time>2016-06-08T08:01:14Z</time>
      </trkpt>
      <trkpt lat="42.437072" lon="0.355040">
        <ele>1024.9</ele>
        <time>2016-06-08T08:01:31Z</time>
      </trkpt>
      <trkpt lat="42.436981" lon="0.354763">
        <ele>1024.9</ele>
        <time>2016-06-08T08:01:44Z</time>
      </trkpt>
      <trkpt lat="42.437187" lon="0.354638">
        <ele>1025.9</ele>
        <time>2016-06-08T08:01:57Z</time>
      </trkpt>
      <trkpt lat="42.437278" lon="0.354634">
        <ele>1025.9</ele>
        <time>2016-06-08T08:02:01Z</time>
      </trkpt>
      <trkpt lat="42.437385" lon="0.354611">
        <ele>1025.9</ele>
        <time>2016-06-08T08:02:06Z</time>
      </trkpt>
      <trkpt lat="42.437636" lon="0.354228">
        <ele>1024.4</ele>
        <time>2016-06-08T08:02:18Z</time>
      </trkpt>
      <trkpt lat="42.437978" lon="0.354115">
        <ele>1023.0</ele>
        <time>2016-06-08T08:02:25Z</time>
      </trkpt>
      <trkpt lat="42.438356" lon="0.353913">
        <ele>1021.1</ele>
        <time>2016-06-08T08:02:32Z</time>
      </trkpt>
      <trkpt lat="42.438415" lon="0.353626">
        <ele>1021.5</ele>
        <time>2016-06-08T08:02:35Z</time>
      </trkpt>
      <trkpt lat="42.438430" lon="0.353428">
        <ele>1019.6</ele>
        <time>2016-06-08T08:02:37Z</time>
      </trkpt>
      <trkpt lat="42.438538" lon="0.353059">
        <ele>1019.1</ele>
        <time>2016-06-08T08:02:41Z</time>
      </trkpt>
      <trkpt lat="42.438957" lon="0.352860">
        <ele>1019.1</ele>
        <time>2016-06-08T08:02:49Z</time>
      </trkpt>
      <trkpt lat="42.439057" lon="0.352892">
        <ele>1019.1</ele>
        <time>2016-06-08T08:02:51Z</time>
      </trkpt>
      <trkpt lat="42.439494" lon="0.352656">
        <ele>1016.3</ele>
        <time>2016-06-08T08:02:59Z</time>
      </trkpt>
      <trkpt lat="42.439593" lon="0.352225">
        <ele>1013.4</ele>
        <time>2016-06-08T08:03:03Z</time>
      </trkpt>
      <trkpt lat="42.439516" lon="0.351684">
        <ele>1009.5</ele>
        <time>2016-06-08T08:03:08Z</time>
      </trkpt>
      <trkpt lat="42.439531" lon="0.351264">
        <ele>1005.7</ele>
        <time>2016-06-08T08:03:12Z</time>
      </trkpt>
      <trkpt lat="42.439670" lon="0.350940">
        <ele>1003.8</ele>
        <time>2016-06-08T08:03:15Z</time>
      </trkpt>
      <trkpt lat="42.439763" lon="0.350597">
        <ele>1002.3</ele>
        <time>2016-06-08T08:03:18Z</time>
      </trkpt>
      <trkpt lat="42.439745" lon="0.350342">
        <ele>1001.4</ele>
        <time>2016-06-08T08:03:20Z</time>
      </trkpt>
      <trkpt lat="42.439710" lon="0.350177">
        <ele>1000.4</ele>
        <time>2016-06-08T08:03:21Z</time>
      </trkpt>
      <trkpt lat="42.439739" lon="0.349504">
        <ele>996.5</ele>
        <time>2016-06-08T08:03:26Z</time>
      </trkpt>
      <trkpt lat="42.439805" lon="0.349397">
        <ele>995.6</ele>
        <time>2016-06-08T08:03:27Z</time>
      </trkpt>
      <trkpt lat="42.440185" lon="0.349166">
        <ele>993.2</ele>
        <time>2016-06-08T08:03:31Z</time>
      </trkpt>
      <trkpt lat="42.441362" lon="0.348779">
        <ele>992.2</ele>
        <time>2016-06-08T08:03:45Z</time>
      </trkpt>
      <trkpt lat="42.441455" lon="0.348612">
        <ele>993.7</ele>
        <time>2016-06-08T08:03:48Z</time>
      </trkpt>
      <trkpt lat="42.441652" lon="0.348420">
        <ele>995.1</ele>
        <time>2016-06-08T08:03:58Z</time>
      </trkpt>
      <trkpt lat="42.441882" lon="0.348325">
        <ele>998.0</ele>
        <time>2016-06-08T08:04:12Z</time>
      </trkpt>
      <trkpt lat="42.442103" lon="0.348217">
        <ele>999.9</ele>
        <time>2016-06-08T08:04:27Z</time>
      </trkpt>
      <trkpt lat="42.442314" lon="0.348030">
        <ele>1001.8</ele>
        <time>2016-06-08T08:04:43Z</time>
      </trkpt>
      <trkpt lat="42.442557" lon="0.347745">
        <ele>1003.8</ele>
        <time>2016-06-08T08:05:03Z</time>
      </trkpt>
      <trkpt lat="42.442719" lon="0.347498">
        <ele>1006.2</ele>
        <time>2016-06-08T08:05:20Z</time>
      </trkpt>
      <trkpt lat="42.442876" lon="0.347307">
        <ele>1007.6</ele>
        <time>2016-06-08T08:05:34Z</time>
      </trkpt>
      <trkpt lat="42.443077" lon="0.347073">
        <ele>1010.0</ele>
        <time>2016-06-08T08:05:51Z</time>
      </trkpt>
      <trkpt lat="42.443273" lon="0.346814">
        <ele>1011.9</ele>
        <time>2016-06-08T08:06:08Z</time>
      </trkpt>
      <trkpt lat="42.443454" lon="0.346554">
        <ele>1014.3</ele>
        <time>2016-06-08T08:06:25Z</time>
      </trkpt>
      <trkpt lat="42.443657" lon="0.346204">
        <ele>1016.3</ele>
        <time>2016-06-08T08:06:44Z</time>
      </trkpt>
      <trkpt lat="42.443918" lon="0.345810">
        <ele>1015.8</ele>
        <time>2016-06-08T08:06:56Z</time>
      </trkpt>
      <trkpt lat="42.444145" lon="0.345702">
        <ele>1016.3</ele>
        <time>2016-06-08T08:07:06Z</time>
      </trkpt>
      <trkpt lat="42.444416" lon="0.345618">
        <ele>1016.3</ele>
        <time>2016-06-08T08:07:19Z</time>
      </trkpt>
      <trkpt lat="42.444780" lon="0.345638">
        <ele>1017.2</ele>
        <time>2016-06-08T08:07:35Z</time>
      </trkpt>
      <trkpt lat="42.444917" lon="0.345619">
        <ele>1018.7</ele>
        <time>2016-06-08T08:07:45Z</time>
      </trkpt>
      <trkpt lat="42.445187" lon="0.345459">
        <ele>1021.1</ele>
        <time>2016-06-08T08:08:01Z</time>
      </trkpt>
      <trkpt lat="42.445301" lon="0.345182">
        <ele>1023.0</ele>
        <time>2016-06-08T08:08:17Z</time>
      </trkpt>
      <trkpt lat="42.445369" lon="0.344817">
        <ele>1024.9</ele>
        <time>2016-06-08T08:08:35Z</time>
      </trkpt>
      <trkpt lat="42.445435" lon="0.344516">
        <ele>1027.3</ele>
        <time>2016-06-08T08:08:50Z</time>
      </trkpt>
      <trkpt lat="42.445505" lon="0.344238">
        <ele>1029.7</ele>
        <time>2016-06-08T08:09:05Z</time>
      </trkpt>
      <trkpt lat="42.445596" lon="0.343990">
        <ele>1031.6</ele>
        <time>2016-06-08T08:09:19Z</time>
      </trkpt>
      <trkpt lat="42.445734" lon="0.343747">
        <ele>1033.6</ele>
        <time>2016-06-08T08:09:35Z</time>
      </trkpt>
      <trkpt lat="42.445809" lon="0.343583">
        <ele>1035.5</ele>
        <time>2016-06-08T08:09:45Z</time>
      </trkpt>
      <trkpt lat="42.445882" lon="0.343435">
        <ele>1036.9</ele>
        <time>2016-06-08T08:09:54Z</time>
      </trkpt>
      <trkpt lat="42.446040" lon="0.343186">
        <ele>1038.8</ele>
        <time>2016-06-08T08:10:11Z</time>
      </trkpt>
      <trkpt lat="42.446174" lon="0.342990">
        <ele>1040.8</ele>
        <time>2016-06-08T08:10:25Z</time>
      </trkpt>
      <trkpt lat="42.446319" lon="0.342816">
        <ele>1043.2</ele>
        <time>2016-06-08T08:10:38Z</time>
      </trkpt>
      <trkpt lat="42.446416" lon="0.342692">
        <ele>1044.1</ele>
        <time>2016-06-08T08:10:48Z</time>
      </trkpt>
      <trkpt lat="42.446481" lon="0.342622">
        <ele>1045.6</ele>
        <time>2016-06-08T08:10:54Z</time>
      </trkpt>
      <trkpt lat="42.446698" lon="0.342469">
        <ele>1047.5</ele>
        <time>2016-06-08T08:11:10Z</time>
      </trkpt>
      <trkpt lat="42.446935" lon="0.342488">
        <ele>1049.4</ele>
        <time>2016-06-08T08:11:26Z</time>
      </trkpt>
      <trkpt lat="42.447119" lon="0.342552">
        <ele>1052.3</ele>
        <time>2016-06-08T08:11:40Z</time>
      </trkpt>
      <trkpt lat="42.447172" lon="0.342526">
        <ele>1053.3</ele>
        <time>2016-06-08T08:11:44Z</time>
      </trkpt>
      <trkpt lat="42.447430" lon="0.342389">
        <ele>1054.2</ele>
        <time>2016-06-08T08:11:59Z</time>
      </trkpt>
      <trkpt lat="42.447611" lon="0.342049">
        <ele>1054.2</ele>
        <time>2016-06-08T08:12:08Z</time>
      </trkpt>
      <trkpt lat="42.447727" lon="0.341822">
        <ele>1052.3</ele>
        <time>2016-06-08T08:12:12Z</time>
      </trkpt>
      <trkpt lat="42.448340" lon="0.341022">
        <ele>1048.5</ele>
        <time>2016-06-08T08:12:25Z</time>
      </trkpt>
      <trkpt lat="42.448791" lon="0.340430">
        <ele>1045.6</ele>
        <time>2016-06-08T08:12:33Z</time>
      </trkpt>
      <trkpt lat="42.449290" lon="0.340207">
        <ele>1043.2</ele>
        <time>2016-06-08T08:12:40Z</time>
      </trkpt>
      <trkpt lat="42.449581" lon="0.340080">
        <ele>1041.3</ele>
        <time>2016-06-08T08:12:44Z</time>
      </trkpt>
      <trkpt lat="42.449792" lon="0.339924">
        <ele>1039.8</ele>
        <time>2016-06-08T08:12:47Z</time>
      </trkpt>
      <trkpt lat="42.450141" lon="0.340085">
        <ele>1036.4</ele>
        <time>2016-06-08T08:12:53Z</time>
      </trkpt>
      <trkpt lat="42.450334" lon="0.340485">
        <ele>1032.6</ele>
        <time>2016-06-08T08:12:57Z</time>
      </trkpt>
      <trkpt lat="42.450581" lon="0.340683">
        <ele>1030.2</ele>
        <time>2016-06-08T08:13:01Z</time>
      </trkpt>
      <trkpt lat="42.450927" lon="0.340743">
        <ele>1027.8</ele>
        <time>2016-06-08T08:13:05Z</time>
      </trkpt>
      <trkpt lat="42.451378" lon="0.340870">
        <ele>1024.4</ele>
        <time>2016-06-08T08:13:10Z</time>
      </trkpt>
      <trkpt lat="42.451852" lon="0.341037">
        <ele>1021.1</ele>
        <time>2016-06-08T08:13:15Z</time>
      </trkpt>
      <trkpt lat="42.451941" lon="0.341071">
        <ele>1019.6</ele>
        <time>2016-06-08T08:13:16Z</time>
      </trkpt>
      <trkpt lat="42.452227" lon="0.341310">
        <ele>1017.2</ele>
        <time>2016-06-08T08:13:20Z</time>
      </trkpt>
      <trkpt lat="42.452337" lon="0.341464">
        <ele>1015.8</ele>
        <time>2016-06-08T08:13:22Z</time>
      </trkpt>
      <trkpt lat="42.452790" lon="0.341610">
        <ele>1012.9</ele>
        <time>2016-06-08T08:13:28Z</time>
      </trkpt>
      <trkpt lat="42.452878" lon="0.341642">
        <ele>1011.9</ele>
        <time>2016-06-08T08:13:29Z</time>
      </trkpt>
      <trkpt lat="42.453133" lon="0.341750">
        <ele>1009.5</ele>
        <time>2016-06-08T08:13:32Z</time>
      </trkpt>
      <trkpt lat="42.453296" lon="0.341977">
        <ele>1007.1</ele>
        <time>2016-06-08T08:13:38Z</time>
      </trkpt>
      <trkpt lat="42.453657" lon="0.342489">
        <ele>1001.8</ele>
        <time>2016-06-08T08:13:47Z</time>
      </trkpt>
      <trkpt lat="42.453826" lon="0.342492">
        <ele>1001.4</ele>
        <time>2016-06-08T08:13:49Z</time>
      </trkpt>
      <trkpt lat="42.454122" lon="0.342817">
        <ele>999.9</ele>
        <time>2016-06-08T08:13:55Z</time>
      </trkpt>
      <trkpt lat="42.454123" lon="0.342900">
        <ele>1000.4</ele>
        <time>2016-06-08T08:13:56Z</time>
      </trkpt>
      <trkpt lat="42.454122" lon="0.343134">
        <ele>1000.4</ele>
        <time>2016-06-08T08:13:59Z</time>
      </trkpt>
      <trkpt lat="42.454278" lon="0.343521">
        <ele>1001.8</ele>
        <time>2016-06-08T08:14:08Z</time>
      </trkpt>
      <trkpt lat="42.454500" lon="0.343704">
        <ele>1003.8</ele>
        <time>2016-06-08T08:14:24Z</time>
      </trkpt>
      <trkpt lat="42.454531" lon="0.344028">
        <ele>1006.6</ele>
        <time>2016-06-08T08:14:41Z</time>
      </trkpt>
      <trkpt lat="42.454540" lon="0.344092">
        <ele>1007.1</ele>
        <time>2016-06-08T08:14:45Z</time>
      </trkpt>
      <trkpt lat="42.454666" lon="0.344119">
        <ele>1009.0</ele>
        <time>2016-06-08T08:14:56Z</time>
      </trkpt>
      <trkpt lat="42.454742" lon="0.344071">
        <ele>1010.5</ele>
        <time>2016-06-08T08:15:03Z</time>
      </trkpt>
      <trkpt lat="42.454909" lon="0.343958">
        <ele>1012.9</ele>
        <time>2016-06-08T08:15:17Z</time>
      </trkpt>
      <trkpt lat="42.455104" lon="0.343800">
        <ele>1015.3</ele>
        <time>2016-06-08T08:15:34Z</time>
      </trkpt>
      <trkpt lat="42.455294" lon="0.343653">
        <ele>1018.2</ele>
        <time>2016-06-08T08:15:50Z</time>
      </trkpt>
      <trkpt lat="42.455495" lon="0.343499">
        <ele>1020.6</ele>
        <time>2016-06-08T08:16:07Z</time>
      </trkpt>
      <trkpt lat="42.455554" lon="0.343436">
        <ele>1021.5</ele>
        <time>2016-06-08T08:16:13Z</time>
      </trkpt>
      <trkpt lat="42.455615" lon="0.343410">
        <ele>1022.0</ele>
        <time>2016-06-08T08:16:17Z</time>
      </trkpt>
      <trkpt lat="42.455802" lon="0.343247">
        <ele>1024.9</ele>
        <time>2016-06-08T08:16:34Z</time>
      </trkpt>
      <trkpt lat="42.455869" lon="0.343226">
        <ele>1025.9</ele>
        <time>2016-06-08T08:16:47Z</time>
      </trkpt>
      <trkpt lat="42.455872" lon="0.343146">
        <ele>1025.9</ele>
        <time>2016-06-08T08:19:25Z</time>
      </trkpt>
      <trkpt lat="42.456020" lon="0.343006">
        <ele>1027.8</ele>
        <time>2016-06-08T08:27:24Z</time>
      </trkpt>
      <trkpt lat="42.456113" lon="0.342885">
        <ele>1027.8</ele>
        <time>2016-06-08T08:27:31Z</time>
      </trkpt>
      <trkpt lat="42.456147" lon="0.342784">
        <ele>1029.2</ele>
        <time>2016-06-08T08:27:37Z</time>
      </trkpt>
      <trkpt lat="42.456173" lon="0.342684">
        <ele>1030.2</ele>
        <time>2016-06-08T08:27:43Z</time>
      </trkpt>
      <trkpt lat="42.456290" lon="0.342416">
        <ele>1031.6</ele>
        <time>2016-06-08T08:28:02Z</time>
      </trkpt>
      <trkpt lat="42.456392" lon="0.342234">
        <ele>1033.1</ele>
        <time>2016-06-08T08:28:15Z</time>
      </trkpt>
      <trkpt lat="42.456437" lon="0.342144">
        <ele>1033.6</ele>
        <time>2016-06-08T08:28:21Z</time>
      </trkpt>
      <trkpt lat="42.456544" lon="0.341927">
        <ele>1035.5</ele>
        <time>2016-06-08T08:28:37Z</time>
      </trkpt>
      <trkpt lat="42.456605" lon="0.341736">
        <ele>1037.4</ele>
        <time>2016-06-08T08:28:51Z</time>
      </trkpt>
      <trkpt lat="42.456675" lon="0.341612">
        <ele>1039.3</ele>
        <time>2016-06-08T08:29:01Z</time>
      </trkpt>
      <trkpt lat="42.456825" lon="0.341400">
        <ele>1041.7</ele>
        <time>2016-06-08T08:29:18Z</time>
      </trkpt>
      <trkpt lat="42.456979" lon="0.341122">
        <ele>1042.2</ele>
        <time>2016-06-08T08:29:33Z</time>
      </trkpt>
      <trkpt lat="42.457098" lon="0.340830">
        <ele>1040.8</ele>
        <time>2016-06-08T08:29:39Z</time>
      </trkpt>
      <trkpt lat="42.457199" lon="0.340486">
        <ele>1038.8</ele>
        <time>2016-06-08T08:29:44Z</time>
      </trkpt>
      <trkpt lat="42.457354" lon="0.339767">
        <ele>1039.3</ele>
        <time>2016-06-08T08:29:55Z</time>
      </trkpt>
      <trkpt lat="42.457492" lon="0.339484">
        <ele>1039.3</ele>
        <time>2016-06-08T08:30:07Z</time>
      </trkpt>
      <trkpt lat="42.457718" lon="0.339489">
        <ele>1037.9</ele>
        <time>2016-06-08T08:30:13Z</time>
      </trkpt>
      <trkpt lat="42.457939" lon="0.339384">
        <ele>1037.9</ele>
        <time>2016-06-08T08:30:22Z</time>
      </trkpt>
      <trkpt lat="42.458095" lon="0.339306">
        <ele>1040.3</ele>
        <time>2016-06-08T08:30:35Z</time>
      </trkpt>
      <trkpt lat="42.458161" lon="0.339224">
        <ele>1041.7</ele>
        <time>2016-06-08T08:30:42Z</time>
      </trkpt>
      <trkpt lat="42.458208" lon="0.339162">
        <ele>1042.7</ele>
        <time>2016-06-08T08:30:47Z</time>
      </trkpt>
      <trkpt lat="42.458312" lon="0.338916">
        <ele>1044.1</ele>
        <time>2016-06-08T08:31:02Z</time>
      </trkpt>
      <trkpt lat="42.458450" lon="0.338651">
        <ele>1045.1</ele>
        <time>2016-06-08T08:31:17Z</time>
      </trkpt>
      <trkpt lat="42.458517" lon="0.338588">
        <ele>1045.1</ele>
        <time>2016-06-08T08:31:22Z</time>
      </trkpt>
      <trkpt lat="42.458588" lon="0.338429">
        <ele>1046.1</ele>
        <time>2016-06-08T08:31:31Z</time>
      </trkpt>
      <trkpt lat="42.458620" lon="0.338317">
        <ele>1046.5</ele>
        <time>2016-06-08T08:31:37Z</time>
      </trkpt>
      <trkpt lat="42.458647" lon="0.338254">
        <ele>1046.5</ele>
        <time>2016-06-08T08:31:39Z</time>
      </trkpt>
      <trkpt lat="42.458830" lon="0.338210">
        <ele>1045.6</ele>
        <time>2016-06-08T08:31:46Z</time>
      </trkpt>
      <trkpt lat="42.458912" lon="0.338229">
        <ele>1045.6</ele>
        <time>2016-06-08T08:31:52Z</time>
      </trkpt>
      <trkpt lat="42.458985" lon="0.338176">
        <ele>1047.0</ele>
        <time>2016-06-08T08:31:58Z</time>
      </trkpt>
      <trkpt lat="42.459181" lon="0.338023">
        <ele>1048.5</ele>
        <time>2016-06-08T08:32:14Z</time>
      </trkpt>
      <trkpt lat="42.459387" lon="0.337938">
        <ele>1049.4</ele>
        <time>2016-06-08T08:32:29Z</time>
      </trkpt>
      <trkpt lat="42.459440" lon="0.337920">
        <ele>1050.4</ele>
        <time>2016-06-08T08:32:33Z</time>
      </trkpt>
      <trkpt lat="42.459485" lon="0.337883">
        <ele>1050.9</ele>
        <time>2016-06-08T08:32:37Z</time>
      </trkpt>
      <trkpt lat="42.459634" lon="0.337624">
        <ele>1052.3</ele>
        <time>2016-06-08T08:32:55Z</time>
      </trkpt>
      <trkpt lat="42.459776" lon="0.337415">
        <ele>1053.3</ele>
        <time>2016-06-08T08:33:09Z</time>
      </trkpt>
      <trkpt lat="42.459861" lon="0.337287">
        <ele>1054.2</ele>
        <time>2016-06-08T08:33:18Z</time>
      </trkpt>
      <trkpt lat="42.459975" lon="0.337103">
        <ele>1055.2</ele>
        <time>2016-06-08T08:33:30Z</time>
      </trkpt>
      <trkpt lat="42.460119" lon="0.336798">
        <ele>1056.2</ele>
        <time>2016-06-08T08:33:45Z</time>
      </trkpt>
      <trkpt lat="42.460210" lon="0.336567">
        <ele>1054.7</ele>
        <time>2016-06-08T08:33:51Z</time>
      </trkpt>
      <trkpt lat="42.460344" lon="0.335938">
        <ele>1052.8</ele>
        <time>2016-06-08T08:34:03Z</time>
      </trkpt>
      <trkpt lat="42.460358" lon="0.335871">
        <ele>1053.3</ele>
        <time>2016-06-08T08:34:04Z</time>
      </trkpt>
      <trkpt lat="42.460498" lon="0.335575">
        <ele>1052.3</ele>
        <time>2016-06-08T08:34:09Z</time>
      </trkpt>
      <trkpt lat="42.460597" lon="0.335291">
        <ele>1052.3</ele>
        <time>2016-06-08T08:34:15Z</time>
      </trkpt>
      <trkpt lat="42.460763" lon="0.335090">
        <ele>1053.7</ele>
        <time>2016-06-08T08:34:27Z</time>
      </trkpt>
      <trkpt lat="42.460973" lon="0.334856">
        <ele>1054.7</ele>
        <time>2016-06-08T08:34:44Z</time>
      </trkpt>
      <trkpt lat="42.461106" lon="0.334521">
        <ele>1055.7</ele>
        <time>2016-06-08T08:35:00Z</time>
      </trkpt>
      <trkpt lat="42.461266" lon="0.334262">
        <ele>1056.2</ele>
        <time>2016-06-08T08:35:15Z</time>
      </trkpt>
      <trkpt lat="42.461428" lon="0.334014">
        <ele>1057.1</ele>
        <time>2016-06-08T08:35:30Z</time>
      </trkpt>
      <trkpt lat="42.461556" lon="0.333730">
        <ele>1059.0</ele>
        <time>2016-06-08T08:35:46Z</time>
      </trkpt>
      <trkpt lat="42.461777" lon="0.333535">
        <ele>1060.0</ele>
        <time>2016-06-08T08:36:02Z</time>
      </trkpt>
      <trkpt lat="42.462004" lon="0.333271">
        <ele>1060.5</ele>
        <time>2016-06-08T08:36:18Z</time>
      </trkpt>
      <trkpt lat="42.462295" lon="0.332678">
        <ele>1059.5</ele>
        <time>2016-06-08T08:36:36Z</time>
      </trkpt>
      <trkpt lat="42.462418" lon="0.332528">
        <ele>1060.5</ele>
        <time>2016-06-08T08:36:47Z</time>
      </trkpt>
      <trkpt lat="42.462646" lon="0.332300">
        <ele>1061.0</ele>
        <time>2016-06-08T08:37:02Z</time>
      </trkpt>
      <trkpt lat="42.462912" lon="0.332096">
        <ele>1061.9</ele>
        <time>2016-06-08T08:37:19Z</time>
      </trkpt>
      <trkpt lat="42.463192" lon="0.331933">
        <ele>1062.4</ele>
        <time>2016-06-08T08:37:34Z</time>
      </trkpt>
      <trkpt lat="42.463510" lon="0.331655">
        <ele>1062.4</ele>
        <time>2016-06-08T08:37:50Z</time>
      </trkpt>
      <trkpt lat="42.463676" lon="0.331543">
        <ele>1063.4</ele>
        <time>2016-06-08T08:38:01Z</time>
      </trkpt>
      <trkpt lat="42.463746" lon="0.331437">
        <ele>1064.8</ele>
        <time>2016-06-08T08:38:08Z</time>
      </trkpt>
      <trkpt lat="42.463867" lon="0.331207">
        <ele>1067.2</ele>
        <time>2016-06-08T08:38:25Z</time>
      </trkpt>
      <trkpt lat="42.463900" lon="0.330963">
        <ele>1070.1</ele>
        <time>2016-06-08T08:38:42Z</time>
      </trkpt>
      <trkpt lat="42.463905" lon="0.330681">
        <ele>1072.0</ele>
        <time>2016-06-08T08:38:58Z</time>
      </trkpt>
      <trkpt lat="42.463932" lon="0.330609">
        <ele>1073.5</ele>
        <time>2016-06-08T08:39:04Z</time>
      </trkpt>
      <trkpt lat="42.464087" lon="0.330248">
        <ele>1075.4</ele>
        <time>2016-06-08T08:39:25Z</time>
      </trkpt>
      <trkpt lat="42.464110" lon="0.329971">
        <ele>1075.4</ele>
        <time>2016-06-08T08:39:32Z</time>
      </trkpt>
      <trkpt lat="42.464166" lon="0.329828">
        <ele>1075.4</ele>
        <time>2016-06-08T08:39:38Z</time>
      </trkpt>
      <trkpt lat="42.464233" lon="0.329835">
        <ele>1075.9</ele>
        <time>2016-06-08T08:39:44Z</time>
      </trkpt>
      <trkpt lat="42.464297" lon="0.329810">
        <ele>1076.8</ele>
        <time>2016-06-08T08:39:49Z</time>
      </trkpt>
      <trkpt lat="42.464389" lon="0.329706">
        <ele>1078.3</ele>
        <time>2016-06-08T08:39:58Z</time>
      </trkpt>
      <trkpt lat="42.464456" lon="0.329515">
        <ele>1080.2</ele>
        <time>2016-06-08T08:40:11Z</time>
      </trkpt>
      <trkpt lat="42.464494" lon="0.329394">
        <ele>1081.1</ele>
        <time>2016-06-08T08:40:18Z</time>
      </trkpt>
      <trkpt lat="42.464635" lon="0.329020">
        <ele>1081.1</ele>
        <time>2016-06-08T08:40:35Z</time>
      </trkpt>
      <trkpt lat="42.464802" lon="0.328796">
        <ele>1081.6</ele>
        <time>2016-06-08T08:40:48Z</time>
      </trkpt>
      <trkpt lat="42.465008" lon="0.328614">
        <ele>1084.0</ele>
        <time>2016-06-08T08:41:04Z</time>
      </trkpt>
      <trkpt lat="42.465127" lon="0.328476">
        <ele>1084.5</ele>
        <time>2016-06-08T08:41:14Z</time>
      </trkpt>
      <trkpt lat="42.465172" lon="0.328416">
        <ele>1084.5</ele>
        <time>2016-06-08T08:41:18Z</time>
      </trkpt>
      <trkpt lat="42.465325" lon="0.328353">
        <ele>1086.4</ele>
        <time>2016-06-08T08:41:32Z</time>
      </trkpt>
      <trkpt lat="42.465569" lon="0.328266">
        <ele>1088.8</ele>
        <time>2016-06-08T08:41:49Z</time>
      </trkpt>
      <trkpt lat="42.465770" lon="0.328182">
        <ele>1089.8</ele>
        <time>2016-06-08T08:42:03Z</time>
      </trkpt>
      <trkpt lat="42.465876" lon="0.328117">
        <ele>1090.8</ele>
        <time>2016-06-08T08:42:11Z</time>
      </trkpt>
      <trkpt lat="42.465940" lon="0.328018">
        <ele>1091.7</ele>
        <time>2016-06-08T08:42:18Z</time>
      </trkpt>
      <trkpt lat="42.466012" lon="0.327796">
        <ele>1094.6</ele>
        <time>2016-06-08T08:42:34Z</time>
      </trkpt>
      <trkpt lat="42.466044" lon="0.327588">
        <ele>1097.0</ele>
        <time>2016-06-08T08:42:49Z</time>
      </trkpt>
      <trkpt lat="42.466088" lon="0.327505">
        <ele>1098.9</ele>
        <time>2016-06-08T08:42:56Z</time>
      </trkpt>
      <trkpt lat="42.466128" lon="0.327420">
        <ele>1099.4</ele>
        <time>2016-06-08T08:43:02Z</time>
      </trkpt>
      <trkpt lat="42.466172" lon="0.327354">
        <ele>1100.9</ele>
        <time>2016-06-08T08:43:08Z</time>
      </trkpt>
      <trkpt lat="42.466197" lon="0.327300">
        <ele>1101.3</ele>
        <time>2016-06-08T08:43:12Z</time>
      </trkpt>
      <trkpt lat="42.466316" lon="0.327086">
        <ele>1104.2</ele>
        <time>2016-06-08T08:43:29Z</time>
      </trkpt>
      <trkpt lat="42.466438" lon="0.326903">
        <ele>1105.7</ele>
        <time>2016-06-08T08:43:43Z</time>
      </trkpt>
      <trkpt lat="42.466561" lon="0.326744">
        <ele>1107.1</ele>
        <time>2016-06-08T08:43:56Z</time>
      </trkpt>
      <trkpt lat="42.466601" lon="0.326693">
        <ele>1107.6</ele>
        <time>2016-06-08T08:44:00Z</time>
      </trkpt>
      <trkpt lat="42.466690" lon="0.326488">
        <ele>1108.5</ele>
        <time>2016-06-08T08:44:11Z</time>
      </trkpt>
      <trkpt lat="42.466870" lon="0.326212">
        <ele>1108.1</ele>
        <time>2016-06-08T08:44:23Z</time>
      </trkpt>
      <trkpt lat="42.467055" lon="0.326091">
        <ele>1109.5</ele>
        <time>2016-06-08T08:44:37Z</time>
      </trkpt>
      <trkpt lat="42.467206" lon="0.325782">
        <ele>1110.5</ele>
        <time>2016-06-08T08:44:53Z</time>
      </trkpt>
      <trkpt lat="42.467264" lon="0.325424">
        <ele>1110.5</ele>
        <time>2016-06-08T08:45:05Z</time>
      </trkpt>
      <trkpt lat="42.467279" lon="0.325121">
        <ele>1110.5</ele>
        <time>2016-06-08T08:45:15Z</time>
      </trkpt>
      <trkpt lat="42.467351" lon="0.324872">
        <ele>1111.4</ele>
        <time>2016-06-08T08:45:27Z</time>
      </trkpt>
      <trkpt lat="42.467465" lon="0.324676">
        <ele>1112.9</ele>
        <time>2016-06-08T08:45:40Z</time>
      </trkpt>
      <trkpt lat="42.467569" lon="0.324511">
        <ele>1114.3</ele>
        <time>2016-06-08T08:45:53Z</time>
      </trkpt>
      <trkpt lat="42.467629" lon="0.324460">
        <ele>1115.3</ele>
        <time>2016-06-08T08:45:58Z</time>
      </trkpt>
      <trkpt lat="42.467771" lon="0.324302">
        <ele>1117.2</ele>
        <time>2016-06-08T08:46:13Z</time>
      </trkpt>
      <trkpt lat="42.467910" lon="0.324090">
        <ele>1119.6</ele>
        <time>2016-06-08T08:46:29Z</time>
      </trkpt>
      <trkpt lat="42.467964" lon="0.323998">
        <ele>1121.0</ele>
        <time>2016-06-08T08:46:37Z</time>
      </trkpt>
      <trkpt lat="42.467980" lon="0.323928">
        <ele>1121.5</ele>
        <time>2016-06-08T08:46:43Z</time>
      </trkpt>
      <trkpt lat="42.468035" lon="0.323720">
        <ele>1124.9</ele>
        <time>2016-06-08T08:47:01Z</time>
      </trkpt>
      <trkpt lat="42.468073" lon="0.323615">
        <ele>1126.3</ele>
        <time>2016-06-08T08:47:09Z</time>
      </trkpt>
      <trkpt lat="42.468147" lon="0.323394">
        <ele>1127.8</ele>
        <time>2016-06-08T08:47:23Z</time>
      </trkpt>
      <trkpt lat="42.468240" lon="0.323149">
        <ele>1130.7</ele>
        <time>2016-06-08T08:47:39Z</time>
      </trkpt>
      <trkpt lat="42.468303" lon="0.322926">
        <ele>1131.6</ele>
        <time>2016-06-08T08:47:54Z</time>
      </trkpt>
      <trkpt lat="42.468366" lon="0.322882">
        <ele>1132.1</ele>
        <time>2016-06-08T08:48:00Z</time>
      </trkpt>
      <trkpt lat="42.468580" lon="0.322770">
        <ele>1136.4</ele>
        <time>2016-06-08T08:48:22Z</time>
      </trkpt>
      <trkpt lat="42.468719" lon="0.322670">
        <ele>1138.3</ele>
        <time>2016-06-08T08:48:38Z</time>
      </trkpt>
      <trkpt lat="42.468783" lon="0.322651">
        <ele>1139.8</ele>
        <time>2016-06-08T08:48:52Z</time>
      </trkpt>
      <trkpt lat="42.468864" lon="0.322576">
        <ele>1142.2</ele>
        <time>2016-06-08T08:49:06Z</time>
      </trkpt>
      <trkpt lat="42.468884" lon="0.322427">
        <ele>1144.6</ele>
        <time>2016-06-08T08:49:20Z</time>
      </trkpt>
      <trkpt lat="42.468882" lon="0.322285">
        <ele>1146.5</ele>
        <time>2016-06-08T08:49:37Z</time>
      </trkpt>
      <trkpt lat="42.468922" lon="0.322155">
        <ele>1148.9</ele>
        <time>2016-06-08T08:49:54Z</time>
      </trkpt>
      <trkpt lat="42.468975" lon="0.322034">
        <ele>1150.8</ele>
        <time>2016-06-08T08:50:10Z</time>
      </trkpt>
      <trkpt lat="42.469008" lon="0.321959">
        <ele>1151.8</ele>
        <time>2016-06-08T08:50:25Z</time>
      </trkpt>
      <trkpt lat="42.469039" lon="0.321874">
        <ele>1153.7</ele>
        <time>2016-06-08T08:50:55Z</time>
      </trkpt>
      <trkpt lat="42.469081" lon="0.321853">
        <ele>1156.1</ele>
        <time>2016-06-08T08:51:04Z</time>
      </trkpt>
      <trkpt lat="42.469243" lon="0.321671">
        <ele>1159.0</ele>
        <time>2016-06-08T08:51:24Z</time>
      </trkpt>
      <trkpt lat="42.469409" lon="0.321491">
        <ele>1161.9</ele>
        <time>2016-06-08T08:51:42Z</time>
      </trkpt>
      <trkpt lat="42.469523" lon="0.321295">
        <ele>1163.3</ele>
        <time>2016-06-08T08:51:56Z</time>
      </trkpt>
      <trkpt lat="42.469648" lon="0.321084">
        <ele>1165.3</ele>
        <time>2016-06-08T08:52:14Z</time>
      </trkpt>
      <trkpt lat="42.469723" lon="0.320880">
        <ele>1168.1</ele>
        <time>2016-06-08T08:52:29Z</time>
      </trkpt>
      <trkpt lat="42.469828" lon="0.320714">
        <ele>1169.6</ele>
        <time>2016-06-08T08:52:42Z</time>
      </trkpt>
      <trkpt lat="42.469884" lon="0.320658">
        <ele>1170.1</ele>
        <time>2016-06-08T08:52:47Z</time>
      </trkpt>
      <trkpt lat="42.469988" lon="0.320346">
        <ele>1172.0</ele>
        <time>2016-06-08T08:53:07Z</time>
      </trkpt>
      <trkpt lat="42.469994" lon="0.320176">
        <ele>1173.0</ele>
        <time>2016-06-08T08:53:16Z</time>
      </trkpt>
      <trkpt lat="42.469975" lon="0.319973">
        <ele>1174.4</ele>
        <time>2016-06-08T08:53:29Z</time>
      </trkpt>
      <trkpt lat="42.470003" lon="0.319780">
        <ele>1175.8</ele>
        <time>2016-06-08T08:53:41Z</time>
      </trkpt>
      <trkpt lat="42.470078" lon="0.319626">
        <ele>1175.8</ele>
        <time>2016-06-08T08:53:47Z</time>
      </trkpt>
      <trkpt lat="42.470136" lon="0.319509">
        <ele>1176.3</ele>
        <time>2016-06-08T08:53:54Z</time>
      </trkpt>
      <trkpt lat="42.470162" lon="0.319430">
        <ele>1176.3</ele>
        <time>2016-06-08T08:53:58Z</time>
      </trkpt>
      <trkpt lat="42.470212" lon="0.319278">
        <ele>1176.8</ele>
        <time>2016-06-08T08:54:07Z</time>
      </trkpt>
      <trkpt lat="42.470300" lon="0.319030">
        <ele>1176.8</ele>
        <time>2016-06-08T08:54:22Z</time>
      </trkpt>
      <trkpt lat="42.470401" lon="0.318888">
        <ele>1177.8</ele>
        <time>2016-06-08T08:54:31Z</time>
      </trkpt>
      <trkpt lat="42.470513" lon="0.318810">
        <ele>1180.6</ele>
        <time>2016-06-08T08:54:43Z</time>
      </trkpt>
      <trkpt lat="42.470654" lon="0.318794">
        <ele>1183.5</ele>
        <time>2016-06-08T08:54:58Z</time>
      </trkpt>
      <trkpt lat="42.470861" lon="0.318573">
        <ele>1185.4</ele>
        <time>2016-06-08T08:55:17Z</time>
      </trkpt>
      <trkpt lat="42.470922" lon="0.318212">
        <ele>1185.9</ele>
        <time>2016-06-08T08:55:32Z</time>
      </trkpt>
      <trkpt lat="42.470967" lon="0.318082">
        <ele>1185.9</ele>
        <time>2016-06-08T08:55:36Z</time>
      </trkpt>
      <trkpt lat="42.471116" lon="0.317975">
        <ele>1186.4</ele>
        <time>2016-06-08T08:55:48Z</time>
      </trkpt>
      <trkpt lat="42.471249" lon="0.317945">
        <ele>1189.8</ele>
        <time>2016-06-08T08:56:02Z</time>
      </trkpt>
      <trkpt lat="42.471431" lon="0.317907">
        <ele>1192.7</ele>
        <time>2016-06-08T08:56:19Z</time>
      </trkpt>
      <trkpt lat="42.471613" lon="0.317837">
        <ele>1195.1</ele>
        <time>2016-06-08T08:56:36Z</time>
      </trkpt>
      <trkpt lat="42.471740" lon="0.317762">
        <ele>1197.5</ele>
        <time>2016-06-08T08:56:50Z</time>
      </trkpt>
      <trkpt lat="42.471877" lon="0.317638">
        <ele>1200.3</ele>
        <time>2016-06-08T08:57:07Z</time>
      </trkpt>
      <trkpt lat="42.471895" lon="0.317574">
        <ele>1200.8</ele>
        <time>2016-06-08T08:57:12Z</time>
      </trkpt>
      <trkpt lat="42.471803" lon="0.317415">
        <ele>1202.3</ele>
        <time>2016-06-08T08:57:26Z</time>
      </trkpt>
      <trkpt lat="42.471740" lon="0.317273">
        <ele>1203.2</ele>
        <time>2016-06-08T08:57:39Z</time>
      </trkpt>
      <trkpt lat="42.471806" lon="0.317075">
        <ele>1205.2</ele>
        <time>2016-06-08T08:57:55Z</time>
      </trkpt>
      <trkpt lat="42.471929" lon="0.316979">
        <ele>1208.5</ele>
        <time>2016-06-08T08:58:14Z</time>
      </trkpt>
      <trkpt lat="42.472064" lon="0.316879">
        <ele>1210.0</ele>
        <time>2016-06-08T08:58:27Z</time>
      </trkpt>
      <trkpt lat="42.472141" lon="0.316792">
        <ele>1210.9</ele>
        <time>2016-06-08T08:58:35Z</time>
      </trkpt>
      <trkpt lat="42.472225" lon="0.316536">
        <ele>1215.2</ele>
        <time>2016-06-08T08:58:55Z</time>
      </trkpt>
      <trkpt lat="42.472289" lon="0.316397">
        <ele>1218.1</ele>
        <time>2016-06-08T08:59:08Z</time>
      </trkpt>
      <trkpt lat="42.472389" lon="0.316243">
        <ele>1220.5</ele>
        <time>2016-06-08T08:59:24Z</time>
      </trkpt>
      <trkpt lat="42.472429" lon="0.316198">
        <ele>1222.0</ele>
        <time>2016-06-08T08:59:29Z</time>
      </trkpt>
      <trkpt lat="42.472564" lon="0.316019">
        <ele>1224.9</ele>
        <time>2016-06-08T08:59:48Z</time>
      </trkpt>
      <trkpt lat="42.472652" lon="0.315885">
        <ele>1227.7</ele>
        <time>2016-06-08T09:00:01Z</time>
      </trkpt>
      <trkpt lat="42.472794" lon="0.315691">
        <ele>1230.1</ele>
        <time>2016-06-08T09:00:21Z</time>
      </trkpt>
      <trkpt lat="42.472920" lon="0.315468">
        <ele>1233.0</ele>
        <time>2016-06-08T09:00:40Z</time>
      </trkpt>
      <trkpt lat="42.473031" lon="0.315320">
        <ele>1235.9</ele>
        <time>2016-06-08T09:00:55Z</time>
      </trkpt>
      <trkpt lat="42.473140" lon="0.315196">
        <ele>1238.8</ele>
        <time>2016-06-08T09:01:10Z</time>
      </trkpt>
      <trkpt lat="42.473257" lon="0.315037">
        <ele>1241.7</ele>
        <time>2016-06-08T09:01:26Z</time>
      </trkpt>
      <trkpt lat="42.473347" lon="0.314927">
        <ele>1242.6</ele>
        <time>2016-06-08T09:01:42Z</time>
      </trkpt>
      <trkpt lat="42.473382" lon="0.314852">
        <ele>1242.6</ele>
        <time>2016-06-08T09:02:12Z</time>
      </trkpt>
      <trkpt lat="42.473453" lon="0.314629">
        <ele>1243.1</ele>
        <time>2016-06-08T09:02:26Z</time>
      </trkpt>
      <trkpt lat="42.473483" lon="0.314375">
        <ele>1244.1</ele>
        <time>2016-06-08T09:02:41Z</time>
      </trkpt>
      <trkpt lat="42.473576" lon="0.314106">
        <ele>1245.5</ele>
        <time>2016-06-08T09:02:59Z</time>
      </trkpt>
      <trkpt lat="42.473611" lon="0.313767">
        <ele>1245.5</ele>
        <time>2016-06-08T09:03:12Z</time>
      </trkpt>
      <trkpt lat="42.473638" lon="0.313543">
        <ele>1246.5</ele>
        <time>2016-06-08T09:03:24Z</time>
      </trkpt>
      <trkpt lat="42.473667" lon="0.313342">
        <ele>1249.9</ele>
        <time>2016-06-08T09:03:37Z</time>
      </trkpt>
      <trkpt lat="42.473661" lon="0.313190">
        <ele>1251.8</ele>
        <time>2016-06-08T09:03:47Z</time>
      </trkpt>
      <trkpt lat="42.473665" lon="0.313007">
        <ele>1253.7</ele>
        <time>2016-06-08T09:04:01Z</time>
      </trkpt>
      <trkpt lat="42.473671" lon="0.312875">
        <ele>1254.7</ele>
        <time>2016-06-08T09:04:15Z</time>
      </trkpt>
      <trkpt lat="42.473638" lon="0.312709">
        <ele>1256.6</ele>
        <time>2016-06-08T09:04:28Z</time>
      </trkpt>
      <trkpt lat="42.473636" lon="0.312475">
        <ele>1259.0</ele>
        <time>2016-06-08T09:04:42Z</time>
      </trkpt>
      <trkpt lat="42.473719" lon="0.312241">
        <ele>1261.4</ele>
        <time>2016-06-08T09:04:57Z</time>
      </trkpt>
      <trkpt lat="42.473821" lon="0.312070">
        <ele>1264.3</ele>
        <time>2016-06-08T09:05:11Z</time>
      </trkpt>
      <trkpt lat="42.473907" lon="0.311861">
        <ele>1267.6</ele>
        <time>2016-06-08T09:05:27Z</time>
      </trkpt>
      <trkpt lat="42.473934" lon="0.311761">
        <ele>1270.0</ele>
        <time>2016-06-08T09:05:41Z</time>
      </trkpt>
      <trkpt lat="42.474017" lon="0.311477">
        <ele>1273.4</ele>
        <time>2016-06-08T09:05:58Z</time>
      </trkpt>
      <trkpt lat="42.474078" lon="0.311363">
        <ele>1274.9</ele>
        <time>2016-06-08T09:06:07Z</time>
      </trkpt>
      <trkpt lat="42.474166" lon="0.311227">
        <ele>1276.8</ele>
        <time>2016-06-08T09:06:19Z</time>
      </trkpt>
      <trkpt lat="42.474188" lon="0.311152">
        <ele>1277.7</ele>
        <time>2016-06-08T09:06:25Z</time>
      </trkpt>
      <trkpt lat="42.474239" lon="0.311048">
        <ele>1278.7</ele>
        <time>2016-06-08T09:06:34Z</time>
      </trkpt>
      <trkpt lat="42.474302" lon="0.310966">
        <ele>1280.1</ele>
        <time>2016-06-08T09:06:43Z</time>
      </trkpt>
      <trkpt lat="42.474353" lon="0.310810">
        <ele>1281.6</ele>
        <time>2016-06-08T09:06:56Z</time>
      </trkpt>
      <trkpt lat="42.474433" lon="0.310635">
        <ele>1283.0</ele>
        <time>2016-06-08T09:07:10Z</time>
      </trkpt>
      <trkpt lat="42.474483" lon="0.310357">
        <ele>1284.9</ele>
        <time>2016-06-08T09:07:29Z</time>
      </trkpt>
      <trkpt lat="42.474504" lon="0.310277">
        <ele>1285.4</ele>
        <time>2016-06-08T09:07:34Z</time>
      </trkpt>
      <trkpt lat="42.474558" lon="0.310008">
        <ele>1287.8</ele>
        <time>2016-06-08T09:07:51Z</time>
      </trkpt>
      <trkpt lat="42.474614" lon="0.309834">
        <ele>1289.8</ele>
        <time>2016-06-08T09:08:06Z</time>
      </trkpt>
      <trkpt lat="42.474666" lon="0.309636">
        <ele>1292.6</ele>
        <time>2016-06-08T09:08:21Z</time>
      </trkpt>
      <trkpt lat="42.474756" lon="0.309471">
        <ele>1295.0</ele>
        <time>2016-06-08T09:08:37Z</time>
      </trkpt>
      <trkpt lat="42.474821" lon="0.309364">
        <ele>1297.0</ele>
        <time>2016-06-08T09:08:45Z</time>
      </trkpt>
      <trkpt lat="42.474862" lon="0.309270">
        <ele>1297.9</ele>
        <time>2016-06-08T09:08:51Z</time>
      </trkpt>
      <trkpt lat="42.474898" lon="0.309232">
        <ele>1298.4</ele>
        <time>2016-06-08T09:08:55Z</time>
      </trkpt>
      <trkpt lat="42.474944" lon="0.309032">
        <ele>1300.3</ele>
        <time>2016-06-08T09:09:12Z</time>
      </trkpt>
      <trkpt lat="42.475010" lon="0.308894">
        <ele>1301.8</ele>
        <time>2016-06-08T09:09:24Z</time>
      </trkpt>
      <trkpt lat="42.475054" lon="0.308837">
        <ele>1302.7</ele>
        <time>2016-06-08T09:09:30Z</time>
      </trkpt>
      <trkpt lat="42.475140" lon="0.308668">
        <ele>1304.7</ele>
        <time>2016-06-08T09:09:43Z</time>
      </trkpt>
      <trkpt lat="42.475216" lon="0.308425">
        <ele>1306.6</ele>
        <time>2016-06-08T09:10:00Z</time>
      </trkpt>
      <trkpt lat="42.475289" lon="0.308338">
        <ele>1307.1</ele>
        <time>2016-06-08T09:10:09Z</time>
      </trkpt>
      <trkpt lat="42.475429" lon="0.308221">
        <ele>1309.0</ele>
        <time>2016-06-08T09:10:24Z</time>
      </trkpt>
      <trkpt lat="42.475534" lon="0.308067">
        <ele>1310.9</ele>
        <time>2016-06-08T09:10:38Z</time>
      </trkpt>
      <trkpt lat="42.475650" lon="0.307964">
        <ele>1313.8</ele>
        <time>2016-06-08T09:10:53Z</time>
      </trkpt>
      <trkpt lat="42.475732" lon="0.307904">
        <ele>1315.2</ele>
        <time>2016-06-08T09:11:01Z</time>
      </trkpt>
      <trkpt lat="42.475876" lon="0.307913">
        <ele>1317.1</ele>
        <time>2016-06-08T09:11:18Z</time>
      </trkpt>
      <trkpt lat="42.475806" lon="0.308089">
        <ele>1318.6</ele>
        <time>2016-06-08T09:11:33Z</time>
      </trkpt>
      <trkpt lat="42.475748" lon="0.308294">
        <ele>1320.5</ele>
        <time>2016-06-08T09:11:48Z</time>
      </trkpt>
      <trkpt lat="42.475785" lon="0.308557">
        <ele>1322.9</ele>
        <time>2016-06-08T09:12:06Z</time>
      </trkpt>
      <trkpt lat="42.475761" lon="0.308695">
        <ele>1324.4</ele>
        <time>2016-06-08T09:12:18Z</time>
      </trkpt>
      <trkpt lat="42.475742" lon="0.308909">
        <ele>1326.8</ele>
        <time>2016-06-08T09:12:32Z</time>
      </trkpt>
      <trkpt lat="42.475787" lon="0.309072">
        <ele>1328.7</ele>
        <time>2016-06-08T09:12:46Z</time>
      </trkpt>
      <trkpt lat="42.475852" lon="0.308936">
        <ele>1331.1</ele>
        <time>2016-06-08T09:13:04Z</time>
      </trkpt>
      <trkpt lat="42.475980" lon="0.308847">
        <ele>1333.5</ele>
        <time>2016-06-08T09:13:20Z</time>
      </trkpt>
      <trkpt lat="42.476072" lon="0.308680">
        <ele>1337.3</ele>
        <time>2016-06-08T09:13:38Z</time>
      </trkpt>
      <trkpt lat="42.476139" lon="0.308579">
        <ele>1338.8</ele>
        <time>2016-06-08T09:13:49Z</time>
      </trkpt>
      <trkpt lat="42.476241" lon="0.308437">
        <ele>1341.7</ele>
        <time>2016-06-08T09:14:03Z</time>
      </trkpt>
      <trkpt lat="42.476357" lon="0.308279">
        <ele>1343.6</ele>
        <time>2016-06-08T09:14:19Z</time>
      </trkpt>
      <trkpt lat="42.476461" lon="0.308141">
        <ele>1346.5</ele>
        <time>2016-06-08T09:14:34Z</time>
      </trkpt>
      <trkpt lat="42.476629" lon="0.307954">
        <ele>1348.4</ele>
        <time>2016-06-08T09:14:52Z</time>
      </trkpt>
      <trkpt lat="42.476642" lon="0.307894">
        <ele>1348.4</ele>
        <time>2016-06-08T09:15:09Z</time>
      </trkpt>
      <trkpt lat="42.476683" lon="0.307709">
        <ele>1348.9</ele>
        <time>2016-06-08T09:16:16Z</time>
      </trkpt>
      <trkpt lat="42.476727" lon="0.307463">
        <ele>1350.3</ele>
        <time>2016-06-08T09:16:30Z</time>
      </trkpt>
      <trkpt lat="42.476768" lon="0.307221">
        <ele>1351.8</ele>
        <time>2016-06-08T09:16:45Z</time>
      </trkpt>
      <trkpt lat="42.476760" lon="0.307039">
        <ele>1353.7</ele>
        <time>2016-06-08T09:16:57Z</time>
      </trkpt>
      <trkpt lat="42.476855" lon="0.306769">
        <ele>1355.6</ele>
        <time>2016-06-08T09:17:15Z</time>
      </trkpt>
      <trkpt lat="42.476907" lon="0.306555">
        <ele>1358.0</ele>
        <time>2016-06-08T09:17:29Z</time>
      </trkpt>
      <trkpt lat="42.476871" lon="0.306363">
        <ele>1360.4</ele>
        <time>2016-06-08T09:17:42Z</time>
      </trkpt>
      <trkpt lat="42.476855" lon="0.306082">
        <ele>1361.4</ele>
        <time>2016-06-08T09:17:57Z</time>
      </trkpt>
      <trkpt lat="42.476969" lon="0.305795">
        <ele>1362.3</ele>
        <time>2016-06-08T09:18:12Z</time>
      </trkpt>
      <trkpt lat="42.477017" lon="0.305695">
        <ele>1363.3</ele>
        <time>2016-06-08T09:18:19Z</time>
      </trkpt>
      <trkpt lat="42.477014" lon="0.305618">
        <ele>1364.3</ele>
        <time>2016-06-08T09:18:24Z</time>
      </trkpt>
      <trkpt lat="42.477089" lon="0.305399">
        <ele>1368.6</ele>
        <time>2016-06-08T09:18:41Z</time>
      </trkpt>
      <trkpt lat="42.477140" lon="0.305260">
        <ele>1371.0</ele>
        <time>2016-06-08T09:18:53Z</time>
      </trkpt>
      <trkpt lat="42.477154" lon="0.305199">
        <ele>1371.9</ele>
        <time>2016-06-08T09:18:58Z</time>
      </trkpt>
      <trkpt lat="42.477192" lon="0.305129">
        <ele>1372.9</ele>
        <time>2016-06-08T09:19:04Z</time>
      </trkpt>
      <trkpt lat="42.477217" lon="0.305063">
        <ele>1374.3</ele>
        <time>2016-06-08T09:19:11Z</time>
      </trkpt>
      <trkpt lat="42.477301" lon="0.304990">
        <ele>1375.8</ele>
        <time>2016-06-08T09:19:21Z</time>
      </trkpt>
      <trkpt lat="42.477400" lon="0.304851">
        <ele>1378.7</ele>
        <time>2016-06-08T09:19:37Z</time>
      </trkpt>
      <trkpt lat="42.477503" lon="0.304736">
        <ele>1381.1</ele>
        <time>2016-06-08T09:19:52Z</time>
      </trkpt>
      <trkpt lat="42.477580" lon="0.304596">
        <ele>1383.0</ele>
        <time>2016-06-08T09:20:05Z</time>
      </trkpt>
      <trkpt lat="42.477656" lon="0.304413">
        <ele>1385.9</ele>
        <time>2016-06-08T09:20:21Z</time>
      </trkpt>
      <trkpt lat="42.477784" lon="0.304248">
        <ele>1386.4</ele>
        <time>2016-06-08T09:20:34Z</time>
      </trkpt>
      <trkpt lat="42.477774" lon="0.304081">
        <ele>1388.3</ele>
        <time>2016-06-08T09:20:45Z</time>
      </trkpt>
      <trkpt lat="42.477898" lon="0.303830">
        <ele>1388.3</ele>
        <time>2016-06-08T09:21:03Z</time>
      </trkpt>
      <trkpt lat="42.478024" lon="0.303549">
        <ele>1389.7</ele>
        <time>2016-06-08T09:21:21Z</time>
      </trkpt>
      <trkpt lat="42.478050" lon="0.303483">
        <ele>1390.7</ele>
        <time>2016-06-08T09:21:26Z</time>
      </trkpt>
      <trkpt lat="42.478165" lon="0.303282">
        <ele>1393.6</ele>
        <time>2016-06-08T09:21:44Z</time>
      </trkpt>
      <trkpt lat="42.478191" lon="0.303135">
        <ele>1395.5</ele>
        <time>2016-06-08T09:21:56Z</time>
      </trkpt>
      <trkpt lat="42.478206" lon="0.302847">
        <ele>1395.5</ele>
        <time>2016-06-08T09:22:04Z</time>
      </trkpt>
      <trkpt lat="42.478092" lon="0.302738">
        <ele>1395.5</ele>
        <time>2016-06-08T09:22:11Z</time>
      </trkpt>
      <trkpt lat="42.478036" lon="0.302832">
        <ele>1397.4</ele>
        <time>2016-06-08T09:22:24Z</time>
      </trkpt>
      <trkpt lat="42.477911" lon="0.302896">
        <ele>1399.3</ele>
        <time>2016-06-08T09:22:35Z</time>
      </trkpt>
      <trkpt lat="42.477833" lon="0.302916">
        <ele>1399.8</ele>
        <time>2016-06-08T09:22:41Z</time>
      </trkpt>
      <trkpt lat="42.477653" lon="0.302981">
        <ele>1401.3</ele>
        <time>2016-06-08T09:22:55Z</time>
      </trkpt>
      <trkpt lat="42.477489" lon="0.303059">
        <ele>1403.7</ele>
        <time>2016-06-08T09:23:12Z</time>
      </trkpt>
      <trkpt lat="42.477370" lon="0.303125">
        <ele>1406.6</ele>
        <time>2016-06-08T09:23:26Z</time>
      </trkpt>
      <trkpt lat="42.477244" lon="0.303206">
        <ele>1409.0</ele>
        <time>2016-06-08T09:23:42Z</time>
      </trkpt>
      <trkpt lat="42.477157" lon="0.303300">
        <ele>1410.9</ele>
        <time>2016-06-08T09:23:55Z</time>
      </trkpt>
      <trkpt lat="42.477054" lon="0.303403">
        <ele>1412.8</ele>
        <time>2016-06-08T09:24:08Z</time>
      </trkpt>
      <trkpt lat="42.476994" lon="0.303470">
        <ele>1414.2</ele>
        <time>2016-06-08T09:24:14Z</time>
      </trkpt>
      <trkpt lat="42.476940" lon="0.303525">
        <ele>1414.7</ele>
        <time>2016-06-08T09:24:18Z</time>
      </trkpt>
      <trkpt lat="42.476859" lon="0.303559">
        <ele>1415.7</ele>
        <time>2016-06-08T09:24:25Z</time>
      </trkpt>
      <trkpt lat="42.476807" lon="0.303471">
        <ele>1417.1</ele>
        <time>2016-06-08T09:24:35Z</time>
      </trkpt>
      <trkpt lat="42.476913" lon="0.303286">
        <ele>1419.0</ele>
        <time>2016-06-08T09:24:51Z</time>
      </trkpt>
      <trkpt lat="42.477015" lon="0.303074">
        <ele>1420.0</ele>
        <time>2016-06-08T09:25:05Z</time>
      </trkpt>
      <trkpt lat="42.477063" lon="0.302873">
        <ele>1421.5</ele>
        <time>2016-06-08T09:25:18Z</time>
      </trkpt>
      <trkpt lat="42.477092" lon="0.302677">
        <ele>1422.9</ele>
        <time>2016-06-08T09:25:32Z</time>
      </trkpt>
      <trkpt lat="42.477117" lon="0.302603">
        <ele>1423.9</ele>
        <time>2016-06-08T09:25:38Z</time>
      </trkpt>
      <trkpt lat="42.477186" lon="0.302502">
        <ele>1424.3</ele>
        <time>2016-06-08T09:25:48Z</time>
      </trkpt>
      <trkpt lat="42.477265" lon="0.302288">
        <ele>1427.2</ele>
        <time>2016-06-08T09:26:03Z</time>
      </trkpt>
      <trkpt lat="42.477265" lon="0.302152">
        <ele>1429.1</ele>
        <time>2016-06-08T09:26:14Z</time>
      </trkpt>
      <trkpt lat="42.477254" lon="0.302011">
        <ele>1429.6</ele>
        <time>2016-06-08T09:26:22Z</time>
      </trkpt>
      <trkpt lat="42.477279" lon="0.301924">
        <ele>1430.6</ele>
        <time>2016-06-08T09:26:28Z</time>
      </trkpt>
      <trkpt lat="42.477345" lon="0.301781">
        <ele>1433.0</ele>
        <time>2016-06-08T09:26:42Z</time>
      </trkpt>
      <trkpt lat="42.477425" lon="0.301601">
        <ele>1435.4</ele>
        <time>2016-06-08T09:26:57Z</time>
      </trkpt>
      <trkpt lat="42.477516" lon="0.301462">
        <ele>1437.8</ele>
        <time>2016-06-08T09:27:12Z</time>
      </trkpt>
      <trkpt lat="42.477566" lon="0.301286">
        <ele>1439.2</ele>
        <time>2016-06-08T09:27:25Z</time>
      </trkpt>
      <trkpt lat="42.477555" lon="0.301204">
        <ele>1439.2</ele>
        <time>2016-06-08T09:27:31Z</time>
      </trkpt>
      <trkpt lat="42.477514" lon="0.301129">
        <ele>1440.2</ele>
        <time>2016-06-08T09:27:37Z</time>
      </trkpt>
      <trkpt lat="42.477458" lon="0.300948">
        <ele>1442.1</ele>
        <time>2016-06-08T09:27:51Z</time>
      </trkpt>
      <trkpt lat="42.477472" lon="0.300886">
        <ele>1443.1</ele>
        <time>2016-06-08T09:28:08Z</time>
      </trkpt>
      <trkpt lat="42.477504" lon="0.300730">
        <ele>1443.6</ele>
        <time>2016-06-08T09:28:40Z</time>
      </trkpt>
      <trkpt lat="42.477475" lon="0.300682">
        <ele>1444.0</ele>
        <time>2016-06-08T09:29:14Z</time>
      </trkpt>
      <trkpt lat="42.477549" lon="0.300638">
        <ele>1446.0</ele>
        <time>2016-06-08T09:29:37Z</time>
      </trkpt>
      <trkpt lat="42.477654" lon="0.300497">
        <ele>1448.8</ele>
        <time>2016-06-08T09:29:54Z</time>
      </trkpt>
      <trkpt lat="42.477677" lon="0.300339">
        <ele>1450.3</ele>
        <time>2016-06-08T09:30:06Z</time>
      </trkpt>
      <trkpt lat="42.477704" lon="0.300170">
        <ele>1450.8</ele>
        <time>2016-06-08T09:30:18Z</time>
      </trkpt>
      <trkpt lat="42.477776" lon="0.299947">
        <ele>1453.2</ele>
        <time>2016-06-08T09:30:32Z</time>
      </trkpt>
      <trkpt lat="42.477866" lon="0.299651">
        <ele>1455.1</ele>
        <time>2016-06-08T09:30:49Z</time>
      </trkpt>
      <trkpt lat="42.477913" lon="0.299339">
        <ele>1458.0</ele>
        <time>2016-06-08T09:31:08Z</time>
      </trkpt>
      <trkpt lat="42.477999" lon="0.299135">
        <ele>1458.9</ele>
        <time>2016-06-08T09:31:21Z</time>
      </trkpt>
      <trkpt lat="42.478158" lon="0.298989">
        <ele>1460.4</ele>
        <time>2016-06-08T09:31:36Z</time>
      </trkpt>
      <trkpt lat="42.478276" lon="0.299002">
        <ele>1461.8</ele>
        <time>2016-06-08T09:31:48Z</time>
      </trkpt>
      <trkpt lat="42.478403" lon="0.299116">
        <ele>1464.2</ele>
        <time>2016-06-08T09:32:02Z</time>
      </trkpt>
      <trkpt lat="42.478489" lon="0.299152">
        <ele>1464.7</ele>
        <time>2016-06-08T09:32:09Z</time>
      </trkpt>
      <trkpt lat="42.478684" lon="0.299192">
        <ele>1467.1</ele>
        <time>2016-06-08T09:32:26Z</time>
      </trkpt>
      <trkpt lat="42.478808" lon="0.299200">
        <ele>1470.0</ele>
        <time>2016-06-08T09:32:39Z</time>
      </trkpt>
      <trkpt lat="42.478870" lon="0.299127">
        <ele>1471.4</ele>
        <time>2016-06-08T09:32:56Z</time>
      </trkpt>
      <trkpt lat="42.478882" lon="0.299051">
        <ele>1472.9</ele>
        <time>2016-06-08T09:33:03Z</time>
      </trkpt>
      <trkpt lat="42.478860" lon="0.298800">
        <ele>1473.8</ele>
        <time>2016-06-08T09:33:20Z</time>
      </trkpt>
      <trkpt lat="42.478814" lon="0.298603">
        <ele>1473.8</ele>
        <time>2016-06-08T09:33:34Z</time>
      </trkpt>
      <trkpt lat="42.478717" lon="0.298374">
        <ele>1473.8</ele>
        <time>2016-06-08T09:33:52Z</time>
      </trkpt>
      <trkpt lat="42.478627" lon="0.298153">
        <ele>1474.3</ele>
        <time>2016-06-08T09:34:10Z</time>
      </trkpt>
      <trkpt lat="42.478603" lon="0.297949">
        <ele>1475.8</ele>
        <time>2016-06-08T09:34:27Z</time>
      </trkpt>
      <trkpt lat="42.478601" lon="0.297750">
        <ele>1476.7</ele>
        <time>2016-06-08T09:34:46Z</time>
      </trkpt>
      <trkpt lat="42.478592" lon="0.297689">
        <ele>1477.2</ele>
        <time>2016-06-08T09:34:50Z</time>
      </trkpt>
      <trkpt lat="42.478594" lon="0.297566">
        <ele>1477.2</ele>
        <time>2016-06-08T09:34:56Z</time>
      </trkpt>
      <trkpt lat="42.478619" lon="0.297425">
        <ele>1478.7</ele>
        <time>2016-06-08T09:35:04Z</time>
      </trkpt>
      <trkpt lat="42.478639" lon="0.297331">
        <ele>1479.1</ele>
        <time>2016-06-08T09:35:10Z</time>
      </trkpt>
      <trkpt lat="42.478705" lon="0.297130">
        <ele>1481.1</ele>
        <time>2016-06-08T09:35:22Z</time>
      </trkpt>
      <trkpt lat="42.478718" lon="0.297004">
        <ele>1482.0</ele>
        <time>2016-06-08T09:35:30Z</time>
      </trkpt>
      <trkpt lat="42.478738" lon="0.296876">
        <ele>1482.0</ele>
        <time>2016-06-08T09:35:37Z</time>
      </trkpt>
      <trkpt lat="42.478726" lon="0.296658">
        <ele>1483.9</ele>
        <time>2016-06-08T09:35:52Z</time>
      </trkpt>
      <trkpt lat="42.478646" lon="0.296408">
        <ele>1484.9</ele>
        <time>2016-06-08T09:36:09Z</time>
      </trkpt>
      <trkpt lat="42.478616" lon="0.296342">
        <ele>1484.9</ele>
        <time>2016-06-08T09:36:14Z</time>
      </trkpt>
      <trkpt lat="42.478549" lon="0.296268">
        <ele>1484.9</ele>
        <time>2016-06-08T09:36:19Z</time>
      </trkpt>
      <trkpt lat="42.478428" lon="0.296112">
        <ele>1483.9</ele>
        <time>2016-06-08T09:36:31Z</time>
      </trkpt>
      <trkpt lat="42.478455" lon="0.295981">
        <ele>1484.9</ele>
        <time>2016-06-08T09:36:44Z</time>
      </trkpt>
      <trkpt lat="42.478519" lon="0.295831">
        <ele>1484.9</ele>
        <time>2016-06-08T09:36:54Z</time>
      </trkpt>
      <trkpt lat="42.478569" lon="0.295790">
        <ele>1485.9</ele>
        <time>2016-06-08T09:36:58Z</time>
      </trkpt>
      <trkpt lat="42.478660" lon="0.295618">
        <ele>1487.8</ele>
        <time>2016-06-08T09:37:08Z</time>
      </trkpt>
      <trkpt lat="42.478790" lon="0.295442">
        <ele>1489.7</ele>
        <time>2016-06-08T09:37:22Z</time>
      </trkpt>
      <trkpt lat="42.478809" lon="0.295328">
        <ele>1490.7</ele>
        <time>2016-06-08T09:37:29Z</time>
      </trkpt>
      <trkpt lat="42.478794" lon="0.295125">
        <ele>1491.6</ele>
        <time>2016-06-08T09:37:40Z</time>
      </trkpt>
      <trkpt lat="42.478774" lon="0.295020">
        <ele>1492.6</ele>
        <time>2016-06-08T09:37:47Z</time>
      </trkpt>
      <trkpt lat="42.478744" lon="0.294948">
        <ele>1492.6</ele>
        <time>2016-06-08T09:37:51Z</time>
      </trkpt>
      <trkpt lat="42.478749" lon="0.294835">
        <ele>1493.1</ele>
        <time>2016-06-08T09:37:58Z</time>
      </trkpt>
      <trkpt lat="42.478812" lon="0.294719">
        <ele>1494.0</ele>
        <time>2016-06-08T09:38:05Z</time>
      </trkpt>
      <trkpt lat="42.478790" lon="0.294641">
        <ele>1494.0</ele>
        <time>2016-06-08T09:38:09Z</time>
      </trkpt>
      <trkpt lat="42.478622" lon="0.294392">
        <ele>1493.1</ele>
        <time>2016-06-08T09:38:20Z</time>
      </trkpt>
      <trkpt lat="42.478615" lon="0.294188">
        <ele>1494.0</ele>
        <time>2016-06-08T09:38:32Z</time>
      </trkpt>
      <trkpt lat="42.478687" lon="0.294031">
        <ele>1497.4</ele>
        <time>2016-06-08T09:38:43Z</time>
      </trkpt>
      <trkpt lat="42.478712" lon="0.293961">
        <ele>1497.4</ele>
        <time>2016-06-08T09:38:47Z</time>
      </trkpt>
      <trkpt lat="42.478730" lon="0.293898">
        <ele>1497.4</ele>
        <time>2016-06-08T09:38:49Z</time>
      </trkpt>
      <trkpt lat="42.478763" lon="0.293704">
        <ele>1497.4</ele>
        <time>2016-06-08T09:38:57Z</time>
      </trkpt>
      <trkpt lat="42.478748" lon="0.293597">
        <ele>1497.9</ele>
        <time>2016-06-08T09:39:03Z</time>
      </trkpt>
      <trkpt lat="42.478747" lon="0.293312">
        <ele>1499.3</ele>
        <time>2016-06-08T09:39:18Z</time>
      </trkpt>
      <trkpt lat="42.478677" lon="0.293020">
        <ele>1499.3</ele>
        <time>2016-06-08T09:39:32Z</time>
      </trkpt>
      <trkpt lat="42.478633" lon="0.292887">
        <ele>1499.3</ele>
        <time>2016-06-08T09:39:39Z</time>
      </trkpt>
      <trkpt lat="42.478567" lon="0.292620">
        <ele>1499.8</ele>
        <time>2016-06-08T09:39:51Z</time>
      </trkpt>
      <trkpt lat="42.478554" lon="0.292378">
        <ele>1499.8</ele>
        <time>2016-06-08T09:40:03Z</time>
      </trkpt>
      <trkpt lat="42.478603" lon="0.292272">
        <ele>1500.8</ele>
        <time>2016-06-08T09:40:16Z</time>
      </trkpt>
      <trkpt lat="42.478637" lon="0.292178">
        <ele>1501.7</ele>
        <time>2016-06-08T09:40:26Z</time>
      </trkpt>
      <trkpt lat="42.478691" lon="0.292070">
        <ele>1501.7</ele>
        <time>2016-06-08T09:40:37Z</time>
      </trkpt>
      <trkpt lat="42.478817" lon="0.291950">
        <ele>1503.6</ele>
        <time>2016-06-08T09:40:51Z</time>
      </trkpt>
      <trkpt lat="42.478913" lon="0.291867">
        <ele>1504.6</ele>
        <time>2016-06-08T09:41:03Z</time>
      </trkpt>
      <trkpt lat="42.479007" lon="0.291729">
        <ele>1506.0</ele>
        <time>2016-06-08T09:41:15Z</time>
      </trkpt>
      <trkpt lat="42.479093" lon="0.291563">
        <ele>1507.5</ele>
        <time>2016-06-08T09:41:28Z</time>
      </trkpt>
      <trkpt lat="42.479177" lon="0.291408">
        <ele>1508.5</ele>
        <time>2016-06-08T09:41:41Z</time>
      </trkpt>
      <trkpt lat="42.479259" lon="0.291242">
        <ele>1510.4</ele>
        <time>2016-06-08T09:41:53Z</time>
      </trkpt>
      <trkpt lat="42.479279" lon="0.291095">
        <ele>1510.4</ele>
        <time>2016-06-08T09:42:05Z</time>
      </trkpt>
      <trkpt lat="42.479310" lon="0.290912">
        <ele>1510.9</ele>
        <time>2016-06-08T09:42:17Z</time>
      </trkpt>
      <trkpt lat="42.479290" lon="0.290747">
        <ele>1512.3</ele>
        <time>2016-06-08T09:42:32Z</time>
      </trkpt>
      <trkpt lat="42.479285" lon="0.290577">
        <ele>1512.8</ele>
        <time>2016-06-08T09:42:45Z</time>
      </trkpt>
      <trkpt lat="42.479301" lon="0.290420">
        <ele>1513.3</ele>
        <time>2016-06-08T09:42:57Z</time>
      </trkpt>
      <trkpt lat="42.479319" lon="0.290250">
        <ele>1514.2</ele>
        <time>2016-06-08T09:43:09Z</time>
      </trkpt>
      <trkpt lat="42.479344" lon="0.290195">
        <ele>1514.2</ele>
        <time>2016-06-08T09:43:18Z</time>
      </trkpt>
      <trkpt lat="42.479301" lon="0.290086">
        <ele>1514.2</ele>
        <time>2016-06-08T09:43:23Z</time>
      </trkpt>
      <trkpt lat="42.479302" lon="0.289978">
        <ele>1514.2</ele>
        <time>2016-06-08T09:43:27Z</time>
      </trkpt>
      <trkpt lat="42.479319" lon="0.289766">
        <ele>1511.8</ele>
        <time>2016-06-08T09:43:33Z</time>
      </trkpt>
      <trkpt lat="42.479319" lon="0.289322">
        <ele>1510.4</ele>
        <time>2016-06-08T09:43:44Z</time>
      </trkpt>
      <trkpt lat="42.479353" lon="0.288949">
        <ele>1509.9</ele>
        <time>2016-06-08T09:43:53Z</time>
      </trkpt>
      <trkpt lat="42.479489" lon="0.288518">
        <ele>1508.9</ele>
        <time>2016-06-08T09:44:06Z</time>
      </trkpt>
      <trkpt lat="42.479601" lon="0.288321">
        <ele>1507.5</ele>
        <time>2016-06-08T09:44:16Z</time>
      </trkpt>
      <trkpt lat="42.479674" lon="0.288118">
        <ele>1504.6</ele>
        <time>2016-06-08T09:44:31Z</time>
      </trkpt>
      <trkpt lat="42.479742" lon="0.287956">
        <ele>1501.7</ele>
        <time>2016-06-08T09:44:43Z</time>
      </trkpt>
      <trkpt lat="42.479764" lon="0.287815">
        <ele>1499.8</ele>
        <time>2016-06-08T09:44:57Z</time>
      </trkpt>
      <trkpt lat="42.479793" lon="0.287721">
        <ele>1498.4</ele>
        <time>2016-06-08T09:45:02Z</time>
      </trkpt>
      <trkpt lat="42.479785" lon="0.287639">
        <ele>1497.4</ele>
        <time>2016-06-08T09:45:06Z</time>
      </trkpt>
      <trkpt lat="42.479638" lon="0.287543">
        <ele>1495.0</ele>
        <time>2016-06-08T09:45:20Z</time>
      </trkpt>
      <trkpt lat="42.479601" lon="0.287361">
        <ele>1491.6</ele>
        <time>2016-06-08T09:45:31Z</time>
      </trkpt>
      <trkpt lat="42.479636" lon="0.287080">
        <ele>1490.2</ele>
        <time>2016-06-08T09:45:41Z</time>
      </trkpt>
      <trkpt lat="42.479824" lon="0.286819">
        <ele>1491.6</ele>
        <time>2016-06-08T09:45:53Z</time>
      </trkpt>
      <trkpt lat="42.479976" lon="0.286461">
        <ele>1491.6</ele>
        <time>2016-06-08T09:46:05Z</time>
      </trkpt>
      <trkpt lat="42.479990" lon="0.286389">
        <ele>1490.2</ele>
        <time>2016-06-08T09:46:07Z</time>
      </trkpt>
      <trkpt lat="42.480000" lon="0.286217">
        <ele>1487.3</ele>
        <time>2016-06-08T09:46:13Z</time>
      </trkpt>
      <trkpt lat="42.480001" lon="0.285960">
        <ele>1486.3</ele>
        <time>2016-06-08T09:46:20Z</time>
      </trkpt>
      <trkpt lat="42.480052" lon="0.285583">
        <ele>1485.4</ele>
        <time>2016-06-08T09:46:32Z</time>
      </trkpt>
      <trkpt lat="42.480089" lon="0.285408">
        <ele>1483.5</ele>
        <time>2016-06-08T09:46:37Z</time>
      </trkpt>
      <trkpt lat="42.480166" lon="0.284934">
        <ele>1480.1</ele>
        <time>2016-06-08T09:46:46Z</time>
      </trkpt>
      <trkpt lat="42.480255" lon="0.284368">
        <ele>1477.2</ele>
        <time>2016-06-08T09:46:57Z</time>
      </trkpt>
      <trkpt lat="42.480373" lon="0.284100">
        <ele>1477.2</ele>
        <time>2016-06-08T09:47:06Z</time>
      </trkpt>
      <trkpt lat="42.480498" lon="0.283721">
        <ele>1475.8</ele>
        <time>2016-06-08T09:47:18Z</time>
      </trkpt>
      <trkpt lat="42.480553" lon="0.283448">
        <ele>1472.4</ele>
        <time>2016-06-08T09:47:27Z</time>
      </trkpt>
      <trkpt lat="42.480625" lon="0.283249">
        <ele>1471.4</ele>
        <time>2016-06-08T09:47:33Z</time>
      </trkpt>
      <trkpt lat="42.480605" lon="0.283107">
        <ele>1470.0</ele>
        <time>2016-06-08T09:47:39Z</time>
      </trkpt>
      <trkpt lat="42.480529" lon="0.282927">
        <ele>1468.1</ele>
        <time>2016-06-08T09:47:46Z</time>
      </trkpt>
      <trkpt lat="42.480491" lon="0.282845">
        <ele>1467.6</ele>
        <time>2016-06-08T09:47:50Z</time>
      </trkpt>
      <trkpt lat="42.480609" lon="0.282638">
        <ele>1469.0</ele>
        <time>2016-06-08T09:48:01Z</time>
      </trkpt>
      <trkpt lat="42.480688" lon="0.282481">
        <ele>1469.5</ele>
        <time>2016-06-08T09:48:15Z</time>
      </trkpt>
      <trkpt lat="42.480770" lon="0.282331">
        <ele>1469.5</ele>
        <time>2016-06-08T09:48:31Z</time>
      </trkpt>
      <trkpt lat="42.480868" lon="0.282242">
        <ele>1469.5</ele>
        <time>2016-06-08T09:48:54Z</time>
      </trkpt>
      <trkpt lat="42.480922" lon="0.282220">
        <ele>1469.5</ele>
        <time>2016-06-08T09:49:16Z</time>
      </trkpt>
      <trkpt lat="42.480971" lon="0.282150">
        <ele>1477.7</ele>
        <time>2016-06-08T10:14:10Z</time>
      </trkpt>
      <trkpt lat="42.480978" lon="0.282040">
        <ele>1478.2</ele>
        <time>2016-06-08T10:14:17Z</time>
      </trkpt>
      <trkpt lat="42.481000" lon="0.281937">
        <ele>1478.2</ele>
        <time>2016-06-08T10:14:23Z</time>
      </trkpt>
      <trkpt lat="42.481005" lon="0.281856">
        <ele>1478.7</ele>
        <time>2016-06-08T10:14:28Z</time>
      </trkpt>
      <trkpt lat="42.481052" lon="0.281723">
        <ele>1479.1</ele>
        <time>2016-06-08T10:14:37Z</time>
      </trkpt>
      <trkpt lat="42.481046" lon="0.281644">
        <ele>1479.6</ele>
        <time>2016-06-08T10:14:41Z</time>
      </trkpt>
      <trkpt lat="42.481108" lon="0.281530">
        <ele>1479.6</ele>
        <time>2016-06-08T10:14:47Z</time>
      </trkpt>
      <trkpt lat="42.481119" lon="0.281421">
        <ele>1480.6</ele>
        <time>2016-06-08T10:14:54Z</time>
      </trkpt>
      <trkpt lat="42.481230" lon="0.281186">
        <ele>1482.5</ele>
        <time>2016-06-08T10:15:08Z</time>
      </trkpt>
      <trkpt lat="42.481269" lon="0.281111">
        <ele>1482.5</ele>
        <time>2016-06-08T10:15:12Z</time>
      </trkpt>
      <trkpt lat="42.481293" lon="0.281038">
        <ele>1483.0</ele>
        <time>2016-06-08T10:15:17Z</time>
      </trkpt>
      <trkpt lat="42.481321" lon="0.280968">
        <ele>1483.0</ele>
        <time>2016-06-08T10:15:22Z</time>
      </trkpt>
      <trkpt lat="42.481371" lon="0.280840">
        <ele>1483.5</ele>
        <time>2016-06-08T10:15:28Z</time>
      </trkpt>
      <trkpt lat="42.481459" lon="0.280650">
        <ele>1483.5</ele>
        <time>2016-06-08T10:15:38Z</time>
      </trkpt>
      <trkpt lat="42.481575" lon="0.280377">
        <ele>1483.9</ele>
        <time>2016-06-08T10:15:51Z</time>
      </trkpt>
      <trkpt lat="42.481582" lon="0.280314">
        <ele>1483.9</ele>
        <time>2016-06-08T10:15:54Z</time>
      </trkpt>
      <trkpt lat="42.481417" lon="0.279897">
        <ele>1485.9</ele>
        <time>2016-06-08T10:16:13Z</time>
      </trkpt>
      <trkpt lat="42.481384" lon="0.279736">
        <ele>1486.3</ele>
        <time>2016-06-08T10:16:22Z</time>
      </trkpt>
      <trkpt lat="42.481373" lon="0.279652">
        <ele>1486.8</ele>
        <time>2016-06-08T10:16:27Z</time>
      </trkpt>
      <trkpt lat="42.481358" lon="0.279563">
        <ele>1486.8</ele>
        <time>2016-06-08T10:16:32Z</time>
      </trkpt>
      <trkpt lat="42.481352" lon="0.279447">
        <ele>1488.3</ele>
        <time>2016-06-08T10:16:38Z</time>
      </trkpt>
      <trkpt lat="42.481372" lon="0.279319">
        <ele>1488.7</ele>
        <time>2016-06-08T10:16:45Z</time>
      </trkpt>
      <trkpt lat="42.481557" lon="0.279053">
        <ele>1490.2</ele>
        <time>2016-06-08T10:17:02Z</time>
      </trkpt>
      <trkpt lat="42.481588" lon="0.278997">
        <ele>1491.1</ele>
        <time>2016-06-08T10:17:06Z</time>
      </trkpt>
      <trkpt lat="42.481624" lon="0.278733">
        <ele>1493.1</ele>
        <time>2016-06-08T10:17:22Z</time>
      </trkpt>
      <trkpt lat="42.481630" lon="0.278657">
        <ele>1493.6</ele>
        <time>2016-06-08T10:17:26Z</time>
      </trkpt>
      <trkpt lat="42.481627" lon="0.278558">
        <ele>1494.0</ele>
        <time>2016-06-08T10:17:31Z</time>
      </trkpt>
      <trkpt lat="42.481628" lon="0.278395">
        <ele>1495.0</ele>
        <time>2016-06-08T10:17:40Z</time>
      </trkpt>
      <trkpt lat="42.481616" lon="0.278182">
        <ele>1496.0</ele>
        <time>2016-06-08T10:17:54Z</time>
      </trkpt>
      <trkpt lat="42.481594" lon="0.277923">
        <ele>1498.4</ele>
        <time>2016-06-08T10:18:10Z</time>
      </trkpt>
      <trkpt lat="42.481574" lon="0.277792">
        <ele>1499.3</ele>
        <time>2016-06-08T10:18:18Z</time>
      </trkpt>
      <trkpt lat="42.481606" lon="0.277659">
        <ele>1500.8</ele>
        <time>2016-06-08T10:18:27Z</time>
      </trkpt>
      <trkpt lat="42.481655" lon="0.277438">
        <ele>1501.7</ele>
        <time>2016-06-08T10:18:41Z</time>
      </trkpt>
      <trkpt lat="42.481693" lon="0.277222">
        <ele>1504.1</ele>
        <time>2016-06-08T10:18:57Z</time>
      </trkpt>
      <trkpt lat="42.481716" lon="0.277102">
        <ele>1505.1</ele>
        <time>2016-06-08T10:19:05Z</time>
      </trkpt>
      <trkpt lat="42.481695" lon="0.277023">
        <ele>1505.6</ele>
        <time>2016-06-08T10:19:10Z</time>
      </trkpt>
      <trkpt lat="42.481714" lon="0.276830">
        <ele>1506.5</ele>
        <time>2016-06-08T10:19:21Z</time>
      </trkpt>
      <trkpt lat="42.481695" lon="0.276634">
        <ele>1508.5</ele>
        <time>2016-06-08T10:19:33Z</time>
      </trkpt>
      <trkpt lat="42.481701" lon="0.276503">
        <ele>1508.9</ele>
        <time>2016-06-08T10:19:41Z</time>
      </trkpt>
      <trkpt lat="42.481499" lon="0.276306">
        <ele>1508.9</ele>
        <time>2016-06-08T10:19:47Z</time>
      </trkpt>
      <trkpt lat="42.481339" lon="0.276110">
        <ele>1509.4</ele>
        <time>2016-06-08T10:20:01Z</time>
      </trkpt>
      <trkpt lat="42.481161" lon="0.275968">
        <ele>1511.8</ele>
        <time>2016-06-08T10:20:18Z</time>
      </trkpt>
      <trkpt lat="42.481104" lon="0.275866">
        <ele>1512.3</ele>
        <time>2016-06-08T10:20:26Z</time>
      </trkpt>
      <trkpt lat="42.481223" lon="0.275643">
        <ele>1513.7</ele>
        <time>2016-06-08T10:20:42Z</time>
      </trkpt>
      <trkpt lat="42.481347" lon="0.275475">
        <ele>1514.7</ele>
        <time>2016-06-08T10:20:52Z</time>
      </trkpt>
      <trkpt lat="42.481399" lon="0.275348">
        <ele>1514.7</ele>
        <time>2016-06-08T10:20:57Z</time>
      </trkpt>
      <trkpt lat="42.481376" lon="0.275251">
        <ele>1513.3</ele>
        <time>2016-06-08T10:21:02Z</time>
      </trkpt>
      <trkpt lat="42.481373" lon="0.274928">
        <ele>1512.3</ele>
        <time>2016-06-08T10:21:08Z</time>
      </trkpt>
      <trkpt lat="42.481419" lon="0.274606">
        <ele>1510.4</ele>
        <time>2016-06-08T10:21:13Z</time>
      </trkpt>
      <trkpt lat="42.481407" lon="0.274269">
        <ele>1509.9</ele>
        <time>2016-06-08T10:21:19Z</time>
      </trkpt>
      <trkpt lat="42.481252" lon="0.273834">
        <ele>1507.5</ele>
        <time>2016-06-08T10:21:27Z</time>
      </trkpt>
      <trkpt lat="42.481224" lon="0.273666">
        <ele>1507.5</ele>
        <time>2016-06-08T10:21:30Z</time>
      </trkpt>
      <trkpt lat="42.481264" lon="0.273530">
        <ele>1507.0</ele>
        <time>2016-06-08T10:21:32Z</time>
      </trkpt>
      <trkpt lat="42.481367" lon="0.273200">
        <ele>1505.1</ele>
        <time>2016-06-08T10:21:38Z</time>
      </trkpt>
      <trkpt lat="42.481382" lon="0.272781">
        <ele>1501.2</ele>
        <time>2016-06-08T10:21:46Z</time>
      </trkpt>
      <trkpt lat="42.481387" lon="0.272719">
        <ele>1500.8</ele>
        <time>2016-06-08T10:21:47Z</time>
      </trkpt>
      <trkpt lat="42.481229" lon="0.272229">
        <ele>1496.9</ele>
        <time>2016-06-08T10:21:56Z</time>
      </trkpt>
      <trkpt lat="42.481221" lon="0.272125">
        <ele>1496.0</ele>
        <time>2016-06-08T10:21:58Z</time>
      </trkpt>
      <trkpt lat="42.481266" lon="0.271827">
        <ele>1493.6</ele>
        <time>2016-06-08T10:22:02Z</time>
      </trkpt>
      <trkpt lat="42.481270" lon="0.271750">
        <ele>1493.6</ele>
        <time>2016-06-08T10:22:03Z</time>
      </trkpt>
      <trkpt lat="42.481248" lon="0.271589">
        <ele>1492.1</ele>
        <time>2016-06-08T10:22:05Z</time>
      </trkpt>
      <trkpt lat="42.481193" lon="0.271421">
        <ele>1491.6</ele>
        <time>2016-06-08T10:22:07Z</time>
      </trkpt>
      <trkpt lat="42.481223" lon="0.271140">
        <ele>1490.2</ele>
        <time>2016-06-08T10:22:11Z</time>
      </trkpt>
      <trkpt lat="42.481357" lon="0.270742">
        <ele>1489.2</ele>
        <time>2016-06-08T10:22:17Z</time>
      </trkpt>
      <trkpt lat="42.481457" lon="0.270325">
        <ele>1488.3</ele>
        <time>2016-06-08T10:22:23Z</time>
      </trkpt>
      <trkpt lat="42.481548" lon="0.269913">
        <ele>1487.8</ele>
        <time>2016-06-08T10:22:32Z</time>
      </trkpt>
      <trkpt lat="42.481569" lon="0.269776">
        <ele>1487.8</ele>
        <time>2016-06-08T10:22:37Z</time>
      </trkpt>
      <trkpt lat="42.481609" lon="0.269671">
        <ele>1487.8</ele>
        <time>2016-06-08T10:22:41Z</time>
      </trkpt>
      <trkpt lat="42.481716" lon="0.269165">
        <ele>1487.3</ele>
        <time>2016-06-08T10:22:55Z</time>
      </trkpt>
      <trkpt lat="42.481577" lon="0.268800">
        <ele>1484.4</ele>
        <time>2016-06-08T10:23:02Z</time>
      </trkpt>
      <trkpt lat="42.481546" lon="0.268545">
        <ele>1483.0</ele>
        <time>2016-06-08T10:23:06Z</time>
      </trkpt>
      <trkpt lat="42.481515" lon="0.268418">
        <ele>1482.0</ele>
        <time>2016-06-08T10:23:08Z</time>
      </trkpt>
      <trkpt lat="42.481525" lon="0.268122">
        <ele>1480.1</ele>
        <time>2016-06-08T10:23:13Z</time>
      </trkpt>
      <trkpt lat="42.481731" lon="0.267747">
        <ele>1477.2</ele>
        <time>2016-06-08T10:23:20Z</time>
      </trkpt>
      <trkpt lat="42.481772" lon="0.267500">
        <ele>1474.8</ele>
        <time>2016-06-08T10:23:24Z</time>
      </trkpt>
      <trkpt lat="42.481834" lon="0.267282">
        <ele>1473.4</ele>
        <time>2016-06-08T10:23:27Z</time>
      </trkpt>
      <trkpt lat="42.481865" lon="0.267205">
        <ele>1473.8</ele>
        <time>2016-06-08T10:23:28Z</time>
      </trkpt>
      <trkpt lat="42.481989" lon="0.267001">
        <ele>1472.4</ele>
        <time>2016-06-08T10:23:31Z</time>
      </trkpt>
      <trkpt lat="42.482071" lon="0.266869">
        <ele>1471.9</ele>
        <time>2016-06-08T10:23:33Z</time>
      </trkpt>
      <trkpt lat="42.482130" lon="0.266748">
        <ele>1471.0</ele>
        <time>2016-06-08T10:23:35Z</time>
      </trkpt>
      <trkpt lat="42.482158" lon="0.266486">
        <ele>1469.5</ele>
        <time>2016-06-08T10:23:39Z</time>
      </trkpt>
      <trkpt lat="42.482085" lon="0.266327">
        <ele>1468.1</ele>
        <time>2016-06-08T10:23:42Z</time>
      </trkpt>
      <trkpt lat="42.481921" lon="0.266121">
        <ele>1465.7</ele>
        <time>2016-06-08T10:23:46Z</time>
      </trkpt>
      <trkpt lat="42.481796" lon="0.265782">
        <ele>1464.7</ele>
        <time>2016-06-08T10:23:51Z</time>
      </trkpt>
      <trkpt lat="42.481813" lon="0.265516">
        <ele>1463.7</ele>
        <time>2016-06-08T10:23:55Z</time>
      </trkpt>
      <trkpt lat="42.481822" lon="0.265315">
        <ele>1463.7</ele>
        <time>2016-06-08T10:23:58Z</time>
      </trkpt>
      <trkpt lat="42.481722" lon="0.264766">
        <ele>1462.3</ele>
        <time>2016-06-08T10:24:09Z</time>
      </trkpt>
      <trkpt lat="42.481703" lon="0.264672">
        <ele>1461.8</ele>
        <time>2016-06-08T10:24:11Z</time>
      </trkpt>
      <trkpt lat="42.481581" lon="0.264359">
        <ele>1460.9</ele>
        <time>2016-06-08T10:24:17Z</time>
      </trkpt>
      <trkpt lat="42.481498" lon="0.264101">
        <ele>1460.9</ele>
        <time>2016-06-08T10:24:22Z</time>
      </trkpt>
      <trkpt lat="42.481770" lon="0.263671">
        <ele>1460.9</ele>
        <time>2016-06-08T10:24:36Z</time>
      </trkpt>
      <trkpt lat="42.481845" lon="0.263518">
        <ele>1462.3</ele>
        <time>2016-06-08T10:24:43Z</time>
      </trkpt>
      <trkpt lat="42.481875" lon="0.263358">
        <ele>1462.8</ele>
        <time>2016-06-08T10:24:50Z</time>
      </trkpt>
      <trkpt lat="42.481718" lon="0.262903">
        <ele>1459.9</ele>
        <time>2016-06-08T10:25:01Z</time>
      </trkpt>
      <trkpt lat="42.481615" lon="0.262714">
        <ele>1457.5</ele>
        <time>2016-06-08T10:25:05Z</time>
      </trkpt>
      <trkpt lat="42.481527" lon="0.262577">
        <ele>1455.6</ele>
        <time>2016-06-08T10:25:08Z</time>
      </trkpt>
      <trkpt lat="42.481309" lon="0.262351">
        <ele>1454.1</ele>
        <time>2016-06-08T10:25:14Z</time>
      </trkpt>
      <trkpt lat="42.481250" lon="0.262052">
        <ele>1453.7</ele>
        <time>2016-06-08T10:25:19Z</time>
      </trkpt>
      <trkpt lat="42.481182" lon="0.261650">
        <ele>1452.7</ele>
        <time>2016-06-08T10:25:26Z</time>
      </trkpt>
      <trkpt lat="42.481206" lon="0.261095">
        <ele>1452.2</ele>
        <time>2016-06-08T10:25:38Z</time>
      </trkpt>
      <trkpt lat="42.481144" lon="0.260691">
        <ele>1453.2</ele>
        <time>2016-06-08T10:25:53Z</time>
      </trkpt>
      <trkpt lat="42.481060" lon="0.260443">
        <ele>1455.1</ele>
        <time>2016-06-08T10:26:06Z</time>
      </trkpt>
      <trkpt lat="42.480938" lon="0.260255">
        <ele>1456.1</ele>
        <time>2016-06-08T10:26:19Z</time>
      </trkpt>
      <trkpt lat="42.480889" lon="0.260191">
        <ele>1456.5</ele>
        <time>2016-06-08T10:26:24Z</time>
      </trkpt>
      <trkpt lat="42.480834" lon="0.260168">
        <ele>1456.5</ele>
        <time>2016-06-08T10:26:28Z</time>
      </trkpt>
      <trkpt lat="42.480605" lon="0.260003">
        <ele>1456.5</ele>
        <time>2016-06-08T10:26:42Z</time>
      </trkpt>
      <trkpt lat="42.480514" lon="0.259734">
        <ele>1457.0</ele>
        <time>2016-06-08T10:26:53Z</time>
      </trkpt>
      <trkpt lat="42.480521" lon="0.259599">
        <ele>1458.5</ele>
        <time>2016-06-08T10:27:01Z</time>
      </trkpt>
      <trkpt lat="42.480515" lon="0.259449">
        <ele>1458.9</ele>
        <time>2016-06-08T10:27:09Z</time>
      </trkpt>
      <trkpt lat="42.480507" lon="0.259338">
        <ele>1459.4</ele>
        <time>2016-06-08T10:27:15Z</time>
      </trkpt>
      <trkpt lat="42.480484" lon="0.259209">
        <ele>1459.9</ele>
        <time>2016-06-08T10:27:22Z</time>
      </trkpt>
      <trkpt lat="42.480457" lon="0.259113">
        <ele>1460.9</ele>
        <time>2016-06-08T10:27:27Z</time>
      </trkpt>
      <trkpt lat="42.480428" lon="0.259008">
        <ele>1460.9</ele>
        <time>2016-06-08T10:27:32Z</time>
      </trkpt>
      <trkpt lat="42.480399" lon="0.258926">
        <ele>1460.9</ele>
        <time>2016-06-08T10:27:37Z</time>
      </trkpt>
      <trkpt lat="42.480368" lon="0.258863">
        <ele>1461.3</ele>
        <time>2016-06-08T10:27:42Z</time>
      </trkpt>
      <trkpt lat="42.480327" lon="0.258766">
        <ele>1461.8</ele>
        <time>2016-06-08T10:27:50Z</time>
      </trkpt>
      <trkpt lat="42.480141" lon="0.258591">
        <ele>1462.8</ele>
        <time>2016-06-08T10:28:05Z</time>
      </trkpt>
      <trkpt lat="42.480004" lon="0.258448">
        <ele>1464.2</ele>
        <time>2016-06-08T10:28:17Z</time>
      </trkpt>
      <trkpt lat="42.479904" lon="0.258180">
        <ele>1464.2</ele>
        <time>2016-06-08T10:28:29Z</time>
      </trkpt>
      <trkpt lat="42.479880" lon="0.257813">
        <ele>1464.7</ele>
        <time>2016-06-08T10:28:45Z</time>
      </trkpt>
      <trkpt lat="42.479955" lon="0.257495">
        <ele>1463.3</ele>
        <time>2016-06-08T10:28:53Z</time>
      </trkpt>
      <trkpt lat="42.480198" lon="0.257021">
        <ele>1462.8</ele>
        <time>2016-06-08T10:29:04Z</time>
      </trkpt>
      <trkpt lat="42.480219" lon="0.256945">
        <ele>1462.8</ele>
        <time>2016-06-08T10:29:07Z</time>
      </trkpt>
      <trkpt lat="42.480222" lon="0.256551">
        <ele>1464.2</ele>
        <time>2016-06-08T10:29:22Z</time>
      </trkpt>
      <trkpt lat="42.480078" lon="0.256352">
        <ele>1461.3</ele>
        <time>2016-06-08T10:29:27Z</time>
      </trkpt>
      <trkpt lat="42.479978" lon="0.256213">
        <ele>1460.4</ele>
        <time>2016-06-08T10:29:29Z</time>
      </trkpt>
      <trkpt lat="42.479893" lon="0.256053">
        <ele>1458.9</ele>
        <time>2016-06-08T10:29:32Z</time>
      </trkpt>
      <trkpt lat="42.479842" lon="0.255782">
        <ele>1458.0</ele>
        <time>2016-06-08T10:29:36Z</time>
      </trkpt>
      <trkpt lat="42.479840" lon="0.255234">
        <ele>1456.1</ele>
        <time>2016-06-08T10:29:43Z</time>
      </trkpt>
      <trkpt lat="42.479982" lon="0.254757">
        <ele>1454.1</ele>
        <time>2016-06-08T10:29:50Z</time>
      </trkpt>
      <trkpt lat="42.480012" lon="0.254445">
        <ele>1452.2</ele>
        <time>2016-06-08T10:29:54Z</time>
      </trkpt>
      <trkpt lat="42.480026" lon="0.253993">
        <ele>1448.8</ele>
        <time>2016-06-08T10:29:59Z</time>
      </trkpt>
      <trkpt lat="42.480033" lon="0.253850">
        <ele>1447.4</ele>
        <time>2016-06-08T10:30:01Z</time>
      </trkpt>
      <trkpt lat="42.479968" lon="0.253443">
        <ele>1446.4</ele>
        <time>2016-06-08T10:30:06Z</time>
      </trkpt>
      <trkpt lat="42.479903" lon="0.253207">
        <ele>1446.0</ele>
        <time>2016-06-08T10:30:09Z</time>
      </trkpt>
      <trkpt lat="42.479777" lon="0.252866">
        <ele>1444.5</ele>
        <time>2016-06-08T10:30:15Z</time>
      </trkpt>
      <trkpt lat="42.479753" lon="0.252799">
        <ele>1444.5</ele>
        <time>2016-06-08T10:30:16Z</time>
      </trkpt>
      <trkpt lat="42.479662" lon="0.252558">
        <ele>1444.0</ele>
        <time>2016-06-08T10:30:20Z</time>
      </trkpt>
      <trkpt lat="42.479570" lon="0.252461">
        <ele>1443.6</ele>
        <time>2016-06-08T10:30:23Z</time>
      </trkpt>
      <trkpt lat="42.479440" lon="0.252328">
        <ele>1441.6</ele>
        <time>2016-06-08T10:30:26Z</time>
      </trkpt>
      <trkpt lat="42.479225" lon="0.251903">
        <ele>1439.7</ele>
        <time>2016-06-08T10:30:32Z</time>
      </trkpt>
      <trkpt lat="42.479054" lon="0.251416">
        <ele>1437.3</ele>
        <time>2016-06-08T10:30:38Z</time>
      </trkpt>
      <trkpt lat="42.479001" lon="0.251084">
        <ele>1435.4</ele>
        <time>2016-06-08T10:30:42Z</time>
      </trkpt>
      <trkpt lat="42.478944" lon="0.250896">
        <ele>1433.9</ele>
        <time>2016-06-08T10:30:44Z</time>
      </trkpt>
      <trkpt lat="42.479041" lon="0.250375">
        <ele>1431.5</ele>
        <time>2016-06-08T10:30:52Z</time>
      </trkpt>
      <trkpt lat="42.479084" lon="0.250314">
        <ele>1431.5</ele>
        <time>2016-06-08T10:30:54Z</time>
      </trkpt>
      <trkpt lat="42.479150" lon="0.250111">
        <ele>1431.1</ele>
        <time>2016-06-08T10:31:00Z</time>
      </trkpt>
      <trkpt lat="42.478991" lon="0.249791">
        <ele>1428.2</ele>
        <time>2016-06-08T10:31:09Z</time>
      </trkpt>
      <trkpt lat="42.479069" lon="0.249624">
        <ele>1428.2</ele>
        <time>2016-06-08T10:31:13Z</time>
      </trkpt>
      <trkpt lat="42.479099" lon="0.249240">
        <ele>1424.8</ele>
        <time>2016-06-08T10:31:22Z</time>
      </trkpt>
      <trkpt lat="42.479249" lon="0.248850">
        <ele>1422.9</ele>
        <time>2016-06-08T10:31:30Z</time>
      </trkpt>
      <trkpt lat="42.479283" lon="0.248614">
        <ele>1421.9</ele>
        <time>2016-06-08T10:31:34Z</time>
      </trkpt>
      <trkpt lat="42.479371" lon="0.248334">
        <ele>1421.0</ele>
        <time>2016-06-08T10:31:39Z</time>
      </trkpt>
      <trkpt lat="42.479467" lon="0.248126">
        <ele>1420.0</ele>
        <time>2016-06-08T10:31:43Z</time>
      </trkpt>
      <trkpt lat="42.479534" lon="0.247948">
        <ele>1418.6</ele>
        <time>2016-06-08T10:31:46Z</time>
      </trkpt>
      <trkpt lat="42.479589" lon="0.247571">
        <ele>1416.6</ele>
        <time>2016-06-08T10:31:52Z</time>
      </trkpt>
      <trkpt lat="42.479577" lon="0.247411">
        <ele>1416.2</ele>
        <time>2016-06-08T10:31:54Z</time>
      </trkpt>
      <trkpt lat="42.479554" lon="0.247260">
        <ele>1415.2</ele>
        <time>2016-06-08T10:31:55Z</time>
      </trkpt>
      <trkpt lat="42.479493" lon="0.247056">
        <ele>1413.8</ele>
        <time>2016-06-08T10:31:58Z</time>
      </trkpt>
      <trkpt lat="42.479406" lon="0.246831">
        <ele>1412.3</ele>
        <time>2016-06-08T10:32:01Z</time>
      </trkpt>
      <trkpt lat="42.479239" lon="0.246351">
        <ele>1409.9</ele>
        <time>2016-06-08T10:32:07Z</time>
      </trkpt>
      <trkpt lat="42.479208" lon="0.246272">
        <ele>1409.0</ele>
        <time>2016-06-08T10:32:08Z</time>
      </trkpt>
      <trkpt lat="42.479109" lon="0.245937">
        <ele>1407.0</ele>
        <time>2016-06-08T10:32:13Z</time>
      </trkpt>
      <trkpt lat="42.479154" lon="0.245764">
        <ele>1406.6</ele>
        <time>2016-06-08T10:32:16Z</time>
      </trkpt>
      <trkpt lat="42.479167" lon="0.245703">
        <ele>1406.1</ele>
        <time>2016-06-08T10:32:17Z</time>
      </trkpt>
      <trkpt lat="42.479269" lon="0.245200">
        <ele>1402.7</ele>
        <time>2016-06-08T10:32:23Z</time>
      </trkpt>
      <trkpt lat="42.479291" lon="0.245133">
        <ele>1401.7</ele>
        <time>2016-06-08T10:32:24Z</time>
      </trkpt>
      <trkpt lat="42.479401" lon="0.244923">
        <ele>1400.3</ele>
        <time>2016-06-08T10:32:27Z</time>
      </trkpt>
      <trkpt lat="42.479429" lon="0.244783">
        <ele>1399.3</ele>
        <time>2016-06-08T10:32:29Z</time>
      </trkpt>
      <trkpt lat="42.479445" lon="0.244633">
        <ele>1398.4</ele>
        <time>2016-06-08T10:32:31Z</time>
      </trkpt>
      <trkpt lat="42.479424" lon="0.244375">
        <ele>1396.9</ele>
        <time>2016-06-08T10:32:34Z</time>
      </trkpt>
      <trkpt lat="42.479411" lon="0.244221">
        <ele>1396.0</ele>
        <time>2016-06-08T10:32:36Z</time>
      </trkpt>
      <trkpt lat="42.479412" lon="0.244133">
        <ele>1396.0</ele>
        <time>2016-06-08T10:32:37Z</time>
      </trkpt>
      <trkpt lat="42.479463" lon="0.243973">
        <ele>1394.5</ele>
        <time>2016-06-08T10:32:39Z</time>
      </trkpt>
      <trkpt lat="42.479515" lon="0.243880">
        <ele>1394.5</ele>
        <time>2016-06-08T10:32:40Z</time>
      </trkpt>
      <trkpt lat="42.479572" lon="0.243641">
        <ele>1393.1</ele>
        <time>2016-06-08T10:32:43Z</time>
      </trkpt>
      <trkpt lat="42.479561" lon="0.243482">
        <ele>1391.7</ele>
        <time>2016-06-08T10:32:45Z</time>
      </trkpt>
      <trkpt lat="42.479553" lon="0.243378">
        <ele>1390.7</ele>
        <time>2016-06-08T10:32:46Z</time>
      </trkpt>
      <trkpt lat="42.479540" lon="0.243292">
        <ele>1389.2</ele>
        <time>2016-06-08T10:32:48Z</time>
      </trkpt>
      <trkpt lat="42.479796" lon="0.243002">
        <ele>1387.8</ele>
        <time>2016-06-08T10:33:02Z</time>
      </trkpt>
      <trkpt lat="42.479803" lon="0.242941">
        <ele>1387.3</ele>
        <time>2016-06-08T10:33:03Z</time>
      </trkpt>
      <trkpt lat="42.479907" lon="0.242555">
        <ele>1384.4</ele>
        <time>2016-06-08T10:33:09Z</time>
      </trkpt>
      <trkpt lat="42.480087" lon="0.242201">
        <ele>1381.6</ele>
        <time>2016-06-08T10:33:14Z</time>
      </trkpt>
      <trkpt lat="42.480128" lon="0.242121">
        <ele>1382.0</ele>
        <time>2016-06-08T10:33:15Z</time>
      </trkpt>
      <trkpt lat="42.480287" lon="0.241882">
        <ele>1379.6</ele>
        <time>2016-06-08T10:33:19Z</time>
      </trkpt>
      <trkpt lat="42.480315" lon="0.241828">
        <ele>1379.2</ele>
        <time>2016-06-08T10:33:20Z</time>
      </trkpt>
      <trkpt lat="42.480348" lon="0.241771">
        <ele>1378.7</ele>
        <time>2016-06-08T10:33:21Z</time>
      </trkpt>
      <trkpt lat="42.480582" lon="0.241406">
        <ele>1376.8</ele>
        <time>2016-06-08T10:33:27Z</time>
      </trkpt>
      <trkpt lat="42.480613" lon="0.241249">
        <ele>1376.3</ele>
        <time>2016-06-08T10:33:29Z</time>
      </trkpt>
      <trkpt lat="42.480565" lon="0.241084">
        <ele>1375.3</ele>
        <time>2016-06-08T10:33:32Z</time>
      </trkpt>
      <trkpt lat="42.480407" lon="0.241088">
        <ele>1373.4</ele>
        <time>2016-06-08T10:33:36Z</time>
      </trkpt>
      <trkpt lat="42.480334" lon="0.241088">
        <ele>1372.9</ele>
        <time>2016-06-08T10:33:38Z</time>
      </trkpt>
      <trkpt lat="42.480209" lon="0.240973">
        <ele>1371.0</ele>
        <time>2016-06-08T10:33:41Z</time>
      </trkpt>
      <trkpt lat="42.480165" lon="0.240561">
        <ele>1368.6</ele>
        <time>2016-06-08T10:33:49Z</time>
      </trkpt>
      <trkpt lat="42.480063" lon="0.240173">
        <ele>1367.6</ele>
        <time>2016-06-08T10:33:59Z</time>
      </trkpt>
      <trkpt lat="42.480033" lon="0.240071">
        <ele>1369.5</ele>
        <time>2016-06-08T10:34:03Z</time>
      </trkpt>
      <trkpt lat="42.480012" lon="0.239802">
        <ele>1370.5</ele>
        <time>2016-06-08T10:34:15Z</time>
      </trkpt>
      <trkpt lat="42.480074" lon="0.239422">
        <ele>1371.9</ele>
        <time>2016-06-08T10:34:30Z</time>
      </trkpt>
      <trkpt lat="42.480047" lon="0.239072">
        <ele>1373.4</ele>
        <time>2016-06-08T10:34:45Z</time>
      </trkpt>
      <trkpt lat="42.480129" lon="0.238801">
        <ele>1374.8</ele>
        <time>2016-06-08T10:34:59Z</time>
      </trkpt>
      <trkpt lat="42.480162" lon="0.238587">
        <ele>1375.8</ele>
        <time>2016-06-08T10:35:09Z</time>
      </trkpt>
      <trkpt lat="42.480135" lon="0.238456">
        <ele>1375.8</ele>
        <time>2016-06-08T10:35:15Z</time>
      </trkpt>
      <trkpt lat="42.480143" lon="0.238353">
        <ele>1376.3</ele>
        <time>2016-06-08T10:35:20Z</time>
      </trkpt>
      <trkpt lat="42.480181" lon="0.238264">
        <ele>1376.8</ele>
        <time>2016-06-08T10:35:25Z</time>
      </trkpt>
      <trkpt lat="42.480183" lon="0.238138">
        <ele>1377.2</ele>
        <time>2016-06-08T10:35:31Z</time>
      </trkpt>
      <trkpt lat="42.480242" lon="0.237734">
        <ele>1378.2</ele>
        <time>2016-06-08T10:35:45Z</time>
      </trkpt>
      <trkpt lat="42.480289" lon="0.237565">
        <ele>1377.7</ele>
        <time>2016-06-08T10:35:49Z</time>
      </trkpt>
      <trkpt lat="42.480370" lon="0.237405">
        <ele>1376.8</ele>
        <time>2016-06-08T10:35:52Z</time>
      </trkpt>
      <trkpt lat="42.480429" lon="0.237288">
        <ele>1376.3</ele>
        <time>2016-06-08T10:35:54Z</time>
      </trkpt>
      <trkpt lat="42.480482" lon="0.237142">
        <ele>1375.8</ele>
        <time>2016-06-08T10:35:56Z</time>
      </trkpt>
      <trkpt lat="42.480625" lon="0.236730">
        <ele>1375.3</ele>
        <time>2016-06-08T10:36:05Z</time>
      </trkpt>
      <trkpt lat="42.480707" lon="0.236391">
        <ele>1377.7</ele>
        <time>2016-06-08T10:36:19Z</time>
      </trkpt>
      <trkpt lat="42.480825" lon="0.236075">
        <ele>1378.2</ele>
        <time>2016-06-08T10:36:35Z</time>
      </trkpt>
      <trkpt lat="42.480854" lon="0.235935">
        <ele>1379.2</ele>
        <time>2016-06-08T10:36:42Z</time>
      </trkpt>
      <trkpt lat="42.480886" lon="0.235805">
        <ele>1380.1</ele>
        <time>2016-06-08T10:36:49Z</time>
      </trkpt>
      <trkpt lat="42.480896" lon="0.235734">
        <ele>1380.1</ele>
        <time>2016-06-08T10:36:52Z</time>
      </trkpt>
      <trkpt lat="42.481045" lon="0.235458">
        <ele>1381.1</ele>
        <time>2016-06-08T10:37:08Z</time>
      </trkpt>
      <trkpt lat="42.481136" lon="0.235260">
        <ele>1383.0</ele>
        <time>2016-06-08T10:37:20Z</time>
      </trkpt>
      <trkpt lat="42.481100" lon="0.234983">
        <ele>1384.0</ele>
        <time>2016-06-08T10:37:35Z</time>
      </trkpt>
      <trkpt lat="42.481085" lon="0.234698">
        <ele>1386.4</ele>
        <time>2016-06-08T10:37:51Z</time>
      </trkpt>
      <trkpt lat="42.481116" lon="0.234372">
        <ele>1388.3</ele>
        <time>2016-06-08T10:38:07Z</time>
      </trkpt>
      <trkpt lat="42.481138" lon="0.234166">
        <ele>1389.2</ele>
        <time>2016-06-08T10:38:17Z</time>
      </trkpt>
      <trkpt lat="42.481207" lon="0.233849">
        <ele>1390.7</ele>
        <time>2016-06-08T10:38:32Z</time>
      </trkpt>
      <trkpt lat="42.481260" lon="0.233773">
        <ele>1391.2</ele>
        <time>2016-06-08T10:38:37Z</time>
      </trkpt>
      <trkpt lat="42.481470" lon="0.233554">
        <ele>1393.1</ele>
        <time>2016-06-08T10:38:54Z</time>
      </trkpt>
      <trkpt lat="42.481659" lon="0.233227">
        <ele>1393.6</ele>
        <time>2016-06-08T10:39:13Z</time>
      </trkpt>
      <trkpt lat="42.481826" lon="0.232978">
        <ele>1395.5</ele>
        <time>2016-06-08T10:39:29Z</time>
      </trkpt>
      <trkpt lat="42.482002" lon="0.232685">
        <ele>1396.9</ele>
        <time>2016-06-08T10:39:47Z</time>
      </trkpt>
      <trkpt lat="42.482092" lon="0.232347">
        <ele>1398.4</ele>
        <time>2016-06-08T10:40:05Z</time>
      </trkpt>
      <trkpt lat="42.482099" lon="0.232287">
        <ele>1398.4</ele>
        <time>2016-06-08T10:40:08Z</time>
      </trkpt>
      <trkpt lat="42.482122" lon="0.232171">
        <ele>1399.3</ele>
        <time>2016-06-08T10:40:14Z</time>
      </trkpt>
      <trkpt lat="42.482189" lon="0.231951">
        <ele>1400.8</ele>
        <time>2016-06-08T10:40:26Z</time>
      </trkpt>
      <trkpt lat="42.482130" lon="0.231743">
        <ele>1402.7</ele>
        <time>2016-06-08T10:40:38Z</time>
      </trkpt>
      <trkpt lat="42.482083" lon="0.231310">
        <ele>1404.6</ele>
        <time>2016-06-08T10:40:59Z</time>
      </trkpt>
      <trkpt lat="42.481995" lon="0.230973">
        <ele>1404.1</ele>
        <time>2016-06-08T10:41:13Z</time>
      </trkpt>
      <trkpt lat="42.481907" lon="0.230790">
        <ele>1404.1</ele>
        <time>2016-06-08T10:41:18Z</time>
      </trkpt>
      <trkpt lat="42.481668" lon="0.230481">
        <ele>1400.3</ele>
        <time>2016-06-08T10:41:24Z</time>
      </trkpt>
      <trkpt lat="42.481613" lon="0.230420">
        <ele>1400.3</ele>
        <time>2016-06-08T10:41:25Z</time>
      </trkpt>
      <trkpt lat="42.481570" lon="0.230022">
        <ele>1398.9</ele>
        <time>2016-06-08T10:41:32Z</time>
      </trkpt>
      <trkpt lat="42.481635" lon="0.229971">
        <ele>1398.9</ele>
        <time>2016-06-08T10:41:34Z</time>
      </trkpt>
      <trkpt lat="42.481830" lon="0.229721">
        <ele>1398.9</ele>
        <time>2016-06-08T10:41:46Z</time>
      </trkpt>
      <trkpt lat="42.481886" lon="0.229408">
        <ele>1400.3</ele>
        <time>2016-06-08T10:42:00Z</time>
      </trkpt>
      <trkpt lat="42.482015" lon="0.229327">
        <ele>1401.7</ele>
        <time>2016-06-08T10:42:11Z</time>
      </trkpt>
      <trkpt lat="42.482072" lon="0.229390">
        <ele>1402.2</ele>
        <time>2016-06-08T10:42:16Z</time>
      </trkpt>
      <trkpt lat="42.482106" lon="0.229477">
        <ele>1402.7</ele>
        <time>2016-06-08T10:42:21Z</time>
      </trkpt>
      <trkpt lat="42.482179" lon="0.229616">
        <ele>1402.2</ele>
        <time>2016-06-08T10:42:28Z</time>
      </trkpt>
      <trkpt lat="42.482248" lon="0.229646">
        <ele>1402.2</ele>
        <time>2016-06-08T10:42:32Z</time>
      </trkpt>
      <trkpt lat="42.482467" lon="0.229561">
        <ele>1403.7</ele>
        <time>2016-06-08T10:42:45Z</time>
      </trkpt>
      <trkpt lat="42.482604" lon="0.229468">
        <ele>1404.1</ele>
        <time>2016-06-08T10:42:55Z</time>
      </trkpt>
      <trkpt lat="42.482681" lon="0.229409">
        <ele>1404.6</ele>
        <time>2016-06-08T10:43:01Z</time>
      </trkpt>
      <trkpt lat="42.482881" lon="0.229315">
        <ele>1406.1</ele>
        <time>2016-06-08T10:43:17Z</time>
      </trkpt>
      <trkpt lat="42.483017" lon="0.229149">
        <ele>1407.5</ele>
        <time>2016-06-08T10:43:30Z</time>
      </trkpt>
      <trkpt lat="42.483109" lon="0.228997">
        <ele>1409.4</ele>
        <time>2016-06-08T10:43:41Z</time>
      </trkpt>
      <trkpt lat="42.483104" lon="0.228863">
        <ele>1410.4</ele>
        <time>2016-06-08T10:43:50Z</time>
      </trkpt>
      <trkpt lat="42.483097" lon="0.228698">
        <ele>1411.4</ele>
        <time>2016-06-08T10:44:06Z</time>
      </trkpt>
      <trkpt lat="42.483061" lon="0.228606">
        <ele>1411.4</ele>
        <time>2016-06-08T10:45:16Z</time>
      </trkpt>
      <trkpt lat="42.483033" lon="0.228450">
        <ele>1413.8</ele>
        <time>2016-06-08T10:45:29Z</time>
      </trkpt>
      <trkpt lat="42.482966" lon="0.228224">
        <ele>1414.7</ele>
        <time>2016-06-08T10:45:44Z</time>
      </trkpt>
      <trkpt lat="42.482909" lon="0.228046">
        <ele>1416.2</ele>
        <time>2016-06-08T10:45:57Z</time>
      </trkpt>
      <trkpt lat="42.482895" lon="0.227984">
        <ele>1417.1</ele>
        <time>2016-06-08T10:46:01Z</time>
      </trkpt>
      <trkpt lat="42.482869" lon="0.227693">
        <ele>1420.0</ele>
        <time>2016-06-08T10:46:19Z</time>
      </trkpt>
      <trkpt lat="42.482849" lon="0.227626">
        <ele>1420.5</ele>
        <time>2016-06-08T10:46:23Z</time>
      </trkpt>
      <trkpt lat="42.482917" lon="0.227344">
        <ele>1422.9</ele>
        <time>2016-06-08T10:46:41Z</time>
      </trkpt>
      <trkpt lat="42.483021" lon="0.227248">
        <ele>1424.3</ele>
        <time>2016-06-08T10:46:53Z</time>
      </trkpt>
      <trkpt lat="42.483116" lon="0.227195">
        <ele>1425.3</ele>
        <time>2016-06-08T10:47:02Z</time>
      </trkpt>
      <trkpt lat="42.483316" lon="0.227070">
        <ele>1428.7</ele>
        <time>2016-06-08T10:47:22Z</time>
      </trkpt>
      <trkpt lat="42.483407" lon="0.227025">
        <ele>1429.6</ele>
        <time>2016-06-08T10:47:30Z</time>
      </trkpt>
      <trkpt lat="42.483472" lon="0.226952">
        <ele>1430.6</ele>
        <time>2016-06-08T10:47:36Z</time>
      </trkpt>
      <trkpt lat="42.483527" lon="0.226878">
        <ele>1431.1</ele>
        <time>2016-06-08T10:47:42Z</time>
      </trkpt>
      <trkpt lat="42.483641" lon="0.226657">
        <ele>1432.5</ele>
        <time>2016-06-08T10:47:57Z</time>
      </trkpt>
      <trkpt lat="42.483791" lon="0.226458">
        <ele>1433.9</ele>
        <time>2016-06-08T10:48:13Z</time>
      </trkpt>
      <trkpt lat="42.483884" lon="0.226399">
        <ele>1433.9</ele>
        <time>2016-06-08T10:48:21Z</time>
      </trkpt>
      <trkpt lat="42.484005" lon="0.226325">
        <ele>1434.9</ele>
        <time>2016-06-08T10:48:29Z</time>
      </trkpt>
      <trkpt lat="42.484205" lon="0.226236">
        <ele>1435.4</ele>
        <time>2016-06-08T10:48:42Z</time>
      </trkpt>
      <trkpt lat="42.484257" lon="0.226221">
        <ele>1436.4</ele>
        <time>2016-06-08T10:48:46Z</time>
      </trkpt>
      <trkpt lat="42.484329" lon="0.226232">
        <ele>1436.8</ele>
        <time>2016-06-08T10:48:51Z</time>
      </trkpt>
      <trkpt lat="42.484389" lon="0.226233">
        <ele>1437.3</ele>
        <time>2016-06-08T10:48:56Z</time>
      </trkpt>
      <trkpt lat="42.484501" lon="0.226236">
        <ele>1438.8</ele>
        <time>2016-06-08T10:49:06Z</time>
      </trkpt>
      <trkpt lat="42.484692" lon="0.226241">
        <ele>1440.7</ele>
        <time>2016-06-08T10:49:21Z</time>
      </trkpt>
      <trkpt lat="42.484874" lon="0.226235">
        <ele>1443.1</ele>
        <time>2016-06-08T10:49:34Z</time>
      </trkpt>
      <trkpt lat="42.484982" lon="0.226249">
        <ele>1443.6</ele>
        <time>2016-06-08T10:49:43Z</time>
      </trkpt>
      <trkpt lat="42.485215" lon="0.226253">
        <ele>1444.5</ele>
        <time>2016-06-08T10:49:58Z</time>
      </trkpt>
      <trkpt lat="42.485426" lon="0.226242">
        <ele>1447.4</ele>
        <time>2016-06-08T10:50:14Z</time>
      </trkpt>
      <trkpt lat="42.485622" lon="0.226180">
        <ele>1448.8</ele>
        <time>2016-06-08T10:50:29Z</time>
      </trkpt>
      <trkpt lat="42.485823" lon="0.226146">
        <ele>1450.3</ele>
        <time>2016-06-08T10:50:45Z</time>
      </trkpt>
      <trkpt lat="42.485984" lon="0.226077">
        <ele>1450.3</ele>
        <time>2016-06-08T10:50:55Z</time>
      </trkpt>
      <trkpt lat="42.486215" lon="0.225930">
        <ele>1450.8</ele>
        <time>2016-06-08T10:51:08Z</time>
      </trkpt>
      <trkpt lat="42.486461" lon="0.225693">
        <ele>1450.8</ele>
        <time>2016-06-08T10:51:21Z</time>
      </trkpt>
      <trkpt lat="42.486646" lon="0.225229">
        <ele>1448.8</ele>
        <time>2016-06-08T10:51:33Z</time>
      </trkpt>
      <trkpt lat="42.486984" lon="0.224925">
        <ele>1447.9</ele>
        <time>2016-06-08T10:51:43Z</time>
      </trkpt>
      <trkpt lat="42.487241" lon="0.224685">
        <ele>1446.4</ele>
        <time>2016-06-08T10:51:50Z</time>
      </trkpt>
      <trkpt lat="42.487355" lon="0.224530">
        <ele>1446.0</ele>
        <time>2016-06-08T10:51:53Z</time>
      </trkpt>
      <trkpt lat="42.487421" lon="0.224348">
        <ele>1445.5</ele>
        <time>2016-06-08T10:51:56Z</time>
      </trkpt>
      <trkpt lat="42.487438" lon="0.224142">
        <ele>1445.0</ele>
        <time>2016-06-08T10:51:59Z</time>
      </trkpt>
      <trkpt lat="42.487470" lon="0.223704">
        <ele>1445.0</ele>
        <time>2016-06-08T10:52:10Z</time>
      </trkpt>
      <trkpt lat="42.487460" lon="0.223576">
        <ele>1446.0</ele>
        <time>2016-06-08T10:52:15Z</time>
      </trkpt>
      <trkpt lat="42.487469" lon="0.223346">
        <ele>1446.9</ele>
        <time>2016-06-08T10:52:24Z</time>
      </trkpt>
      <trkpt lat="42.487518" lon="0.223217">
        <ele>1447.9</ele>
        <time>2016-06-08T10:52:30Z</time>
      </trkpt>
      <trkpt lat="42.487642" lon="0.223014">
        <ele>1449.8</ele>
        <time>2016-06-08T10:52:45Z</time>
      </trkpt>
      <trkpt lat="42.487705" lon="0.222935">
        <ele>1450.3</ele>
        <time>2016-06-08T10:52:51Z</time>
      </trkpt>
      <trkpt lat="42.487817" lon="0.222774">
        <ele>1451.3</ele>
        <time>2016-06-08T10:53:00Z</time>
      </trkpt>
      <trkpt lat="42.487933" lon="0.222410">
        <ele>1452.2</ele>
        <time>2016-06-08T10:53:15Z</time>
      </trkpt>
      <trkpt lat="42.488006" lon="0.222027">
        <ele>1452.2</ele>
        <time>2016-06-08T10:53:30Z</time>
      </trkpt>
      <trkpt lat="42.488028" lon="0.221809">
        <ele>1452.2</ele>
        <time>2016-06-08T10:53:38Z</time>
      </trkpt>
      <trkpt lat="42.488100" lon="0.221498">
        <ele>1453.2</ele>
        <time>2016-06-08T10:53:49Z</time>
      </trkpt>
      <trkpt lat="42.488253" lon="0.221098">
        <ele>1454.1</ele>
        <time>2016-06-08T10:54:06Z</time>
      </trkpt>
      <trkpt lat="42.488365" lon="0.220738">
        <ele>1454.6</ele>
        <time>2016-06-08T10:54:19Z</time>
      </trkpt>
      <trkpt lat="42.488470" lon="0.220324">
        <ele>1455.1</ele>
        <time>2016-06-08T10:54:34Z</time>
      </trkpt>
      <trkpt lat="42.488591" lon="0.219833">
        <ele>1455.1</ele>
        <time>2016-06-08T10:54:52Z</time>
      </trkpt>
      <trkpt lat="42.488669" lon="0.219437">
        <ele>1455.1</ele>
        <time>2016-06-08T10:55:06Z</time>
      </trkpt>
      <trkpt lat="42.488828" lon="0.219004">
        <ele>1456.1</ele>
        <time>2016-06-08T10:55:22Z</time>
      </trkpt>
      <trkpt lat="42.489020" lon="0.218557">
        <ele>1458.0</ele>
        <time>2016-06-08T10:55:42Z</time>
      </trkpt>
      <trkpt lat="42.489160" lon="0.218302">
        <ele>1458.9</ele>
        <time>2016-06-08T10:55:56Z</time>
      </trkpt>
      <trkpt lat="42.489268" lon="0.218119">
        <ele>1459.4</ele>
        <time>2016-06-08T10:56:10Z</time>
      </trkpt>
      <trkpt lat="42.489324" lon="0.218023">
        <ele>1459.9</ele>
        <time>2016-06-08T10:56:32Z</time>
      </trkpt>
      <trkpt lat="42.489437" lon="0.217746">
        <ele>1460.9</ele>
        <time>2016-06-08T10:56:47Z</time>
      </trkpt>
      <trkpt lat="42.489588" lon="0.217491">
        <ele>1461.8</ele>
        <time>2016-06-08T10:57:03Z</time>
      </trkpt>
      <trkpt lat="42.489738" lon="0.217307">
        <ele>1463.7</ele>
        <time>2016-06-08T10:57:18Z</time>
      </trkpt>
      <trkpt lat="42.489908" lon="0.217066">
        <ele>1466.2</ele>
        <time>2016-06-08T10:57:38Z</time>
      </trkpt>
      <trkpt lat="42.490049" lon="0.216813">
        <ele>1468.1</ele>
        <time>2016-06-08T10:57:56Z</time>
      </trkpt>
      <trkpt lat="42.490154" lon="0.216628">
        <ele>1469.5</ele>
        <time>2016-06-08T10:58:10Z</time>
      </trkpt>
      <trkpt lat="42.490271" lon="0.216430">
        <ele>1471.0</ele>
        <time>2016-06-08T10:58:26Z</time>
      </trkpt>
      <trkpt lat="42.490346" lon="0.216352">
        <ele>1472.4</ele>
        <time>2016-06-08T10:58:34Z</time>
      </trkpt>
      <trkpt lat="42.490433" lon="0.216280">
        <ele>1473.4</ele>
        <time>2016-06-08T10:58:42Z</time>
      </trkpt>
      <trkpt lat="42.490613" lon="0.216179">
        <ele>1475.3</ele>
        <time>2016-06-08T10:58:57Z</time>
      </trkpt>
      <trkpt lat="42.490804" lon="0.216024">
        <ele>1477.7</ele>
        <time>2016-06-08T10:59:14Z</time>
      </trkpt>
      <trkpt lat="42.490909" lon="0.215949">
        <ele>1478.7</ele>
        <time>2016-06-08T10:59:23Z</time>
      </trkpt>
      <trkpt lat="42.491180" lon="0.215690">
        <ele>1480.6</ele>
        <time>2016-06-08T10:59:43Z</time>
      </trkpt>
      <trkpt lat="42.491478" lon="0.215566">
        <ele>1480.6</ele>
        <time>2016-06-08T10:59:57Z</time>
      </trkpt>
      <trkpt lat="42.491694" lon="0.215751">
        <ele>1480.6</ele>
        <time>2016-06-08T11:00:08Z</time>
      </trkpt>
      <trkpt lat="42.491821" lon="0.215842">
        <ele>1482.0</ele>
        <time>2016-06-08T11:00:19Z</time>
      </trkpt>
      <trkpt lat="42.491988" lon="0.215747">
        <ele>1483.5</ele>
        <time>2016-06-08T11:00:32Z</time>
      </trkpt>
      <trkpt lat="42.492084" lon="0.215508">
        <ele>1483.9</ele>
        <time>2016-06-08T11:00:46Z</time>
      </trkpt>
      <trkpt lat="42.492141" lon="0.215332">
        <ele>1484.4</ele>
        <time>2016-06-08T11:00:55Z</time>
      </trkpt>
      <trkpt lat="42.492182" lon="0.215255">
        <ele>1484.9</ele>
        <time>2016-06-08T11:01:00Z</time>
      </trkpt>
      <trkpt lat="42.492206" lon="0.215172">
        <ele>1485.4</ele>
        <time>2016-06-08T11:01:05Z</time>
      </trkpt>
      <trkpt lat="42.492320" lon="0.214882">
        <ele>1487.3</ele>
        <time>2016-06-08T11:01:22Z</time>
      </trkpt>
      <trkpt lat="42.492397" lon="0.214760">
        <ele>1488.7</ele>
        <time>2016-06-08T11:01:32Z</time>
      </trkpt>
      <trkpt lat="42.492499" lon="0.214563">
        <ele>1489.7</ele>
        <time>2016-06-08T11:01:45Z</time>
      </trkpt>
      <trkpt lat="42.492622" lon="0.214327">
        <ele>1491.6</ele>
        <time>2016-06-08T11:02:02Z</time>
      </trkpt>
      <trkpt lat="42.492702" lon="0.214206">
        <ele>1493.1</ele>
        <time>2016-06-08T11:02:11Z</time>
      </trkpt>
      <trkpt lat="42.492795" lon="0.214065">
        <ele>1493.6</ele>
        <time>2016-06-08T11:02:22Z</time>
      </trkpt>
      <trkpt lat="42.492874" lon="0.213959">
        <ele>1494.5</ele>
        <time>2016-06-08T11:02:32Z</time>
      </trkpt>
      <trkpt lat="42.493039" lon="0.213792">
        <ele>1496.0</ele>
        <time>2016-06-08T11:02:46Z</time>
      </trkpt>
      <trkpt lat="42.493194" lon="0.213665">
        <ele>1497.9</ele>
        <time>2016-06-08T11:03:00Z</time>
      </trkpt>
      <trkpt lat="42.493379" lon="0.213534">
        <ele>1498.8</ele>
        <time>2016-06-08T11:03:14Z</time>
      </trkpt>
      <trkpt lat="42.493480" lon="0.213424">
        <ele>1499.3</ele>
        <time>2016-06-08T11:03:27Z</time>
      </trkpt>
      <trkpt lat="42.493658" lon="0.213320">
        <ele>1501.2</ele>
        <time>2016-06-08T11:04:07Z</time>
      </trkpt>
      <trkpt lat="42.493775" lon="0.213156">
        <ele>1502.2</ele>
        <time>2016-06-08T11:04:19Z</time>
      </trkpt>
      <trkpt lat="42.493888" lon="0.213024">
        <ele>1503.6</ele>
        <time>2016-06-08T11:04:32Z</time>
      </trkpt>
      <trkpt lat="42.494093" lon="0.212847">
        <ele>1506.5</ele>
        <time>2016-06-08T11:04:52Z</time>
      </trkpt>
      <trkpt lat="42.494183" lon="0.212759">
        <ele>1507.0</ele>
        <time>2016-06-08T11:04:59Z</time>
      </trkpt>
      <trkpt lat="42.494378" lon="0.212633">
        <ele>1509.4</ele>
        <time>2016-06-08T11:05:16Z</time>
      </trkpt>
      <trkpt lat="42.494430" lon="0.212606">
        <ele>1510.4</ele>
        <time>2016-06-08T11:05:20Z</time>
      </trkpt>
      <trkpt lat="42.494558" lon="0.212469">
        <ele>1511.8</ele>
        <time>2016-06-08T11:05:34Z</time>
      </trkpt>
      <trkpt lat="42.494701" lon="0.212313">
        <ele>1513.7</ele>
        <time>2016-06-08T11:05:48Z</time>
      </trkpt>
      <trkpt lat="42.494870" lon="0.212145">
        <ele>1515.2</ele>
        <time>2016-06-08T11:06:02Z</time>
      </trkpt>
      <trkpt lat="42.494992" lon="0.211957">
        <ele>1516.6</ele>
        <time>2016-06-08T11:06:15Z</time>
      </trkpt>
      <trkpt lat="42.495145" lon="0.211787">
        <ele>1518.5</ele>
        <time>2016-06-08T11:06:30Z</time>
      </trkpt>
      <trkpt lat="42.495316" lon="0.211536">
        <ele>1519.5</ele>
        <time>2016-06-08T11:06:45Z</time>
      </trkpt>
      <trkpt lat="42.495422" lon="0.211347">
        <ele>1520.9</ele>
        <time>2016-06-08T11:06:58Z</time>
      </trkpt>
      <trkpt lat="42.495549" lon="0.211134">
        <ele>1522.4</ele>
        <time>2016-06-08T11:07:12Z</time>
      </trkpt>
      <trkpt lat="42.495663" lon="0.210893">
        <ele>1523.4</ele>
        <time>2016-06-08T11:07:26Z</time>
      </trkpt>
      <trkpt lat="42.495799" lon="0.210617">
        <ele>1524.3</ele>
        <time>2016-06-08T11:07:41Z</time>
      </trkpt>
      <trkpt lat="42.495910" lon="0.210375">
        <ele>1525.8</ele>
        <time>2016-06-08T11:07:55Z</time>
      </trkpt>
      <trkpt lat="42.496066" lon="0.210191">
        <ele>1527.2</ele>
        <time>2016-06-08T11:08:10Z</time>
      </trkpt>
      <trkpt lat="42.496245" lon="0.209976">
        <ele>1528.2</ele>
        <time>2016-06-08T11:08:25Z</time>
      </trkpt>
      <trkpt lat="42.496433" lon="0.209807">
        <ele>1528.2</ele>
        <time>2016-06-08T11:08:38Z</time>
      </trkpt>
      <trkpt lat="42.496559" lon="0.209678">
        <ele>1528.2</ele>
        <time>2016-06-08T11:08:46Z</time>
      </trkpt>
      <trkpt lat="42.496767" lon="0.209487">
        <ele>1528.2</ele>
        <time>2016-06-08T11:08:58Z</time>
      </trkpt>
      <trkpt lat="42.496938" lon="0.209335">
        <ele>1528.2</ele>
        <time>2016-06-08T11:09:10Z</time>
      </trkpt>
      <trkpt lat="42.497006" lon="0.209295">
        <ele>1528.6</ele>
        <time>2016-06-08T11:09:15Z</time>
      </trkpt>
      <trkpt lat="42.497228" lon="0.209095">
        <ele>1530.6</ele>
        <time>2016-06-08T11:09:32Z</time>
      </trkpt>
      <trkpt lat="42.497407" lon="0.208949">
        <ele>1532.0</ele>
        <time>2016-06-08T11:09:47Z</time>
      </trkpt>
      <trkpt lat="42.497622" lon="0.208770">
        <ele>1533.4</ele>
        <time>2016-06-08T11:10:02Z</time>
      </trkpt>
      <trkpt lat="42.497832" lon="0.208532">
        <ele>1533.9</ele>
        <time>2016-06-08T11:10:17Z</time>
      </trkpt>
      <trkpt lat="42.497977" lon="0.208300">
        <ele>1534.4</ele>
        <time>2016-06-08T11:10:30Z</time>
      </trkpt>
      <trkpt lat="42.498113" lon="0.208103">
        <ele>1534.9</ele>
        <time>2016-06-08T11:10:40Z</time>
      </trkpt>
      <trkpt lat="42.498291" lon="0.207859">
        <ele>1535.4</ele>
        <time>2016-06-08T11:10:54Z</time>
      </trkpt>
      <trkpt lat="42.498326" lon="0.207807">
        <ele>1535.4</ele>
        <time>2016-06-08T11:10:58Z</time>
      </trkpt>
      <trkpt lat="42.498362" lon="0.207763">
        <ele>1535.8</ele>
        <time>2016-06-08T11:11:02Z</time>
      </trkpt>
      <trkpt lat="42.498503" lon="0.207544">
        <ele>1537.3</ele>
        <time>2016-06-08T11:11:18Z</time>
      </trkpt>
      <trkpt lat="42.498650" lon="0.207360">
        <ele>1539.7</ele>
        <time>2016-06-08T11:11:32Z</time>
      </trkpt>
      <trkpt lat="42.498783" lon="0.207175">
        <ele>1542.1</ele>
        <time>2016-06-08T11:11:47Z</time>
      </trkpt>
      <trkpt lat="42.498865" lon="0.207075">
        <ele>1542.6</ele>
        <time>2016-06-08T11:11:55Z</time>
      </trkpt>
      <trkpt lat="42.498920" lon="0.207047">
        <ele>1543.1</ele>
        <time>2016-06-08T11:12:00Z</time>
      </trkpt>
      <trkpt lat="42.499088" lon="0.206858">
        <ele>1544.5</ele>
        <time>2016-06-08T11:12:13Z</time>
      </trkpt>
      <trkpt lat="42.499272" lon="0.206715">
        <ele>1544.5</ele>
        <time>2016-06-08T11:12:28Z</time>
      </trkpt>
      <trkpt lat="42.499367" lon="0.206613">
        <ele>1545.9</ele>
        <time>2016-06-08T11:12:37Z</time>
      </trkpt>
      <trkpt lat="42.499570" lon="0.206414">
        <ele>1548.3</ele>
        <time>2016-06-08T11:12:54Z</time>
      </trkpt>
      <trkpt lat="42.499728" lon="0.206236">
        <ele>1549.8</ele>
        <time>2016-06-08T11:13:10Z</time>
      </trkpt>
      <trkpt lat="42.499782" lon="0.206183">
        <ele>1550.3</ele>
        <time>2016-06-08T11:13:15Z</time>
      </trkpt>
      <trkpt lat="42.499846" lon="0.206074">
        <ele>1551.2</ele>
        <time>2016-06-08T11:13:22Z</time>
      </trkpt>
      <trkpt lat="42.500026" lon="0.205867">
        <ele>1552.7</ele>
        <time>2016-06-08T11:13:38Z</time>
      </trkpt>
      <trkpt lat="42.500155" lon="0.205744">
        <ele>1554.1</ele>
        <time>2016-06-08T11:13:48Z</time>
      </trkpt>
      <trkpt lat="42.500222" lon="0.205663">
        <ele>1555.1</ele>
        <time>2016-06-08T11:13:54Z</time>
      </trkpt>
      <trkpt lat="42.500397" lon="0.205336">
        <ele>1553.6</ele>
        <time>2016-06-08T11:14:08Z</time>
      </trkpt>
      <trkpt lat="42.500444" lon="0.205086">
        <ele>1551.2</ele>
        <time>2016-06-08T11:14:14Z</time>
      </trkpt>
      <trkpt lat="42.500233" lon="0.204973">
        <ele>1547.9</ele>
        <time>2016-06-08T11:14:20Z</time>
      </trkpt>
      <trkpt lat="42.500148" lon="0.204965">
        <ele>1546.4</ele>
        <time>2016-06-08T11:14:22Z</time>
      </trkpt>
      <trkpt lat="42.500066" lon="0.204944">
        <ele>1545.0</ele>
        <time>2016-06-08T11:14:24Z</time>
      </trkpt>
      <trkpt lat="42.499935" lon="0.204791">
        <ele>1542.6</ele>
        <time>2016-06-08T11:14:28Z</time>
      </trkpt>
      <trkpt lat="42.499852" lon="0.204705">
        <ele>1540.7</ele>
        <time>2016-06-08T11:14:30Z</time>
      </trkpt>
      <trkpt lat="42.499672" lon="0.204562">
        <ele>1536.8</ele>
        <time>2016-06-08T11:14:34Z</time>
      </trkpt>
      <trkpt lat="42.499361" lon="0.204418">
        <ele>1533.4</ele>
        <time>2016-06-08T11:14:40Z</time>
      </trkpt>
      <trkpt lat="42.499157" lon="0.204332">
        <ele>1530.6</ele>
        <time>2016-06-08T11:14:44Z</time>
      </trkpt>
      <trkpt lat="42.499034" lon="0.204099">
        <ele>1528.2</ele>
        <time>2016-06-08T11:14:47Z</time>
      </trkpt>
      <trkpt lat="42.498920" lon="0.203794">
        <ele>1524.8</ele>
        <time>2016-06-08T11:14:51Z</time>
      </trkpt>
      <trkpt lat="42.498875" lon="0.203641">
        <ele>1522.9</ele>
        <time>2016-06-08T11:14:53Z</time>
      </trkpt>
      <trkpt lat="42.498852" lon="0.203575">
        <ele>1521.9</ele>
        <time>2016-06-08T11:14:54Z</time>
      </trkpt>
      <trkpt lat="42.498698" lon="0.203407">
        <ele>1519.5</ele>
        <time>2016-06-08T11:14:59Z</time>
      </trkpt>
      <trkpt lat="42.498645" lon="0.203324">
        <ele>1518.1</ele>
        <time>2016-06-08T11:15:01Z</time>
      </trkpt>
      <trkpt lat="42.498526" lon="0.203000">
        <ele>1515.2</ele>
        <time>2016-06-08T11:15:08Z</time>
      </trkpt>
      <trkpt lat="42.498485" lon="0.202960">
        <ele>1512.8</ele>
        <time>2016-06-08T11:22:25Z</time>
      </trkpt>
      <trkpt lat="42.498417" lon="0.202743">
        <ele>1511.3</ele>
        <time>2016-06-08T11:33:12Z</time>
      </trkpt>
      <trkpt lat="42.498515" lon="0.202404">
        <ele>1508.0</ele>
        <time>2016-06-08T11:33:18Z</time>
      </trkpt>
      <trkpt lat="42.498547" lon="0.202298">
        <ele>1507.0</ele>
        <time>2016-06-08T11:33:20Z</time>
      </trkpt>
      <trkpt lat="42.498513" lon="0.202041">
        <ele>1504.1</ele>
        <time>2016-06-08T11:33:24Z</time>
      </trkpt>
      <trkpt lat="42.498427" lon="0.201861">
        <ele>1501.2</ele>
        <time>2016-06-08T11:33:27Z</time>
      </trkpt>
      <trkpt lat="42.498376" lon="0.201751">
        <ele>1499.3</ele>
        <time>2016-06-08T11:33:29Z</time>
      </trkpt>
      <trkpt lat="42.498338" lon="0.201533">
        <ele>1497.9</ele>
        <time>2016-06-08T11:33:33Z</time>
      </trkpt>
      <trkpt lat="42.498354" lon="0.201475">
        <ele>1497.4</ele>
        <time>2016-06-08T11:33:34Z</time>
      </trkpt>
      <trkpt lat="42.498583" lon="0.201181">
        <ele>1493.6</ele>
        <time>2016-06-08T11:33:39Z</time>
      </trkpt>
      <trkpt lat="42.498627" lon="0.200877">
        <ele>1490.7</ele>
        <time>2016-06-08T11:33:44Z</time>
      </trkpt>
      <trkpt lat="42.498609" lon="0.200749">
        <ele>1489.2</ele>
        <time>2016-06-08T11:33:46Z</time>
      </trkpt>
      <trkpt lat="42.498466" lon="0.200546">
        <ele>1487.3</ele>
        <time>2016-06-08T11:33:50Z</time>
      </trkpt>
      <trkpt lat="42.498362" lon="0.200378">
        <ele>1484.4</ele>
        <time>2016-06-08T11:33:53Z</time>
      </trkpt>
      <trkpt lat="42.498405" lon="0.200122">
        <ele>1480.6</ele>
        <time>2016-06-08T11:34:01Z</time>
      </trkpt>
      <trkpt lat="42.498580" lon="0.200353">
        <ele>1478.2</ele>
        <time>2016-06-08T11:34:13Z</time>
      </trkpt>
      <trkpt lat="42.498779" lon="0.200437">
        <ele>1476.2</ele>
        <time>2016-06-08T11:34:18Z</time>
      </trkpt>
      <trkpt lat="42.498923" lon="0.200668">
        <ele>1474.3</ele>
        <time>2016-06-08T11:34:23Z</time>
      </trkpt>
      <trkpt lat="42.498951" lon="0.200819">
        <ele>1472.9</ele>
        <time>2016-06-08T11:34:25Z</time>
      </trkpt>
      <trkpt lat="42.499031" lon="0.201109">
        <ele>1471.4</ele>
        <time>2016-06-08T11:34:29Z</time>
      </trkpt>
      <trkpt lat="42.499091" lon="0.201363">
        <ele>1468.6</ele>
        <time>2016-06-08T11:34:33Z</time>
      </trkpt>
      <trkpt lat="42.499238" lon="0.201545">
        <ele>1466.2</ele>
        <time>2016-06-08T11:34:37Z</time>
      </trkpt>
      <trkpt lat="42.499268" lon="0.201678">
        <ele>1464.2</ele>
        <time>2016-06-08T11:34:39Z</time>
      </trkpt>
      <trkpt lat="42.499427" lon="0.201805">
        <ele>1459.9</ele>
        <time>2016-06-08T11:34:44Z</time>
      </trkpt>
      <trkpt lat="42.499554" lon="0.201602">
        <ele>1456.5</ele>
        <time>2016-06-08T11:34:48Z</time>
      </trkpt>
      <trkpt lat="42.499545" lon="0.201383">
        <ele>1454.1</ele>
        <time>2016-06-08T11:34:51Z</time>
      </trkpt>
      <trkpt lat="42.499447" lon="0.201124">
        <ele>1450.3</ele>
        <time>2016-06-08T11:34:55Z</time>
      </trkpt>
      <trkpt lat="42.499409" lon="0.201007">
        <ele>1449.3</ele>
        <time>2016-06-08T11:34:57Z</time>
      </trkpt>
      <trkpt lat="42.499413" lon="0.200654">
        <ele>1445.5</ele>
        <time>2016-06-08T11:35:02Z</time>
      </trkpt>
      <trkpt lat="42.499408" lon="0.200374">
        <ele>1444.5</ele>
        <time>2016-06-08T11:35:05Z</time>
      </trkpt>
      <trkpt lat="42.499392" lon="0.200173">
        <ele>1442.6</ele>
        <time>2016-06-08T11:35:07Z</time>
      </trkpt>
      <trkpt lat="42.499300" lon="0.199840">
        <ele>1438.8</ele>
        <time>2016-06-08T11:35:11Z</time>
      </trkpt>
      <trkpt lat="42.499292" lon="0.199574">
        <ele>1436.4</ele>
        <time>2016-06-08T11:35:15Z</time>
      </trkpt>
      <trkpt lat="42.499306" lon="0.199333">
        <ele>1433.5</ele>
        <time>2016-06-08T11:35:19Z</time>
      </trkpt>
      <trkpt lat="42.499224" lon="0.198857">
        <ele>1429.6</ele>
        <time>2016-06-08T11:35:25Z</time>
      </trkpt>
      <trkpt lat="42.499167" lon="0.198352">
        <ele>1425.3</ele>
        <time>2016-06-08T11:35:30Z</time>
      </trkpt>
      <trkpt lat="42.499145" lon="0.198091">
        <ele>1422.9</ele>
        <time>2016-06-08T11:35:33Z</time>
      </trkpt>
      <trkpt lat="42.499142" lon="0.197666">
        <ele>1419.0</ele>
        <time>2016-06-08T11:35:38Z</time>
      </trkpt>
      <trkpt lat="42.499154" lon="0.197266">
        <ele>1415.7</ele>
        <time>2016-06-08T11:35:42Z</time>
      </trkpt>
      <trkpt lat="42.499198" lon="0.196850">
        <ele>1412.3</ele>
        <time>2016-06-08T11:35:46Z</time>
      </trkpt>
      <trkpt lat="42.499162" lon="0.196297">
        <ele>1408.0</ele>
        <time>2016-06-08T11:35:51Z</time>
      </trkpt>
      <trkpt lat="42.499138" lon="0.195825">
        <ele>1404.6</ele>
        <time>2016-06-08T11:35:55Z</time>
      </trkpt>
      <trkpt lat="42.499122" lon="0.195435">
        <ele>1400.8</ele>
        <time>2016-06-08T11:35:59Z</time>
      </trkpt>
      <trkpt lat="42.499106" lon="0.195276">
        <ele>1399.8</ele>
        <time>2016-06-08T11:36:01Z</time>
      </trkpt>
      <trkpt lat="42.499040" lon="0.194982">
        <ele>1397.4</ele>
        <time>2016-06-08T11:36:05Z</time>
      </trkpt>
      <trkpt lat="42.498990" lon="0.194499">
        <ele>1394.1</ele>
        <time>2016-06-08T11:36:11Z</time>
      </trkpt>
      <trkpt lat="42.498960" lon="0.194221">
        <ele>1392.1</ele>
        <time>2016-06-08T11:36:14Z</time>
      </trkpt>
      <trkpt lat="42.498926" lon="0.193937">
        <ele>1388.8</ele>
        <time>2016-06-08T11:36:17Z</time>
      </trkpt>
      <trkpt lat="42.498881" lon="0.193436">
        <ele>1384.4</ele>
        <time>2016-06-08T11:36:22Z</time>
      </trkpt>
      <trkpt lat="42.498830" lon="0.193097">
        <ele>1381.6</ele>
        <time>2016-06-08T11:36:25Z</time>
      </trkpt>
      <trkpt lat="42.498788" lon="0.192754">
        <ele>1378.2</ele>
        <time>2016-06-08T11:36:28Z</time>
      </trkpt>
      <trkpt lat="42.498742" lon="0.192452">
        <ele>1375.3</ele>
        <time>2016-06-08T11:36:31Z</time>
      </trkpt>
      <trkpt lat="42.498673" lon="0.191887">
        <ele>1370.5</ele>
        <time>2016-06-08T11:36:36Z</time>
      </trkpt>
      <trkpt lat="42.498613" lon="0.191457">
        <ele>1367.1</ele>
        <time>2016-06-08T11:36:40Z</time>
      </trkpt>
      <trkpt lat="42.498558" lon="0.191156">
        <ele>1364.3</ele>
        <time>2016-06-08T11:36:43Z</time>
      </trkpt>
      <trkpt lat="42.498481" lon="0.190740">
        <ele>1361.4</ele>
        <time>2016-06-08T11:36:47Z</time>
      </trkpt>
      <trkpt lat="42.498467" lon="0.190622">
        <ele>1359.9</ele>
        <time>2016-06-08T11:36:48Z</time>
      </trkpt>
      <trkpt lat="42.498436" lon="0.190373">
        <ele>1358.0</ele>
        <time>2016-06-08T11:36:50Z</time>
      </trkpt>
      <trkpt lat="42.498424" lon="0.190254">
        <ele>1357.0</ele>
        <time>2016-06-08T11:36:51Z</time>
      </trkpt>
      <trkpt lat="42.498398" lon="0.189965">
        <ele>1354.2</ele>
        <time>2016-06-08T11:36:54Z</time>
      </trkpt>
      <trkpt lat="42.498344" lon="0.189644">
        <ele>1350.8</ele>
        <time>2016-06-08T11:36:57Z</time>
      </trkpt>
      <trkpt lat="42.498320" lon="0.189554">
        <ele>1349.8</ele>
        <time>2016-06-08T11:36:58Z</time>
      </trkpt>
      <trkpt lat="42.498195" lon="0.189283">
        <ele>1347.4</ele>
        <time>2016-06-08T11:37:01Z</time>
      </trkpt>
      <trkpt lat="42.498026" lon="0.188985">
        <ele>1344.1</ele>
        <time>2016-06-08T11:37:05Z</time>
      </trkpt>
      <trkpt lat="42.497885" lon="0.188705">
        <ele>1341.7</ele>
        <time>2016-06-08T11:37:09Z</time>
      </trkpt>
      <trkpt lat="42.497632" lon="0.188502">
        <ele>1337.8</ele>
        <time>2016-06-08T11:37:14Z</time>
      </trkpt>
      <trkpt lat="42.497415" lon="0.188370">
        <ele>1334.5</ele>
        <time>2016-06-08T11:37:19Z</time>
      </trkpt>
      <trkpt lat="42.497542" lon="0.188273">
        <ele>1331.6</ele>
        <time>2016-06-08T11:37:27Z</time>
      </trkpt>
      <trkpt lat="42.497794" lon="0.188401">
        <ele>1329.2</ele>
        <time>2016-06-08T11:37:33Z</time>
      </trkpt>
      <trkpt lat="42.497899" lon="0.188416">
        <ele>1327.2</ele>
        <time>2016-06-08T11:37:35Z</time>
      </trkpt>
      <trkpt lat="42.497999" lon="0.188443">
        <ele>1326.8</ele>
        <time>2016-06-08T11:37:37Z</time>
      </trkpt>
      <trkpt lat="42.498143" lon="0.188538">
        <ele>1324.4</ele>
        <time>2016-06-08T11:37:40Z</time>
      </trkpt>
      <trkpt lat="42.498314" lon="0.188696">
        <ele>1322.0</ele>
        <time>2016-06-08T11:37:44Z</time>
      </trkpt>
      <trkpt lat="42.498490" lon="0.188788">
        <ele>1319.1</ele>
        <time>2016-06-08T11:37:47Z</time>
      </trkpt>
      <trkpt lat="42.498602" lon="0.188854">
        <ele>1317.6</ele>
        <time>2016-06-08T11:37:49Z</time>
      </trkpt>
      <trkpt lat="42.498990" lon="0.188933">
        <ele>1312.8</ele>
        <time>2016-06-08T11:37:54Z</time>
      </trkpt>
      <trkpt lat="42.499129" lon="0.188872">
        <ele>1311.4</ele>
        <time>2016-06-08T11:37:56Z</time>
      </trkpt>
      <trkpt lat="42.499350" lon="0.188588">
        <ele>1307.5</ele>
        <time>2016-06-08T11:38:01Z</time>
      </trkpt>
      <trkpt lat="42.499359" lon="0.188421">
        <ele>1306.1</ele>
        <time>2016-06-08T11:38:04Z</time>
      </trkpt>
      <trkpt lat="42.499290" lon="0.188326">
        <ele>1304.7</ele>
        <time>2016-06-08T11:38:07Z</time>
      </trkpt>
      <trkpt lat="42.499095" lon="0.188344">
        <ele>1302.2</ele>
        <time>2016-06-08T11:38:11Z</time>
      </trkpt>
      <trkpt lat="42.498786" lon="0.188177">
        <ele>1299.4</ele>
        <time>2016-06-08T11:38:17Z</time>
      </trkpt>
      <trkpt lat="42.498671" lon="0.187889">
        <ele>1296.0</ele>
        <time>2016-06-08T11:38:21Z</time>
      </trkpt>
      <trkpt lat="42.498501" lon="0.187662">
        <ele>1293.6</ele>
        <time>2016-06-08T11:38:25Z</time>
      </trkpt>
      <trkpt lat="42.498300" lon="0.187527">
        <ele>1290.2</ele>
        <time>2016-06-08T11:38:29Z</time>
      </trkpt>
      <trkpt lat="42.498238" lon="0.187510">
        <ele>1289.3</ele>
        <time>2016-06-08T11:38:30Z</time>
      </trkpt>
      <trkpt lat="42.497962" lon="0.187402">
        <ele>1286.4</ele>
        <time>2016-06-08T11:38:34Z</time>
      </trkpt>
      <trkpt lat="42.497850" lon="0.187250">
        <ele>1284.5</ele>
        <time>2016-06-08T11:38:37Z</time>
      </trkpt>
      <trkpt lat="42.497593" lon="0.186965">
        <ele>1280.6</ele>
        <time>2016-06-08T11:38:43Z</time>
      </trkpt>
      <trkpt lat="42.497340" lon="0.186649">
        <ele>1276.3</ele>
        <time>2016-06-08T11:38:49Z</time>
      </trkpt>
      <trkpt lat="42.497160" lon="0.186376">
        <ele>1273.4</ele>
        <time>2016-06-08T11:38:53Z</time>
      </trkpt>
      <trkpt lat="42.497019" lon="0.186157">
        <ele>1270.0</ele>
        <time>2016-06-08T11:38:56Z</time>
      </trkpt>
      <trkpt lat="42.496784" lon="0.185761">
        <ele>1266.2</ele>
        <time>2016-06-08T11:39:01Z</time>
      </trkpt>
      <trkpt lat="42.496625" lon="0.185454">
        <ele>1263.8</ele>
        <time>2016-06-08T11:39:05Z</time>
      </trkpt>
      <trkpt lat="42.496589" lon="0.185387">
        <ele>1262.4</ele>
        <time>2016-06-08T11:39:06Z</time>
      </trkpt>
      <trkpt lat="42.496507" lon="0.185261">
        <ele>1261.4</ele>
        <time>2016-06-08T11:39:08Z</time>
      </trkpt>
      <trkpt lat="42.496346" lon="0.185083">
        <ele>1258.0</ele>
        <time>2016-06-08T11:39:11Z</time>
      </trkpt>
      <trkpt lat="42.496289" lon="0.185014">
        <ele>1257.5</ele>
        <time>2016-06-08T11:39:12Z</time>
      </trkpt>
      <trkpt lat="42.495992" lon="0.184544">
        <ele>1253.2</ele>
        <time>2016-06-08T11:39:18Z</time>
      </trkpt>
      <trkpt lat="42.495830" lon="0.184202">
        <ele>1250.3</ele>
        <time>2016-06-08T11:39:22Z</time>
      </trkpt>
      <trkpt lat="42.495778" lon="0.184031">
        <ele>1248.9</ele>
        <time>2016-06-08T11:39:24Z</time>
      </trkpt>
      <trkpt lat="42.495763" lon="0.183910">
        <ele>1247.5</ele>
        <time>2016-06-08T11:39:25Z</time>
      </trkpt>
      <trkpt lat="42.495767" lon="0.183818">
        <ele>1247.0</ele>
        <time>2016-06-08T11:39:26Z</time>
      </trkpt>
      <trkpt lat="42.495775" lon="0.183730">
        <ele>1246.5</ele>
        <time>2016-06-08T11:39:27Z</time>
      </trkpt>
      <trkpt lat="42.495832" lon="0.183331">
        <ele>1242.6</ele>
        <time>2016-06-08T11:39:32Z</time>
      </trkpt>
      <trkpt lat="42.495766" lon="0.183066">
        <ele>1240.7</ele>
        <time>2016-06-08T11:39:35Z</time>
      </trkpt>
      <trkpt lat="42.495637" lon="0.182902">
        <ele>1238.8</ele>
        <time>2016-06-08T11:39:38Z</time>
      </trkpt>
      <trkpt lat="42.495593" lon="0.182743">
        <ele>1237.4</ele>
        <time>2016-06-08T11:39:41Z</time>
      </trkpt>
      <trkpt lat="42.495773" lon="0.182727">
        <ele>1234.0</ele>
        <time>2016-06-08T11:39:46Z</time>
      </trkpt>
      <trkpt lat="42.495879" lon="0.182863">
        <ele>1232.1</ele>
        <time>2016-06-08T11:39:49Z</time>
      </trkpt>
      <trkpt lat="42.496019" lon="0.182996">
        <ele>1229.2</ele>
        <time>2016-06-08T11:39:52Z</time>
      </trkpt>
      <trkpt lat="42.496161" lon="0.183266">
        <ele>1226.3</ele>
        <time>2016-06-08T11:39:56Z</time>
      </trkpt>
      <trkpt lat="42.496224" lon="0.183527">
        <ele>1223.9</ele>
        <time>2016-06-08T11:39:59Z</time>
      </trkpt>
      <trkpt lat="42.496379" lon="0.183810">
        <ele>1221.5</ele>
        <time>2016-06-08T11:40:03Z</time>
      </trkpt>
      <trkpt lat="42.496578" lon="0.184057">
        <ele>1217.7</ele>
        <time>2016-06-08T11:40:07Z</time>
      </trkpt>
      <trkpt lat="42.496752" lon="0.184182">
        <ele>1215.7</ele>
        <time>2016-06-08T11:40:10Z</time>
      </trkpt>
      <trkpt lat="42.497026" lon="0.184283">
        <ele>1211.9</ele>
        <time>2016-06-08T11:40:14Z</time>
      </trkpt>
      <trkpt lat="42.497258" lon="0.184453">
        <ele>1209.0</ele>
        <time>2016-06-08T11:40:18Z</time>
      </trkpt>
      <trkpt lat="42.497318" lon="0.184517">
        <ele>1208.5</ele>
        <time>2016-06-08T11:40:19Z</time>
      </trkpt>
      <trkpt lat="42.497408" lon="0.184617">
        <ele>1207.1</ele>
        <time>2016-06-08T11:40:21Z</time>
      </trkpt>
      <trkpt lat="42.497670" lon="0.184796">
        <ele>1203.7</ele>
        <time>2016-06-08T11:40:27Z</time>
      </trkpt>
      <trkpt lat="42.497745" lon="0.184707">
        <ele>1202.3</ele>
        <time>2016-06-08T11:40:30Z</time>
      </trkpt>
      <trkpt lat="42.497597" lon="0.184478">
        <ele>1199.9</ele>
        <time>2016-06-08T11:40:37Z</time>
      </trkpt>
      <trkpt lat="42.497424" lon="0.184135">
        <ele>1196.5</ele>
        <time>2016-06-08T11:40:43Z</time>
      </trkpt>
      <trkpt lat="42.497316" lon="0.183912">
        <ele>1193.6</ele>
        <time>2016-06-08T11:40:46Z</time>
      </trkpt>
      <trkpt lat="42.497282" lon="0.183845">
        <ele>1193.1</ele>
        <time>2016-06-08T11:40:47Z</time>
      </trkpt>
      <trkpt lat="42.497240" lon="0.183774">
        <ele>1191.7</ele>
        <time>2016-06-08T11:40:48Z</time>
      </trkpt>
      <trkpt lat="42.497073" lon="0.183477">
        <ele>1188.8</ele>
        <time>2016-06-08T11:40:52Z</time>
      </trkpt>
      <trkpt lat="42.496952" lon="0.183266">
        <ele>1186.4</ele>
        <time>2016-06-08T11:40:55Z</time>
      </trkpt>
      <trkpt lat="42.496928" lon="0.183055">
        <ele>1184.5</ele>
        <time>2016-06-08T11:40:59Z</time>
      </trkpt>
      <trkpt lat="42.497047" lon="0.183081">
        <ele>1182.6</ele>
        <time>2016-06-08T11:41:03Z</time>
      </trkpt>
      <trkpt lat="42.497100" lon="0.183168">
        <ele>1182.1</ele>
        <time>2016-06-08T11:41:05Z</time>
      </trkpt>
      <trkpt lat="42.497179" lon="0.183265">
        <ele>1180.2</ele>
        <time>2016-06-08T11:41:07Z</time>
      </trkpt>
      <trkpt lat="42.497407" lon="0.183361">
        <ele>1177.8</ele>
        <time>2016-06-08T11:41:11Z</time>
      </trkpt>
      <trkpt lat="42.497733" lon="0.183514">
        <ele>1173.4</ele>
        <time>2016-06-08T11:41:16Z</time>
      </trkpt>
      <trkpt lat="42.497877" lon="0.183573">
        <ele>1172.0</ele>
        <time>2016-06-08T11:41:18Z</time>
      </trkpt>
      <trkpt lat="42.498071" lon="0.183736">
        <ele>1169.6</ele>
        <time>2016-06-08T11:41:22Z</time>
      </trkpt>
      <trkpt lat="42.498248" lon="0.183890">
        <ele>1166.2</ele>
        <time>2016-06-08T11:41:27Z</time>
      </trkpt>
      <trkpt lat="42.498229" lon="0.183684">
        <ele>1164.3</ele>
        <time>2016-06-08T11:41:32Z</time>
      </trkpt>
      <trkpt lat="42.498178" lon="0.183479">
        <ele>1162.4</ele>
        <time>2016-06-08T11:41:35Z</time>
      </trkpt>
      <trkpt lat="42.498004" lon="0.183173">
        <ele>1159.0</ele>
        <time>2016-06-08T11:41:40Z</time>
      </trkpt>
      <trkpt lat="42.497966" lon="0.183112">
        <ele>1158.5</ele>
        <time>2016-06-08T11:41:41Z</time>
      </trkpt>
      <trkpt lat="42.497802" lon="0.182849">
        <ele>1155.2</ele>
        <time>2016-06-08T11:41:45Z</time>
      </trkpt>
      <trkpt lat="42.497692" lon="0.182599">
        <ele>1153.2</ele>
        <time>2016-06-08T11:41:48Z</time>
      </trkpt>
      <trkpt lat="42.497462" lon="0.182150">
        <ele>1148.9</ele>
        <time>2016-06-08T11:41:53Z</time>
      </trkpt>
      <trkpt lat="42.497370" lon="0.181818">
        <ele>1146.5</ele>
        <time>2016-06-08T11:41:57Z</time>
      </trkpt>
      <trkpt lat="42.497313" lon="0.181455">
        <ele>1144.1</ele>
        <time>2016-06-08T11:42:01Z</time>
      </trkpt>
      <trkpt lat="42.497174" lon="0.181143">
        <ele>1141.2</ele>
        <time>2016-06-08T11:42:05Z</time>
      </trkpt>
      <trkpt lat="42.497113" lon="0.181035">
        <ele>1140.7</ele>
        <time>2016-06-08T11:42:07Z</time>
      </trkpt>
      <trkpt lat="42.497075" lon="0.180952">
        <ele>1139.8</ele>
        <time>2016-06-08T11:42:09Z</time>
      </trkpt>
      <trkpt lat="42.497297" lon="0.181045">
        <ele>1136.9</ele>
        <time>2016-06-08T11:42:16Z</time>
      </trkpt>
      <trkpt lat="42.497387" lon="0.181231">
        <ele>1135.5</ele>
        <time>2016-06-08T11:42:19Z</time>
      </trkpt>
      <trkpt lat="42.497532" lon="0.181436">
        <ele>1133.1</ele>
        <time>2016-06-08T11:42:22Z</time>
      </trkpt>
      <trkpt lat="42.497832" lon="0.181604">
        <ele>1129.2</ele>
        <time>2016-06-08T11:42:27Z</time>
      </trkpt>
      <trkpt lat="42.498029" lon="0.181707">
        <ele>1127.8</ele>
        <time>2016-06-08T11:42:30Z</time>
      </trkpt>
      <trkpt lat="42.498243" lon="0.181802">
        <ele>1124.4</ele>
        <time>2016-06-08T11:42:33Z</time>
      </trkpt>
      <trkpt lat="42.498388" lon="0.181848">
        <ele>1123.9</ele>
        <time>2016-06-08T11:42:35Z</time>
      </trkpt>
      <trkpt lat="42.498605" lon="0.181841">
        <ele>1121.5</ele>
        <time>2016-06-08T11:42:38Z</time>
      </trkpt>
      <trkpt lat="42.498886" lon="0.181886">
        <ele>1118.6</ele>
        <time>2016-06-08T11:42:42Z</time>
      </trkpt>
      <trkpt lat="42.499086" lon="0.181867">
        <ele>1115.8</ele>
        <time>2016-06-08T11:42:45Z</time>
      </trkpt>
      <trkpt lat="42.499336" lon="0.181930">
        <ele>1111.9</ele>
        <time>2016-06-08T11:42:50Z</time>
      </trkpt>
      <trkpt lat="42.499629" lon="0.182186">
        <ele>1108.5</ele>
        <time>2016-06-08T11:42:56Z</time>
      </trkpt>
      <trkpt lat="42.499751" lon="0.182370">
        <ele>1106.1</ele>
        <time>2016-06-08T11:42:59Z</time>
      </trkpt>
      <trkpt lat="42.499981" lon="0.182646">
        <ele>1102.8</ele>
        <time>2016-06-08T11:43:04Z</time>
      </trkpt>
      <trkpt lat="42.500108" lon="0.182729">
        <ele>1100.9</ele>
        <time>2016-06-08T11:43:06Z</time>
      </trkpt>
      <trkpt lat="42.500161" lon="0.182734">
        <ele>1100.4</ele>
        <time>2016-06-08T11:43:07Z</time>
      </trkpt>
      <trkpt lat="42.500219" lon="0.182731">
        <ele>1099.4</ele>
        <time>2016-06-08T11:43:08Z</time>
      </trkpt>
      <trkpt lat="42.500395" lon="0.182827">
        <ele>1097.5</ele>
        <time>2016-06-08T11:43:12Z</time>
      </trkpt>
      <trkpt lat="42.500441" lon="0.182938">
        <ele>1096.0</ele>
        <time>2016-06-08T11:43:14Z</time>
      </trkpt>
      <trkpt lat="42.500502" lon="0.183032">
        <ele>1095.1</ele>
        <time>2016-06-08T11:43:16Z</time>
      </trkpt>
      <trkpt lat="42.500678" lon="0.182965">
        <ele>1092.7</ele>
        <time>2016-06-08T11:43:20Z</time>
      </trkpt>
      <trkpt lat="42.500948" lon="0.182924">
        <ele>1089.8</ele>
        <time>2016-06-08T11:43:24Z</time>
      </trkpt>
      <trkpt lat="42.501304" lon="0.182862">
        <ele>1086.0</ele>
        <time>2016-06-08T11:43:29Z</time>
      </trkpt>
      <trkpt lat="42.501480" lon="0.182877">
        <ele>1083.1</ele>
        <time>2016-06-08T11:43:32Z</time>
      </trkpt>
      <trkpt lat="42.501638" lon="0.182726">
        <ele>1081.1</ele>
        <time>2016-06-08T11:43:36Z</time>
      </trkpt>
      <trkpt lat="42.501674" lon="0.182571">
        <ele>1080.2</ele>
        <time>2016-06-08T11:43:38Z</time>
      </trkpt>
      <trkpt lat="42.501449" lon="0.182253">
        <ele>1075.9</ele>
        <time>2016-06-08T11:43:45Z</time>
      </trkpt>
      <trkpt lat="42.501144" lon="0.182221">
        <ele>1072.0</ele>
        <time>2016-06-08T11:43:50Z</time>
      </trkpt>
      <trkpt lat="42.501090" lon="0.182220">
        <ele>1070.6</ele>
        <time>2016-06-08T11:43:51Z</time>
      </trkpt>
      <trkpt lat="42.500990" lon="0.182192">
        <ele>1070.1</ele>
        <time>2016-06-08T11:43:53Z</time>
      </trkpt>
      <trkpt lat="42.500948" lon="0.182003">
        <ele>1068.2</ele>
        <time>2016-06-08T11:43:57Z</time>
      </trkpt>
      <trkpt lat="42.500860" lon="0.181459">
        <ele>1063.4</ele>
        <time>2016-06-08T11:44:05Z</time>
      </trkpt>
      <trkpt lat="42.500841" lon="0.181374">
        <ele>1062.4</ele>
        <time>2016-06-08T11:44:06Z</time>
      </trkpt>
      <trkpt lat="42.500809" lon="0.181201">
        <ele>1060.5</ele>
        <time>2016-06-08T11:44:08Z</time>
      </trkpt>
      <trkpt lat="42.500571" lon="0.180745">
        <ele>1057.1</ele>
        <time>2016-06-08T11:44:14Z</time>
      </trkpt>
      <trkpt lat="42.500535" lon="0.180665">
        <ele>1057.1</ele>
        <time>2016-06-08T11:44:15Z</time>
      </trkpt>
      <trkpt lat="42.500417" lon="0.180426">
        <ele>1054.2</ele>
        <time>2016-06-08T11:44:18Z</time>
      </trkpt>
      <trkpt lat="42.500232" lon="0.179911">
        <ele>1049.4</ele>
        <time>2016-06-08T11:44:24Z</time>
      </trkpt>
      <trkpt lat="42.500157" lon="0.179548">
        <ele>1044.6</ele>
        <time>2016-06-08T11:44:29Z</time>
      </trkpt>
      <trkpt lat="42.500350" lon="0.179472">
        <ele>1041.3</ele>
        <time>2016-06-08T11:44:35Z</time>
      </trkpt>
      <trkpt lat="42.500499" lon="0.179549">
        <ele>1039.8</ele>
        <time>2016-06-08T11:44:38Z</time>
      </trkpt>
      <trkpt lat="42.500687" lon="0.179599">
        <ele>1036.9</ele>
        <time>2016-06-08T11:44:41Z</time>
      </trkpt>
      <trkpt lat="42.500924" lon="0.179740">
        <ele>1034.5</ele>
        <time>2016-06-08T11:44:45Z</time>
      </trkpt>
      <trkpt lat="42.501217" lon="0.179888">
        <ele>1031.2</ele>
        <time>2016-06-08T11:44:49Z</time>
      </trkpt>
      <trkpt lat="42.501334" lon="0.179940">
        <ele>1029.7</ele>
        <time>2016-06-08T11:44:51Z</time>
      </trkpt>
      <trkpt lat="42.501493" lon="0.179878">
        <ele>1027.3</ele>
        <time>2016-06-08T11:44:55Z</time>
      </trkpt>
      <trkpt lat="42.501435" lon="0.179633">
        <ele>1024.9</ele>
        <time>2016-06-08T11:44:59Z</time>
      </trkpt>
      <trkpt lat="42.501315" lon="0.179443">
        <ele>1023.5</ele>
        <time>2016-06-08T11:45:02Z</time>
      </trkpt>
      <trkpt lat="42.501212" lon="0.179200">
        <ele>1021.1</ele>
        <time>2016-06-08T11:45:05Z</time>
      </trkpt>
      <trkpt lat="42.501157" lon="0.179039">
        <ele>1020.1</ele>
        <time>2016-06-08T11:45:07Z</time>
      </trkpt>
      <trkpt lat="42.501142" lon="0.178863">
        <ele>1018.7</ele>
        <time>2016-06-08T11:45:09Z</time>
      </trkpt>
      <trkpt lat="42.501090" lon="0.178636">
        <ele>1016.7</ele>
        <time>2016-06-08T11:45:12Z</time>
      </trkpt>
      <trkpt lat="42.501069" lon="0.178573">
        <ele>1015.8</ele>
        <time>2016-06-08T11:45:13Z</time>
      </trkpt>
      <trkpt lat="42.501091" lon="0.178413">
        <ele>1013.9</ele>
        <time>2016-06-08T11:45:16Z</time>
      </trkpt>
      <trkpt lat="42.501364" lon="0.178453">
        <ele>1011.0</ele>
        <time>2016-06-08T11:45:22Z</time>
      </trkpt>
      <trkpt lat="42.501712" lon="0.178584">
        <ele>1006.2</ele>
        <time>2016-06-08T11:45:28Z</time>
      </trkpt>
      <trkpt lat="42.501911" lon="0.178607">
        <ele>1003.8</ele>
        <time>2016-06-08T11:45:31Z</time>
      </trkpt>
      <trkpt lat="42.501986" lon="0.178622">
        <ele>1002.8</ele>
        <time>2016-06-08T11:45:32Z</time>
      </trkpt>
      <trkpt lat="42.502381" lon="0.178742">
        <ele>999.0</ele>
        <time>2016-06-08T11:45:37Z</time>
      </trkpt>
      <trkpt lat="42.502515" lon="0.178794">
        <ele>997.5</ele>
        <time>2016-06-08T11:45:39Z</time>
      </trkpt>
      <trkpt lat="42.502722" lon="0.178619">
        <ele>994.1</ele>
        <time>2016-06-08T11:45:45Z</time>
      </trkpt>
      <trkpt lat="42.502661" lon="0.178490">
        <ele>992.7</ele>
        <time>2016-06-08T11:45:47Z</time>
      </trkpt>
      <trkpt lat="42.502591" lon="0.178344">
        <ele>991.7</ele>
        <time>2016-06-08T11:45:49Z</time>
      </trkpt>
      <trkpt lat="42.502454" lon="0.177885">
        <ele>987.9</ele>
        <time>2016-06-08T11:45:54Z</time>
      </trkpt>
      <trkpt lat="42.502434" lon="0.177790">
        <ele>987.4</ele>
        <time>2016-06-08T11:45:55Z</time>
      </trkpt>
      <trkpt lat="42.502302" lon="0.177458">
        <ele>983.6</ele>
        <time>2016-06-08T11:45:59Z</time>
      </trkpt>
      <trkpt lat="42.502399" lon="0.177196">
        <ele>980.2</ele>
        <time>2016-06-08T11:46:05Z</time>
      </trkpt>
      <trkpt lat="42.502450" lon="0.177203">
        <ele>979.7</ele>
        <time>2016-06-08T11:46:06Z</time>
      </trkpt>
      <trkpt lat="42.502837" lon="0.177136">
        <ele>974.9</ele>
        <time>2016-06-08T11:46:13Z</time>
      </trkpt>
      <trkpt lat="42.502887" lon="0.177100">
        <ele>974.0</ele>
        <time>2016-06-08T11:46:14Z</time>
      </trkpt>
      <trkpt lat="42.503091" lon="0.176959">
        <ele>971.1</ele>
        <time>2016-06-08T11:46:18Z</time>
      </trkpt>
      <trkpt lat="42.503281" lon="0.176961">
        <ele>968.2</ele>
        <time>2016-06-08T11:46:22Z</time>
      </trkpt>
      <trkpt lat="42.503327" lon="0.176995">
        <ele>967.7</ele>
        <time>2016-06-08T11:46:23Z</time>
      </trkpt>
      <trkpt lat="42.503592" lon="0.176827">
        <ele>963.4</ele>
        <time>2016-06-08T11:46:31Z</time>
      </trkpt>
      <trkpt lat="42.503583" lon="0.176746">
        <ele>962.9</ele>
        <time>2016-06-08T11:46:32Z</time>
      </trkpt>
      <trkpt lat="42.503555" lon="0.176593">
        <ele>961.0</ele>
        <time>2016-06-08T11:46:34Z</time>
      </trkpt>
      <trkpt lat="42.503701" lon="0.176300">
        <ele>957.1</ele>
        <time>2016-06-08T11:46:40Z</time>
      </trkpt>
      <trkpt lat="42.503827" lon="0.176311">
        <ele>955.2</ele>
        <time>2016-06-08T11:46:42Z</time>
      </trkpt>
      <trkpt lat="42.504042" lon="0.176362">
        <ele>953.3</ele>
        <time>2016-06-08T11:46:45Z</time>
      </trkpt>
      <trkpt lat="42.504419" lon="0.176510">
        <ele>948.5</ele>
        <time>2016-06-08T11:46:50Z</time>
      </trkpt>
      <trkpt lat="42.504698" lon="0.176696">
        <ele>945.6</ele>
        <time>2016-06-08T11:46:54Z</time>
      </trkpt>
      <trkpt lat="42.504908" lon="0.176863">
        <ele>942.2</ele>
        <time>2016-06-08T11:46:57Z</time>
      </trkpt>
      <trkpt lat="42.505127" lon="0.177050">
        <ele>940.8</ele>
        <time>2016-06-08T11:47:00Z</time>
      </trkpt>
      <trkpt lat="42.505266" lon="0.177165">
        <ele>939.4</ele>
        <time>2016-06-08T11:47:02Z</time>
      </trkpt>
      <trkpt lat="42.505414" lon="0.177343">
        <ele>937.4</ele>
        <time>2016-06-08T11:47:05Z</time>
      </trkpt>
      <trkpt lat="42.505483" lon="0.177553">
        <ele>935.5</ele>
        <time>2016-06-08T11:47:07Z</time>
      </trkpt>
      <trkpt lat="42.505656" lon="0.178044">
        <ele>932.1</ele>
        <time>2016-06-08T11:47:13Z</time>
      </trkpt>
      <trkpt lat="42.505827" lon="0.177994">
        <ele>930.7</ele>
        <time>2016-06-08T11:47:17Z</time>
      </trkpt>
      <trkpt lat="42.505940" lon="0.177709">
        <ele>927.8</ele>
        <time>2016-06-08T11:47:22Z</time>
      </trkpt>
      <trkpt lat="42.505932" lon="0.177390">
        <ele>924.5</ele>
        <time>2016-06-08T11:47:26Z</time>
      </trkpt>
      <trkpt lat="42.506111" lon="0.177219">
        <ele>921.1</ele>
        <time>2016-06-08T11:47:31Z</time>
      </trkpt>
      <trkpt lat="42.506256" lon="0.177089">
        <ele>918.7</ele>
        <time>2016-06-08T11:47:37Z</time>
      </trkpt>
      <trkpt lat="42.506013" lon="0.176801">
        <ele>918.2</ele>
        <time>2016-06-08T11:47:49Z</time>
      </trkpt>
      <trkpt lat="42.506106" lon="0.176223">
        <ele>916.3</ele>
        <time>2016-06-08T11:47:59Z</time>
      </trkpt>
      <trkpt lat="42.506259" lon="0.175597">
        <ele>912.9</ele>
        <time>2016-06-08T11:48:06Z</time>
      </trkpt>
      <trkpt lat="42.506406" lon="0.174945">
        <ele>909.1</ele>
        <time>2016-06-08T11:48:12Z</time>
      </trkpt>
      <trkpt lat="42.506428" lon="0.174847">
        <ele>909.1</ele>
        <time>2016-06-08T11:48:13Z</time>
      </trkpt>
      <trkpt lat="42.506362" lon="0.174543">
        <ele>907.1</ele>
        <time>2016-06-08T11:48:17Z</time>
      </trkpt>
      <trkpt lat="42.505945" lon="0.173799">
        <ele>906.7</ele>
        <time>2016-06-08T11:48:30Z</time>
      </trkpt>
      <trkpt lat="42.505680" lon="0.173258">
        <ele>904.3</ele>
        <time>2016-06-08T11:48:39Z</time>
      </trkpt>
      <trkpt lat="42.505580" lon="0.172865">
        <ele>899.9</ele>
        <time>2016-06-08T11:48:43Z</time>
      </trkpt>
      <trkpt lat="42.505564" lon="0.172742">
        <ele>899.9</ele>
        <time>2016-06-08T11:48:44Z</time>
      </trkpt>
      <trkpt lat="42.505525" lon="0.172369">
        <ele>897.5</ele>
        <time>2016-06-08T11:48:47Z</time>
      </trkpt>
      <trkpt lat="42.505604" lon="0.171911">
        <ele>894.2</ele>
        <time>2016-06-08T11:48:51Z</time>
      </trkpt>
      <trkpt lat="42.505792" lon="0.171646">
        <ele>890.3</ele>
        <time>2016-06-08T11:48:54Z</time>
      </trkpt>
      <trkpt lat="42.505984" lon="0.171543">
        <ele>887.9</ele>
        <time>2016-06-08T11:48:56Z</time>
      </trkpt>
      <trkpt lat="42.506447" lon="0.171372">
        <ele>882.2</ele>
        <time>2016-06-08T11:49:00Z</time>
      </trkpt>
      <trkpt lat="42.506808" lon="0.171215">
        <ele>878.3</ele>
        <time>2016-06-08T11:49:03Z</time>
      </trkpt>
      <trkpt lat="42.507035" lon="0.171072">
        <ele>874.5</ele>
        <time>2016-06-08T11:49:05Z</time>
      </trkpt>
      <trkpt lat="42.507245" lon="0.170884">
        <ele>871.1</ele>
        <time>2016-06-08T11:49:07Z</time>
      </trkpt>
      <trkpt lat="42.507495" lon="0.170528">
        <ele>866.8</ele>
        <time>2016-06-08T11:49:10Z</time>
      </trkpt>
      <trkpt lat="42.507659" lon="0.170078">
        <ele>862.9</ele>
        <time>2016-06-08T11:49:13Z</time>
      </trkpt>
      <trkpt lat="42.507712" lon="0.169562">
        <ele>858.6</ele>
        <time>2016-06-08T11:49:16Z</time>
      </trkpt>
      <trkpt lat="42.507666" lon="0.169032">
        <ele>854.8</ele>
        <time>2016-06-08T11:49:19Z</time>
      </trkpt>
      <trkpt lat="42.507531" lon="0.168335">
        <ele>850.4</ele>
        <time>2016-06-08T11:49:23Z</time>
      </trkpt>
      <trkpt lat="42.507395" lon="0.167644">
        <ele>846.6</ele>
        <time>2016-06-08T11:49:27Z</time>
      </trkpt>
      <trkpt lat="42.507278" lon="0.166970">
        <ele>842.3</ele>
        <time>2016-06-08T11:49:31Z</time>
      </trkpt>
      <trkpt lat="42.507248" lon="0.166815">
        <ele>841.3</ele>
        <time>2016-06-08T11:49:32Z</time>
      </trkpt>
      <trkpt lat="42.507005" lon="0.166257">
        <ele>837.0</ele>
        <time>2016-06-08T11:49:36Z</time>
      </trkpt>
      <trkpt lat="42.506769" lon="0.165906">
        <ele>834.6</ele>
        <time>2016-06-08T11:49:39Z</time>
      </trkpt>
      <trkpt lat="42.506603" lon="0.165358">
        <ele>831.2</ele>
        <time>2016-06-08T11:49:43Z</time>
      </trkpt>
      <trkpt lat="42.506541" lon="0.164704">
        <ele>826.9</ele>
        <time>2016-06-08T11:49:47Z</time>
      </trkpt>
      <trkpt lat="42.506482" lon="0.164163">
        <ele>822.6</ele>
        <time>2016-06-08T11:49:50Z</time>
      </trkpt>
      <trkpt lat="42.506435" lon="0.163614">
        <ele>818.2</ele>
        <time>2016-06-08T11:49:53Z</time>
      </trkpt>
      <trkpt lat="42.506408" lon="0.163044">
        <ele>814.4</ele>
        <time>2016-06-08T11:49:56Z</time>
      </trkpt>
      <trkpt lat="42.506392" lon="0.162508">
        <ele>810.1</ele>
        <time>2016-06-08T11:49:59Z</time>
      </trkpt>
      <trkpt lat="42.506379" lon="0.162175">
        <ele>808.1</ele>
        <time>2016-06-08T11:50:01Z</time>
      </trkpt>
      <trkpt lat="42.506225" lon="0.161658">
        <ele>804.3</ele>
        <time>2016-06-08T11:50:05Z</time>
      </trkpt>
      <trkpt lat="42.506074" lon="0.161108">
        <ele>799.5</ele>
        <time>2016-06-08T11:50:09Z</time>
      </trkpt>
      <trkpt lat="42.505978" lon="0.160325">
        <ele>794.7</ele>
        <time>2016-06-08T11:50:14Z</time>
      </trkpt>
      <trkpt lat="42.505906" lon="0.159822">
        <ele>791.3</ele>
        <time>2016-06-08T11:50:17Z</time>
      </trkpt>
      <trkpt lat="42.505838" lon="0.159304">
        <ele>788.4</ele>
        <time>2016-06-08T11:50:20Z</time>
      </trkpt>
      <trkpt lat="42.505772" lon="0.158799">
        <ele>785.1</ele>
        <time>2016-06-08T11:50:23Z</time>
      </trkpt>
      <trkpt lat="42.505702" lon="0.158341">
        <ele>781.7</ele>
        <time>2016-06-08T11:50:26Z</time>
      </trkpt>
      <trkpt lat="42.505540" lon="0.157784">
        <ele>778.3</ele>
        <time>2016-06-08T11:50:30Z</time>
      </trkpt>
      <trkpt lat="42.505212" lon="0.157245">
        <ele>775.0</ele>
        <time>2016-06-08T11:50:35Z</time>
      </trkpt>
      <trkpt lat="42.505033" lon="0.156768">
        <ele>772.1</ele>
        <time>2016-06-08T11:50:39Z</time>
      </trkpt>
      <trkpt lat="42.504802" lon="0.156194">
        <ele>767.8</ele>
        <time>2016-06-08T11:50:44Z</time>
      </trkpt>
      <trkpt lat="42.504692" lon="0.155819">
        <ele>766.3</ele>
        <time>2016-06-08T11:50:48Z</time>
      </trkpt>
      <trkpt lat="42.504639" lon="0.155744">
        <ele>764.9</ele>
        <time>2016-06-08T11:50:49Z</time>
      </trkpt>
      <trkpt lat="42.504375" lon="0.155401">
        <ele>762.0</ele>
        <time>2016-06-08T11:50:54Z</time>
      </trkpt>
      <trkpt lat="42.504328" lon="0.155342">
        <ele>762.0</ele>
        <time>2016-06-08T11:50:55Z</time>
      </trkpt>
      <trkpt lat="42.504088" lon="0.155220">
        <ele>760.5</ele>
        <time>2016-06-08T11:50:59Z</time>
      </trkpt>
      <trkpt lat="42.503636" lon="0.154923">
        <ele>756.7</ele>
        <time>2016-06-08T11:51:06Z</time>
      </trkpt>
      <trkpt lat="42.503580" lon="0.154891">
        <ele>756.2</ele>
        <time>2016-06-08T11:51:07Z</time>
      </trkpt>
      <trkpt lat="42.503330" lon="0.154800">
        <ele>754.8</ele>
        <time>2016-06-08T11:51:13Z</time>
      </trkpt>
      <trkpt lat="42.503276" lon="0.154735">
        <ele>754.3</ele>
        <time>2016-06-08T11:51:15Z</time>
      </trkpt>
      <trkpt lat="42.503141" lon="0.154532">
        <ele>752.9</ele>
        <time>2016-06-08T11:51:20Z</time>
      </trkpt>
      <trkpt lat="42.503006" lon="0.154105">
        <ele>750.5</ele>
        <time>2016-06-08T11:51:31Z</time>
      </trkpt>
      <trkpt lat="42.503092" lon="0.153983">
        <ele>750.0</ele>
        <time>2016-06-08T11:51:53Z</time>
      </trkpt>
      <trkpt lat="42.503160" lon="0.153796">
        <ele>748.5</ele>
        <time>2016-06-08T11:51:57Z</time>
      </trkpt>
      <trkpt lat="42.503159" lon="0.153701">
        <ele>747.6</ele>
        <time>2016-06-08T11:51:59Z</time>
      </trkpt>
      <trkpt lat="42.503075" lon="0.153622">
        <ele>745.6</ele>
        <time>2016-06-08T11:52:02Z</time>
      </trkpt>
      <trkpt lat="42.503024" lon="0.153616">
        <ele>745.2</ele>
        <time>2016-06-08T11:52:03Z</time>
      </trkpt>
      <trkpt lat="42.502673" lon="0.153588">
        <ele>741.3</ele>
        <time>2016-06-08T11:52:08Z</time>
      </trkpt>
      <trkpt lat="42.502303" lon="0.153483">
        <ele>738.0</ele>
        <time>2016-06-08T11:52:12Z</time>
      </trkpt>
      <trkpt lat="42.502124" lon="0.153409">
        <ele>735.6</ele>
        <time>2016-06-08T11:52:14Z</time>
      </trkpt>
      <trkpt lat="42.501768" lon="0.153125">
        <ele>730.7</ele>
        <time>2016-06-08T11:52:19Z</time>
      </trkpt>
      <trkpt lat="42.501758" lon="0.152875">
        <ele>726.4</ele>
        <time>2016-06-08T11:52:25Z</time>
      </trkpt>
      <trkpt lat="42.502038" lon="0.153069">
        <ele>724.5</ele>
        <time>2016-06-08T11:52:30Z</time>
      </trkpt>
      <trkpt lat="42.502272" lon="0.153127">
        <ele>722.6</ele>
        <time>2016-06-08T11:52:33Z</time>
      </trkpt>
      <trkpt lat="42.502620" lon="0.153097">
        <ele>720.2</ele>
        <time>2016-06-08T11:52:37Z</time>
      </trkpt>
      <trkpt lat="42.502901" lon="0.152987">
        <ele>719.2</ele>
        <time>2016-06-08T11:52:40Z</time>
      </trkpt>
      <trkpt lat="42.503192" lon="0.152918">
        <ele>717.3</ele>
        <time>2016-06-08T11:52:43Z</time>
      </trkpt>
      <trkpt lat="42.503570" lon="0.152929">
        <ele>716.8</ele>
        <time>2016-06-08T11:52:47Z</time>
      </trkpt>
      <trkpt lat="42.504026" lon="0.152798">
        <ele>715.4</ele>
        <time>2016-06-08T11:52:52Z</time>
      </trkpt>
      <trkpt lat="42.504349" lon="0.152553">
        <ele>713.9</ele>
        <time>2016-06-08T11:52:56Z</time>
      </trkpt>
      <trkpt lat="42.504874" lon="0.152100">
        <ele>710.1</ele>
        <time>2016-06-08T11:53:02Z</time>
      </trkpt>
      <trkpt lat="42.505058" lon="0.151995">
        <ele>708.2</ele>
        <time>2016-06-08T11:53:04Z</time>
      </trkpt>
      <trkpt lat="42.505419" lon="0.152196">
        <ele>704.3</ele>
        <time>2016-06-08T11:53:10Z</time>
      </trkpt>
      <trkpt lat="42.505629" lon="0.152309">
        <ele>701.9</ele>
        <time>2016-06-08T11:53:13Z</time>
      </trkpt>
      <trkpt lat="42.506183" lon="0.152548">
        <ele>696.1</ele>
        <time>2016-06-08T11:53:19Z</time>
      </trkpt>
      <trkpt lat="42.506590" lon="0.152594">
        <ele>690.8</ele>
        <time>2016-06-08T11:53:26Z</time>
      </trkpt>
      <trkpt lat="42.506512" lon="0.152315">
        <ele>688.9</ele>
        <time>2016-06-08T11:53:29Z</time>
      </trkpt>
      <trkpt lat="42.506347" lon="0.152021">
        <ele>686.5</ele>
        <time>2016-06-08T11:53:32Z</time>
      </trkpt>
      <trkpt lat="42.506159" lon="0.151688">
        <ele>683.2</ele>
        <time>2016-06-08T11:53:35Z</time>
      </trkpt>
      <trkpt lat="42.505941" lon="0.151333">
        <ele>679.3</ele>
        <time>2016-06-08T11:53:38Z</time>
      </trkpt>
      <trkpt lat="42.505782" lon="0.151088">
        <ele>677.4</ele>
        <time>2016-06-08T11:53:40Z</time>
      </trkpt>
      <trkpt lat="42.505558" lon="0.150494">
        <ele>673.1</ele>
        <time>2016-06-08T11:53:44Z</time>
      </trkpt>
      <trkpt lat="42.505501" lon="0.150179">
        <ele>670.7</ele>
        <time>2016-06-08T11:53:46Z</time>
      </trkpt>
      <trkpt lat="42.505518" lon="0.149619">
        <ele>666.3</ele>
        <time>2016-06-08T11:53:50Z</time>
      </trkpt>
      <trkpt lat="42.505541" lon="0.149475">
        <ele>665.4</ele>
        <time>2016-06-08T11:53:51Z</time>
      </trkpt>
      <trkpt lat="42.505759" lon="0.148738">
        <ele>660.6</ele>
        <time>2016-06-08T11:53:56Z</time>
      </trkpt>
      <trkpt lat="42.505803" lon="0.148579">
        <ele>659.6</ele>
        <time>2016-06-08T11:53:57Z</time>
      </trkpt>
      <trkpt lat="42.505875" lon="0.148071">
        <ele>657.7</ele>
        <time>2016-06-08T11:54:00Z</time>
      </trkpt>
      <trkpt lat="42.505955" lon="0.146705">
        <ele>657.2</ele>
        <time>2016-06-08T11:54:10Z</time>
      </trkpt>
      <trkpt lat="42.506039" lon="0.145271">
        <ele>655.3</ele>
        <time>2016-06-08T11:54:24Z</time>
      </trkpt>
      <trkpt lat="42.506075" lon="0.144676">
        <ele>657.7</ele>
        <time>2016-06-08T11:54:35Z</time>
      </trkpt>
      <trkpt lat="42.506118" lon="0.144089">
        <ele>659.6</ele>
        <time>2016-06-08T11:54:51Z</time>
      </trkpt>
      <trkpt lat="42.505970" lon="0.143693">
        <ele>661.5</ele>
        <time>2016-06-08T11:55:05Z</time>
      </trkpt>
      <trkpt lat="42.505416" lon="0.143744">
        <ele>661.5</ele>
        <time>2016-06-08T11:55:21Z</time>
      </trkpt>
      <trkpt lat="42.504806" lon="0.144012">
        <ele>661.0</ele>
        <time>2016-06-08T11:55:37Z</time>
      </trkpt>
      <trkpt lat="42.504173" lon="0.144599">
        <ele>660.6</ele>
        <time>2016-06-08T11:55:56Z</time>
      </trkpt>
      <trkpt lat="42.503625" lon="0.145332">
        <ele>660.1</ele>
        <time>2016-06-08T11:56:16Z</time>
      </trkpt>
      <trkpt lat="42.503070" lon="0.145736">
        <ele>660.1</ele>
        <time>2016-06-08T11:56:33Z</time>
      </trkpt>
      <trkpt lat="42.502432" lon="0.145653">
        <ele>659.6</ele>
        <time>2016-06-08T11:56:49Z</time>
      </trkpt>
      <trkpt lat="42.502037" lon="0.145480">
        <ele>658.2</ele>
        <time>2016-06-08T11:56:59Z</time>
      </trkpt>
      <trkpt lat="42.501131" lon="0.144995">
        <ele>655.8</ele>
        <time>2016-06-08T11:57:19Z</time>
      </trkpt>
      <trkpt lat="42.500145" lon="0.144381">
        <ele>652.4</ele>
        <time>2016-06-08T11:57:39Z</time>
      </trkpt>
      <trkpt lat="42.499960" lon="0.144262">
        <ele>652.4</ele>
        <time>2016-06-08T11:57:43Z</time>
      </trkpt>
      <trkpt lat="42.499861" lon="0.144070">
        <ele>651.9</ele>
        <time>2016-06-08T11:57:47Z</time>
      </trkpt>
      <trkpt lat="42.499906" lon="0.144037">
        <ele>626.9</ele>
        <time>2016-06-08T12:38:13Z</time>
      </trkpt>
      <trkpt lat="42.500168" lon="0.143517">
        <ele>627.9</ele>
        <time>2016-06-08T12:38:33Z</time>
      </trkpt>
      <trkpt lat="42.500425" lon="0.142921">
        <ele>629.8</ele>
        <time>2016-06-08T12:38:54Z</time>
      </trkpt>
      <trkpt lat="42.500664" lon="0.142339">
        <ele>631.7</ele>
        <time>2016-06-08T12:39:14Z</time>
      </trkpt>
      <trkpt lat="42.500880" lon="0.141834">
        <ele>632.7</ele>
        <time>2016-06-08T12:39:31Z</time>
      </trkpt>
      <trkpt lat="42.501150" lon="0.141205">
        <ele>633.7</ele>
        <time>2016-06-08T12:39:51Z</time>
      </trkpt>
      <trkpt lat="42.501412" lon="0.140762">
        <ele>634.1</ele>
        <time>2016-06-08T12:40:07Z</time>
      </trkpt>
      <trkpt lat="42.501660" lon="0.140428">
        <ele>636.1</ele>
        <time>2016-06-08T12:40:24Z</time>
      </trkpt>
      <trkpt lat="42.501946" lon="0.140045">
        <ele>637.0</ele>
        <time>2016-06-08T12:40:44Z</time>
      </trkpt>
      <trkpt lat="42.502276" lon="0.139643">
        <ele>638.5</ele>
        <time>2016-06-08T12:41:06Z</time>
      </trkpt>
      <trkpt lat="42.502521" lon="0.139248">
        <ele>640.4</ele>
        <time>2016-06-08T12:41:25Z</time>
      </trkpt>
      <trkpt lat="42.502566" lon="0.138630">
        <ele>642.3</ele>
        <time>2016-06-08T12:41:48Z</time>
      </trkpt>
      <trkpt lat="42.502612" lon="0.138031">
        <ele>643.3</ele>
        <time>2016-06-08T12:42:10Z</time>
      </trkpt>
      <trkpt lat="42.502847" lon="0.137564">
        <ele>645.7</ele>
        <time>2016-06-08T12:42:31Z</time>
      </trkpt>
      <trkpt lat="42.503101" lon="0.137125">
        <ele>647.1</ele>
        <time>2016-06-08T12:42:51Z</time>
      </trkpt>
      <trkpt lat="42.503397" lon="0.136833">
        <ele>648.6</ele>
        <time>2016-06-08T12:43:09Z</time>
      </trkpt>
      <trkpt lat="42.503595" lon="0.136390">
        <ele>649.5</ele>
        <time>2016-06-08T12:43:28Z</time>
      </trkpt>
      <trkpt lat="42.503760" lon="0.135882">
        <ele>651.4</ele>
        <time>2016-06-08T12:43:48Z</time>
      </trkpt>
      <trkpt lat="42.503900" lon="0.135487">
        <ele>652.9</ele>
        <time>2016-06-08T12:44:04Z</time>
      </trkpt>
      <trkpt lat="42.504044" lon="0.134970">
        <ele>654.3</ele>
        <time>2016-06-08T12:44:23Z</time>
      </trkpt>
      <trkpt lat="42.504059" lon="0.134370">
        <ele>654.8</ele>
        <time>2016-06-08T12:44:39Z</time>
      </trkpt>
      <trkpt lat="42.504103" lon="0.133684">
        <ele>655.3</ele>
        <time>2016-06-08T12:44:56Z</time>
      </trkpt>
      <trkpt lat="42.504255" lon="0.132969">
        <ele>655.3</ele>
        <time>2016-06-08T12:45:12Z</time>
      </trkpt>
      <trkpt lat="42.504377" lon="0.132709">
        <ele>655.3</ele>
        <time>2016-06-08T12:45:17Z</time>
      </trkpt>
      <trkpt lat="42.504841" lon="0.132299">
        <ele>653.8</ele>
        <time>2016-06-08T12:45:28Z</time>
      </trkpt>
      <trkpt lat="42.505596" lon="0.131629">
        <ele>652.4</ele>
        <time>2016-06-08T12:45:44Z</time>
      </trkpt>
      <trkpt lat="42.506368" lon="0.131065">
        <ele>650.0</ele>
        <time>2016-06-08T12:45:58Z</time>
      </trkpt>
      <trkpt lat="42.507156" lon="0.130790">
        <ele>650.0</ele>
        <time>2016-06-08T12:46:13Z</time>
      </trkpt>
      <trkpt lat="42.507824" lon="0.130618">
        <ele>650.0</ele>
        <time>2016-06-08T12:46:31Z</time>
      </trkpt>
      <trkpt lat="42.508168" lon="0.130364">
        <ele>650.0</ele>
        <time>2016-06-08T12:46:41Z</time>
      </trkpt>
      <trkpt lat="42.508410" lon="0.130271">
        <ele>650.0</ele>
        <time>2016-06-08T12:46:47Z</time>
      </trkpt>
      <trkpt lat="42.508542" lon="0.130168">
        <ele>649.5</ele>
        <time>2016-06-08T12:46:51Z</time>
      </trkpt>
      <trkpt lat="42.509022" lon="0.129376">
        <ele>648.1</ele>
        <time>2016-06-08T12:47:07Z</time>
      </trkpt>
      <trkpt lat="42.509285" lon="0.129098">
        <ele>647.1</ele>
        <time>2016-06-08T12:47:13Z</time>
      </trkpt>
      <trkpt lat="42.509401" lon="0.128685">
        <ele>646.6</ele>
        <time>2016-06-08T12:47:20Z</time>
      </trkpt>
      <trkpt lat="42.509267" lon="0.127638">
        <ele>646.6</ele>
        <time>2016-06-08T12:47:40Z</time>
      </trkpt>
      <trkpt lat="42.509469" lon="0.127212">
        <ele>646.6</ele>
        <time>2016-06-08T12:47:50Z</time>
      </trkpt>
      <trkpt lat="42.510254" lon="0.126469">
        <ele>644.2</ele>
        <time>2016-06-08T12:48:09Z</time>
      </trkpt>
      <trkpt lat="42.510832" lon="0.125908">
        <ele>643.3</ele>
        <time>2016-06-08T12:48:22Z</time>
      </trkpt>
      <trkpt lat="42.510955" lon="0.125731">
        <ele>643.3</ele>
        <time>2016-06-08T12:48:26Z</time>
      </trkpt>
      <trkpt lat="42.511320" lon="0.125501">
        <ele>642.8</ele>
        <time>2016-06-08T12:48:38Z</time>
      </trkpt>
      <trkpt lat="42.511640" lon="0.125391">
        <ele>642.8</ele>
        <time>2016-06-08T12:48:49Z</time>
      </trkpt>
      <trkpt lat="42.511880" lon="0.124970">
        <ele>642.8</ele>
        <time>2016-06-08T12:49:01Z</time>
      </trkpt>
      <trkpt lat="42.511779" lon="0.124589">
        <ele>642.8</ele>
        <time>2016-06-08T12:49:13Z</time>
      </trkpt>
      <trkpt lat="42.511690" lon="0.124479">
        <ele>643.7</ele>
        <time>2016-06-08T12:49:18Z</time>
      </trkpt>
      <trkpt lat="42.511386" lon="0.124224">
        <ele>645.2</ele>
        <time>2016-06-08T12:49:34Z</time>
      </trkpt>
      <trkpt lat="42.511222" lon="0.123827">
        <ele>647.1</ele>
        <time>2016-06-08T12:49:48Z</time>
      </trkpt>
      <trkpt lat="42.511251" lon="0.123205">
        <ele>649.0</ele>
        <time>2016-06-08T12:50:07Z</time>
      </trkpt>
      <trkpt lat="42.511267" lon="0.122605">
        <ele>650.5</ele>
        <time>2016-06-08T12:50:26Z</time>
      </trkpt>
      <trkpt lat="42.511170" lon="0.121980">
        <ele>652.9</ele>
        <time>2016-06-08T12:50:46Z</time>
      </trkpt>
      <trkpt lat="42.510955" lon="0.121452">
        <ele>653.4</ele>
        <time>2016-06-08T12:51:03Z</time>
      </trkpt>
      <trkpt lat="42.511054" lon="0.120828">
        <ele>653.4</ele>
        <time>2016-06-08T12:51:19Z</time>
      </trkpt>
      <trkpt lat="42.511316" lon="0.120221">
        <ele>655.3</ele>
        <time>2016-06-08T12:51:38Z</time>
      </trkpt>
      <trkpt lat="42.511586" lon="0.119720">
        <ele>655.8</ele>
        <time>2016-06-08T12:51:56Z</time>
      </trkpt>
      <trkpt lat="42.511909" lon="0.119187">
        <ele>657.2</ele>
        <time>2016-06-08T12:52:15Z</time>
      </trkpt>
      <trkpt lat="42.512129" lon="0.118802">
        <ele>658.2</ele>
        <time>2016-06-08T12:52:29Z</time>
      </trkpt>
      <trkpt lat="42.512409" lon="0.118271">
        <ele>658.6</ele>
        <time>2016-06-08T12:52:47Z</time>
      </trkpt>
      <trkpt lat="42.512708" lon="0.117959">
        <ele>659.1</ele>
        <time>2016-06-08T12:53:01Z</time>
      </trkpt>
      <trkpt lat="42.513119" lon="0.117615">
        <ele>660.1</ele>
        <time>2016-06-08T12:53:19Z</time>
      </trkpt>
      <trkpt lat="42.513439" lon="0.117330">
        <ele>661.5</ele>
        <time>2016-06-08T12:53:35Z</time>
      </trkpt>
      <trkpt lat="42.513758" lon="0.117139">
        <ele>663.5</ele>
        <time>2016-06-08T12:53:51Z</time>
      </trkpt>
      <trkpt lat="42.514064" lon="0.117016">
        <ele>666.3</ele>
        <time>2016-06-08T12:54:07Z</time>
      </trkpt>
      <trkpt lat="42.514373" lon="0.116673">
        <ele>666.3</ele>
        <time>2016-06-08T12:54:20Z</time>
      </trkpt>
      <trkpt lat="42.514466" lon="0.116543">
        <ele>664.9</ele>
        <time>2016-06-08T12:54:23Z</time>
      </trkpt>
      <trkpt lat="42.514614" lon="0.116354">
        <ele>664.4</ele>
        <time>2016-06-08T12:54:27Z</time>
      </trkpt>
      <trkpt lat="42.514747" lon="0.116134">
        <ele>663.9</ele>
        <time>2016-06-08T12:54:31Z</time>
      </trkpt>
      <trkpt lat="42.514851" lon="0.115661">
        <ele>663.9</ele>
        <time>2016-06-08T12:54:43Z</time>
      </trkpt>
      <trkpt lat="42.514848" lon="0.115005">
        <ele>665.9</ele>
        <time>2016-06-08T12:55:03Z</time>
      </trkpt>
      <trkpt lat="42.514700" lon="0.114548">
        <ele>666.3</ele>
        <time>2016-06-08T12:55:17Z</time>
      </trkpt>
      <trkpt lat="42.514513" lon="0.113911">
        <ele>666.3</ele>
        <time>2016-06-08T12:55:33Z</time>
      </trkpt>
      <trkpt lat="42.514462" lon="0.113748">
        <ele>666.3</ele>
        <time>2016-06-08T12:55:37Z</time>
      </trkpt>
      <trkpt lat="42.514316" lon="0.113170">
        <ele>666.8</ele>
        <time>2016-06-08T12:55:51Z</time>
      </trkpt>
      <trkpt lat="42.514308" lon="0.113108">
        <ele>666.8</ele>
        <time>2016-06-08T12:55:53Z</time>
      </trkpt>
      <trkpt lat="42.514377" lon="0.112853">
        <ele>670.7</ele>
        <time>2016-06-08T12:56:01Z</time>
      </trkpt>
      <trkpt lat="42.514438" lon="0.112348">
        <ele>667.8</ele>
        <time>2016-06-08T12:56:16Z</time>
      </trkpt>
      <trkpt lat="42.514361" lon="0.111852">
        <ele>668.7</ele>
        <time>2016-06-08T12:56:30Z</time>
      </trkpt>
      <trkpt lat="42.514379" lon="0.111442">
        <ele>669.7</ele>
        <time>2016-06-08T12:56:42Z</time>
      </trkpt>
      <trkpt lat="42.514492" lon="0.111062">
        <ele>670.7</ele>
        <time>2016-06-08T12:56:53Z</time>
      </trkpt>
      <trkpt lat="42.514755" lon="0.110596">
        <ele>670.7</ele>
        <time>2016-06-08T12:57:08Z</time>
      </trkpt>
      <trkpt lat="42.515079" lon="0.110297">
        <ele>672.1</ele>
        <time>2016-06-08T12:57:22Z</time>
      </trkpt>
      <trkpt lat="42.515448" lon="0.110102">
        <ele>674.5</ele>
        <time>2016-06-08T12:57:38Z</time>
      </trkpt>
      <trkpt lat="42.515805" lon="0.109905">
        <ele>675.9</ele>
        <time>2016-06-08T12:57:53Z</time>
      </trkpt>
      <trkpt lat="42.516172" lon="0.109720">
        <ele>676.4</ele>
        <time>2016-06-08T12:58:07Z</time>
      </trkpt>
      <trkpt lat="42.516589" lon="0.109582">
        <ele>676.4</ele>
        <time>2016-06-08T12:58:22Z</time>
      </trkpt>
      <trkpt lat="42.517031" lon="0.109630">
        <ele>676.9</ele>
        <time>2016-06-08T12:58:38Z</time>
      </trkpt>
      <trkpt lat="42.517308" lon="0.109699">
        <ele>677.9</ele>
        <time>2016-06-08T12:58:51Z</time>
      </trkpt>
      <trkpt lat="42.517574" lon="0.109665">
        <ele>678.4</ele>
        <time>2016-06-08T12:59:25Z</time>
      </trkpt>
      <trkpt lat="42.517740" lon="0.109285">
        <ele>675.9</ele>
        <time>2016-06-08T12:59:32Z</time>
      </trkpt>
      <trkpt lat="42.517738" lon="0.108699">
        <ele>676.4</ele>
        <time>2016-06-08T12:59:44Z</time>
      </trkpt>
      <trkpt lat="42.517874" lon="0.108263">
        <ele>678.8</ele>
        <time>2016-06-08T13:00:01Z</time>
      </trkpt>
      <trkpt lat="42.517726" lon="0.107997">
        <ele>680.8</ele>
        <time>2016-06-08T13:00:15Z</time>
      </trkpt>
      <trkpt lat="42.517430" lon="0.107895">
        <ele>683.2</ele>
        <time>2016-06-08T13:00:32Z</time>
      </trkpt>
      <trkpt lat="42.517168" lon="0.107811">
        <ele>685.1</ele>
        <time>2016-06-08T13:00:48Z</time>
      </trkpt>
      <trkpt lat="42.516945" lon="0.107736">
        <ele>686.5</ele>
        <time>2016-06-08T13:01:02Z</time>
      </trkpt>
      <trkpt lat="42.516735" lon="0.107652">
        <ele>688.4</ele>
        <time>2016-06-08T13:01:16Z</time>
      </trkpt>
      <trkpt lat="42.516510" lon="0.107490">
        <ele>689.9</ele>
        <time>2016-06-08T13:01:29Z</time>
      </trkpt>
      <trkpt lat="42.516351" lon="0.107258">
        <ele>690.8</ele>
        <time>2016-06-08T13:01:42Z</time>
      </trkpt>
      <trkpt lat="42.516270" lon="0.106992">
        <ele>693.3</ele>
        <time>2016-06-08T13:01:56Z</time>
      </trkpt>
      <trkpt lat="42.516181" lon="0.106695">
        <ele>694.7</ele>
        <time>2016-06-08T13:02:11Z</time>
      </trkpt>
      <trkpt lat="42.516085" lon="0.106443">
        <ele>696.6</ele>
        <time>2016-06-08T13:02:25Z</time>
      </trkpt>
      <trkpt lat="42.515988" lon="0.106176">
        <ele>699.0</ele>
        <time>2016-06-08T13:02:40Z</time>
      </trkpt>
      <trkpt lat="42.515938" lon="0.105917">
        <ele>702.4</ele>
        <time>2016-06-08T13:02:54Z</time>
      </trkpt>
      <trkpt lat="42.515828" lon="0.105776">
        <ele>703.8</ele>
        <time>2016-06-08T13:03:05Z</time>
      </trkpt>
      <trkpt lat="42.515764" lon="0.105603">
        <ele>705.3</ele>
        <time>2016-06-08T13:03:15Z</time>
      </trkpt>
      <trkpt lat="42.515708" lon="0.105433">
        <ele>707.7</ele>
        <time>2016-06-08T13:03:26Z</time>
      </trkpt>
      <trkpt lat="42.515631" lon="0.105090">
        <ele>711.0</ele>
        <time>2016-06-08T13:03:43Z</time>
      </trkpt>
      <trkpt lat="42.515416" lon="0.104887">
        <ele>712.5</ele>
        <time>2016-06-08T13:04:02Z</time>
      </trkpt>
      <trkpt lat="42.515393" lon="0.104708">
        <ele>713.4</ele>
        <time>2016-06-08T13:04:11Z</time>
      </trkpt>
      <trkpt lat="42.515429" lon="0.104640">
        <ele>713.9</ele>
        <time>2016-06-08T13:04:15Z</time>
      </trkpt>
      <trkpt lat="42.515603" lon="0.104414">
        <ele>714.9</ele>
        <time>2016-06-08T13:04:31Z</time>
      </trkpt>
      <trkpt lat="42.515601" lon="0.104100">
        <ele>716.3</ele>
        <time>2016-06-08T13:04:44Z</time>
      </trkpt>
      <trkpt lat="42.515571" lon="0.103929">
        <ele>716.3</ele>
        <time>2016-06-08T13:04:52Z</time>
      </trkpt>
      <trkpt lat="42.515571" lon="0.103833">
        <ele>716.3</ele>
        <time>2016-06-08T13:04:56Z</time>
      </trkpt>
      <trkpt lat="42.515549" lon="0.103740">
        <ele>716.8</ele>
        <time>2016-06-08T13:05:01Z</time>
      </trkpt>
      <trkpt lat="42.515553" lon="0.103283">
        <ele>718.2</ele>
        <time>2016-06-08T13:05:18Z</time>
      </trkpt>
      <trkpt lat="42.515521" lon="0.103008">
        <ele>719.7</ele>
        <time>2016-06-08T13:05:30Z</time>
      </trkpt>
      <trkpt lat="42.515499" lon="0.102681">
        <ele>721.1</ele>
        <time>2016-06-08T13:05:44Z</time>
      </trkpt>
      <trkpt lat="42.515487" lon="0.102122">
        <ele>722.1</ele>
        <time>2016-06-08T13:06:02Z</time>
      </trkpt>
      <trkpt lat="42.515495" lon="0.101858">
        <ele>720.7</ele>
        <time>2016-06-08T13:06:06Z</time>
      </trkpt>
      <trkpt lat="42.515466" lon="0.101444">
        <ele>719.2</ele>
        <time>2016-06-08T13:06:11Z</time>
      </trkpt>
      <trkpt lat="42.515302" lon="0.100807">
        <ele>717.3</ele>
        <time>2016-06-08T13:06:18Z</time>
      </trkpt>
      <trkpt lat="42.515438" lon="0.100157">
        <ele>715.8</ele>
        <time>2016-06-08T13:06:25Z</time>
      </trkpt>
      <trkpt lat="42.515463" lon="0.099926">
        <ele>715.8</ele>
        <time>2016-06-08T13:06:28Z</time>
      </trkpt>
      <trkpt lat="42.515495" lon="0.099756">
        <ele>716.8</ele>
        <time>2016-06-08T13:06:31Z</time>
      </trkpt>
      <trkpt lat="42.515477" lon="0.099473">
        <ele>718.2</ele>
        <time>2016-06-08T13:06:40Z</time>
      </trkpt>
      <trkpt lat="42.515448" lon="0.099335">
        <ele>718.7</ele>
        <time>2016-06-08T13:06:45Z</time>
      </trkpt>
      <trkpt lat="42.515411" lon="0.098903">
        <ele>719.7</ele>
        <time>2016-06-08T13:07:00Z</time>
      </trkpt>
      <trkpt lat="42.515499" lon="0.098470">
        <ele>720.7</ele>
        <time>2016-06-08T13:07:13Z</time>
      </trkpt>
      <trkpt lat="42.515481" lon="0.098224">
        <ele>719.2</ele>
        <time>2016-06-08T13:07:17Z</time>
      </trkpt>
      <trkpt lat="42.515483" lon="0.097992">
        <ele>717.8</ele>
        <time>2016-06-08T13:07:20Z</time>
      </trkpt>
      <trkpt lat="42.515631" lon="0.097566">
        <ele>717.3</ele>
        <time>2016-06-08T13:07:26Z</time>
      </trkpt>
      <trkpt lat="42.515731" lon="0.097104">
        <ele>713.4</ele>
        <time>2016-06-08T13:07:31Z</time>
      </trkpt>
      <trkpt lat="42.515963" lon="0.096839">
        <ele>712.5</ele>
        <time>2016-06-08T13:07:34Z</time>
      </trkpt>
      <trkpt lat="42.516132" lon="0.096710">
        <ele>710.6</ele>
        <time>2016-06-08T13:07:36Z</time>
      </trkpt>
      <trkpt lat="42.516397" lon="0.096586">
        <ele>709.1</ele>
        <time>2016-06-08T13:07:39Z</time>
      </trkpt>
      <trkpt lat="42.516585" lon="0.096484">
        <ele>707.2</ele>
        <time>2016-06-08T13:07:42Z</time>
      </trkpt>
      <trkpt lat="42.516665" lon="0.096310">
        <ele>706.2</ele>
        <time>2016-06-08T13:07:44Z</time>
      </trkpt>
      <trkpt lat="42.516793" lon="0.096201">
        <ele>705.3</ele>
        <time>2016-06-08T13:07:47Z</time>
      </trkpt>
      <trkpt lat="42.516991" lon="0.095893">
        <ele>703.8</ele>
        <time>2016-06-08T13:07:51Z</time>
      </trkpt>
      <trkpt lat="42.517342" lon="0.095114">
        <ele>704.3</ele>
        <time>2016-06-08T13:08:03Z</time>
      </trkpt>
      <trkpt lat="42.517549" lon="0.094749">
        <ele>705.8</ele>
        <time>2016-06-08T13:08:15Z</time>
      </trkpt>
      <trkpt lat="42.517702" lon="0.094404">
        <ele>706.7</ele>
        <time>2016-06-08T13:08:27Z</time>
      </trkpt>
      <trkpt lat="42.517868" lon="0.094089">
        <ele>708.2</ele>
        <time>2016-06-08T13:08:40Z</time>
      </trkpt>
      <trkpt lat="42.518051" lon="0.093939">
        <ele>709.6</ele>
        <time>2016-06-08T13:08:52Z</time>
      </trkpt>
      <trkpt lat="42.518220" lon="0.093798">
        <ele>711.0</ele>
        <time>2016-06-08T13:09:02Z</time>
      </trkpt>
      <trkpt lat="42.518396" lon="0.093576">
        <ele>713.4</ele>
        <time>2016-06-08T13:09:15Z</time>
      </trkpt>
      <trkpt lat="42.518507" lon="0.093464">
        <ele>713.9</ele>
        <time>2016-06-08T13:09:23Z</time>
      </trkpt>
      <trkpt lat="42.518701" lon="0.093543">
        <ele>717.3</ele>
        <time>2016-06-08T13:09:41Z</time>
      </trkpt>
      <trkpt lat="42.518882" lon="0.093505">
        <ele>718.7</ele>
        <time>2016-06-08T13:09:51Z</time>
      </trkpt>
      <trkpt lat="42.519137" lon="0.093518">
        <ele>721.1</ele>
        <time>2016-06-08T13:10:05Z</time>
      </trkpt>
      <trkpt lat="42.519208" lon="0.093524">
        <ele>721.6</ele>
        <time>2016-06-08T13:10:10Z</time>
      </trkpt>
      <trkpt lat="42.519503" lon="0.093379">
        <ele>724.0</ele>
        <time>2016-06-08T13:10:24Z</time>
      </trkpt>
      <trkpt lat="42.519911" lon="0.093096">
        <ele>725.0</ele>
        <time>2016-06-08T13:10:37Z</time>
      </trkpt>
      <trkpt lat="42.520187" lon="0.092887">
        <ele>723.5</ele>
        <time>2016-06-08T13:10:43Z</time>
      </trkpt>
      <trkpt lat="42.520341" lon="0.092746">
        <ele>723.1</ele>
        <time>2016-06-08T13:10:46Z</time>
      </trkpt>
      <trkpt lat="42.520467" lon="0.092558">
        <ele>722.1</ele>
        <time>2016-06-08T13:10:49Z</time>
      </trkpt>
      <trkpt lat="42.520836" lon="0.091832">
        <ele>722.6</ele>
        <time>2016-06-08T13:11:02Z</time>
      </trkpt>
      <trkpt lat="42.521249" lon="0.091679">
        <ele>725.0</ele>
        <time>2016-06-08T13:11:19Z</time>
      </trkpt>
      <trkpt lat="42.521337" lon="0.091662">
        <ele>725.0</ele>
        <time>2016-06-08T13:11:22Z</time>
      </trkpt>
      <trkpt lat="42.521245" lon="0.091278">
        <ele>725.5</ele>
        <time>2016-06-08T13:11:32Z</time>
      </trkpt>
      <trkpt lat="42.521291" lon="0.090931">
        <ele>727.4</ele>
        <time>2016-06-08T13:11:47Z</time>
      </trkpt>
      <trkpt lat="42.521288" lon="0.090787">
        <ele>728.3</ele>
        <time>2016-06-08T13:11:54Z</time>
      </trkpt>
      <trkpt lat="42.521292" lon="0.090522">
        <ele>730.3</ele>
        <time>2016-06-08T13:12:07Z</time>
      </trkpt>
      <trkpt lat="42.521357" lon="0.090185">
        <ele>732.2</ele>
        <time>2016-06-08T13:12:22Z</time>
      </trkpt>
      <trkpt lat="42.521422" lon="0.089888">
        <ele>734.1</ele>
        <time>2016-06-08T13:12:37Z</time>
      </trkpt>
      <trkpt lat="42.521454" lon="0.089821">
        <ele>734.6</ele>
        <time>2016-06-08T13:12:40Z</time>
      </trkpt>
      <trkpt lat="42.522448" lon="0.089666">
        <ele>737.5</ele>
        <time>2016-06-08T13:13:00Z</time>
      </trkpt>
      <trkpt lat="42.522706" lon="0.089440">
        <ele>739.4</ele>
        <time>2016-06-08T13:13:16Z</time>
      </trkpt>
      <trkpt lat="42.522766" lon="0.089381">
        <ele>739.4</ele>
        <time>2016-06-08T13:13:20Z</time>
      </trkpt>
      <trkpt lat="42.522836" lon="0.089298">
        <ele>740.4</ele>
        <time>2016-06-08T13:13:26Z</time>
      </trkpt>
      <trkpt lat="42.522908" lon="0.089254">
        <ele>740.8</ele>
        <time>2016-06-08T13:13:30Z</time>
      </trkpt>
      <trkpt lat="42.523035" lon="0.089146">
        <ele>742.3</ele>
        <time>2016-06-08T13:13:38Z</time>
      </trkpt>
      <trkpt lat="42.523071" lon="0.089061">
        <ele>742.3</ele>
        <time>2016-06-08T13:13:42Z</time>
      </trkpt>
      <trkpt lat="42.523085" lon="0.088905">
        <ele>742.8</ele>
        <time>2016-06-08T13:13:56Z</time>
      </trkpt>
      <trkpt lat="42.523234" lon="0.088941">
        <ele>742.8</ele>
        <time>2016-06-08T13:13:57Z</time>
      </trkpt>
      <trkpt lat="42.523589" lon="0.089058">
        <ele>744.2</ele>
        <time>2016-06-08T13:14:03Z</time>
      </trkpt>
      <trkpt lat="42.523676" lon="0.089123">
        <ele>744.7</ele>
        <time>2016-06-08T13:14:07Z</time>
      </trkpt>
      <trkpt lat="42.523901" lon="0.089147">
        <ele>745.2</ele>
        <time>2016-06-08T13:14:14Z</time>
      </trkpt>
      <trkpt lat="42.524250" lon="0.089129">
        <ele>747.6</ele>
        <time>2016-06-08T13:14:26Z</time>
      </trkpt>
      <trkpt lat="42.524519" lon="0.089276">
        <ele>749.5</ele>
        <time>2016-06-08T13:14:37Z</time>
      </trkpt>
      <trkpt lat="42.524705" lon="0.089395">
        <ele>750.9</ele>
        <time>2016-06-08T13:14:47Z</time>
      </trkpt>
      <trkpt lat="42.524979" lon="0.089551">
        <ele>752.4</ele>
        <time>2016-06-08T13:15:00Z</time>
      </trkpt>
      <trkpt lat="42.525164" lon="0.089594">
        <ele>754.3</ele>
        <time>2016-06-08T13:15:09Z</time>
      </trkpt>
      <trkpt lat="42.525523" lon="0.089759">
        <ele>756.7</ele>
        <time>2016-06-08T13:15:22Z</time>
      </trkpt>
      <trkpt lat="42.525846" lon="0.089997">
        <ele>758.6</ele>
        <time>2016-06-08T13:15:34Z</time>
      </trkpt>
      <trkpt lat="42.526200" lon="0.090298">
        <ele>760.5</ele>
        <time>2016-06-08T13:15:46Z</time>
      </trkpt>
      <trkpt lat="42.526452" lon="0.090762">
        <ele>760.5</ele>
        <time>2016-06-08T13:15:58Z</time>
      </trkpt>
      <trkpt lat="42.526450" lon="0.091290">
        <ele>761.0</ele>
        <time>2016-06-08T13:16:07Z</time>
      </trkpt>
      <trkpt lat="42.526761" lon="0.091559">
        <ele>762.0</ele>
        <time>2016-06-08T13:16:19Z</time>
      </trkpt>
      <trkpt lat="42.526790" lon="0.091625">
        <ele>763.4</ele>
        <time>2016-06-08T13:16:23Z</time>
      </trkpt>
      <trkpt lat="42.526864" lon="0.091831">
        <ele>766.8</ele>
        <time>2016-06-08T13:16:35Z</time>
      </trkpt>
      <trkpt lat="42.526915" lon="0.092075">
        <ele>769.2</ele>
        <time>2016-06-08T13:16:47Z</time>
      </trkpt>
      <trkpt lat="42.527008" lon="0.092320">
        <ele>772.1</ele>
        <time>2016-06-08T13:16:59Z</time>
      </trkpt>
      <trkpt lat="42.527120" lon="0.092533">
        <ele>774.0</ele>
        <time>2016-06-08T13:17:13Z</time>
      </trkpt>
      <trkpt lat="42.527196" lon="0.092586">
        <ele>775.9</ele>
        <time>2016-06-08T13:17:25Z</time>
      </trkpt>
      <trkpt lat="42.527295" lon="0.092612">
        <ele>777.8</ele>
        <time>2016-06-08T13:17:37Z</time>
      </trkpt>
      <trkpt lat="42.527409" lon="0.092490">
        <ele>779.3</ele>
        <time>2016-06-08T13:17:48Z</time>
      </trkpt>
      <trkpt lat="42.527566" lon="0.092486">
        <ele>780.3</ele>
        <time>2016-06-08T13:17:59Z</time>
      </trkpt>
      <trkpt lat="42.527659" lon="0.092477">
        <ele>781.2</ele>
        <time>2016-06-08T13:18:04Z</time>
      </trkpt>
      <trkpt lat="42.527696" lon="0.092426">
        <ele>781.7</ele>
        <time>2016-06-08T13:18:11Z</time>
      </trkpt>
      <trkpt lat="42.527820" lon="0.092415">
        <ele>782.2</ele>
        <time>2016-06-08T13:18:19Z</time>
      </trkpt>
      <trkpt lat="42.528298" lon="0.092447">
        <ele>782.2</ele>
        <time>2016-06-08T13:18:32Z</time>
      </trkpt>
      <trkpt lat="42.528345" lon="0.092438">
        <ele>782.2</ele>
        <time>2016-06-08T13:18:33Z</time>
      </trkpt>
      <trkpt lat="42.528390" lon="0.092423">
        <ele>782.2</ele>
        <time>2016-06-08T13:18:34Z</time>
      </trkpt>
      <trkpt lat="42.528449" lon="0.092393">
        <ele>781.2</ele>
        <time>2016-06-08T13:18:35Z</time>
      </trkpt>
      <trkpt lat="42.528510" lon="0.092352">
        <ele>781.2</ele>
        <time>2016-06-08T13:18:36Z</time>
      </trkpt>
      <trkpt lat="42.528768" lon="0.092106">
        <ele>780.3</ele>
        <time>2016-06-08T13:18:40Z</time>
      </trkpt>
      <trkpt lat="42.529337" lon="0.092066">
        <ele>780.3</ele>
        <time>2016-06-08T13:18:52Z</time>
      </trkpt>
      <trkpt lat="42.529467" lon="0.091991">
        <ele>781.7</ele>
        <time>2016-06-08T13:18:56Z</time>
      </trkpt>
      <trkpt lat="42.529637" lon="0.091722">
        <ele>782.7</ele>
        <time>2016-06-08T13:19:08Z</time>
      </trkpt>
      <trkpt lat="42.529865" lon="0.091398">
        <ele>782.7</ele>
        <time>2016-06-08T13:19:19Z</time>
      </trkpt>
      <trkpt lat="42.530029" lon="0.091166">
        <ele>781.2</ele>
        <time>2016-06-08T13:19:28Z</time>
      </trkpt>
      <trkpt lat="42.530069" lon="0.091095">
        <ele>783.1</ele>
        <time>2016-06-08T13:19:32Z</time>
      </trkpt>
      <trkpt lat="42.530048" lon="0.091006">
        <ele>783.6</ele>
        <time>2016-06-08T13:19:36Z</time>
      </trkpt>
      <trkpt lat="42.530009" lon="0.090734">
        <ele>786.0</ele>
        <time>2016-06-08T13:19:49Z</time>
      </trkpt>
      <trkpt lat="42.530059" lon="0.090616">
        <ele>786.5</ele>
        <time>2016-06-08T13:19:56Z</time>
      </trkpt>
      <trkpt lat="42.530109" lon="0.090548">
        <ele>787.5</ele>
        <time>2016-06-08T13:19:59Z</time>
      </trkpt>
      <trkpt lat="42.530205" lon="0.090467">
        <ele>787.9</ele>
        <time>2016-06-08T13:20:03Z</time>
      </trkpt>
      <trkpt lat="42.530279" lon="0.090400">
        <ele>787.9</ele>
        <time>2016-06-08T13:20:07Z</time>
      </trkpt>
      <trkpt lat="42.530312" lon="0.090353">
        <ele>788.4</ele>
        <time>2016-06-08T13:20:10Z</time>
      </trkpt>
      <trkpt lat="42.530376" lon="0.090284">
        <ele>788.9</ele>
        <time>2016-06-08T13:20:14Z</time>
      </trkpt>
      <trkpt lat="42.530483" lon="0.090195">
        <ele>789.4</ele>
        <time>2016-06-08T13:20:19Z</time>
      </trkpt>
      <trkpt lat="42.530763" lon="0.089875">
        <ele>789.9</ele>
        <time>2016-06-08T13:20:33Z</time>
      </trkpt>
      <trkpt lat="42.530850" lon="0.089681">
        <ele>790.8</ele>
        <time>2016-06-08T13:20:42Z</time>
      </trkpt>
      <trkpt lat="42.530924" lon="0.089614">
        <ele>790.8</ele>
        <time>2016-06-08T13:20:45Z</time>
      </trkpt>
      <trkpt lat="42.531146" lon="0.089450">
        <ele>792.3</ele>
        <time>2016-06-08T13:20:53Z</time>
      </trkpt>
      <trkpt lat="42.531474" lon="0.089130">
        <ele>794.7</ele>
        <time>2016-06-08T13:21:07Z</time>
      </trkpt>
      <trkpt lat="42.531750" lon="0.088817">
        <ele>796.6</ele>
        <time>2016-06-08T13:21:18Z</time>
      </trkpt>
      <trkpt lat="42.531866" lon="0.088713">
        <ele>796.6</ele>
        <time>2016-06-08T13:21:22Z</time>
      </trkpt>
      <trkpt lat="42.531890" lon="0.088555">
        <ele>797.6</ele>
        <time>2016-06-08T13:21:27Z</time>
      </trkpt>
      <trkpt lat="42.532122" lon="0.088004">
        <ele>799.0</ele>
        <time>2016-06-08T13:21:44Z</time>
      </trkpt>
      <trkpt lat="42.532218" lon="0.087631">
        <ele>799.0</ele>
        <time>2016-06-08T13:21:55Z</time>
      </trkpt>
      <trkpt lat="42.532188" lon="0.087485">
        <ele>798.0</ele>
        <time>2016-06-08T13:22:00Z</time>
      </trkpt>
      <trkpt lat="42.532152" lon="0.087382">
        <ele>796.6</ele>
        <time>2016-06-08T13:22:05Z</time>
      </trkpt>
      <trkpt lat="42.532268" lon="0.087270">
        <ele>795.6</ele>
        <time>2016-06-08T13:22:07Z</time>
      </trkpt>
      <trkpt lat="42.532353" lon="0.087173">
        <ele>795.6</ele>
        <time>2016-06-08T13:22:08Z</time>
      </trkpt>
      <trkpt lat="42.532724" lon="0.086670">
        <ele>792.3</ele>
        <time>2016-06-08T13:22:12Z</time>
      </trkpt>
      <trkpt lat="42.532766" lon="0.086611">
        <ele>796.6</ele>
        <time>2016-06-08T13:24:53Z</time>
      </trkpt>
      <trkpt lat="42.532814" lon="0.086455">
        <ele>798.0</ele>
        <time>2016-06-08T13:25:04Z</time>
      </trkpt>
      <trkpt lat="42.532864" lon="0.086144">
        <ele>799.5</ele>
        <time>2016-06-08T13:25:16Z</time>
      </trkpt>
      <trkpt lat="42.532969" lon="0.085709">
        <ele>801.9</ele>
        <time>2016-06-08T13:25:30Z</time>
      </trkpt>
      <trkpt lat="42.533082" lon="0.085096">
        <ele>803.8</ele>
        <time>2016-06-08T13:25:46Z</time>
      </trkpt>
      <trkpt lat="42.533135" lon="0.084838">
        <ele>804.8</ele>
        <time>2016-06-08T13:25:57Z</time>
      </trkpt>
      <trkpt lat="42.533199" lon="0.084708">
        <ele>805.2</ele>
        <time>2016-06-08T13:26:03Z</time>
      </trkpt>
      <trkpt lat="42.533195" lon="0.084480">
        <ele>806.7</ele>
        <time>2016-06-08T13:26:13Z</time>
      </trkpt>
      <trkpt lat="42.533139" lon="0.084305">
        <ele>808.1</ele>
        <time>2016-06-08T13:26:26Z</time>
      </trkpt>
      <trkpt lat="42.533163" lon="0.084172">
        <ele>809.1</ele>
        <time>2016-06-08T13:26:33Z</time>
      </trkpt>
      <trkpt lat="42.533171" lon="0.084089">
        <ele>810.1</ele>
        <time>2016-06-08T13:26:42Z</time>
      </trkpt>
      <trkpt lat="42.533154" lon="0.083931">
        <ele>810.1</ele>
        <time>2016-06-08T13:26:51Z</time>
      </trkpt>
      <trkpt lat="42.533198" lon="0.083279">
        <ele>810.5</ele>
        <time>2016-06-08T13:27:06Z</time>
      </trkpt>
      <trkpt lat="42.533446" lon="0.083004">
        <ele>809.6</ele>
        <time>2016-06-08T13:27:18Z</time>
      </trkpt>
      <trkpt lat="42.533827" lon="0.083051">
        <ele>812.9</ele>
        <time>2016-06-08T13:27:32Z</time>
      </trkpt>
      <trkpt lat="42.534368" lon="0.083038">
        <ele>815.3</ele>
        <time>2016-06-08T13:27:48Z</time>
      </trkpt>
      <trkpt lat="42.534601" lon="0.082943">
        <ele>818.2</ele>
        <time>2016-06-08T13:28:05Z</time>
      </trkpt>
      <trkpt lat="42.534711" lon="0.082902">
        <ele>819.7</ele>
        <time>2016-06-08T13:28:13Z</time>
      </trkpt>
      <trkpt lat="42.534792" lon="0.082864">
        <ele>820.6</ele>
        <time>2016-06-08T13:28:17Z</time>
      </trkpt>
      <trkpt lat="42.534858" lon="0.082817">
        <ele>820.6</ele>
        <time>2016-06-08T13:28:21Z</time>
      </trkpt>
      <trkpt lat="42.534972" lon="0.082734">
        <ele>822.1</ele>
        <time>2016-06-08T13:28:25Z</time>
      </trkpt>
      <trkpt lat="42.535190" lon="0.082505">
        <ele>825.0</ele>
        <time>2016-06-08T13:28:41Z</time>
      </trkpt>
      <trkpt lat="42.535293" lon="0.082314">
        <ele>826.9</ele>
        <time>2016-06-08T13:28:56Z</time>
      </trkpt>
      <trkpt lat="42.535322" lon="0.082251">
        <ele>827.8</ele>
        <time>2016-06-08T13:29:03Z</time>
      </trkpt>
      <trkpt lat="42.535282" lon="0.082066">
        <ele>830.2</ele>
        <time>2016-06-08T13:29:17Z</time>
      </trkpt>
      <trkpt lat="42.535528" lon="0.081730">
        <ele>832.2</ele>
        <time>2016-06-08T13:29:33Z</time>
      </trkpt>
      <trkpt lat="42.535668" lon="0.081446">
        <ele>830.7</ele>
        <time>2016-06-08T13:29:41Z</time>
      </trkpt>
      <trkpt lat="42.535750" lon="0.081351">
        <ele>828.3</ele>
        <time>2016-06-08T13:29:45Z</time>
      </trkpt>
      <trkpt lat="42.535807" lon="0.081287">
        <ele>826.4</ele>
        <time>2016-06-08T13:29:47Z</time>
      </trkpt>
      <trkpt lat="42.536000" lon="0.080961">
        <ele>823.5</ele>
        <time>2016-06-08T13:29:52Z</time>
      </trkpt>
      <trkpt lat="42.536177" lon="0.080839">
        <ele>823.0</ele>
        <time>2016-06-08T13:29:56Z</time>
      </trkpt>
      <trkpt lat="42.536455" lon="0.080814">
        <ele>823.0</ele>
        <time>2016-06-08T13:30:01Z</time>
      </trkpt>
      <trkpt lat="42.536658" lon="0.080941">
        <ele>825.0</ele>
        <time>2016-06-08T13:30:13Z</time>
      </trkpt>
      <trkpt lat="42.536840" lon="0.080903">
        <ele>826.9</ele>
        <time>2016-06-08T13:30:29Z</time>
      </trkpt>
      <trkpt lat="42.537152" lon="0.080815">
        <ele>829.8</ele>
        <time>2016-06-08T13:30:42Z</time>
      </trkpt>
      <trkpt lat="42.537688" lon="0.080440">
        <ele>831.7</ele>
        <time>2016-06-08T13:30:59Z</time>
      </trkpt>
      <trkpt lat="42.537836" lon="0.080340">
        <ele>832.6</ele>
        <time>2016-06-08T13:31:05Z</time>
      </trkpt>
      <trkpt lat="42.538071" lon="0.080237">
        <ele>833.1</ele>
        <time>2016-06-08T13:31:18Z</time>
      </trkpt>
      <trkpt lat="42.538216" lon="0.080297">
        <ele>833.6</ele>
        <time>2016-06-08T13:31:28Z</time>
      </trkpt>
      <trkpt lat="42.538531" lon="0.080529">
        <ele>834.1</ele>
        <time>2016-06-08T13:31:42Z</time>
      </trkpt>
      <trkpt lat="42.538843" lon="0.080591">
        <ele>834.6</ele>
        <time>2016-06-08T13:31:56Z</time>
      </trkpt>
      <trkpt lat="42.539001" lon="0.080691">
        <ele>835.0</ele>
        <time>2016-06-08T13:32:04Z</time>
      </trkpt>
      <trkpt lat="42.539300" lon="0.080683">
        <ele>835.5</ele>
        <time>2016-06-08T13:32:20Z</time>
      </trkpt>
      <trkpt lat="42.539515" lon="0.080669">
        <ele>837.0</ele>
        <time>2016-06-08T13:32:33Z</time>
      </trkpt>
      <trkpt lat="42.539596" lon="0.080726">
        <ele>837.5</ele>
        <time>2016-06-08T13:32:40Z</time>
      </trkpt>
      <trkpt lat="42.539728" lon="0.080864">
        <ele>837.9</ele>
        <time>2016-06-08T13:32:49Z</time>
      </trkpt>
      <trkpt lat="42.540334" lon="0.081209">
        <ele>839.4</ele>
        <time>2016-06-08T13:33:05Z</time>
      </trkpt>
      <trkpt lat="42.540373" lon="0.081269">
        <ele>839.4</ele>
        <time>2016-06-08T13:33:07Z</time>
      </trkpt>
      <trkpt lat="42.540608" lon="0.081205">
        <ele>840.3</ele>
        <time>2016-06-08T13:33:20Z</time>
      </trkpt>
      <trkpt lat="42.540836" lon="0.080649">
        <ele>842.3</ele>
        <time>2016-06-08T13:33:35Z</time>
      </trkpt>
      <trkpt lat="42.540911" lon="0.080530">
        <ele>842.3</ele>
        <time>2016-06-08T13:33:38Z</time>
      </trkpt>
      <trkpt lat="42.540960" lon="0.080495">
        <ele>842.7</ele>
        <time>2016-06-08T13:33:40Z</time>
      </trkpt>
      <trkpt lat="42.541328" lon="0.080301">
        <ele>844.2</ele>
        <time>2016-06-08T13:33:55Z</time>
      </trkpt>
      <trkpt lat="42.541612" lon="0.080212">
        <ele>845.6</ele>
        <time>2016-06-08T13:34:09Z</time>
      </trkpt>
      <trkpt lat="42.541899" lon="0.080163">
        <ele>847.5</ele>
        <time>2016-06-08T13:34:25Z</time>
      </trkpt>
      <trkpt lat="42.542108" lon="0.080137">
        <ele>849.0</ele>
        <time>2016-06-08T13:34:38Z</time>
      </trkpt>
      <trkpt lat="42.542394" lon="0.080196">
        <ele>850.9</ele>
        <time>2016-06-08T13:34:51Z</time>
      </trkpt>
      <trkpt lat="42.542567" lon="0.080233">
        <ele>851.4</ele>
        <time>2016-06-08T13:35:00Z</time>
      </trkpt>
      <trkpt lat="42.542830" lon="0.079813">
        <ele>851.9</ele>
        <time>2016-06-08T13:35:23Z</time>
      </trkpt>
      <trkpt lat="42.542902" lon="0.079728">
        <ele>852.4</ele>
        <time>2016-06-08T13:35:26Z</time>
      </trkpt>
      <trkpt lat="42.543126" lon="0.080021">
        <ele>852.8</ele>
        <time>2016-06-08T13:35:31Z</time>
      </trkpt>
      <trkpt lat="42.543545" lon="0.080216">
        <ele>853.3</ele>
        <time>2016-06-08T13:35:45Z</time>
      </trkpt>
      <trkpt lat="42.543625" lon="0.080207">
        <ele>853.3</ele>
        <time>2016-06-08T13:35:48Z</time>
      </trkpt>
      <trkpt lat="42.544005" lon="0.079782">
        <ele>853.8</ele>
        <time>2016-06-08T13:36:04Z</time>
      </trkpt>
      <trkpt lat="42.544348" lon="0.079578">
        <ele>854.3</ele>
        <time>2016-06-08T13:36:16Z</time>
      </trkpt>
      <trkpt lat="42.544736" lon="0.079489">
        <ele>855.2</ele>
        <time>2016-06-08T13:36:29Z</time>
      </trkpt>
      <trkpt lat="42.545094" lon="0.079259">
        <ele>856.2</ele>
        <time>2016-06-08T13:36:44Z</time>
      </trkpt>
      <trkpt lat="42.545551" lon="0.079152">
        <ele>857.2</ele>
        <time>2016-06-08T13:37:00Z</time>
      </trkpt>
      <trkpt lat="42.545613" lon="0.079146">
        <ele>857.2</ele>
        <time>2016-06-08T13:37:02Z</time>
      </trkpt>
      <trkpt lat="42.545881" lon="0.078820">
        <ele>858.6</ele>
        <time>2016-06-08T13:37:18Z</time>
      </trkpt>
      <trkpt lat="42.546092" lon="0.078357">
        <ele>860.0</ele>
        <time>2016-06-08T13:37:36Z</time>
      </trkpt>
      <trkpt lat="42.546082" lon="0.078052">
        <ele>861.0</ele>
        <time>2016-06-08T13:37:47Z</time>
      </trkpt>
      <trkpt lat="42.546028" lon="0.077723">
        <ele>862.0</ele>
        <time>2016-06-08T13:37:58Z</time>
      </trkpt>
      <trkpt lat="42.545910" lon="0.077606">
        <ele>862.0</ele>
        <time>2016-06-08T13:38:08Z</time>
      </trkpt>
      <trkpt lat="42.545808" lon="0.077581">
        <ele>862.4</ele>
        <time>2016-06-08T13:38:18Z</time>
      </trkpt>
      <trkpt lat="42.545722" lon="0.077575">
        <ele>862.4</ele>
        <time>2016-06-08T13:38:32Z</time>
      </trkpt>
      <trkpt lat="42.545677" lon="0.077582">
        <ele>862.4</ele>
        <time>2016-06-08T13:38:48Z</time>
      </trkpt>
      <trkpt lat="42.545603" lon="0.077596">
        <ele>862.4</ele>
        <time>2016-06-08T13:39:13Z</time>
      </trkpt>
      <trkpt lat="42.545358" lon="0.077612">
        <ele>862.4</ele>
        <time>2016-06-08T13:39:25Z</time>
      </trkpt>
      <trkpt lat="42.545244" lon="0.077362">
        <ele>870.1</ele>
        <time>2016-06-08T13:52:48Z</time>
      </trkpt>
      <trkpt lat="42.545254" lon="0.077059">
        <ele>871.1</ele>
        <time>2016-06-08T13:53:03Z</time>
      </trkpt>
      <trkpt lat="42.545500" lon="0.076887">
        <ele>872.5</ele>
        <time>2016-06-08T13:53:20Z</time>
      </trkpt>
      <trkpt lat="42.545688" lon="0.076883">
        <ele>872.5</ele>
        <time>2016-06-08T13:53:24Z</time>
      </trkpt>
      <trkpt lat="42.545769" lon="0.076820">
        <ele>873.5</ele>
        <time>2016-06-08T13:53:31Z</time>
      </trkpt>
      <trkpt lat="42.546094" lon="0.076551">
        <ele>874.9</ele>
        <time>2016-06-08T13:53:46Z</time>
      </trkpt>
      <trkpt lat="42.546402" lon="0.076464">
        <ele>875.4</ele>
        <time>2016-06-08T13:53:53Z</time>
      </trkpt>
      <trkpt lat="42.546900" lon="0.076485">
        <ele>876.9</ele>
        <time>2016-06-08T13:54:07Z</time>
      </trkpt>
      <trkpt lat="42.547099" lon="0.076625">
        <ele>877.8</ele>
        <time>2016-06-08T13:54:19Z</time>
      </trkpt>
      <trkpt lat="42.547273" lon="0.076770">
        <ele>878.8</ele>
        <time>2016-06-08T13:54:30Z</time>
      </trkpt>
      <trkpt lat="42.547559" lon="0.077018">
        <ele>880.2</ele>
        <time>2016-06-08T13:54:45Z</time>
      </trkpt>
      <trkpt lat="42.547794" lon="0.076987">
        <ele>881.2</ele>
        <time>2016-06-08T13:54:58Z</time>
      </trkpt>
      <trkpt lat="42.547912" lon="0.077020">
        <ele>881.7</ele>
        <time>2016-06-08T13:55:05Z</time>
      </trkpt>
      <trkpt lat="42.548079" lon="0.076394">
        <ele>884.6</ele>
        <time>2016-06-08T13:55:42Z</time>
      </trkpt>
      <trkpt lat="42.548590" lon="0.075157">
        <ele>884.6</ele>
        <time>2016-06-08T13:55:47Z</time>
      </trkpt>
      <trkpt lat="42.548955" lon="0.074230">
        <ele>886.5</ele>
        <time>2016-06-08T13:56:14Z</time>
      </trkpt>
      <trkpt lat="42.549144" lon="0.074013">
        <ele>894.2</ele>
        <time>2016-06-08T13:57:37Z</time>
      </trkpt>
      <trkpt lat="42.549421" lon="0.073932">
        <ele>895.6</ele>
        <time>2016-06-08T13:57:52Z</time>
      </trkpt>
      <trkpt lat="42.549600" lon="0.073930">
        <ele>897.1</ele>
        <time>2016-06-08T13:58:04Z</time>
      </trkpt>
      <trkpt lat="42.549777" lon="0.073522">
        <ele>898.0</ele>
        <time>2016-06-08T13:58:19Z</time>
      </trkpt>
      <trkpt lat="42.549826" lon="0.073278">
        <ele>898.5</ele>
        <time>2016-06-08T13:58:28Z</time>
      </trkpt>
      <trkpt lat="42.549790" lon="0.073180">
        <ele>899.0</ele>
        <time>2016-06-08T13:58:33Z</time>
      </trkpt>
      <trkpt lat="42.549792" lon="0.073082">
        <ele>899.0</ele>
        <time>2016-06-08T13:58:36Z</time>
      </trkpt>
      <trkpt lat="42.549769" lon="0.072834">
        <ele>899.9</ele>
        <time>2016-06-08T13:58:47Z</time>
      </trkpt>
      <trkpt lat="42.549787" lon="0.072460">
        <ele>901.4</ele>
        <time>2016-06-08T13:59:03Z</time>
      </trkpt>
      <trkpt lat="42.550196" lon="0.071933">
        <ele>901.9</ele>
        <time>2016-06-08T13:59:10Z</time>
      </trkpt>
      <trkpt lat="42.550272" lon="0.071666">
        <ele>902.8</ele>
        <time>2016-06-08T13:59:27Z</time>
      </trkpt>
      <trkpt lat="42.550289" lon="0.071583">
        <ele>903.3</ele>
        <time>2016-06-08T13:59:31Z</time>
      </trkpt>
      <trkpt lat="42.550322" lon="0.071445">
        <ele>903.3</ele>
        <time>2016-06-08T13:59:38Z</time>
      </trkpt>
      <trkpt lat="42.550416" lon="0.071080">
        <ele>904.7</ele>
        <time>2016-06-08T13:59:55Z</time>
      </trkpt>
      <trkpt lat="42.550497" lon="0.070822">
        <ele>904.7</ele>
        <time>2016-06-08T14:00:07Z</time>
      </trkpt>
      <trkpt lat="42.550574" lon="0.070540">
        <ele>905.7</ele>
        <time>2016-06-08T14:00:20Z</time>
      </trkpt>
      <trkpt lat="42.550575" lon="0.070187">
        <ele>906.2</ele>
        <time>2016-06-08T14:00:35Z</time>
      </trkpt>
      <trkpt lat="42.550584" lon="0.069881">
        <ele>907.1</ele>
        <time>2016-06-08T14:00:49Z</time>
      </trkpt>
      <trkpt lat="42.550613" lon="0.069739">
        <ele>907.1</ele>
        <time>2016-06-08T14:00:56Z</time>
      </trkpt>
      <trkpt lat="42.550686" lon="0.069517">
        <ele>907.6</ele>
        <time>2016-06-08T14:01:05Z</time>
      </trkpt>
      <trkpt lat="42.550715" lon="0.069404">
        <ele>907.6</ele>
        <time>2016-06-08T14:01:10Z</time>
      </trkpt>
      <trkpt lat="42.550740" lon="0.069274">
        <ele>908.1</ele>
        <time>2016-06-08T14:01:16Z</time>
      </trkpt>
      <trkpt lat="42.550763" lon="0.069124">
        <ele>909.1</ele>
        <time>2016-06-08T14:01:23Z</time>
      </trkpt>
      <trkpt lat="42.550774" lon="0.068750">
        <ele>910.0</ele>
        <time>2016-06-08T14:01:40Z</time>
      </trkpt>
      <trkpt lat="42.550764" lon="0.068635">
        <ele>910.5</ele>
        <time>2016-06-08T14:01:45Z</time>
      </trkpt>
      <trkpt lat="42.550818" lon="0.068230">
        <ele>911.5</ele>
        <time>2016-06-08T14:02:01Z</time>
      </trkpt>
      <trkpt lat="42.550836" lon="0.068099">
        <ele>911.0</ele>
        <time>2016-06-08T14:02:06Z</time>
      </trkpt>
      <trkpt lat="42.551069" lon="0.067785">
        <ele>912.0</ele>
        <time>2016-06-08T14:02:20Z</time>
      </trkpt>
      <trkpt lat="42.551306" lon="0.067440">
        <ele>912.9</ele>
        <time>2016-06-08T14:02:35Z</time>
      </trkpt>
      <trkpt lat="42.551661" lon="0.067230">
        <ele>913.4</ele>
        <time>2016-06-08T14:02:49Z</time>
      </trkpt>
      <trkpt lat="42.552061" lon="0.066861">
        <ele>913.4</ele>
        <time>2016-06-08T14:03:06Z</time>
      </trkpt>
      <trkpt lat="42.552459" lon="0.066672">
        <ele>912.0</ele>
        <time>2016-06-08T14:03:18Z</time>
      </trkpt>
      <trkpt lat="42.552625" lon="0.066564">
        <ele>912.0</ele>
        <time>2016-06-08T14:03:23Z</time>
      </trkpt>
      <trkpt lat="42.552984" lon="0.066404">
        <ele>911.5</ele>
        <time>2016-06-08T14:03:35Z</time>
      </trkpt>
      <trkpt lat="42.553052" lon="0.066365">
        <ele>912.4</ele>
        <time>2016-06-08T14:03:39Z</time>
      </trkpt>
      <trkpt lat="42.553294" lon="0.066096">
        <ele>914.4</ele>
        <time>2016-06-08T14:03:55Z</time>
      </trkpt>
      <trkpt lat="42.553286" lon="0.065665">
        <ele>916.3</ele>
        <time>2016-06-08T14:04:13Z</time>
      </trkpt>
      <trkpt lat="42.553215" lon="0.065368">
        <ele>917.2</ele>
        <time>2016-06-08T14:04:26Z</time>
      </trkpt>
      <trkpt lat="42.553205" lon="0.065236">
        <ele>917.7</ele>
        <time>2016-06-08T14:04:33Z</time>
      </trkpt>
      <trkpt lat="42.553286" lon="0.064887">
        <ele>919.2</ele>
        <time>2016-06-08T14:04:51Z</time>
      </trkpt>
      <trkpt lat="42.553435" lon="0.064682">
        <ele>920.6</ele>
        <time>2016-06-08T14:05:05Z</time>
      </trkpt>
      <trkpt lat="42.553481" lon="0.064621">
        <ele>921.6</ele>
        <time>2016-06-08T14:05:09Z</time>
      </trkpt>
      <trkpt lat="42.553702" lon="0.064306">
        <ele>922.0</ele>
        <time>2016-06-08T14:05:29Z</time>
      </trkpt>
      <trkpt lat="42.553766" lon="0.064194">
        <ele>923.0</ele>
        <time>2016-06-08T14:05:37Z</time>
      </trkpt>
      <trkpt lat="42.553956" lon="0.063922">
        <ele>924.9</ele>
        <time>2016-06-08T14:05:55Z</time>
      </trkpt>
      <trkpt lat="42.554068" lon="0.063653">
        <ele>925.4</ele>
        <time>2016-06-08T14:06:09Z</time>
      </trkpt>
      <trkpt lat="42.554095" lon="0.063572">
        <ele>925.9</ele>
        <time>2016-06-08T14:06:13Z</time>
      </trkpt>
      <trkpt lat="42.554137" lon="0.063403">
        <ele>926.9</ele>
        <time>2016-06-08T14:06:23Z</time>
      </trkpt>
      <trkpt lat="42.554332" lon="0.063128">
        <ele>928.3</ele>
        <time>2016-06-08T14:06:39Z</time>
      </trkpt>
      <trkpt lat="42.554348" lon="0.062808">
        <ele>929.7</ele>
        <time>2016-06-08T14:06:55Z</time>
      </trkpt>
      <trkpt lat="42.554269" lon="0.062549">
        <ele>931.2</ele>
        <time>2016-06-08T14:07:10Z</time>
      </trkpt>
      <trkpt lat="42.554244" lon="0.062321">
        <ele>933.6</ele>
        <time>2016-06-08T14:07:22Z</time>
      </trkpt>
      <trkpt lat="42.554261" lon="0.061988">
        <ele>935.5</ele>
        <time>2016-06-08T14:07:39Z</time>
      </trkpt>
      <trkpt lat="42.554201" lon="0.061724">
        <ele>936.9</ele>
        <time>2016-06-08T14:07:54Z</time>
      </trkpt>
      <trkpt lat="42.554166" lon="0.061577">
        <ele>937.9</ele>
        <time>2016-06-08T14:08:02Z</time>
      </trkpt>
      <trkpt lat="42.554146" lon="0.061376">
        <ele>939.4</ele>
        <time>2016-06-08T14:08:11Z</time>
      </trkpt>
      <trkpt lat="42.554164" lon="0.061211">
        <ele>939.8</ele>
        <time>2016-06-08T14:08:19Z</time>
      </trkpt>
      <trkpt lat="42.554183" lon="0.061127">
        <ele>940.8</ele>
        <time>2016-06-08T14:08:24Z</time>
      </trkpt>
      <trkpt lat="42.554299" lon="0.060939">
        <ele>942.7</ele>
        <time>2016-06-08T14:08:41Z</time>
      </trkpt>
      <trkpt lat="42.554486" lon="0.060947">
        <ele>945.1</ele>
        <time>2016-06-08T14:08:58Z</time>
      </trkpt>
      <trkpt lat="42.554683" lon="0.060821">
        <ele>948.5</ele>
        <time>2016-06-08T14:09:22Z</time>
      </trkpt>
      <trkpt lat="42.554593" lon="0.059965">
        <ele>949.0</ele>
        <time>2016-06-08T14:10:00Z</time>
      </trkpt>
      <trkpt lat="42.554573" lon="0.059617">
        <ele>950.4</ele>
        <time>2016-06-08T14:10:30Z</time>
      </trkpt>
      <trkpt lat="42.554532" lon="0.059332">
        <ele>951.8</ele>
        <time>2016-06-08T14:10:45Z</time>
      </trkpt>
      <trkpt lat="42.554506" lon="0.059193">
        <ele>953.3</ele>
        <time>2016-06-08T14:10:53Z</time>
      </trkpt>
      <trkpt lat="42.554536" lon="0.058864">
        <ele>954.7</ele>
        <time>2016-06-08T14:11:10Z</time>
      </trkpt>
      <trkpt lat="42.554620" lon="0.058484">
        <ele>957.6</ele>
        <time>2016-06-08T14:11:30Z</time>
      </trkpt>
      <trkpt lat="42.554780" lon="0.058210">
        <ele>959.5</ele>
        <time>2016-06-08T14:11:47Z</time>
      </trkpt>
      <trkpt lat="42.554925" lon="0.057959">
        <ele>961.0</ele>
        <time>2016-06-08T14:12:02Z</time>
      </trkpt>
      <trkpt lat="42.555142" lon="0.057721">
        <ele>961.5</ele>
        <time>2016-06-08T14:12:19Z</time>
      </trkpt>
      <trkpt lat="42.555315" lon="0.057481">
        <ele>961.0</ele>
        <time>2016-06-08T14:12:31Z</time>
      </trkpt>
      <trkpt lat="42.555350" lon="0.057267">
        <ele>959.5</ele>
        <time>2016-06-08T14:12:36Z</time>
      </trkpt>
      <trkpt lat="42.555440" lon="0.056910">
        <ele>958.6</ele>
        <time>2016-06-08T14:12:43Z</time>
      </trkpt>
      <trkpt lat="42.555410" lon="0.056571">
        <ele>958.1</ele>
        <time>2016-06-08T14:12:49Z</time>
      </trkpt>
      <trkpt lat="42.555389" lon="0.056334">
        <ele>958.1</ele>
        <time>2016-06-08T14:12:55Z</time>
      </trkpt>
      <trkpt lat="42.555596" lon="0.056356">
        <ele>958.1</ele>
        <time>2016-06-08T14:13:06Z</time>
      </trkpt>
      <trkpt lat="42.555662" lon="0.056357">
        <ele>959.1</ele>
        <time>2016-06-08T14:13:10Z</time>
      </trkpt>
      <trkpt lat="42.555772" lon="0.056326">
        <ele>959.5</ele>
        <time>2016-06-08T14:13:17Z</time>
      </trkpt>
      <trkpt lat="42.555966" lon="0.056010">
        <ele>960.5</ele>
        <time>2016-06-08T14:13:36Z</time>
      </trkpt>
      <trkpt lat="42.556112" lon="0.055692">
        <ele>962.4</ele>
        <time>2016-06-08T14:13:54Z</time>
      </trkpt>
      <trkpt lat="42.556258" lon="0.055349">
        <ele>963.9</ele>
        <time>2016-06-08T14:14:13Z</time>
      </trkpt>
      <trkpt lat="42.556419" lon="0.055096">
        <ele>965.8</ele>
        <time>2016-06-08T14:14:29Z</time>
      </trkpt>
      <trkpt lat="42.556592" lon="0.054915">
        <ele>966.7</ele>
        <time>2016-06-08T14:14:43Z</time>
      </trkpt>
      <trkpt lat="42.556791" lon="0.054755">
        <ele>968.7</ele>
        <time>2016-06-08T14:14:59Z</time>
      </trkpt>
      <trkpt lat="42.557006" lon="0.054597">
        <ele>969.6</ele>
        <time>2016-06-08T14:15:15Z</time>
      </trkpt>
      <trkpt lat="42.557219" lon="0.054467">
        <ele>971.6</ele>
        <time>2016-06-08T14:15:31Z</time>
      </trkpt>
      <trkpt lat="42.557426" lon="0.054430">
        <ele>973.0</ele>
        <time>2016-06-08T14:15:46Z</time>
      </trkpt>
      <trkpt lat="42.557672" lon="0.054521">
        <ele>975.4</ele>
        <time>2016-06-08T14:16:03Z</time>
      </trkpt>
      <trkpt lat="42.557937" lon="0.054665">
        <ele>976.8</ele>
        <time>2016-06-08T14:16:21Z</time>
      </trkpt>
      <trkpt lat="42.558147" lon="0.054502">
        <ele>976.8</ele>
        <time>2016-06-08T14:16:36Z</time>
      </trkpt>
      <trkpt lat="42.558021" lon="0.054140">
        <ele>977.3</ele>
        <time>2016-06-08T14:16:49Z</time>
      </trkpt>
      <trkpt lat="42.557905" lon="0.053806">
        <ele>977.3</ele>
        <time>2016-06-08T14:17:03Z</time>
      </trkpt>
      <trkpt lat="42.557873" lon="0.053362">
        <ele>977.8</ele>
        <time>2016-06-08T14:17:18Z</time>
      </trkpt>
      <trkpt lat="42.557809" lon="0.052981">
        <ele>978.3</ele>
        <time>2016-06-08T14:17:33Z</time>
      </trkpt>
      <trkpt lat="42.557820" lon="0.052618">
        <ele>979.2</ele>
        <time>2016-06-08T14:17:47Z</time>
      </trkpt>
      <trkpt lat="42.557871" lon="0.052302">
        <ele>980.7</ele>
        <time>2016-06-08T14:18:01Z</time>
      </trkpt>
      <trkpt lat="42.557862" lon="0.052002">
        <ele>981.2</ele>
        <time>2016-06-08T14:18:14Z</time>
      </trkpt>
      <trkpt lat="42.557911" lon="0.051679">
        <ele>982.6</ele>
        <time>2016-06-08T14:18:28Z</time>
      </trkpt>
      <trkpt lat="42.558070" lon="0.051373">
        <ele>983.1</ele>
        <time>2016-06-08T14:18:44Z</time>
      </trkpt>
      <trkpt lat="42.558306" lon="0.051203">
        <ele>984.5</ele>
        <time>2016-06-08T14:19:00Z</time>
      </trkpt>
      <trkpt lat="42.558529" lon="0.050978">
        <ele>986.0</ele>
        <time>2016-06-08T14:19:15Z</time>
      </trkpt>
      <trkpt lat="42.558699" lon="0.050699">
        <ele>986.5</ele>
        <time>2016-06-08T14:19:30Z</time>
      </trkpt>
      <trkpt lat="42.558774" lon="0.050576">
        <ele>986.5</ele>
        <time>2016-06-08T14:19:37Z</time>
      </trkpt>
      <trkpt lat="42.558778" lon="0.050488">
        <ele>987.4</ele>
        <time>2016-06-08T14:19:41Z</time>
      </trkpt>
      <trkpt lat="42.558670" lon="0.050528">
        <ele>988.4</ele>
        <time>2016-06-08T14:19:53Z</time>
      </trkpt>
      <trkpt lat="42.558651" lon="0.050588">
        <ele>982.6</ele>
        <time>2016-06-08T14:26:13Z</time>
      </trkpt>
      <trkpt lat="42.558542" lon="0.050774">
        <ele>984.1</ele>
        <time>2016-06-08T14:26:32Z</time>
      </trkpt>
      <trkpt lat="42.558486" lon="0.050839">
        <ele>984.1</ele>
        <time>2016-06-08T14:26:38Z</time>
      </trkpt>
      <trkpt lat="42.558283" lon="0.050997">
        <ele>985.5</ele>
        <time>2016-06-08T14:26:54Z</time>
      </trkpt>
      <trkpt lat="42.558017" lon="0.051132">
        <ele>987.4</ele>
        <time>2016-06-08T14:27:14Z</time>
      </trkpt>
      <trkpt lat="42.557798" lon="0.051314">
        <ele>988.9</ele>
        <time>2016-06-08T14:27:32Z</time>
      </trkpt>
      <trkpt lat="42.557668" lon="0.051628">
        <ele>991.3</ele>
        <time>2016-06-08T14:27:52Z</time>
      </trkpt>
      <trkpt lat="42.557631" lon="0.051826">
        <ele>991.7</ele>
        <time>2016-06-08T14:28:05Z</time>
      </trkpt>
      <trkpt lat="42.557608" lon="0.051972">
        <ele>992.7</ele>
        <time>2016-06-08T14:28:13Z</time>
      </trkpt>
      <trkpt lat="42.557594" lon="0.052045">
        <ele>993.2</ele>
        <time>2016-06-08T14:28:16Z</time>
      </trkpt>
      <trkpt lat="42.557579" lon="0.052121">
        <ele>993.2</ele>
        <time>2016-06-08T14:28:20Z</time>
      </trkpt>
      <trkpt lat="42.557491" lon="0.052392">
        <ele>994.6</ele>
        <time>2016-06-08T14:28:36Z</time>
      </trkpt>
      <trkpt lat="42.557449" lon="0.052618">
        <ele>995.6</ele>
        <time>2016-06-08T14:28:50Z</time>
      </trkpt>
      <trkpt lat="42.557415" lon="0.052682">
        <ele>996.1</ele>
        <time>2016-06-08T14:28:55Z</time>
      </trkpt>
      <trkpt lat="42.557401" lon="0.052788">
        <ele>996.5</ele>
        <time>2016-06-08T14:29:00Z</time>
      </trkpt>
      <trkpt lat="42.557375" lon="0.053187">
        <ele>997.5</ele>
        <time>2016-06-08T14:29:17Z</time>
      </trkpt>
      <trkpt lat="42.557314" lon="0.053454">
        <ele>998.5</ele>
        <time>2016-06-08T14:29:31Z</time>
      </trkpt>
      <trkpt lat="42.557151" lon="0.053410">
        <ele>1000.4</ele>
        <time>2016-06-08T14:29:46Z</time>
      </trkpt>
      <trkpt lat="42.557187" lon="0.053287">
        <ele>1001.4</ele>
        <time>2016-06-08T14:29:54Z</time>
      </trkpt>
      <trkpt lat="42.557217" lon="0.053234">
        <ele>1001.8</ele>
        <time>2016-06-08T14:29:58Z</time>
      </trkpt>
      <trkpt lat="42.557262" lon="0.052968">
        <ele>1003.8</ele>
        <time>2016-06-08T14:30:14Z</time>
      </trkpt>
      <trkpt lat="42.557250" lon="0.052631">
        <ele>1006.2</ele>
        <time>2016-06-08T14:30:33Z</time>
      </trkpt>
      <trkpt lat="42.557236" lon="0.052521">
        <ele>1006.6</ele>
        <time>2016-06-08T14:30:39Z</time>
      </trkpt>
      <trkpt lat="42.557270" lon="0.052361">
        <ele>1008.1</ele>
        <time>2016-06-08T14:30:51Z</time>
      </trkpt>
      <trkpt lat="42.557307" lon="0.052199">
        <ele>1008.6</ele>
        <time>2016-06-08T14:31:00Z</time>
      </trkpt>
      <trkpt lat="42.557335" lon="0.052016">
        <ele>1010.0</ele>
        <time>2016-06-08T14:31:08Z</time>
      </trkpt>
      <trkpt lat="42.557331" lon="0.051850">
        <ele>1010.0</ele>
        <time>2016-06-08T14:31:15Z</time>
      </trkpt>
      <trkpt lat="42.557293" lon="0.051551">
        <ele>1010.5</ele>
        <time>2016-06-08T14:31:29Z</time>
      </trkpt>
      <trkpt lat="42.557390" lon="0.051235">
        <ele>1011.9</ele>
        <time>2016-06-08T14:31:48Z</time>
      </trkpt>
      <trkpt lat="42.557447" lon="0.050973">
        <ele>1012.9</ele>
        <time>2016-06-08T14:32:01Z</time>
      </trkpt>
      <trkpt lat="42.557622" lon="0.050719">
        <ele>1014.3</ele>
        <time>2016-06-08T14:32:18Z</time>
      </trkpt>
      <trkpt lat="42.557790" lon="0.050462">
        <ele>1015.8</ele>
        <time>2016-06-08T14:32:35Z</time>
      </trkpt>
      <trkpt lat="42.557944" lon="0.050215">
        <ele>1017.2</ele>
        <time>2016-06-08T14:32:50Z</time>
      </trkpt>
      <trkpt lat="42.557966" lon="0.050103">
        <ele>1017.2</ele>
        <time>2016-06-08T14:32:56Z</time>
      </trkpt>
      <trkpt lat="42.557771" lon="0.049894">
        <ele>1018.7</ele>
        <time>2016-06-08T14:33:11Z</time>
      </trkpt>
      <trkpt lat="42.557595" lon="0.049772">
        <ele>1018.7</ele>
        <time>2016-06-08T14:33:23Z</time>
      </trkpt>
      <trkpt lat="42.557585" lon="0.049682">
        <ele>1019.1</ele>
        <time>2016-06-08T14:33:27Z</time>
      </trkpt>
      <trkpt lat="42.557682" lon="0.049627">
        <ele>1019.6</ele>
        <time>2016-06-08T14:33:33Z</time>
      </trkpt>
      <trkpt lat="42.557916" lon="0.049509">
        <ele>1021.5</ele>
        <time>2016-06-08T14:33:51Z</time>
      </trkpt>
      <trkpt lat="42.558151" lon="0.049364">
        <ele>1023.0</ele>
        <time>2016-06-08T14:34:08Z</time>
      </trkpt>
      <trkpt lat="42.558252" lon="0.049138">
        <ele>1024.9</ele>
        <time>2016-06-08T14:34:23Z</time>
      </trkpt>
      <trkpt lat="42.558220" lon="0.048888">
        <ele>1026.3</ele>
        <time>2016-06-08T14:34:38Z</time>
      </trkpt>
      <trkpt lat="42.558445" lon="0.048826">
        <ele>1027.8</ele>
        <time>2016-06-08T14:34:55Z</time>
      </trkpt>
      <trkpt lat="42.558652" lon="0.048755">
        <ele>1029.2</ele>
        <time>2016-06-08T14:35:10Z</time>
      </trkpt>
      <trkpt lat="42.558789" lon="0.048575">
        <ele>1031.2</ele>
        <time>2016-06-08T14:35:24Z</time>
      </trkpt>
      <trkpt lat="42.558963" lon="0.048440">
        <ele>1032.6</ele>
        <time>2016-06-08T14:35:40Z</time>
      </trkpt>
      <trkpt lat="42.559179" lon="0.048458">
        <ele>1034.0</ele>
        <time>2016-06-08T14:35:54Z</time>
      </trkpt>
      <trkpt lat="42.559383" lon="0.048335">
        <ele>1036.0</ele>
        <time>2016-06-08T14:36:10Z</time>
      </trkpt>
      <trkpt lat="42.559507" lon="0.048085">
        <ele>1037.4</ele>
        <time>2016-06-08T14:36:26Z</time>
      </trkpt>
      <trkpt lat="42.559649" lon="0.047775">
        <ele>1040.3</ele>
        <time>2016-06-08T14:36:45Z</time>
      </trkpt>
      <trkpt lat="42.559820" lon="0.047484">
        <ele>1042.2</ele>
        <time>2016-06-08T14:37:06Z</time>
      </trkpt>
      <trkpt lat="42.559915" lon="0.047258">
        <ele>1044.1</ele>
        <time>2016-06-08T14:37:20Z</time>
      </trkpt>
      <trkpt lat="42.560074" lon="0.046992">
        <ele>1047.0</ele>
        <time>2016-06-08T14:37:41Z</time>
      </trkpt>
      <trkpt lat="42.560198" lon="0.046853">
        <ele>1048.5</ele>
        <time>2016-06-08T14:37:53Z</time>
      </trkpt>
      <trkpt lat="42.560376" lon="0.046662">
        <ele>1050.4</ele>
        <time>2016-06-08T14:38:11Z</time>
      </trkpt>
      <trkpt lat="42.560479" lon="0.046557">
        <ele>1052.3</ele>
        <time>2016-06-08T14:38:21Z</time>
      </trkpt>
      <trkpt lat="42.560517" lon="0.046508">
        <ele>1052.8</ele>
        <time>2016-06-08T14:38:25Z</time>
      </trkpt>
      <trkpt lat="42.560677" lon="0.046341">
        <ele>1054.7</ele>
        <time>2016-06-08T14:38:41Z</time>
      </trkpt>
      <trkpt lat="42.560971" lon="0.046295">
        <ele>1056.6</ele>
        <time>2016-06-08T14:39:01Z</time>
      </trkpt>
      <trkpt lat="42.561194" lon="0.046136">
        <ele>1057.6</ele>
        <time>2016-06-08T14:39:18Z</time>
      </trkpt>
      <trkpt lat="42.561370" lon="0.045828">
        <ele>1058.1</ele>
        <time>2016-06-08T14:39:36Z</time>
      </trkpt>
      <trkpt lat="42.561489" lon="0.045540">
        <ele>1058.6</ele>
        <time>2016-06-08T14:39:51Z</time>
      </trkpt>
      <trkpt lat="42.561543" lon="0.045179">
        <ele>1059.5</ele>
        <time>2016-06-08T14:40:07Z</time>
      </trkpt>
      <trkpt lat="42.561526" lon="0.044766">
        <ele>1059.5</ele>
        <time>2016-06-08T14:40:20Z</time>
      </trkpt>
      <trkpt lat="42.561542" lon="0.044365">
        <ele>1059.5</ele>
        <time>2016-06-08T14:40:33Z</time>
      </trkpt>
      <trkpt lat="42.561583" lon="0.044000">
        <ele>1060.0</ele>
        <time>2016-06-08T14:40:46Z</time>
      </trkpt>
      <trkpt lat="42.561780" lon="0.043537">
        <ele>1060.5</ele>
        <time>2016-06-08T14:41:02Z</time>
      </trkpt>
      <trkpt lat="42.562021" lon="0.043282">
        <ele>1061.4</ele>
        <time>2016-06-08T14:41:16Z</time>
      </trkpt>
      <trkpt lat="42.562307" lon="0.042879">
        <ele>1061.9</ele>
        <time>2016-06-08T14:41:33Z</time>
      </trkpt>
      <trkpt lat="42.562417" lon="0.042498">
        <ele>1061.9</ele>
        <time>2016-06-08T14:41:46Z</time>
      </trkpt>
      <trkpt lat="42.562294" lon="0.041995">
        <ele>1060.5</ele>
        <time>2016-06-08T14:41:57Z</time>
      </trkpt>
      <trkpt lat="42.562272" lon="0.041905">
        <ele>1060.5</ele>
        <time>2016-06-08T14:41:59Z</time>
      </trkpt>
      <trkpt lat="42.562240" lon="0.041500">
        <ele>1059.5</ele>
        <time>2016-06-08T14:42:05Z</time>
      </trkpt>
      <trkpt lat="42.562126" lon="0.040585">
        <ele>1058.1</ele>
        <time>2016-06-08T14:42:18Z</time>
      </trkpt>
      <trkpt lat="42.562050" lon="0.040345">
        <ele>1058.1</ele>
        <time>2016-06-08T14:42:22Z</time>
      </trkpt>
      <trkpt lat="42.562047" lon="0.040281">
        <ele>1058.1</ele>
        <time>2016-06-08T14:42:23Z</time>
      </trkpt>
      <trkpt lat="42.562061" lon="0.040215">
        <ele>1058.1</ele>
        <time>2016-06-08T14:42:24Z</time>
      </trkpt>
      <trkpt lat="42.562193" lon="0.039923">
        <ele>1059.5</ele>
        <time>2016-06-08T14:42:34Z</time>
      </trkpt>
      <trkpt lat="42.562205" lon="0.039637">
        <ele>1061.0</ele>
        <time>2016-06-08T14:42:47Z</time>
      </trkpt>
      <trkpt lat="42.562230" lon="0.039295">
        <ele>1062.4</ele>
        <time>2016-06-08T14:43:02Z</time>
      </trkpt>
      <trkpt lat="42.562307" lon="0.038942">
        <ele>1064.3</ele>
        <time>2016-06-08T14:43:17Z</time>
      </trkpt>
      <trkpt lat="42.562435" lon="0.038563">
        <ele>1065.8</ele>
        <time>2016-06-08T14:43:35Z</time>
      </trkpt>
      <trkpt lat="42.562612" lon="0.038208">
        <ele>1067.7</ele>
        <time>2016-06-08T14:43:53Z</time>
      </trkpt>
      <trkpt lat="42.562762" lon="0.037925">
        <ele>1068.6</ele>
        <time>2016-06-08T14:44:08Z</time>
      </trkpt>
      <trkpt lat="42.562822" lon="0.037674">
        <ele>1069.6</ele>
        <time>2016-06-08T14:44:18Z</time>
      </trkpt>
      <trkpt lat="42.562872" lon="0.037194">
        <ele>1070.1</ele>
        <time>2016-06-08T14:44:33Z</time>
      </trkpt>
      <trkpt lat="42.562974" lon="0.036638">
        <ele>1070.1</ele>
        <time>2016-06-08T14:44:50Z</time>
      </trkpt>
      <trkpt lat="42.563108" lon="0.036283">
        <ele>1070.1</ele>
        <time>2016-06-08T14:45:00Z</time>
      </trkpt>
      <trkpt lat="42.563335" lon="0.035852">
        <ele>1070.1</ele>
        <time>2016-06-08T14:45:14Z</time>
      </trkpt>
      <trkpt lat="42.563515" lon="0.035404">
        <ele>1069.1</ele>
        <time>2016-06-08T14:45:27Z</time>
      </trkpt>
      <trkpt lat="42.563621" lon="0.034680">
        <ele>1068.2</ele>
        <time>2016-06-08T14:45:46Z</time>
      </trkpt>
      <trkpt lat="42.563379" lon="0.034159">
        <ele>1067.7</ele>
        <time>2016-06-08T14:46:02Z</time>
      </trkpt>
      <trkpt lat="42.562963" lon="0.033808">
        <ele>1066.2</ele>
        <time>2016-06-08T14:46:17Z</time>
      </trkpt>
      <trkpt lat="42.563116" lon="0.033519">
        <ele>1066.7</ele>
        <time>2016-06-08T14:46:28Z</time>
      </trkpt>
      <trkpt lat="42.563213" lon="0.033435">
        <ele>1067.7</ele>
        <time>2016-06-08T14:46:34Z</time>
      </trkpt>
      <trkpt lat="42.563410" lon="0.033274">
        <ele>1069.1</ele>
        <time>2016-06-08T14:46:48Z</time>
      </trkpt>
      <trkpt lat="42.563671" lon="0.033078">
        <ele>1071.1</ele>
        <time>2016-06-08T14:47:04Z</time>
      </trkpt>
      <trkpt lat="42.563860" lon="0.033116">
        <ele>1072.0</ele>
        <time>2016-06-08T14:47:18Z</time>
      </trkpt>
      <trkpt lat="42.564051" lon="0.033201">
        <ele>1073.5</ele>
        <time>2016-06-08T14:47:30Z</time>
      </trkpt>
      <trkpt lat="42.564299" lon="0.033209">
        <ele>1075.4</ele>
        <time>2016-06-08T14:47:44Z</time>
      </trkpt>
      <trkpt lat="42.564515" lon="0.033014">
        <ele>1077.3</ele>
        <time>2016-06-08T14:48:01Z</time>
      </trkpt>
      <trkpt lat="42.564703" lon="0.032797">
        <ele>1078.3</ele>
        <time>2016-06-08T14:48:16Z</time>
      </trkpt>
      <trkpt lat="42.564907" lon="0.032467">
        <ele>1079.2</ele>
        <time>2016-06-08T14:48:32Z</time>
      </trkpt>
      <trkpt lat="42.565107" lon="0.032045">
        <ele>1080.2</ele>
        <time>2016-06-08T14:48:50Z</time>
      </trkpt>
      <trkpt lat="42.565306" lon="0.031677">
        <ele>1080.2</ele>
        <time>2016-06-08T14:49:06Z</time>
      </trkpt>
      <trkpt lat="42.565486" lon="0.031292">
        <ele>1080.7</ele>
        <time>2016-06-08T14:49:22Z</time>
      </trkpt>
      <trkpt lat="42.565613" lon="0.030957">
        <ele>1081.6</ele>
        <time>2016-06-08T14:49:36Z</time>
      </trkpt>
      <trkpt lat="42.565809" lon="0.030848">
        <ele>1083.5</ele>
        <time>2016-06-08T14:49:50Z</time>
      </trkpt>
      <trkpt lat="42.566071" lon="0.030911">
        <ele>1085.5</ele>
        <time>2016-06-08T14:50:07Z</time>
      </trkpt>
      <trkpt lat="42.566315" lon="0.030740">
        <ele>1086.9</ele>
        <time>2016-06-08T14:50:24Z</time>
      </trkpt>
      <trkpt lat="42.566509" lon="0.030429">
        <ele>1087.4</ele>
        <time>2016-06-08T14:50:39Z</time>
      </trkpt>
      <trkpt lat="42.566671" lon="0.029959">
        <ele>1087.4</ele>
        <time>2016-06-08T14:50:53Z</time>
      </trkpt>
      <trkpt lat="42.566918" lon="0.029476">
        <ele>1086.9</ele>
        <time>2016-06-08T14:51:09Z</time>
      </trkpt>
      <trkpt lat="42.567183" lon="0.029196">
        <ele>1086.9</ele>
        <time>2016-06-08T14:51:20Z</time>
      </trkpt>
      <trkpt lat="42.567482" lon="0.028749">
        <ele>1086.9</ele>
        <time>2016-06-08T14:51:35Z</time>
      </trkpt>
      <trkpt lat="42.567583" lon="0.028223">
        <ele>1086.9</ele>
        <time>2016-06-08T14:51:47Z</time>
      </trkpt>
      <trkpt lat="42.567599" lon="0.028164">
        <ele>1086.9</ele>
        <time>2016-06-08T14:51:48Z</time>
      </trkpt>
      <trkpt lat="42.567680" lon="0.027991">
        <ele>1085.5</ele>
        <time>2016-06-08T14:51:51Z</time>
      </trkpt>
      <trkpt lat="42.567761" lon="0.027891">
        <ele>1085.0</ele>
        <time>2016-06-08T14:51:53Z</time>
      </trkpt>
      <trkpt lat="42.567955" lon="0.027679">
        <ele>1084.0</ele>
        <time>2016-06-08T14:51:57Z</time>
      </trkpt>
      <trkpt lat="42.568287" lon="0.027099">
        <ele>1081.1</ele>
        <time>2016-06-08T14:52:04Z</time>
      </trkpt>
      <trkpt lat="42.568680" lon="0.026087">
        <ele>1077.8</ele>
        <time>2016-06-08T14:52:14Z</time>
      </trkpt>
      <trkpt lat="42.568714" lon="0.025983">
        <ele>1077.8</ele>
        <time>2016-06-08T14:52:15Z</time>
      </trkpt>
      <trkpt lat="42.568909" lon="0.025630">
        <ele>1076.8</ele>
        <time>2016-06-08T14:52:19Z</time>
      </trkpt>
      <trkpt lat="42.569391" lon="0.025041">
        <ele>1076.3</ele>
        <time>2016-06-08T14:52:30Z</time>
      </trkpt>
      <trkpt lat="42.569486" lon="0.024899">
        <ele>1077.8</ele>
        <time>2016-06-08T14:52:35Z</time>
      </trkpt>
      <trkpt lat="42.569700" lon="0.024460">
        <ele>1078.3</ele>
        <time>2016-06-08T14:52:48Z</time>
      </trkpt>
      <trkpt lat="42.569730" lon="0.024262">
        <ele>1076.3</ele>
        <time>2016-06-08T14:52:51Z</time>
      </trkpt>
      <trkpt lat="42.570008" lon="0.023997">
        <ele>1074.9</ele>
        <time>2016-06-08T14:52:57Z</time>
      </trkpt>
      <trkpt lat="42.570114" lon="0.024115">
        <ele>1076.3</ele>
        <time>2016-06-08T14:53:00Z</time>
      </trkpt>
      <trkpt lat="42.570240" lon="0.024371">
        <ele>1077.3</ele>
        <time>2016-06-08T14:53:11Z</time>
      </trkpt>
      <trkpt lat="42.570305" lon="0.024448">
        <ele>1077.8</ele>
        <time>2016-06-08T14:53:16Z</time>
      </trkpt>
      <trkpt lat="42.570344" lon="0.024283">
        <ele>1079.2</ele>
        <time>2016-06-08T14:53:26Z</time>
      </trkpt>
      <trkpt lat="42.570203" lon="0.024057">
        <ele>1080.7</ele>
        <time>2016-06-08T14:53:41Z</time>
      </trkpt>
      <trkpt lat="42.570048" lon="0.023739">
        <ele>1082.1</ele>
        <time>2016-06-08T14:53:59Z</time>
      </trkpt>
      <trkpt lat="42.569953" lon="0.023454">
        <ele>1084.5</ele>
        <time>2016-06-08T14:54:15Z</time>
      </trkpt>
      <trkpt lat="42.569884" lon="0.023111">
        <ele>1086.0</ele>
        <time>2016-06-08T14:54:33Z</time>
      </trkpt>
      <trkpt lat="42.569912" lon="0.022829">
        <ele>1087.9</ele>
        <time>2016-06-08T14:54:48Z</time>
      </trkpt>
      <trkpt lat="42.570003" lon="0.022485">
        <ele>1089.8</ele>
        <time>2016-06-08T14:55:07Z</time>
      </trkpt>
      <trkpt lat="42.570042" lon="0.022183">
        <ele>1091.7</ele>
        <time>2016-06-08T14:55:23Z</time>
      </trkpt>
      <trkpt lat="42.570072" lon="0.021861">
        <ele>1094.6</ele>
        <time>2016-06-08T14:55:41Z</time>
      </trkpt>
      <trkpt lat="42.570012" lon="0.021484">
        <ele>1097.0</ele>
        <time>2016-06-08T14:56:03Z</time>
      </trkpt>
      <trkpt lat="42.569972" lon="0.021193">
        <ele>1100.4</ele>
        <time>2016-06-08T14:56:19Z</time>
      </trkpt>
      <trkpt lat="42.569952" lon="0.020892">
        <ele>1102.3</ele>
        <time>2016-06-08T14:56:35Z</time>
      </trkpt>
      <trkpt lat="42.569969" lon="0.020529">
        <ele>1105.2</ele>
        <time>2016-06-08T14:56:56Z</time>
      </trkpt>
      <trkpt lat="42.570092" lon="0.020176">
        <ele>1107.6</ele>
        <time>2016-06-08T14:57:17Z</time>
      </trkpt>
      <trkpt lat="42.570218" lon="0.019926">
        <ele>1109.5</ele>
        <time>2016-06-08T14:57:34Z</time>
      </trkpt>
      <trkpt lat="42.570333" lon="0.019673">
        <ele>1111.4</ele>
        <time>2016-06-08T14:57:51Z</time>
      </trkpt>
      <trkpt lat="42.570467" lon="0.019438">
        <ele>1114.3</ele>
        <time>2016-06-08T14:58:07Z</time>
      </trkpt>
      <trkpt lat="42.570593" lon="0.019228">
        <ele>1116.2</ele>
        <time>2016-06-08T14:58:23Z</time>
      </trkpt>
      <trkpt lat="42.570723" lon="0.019003">
        <ele>1118.6</ele>
        <time>2016-06-08T14:58:39Z</time>
      </trkpt>
      <trkpt lat="42.570729" lon="0.018872">
        <ele>1119.1</ele>
        <time>2016-06-08T14:58:46Z</time>
      </trkpt>
      <trkpt lat="42.570776" lon="0.018788">
        <ele>1120.1</ele>
        <time>2016-06-08T14:58:52Z</time>
      </trkpt>
      <trkpt lat="42.570865" lon="0.018475">
        <ele>1122.5</ele>
        <time>2016-06-08T14:59:10Z</time>
      </trkpt>
      <trkpt lat="42.570822" lon="0.018172">
        <ele>1125.4</ele>
        <time>2016-06-08T14:59:28Z</time>
      </trkpt>
      <trkpt lat="42.570717" lon="0.017902">
        <ele>1127.3</ele>
        <time>2016-06-08T14:59:44Z</time>
      </trkpt>
      <trkpt lat="42.570591" lon="0.017628">
        <ele>1128.7</ele>
        <time>2016-06-08T15:00:00Z</time>
      </trkpt>
      <trkpt lat="42.570441" lon="0.017342">
        <ele>1130.2</ele>
        <time>2016-06-08T15:00:17Z</time>
      </trkpt>
      <trkpt lat="42.570432" lon="0.017104">
        <ele>1130.7</ele>
        <time>2016-06-08T15:00:29Z</time>
      </trkpt>
      <trkpt lat="42.570516" lon="0.017065">
        <ele>1130.7</ele>
        <time>2016-06-08T15:00:35Z</time>
      </trkpt>
      <trkpt lat="42.570566" lon="0.017153">
        <ele>1131.1</ele>
        <time>2016-06-08T15:00:41Z</time>
      </trkpt>
      <trkpt lat="42.570638" lon="0.017473">
        <ele>1133.5</ele>
        <time>2016-06-08T15:00:58Z</time>
      </trkpt>
      <trkpt lat="42.570663" lon="0.017537">
        <ele>1134.0</ele>
        <time>2016-06-08T15:01:10Z</time>
      </trkpt>
      <trkpt lat="42.570724" lon="0.017622">
        <ele>1134.5</ele>
        <time>2016-06-08T15:02:21Z</time>
      </trkpt>
      <trkpt lat="42.570847" lon="0.017807">
        <ele>1135.5</ele>
        <time>2016-06-08T15:02:34Z</time>
      </trkpt>
      <trkpt lat="42.571024" lon="0.017987">
        <ele>1137.4</ele>
        <time>2016-06-08T15:02:50Z</time>
      </trkpt>
      <trkpt lat="42.571203" lon="0.018181">
        <ele>1139.8</ele>
        <time>2016-06-08T15:03:07Z</time>
      </trkpt>
      <trkpt lat="42.571244" lon="0.018476">
        <ele>1142.7</ele>
        <time>2016-06-08T15:03:24Z</time>
      </trkpt>
      <trkpt lat="42.571254" lon="0.018874">
        <ele>1145.1</ele>
        <time>2016-06-08T15:03:45Z</time>
      </trkpt>
      <trkpt lat="42.571241" lon="0.019189">
        <ele>1147.5</ele>
        <time>2016-06-08T15:04:02Z</time>
      </trkpt>
      <trkpt lat="42.571191" lon="0.019551">
        <ele>1150.4</ele>
        <time>2016-06-08T15:04:22Z</time>
      </trkpt>
      <trkpt lat="42.571120" lon="0.019850">
        <ele>1152.8</ele>
        <time>2016-06-08T15:04:39Z</time>
      </trkpt>
      <trkpt lat="42.571033" lon="0.020148">
        <ele>1155.6</ele>
        <time>2016-06-08T15:04:57Z</time>
      </trkpt>
      <trkpt lat="42.571014" lon="0.020481">
        <ele>1157.6</ele>
        <time>2016-06-08T15:05:15Z</time>
      </trkpt>
      <trkpt lat="42.571076" lon="0.020815">
        <ele>1160.0</ele>
        <time>2016-06-08T15:05:33Z</time>
      </trkpt>
      <trkpt lat="42.571203" lon="0.021104">
        <ele>1162.9</ele>
        <time>2016-06-08T15:05:51Z</time>
      </trkpt>
      <trkpt lat="42.571384" lon="0.021352">
        <ele>1165.3</ele>
        <time>2016-06-08T15:06:10Z</time>
      </trkpt>
      <trkpt lat="42.571529" lon="0.021637">
        <ele>1167.2</ele>
        <time>2016-06-08T15:06:28Z</time>
      </trkpt>
      <trkpt lat="42.571722" lon="0.021811">
        <ele>1169.1</ele>
        <time>2016-06-08T15:06:45Z</time>
      </trkpt>
      <trkpt lat="42.571980" lon="0.021906">
        <ele>1171.5</ele>
        <time>2016-06-08T15:07:03Z</time>
      </trkpt>
      <trkpt lat="42.572116" lon="0.021827">
        <ele>1173.0</ele>
        <time>2016-06-08T15:07:14Z</time>
      </trkpt>
      <trkpt lat="42.572329" lon="0.021672">
        <ele>1175.8</ele>
        <time>2016-06-08T15:07:33Z</time>
      </trkpt>
      <trkpt lat="42.572505" lon="0.021555">
        <ele>1178.2</ele>
        <time>2016-06-08T15:07:48Z</time>
      </trkpt>
      <trkpt lat="42.572716" lon="0.021450">
        <ele>1181.6</ele>
        <time>2016-06-08T15:08:05Z</time>
      </trkpt>
      <trkpt lat="42.572859" lon="0.021401">
        <ele>1183.0</ele>
        <time>2016-06-08T15:08:16Z</time>
      </trkpt>
      <trkpt lat="42.572892" lon="0.021349">
        <ele>1183.5</ele>
        <time>2016-06-08T15:08:20Z</time>
      </trkpt>
      <trkpt lat="42.573086" lon="0.021234">
        <ele>1186.4</ele>
        <time>2016-06-08T15:08:37Z</time>
      </trkpt>
      <trkpt lat="42.573060" lon="0.021173">
        <ele>1187.4</ele>
        <time>2016-06-08T15:08:48Z</time>
      </trkpt>
      <trkpt lat="42.572942" lon="0.021163">
        <ele>1187.4</ele>
        <time>2016-06-08T15:10:13Z</time>
      </trkpt>
      <trkpt lat="42.572850" lon="0.021192">
        <ele>1188.3</ele>
        <time>2016-06-08T15:10:20Z</time>
      </trkpt>
      <trkpt lat="42.572637" lon="0.021239">
        <ele>1190.3</ele>
        <time>2016-06-08T15:10:37Z</time>
      </trkpt>
      <trkpt lat="42.572439" lon="0.021290">
        <ele>1193.6</ele>
        <time>2016-06-08T15:10:52Z</time>
      </trkpt>
      <trkpt lat="42.572204" lon="0.021262">
        <ele>1196.0</ele>
        <time>2016-06-08T15:11:10Z</time>
      </trkpt>
      <trkpt lat="42.572035" lon="0.021096">
        <ele>1197.9</ele>
        <time>2016-06-08T15:11:26Z</time>
      </trkpt>
      <trkpt lat="42.571884" lon="0.020728">
        <ele>1200.8</ele>
        <time>2016-06-08T15:11:49Z</time>
      </trkpt>
      <trkpt lat="42.571902" lon="0.020356">
        <ele>1203.7</ele>
        <time>2016-06-08T15:12:09Z</time>
      </trkpt>
      <trkpt lat="42.571975" lon="0.020043">
        <ele>1206.6</ele>
        <time>2016-06-08T15:12:27Z</time>
      </trkpt>
      <trkpt lat="42.572065" lon="0.019677">
        <ele>1209.0</ele>
        <time>2016-06-08T15:12:48Z</time>
      </trkpt>
      <trkpt lat="42.572149" lon="0.019372">
        <ele>1211.4</ele>
        <time>2016-06-08T15:13:06Z</time>
      </trkpt>
      <trkpt lat="42.572255" lon="0.019068">
        <ele>1214.8</ele>
        <time>2016-06-08T15:13:24Z</time>
      </trkpt>
      <trkpt lat="42.572335" lon="0.018760">
        <ele>1216.7</ele>
        <time>2016-06-08T15:13:41Z</time>
      </trkpt>
      <trkpt lat="42.572418" lon="0.018452">
        <ele>1218.6</ele>
        <time>2016-06-08T15:13:58Z</time>
      </trkpt>
      <trkpt lat="42.572559" lon="0.018120">
        <ele>1220.5</ele>
        <time>2016-06-08T15:14:17Z</time>
      </trkpt>
      <trkpt lat="42.572627" lon="0.017839">
        <ele>1222.9</ele>
        <time>2016-06-08T15:14:32Z</time>
      </trkpt>
      <trkpt lat="42.572562" lon="0.017448">
        <ele>1224.9</ele>
        <time>2016-06-08T15:14:52Z</time>
      </trkpt>
      <trkpt lat="42.572508" lon="0.017108">
        <ele>1227.3</ele>
        <time>2016-06-08T15:15:09Z</time>
      </trkpt>
      <trkpt lat="42.572493" lon="0.017005">
        <ele>1227.7</ele>
        <time>2016-06-08T15:15:14Z</time>
      </trkpt>
      <trkpt lat="42.572629" lon="0.016957">
        <ele>1229.7</ele>
        <time>2016-06-08T15:15:27Z</time>
      </trkpt>
      <trkpt lat="42.572619" lon="0.017264">
        <ele>1231.1</ele>
        <time>2016-06-08T15:15:42Z</time>
      </trkpt>
      <trkpt lat="42.572697" lon="0.017592">
        <ele>1232.1</ele>
        <time>2016-06-08T15:15:59Z</time>
      </trkpt>
      <trkpt lat="42.572782" lon="0.017990">
        <ele>1233.0</ele>
        <time>2016-06-08T15:16:18Z</time>
      </trkpt>
      <trkpt lat="42.572710" lon="0.018306">
        <ele>1234.0</ele>
        <time>2016-06-08T15:16:34Z</time>
      </trkpt>
      <trkpt lat="42.572650" lon="0.018623">
        <ele>1234.5</ele>
        <time>2016-06-08T15:16:49Z</time>
      </trkpt>
      <trkpt lat="42.572633" lon="0.018990">
        <ele>1236.4</ele>
        <time>2016-06-08T15:17:07Z</time>
      </trkpt>
      <trkpt lat="42.572622" lon="0.019312">
        <ele>1238.8</ele>
        <time>2016-06-08T15:17:23Z</time>
      </trkpt>
      <trkpt lat="42.572615" lon="0.019651">
        <ele>1241.2</ele>
        <time>2016-06-08T15:17:40Z</time>
      </trkpt>
      <trkpt lat="42.572730" lon="0.019875">
        <ele>1243.1</ele>
        <time>2016-06-08T15:17:54Z</time>
      </trkpt>
      <trkpt lat="42.572991" lon="0.019892">
        <ele>1245.0</ele>
        <time>2016-06-08T15:18:11Z</time>
      </trkpt>
      <trkpt lat="42.573160" lon="0.019777">
        <ele>1247.5</ele>
        <time>2016-06-08T15:18:25Z</time>
      </trkpt>
      <trkpt lat="42.573322" lon="0.019562">
        <ele>1249.4</ele>
        <time>2016-06-08T15:18:41Z</time>
      </trkpt>
      <trkpt lat="42.573498" lon="0.019411">
        <ele>1251.3</ele>
        <time>2016-06-08T15:18:56Z</time>
      </trkpt>
      <trkpt lat="42.573740" lon="0.019291">
        <ele>1254.2</ele>
        <time>2016-06-08T15:19:13Z</time>
      </trkpt>
      <trkpt lat="42.573797" lon="0.019279">
        <ele>1254.7</ele>
        <time>2016-06-08T15:19:17Z</time>
      </trkpt>
      <trkpt lat="42.573852" lon="0.019205">
        <ele>1255.6</ele>
        <time>2016-06-08T15:19:23Z</time>
      </trkpt>
      <trkpt lat="42.573927" lon="0.019165">
        <ele>1256.1</ele>
        <time>2016-06-08T15:19:28Z</time>
      </trkpt>
      <trkpt lat="42.574170" lon="0.019253">
        <ele>1258.0</ele>
        <time>2016-06-08T15:19:47Z</time>
      </trkpt>
      <trkpt lat="42.574158" lon="0.019419">
        <ele>1258.0</ele>
        <time>2016-06-08T15:19:54Z</time>
      </trkpt>
      <trkpt lat="42.574020" lon="0.019769">
        <ele>1258.5</ele>
        <time>2016-06-08T15:20:11Z</time>
      </trkpt>
      <trkpt lat="42.574037" lon="0.019912">
        <ele>1259.0</ele>
        <time>2016-06-08T15:20:18Z</time>
      </trkpt>
      <trkpt lat="42.574322" lon="0.020010">
        <ele>1261.9</ele>
        <time>2016-06-08T15:20:38Z</time>
      </trkpt>
      <trkpt lat="42.574457" lon="0.019677">
        <ele>1263.8</ele>
        <time>2016-06-08T15:20:56Z</time>
      </trkpt>
      <trkpt lat="42.574564" lon="0.019353">
        <ele>1264.3</ele>
        <time>2016-06-08T15:21:12Z</time>
      </trkpt>
      <trkpt lat="42.574613" lon="0.018923">
        <ele>1266.2</ele>
        <time>2016-06-08T15:21:32Z</time>
      </trkpt>
      <trkpt lat="42.574582" lon="0.018591">
        <ele>1267.6</ele>
        <time>2016-06-08T15:21:48Z</time>
      </trkpt>
      <trkpt lat="42.574569" lon="0.018167">
        <ele>1270.0</ele>
        <time>2016-06-08T15:22:08Z</time>
      </trkpt>
      <trkpt lat="42.574384" lon="0.017835">
        <ele>1272.0</ele>
        <time>2016-06-08T15:22:27Z</time>
      </trkpt>
      <trkpt lat="42.574235" lon="0.017502">
        <ele>1274.4</ele>
        <time>2016-06-08T15:22:45Z</time>
      </trkpt>
      <trkpt lat="42.574195" lon="0.017439">
        <ele>1274.9</ele>
        <time>2016-06-08T15:22:58Z</time>
      </trkpt>
      <trkpt lat="42.574268" lon="0.017362">
        <ele>1277.7</ele>
        <time>2016-06-08T15:23:24Z</time>
      </trkpt>
      <trkpt lat="42.574302" lon="0.017335">
        <ele>1281.6</ele>
        <time>2016-06-09T06:49:21Z</time>
      </trkpt>
      <trkpt lat="42.574152" lon="0.017222">
        <ele>1281.6</ele>
        <time>2016-06-09T06:49:53Z</time>
      </trkpt>
      <trkpt lat="42.574152" lon="0.017411">
        <ele>1278.7</ele>
        <time>2016-06-09T06:50:43Z</time>
      </trkpt>
      <trkpt lat="42.574199" lon="0.017500">
        <ele>1278.2</ele>
        <time>2016-06-09T06:50:59Z</time>
      </trkpt>
      <trkpt lat="42.574260" lon="0.017626">
        <ele>1277.7</ele>
        <time>2016-06-09T06:51:22Z</time>
      </trkpt>
      <trkpt lat="42.574479" lon="0.018067">
        <ele>1275.3</ele>
        <time>2016-06-09T06:51:31Z</time>
      </trkpt>
      <trkpt lat="42.574560" lon="0.018472">
        <ele>1272.9</ele>
        <time>2016-06-09T06:51:37Z</time>
      </trkpt>
      <trkpt lat="42.574552" lon="0.018625">
        <ele>1272.4</ele>
        <time>2016-06-09T06:51:39Z</time>
      </trkpt>
      <trkpt lat="42.574576" lon="0.019134">
        <ele>1269.6</ele>
        <time>2016-06-09T06:51:45Z</time>
      </trkpt>
      <trkpt lat="42.574483" lon="0.019564">
        <ele>1268.6</ele>
        <time>2016-06-09T06:51:50Z</time>
      </trkpt>
      <trkpt lat="42.574404" lon="0.019766">
        <ele>1268.1</ele>
        <time>2016-06-09T06:51:53Z</time>
      </trkpt>
      <trkpt lat="42.574480" lon="0.020040">
        <ele>1267.2</ele>
        <time>2016-06-09T06:52:00Z</time>
      </trkpt>
      <trkpt lat="42.574558" lon="0.019952">
        <ele>1269.1</ele>
        <time>2016-06-09T06:52:06Z</time>
      </trkpt>
      <trkpt lat="42.574803" lon="0.019806">
        <ele>1271.0</ele>
        <time>2016-06-09T06:52:24Z</time>
      </trkpt>
      <trkpt lat="42.575079" lon="0.019729">
        <ele>1272.9</ele>
        <time>2016-06-09T06:52:43Z</time>
      </trkpt>
      <trkpt lat="42.575365" lon="0.019764">
        <ele>1275.8</ele>
        <time>2016-06-09T06:53:03Z</time>
      </trkpt>
      <trkpt lat="42.575533" lon="0.019979">
        <ele>1277.7</ele>
        <time>2016-06-09T06:53:19Z</time>
      </trkpt>
      <trkpt lat="42.575621" lon="0.020373">
        <ele>1280.1</ele>
        <time>2016-06-09T06:53:40Z</time>
      </trkpt>
      <trkpt lat="42.575824" lon="0.020662">
        <ele>1282.5</ele>
        <time>2016-06-09T06:54:01Z</time>
      </trkpt>
      <trkpt lat="42.576059" lon="0.020796">
        <ele>1284.9</ele>
        <time>2016-06-09T06:54:19Z</time>
      </trkpt>
      <trkpt lat="42.576247" lon="0.020665">
        <ele>1286.4</ele>
        <time>2016-06-09T06:54:35Z</time>
      </trkpt>
      <trkpt lat="42.576184" lon="0.020396">
        <ele>1288.8</ele>
        <time>2016-06-09T06:54:51Z</time>
      </trkpt>
      <trkpt lat="42.576046" lon="0.020179">
        <ele>1291.2</ele>
        <time>2016-06-09T06:55:07Z</time>
      </trkpt>
      <trkpt lat="42.575864" lon="0.019848">
        <ele>1293.1</ele>
        <time>2016-06-09T06:55:28Z</time>
      </trkpt>
      <trkpt lat="42.575728" lon="0.019553">
        <ele>1295.5</ele>
        <time>2016-06-09T06:55:46Z</time>
      </trkpt>
      <trkpt lat="42.575667" lon="0.019217">
        <ele>1298.4</ele>
        <time>2016-06-09T06:56:04Z</time>
      </trkpt>
      <trkpt lat="42.575689" lon="0.018862">
        <ele>1300.8</ele>
        <time>2016-06-09T06:56:23Z</time>
      </trkpt>
      <trkpt lat="42.575775" lon="0.018484">
        <ele>1303.2</ele>
        <time>2016-06-09T06:56:43Z</time>
      </trkpt>
      <trkpt lat="42.575806" lon="0.018148">
        <ele>1305.6</ele>
        <time>2016-06-09T06:57:01Z</time>
      </trkpt>
      <trkpt lat="42.575773" lon="0.017774">
        <ele>1308.5</ele>
        <time>2016-06-09T06:57:21Z</time>
      </trkpt>
      <trkpt lat="42.575697" lon="0.017446">
        <ele>1310.4</ele>
        <time>2016-06-09T06:57:39Z</time>
      </trkpt>
      <trkpt lat="42.575770" lon="0.017119">
        <ele>1312.8</ele>
        <time>2016-06-09T06:57:57Z</time>
      </trkpt>
      <trkpt lat="42.576009" lon="0.016895">
        <ele>1315.2</ele>
        <time>2016-06-09T06:58:17Z</time>
      </trkpt>
      <trkpt lat="42.576291" lon="0.016806">
        <ele>1317.6</ele>
        <time>2016-06-09T06:58:38Z</time>
      </trkpt>
      <trkpt lat="42.576325" lon="0.017045">
        <ele>1319.6</ele>
        <time>2016-06-09T06:58:53Z</time>
      </trkpt>
      <trkpt lat="42.576174" lon="0.017290">
        <ele>1321.5</ele>
        <time>2016-06-09T06:59:10Z</time>
      </trkpt>
      <trkpt lat="42.576221" lon="0.017640">
        <ele>1323.4</ele>
        <time>2016-06-09T06:59:28Z</time>
      </trkpt>
      <trkpt lat="42.576375" lon="0.018075">
        <ele>1326.3</ele>
        <time>2016-06-09T06:59:52Z</time>
      </trkpt>
      <trkpt lat="42.576490" lon="0.018408">
        <ele>1328.7</ele>
        <time>2016-06-09T07:00:11Z</time>
      </trkpt>
      <trkpt lat="42.576564" lon="0.018714">
        <ele>1331.6</ele>
        <time>2016-06-09T07:00:28Z</time>
      </trkpt>
      <trkpt lat="42.576714" lon="0.018904">
        <ele>1333.0</ele>
        <time>2016-06-09T07:00:44Z</time>
      </trkpt>
      <trkpt lat="42.576791" lon="0.018586">
        <ele>1336.4</ele>
        <time>2016-06-09T07:01:04Z</time>
      </trkpt>
      <trkpt lat="42.576761" lon="0.018269">
        <ele>1338.3</ele>
        <time>2016-06-09T07:01:21Z</time>
      </trkpt>
      <trkpt lat="42.576858" lon="0.017924">
        <ele>1341.2</ele>
        <time>2016-06-09T07:01:40Z</time>
      </trkpt>
      <trkpt lat="42.577087" lon="0.017788">
        <ele>1343.1</ele>
        <time>2016-06-09T07:01:57Z</time>
      </trkpt>
      <trkpt lat="42.577381" lon="0.017844">
        <ele>1346.0</ele>
        <time>2016-06-09T07:02:17Z</time>
      </trkpt>
      <trkpt lat="42.577579" lon="0.018029">
        <ele>1347.9</ele>
        <time>2016-06-09T07:02:33Z</time>
      </trkpt>
      <trkpt lat="42.577811" lon="0.018053">
        <ele>1350.8</ele>
        <time>2016-06-09T07:02:51Z</time>
      </trkpt>
      <trkpt lat="42.578041" lon="0.017983">
        <ele>1353.7</ele>
        <time>2016-06-09T07:03:08Z</time>
      </trkpt>
      <trkpt lat="42.578313" lon="0.017946">
        <ele>1355.6</ele>
        <time>2016-06-09T07:03:27Z</time>
      </trkpt>
      <trkpt lat="42.578576" lon="0.017841">
        <ele>1357.5</ele>
        <time>2016-06-09T07:03:45Z</time>
      </trkpt>
      <trkpt lat="42.578862" lon="0.017741">
        <ele>1359.9</ele>
        <time>2016-06-09T07:04:04Z</time>
      </trkpt>
      <trkpt lat="42.578971" lon="0.017698">
        <ele>1360.4</ele>
        <time>2016-06-09T07:04:11Z</time>
      </trkpt>
      <trkpt lat="42.579057" lon="0.017367">
        <ele>1362.3</ele>
        <time>2016-06-09T07:04:28Z</time>
      </trkpt>
      <trkpt lat="42.578970" lon="0.017012">
        <ele>1363.8</ele>
        <time>2016-06-09T07:04:45Z</time>
      </trkpt>
      <trkpt lat="42.579016" lon="0.016507">
        <ele>1365.7</ele>
        <time>2016-06-09T07:05:08Z</time>
      </trkpt>
      <trkpt lat="42.579103" lon="0.016226">
        <ele>1366.7</ele>
        <time>2016-06-09T07:05:22Z</time>
      </trkpt>
      <trkpt lat="42.579351" lon="0.016053">
        <ele>1368.1</ele>
        <time>2016-06-09T07:05:39Z</time>
      </trkpt>
      <trkpt lat="42.579704" lon="0.016074">
        <ele>1368.6</ele>
        <time>2016-06-09T07:05:58Z</time>
      </trkpt>
      <trkpt lat="42.580088" lon="0.016083">
        <ele>1369.1</ele>
        <time>2016-06-09T07:06:17Z</time>
      </trkpt>
      <trkpt lat="42.580172" lon="0.015838">
        <ele>1370.0</ele>
        <time>2016-06-09T07:06:29Z</time>
      </trkpt>
      <trkpt lat="42.580238" lon="0.015454">
        <ele>1373.4</ele>
        <time>2016-06-09T07:06:48Z</time>
      </trkpt>
      <trkpt lat="42.580402" lon="0.015074">
        <ele>1376.3</ele>
        <time>2016-06-09T07:07:09Z</time>
      </trkpt>
      <trkpt lat="42.580383" lon="0.014724">
        <ele>1378.2</ele>
        <time>2016-06-09T07:07:26Z</time>
      </trkpt>
      <trkpt lat="42.580373" lon="0.014359">
        <ele>1380.6</ele>
        <time>2016-06-09T07:07:45Z</time>
      </trkpt>
      <trkpt lat="42.580515" lon="0.014018">
        <ele>1383.5</ele>
        <time>2016-06-09T07:08:04Z</time>
      </trkpt>
      <trkpt lat="42.580724" lon="0.013818">
        <ele>1385.9</ele>
        <time>2016-06-09T07:08:22Z</time>
      </trkpt>
      <trkpt lat="42.580916" lon="0.013814">
        <ele>1387.3</ele>
        <time>2016-06-09T07:08:34Z</time>
      </trkpt>
      <trkpt lat="42.580997" lon="0.013730">
        <ele>1388.3</ele>
        <time>2016-06-09T07:08:41Z</time>
      </trkpt>
      <trkpt lat="42.581113" lon="0.013431">
        <ele>1390.7</ele>
        <time>2016-06-09T07:08:59Z</time>
      </trkpt>
      <trkpt lat="42.581288" lon="0.013103">
        <ele>1393.1</ele>
        <time>2016-06-09T07:09:20Z</time>
      </trkpt>
      <trkpt lat="42.581499" lon="0.012775">
        <ele>1396.5</ele>
        <time>2016-06-09T07:09:42Z</time>
      </trkpt>
      <trkpt lat="42.581610" lon="0.012501">
        <ele>1398.9</ele>
        <time>2016-06-09T07:09:58Z</time>
      </trkpt>
      <trkpt lat="42.581694" lon="0.012153">
        <ele>1401.7</ele>
        <time>2016-06-09T07:10:18Z</time>
      </trkpt>
      <trkpt lat="42.581765" lon="0.011801">
        <ele>1404.6</ele>
        <time>2016-06-09T07:10:38Z</time>
      </trkpt>
      <trkpt lat="42.581995" lon="0.011627">
        <ele>1407.0</ele>
        <time>2016-06-09T07:10:56Z</time>
      </trkpt>
      <trkpt lat="42.582235" lon="0.011659">
        <ele>1408.5</ele>
        <time>2016-06-09T07:11:12Z</time>
      </trkpt>
      <trkpt lat="42.582348" lon="0.011385">
        <ele>1410.9</ele>
        <time>2016-06-09T07:11:29Z</time>
      </trkpt>
      <trkpt lat="42.582335" lon="0.011015">
        <ele>1413.8</ele>
        <time>2016-06-09T07:11:48Z</time>
      </trkpt>
      <trkpt lat="42.582368" lon="0.010688">
        <ele>1416.2</ele>
        <time>2016-06-09T07:12:05Z</time>
      </trkpt>
      <trkpt lat="42.582461" lon="0.010369">
        <ele>1419.0</ele>
        <time>2016-06-09T07:12:23Z</time>
      </trkpt>
      <trkpt lat="42.582492" lon="0.010305">
        <ele>1419.5</ele>
        <time>2016-06-09T07:12:27Z</time>
      </trkpt>
      <trkpt lat="42.582655" lon="0.010033">
        <ele>1421.9</ele>
        <time>2016-06-09T07:12:45Z</time>
      </trkpt>
      <trkpt lat="42.582878" lon="0.009894">
        <ele>1424.8</ele>
        <time>2016-06-09T07:13:02Z</time>
      </trkpt>
      <trkpt lat="42.582983" lon="0.009805">
        <ele>1425.3</ele>
        <time>2016-06-09T07:13:36Z</time>
      </trkpt>
      <trkpt lat="42.583072" lon="0.009513">
        <ele>1428.2</ele>
        <time>2016-06-09T07:13:53Z</time>
      </trkpt>
      <trkpt lat="42.583199" lon="0.009250">
        <ele>1430.1</ele>
        <time>2016-06-09T07:14:09Z</time>
      </trkpt>
      <trkpt lat="42.583306" lon="0.008953">
        <ele>1432.5</ele>
        <time>2016-06-09T07:14:26Z</time>
      </trkpt>
      <trkpt lat="42.583482" lon="0.008657">
        <ele>1435.9</ele>
        <time>2016-06-09T07:14:46Z</time>
      </trkpt>
      <trkpt lat="42.583676" lon="0.008367">
        <ele>1438.3</ele>
        <time>2016-06-09T07:15:06Z</time>
      </trkpt>
      <trkpt lat="42.583912" lon="0.008164">
        <ele>1440.7</ele>
        <time>2016-06-09T07:15:25Z</time>
      </trkpt>
      <trkpt lat="42.584135" lon="0.007964">
        <ele>1442.6</ele>
        <time>2016-06-09T07:15:43Z</time>
      </trkpt>
      <trkpt lat="42.584328" lon="0.007711">
        <ele>1445.5</ele>
        <time>2016-06-09T07:16:01Z</time>
      </trkpt>
      <trkpt lat="42.584532" lon="0.007441">
        <ele>1447.9</ele>
        <time>2016-06-09T07:16:21Z</time>
      </trkpt>
      <trkpt lat="42.584735" lon="0.007274">
        <ele>1450.3</ele>
        <time>2016-06-09T07:16:37Z</time>
      </trkpt>
      <trkpt lat="42.584953" lon="0.007088">
        <ele>1452.7</ele>
        <time>2016-06-09T07:16:55Z</time>
      </trkpt>
      <trkpt lat="42.585159" lon="0.006977">
        <ele>1454.6</ele>
        <time>2016-06-09T07:17:10Z</time>
      </trkpt>
      <trkpt lat="42.585235" lon="0.006928">
        <ele>1455.1</ele>
        <time>2016-06-09T07:17:16Z</time>
      </trkpt>
      <trkpt lat="42.585489" lon="0.006844">
        <ele>1457.5</ele>
        <time>2016-06-09T07:17:34Z</time>
      </trkpt>
      <trkpt lat="42.585712" lon="0.006816">
        <ele>1459.4</ele>
        <time>2016-06-09T07:17:50Z</time>
      </trkpt>
      <trkpt lat="42.585936" lon="0.006709">
        <ele>1461.8</ele>
        <time>2016-06-09T07:18:06Z</time>
      </trkpt>
      <trkpt lat="42.586167" lon="0.006532">
        <ele>1464.2</ele>
        <time>2016-06-09T07:18:24Z</time>
      </trkpt>
      <trkpt lat="42.586262" lon="0.006439">
        <ele>1465.2</ele>
        <time>2016-06-09T07:18:32Z</time>
      </trkpt>
      <trkpt lat="42.586526" lon="0.006316">
        <ele>1467.6</ele>
        <time>2016-06-09T07:18:51Z</time>
      </trkpt>
      <trkpt lat="42.586739" lon="0.006300">
        <ele>1469.5</ele>
        <time>2016-06-09T07:19:06Z</time>
      </trkpt>
      <trkpt lat="42.586977" lon="0.006237">
        <ele>1471.9</ele>
        <time>2016-06-09T07:19:23Z</time>
      </trkpt>
      <trkpt lat="42.587203" lon="0.006082">
        <ele>1473.8</ele>
        <time>2016-06-09T07:19:40Z</time>
      </trkpt>
      <trkpt lat="42.587400" lon="0.005878">
        <ele>1475.8</ele>
        <time>2016-06-09T07:19:57Z</time>
      </trkpt>
      <trkpt lat="42.587563" lon="0.005807">
        <ele>1477.7</ele>
        <time>2016-06-09T07:20:09Z</time>
      </trkpt>
      <trkpt lat="42.587670" lon="0.005866">
        <ele>1478.7</ele>
        <time>2016-06-09T07:20:17Z</time>
      </trkpt>
      <trkpt lat="42.587839" lon="0.006069">
        <ele>1480.6</ele>
        <time>2016-06-09T07:20:33Z</time>
      </trkpt>
      <trkpt lat="42.588085" lon="0.006282">
        <ele>1483.0</ele>
        <time>2016-06-09T07:20:53Z</time>
      </trkpt>
      <trkpt lat="42.588336" lon="0.006405">
        <ele>1485.4</ele>
        <time>2016-06-09T07:21:11Z</time>
      </trkpt>
      <trkpt lat="42.588630" lon="0.006472">
        <ele>1488.3</ele>
        <time>2016-06-09T07:21:32Z</time>
      </trkpt>
      <trkpt lat="42.588866" lon="0.006447">
        <ele>1490.7</ele>
        <time>2016-06-09T07:21:48Z</time>
      </trkpt>
      <trkpt lat="42.589106" lon="0.006415">
        <ele>1492.6</ele>
        <time>2016-06-09T07:22:05Z</time>
      </trkpt>
      <trkpt lat="42.589358" lon="0.006421">
        <ele>1495.0</ele>
        <time>2016-06-09T07:22:23Z</time>
      </trkpt>
      <trkpt lat="42.589622" lon="0.006452">
        <ele>1497.9</ele>
        <time>2016-06-09T07:22:42Z</time>
      </trkpt>
      <trkpt lat="42.589805" lon="0.006432">
        <ele>1499.8</ele>
        <time>2016-06-09T07:22:55Z</time>
      </trkpt>
      <trkpt lat="42.589887" lon="0.006434">
        <ele>1500.3</ele>
        <time>2016-06-09T07:23:01Z</time>
      </trkpt>
      <trkpt lat="42.590079" lon="0.006586">
        <ele>1503.2</ele>
        <time>2016-06-09T07:23:18Z</time>
      </trkpt>
      <trkpt lat="42.589991" lon="0.006868">
        <ele>1505.6</ele>
        <time>2016-06-09T07:23:36Z</time>
      </trkpt>
      <trkpt lat="42.589789" lon="0.006962">
        <ele>1507.5</ele>
        <time>2016-06-09T07:23:51Z</time>
      </trkpt>
      <trkpt lat="42.589541" lon="0.006951">
        <ele>1509.4</ele>
        <time>2016-06-09T07:24:08Z</time>
      </trkpt>
      <trkpt lat="42.589326" lon="0.007019">
        <ele>1511.3</ele>
        <time>2016-06-09T07:24:23Z</time>
      </trkpt>
      <trkpt lat="42.589122" lon="0.007217">
        <ele>1514.2</ele>
        <time>2016-06-09T07:24:41Z</time>
      </trkpt>
      <trkpt lat="42.588964" lon="0.007487">
        <ele>1516.6</ele>
        <time>2016-06-09T07:24:59Z</time>
      </trkpt>
      <trkpt lat="42.588807" lon="0.007743">
        <ele>1518.5</ele>
        <time>2016-06-09T07:25:16Z</time>
      </trkpt>
      <trkpt lat="42.588659" lon="0.007889">
        <ele>1519.5</ele>
        <time>2016-06-09T07:25:29Z</time>
      </trkpt>
      <trkpt lat="42.588421" lon="0.007823">
        <ele>1521.9</ele>
        <time>2016-06-09T07:25:46Z</time>
      </trkpt>
      <trkpt lat="42.588191" lon="0.007738">
        <ele>1523.8</ele>
        <time>2016-06-09T07:26:02Z</time>
      </trkpt>
      <trkpt lat="42.587931" lon="0.007694">
        <ele>1526.2</ele>
        <time>2016-06-09T07:26:20Z</time>
      </trkpt>
      <trkpt lat="42.587676" lon="0.007759">
        <ele>1528.6</ele>
        <time>2016-06-09T07:26:38Z</time>
      </trkpt>
      <trkpt lat="42.587452" lon="0.008041">
        <ele>1531.0</ele>
        <time>2016-06-09T07:26:59Z</time>
      </trkpt>
      <trkpt lat="42.587273" lon="0.008318">
        <ele>1532.5</ele>
        <time>2016-06-09T07:27:17Z</time>
      </trkpt>
      <trkpt lat="42.587100" lon="0.008578">
        <ele>1534.9</ele>
        <time>2016-06-09T07:27:34Z</time>
      </trkpt>
      <trkpt lat="42.586975" lon="0.008827">
        <ele>1536.3</ele>
        <time>2016-06-09T07:27:49Z</time>
      </trkpt>
      <trkpt lat="42.586831" lon="0.009135">
        <ele>1538.7</ele>
        <time>2016-06-09T07:28:07Z</time>
      </trkpt>
      <trkpt lat="42.586660" lon="0.009470">
        <ele>1541.1</ele>
        <time>2016-06-09T07:28:27Z</time>
      </trkpt>
      <trkpt lat="42.586533" lon="0.009795">
        <ele>1543.5</ele>
        <time>2016-06-09T07:28:45Z</time>
      </trkpt>
      <trkpt lat="42.586402" lon="0.010141">
        <ele>1545.9</ele>
        <time>2016-06-09T07:29:04Z</time>
      </trkpt>
      <trkpt lat="42.586282" lon="0.010440">
        <ele>1548.3</ele>
        <time>2016-06-09T07:29:21Z</time>
      </trkpt>
      <trkpt lat="42.586177" lon="0.010779">
        <ele>1550.3</ele>
        <time>2016-06-09T07:29:39Z</time>
      </trkpt>
      <trkpt lat="42.586089" lon="0.011090">
        <ele>1552.2</ele>
        <time>2016-06-09T07:29:55Z</time>
      </trkpt>
      <trkpt lat="42.585992" lon="0.011438">
        <ele>1554.6</ele>
        <time>2016-06-09T07:30:13Z</time>
      </trkpt>
      <trkpt lat="42.585904" lon="0.011725">
        <ele>1556.0</ele>
        <time>2016-06-09T07:30:28Z</time>
      </trkpt>
      <trkpt lat="42.585797" lon="0.012027">
        <ele>1558.9</ele>
        <time>2016-06-09T07:30:45Z</time>
      </trkpt>
      <trkpt lat="42.585705" lon="0.012355">
        <ele>1561.3</ele>
        <time>2016-06-09T07:31:03Z</time>
      </trkpt>
      <trkpt lat="42.585743" lon="0.012494">
        <ele>1561.8</ele>
        <time>2016-06-09T07:31:16Z</time>
      </trkpt>
      <trkpt lat="42.585849" lon="0.012516">
        <ele>1562.8</ele>
        <time>2016-06-09T07:32:02Z</time>
      </trkpt>
      <trkpt lat="42.586017" lon="0.012254">
        <ele>1565.2</ele>
        <time>2016-06-09T07:32:21Z</time>
      </trkpt>
      <trkpt lat="42.586139" lon="0.011983">
        <ele>1567.6</ele>
        <time>2016-06-09T07:32:38Z</time>
      </trkpt>
      <trkpt lat="42.586279" lon="0.011664">
        <ele>1570.5</ele>
        <time>2016-06-09T07:32:58Z</time>
      </trkpt>
      <trkpt lat="42.586479" lon="0.011393">
        <ele>1573.3</ele>
        <time>2016-06-09T07:33:18Z</time>
      </trkpt>
      <trkpt lat="42.586661" lon="0.011148">
        <ele>1575.3</ele>
        <time>2016-06-09T07:33:35Z</time>
      </trkpt>
      <trkpt lat="42.586871" lon="0.010893">
        <ele>1577.2</ele>
        <time>2016-06-09T07:33:54Z</time>
      </trkpt>
      <trkpt lat="42.587069" lon="0.010653">
        <ele>1579.1</ele>
        <time>2016-06-09T07:34:12Z</time>
      </trkpt>
      <trkpt lat="42.587295" lon="0.010394">
        <ele>1582.0</ele>
        <time>2016-06-09T07:34:32Z</time>
      </trkpt>
      <trkpt lat="42.587532" lon="0.010174">
        <ele>1584.4</ele>
        <time>2016-06-09T07:34:51Z</time>
      </trkpt>
      <trkpt lat="42.587768" lon="0.009993">
        <ele>1586.8</ele>
        <time>2016-06-09T07:35:09Z</time>
      </trkpt>
      <trkpt lat="42.588075" lon="0.009884">
        <ele>1589.2</ele>
        <time>2016-06-09T07:35:30Z</time>
      </trkpt>
      <trkpt lat="42.588356" lon="0.009880">
        <ele>1592.6</ele>
        <time>2016-06-09T07:35:49Z</time>
      </trkpt>
      <trkpt lat="42.588573" lon="0.010008">
        <ele>1595.0</ele>
        <time>2016-06-09T07:36:06Z</time>
      </trkpt>
      <trkpt lat="42.588734" lon="0.010286">
        <ele>1597.9</ele>
        <time>2016-06-09T07:36:25Z</time>
      </trkpt>
      <trkpt lat="42.588870" lon="0.010464">
        <ele>1599.8</ele>
        <time>2016-06-09T07:36:38Z</time>
      </trkpt>
      <trkpt lat="42.588982" lon="0.010493">
        <ele>1600.3</ele>
        <time>2016-06-09T07:36:46Z</time>
      </trkpt>
      <trkpt lat="42.589159" lon="0.010273">
        <ele>1602.2</ele>
        <time>2016-06-09T07:37:03Z</time>
      </trkpt>
      <trkpt lat="42.589241" lon="0.010181">
        <ele>1603.1</ele>
        <time>2016-06-09T07:37:10Z</time>
      </trkpt>
      <trkpt lat="42.589523" lon="0.010228">
        <ele>1605.5</ele>
        <time>2016-06-09T07:37:29Z</time>
      </trkpt>
      <trkpt lat="42.589758" lon="0.010377">
        <ele>1607.9</ele>
        <time>2016-06-09T07:37:47Z</time>
      </trkpt>
      <trkpt lat="42.590022" lon="0.010521">
        <ele>1610.4</ele>
        <time>2016-06-09T07:38:06Z</time>
      </trkpt>
      <trkpt lat="42.590339" lon="0.010667">
        <ele>1613.2</ele>
        <time>2016-06-09T07:38:29Z</time>
      </trkpt>
      <trkpt lat="42.590602" lon="0.010750">
        <ele>1616.1</ele>
        <time>2016-06-09T07:38:47Z</time>
      </trkpt>
      <trkpt lat="42.590893" lon="0.010846">
        <ele>1619.0</ele>
        <time>2016-06-09T07:39:08Z</time>
      </trkpt>
      <trkpt lat="42.591173" lon="0.010941">
        <ele>1621.9</ele>
        <time>2016-06-09T07:39:28Z</time>
      </trkpt>
      <trkpt lat="42.591440" lon="0.011016">
        <ele>1624.8</ele>
        <time>2016-06-09T07:39:47Z</time>
      </trkpt>
      <trkpt lat="42.591689" lon="0.011119">
        <ele>1626.7</ele>
        <time>2016-06-09T07:40:05Z</time>
      </trkpt>
      <trkpt lat="42.591918" lon="0.011231">
        <ele>1629.1</ele>
        <time>2016-06-09T07:40:22Z</time>
      </trkpt>
      <trkpt lat="42.592155" lon="0.011372">
        <ele>1631.5</ele>
        <time>2016-06-09T07:40:40Z</time>
      </trkpt>
      <trkpt lat="42.592210" lon="0.011397">
        <ele>1632.0</ele>
        <time>2016-06-09T07:40:44Z</time>
      </trkpt>
      <trkpt lat="42.592270" lon="0.011453">
        <ele>1632.9</ele>
        <time>2016-06-09T07:40:49Z</time>
      </trkpt>
      <trkpt lat="42.592497" lon="0.011612">
        <ele>1635.8</ele>
        <time>2016-06-09T07:41:07Z</time>
      </trkpt>
      <trkpt lat="42.592732" lon="0.011765">
        <ele>1638.2</ele>
        <time>2016-06-09T07:41:25Z</time>
      </trkpt>
      <trkpt lat="42.592949" lon="0.011930">
        <ele>1640.2</ele>
        <time>2016-06-09T07:41:42Z</time>
      </trkpt>
      <trkpt lat="42.593124" lon="0.012192">
        <ele>1642.1</ele>
        <time>2016-06-09T07:42:00Z</time>
      </trkpt>
      <trkpt lat="42.593301" lon="0.012444">
        <ele>1644.0</ele>
        <time>2016-06-09T07:42:17Z</time>
      </trkpt>
      <trkpt lat="42.593523" lon="0.012698">
        <ele>1646.4</ele>
        <time>2016-06-09T07:42:36Z</time>
      </trkpt>
      <trkpt lat="42.593753" lon="0.012939">
        <ele>1649.3</ele>
        <time>2016-06-09T07:42:56Z</time>
      </trkpt>
      <trkpt lat="42.593984" lon="0.013182">
        <ele>1651.2</ele>
        <time>2016-06-09T07:43:15Z</time>
      </trkpt>
      <trkpt lat="42.594285" lon="0.013340">
        <ele>1653.6</ele>
        <time>2016-06-09T07:43:36Z</time>
      </trkpt>
      <trkpt lat="42.594583" lon="0.013377">
        <ele>1656.5</ele>
        <time>2016-06-09T07:43:56Z</time>
      </trkpt>
      <trkpt lat="42.594700" lon="0.013434">
        <ele>1657.9</ele>
        <time>2016-06-09T07:44:11Z</time>
      </trkpt>
      <trkpt lat="42.594806" lon="0.013493">
        <ele>1658.9</ele>
        <time>2016-06-09T07:45:02Z</time>
      </trkpt>
      <trkpt lat="42.595022" lon="0.013620">
        <ele>1660.3</ele>
        <time>2016-06-09T07:45:18Z</time>
      </trkpt>
      <trkpt lat="42.595258" lon="0.013846">
        <ele>1662.3</ele>
        <time>2016-06-09T07:45:36Z</time>
      </trkpt>
      <trkpt lat="42.595460" lon="0.014069">
        <ele>1664.2</ele>
        <time>2016-06-09T07:45:53Z</time>
      </trkpt>
      <trkpt lat="42.595692" lon="0.014281">
        <ele>1666.6</ele>
        <time>2016-06-09T07:46:12Z</time>
      </trkpt>
      <trkpt lat="42.595874" lon="0.014422">
        <ele>1668.0</ele>
        <time>2016-06-09T07:46:26Z</time>
      </trkpt>
      <trkpt lat="42.596015" lon="0.014215">
        <ele>1669.0</ele>
        <time>2016-06-09T07:46:41Z</time>
      </trkpt>
      <trkpt lat="42.596084" lon="0.013850">
        <ele>1671.4</ele>
        <time>2016-06-09T07:47:00Z</time>
      </trkpt>
      <trkpt lat="42.596207" lon="0.013547">
        <ele>1673.3</ele>
        <time>2016-06-09T07:47:17Z</time>
      </trkpt>
      <trkpt lat="42.596300" lon="0.013220">
        <ele>1675.2</ele>
        <time>2016-06-09T07:47:35Z</time>
      </trkpt>
      <trkpt lat="42.596221" lon="0.012851">
        <ele>1677.6</ele>
        <time>2016-06-09T07:47:54Z</time>
      </trkpt>
      <trkpt lat="42.596133" lon="0.012512">
        <ele>1680.0</ele>
        <time>2016-06-09T07:48:12Z</time>
      </trkpt>
      <trkpt lat="42.596057" lon="0.012147">
        <ele>1682.0</ele>
        <time>2016-06-09T07:48:31Z</time>
      </trkpt>
      <trkpt lat="42.595945" lon="0.011772">
        <ele>1684.9</ele>
        <time>2016-06-09T07:48:52Z</time>
      </trkpt>
      <trkpt lat="42.595867" lon="0.011437">
        <ele>1687.3</ele>
        <time>2016-06-09T07:49:10Z</time>
      </trkpt>
      <trkpt lat="42.595789" lon="0.011018">
        <ele>1690.1</ele>
        <time>2016-06-09T07:49:31Z</time>
      </trkpt>
      <trkpt lat="42.595736" lon="0.010714">
        <ele>1692.1</ele>
        <time>2016-06-09T07:49:47Z</time>
      </trkpt>
      <trkpt lat="42.595632" lon="0.010365">
        <ele>1694.5</ele>
        <time>2016-06-09T07:50:06Z</time>
      </trkpt>
      <trkpt lat="42.595590" lon="0.009934">
        <ele>1696.9</ele>
        <time>2016-06-09T07:50:27Z</time>
      </trkpt>
      <trkpt lat="42.595606" lon="0.009615">
        <ele>1699.3</ele>
        <time>2016-06-09T07:50:43Z</time>
      </trkpt>
      <trkpt lat="42.595609" lon="0.009331">
        <ele>1701.2</ele>
        <time>2016-06-09T07:50:57Z</time>
      </trkpt>
      <trkpt lat="42.595619" lon="0.009252">
        <ele>1701.7</ele>
        <time>2016-06-09T07:51:01Z</time>
      </trkpt>
      <trkpt lat="42.595725" lon="0.008861">
        <ele>1704.6</ele>
        <time>2016-06-09T07:51:22Z</time>
      </trkpt>
      <trkpt lat="42.595855" lon="0.008512">
        <ele>1707.4</ele>
        <time>2016-06-09T07:51:42Z</time>
      </trkpt>
      <trkpt lat="42.595997" lon="0.008236">
        <ele>1709.8</ele>
        <time>2016-06-09T07:51:59Z</time>
      </trkpt>
      <trkpt lat="42.596198" lon="0.007966">
        <ele>1712.7</ele>
        <time>2016-06-09T07:52:19Z</time>
      </trkpt>
      <trkpt lat="42.596428" lon="0.007791">
        <ele>1714.7</ele>
        <time>2016-06-09T07:52:37Z</time>
      </trkpt>
      <trkpt lat="42.596676" lon="0.007674">
        <ele>1716.6</ele>
        <time>2016-06-09T07:52:55Z</time>
      </trkpt>
      <trkpt lat="42.596939" lon="0.007605">
        <ele>1719.5</ele>
        <time>2016-06-09T07:53:13Z</time>
      </trkpt>
      <trkpt lat="42.597149" lon="0.007567">
        <ele>1721.4</ele>
        <time>2016-06-09T07:53:28Z</time>
      </trkpt>
      <trkpt lat="42.597365" lon="0.007595">
        <ele>1723.3</ele>
        <time>2016-06-09T07:53:43Z</time>
      </trkpt>
      <trkpt lat="42.597565" lon="0.007749">
        <ele>1725.2</ele>
        <time>2016-06-09T07:53:59Z</time>
      </trkpt>
      <trkpt lat="42.597806" lon="0.007952">
        <ele>1728.1</ele>
        <time>2016-06-09T07:54:19Z</time>
      </trkpt>
      <trkpt lat="42.598060" lon="0.008146">
        <ele>1730.5</ele>
        <time>2016-06-09T07:54:39Z</time>
      </trkpt>
      <trkpt lat="42.598294" lon="0.008348">
        <ele>1732.4</ele>
        <time>2016-06-09T07:54:58Z</time>
      </trkpt>
      <trkpt lat="42.598525" lon="0.008513">
        <ele>1734.8</ele>
        <time>2016-06-09T07:55:16Z</time>
      </trkpt>
      <trkpt lat="42.598743" lon="0.008579">
        <ele>1736.8</ele>
        <time>2016-06-09T07:55:31Z</time>
      </trkpt>
      <trkpt lat="42.599006" lon="0.008715">
        <ele>1739.6</ele>
        <time>2016-06-09T07:55:51Z</time>
      </trkpt>
      <trkpt lat="42.599255" lon="0.008898">
        <ele>1742.5</ele>
        <time>2016-06-09T07:56:10Z</time>
      </trkpt>
      <trkpt lat="42.599541" lon="0.009052">
        <ele>1745.4</ele>
        <time>2016-06-09T07:56:31Z</time>
      </trkpt>
      <trkpt lat="42.599788" lon="0.009071">
        <ele>1747.3</ele>
        <time>2016-06-09T07:56:48Z</time>
      </trkpt>
      <trkpt lat="42.600025" lon="0.009173">
        <ele>1749.3</ele>
        <time>2016-06-09T07:57:05Z</time>
      </trkpt>
      <trkpt lat="42.600110" lon="0.009493">
        <ele>1749.3</ele>
        <time>2016-06-09T07:57:21Z</time>
      </trkpt>
      <trkpt lat="42.600347" lon="0.009603">
        <ele>1749.3</ele>
        <time>2016-06-09T07:57:37Z</time>
      </trkpt>
      <trkpt lat="42.600542" lon="0.009663">
        <ele>1751.7</ele>
        <time>2016-06-09T07:57:51Z</time>
      </trkpt>
      <trkpt lat="42.600818" lon="0.009714">
        <ele>1754.5</ele>
        <time>2016-06-09T07:58:10Z</time>
      </trkpt>
      <trkpt lat="42.601099" lon="0.009766">
        <ele>1757.4</ele>
        <time>2016-06-09T07:58:30Z</time>
      </trkpt>
      <trkpt lat="42.601337" lon="0.009714">
        <ele>1759.4</ele>
        <time>2016-06-09T07:58:47Z</time>
      </trkpt>
      <trkpt lat="42.601413" lon="0.009400">
        <ele>1762.2</ele>
        <time>2016-06-09T07:59:04Z</time>
      </trkpt>
      <trkpt lat="42.601488" lon="0.009058">
        <ele>1764.2</ele>
        <time>2016-06-09T07:59:22Z</time>
      </trkpt>
      <trkpt lat="42.601702" lon="0.008769">
        <ele>1766.1</ele>
        <time>2016-06-09T07:59:42Z</time>
      </trkpt>
      <trkpt lat="42.601895" lon="0.008573">
        <ele>1769.0</ele>
        <time>2016-06-09T07:59:59Z</time>
      </trkpt>
      <trkpt lat="42.602076" lon="0.008347">
        <ele>1770.9</ele>
        <time>2016-06-09T08:00:16Z</time>
      </trkpt>
      <trkpt lat="42.602258" lon="0.008133">
        <ele>1773.3</ele>
        <time>2016-06-09T08:00:33Z</time>
      </trkpt>
      <trkpt lat="42.602425" lon="0.007821">
        <ele>1776.2</ele>
        <time>2016-06-09T08:00:54Z</time>
      </trkpt>
      <trkpt lat="42.602343" lon="0.007431">
        <ele>1778.1</ele>
        <time>2016-06-09T08:01:13Z</time>
      </trkpt>
      <trkpt lat="42.602193" lon="0.007129">
        <ele>1780.5</ele>
        <time>2016-06-09T08:01:30Z</time>
      </trkpt>
      <trkpt lat="42.602056" lon="0.006822">
        <ele>1782.9</ele>
        <time>2016-06-09T08:01:47Z</time>
      </trkpt>
      <trkpt lat="42.601919" lon="0.006570">
        <ele>1784.8</ele>
        <time>2016-06-09T08:02:03Z</time>
      </trkpt>
      <trkpt lat="42.601776" lon="0.006238">
        <ele>1787.2</ele>
        <time>2016-06-09T08:02:22Z</time>
      </trkpt>
      <trkpt lat="42.601768" lon="0.006176">
        <ele>1787.2</ele>
        <time>2016-06-09T08:02:25Z</time>
      </trkpt>
      <trkpt lat="42.601899" lon="0.006120">
        <ele>1788.7</ele>
        <time>2016-06-09T08:02:36Z</time>
      </trkpt>
      <trkpt lat="42.602152" lon="0.006310">
        <ele>1791.6</ele>
        <time>2016-06-09T08:02:55Z</time>
      </trkpt>
      <trkpt lat="42.602346" lon="0.006484">
        <ele>1794.0</ele>
        <time>2016-06-09T08:03:12Z</time>
      </trkpt>
      <trkpt lat="42.602544" lon="0.006666">
        <ele>1796.8</ele>
        <time>2016-06-09T08:03:29Z</time>
      </trkpt>
      <trkpt lat="42.602708" lon="0.006913">
        <ele>1799.2</ele>
        <time>2016-06-09T08:03:46Z</time>
      </trkpt>
      <trkpt lat="42.602830" lon="0.007190">
        <ele>1801.2</ele>
        <time>2016-06-09T08:04:04Z</time>
      </trkpt>
      <trkpt lat="42.602988" lon="0.007361">
        <ele>1803.1</ele>
        <time>2016-06-09T08:04:44Z</time>
      </trkpt>
      <trkpt lat="42.603270" lon="0.007369">
        <ele>1806.0</ele>
        <time>2016-06-09T08:05:03Z</time>
      </trkpt>
      <trkpt lat="42.603384" lon="0.007312">
        <ele>1806.9</ele>
        <time>2016-06-09T08:05:11Z</time>
      </trkpt>
      <trkpt lat="42.603511" lon="0.007238">
        <ele>1808.4</ele>
        <time>2016-06-09T08:05:21Z</time>
      </trkpt>
      <trkpt lat="42.603734" lon="0.007396">
        <ele>1811.3</ele>
        <time>2016-06-09T08:05:39Z</time>
      </trkpt>
      <trkpt lat="42.603765" lon="0.007727">
        <ele>1813.7</ele>
        <time>2016-06-09T08:05:56Z</time>
      </trkpt>
      <trkpt lat="42.603643" lon="0.008027">
        <ele>1815.6</ele>
        <time>2016-06-09T08:06:13Z</time>
      </trkpt>
      <trkpt lat="42.603517" lon="0.008356">
        <ele>1818.0</ele>
        <time>2016-06-09T08:06:31Z</time>
      </trkpt>
      <trkpt lat="42.603452" lon="0.008674">
        <ele>1820.4</ele>
        <time>2016-06-09T08:06:48Z</time>
      </trkpt>
      <trkpt lat="42.603402" lon="0.009034">
        <ele>1823.3</ele>
        <time>2016-06-09T08:07:07Z</time>
      </trkpt>
      <trkpt lat="42.603380" lon="0.009377">
        <ele>1825.7</ele>
        <time>2016-06-09T08:07:25Z</time>
      </trkpt>
      <trkpt lat="42.603395" lon="0.009707">
        <ele>1828.1</ele>
        <time>2016-06-09T08:07:42Z</time>
      </trkpt>
      <trkpt lat="42.603392" lon="0.010085">
        <ele>1831.0</ele>
        <time>2016-06-09T08:08:01Z</time>
      </trkpt>
      <trkpt lat="42.603416" lon="0.010433">
        <ele>1833.4</ele>
        <time>2016-06-09T08:08:19Z</time>
      </trkpt>
      <trkpt lat="42.603471" lon="0.010754">
        <ele>1835.8</ele>
        <time>2016-06-09T08:08:36Z</time>
      </trkpt>
      <trkpt lat="42.603527" lon="0.011033">
        <ele>1837.7</ele>
        <time>2016-06-09T08:08:51Z</time>
      </trkpt>
      <trkpt lat="42.603571" lon="0.011314">
        <ele>1840.1</ele>
        <time>2016-06-09T08:09:06Z</time>
      </trkpt>
      <trkpt lat="42.603680" lon="0.011627">
        <ele>1842.5</ele>
        <time>2016-06-09T08:09:24Z</time>
      </trkpt>
      <trkpt lat="42.603774" lon="0.011952">
        <ele>1845.4</ele>
        <time>2016-06-09T08:09:43Z</time>
      </trkpt>
      <trkpt lat="42.603869" lon="0.012270">
        <ele>1847.8</ele>
        <time>2016-06-09T08:10:01Z</time>
      </trkpt>
      <trkpt lat="42.603973" lon="0.012574">
        <ele>1850.2</ele>
        <time>2016-06-09T08:10:18Z</time>
      </trkpt>
      <trkpt lat="42.604110" lon="0.012899">
        <ele>1852.1</ele>
        <time>2016-06-09T08:10:37Z</time>
      </trkpt>
      <trkpt lat="42.604237" lon="0.013111">
        <ele>1854.0</ele>
        <time>2016-06-09T08:10:51Z</time>
      </trkpt>
      <trkpt lat="42.604413" lon="0.013472">
        <ele>1856.9</ele>
        <time>2016-06-09T08:11:13Z</time>
      </trkpt>
      <trkpt lat="42.604588" lon="0.013697">
        <ele>1859.3</ele>
        <time>2016-06-09T08:11:30Z</time>
      </trkpt>
      <trkpt lat="42.604767" lon="0.013946">
        <ele>1861.3</ele>
        <time>2016-06-09T08:11:48Z</time>
      </trkpt>
      <trkpt lat="42.604813" lon="0.014236">
        <ele>1863.7</ele>
        <time>2016-06-09T08:12:04Z</time>
      </trkpt>
      <trkpt lat="42.604817" lon="0.014585">
        <ele>1866.5</ele>
        <time>2016-06-09T08:12:22Z</time>
      </trkpt>
      <trkpt lat="42.604864" lon="0.014897">
        <ele>1868.5</ele>
        <time>2016-06-09T08:12:38Z</time>
      </trkpt>
      <trkpt lat="42.605002" lon="0.015201">
        <ele>1871.3</ele>
        <time>2016-06-09T08:12:56Z</time>
      </trkpt>
      <trkpt lat="42.605112" lon="0.015375">
        <ele>1872.8</ele>
        <time>2016-06-09T08:13:07Z</time>
      </trkpt>
      <trkpt lat="42.605230" lon="0.015499">
        <ele>1874.2</ele>
        <time>2016-06-09T08:13:17Z</time>
      </trkpt>
      <trkpt lat="42.605461" lon="0.015462">
        <ele>1876.2</ele>
        <time>2016-06-09T08:13:33Z</time>
      </trkpt>
      <trkpt lat="42.605692" lon="0.015256">
        <ele>1878.1</ele>
        <time>2016-06-09T08:13:51Z</time>
      </trkpt>
      <trkpt lat="42.605961" lon="0.015188">
        <ele>1880.5</ele>
        <time>2016-06-09T08:14:09Z</time>
      </trkpt>
      <trkpt lat="42.606215" lon="0.015122">
        <ele>1883.4</ele>
        <time>2016-06-09T08:14:27Z</time>
      </trkpt>
      <trkpt lat="42.606272" lon="0.015050">
        <ele>1883.8</ele>
        <time>2016-06-09T08:14:42Z</time>
      </trkpt>
      <trkpt lat="42.606301" lon="0.014977">
        <ele>1884.8</ele>
        <time>2016-06-09T08:14:55Z</time>
      </trkpt>
      <trkpt lat="42.606331" lon="0.014694">
        <ele>1890.1</ele>
        <time>2016-06-09T08:26:09Z</time>
      </trkpt>
      <trkpt lat="42.606282" lon="0.014392">
        <ele>1892.0</ele>
        <time>2016-06-09T08:26:26Z</time>
      </trkpt>
      <trkpt lat="42.606235" lon="0.013987">
        <ele>1894.4</ele>
        <time>2016-06-09T08:26:47Z</time>
      </trkpt>
      <trkpt lat="42.606189" lon="0.013635">
        <ele>1896.3</ele>
        <time>2016-06-09T08:27:06Z</time>
      </trkpt>
      <trkpt lat="42.606195" lon="0.013306">
        <ele>1898.7</ele>
        <time>2016-06-09T08:27:24Z</time>
      </trkpt>
      <trkpt lat="42.606206" lon="0.012971">
        <ele>1901.6</ele>
        <time>2016-06-09T08:27:43Z</time>
      </trkpt>
      <trkpt lat="42.606230" lon="0.012595">
        <ele>1904.5</ele>
        <time>2016-06-09T08:28:03Z</time>
      </trkpt>
      <trkpt lat="42.606217" lon="0.012190">
        <ele>1906.9</ele>
        <time>2016-06-09T08:28:24Z</time>
      </trkpt>
      <trkpt lat="42.606226" lon="0.011798">
        <ele>1908.4</ele>
        <time>2016-06-09T08:28:44Z</time>
      </trkpt>
      <trkpt lat="42.606268" lon="0.011385">
        <ele>1909.8</ele>
        <time>2016-06-09T08:29:04Z</time>
      </trkpt>
      <trkpt lat="42.606509" lon="0.011325">
        <ele>1911.7</ele>
        <time>2016-06-09T08:29:21Z</time>
      </trkpt>
      <trkpt lat="42.606749" lon="0.011500">
        <ele>1914.1</ele>
        <time>2016-06-09T08:29:40Z</time>
      </trkpt>
      <trkpt lat="42.606953" lon="0.011739">
        <ele>1916.5</ele>
        <time>2016-06-09T08:29:59Z</time>
      </trkpt>
      <trkpt lat="42.607155" lon="0.011914">
        <ele>1918.9</ele>
        <time>2016-06-09T08:30:16Z</time>
      </trkpt>
      <trkpt lat="42.607350" lon="0.012062">
        <ele>1920.4</ele>
        <time>2016-06-09T08:30:32Z</time>
      </trkpt>
      <trkpt lat="42.607615" lon="0.012186">
        <ele>1923.3</ele>
        <time>2016-06-09T08:30:52Z</time>
      </trkpt>
      <trkpt lat="42.607879" lon="0.012145">
        <ele>1925.7</ele>
        <time>2016-06-09T08:31:11Z</time>
      </trkpt>
      <trkpt lat="42.608138" lon="0.012057">
        <ele>1928.5</ele>
        <time>2016-06-09T08:31:30Z</time>
      </trkpt>
      <trkpt lat="42.608382" lon="0.011950">
        <ele>1931.0</ele>
        <time>2016-06-09T08:31:48Z</time>
      </trkpt>
      <trkpt lat="42.608664" lon="0.011783">
        <ele>1934.3</ele>
        <time>2016-06-09T08:32:09Z</time>
      </trkpt>
      <trkpt lat="42.608892" lon="0.011659">
        <ele>1935.8</ele>
        <time>2016-06-09T08:32:26Z</time>
      </trkpt>
      <trkpt lat="42.609133" lon="0.011457">
        <ele>1939.1</ele>
        <time>2016-06-09T08:32:45Z</time>
      </trkpt>
      <trkpt lat="42.609325" lon="0.011234">
        <ele>1941.0</ele>
        <time>2016-06-09T08:33:03Z</time>
      </trkpt>
      <trkpt lat="42.609495" lon="0.010969">
        <ele>1943.9</ele>
        <time>2016-06-09T08:33:21Z</time>
      </trkpt>
      <trkpt lat="42.609597" lon="0.010653">
        <ele>1946.3</ele>
        <time>2016-06-09T08:33:39Z</time>
      </trkpt>
      <trkpt lat="42.609661" lon="0.010291">
        <ele>1948.7</ele>
        <time>2016-06-09T08:33:58Z</time>
      </trkpt>
      <trkpt lat="42.609691" lon="0.009904">
        <ele>1950.7</ele>
        <time>2016-06-09T08:34:18Z</time>
      </trkpt>
      <trkpt lat="42.609685" lon="0.009513">
        <ele>1953.1</ele>
        <time>2016-06-09T08:34:37Z</time>
      </trkpt>
      <trkpt lat="42.609636" lon="0.009066">
        <ele>1955.5</ele>
        <time>2016-06-09T08:34:59Z</time>
      </trkpt>
      <trkpt lat="42.609642" lon="0.008722">
        <ele>1957.4</ele>
        <time>2016-06-09T08:35:17Z</time>
      </trkpt>
      <trkpt lat="42.609667" lon="0.008344">
        <ele>1960.3</ele>
        <time>2016-06-09T08:35:37Z</time>
      </trkpt>
      <trkpt lat="42.609709" lon="0.008037">
        <ele>1962.7</ele>
        <time>2016-06-09T08:35:54Z</time>
      </trkpt>
      <trkpt lat="42.609803" lon="0.007700">
        <ele>1965.6</ele>
        <time>2016-06-09T08:36:13Z</time>
      </trkpt>
      <trkpt lat="42.609889" lon="0.007362">
        <ele>1967.5</ele>
        <time>2016-06-09T08:36:31Z</time>
      </trkpt>
      <trkpt lat="42.610009" lon="0.007096">
        <ele>1969.9</ele>
        <time>2016-06-09T08:36:47Z</time>
      </trkpt>
      <trkpt lat="42.610196" lon="0.006844">
        <ele>1972.3</ele>
        <time>2016-06-09T08:37:05Z</time>
      </trkpt>
      <trkpt lat="42.610299" lon="0.006780">
        <ele>1973.2</ele>
        <time>2016-06-09T08:37:13Z</time>
      </trkpt>
      <trkpt lat="42.610501" lon="0.006566">
        <ele>1976.1</ele>
        <time>2016-06-09T08:37:31Z</time>
      </trkpt>
      <trkpt lat="42.610690" lon="0.006277">
        <ele>1979.0</ele>
        <time>2016-06-09T08:37:50Z</time>
      </trkpt>
      <trkpt lat="42.610762" lon="0.005984">
        <ele>1980.5</ele>
        <time>2016-06-09T08:38:06Z</time>
      </trkpt>
      <trkpt lat="42.610818" lon="0.005686">
        <ele>1981.9</ele>
        <time>2016-06-09T08:38:21Z</time>
      </trkpt>
      <trkpt lat="42.610890" lon="0.005370">
        <ele>1983.8</ele>
        <time>2016-06-09T08:38:37Z</time>
      </trkpt>
      <trkpt lat="42.610991" lon="0.005049">
        <ele>1986.2</ele>
        <time>2016-06-09T08:38:54Z</time>
      </trkpt>
      <trkpt lat="42.611104" lon="0.004743">
        <ele>1988.1</ele>
        <time>2016-06-09T08:39:10Z</time>
      </trkpt>
      <trkpt lat="42.611249" lon="0.004403">
        <ele>1990.1</ele>
        <time>2016-06-09T08:39:28Z</time>
      </trkpt>
      <trkpt lat="42.611415" lon="0.004048">
        <ele>1991.0</ele>
        <time>2016-06-09T08:39:47Z</time>
      </trkpt>
      <trkpt lat="42.611604" lon="0.003804">
        <ele>1993.0</ele>
        <time>2016-06-09T08:40:03Z</time>
      </trkpt>
      <trkpt lat="42.611779" lon="0.003585">
        <ele>1993.9</ele>
        <time>2016-06-09T08:40:18Z</time>
      </trkpt>
      <trkpt lat="42.611963" lon="0.003396">
        <ele>1995.4</ele>
        <time>2016-06-09T08:40:33Z</time>
      </trkpt>
      <trkpt lat="42.612182" lon="0.003159">
        <ele>1997.3</ele>
        <time>2016-06-09T08:40:51Z</time>
      </trkpt>
      <trkpt lat="42.612327" lon="0.003001">
        <ele>1998.7</ele>
        <time>2016-06-09T08:41:04Z</time>
      </trkpt>
      <trkpt lat="42.612548" lon="0.002771">
        <ele>2000.2</ele>
        <time>2016-06-09T08:41:22Z</time>
      </trkpt>
      <trkpt lat="42.612771" lon="0.002562">
        <ele>2003.0</ele>
        <time>2016-06-09T08:41:40Z</time>
      </trkpt>
      <trkpt lat="42.612963" lon="0.002352">
        <ele>2005.5</ele>
        <time>2016-06-09T08:41:57Z</time>
      </trkpt>
      <trkpt lat="42.613196" lon="0.002119">
        <ele>2007.9</ele>
        <time>2016-06-09T08:42:16Z</time>
      </trkpt>
      <trkpt lat="42.613449" lon="0.001908">
        <ele>2009.8</ele>
        <time>2016-06-09T08:42:35Z</time>
      </trkpt>
      <trkpt lat="42.613677" lon="0.001743">
        <ele>2011.2</ele>
        <time>2016-06-09T08:42:51Z</time>
      </trkpt>
      <trkpt lat="42.613845" lon="0.001514">
        <ele>2014.1</ele>
        <time>2016-06-09T08:43:07Z</time>
      </trkpt>
      <trkpt lat="42.613988" lon="0.001264">
        <ele>2016.0</ele>
        <time>2016-06-09T08:43:23Z</time>
      </trkpt>
      <trkpt lat="42.614209" lon="0.000980">
        <ele>2018.4</ele>
        <time>2016-06-09T08:43:43Z</time>
      </trkpt>
      <trkpt lat="42.614397" lon="0.000698">
        <ele>2020.8</ele>
        <time>2016-06-09T08:44:01Z</time>
      </trkpt>
      <trkpt lat="42.614600" lon="0.000413">
        <ele>2022.8</ele>
        <time>2016-06-09T08:44:20Z</time>
      </trkpt>
      <trkpt lat="42.614824" lon="0.000100">
        <ele>2024.7</ele>
        <time>2016-06-09T08:44:40Z</time>
      </trkpt>
      <trkpt lat="42.615050" lon="-0.000215">
        <ele>2027.1</ele>
        <time>2016-06-09T08:45:01Z</time>
      </trkpt>
      <trkpt lat="42.615243" lon="-0.000512">
        <ele>2029.0</ele>
        <time>2016-06-09T08:45:20Z</time>
      </trkpt>
      <trkpt lat="42.615437" lon="-0.000835">
        <ele>2031.9</ele>
        <time>2016-06-09T08:45:40Z</time>
      </trkpt>
      <trkpt lat="42.615584" lon="-0.001204">
        <ele>2033.8</ele>
        <time>2016-06-09T08:46:00Z</time>
      </trkpt>
      <trkpt lat="42.615751" lon="-0.001483">
        <ele>2035.7</ele>
        <time>2016-06-09T08:46:17Z</time>
      </trkpt>
      <trkpt lat="42.616003" lon="-0.001790">
        <ele>2038.1</ele>
        <time>2016-06-09T08:46:38Z</time>
      </trkpt>
      <trkpt lat="42.616214" lon="-0.001994">
        <ele>2040.1</ele>
        <time>2016-06-09T08:46:54Z</time>
      </trkpt>
      <trkpt lat="42.616438" lon="-0.002171">
        <ele>2041.5</ele>
        <time>2016-06-09T08:47:11Z</time>
      </trkpt>
      <trkpt lat="42.616645" lon="-0.002312">
        <ele>2044.4</ele>
        <time>2016-06-09T08:47:26Z</time>
      </trkpt>
      <trkpt lat="42.616893" lon="-0.002418">
        <ele>2045.8</ele>
        <time>2016-06-09T08:47:43Z</time>
      </trkpt>
      <trkpt lat="42.617199" lon="-0.002478">
        <ele>2048.2</ele>
        <time>2016-06-09T08:48:03Z</time>
      </trkpt>
      <trkpt lat="42.617513" lon="-0.002542">
        <ele>2051.1</ele>
        <time>2016-06-09T08:48:23Z</time>
      </trkpt>
      <trkpt lat="42.617781" lon="-0.002560">
        <ele>2053.5</ele>
        <time>2016-06-09T08:48:40Z</time>
      </trkpt>
      <trkpt lat="42.618082" lon="-0.002546">
        <ele>2055.9</ele>
        <time>2016-06-09T08:49:00Z</time>
      </trkpt>
      <trkpt lat="42.618404" lon="-0.002521">
        <ele>2058.3</ele>
        <time>2016-06-09T08:49:21Z</time>
      </trkpt>
      <trkpt lat="42.618706" lon="-0.002438">
        <ele>2060.7</ele>
        <time>2016-06-09T08:49:41Z</time>
      </trkpt>
      <trkpt lat="42.619041" lon="-0.002438">
        <ele>2063.1</ele>
        <time>2016-06-09T08:50:02Z</time>
      </trkpt>
      <trkpt lat="42.619318" lon="-0.002278">
        <ele>2066.0</ele>
        <time>2016-06-09T08:50:21Z</time>
      </trkpt>
      <trkpt lat="42.619483" lon="-0.002263">
        <ele>2066.5</ele>
        <time>2016-06-09T08:50:31Z</time>
      </trkpt>
      <trkpt lat="42.619512" lon="-0.002328">
        <ele>2067.0</ele>
        <time>2016-06-09T08:50:46Z</time>
      </trkpt>
      <trkpt lat="42.619513" lon="-0.002547">
        <ele>2067.0</ele>
        <time>2016-06-09T08:51:52Z</time>
      </trkpt>
      <trkpt lat="42.619498" lon="-0.002808">
        <ele>2067.0</ele>
        <time>2016-06-09T08:52:04Z</time>
      </trkpt>
      <trkpt lat="42.619563" lon="-0.003166">
        <ele>2068.9</ele>
        <time>2016-06-09T08:52:21Z</time>
      </trkpt>
      <trkpt lat="42.619711" lon="-0.003395">
        <ele>2071.3</ele>
        <time>2016-06-09T08:52:36Z</time>
      </trkpt>
      <trkpt lat="42.619851" lon="-0.003663">
        <ele>2073.7</ele>
        <time>2016-06-09T08:52:53Z</time>
      </trkpt>
      <trkpt lat="42.619982" lon="-0.003956">
        <ele>2076.1</ele>
        <time>2016-06-09T08:53:11Z</time>
      </trkpt>
      <trkpt lat="42.620167" lon="-0.004199">
        <ele>2078.0</ele>
        <time>2016-06-09T08:53:28Z</time>
      </trkpt>
      <trkpt lat="42.620394" lon="-0.004384">
        <ele>2080.4</ele>
        <time>2016-06-09T08:53:46Z</time>
      </trkpt>
      <trkpt lat="42.620652" lon="-0.004605">
        <ele>2082.4</ele>
        <time>2016-06-09T08:54:06Z</time>
      </trkpt>
      <trkpt lat="42.620913" lon="-0.004799">
        <ele>2084.8</ele>
        <time>2016-06-09T08:54:25Z</time>
      </trkpt>
      <trkpt lat="42.621148" lon="-0.004964">
        <ele>2087.2</ele>
        <time>2016-06-09T08:54:42Z</time>
      </trkpt>
      <trkpt lat="42.621414" lon="-0.005146">
        <ele>2089.1</ele>
        <time>2016-06-09T08:55:01Z</time>
      </trkpt>
      <trkpt lat="42.621672" lon="-0.005351">
        <ele>2091.5</ele>
        <time>2016-06-09T08:55:20Z</time>
      </trkpt>
      <trkpt lat="42.621925" lon="-0.005555">
        <ele>2094.4</ele>
        <time>2016-06-09T08:55:40Z</time>
      </trkpt>
      <trkpt lat="42.622175" lon="-0.005728">
        <ele>2096.3</ele>
        <time>2016-06-09T08:55:59Z</time>
      </trkpt>
      <trkpt lat="42.622432" lon="-0.005842">
        <ele>2098.7</ele>
        <time>2016-06-09T08:56:17Z</time>
      </trkpt>
      <trkpt lat="42.622694" lon="-0.005954">
        <ele>2100.6</ele>
        <time>2016-06-09T08:56:34Z</time>
      </trkpt>
      <trkpt lat="42.622810" lon="-0.006088">
        <ele>2101.6</ele>
        <time>2016-06-09T08:56:44Z</time>
      </trkpt>
      <trkpt lat="42.622845" lon="-0.006194">
        <ele>2103.0</ele>
        <time>2016-06-09T08:56:50Z</time>
      </trkpt>
      <trkpt lat="42.622930" lon="-0.006521">
        <ele>2105.4</ele>
        <time>2016-06-09T08:57:07Z</time>
      </trkpt>
      <trkpt lat="42.622982" lon="-0.006843">
        <ele>2106.9</ele>
        <time>2016-06-09T08:57:23Z</time>
      </trkpt>
      <trkpt lat="42.622975" lon="-0.007169">
        <ele>2108.8</ele>
        <time>2016-06-09T08:57:38Z</time>
      </trkpt>
      <trkpt lat="42.622982" lon="-0.007446">
        <ele>2110.7</ele>
        <time>2016-06-09T08:57:53Z</time>
      </trkpt>
      <trkpt lat="42.623077" lon="-0.007817">
        <ele>2112.6</ele>
        <time>2016-06-09T08:58:12Z</time>
      </trkpt>
      <trkpt lat="42.623131" lon="-0.008210">
        <ele>2114.6</ele>
        <time>2016-06-09T08:58:31Z</time>
      </trkpt>
      <trkpt lat="42.623196" lon="-0.008576">
        <ele>2117.0</ele>
        <time>2016-06-09T08:58:49Z</time>
      </trkpt>
      <trkpt lat="42.623226" lon="-0.008929">
        <ele>2118.9</ele>
        <time>2016-06-09T08:59:06Z</time>
      </trkpt>
      <trkpt lat="42.623214" lon="-0.009261">
        <ele>2120.8</ele>
        <time>2016-06-09T08:59:22Z</time>
      </trkpt>
      <trkpt lat="42.623189" lon="-0.009634">
        <ele>2122.7</ele>
        <time>2016-06-09T08:59:40Z</time>
      </trkpt>
      <trkpt lat="42.623220" lon="-0.010029">
        <ele>2124.7</ele>
        <time>2016-06-09T08:59:59Z</time>
      </trkpt>
      <trkpt lat="42.623267" lon="-0.010416">
        <ele>2127.5</ele>
        <time>2016-06-09T09:00:17Z</time>
      </trkpt>
      <trkpt lat="42.623349" lon="-0.010682">
        <ele>2129.5</ele>
        <time>2016-06-09T09:00:32Z</time>
      </trkpt>
      <trkpt lat="42.623443" lon="-0.011029">
        <ele>2130.9</ele>
        <time>2016-06-09T09:00:50Z</time>
      </trkpt>
      <trkpt lat="42.623548" lon="-0.011352">
        <ele>2133.3</ele>
        <time>2016-06-09T09:01:07Z</time>
      </trkpt>
      <trkpt lat="42.623666" lon="-0.011620">
        <ele>2135.2</ele>
        <time>2016-06-09T09:01:22Z</time>
      </trkpt>
      <trkpt lat="42.623854" lon="-0.011980">
        <ele>2137.2</ele>
        <time>2016-06-09T09:01:43Z</time>
      </trkpt>
      <trkpt lat="42.624030" lon="-0.012271">
        <ele>2140.0</ele>
        <time>2016-06-09T09:02:01Z</time>
      </trkpt>
      <trkpt lat="42.624073" lon="-0.012359">
        <ele>2140.5</ele>
        <time>2016-06-09T09:02:06Z</time>
      </trkpt>
      <trkpt lat="42.624140" lon="-0.012475">
        <ele>2141.5</ele>
        <time>2016-06-09T09:02:13Z</time>
      </trkpt>
      <trkpt lat="42.624328" lon="-0.012796">
        <ele>2143.9</ele>
        <time>2016-06-09T09:02:33Z</time>
      </trkpt>
      <trkpt lat="42.624477" lon="-0.013040">
        <ele>2145.3</ele>
        <time>2016-06-09T09:02:48Z</time>
      </trkpt>
      <trkpt lat="42.624656" lon="-0.013291">
        <ele>2146.8</ele>
        <time>2016-06-09T09:03:04Z</time>
      </trkpt>
      <trkpt lat="42.624801" lon="-0.013618">
        <ele>2149.2</ele>
        <time>2016-06-09T09:03:22Z</time>
      </trkpt>
      <trkpt lat="42.624912" lon="-0.013889">
        <ele>2151.1</ele>
        <time>2016-06-09T09:03:37Z</time>
      </trkpt>
      <trkpt lat="42.625053" lon="-0.014219">
        <ele>2153.5</ele>
        <time>2016-06-09T09:03:56Z</time>
      </trkpt>
      <trkpt lat="42.625205" lon="-0.014494">
        <ele>2155.9</ele>
        <time>2016-06-09T09:04:13Z</time>
      </trkpt>
      <trkpt lat="42.625366" lon="-0.014748">
        <ele>2157.8</ele>
        <time>2016-06-09T09:04:29Z</time>
      </trkpt>
      <trkpt lat="42.625586" lon="-0.015116">
        <ele>2160.7</ele>
        <time>2016-06-09T09:04:51Z</time>
      </trkpt>
      <trkpt lat="42.625729" lon="-0.015358">
        <ele>2162.1</ele>
        <time>2016-06-09T09:05:05Z</time>
      </trkpt>
      <trkpt lat="42.625894" lon="-0.015700">
        <ele>2163.6</ele>
        <time>2016-06-09T09:05:23Z</time>
      </trkpt>
      <trkpt lat="42.626014" lon="-0.015970">
        <ele>2164.6</ele>
        <time>2016-06-09T09:05:37Z</time>
      </trkpt>
      <trkpt lat="42.626186" lon="-0.016362">
        <ele>2167.0</ele>
        <time>2016-06-09T09:05:57Z</time>
      </trkpt>
      <trkpt lat="42.626247" lon="-0.016658">
        <ele>2167.4</ele>
        <time>2016-06-09T09:06:11Z</time>
      </trkpt>
      <trkpt lat="42.626333" lon="-0.017073">
        <ele>2168.9</ele>
        <time>2016-06-09T09:06:29Z</time>
      </trkpt>
      <trkpt lat="42.626421" lon="-0.017467">
        <ele>2170.8</ele>
        <time>2016-06-09T09:06:46Z</time>
      </trkpt>
      <trkpt lat="42.626464" lon="-0.017924">
        <ele>2172.2</ele>
        <time>2016-06-09T09:07:03Z</time>
      </trkpt>
      <trkpt lat="42.626413" lon="-0.018213">
        <ele>2170.8</ele>
        <time>2016-06-09T09:07:10Z</time>
      </trkpt>
      <trkpt lat="42.626392" lon="-0.018362">
        <ele>2170.3</ele>
        <time>2016-06-09T09:07:13Z</time>
      </trkpt>
      <trkpt lat="42.626414" lon="-0.018740">
        <ele>2168.4</ele>
        <time>2016-06-09T09:07:19Z</time>
      </trkpt>
      <trkpt lat="42.626553" lon="-0.019569">
        <ele>2164.6</ele>
        <time>2016-06-09T09:07:30Z</time>
      </trkpt>
      <trkpt lat="42.626670" lon="-0.020011">
        <ele>2161.2</ele>
        <time>2016-06-09T09:07:37Z</time>
      </trkpt>
      <trkpt lat="42.626715" lon="-0.020129">
        <ele>2160.7</ele>
        <time>2016-06-09T09:08:14Z</time>
      </trkpt>
      <trkpt lat="42.626805" lon="-0.020303">
        <ele>2160.2</ele>
        <time>2016-06-09T09:08:18Z</time>
      </trkpt>
      <trkpt lat="42.626885" lon="-0.020541">
        <ele>2158.3</ele>
        <time>2016-06-09T09:08:22Z</time>
      </trkpt>
      <trkpt lat="42.626967" lon="-0.020738">
        <ele>2157.8</ele>
        <time>2016-06-09T09:08:25Z</time>
      </trkpt>
      <trkpt lat="42.627320" lon="-0.021290">
        <ele>2154.0</ele>
        <time>2016-06-09T09:08:33Z</time>
      </trkpt>
      <trkpt lat="42.627582" lon="-0.021966">
        <ele>2150.6</ele>
        <time>2016-06-09T09:08:40Z</time>
      </trkpt>
      <trkpt lat="42.627806" lon="-0.022577">
        <ele>2147.2</ele>
        <time>2016-06-09T09:08:46Z</time>
      </trkpt>
      <trkpt lat="42.628102" lon="-0.023374">
        <ele>2143.9</ele>
        <time>2016-06-09T09:08:54Z</time>
      </trkpt>
      <trkpt lat="42.628384" lon="-0.024050">
        <ele>2140.5</ele>
        <time>2016-06-09T09:09:01Z</time>
      </trkpt>
      <trkpt lat="42.628544" lon="-0.024699">
        <ele>2137.6</ele>
        <time>2016-06-09T09:09:07Z</time>
      </trkpt>
      <trkpt lat="42.628593" lon="-0.024914">
        <ele>2136.7</ele>
        <time>2016-06-09T09:09:09Z</time>
      </trkpt>
      <trkpt lat="42.628732" lon="-0.025671">
        <ele>2133.3</ele>
        <time>2016-06-09T09:09:16Z</time>
      </trkpt>
      <trkpt lat="42.628774" lon="-0.025885">
        <ele>2132.3</ele>
        <time>2016-06-09T09:09:18Z</time>
      </trkpt>
      <trkpt lat="42.628896" lon="-0.026521">
        <ele>2129.9</ele>
        <time>2016-06-09T09:09:24Z</time>
      </trkpt>
      <trkpt lat="42.628939" lon="-0.026724">
        <ele>2128.0</ele>
        <time>2016-06-09T09:09:26Z</time>
      </trkpt>
      <trkpt lat="42.628992" lon="-0.027450">
        <ele>2124.7</ele>
        <time>2016-06-09T09:09:35Z</time>
      </trkpt>
      <trkpt lat="42.629076" lon="-0.027525">
        <ele>2124.7</ele>
        <time>2016-06-09T09:09:40Z</time>
      </trkpt>
      <trkpt lat="42.629265" lon="-0.027371">
        <ele>2128.5</ele>
        <time>2016-06-09T09:14:12Z</time>
      </trkpt>
      <trkpt lat="42.629110" lon="-0.027474">
        <ele>2127.1</ele>
        <time>2016-06-09T09:33:51Z</time>
      </trkpt>
      <trkpt lat="42.629055" lon="-0.027506">
        <ele>2126.6</ele>
        <time>2016-06-09T09:34:09Z</time>
      </trkpt>
      <trkpt lat="42.629005" lon="-0.027616">
        <ele>2126.1</ele>
        <time>2016-06-09T09:34:33Z</time>
      </trkpt>
      <trkpt lat="42.629002" lon="-0.027700">
        <ele>2126.1</ele>
        <time>2016-06-09T09:34:38Z</time>
      </trkpt>
      <trkpt lat="42.628995" lon="-0.028066">
        <ele>2126.1</ele>
        <time>2016-06-09T09:34:54Z</time>
      </trkpt>
      <trkpt lat="42.629011" lon="-0.028267">
        <ele>2127.5</ele>
        <time>2016-06-09T09:35:03Z</time>
      </trkpt>
      <trkpt lat="42.629041" lon="-0.028672">
        <ele>2127.5</ele>
        <time>2016-06-09T09:35:19Z</time>
      </trkpt>
      <trkpt lat="42.629047" lon="-0.029183">
        <ele>2127.5</ele>
        <time>2016-06-09T09:35:39Z</time>
      </trkpt>
      <trkpt lat="42.629047" lon="-0.029551">
        <ele>2127.5</ele>
        <time>2016-06-09T09:35:53Z</time>
      </trkpt>
      <trkpt lat="42.629052" lon="-0.029925">
        <ele>2128.0</ele>
        <time>2016-06-09T09:36:09Z</time>
      </trkpt>
      <trkpt lat="42.629053" lon="-0.030184">
        <ele>2129.0</ele>
        <time>2016-06-09T09:36:21Z</time>
      </trkpt>
      <trkpt lat="42.629035" lon="-0.030257">
        <ele>2129.0</ele>
        <time>2016-06-09T09:36:25Z</time>
      </trkpt>
      <trkpt lat="42.629008" lon="-0.030627">
        <ele>2130.9</ele>
        <time>2016-06-09T09:36:43Z</time>
      </trkpt>
      <trkpt lat="42.628984" lon="-0.030966">
        <ele>2132.3</ele>
        <time>2016-06-09T09:36:59Z</time>
      </trkpt>
      <trkpt lat="42.629035" lon="-0.031358">
        <ele>2133.3</ele>
        <time>2016-06-09T09:37:16Z</time>
      </trkpt>
      <trkpt lat="42.629115" lon="-0.031701">
        <ele>2133.8</ele>
        <time>2016-06-09T09:37:31Z</time>
      </trkpt>
      <trkpt lat="42.629301" lon="-0.032074">
        <ele>2134.3</ele>
        <time>2016-06-09T09:37:50Z</time>
      </trkpt>
      <trkpt lat="42.629477" lon="-0.032338">
        <ele>2134.7</ele>
        <time>2016-06-09T09:38:05Z</time>
      </trkpt>
      <trkpt lat="42.629688" lon="-0.032651">
        <ele>2134.7</ele>
        <time>2016-06-09T09:38:21Z</time>
      </trkpt>
      <trkpt lat="42.629891" lon="-0.032878">
        <ele>2134.7</ele>
        <time>2016-06-09T09:38:34Z</time>
      </trkpt>
      <trkpt lat="42.630176" lon="-0.033189">
        <ele>2134.7</ele>
        <time>2016-06-09T09:38:52Z</time>
      </trkpt>
      <trkpt lat="42.630350" lon="-0.033446">
        <ele>2134.7</ele>
        <time>2016-06-09T09:39:04Z</time>
      </trkpt>
      <trkpt lat="42.630626" lon="-0.033787">
        <ele>2134.7</ele>
        <time>2016-06-09T09:39:21Z</time>
      </trkpt>
      <trkpt lat="42.630845" lon="-0.034126">
        <ele>2134.7</ele>
        <time>2016-06-09T09:39:37Z</time>
      </trkpt>
      <trkpt lat="42.630980" lon="-0.034455">
        <ele>2135.2</ele>
        <time>2016-06-09T09:39:53Z</time>
      </trkpt>
      <trkpt lat="42.631111" lon="-0.034780">
        <ele>2136.2</ele>
        <time>2016-06-09T09:40:10Z</time>
      </trkpt>
      <trkpt lat="42.631207" lon="-0.035098">
        <ele>2137.6</ele>
        <time>2016-06-09T09:40:26Z</time>
      </trkpt>
      <trkpt lat="42.631219" lon="-0.035207">
        <ele>2137.6</ele>
        <time>2016-06-09T09:40:31Z</time>
      </trkpt>
      <trkpt lat="42.631320" lon="-0.035603">
        <ele>2139.1</ele>
        <time>2016-06-09T09:40:50Z</time>
      </trkpt>
      <trkpt lat="42.631329" lon="-0.035926">
        <ele>2140.0</ele>
        <time>2016-06-09T09:41:04Z</time>
      </trkpt>
      <trkpt lat="42.631371" lon="-0.036181">
        <ele>2141.0</ele>
        <time>2016-06-09T09:41:17Z</time>
      </trkpt>
      <trkpt lat="42.631372" lon="-0.036272">
        <ele>2141.5</ele>
        <time>2016-06-09T09:41:22Z</time>
      </trkpt>
      <trkpt lat="42.631411" lon="-0.036395">
        <ele>2142.0</ele>
        <time>2016-06-09T09:41:29Z</time>
      </trkpt>
      <trkpt lat="42.631495" lon="-0.036698">
        <ele>2143.4</ele>
        <time>2016-06-09T09:41:46Z</time>
      </trkpt>
      <trkpt lat="42.631578" lon="-0.037007">
        <ele>2144.8</ele>
        <time>2016-06-09T09:42:02Z</time>
      </trkpt>
      <trkpt lat="42.631709" lon="-0.037342">
        <ele>2145.8</ele>
        <time>2016-06-09T09:42:19Z</time>
      </trkpt>
      <trkpt lat="42.631810" lon="-0.037643">
        <ele>2147.2</ele>
        <time>2016-06-09T09:42:35Z</time>
      </trkpt>
      <trkpt lat="42.631823" lon="-0.037901">
        <ele>2148.2</ele>
        <time>2016-06-09T09:42:48Z</time>
      </trkpt>
      <trkpt lat="42.631858" lon="-0.038217">
        <ele>2149.2</ele>
        <time>2016-06-09T09:43:03Z</time>
      </trkpt>
      <trkpt lat="42.631907" lon="-0.038569">
        <ele>2150.1</ele>
        <time>2016-06-09T09:43:20Z</time>
      </trkpt>
      <trkpt lat="42.632026" lon="-0.038904">
        <ele>2151.6</ele>
        <time>2016-06-09T09:43:38Z</time>
      </trkpt>
      <trkpt lat="42.632158" lon="-0.039225">
        <ele>2153.0</ele>
        <time>2016-06-09T09:43:55Z</time>
      </trkpt>
      <trkpt lat="42.632261" lon="-0.039543">
        <ele>2154.0</ele>
        <time>2016-06-09T09:44:10Z</time>
      </trkpt>
      <trkpt lat="42.632317" lon="-0.039715">
        <ele>2154.5</ele>
        <time>2016-06-09T09:44:18Z</time>
      </trkpt>
      <trkpt lat="42.632348" lon="-0.039849">
        <ele>2154.9</ele>
        <time>2016-06-09T09:44:24Z</time>
      </trkpt>
      <trkpt lat="42.632260" lon="-0.040201">
        <ele>2156.4</ele>
        <time>2016-06-09T09:44:41Z</time>
      </trkpt>
      <trkpt lat="42.632209" lon="-0.040303">
        <ele>2156.9</ele>
        <time>2016-06-09T09:44:47Z</time>
      </trkpt>
      <trkpt lat="42.632213" lon="-0.040439">
        <ele>2157.3</ele>
        <time>2016-06-09T09:44:54Z</time>
      </trkpt>
      <trkpt lat="42.632257" lon="-0.040541">
        <ele>2157.8</ele>
        <time>2016-06-09T09:45:00Z</time>
      </trkpt>
      <trkpt lat="42.632280" lon="-0.040909">
        <ele>2160.2</ele>
        <time>2016-06-09T09:45:19Z</time>
      </trkpt>
      <trkpt lat="42.632330" lon="-0.041206">
        <ele>2162.6</ele>
        <time>2016-06-09T09:45:35Z</time>
      </trkpt>
      <trkpt lat="42.632470" lon="-0.041517">
        <ele>2165.0</ele>
        <time>2016-06-09T09:45:54Z</time>
      </trkpt>
      <trkpt lat="42.632512" lon="-0.041836">
        <ele>2166.5</ele>
        <time>2016-06-09T09:46:11Z</time>
      </trkpt>
      <trkpt lat="42.632638" lon="-0.042170">
        <ele>2168.9</ele>
        <time>2016-06-09T09:46:30Z</time>
      </trkpt>
      <trkpt lat="42.632777" lon="-0.042465">
        <ele>2170.8</ele>
        <time>2016-06-09T09:46:48Z</time>
      </trkpt>
      <trkpt lat="42.632901" lon="-0.042730">
        <ele>2172.2</ele>
        <time>2016-06-09T09:47:04Z</time>
      </trkpt>
      <trkpt lat="42.633036" lon="-0.043089">
        <ele>2175.1</ele>
        <time>2016-06-09T09:47:25Z</time>
      </trkpt>
      <trkpt lat="42.633061" lon="-0.043159">
        <ele>2175.1</ele>
        <time>2016-06-09T09:47:29Z</time>
      </trkpt>
      <trkpt lat="42.633215" lon="-0.043449">
        <ele>2178.0</ele>
        <time>2016-06-09T09:47:48Z</time>
      </trkpt>
      <trkpt lat="42.633331" lon="-0.043720">
        <ele>2179.9</ele>
        <time>2016-06-09T09:48:05Z</time>
      </trkpt>
      <trkpt lat="42.633494" lon="-0.043979">
        <ele>2181.9</ele>
        <time>2016-06-09T09:48:23Z</time>
      </trkpt>
      <trkpt lat="42.633639" lon="-0.044227">
        <ele>2184.3</ele>
        <time>2016-06-09T09:48:40Z</time>
      </trkpt>
      <trkpt lat="42.633767" lon="-0.044467">
        <ele>2186.2</ele>
        <time>2016-06-09T09:48:55Z</time>
      </trkpt>
      <trkpt lat="42.633930" lon="-0.044727">
        <ele>2187.6</ele>
        <time>2016-06-09T09:49:12Z</time>
      </trkpt>
      <trkpt lat="42.634101" lon="-0.045018">
        <ele>2190.0</ele>
        <time>2016-06-09T09:49:30Z</time>
      </trkpt>
      <trkpt lat="42.634256" lon="-0.045402">
        <ele>2190.0</ele>
        <time>2016-06-09T09:49:47Z</time>
      </trkpt>
      <trkpt lat="42.634438" lon="-0.045821">
        <ele>2190.5</ele>
        <time>2016-06-09T09:50:03Z</time>
      </trkpt>
      <trkpt lat="42.634598" lon="-0.046302">
        <ele>2190.5</ele>
        <time>2016-06-09T09:50:20Z</time>
      </trkpt>
      <trkpt lat="42.634797" lon="-0.046649">
        <ele>2191.0</ele>
        <time>2016-06-09T09:50:35Z</time>
      </trkpt>
      <trkpt lat="42.634995" lon="-0.047069">
        <ele>2191.5</ele>
        <time>2016-06-09T09:50:52Z</time>
      </trkpt>
      <trkpt lat="42.635229" lon="-0.047442">
        <ele>2192.9</ele>
        <time>2016-06-09T09:51:08Z</time>
      </trkpt>
      <trkpt lat="42.635389" lon="-0.047866">
        <ele>2193.9</ele>
        <time>2016-06-09T09:51:24Z</time>
      </trkpt>
      <trkpt lat="42.635601" lon="-0.048316">
        <ele>2194.4</ele>
        <time>2016-06-09T09:51:40Z</time>
      </trkpt>
      <trkpt lat="42.635759" lon="-0.048692">
        <ele>2194.4</ele>
        <time>2016-06-09T09:51:53Z</time>
      </trkpt>
      <trkpt lat="42.635936" lon="-0.049019">
        <ele>2194.8</ele>
        <time>2016-06-09T09:52:05Z</time>
      </trkpt>
      <trkpt lat="42.636128" lon="-0.049519">
        <ele>2193.4</ele>
        <time>2016-06-09T09:52:21Z</time>
      </trkpt>
      <trkpt lat="42.636321" lon="-0.050039">
        <ele>2191.0</ele>
        <time>2016-06-09T09:52:32Z</time>
      </trkpt>
      <trkpt lat="42.636408" lon="-0.050193">
        <ele>2189.5</ele>
        <time>2016-06-09T09:52:35Z</time>
      </trkpt>
      <trkpt lat="42.636573" lon="-0.050546">
        <ele>2187.1</ele>
        <time>2016-06-09T09:52:41Z</time>
      </trkpt>
      <trkpt lat="42.636671" lon="-0.050722">
        <ele>2185.7</ele>
        <time>2016-06-09T09:52:44Z</time>
      </trkpt>
      <trkpt lat="42.636772" lon="-0.051024">
        <ele>2183.8</ele>
        <time>2016-06-09T09:52:48Z</time>
      </trkpt>
      <trkpt lat="42.636865" lon="-0.051233">
        <ele>2182.3</ele>
        <time>2016-06-09T09:52:51Z</time>
      </trkpt>
      <trkpt lat="42.636976" lon="-0.051444">
        <ele>2179.9</ele>
        <time>2016-06-09T09:52:54Z</time>
      </trkpt>
      <trkpt lat="42.637131" lon="-0.051946">
        <ele>2177.5</ele>
        <time>2016-06-09T09:53:00Z</time>
      </trkpt>
      <trkpt lat="42.637323" lon="-0.052628">
        <ele>2173.7</ele>
        <time>2016-06-09T09:53:07Z</time>
      </trkpt>
      <trkpt lat="42.637484" lon="-0.053064">
        <ele>2170.8</ele>
        <time>2016-06-09T09:53:11Z</time>
      </trkpt>
      <trkpt lat="42.637604" lon="-0.053412">
        <ele>2167.9</ele>
        <time>2016-06-09T09:53:14Z</time>
      </trkpt>
      <trkpt lat="42.637694" lon="-0.053765">
        <ele>2166.0</ele>
        <time>2016-06-09T09:53:17Z</time>
      </trkpt>
      <trkpt lat="42.637830" lon="-0.054189">
        <ele>2163.1</ele>
        <time>2016-06-09T09:53:21Z</time>
      </trkpt>
      <trkpt lat="42.637907" lon="-0.054492">
        <ele>2161.2</ele>
        <time>2016-06-09T09:53:24Z</time>
      </trkpt>
      <trkpt lat="42.638027" lon="-0.054883">
        <ele>2158.3</ele>
        <time>2016-06-09T09:53:28Z</time>
      </trkpt>
      <trkpt lat="42.638048" lon="-0.054986">
        <ele>2158.3</ele>
        <time>2016-06-09T09:53:29Z</time>
      </trkpt>
      <trkpt lat="42.638098" lon="-0.055313">
        <ele>2154.9</ele>
        <time>2016-06-09T09:53:32Z</time>
      </trkpt>
      <trkpt lat="42.638144" lon="-0.055707">
        <ele>2152.1</ele>
        <time>2016-06-09T09:53:36Z</time>
      </trkpt>
      <trkpt lat="42.638210" lon="-0.056149">
        <ele>2148.7</ele>
        <time>2016-06-09T09:53:41Z</time>
      </trkpt>
      <trkpt lat="42.638230" lon="-0.056345">
        <ele>2147.2</ele>
        <time>2016-06-09T09:53:43Z</time>
      </trkpt>
      <trkpt lat="42.638263" lon="-0.056748">
        <ele>2144.8</ele>
        <time>2016-06-09T09:53:47Z</time>
      </trkpt>
      <trkpt lat="42.638275" lon="-0.057076">
        <ele>2142.9</ele>
        <time>2016-06-09T09:53:51Z</time>
      </trkpt>
      <trkpt lat="42.638387" lon="-0.057393">
        <ele>2142.9</ele>
        <time>2016-06-09T09:54:00Z</time>
      </trkpt>
      <trkpt lat="42.638439" lon="-0.057450">
        <ele>2144.4</ele>
        <time>2016-06-09T09:54:11Z</time>
      </trkpt>
      <trkpt lat="42.638471" lon="-0.057702">
        <ele>2143.4</ele>
        <time>2016-06-09T09:54:28Z</time>
      </trkpt>
      <trkpt lat="42.638509" lon="-0.057840">
        <ele>2141.5</ele>
        <time>2016-06-09T09:54:37Z</time>
      </trkpt>
      <trkpt lat="42.638569" lon="-0.057959">
        <ele>2139.1</ele>
        <time>2016-06-09T09:54:52Z</time>
      </trkpt>
      <trkpt lat="42.638694" lon="-0.057895">
        <ele>2137.6</ele>
        <time>2016-06-09T09:55:15Z</time>
      </trkpt>
      <trkpt lat="42.638554" lon="-0.057957">
        <ele>2141.0</ele>
        <time>2016-06-09T10:11:45Z</time>
      </trkpt>
      <trkpt lat="42.638519" lon="-0.057849">
        <ele>2142.4</ele>
        <time>2016-06-09T10:12:01Z</time>
      </trkpt>
      <trkpt lat="42.638468" lon="-0.057660">
        <ele>2143.9</ele>
        <time>2016-06-09T10:12:19Z</time>
      </trkpt>
      <trkpt lat="42.638409" lon="-0.057406">
        <ele>2144.8</ele>
        <time>2016-06-09T10:12:40Z</time>
      </trkpt>
      <trkpt lat="42.638270" lon="-0.057258">
        <ele>2143.9</ele>
        <time>2016-06-09T10:12:57Z</time>
      </trkpt>
      <trkpt lat="42.638232" lon="-0.057314">
        <ele>2143.9</ele>
        <time>2016-06-09T10:13:11Z</time>
      </trkpt>
      <trkpt lat="42.638132" lon="-0.057457">
        <ele>2143.9</ele>
        <time>2016-06-09T10:13:22Z</time>
      </trkpt>
      <trkpt lat="42.637925" lon="-0.057796">
        <ele>2144.8</ele>
        <time>2016-06-09T10:13:38Z</time>
      </trkpt>
      <trkpt lat="42.637862" lon="-0.058139">
        <ele>2144.8</ele>
        <time>2016-06-09T10:13:51Z</time>
      </trkpt>
      <trkpt lat="42.637836" lon="-0.058513">
        <ele>2144.8</ele>
        <time>2016-06-09T10:14:04Z</time>
      </trkpt>
      <trkpt lat="42.637821" lon="-0.059059">
        <ele>2145.3</ele>
        <time>2016-06-09T10:14:22Z</time>
      </trkpt>
      <trkpt lat="42.637790" lon="-0.059538">
        <ele>2144.8</ele>
        <time>2016-06-09T10:14:37Z</time>
      </trkpt>
      <trkpt lat="42.637689" lon="-0.059900">
        <ele>2143.9</ele>
        <time>2016-06-09T10:14:51Z</time>
      </trkpt>
      <trkpt lat="42.637656" lon="-0.059964">
        <ele>2143.4</ele>
        <time>2016-06-09T10:15:02Z</time>
      </trkpt>
      <trkpt lat="42.637598" lon="-0.060057">
        <ele>2142.9</ele>
        <time>2016-06-09T10:15:23Z</time>
      </trkpt>
      <trkpt lat="42.637310" lon="-0.060305">
        <ele>2142.0</ele>
        <time>2016-06-09T10:15:38Z</time>
      </trkpt>
      <trkpt lat="42.636862" lon="-0.060496">
        <ele>2141.0</ele>
        <time>2016-06-09T10:15:55Z</time>
      </trkpt>
      <trkpt lat="42.636552" lon="-0.060624">
        <ele>2141.0</ele>
        <time>2016-06-09T10:16:09Z</time>
      </trkpt>
      <trkpt lat="42.636237" lon="-0.060782">
        <ele>2140.5</ele>
        <time>2016-06-09T10:16:22Z</time>
      </trkpt>
      <trkpt lat="42.635891" lon="-0.060959">
        <ele>2141.0</ele>
        <time>2016-06-09T10:16:36Z</time>
      </trkpt>
      <trkpt lat="42.635721" lon="-0.061332">
        <ele>2140.5</ele>
        <time>2016-06-09T10:16:49Z</time>
      </trkpt>
      <trkpt lat="42.635653" lon="-0.061889">
        <ele>2140.0</ele>
        <time>2016-06-09T10:17:05Z</time>
      </trkpt>
      <trkpt lat="42.635682" lon="-0.062377">
        <ele>2139.6</ele>
        <time>2016-06-09T10:17:20Z</time>
      </trkpt>
      <trkpt lat="42.635682" lon="-0.062881">
        <ele>2139.1</ele>
        <time>2016-06-09T10:17:34Z</time>
      </trkpt>
      <trkpt lat="42.635637" lon="-0.063339">
        <ele>2138.6</ele>
        <time>2016-06-09T10:17:47Z</time>
      </trkpt>
      <trkpt lat="42.635405" lon="-0.063978">
        <ele>2137.2</ele>
        <time>2016-06-09T10:18:05Z</time>
      </trkpt>
      <trkpt lat="42.635595" lon="-0.064167">
        <ele>2136.2</ele>
        <time>2016-06-09T10:18:13Z</time>
      </trkpt>
      <trkpt lat="42.636402" lon="-0.064193">
        <ele>2130.9</ele>
        <time>2016-06-09T10:18:28Z</time>
      </trkpt>
      <trkpt lat="42.636869" lon="-0.064379">
        <ele>2127.1</ele>
        <time>2016-06-09T10:18:36Z</time>
      </trkpt>
      <trkpt lat="42.637603" lon="-0.065192">
        <ele>2118.9</ele>
        <time>2016-06-09T10:18:48Z</time>
      </trkpt>
      <trkpt lat="42.638236" lon="-0.066173">
        <ele>2110.2</ele>
        <time>2016-06-09T10:18:58Z</time>
      </trkpt>
      <trkpt lat="42.639206" lon="-0.067549">
        <ele>2097.3</ele>
        <time>2016-06-09T10:19:11Z</time>
      </trkpt>
      <trkpt lat="42.640052" lon="-0.068376">
        <ele>2087.2</ele>
        <time>2016-06-09T10:19:21Z</time>
      </trkpt>
      <trkpt lat="42.640756" lon="-0.068603">
        <ele>2079.0</ele>
        <time>2016-06-09T10:19:29Z</time>
      </trkpt>
      <trkpt lat="42.641177" lon="-0.069335">
        <ele>2071.8</ele>
        <time>2016-06-09T10:19:36Z</time>
      </trkpt>
      <trkpt lat="42.641488" lon="-0.070638">
        <ele>2062.2</ele>
        <time>2016-06-09T10:19:45Z</time>
      </trkpt>
      <trkpt lat="42.641912" lon="-0.072399">
        <ele>2050.2</ele>
        <time>2016-06-09T10:19:57Z</time>
      </trkpt>
      <trkpt lat="42.642200" lon="-0.074514">
        <ele>2034.3</ele>
        <time>2016-06-09T10:20:11Z</time>
      </trkpt>
      <trkpt lat="42.642260" lon="-0.076129">
        <ele>2022.3</ele>
        <time>2016-06-09T10:20:22Z</time>
      </trkpt>
      <trkpt lat="42.642068" lon="-0.076892">
        <ele>2017.0</ele>
        <time>2016-06-09T10:20:29Z</time>
      </trkpt>
      <trkpt lat="42.641952" lon="-0.077619">
        <ele>2010.7</ele>
        <time>2016-06-09T10:20:38Z</time>
      </trkpt>
      <trkpt lat="42.642317" lon="-0.077565">
        <ele>2007.9</ele>
        <time>2016-06-09T10:20:45Z</time>
      </trkpt>
      <trkpt lat="42.642876" lon="-0.077751">
        <ele>2003.0</ele>
        <time>2016-06-09T10:20:53Z</time>
      </trkpt>
      <trkpt lat="42.643410" lon="-0.078085">
        <ele>1996.3</ele>
        <time>2016-06-09T10:21:01Z</time>
      </trkpt>
      <trkpt lat="42.643807" lon="-0.078748">
        <ele>1990.1</ele>
        <time>2016-06-09T10:21:11Z</time>
      </trkpt>
      <trkpt lat="42.643821" lon="-0.078914">
        <ele>1988.1</ele>
        <time>2016-06-09T10:21:18Z</time>
      </trkpt>
      <trkpt lat="42.643861" lon="-0.078951">
        <ele>1988.6</ele>
        <time>2016-06-09T10:21:30Z</time>
      </trkpt>
      <trkpt lat="42.643931" lon="-0.079190">
        <ele>1985.3</ele>
        <time>2016-06-09T10:21:44Z</time>
      </trkpt>
      <trkpt lat="42.644016" lon="-0.079456">
        <ele>1985.3</ele>
        <time>2016-06-09T10:22:02Z</time>
      </trkpt>
      <trkpt lat="42.644138" lon="-0.079618">
        <ele>1987.2</ele>
        <time>2016-06-09T10:22:18Z</time>
      </trkpt>
      <trkpt lat="42.644264" lon="-0.079686">
        <ele>1991.5</ele>
        <time>2016-06-09T10:22:35Z</time>
      </trkpt>
      <trkpt lat="42.644376" lon="-0.079726">
        <ele>1992.0</ele>
        <time>2016-06-09T10:22:51Z</time>
      </trkpt>
      <trkpt lat="42.644209" lon="-0.079650">
        <ele>1989.1</ele>
        <time>2016-06-09T10:31:11Z</time>
      </trkpt>
      <trkpt lat="42.644091" lon="-0.079532">
        <ele>1986.7</ele>
        <time>2016-06-09T10:31:26Z</time>
      </trkpt>
      <trkpt lat="42.643971" lon="-0.079325">
        <ele>1986.7</ele>
        <time>2016-06-09T10:31:42Z</time>
      </trkpt>
      <trkpt lat="42.643902" lon="-0.079095">
        <ele>1987.7</ele>
        <time>2016-06-09T10:32:00Z</time>
      </trkpt>
      <trkpt lat="42.643847" lon="-0.078958">
        <ele>1988.1</ele>
        <time>2016-06-09T10:32:15Z</time>
      </trkpt>
      <trkpt lat="42.643787" lon="-0.078956">
        <ele>1989.1</ele>
        <time>2016-06-09T10:32:30Z</time>
      </trkpt>
      <trkpt lat="42.643668" lon="-0.078973">
        <ele>1987.7</ele>
        <time>2016-06-09T10:32:56Z</time>
      </trkpt>
      <trkpt lat="42.643244" lon="-0.078618">
        <ele>1983.3</ele>
        <time>2016-06-09T10:33:06Z</time>
      </trkpt>
      <trkpt lat="42.642725" lon="-0.078706">
        <ele>1978.5</ele>
        <time>2016-06-09T10:33:14Z</time>
      </trkpt>
      <trkpt lat="42.641951" lon="-0.079452">
        <ele>1969.9</ele>
        <time>2016-06-09T10:33:25Z</time>
      </trkpt>
      <trkpt lat="42.641511" lon="-0.080513">
        <ele>1959.8</ele>
        <time>2016-06-09T10:33:35Z</time>
      </trkpt>
      <trkpt lat="42.641117" lon="-0.081362">
        <ele>1950.7</ele>
        <time>2016-06-09T10:33:43Z</time>
      </trkpt>
      <trkpt lat="42.640710" lon="-0.081484">
        <ele>1943.4</ele>
        <time>2016-06-09T10:33:50Z</time>
      </trkpt>
      <trkpt lat="42.640610" lon="-0.081733">
        <ele>1940.1</ele>
        <time>2016-06-09T10:33:56Z</time>
      </trkpt>
      <trkpt lat="42.640897" lon="-0.081838">
        <ele>1938.2</ele>
        <time>2016-06-09T10:34:02Z</time>
      </trkpt>
      <trkpt lat="42.641614" lon="-0.081518">
        <ele>1934.3</ele>
        <time>2016-06-09T10:34:12Z</time>
      </trkpt>
      <trkpt lat="42.642154" lon="-0.080894">
        <ele>1927.1</ele>
        <time>2016-06-09T10:34:21Z</time>
      </trkpt>
      <trkpt lat="42.642282" lon="-0.081085">
        <ele>1924.2</ele>
        <time>2016-06-09T10:34:26Z</time>
      </trkpt>
      <trkpt lat="42.641975" lon="-0.081564">
        <ele>1919.9</ele>
        <time>2016-06-09T10:34:33Z</time>
      </trkpt>
      <trkpt lat="42.641391" lon="-0.082575">
        <ele>1910.3</ele>
        <time>2016-06-09T10:34:44Z</time>
      </trkpt>
      <trkpt lat="42.640725" lon="-0.083973">
        <ele>1897.8</ele>
        <time>2016-06-09T10:34:56Z</time>
      </trkpt>
      <trkpt lat="42.640601" lon="-0.085419">
        <ele>1886.2</ele>
        <time>2016-06-09T10:35:06Z</time>
      </trkpt>
      <trkpt lat="42.640277" lon="-0.086674">
        <ele>1875.2</ele>
        <time>2016-06-09T10:35:16Z</time>
      </trkpt>
      <trkpt lat="42.639573" lon="-0.087422">
        <ele>1866.5</ele>
        <time>2016-06-09T10:35:25Z</time>
      </trkpt>
      <trkpt lat="42.638906" lon="-0.087191">
        <ele>1861.3</ele>
        <time>2016-06-09T10:35:32Z</time>
      </trkpt>
      <trkpt lat="42.638325" lon="-0.086785">
        <ele>1853.1</ele>
        <time>2016-06-09T10:35:40Z</time>
      </trkpt>
      <trkpt lat="42.638316" lon="-0.086104">
        <ele>1848.3</ele>
        <time>2016-06-09T10:35:47Z</time>
      </trkpt>
      <trkpt lat="42.638305" lon="-0.084817">
        <ele>1841.1</ele>
        <time>2016-06-09T10:35:57Z</time>
      </trkpt>
      <trkpt lat="42.638389" lon="-0.083479">
        <ele>1832.9</ele>
        <time>2016-06-09T10:36:07Z</time>
      </trkpt>
      <trkpt lat="42.638583" lon="-0.081963">
        <ele>1821.8</ele>
        <time>2016-06-09T10:36:18Z</time>
      </trkpt>
      <trkpt lat="42.638353" lon="-0.081391">
        <ele>1815.6</ele>
        <time>2016-06-09T10:36:25Z</time>
      </trkpt>
      <trkpt lat="42.638208" lon="-0.080412">
        <ele>1807.4</ele>
        <time>2016-06-09T10:36:34Z</time>
      </trkpt>
      <trkpt lat="42.638128" lon="-0.079402">
        <ele>1800.7</ele>
        <time>2016-06-09T10:36:42Z</time>
      </trkpt>
      <trkpt lat="42.637740" lon="-0.078359">
        <ele>1793.0</ele>
        <time>2016-06-09T10:36:51Z</time>
      </trkpt>
      <trkpt lat="42.637351" lon="-0.077921">
        <ele>1786.8</ele>
        <time>2016-06-09T10:36:59Z</time>
      </trkpt>
      <trkpt lat="42.637205" lon="-0.078110">
        <ele>1786.8</ele>
        <time>2016-06-09T10:37:04Z</time>
      </trkpt>
      <trkpt lat="42.637219" lon="-0.078424">
        <ele>1786.8</ele>
        <time>2016-06-09T10:41:28Z</time>
      </trkpt>
      <trkpt lat="42.637445" lon="-0.078871">
        <ele>1784.3</ele>
        <time>2016-06-09T10:41:35Z</time>
      </trkpt>
      <trkpt lat="42.637566" lon="-0.079399">
        <ele>1782.9</ele>
        <time>2016-06-09T10:41:41Z</time>
      </trkpt>
      <trkpt lat="42.637683" lon="-0.079743">
        <ele>1781.5</ele>
        <time>2016-06-09T10:41:45Z</time>
      </trkpt>
      <trkpt lat="42.637634" lon="-0.080189">
        <ele>1780.5</ele>
        <time>2016-06-09T10:41:51Z</time>
      </trkpt>
      <trkpt lat="42.637524" lon="-0.080302">
        <ele>1780.0</ele>
        <time>2016-06-09T10:41:53Z</time>
      </trkpt>
      <trkpt lat="42.637353" lon="-0.080534">
        <ele>1779.1</ele>
        <time>2016-06-09T10:41:56Z</time>
      </trkpt>
      <trkpt lat="42.637212" lon="-0.080836">
        <ele>1777.1</ele>
        <time>2016-06-09T10:41:59Z</time>
      </trkpt>
      <trkpt lat="42.637036" lon="-0.081412">
        <ele>1773.8</ele>
        <time>2016-06-09T10:42:04Z</time>
      </trkpt>
      <trkpt lat="42.637082" lon="-0.082703">
        <ele>1763.7</ele>
        <time>2016-06-09T10:42:15Z</time>
      </trkpt>
      <trkpt lat="42.636923" lon="-0.083812">
        <ele>1753.1</ele>
        <time>2016-06-09T10:42:24Z</time>
      </trkpt>
      <trkpt lat="42.636776" lon="-0.085404">
        <ele>1742.1</ele>
        <time>2016-06-09T10:42:35Z</time>
      </trkpt>
      <trkpt lat="42.636584" lon="-0.085820">
        <ele>1737.7</ele>
        <time>2016-06-09T10:42:40Z</time>
      </trkpt>
      <trkpt lat="42.635941" lon="-0.086267">
        <ele>1731.5</ele>
        <time>2016-06-09T10:42:48Z</time>
      </trkpt>
      <trkpt lat="42.635613" lon="-0.086882">
        <ele>1725.7</ele>
        <time>2016-06-09T10:42:54Z</time>
      </trkpt>
      <trkpt lat="42.635335" lon="-0.087951">
        <ele>1716.6</ele>
        <time>2016-06-09T10:43:02Z</time>
      </trkpt>
      <trkpt lat="42.634657" lon="-0.089101">
        <ele>1706.0</ele>
        <time>2016-06-09T10:43:12Z</time>
      </trkpt>
      <trkpt lat="42.634372" lon="-0.089369">
        <ele>1702.2</ele>
        <time>2016-06-09T10:43:16Z</time>
      </trkpt>
      <trkpt lat="42.634214" lon="-0.089701">
        <ele>1699.3</ele>
        <time>2016-06-09T10:43:21Z</time>
      </trkpt>
      <trkpt lat="42.633982" lon="-0.090376">
        <ele>1694.0</ele>
        <time>2016-06-09T10:43:28Z</time>
      </trkpt>
      <trkpt lat="42.633754" lon="-0.090738">
        <ele>1691.1</ele>
        <time>2016-06-09T10:43:32Z</time>
      </trkpt>
      <trkpt lat="42.633343" lon="-0.090947">
        <ele>1686.8</ele>
        <time>2016-06-09T10:43:39Z</time>
      </trkpt>
      <trkpt lat="42.633414" lon="-0.090725">
        <ele>1684.4</ele>
        <time>2016-06-09T10:43:44Z</time>
      </trkpt>
      <trkpt lat="42.633820" lon="-0.090168">
        <ele>1680.0</ele>
        <time>2016-06-09T10:43:52Z</time>
      </trkpt>
      <trkpt lat="42.633903" lon="-0.089723">
        <ele>1677.6</ele>
        <time>2016-06-09T10:43:56Z</time>
      </trkpt>
      <trkpt lat="42.633903" lon="-0.089482">
        <ele>1676.2</ele>
        <time>2016-06-09T10:43:58Z</time>
      </trkpt>
      <trkpt lat="42.634087" lon="-0.088960">
        <ele>1672.4</ele>
        <time>2016-06-09T10:44:03Z</time>
      </trkpt>
      <trkpt lat="42.634230" lon="-0.088788">
        <ele>1671.4</ele>
        <time>2016-06-09T10:44:05Z</time>
      </trkpt>
      <trkpt lat="42.634522" lon="-0.087964">
        <ele>1666.1</ele>
        <time>2016-06-09T10:44:12Z</time>
      </trkpt>
      <trkpt lat="42.634612" lon="-0.087444">
        <ele>1662.7</ele>
        <time>2016-06-09T10:44:16Z</time>
      </trkpt>
      <trkpt lat="42.634635" lon="-0.086859">
        <ele>1657.9</ele>
        <time>2016-06-09T10:44:21Z</time>
      </trkpt>
      <trkpt lat="42.634603" lon="-0.086608">
        <ele>1656.0</ele>
        <time>2016-06-09T10:44:23Z</time>
      </trkpt>
      <trkpt lat="42.634843" lon="-0.085305">
        <ele>1648.3</ele>
        <time>2016-06-09T10:44:33Z</time>
      </trkpt>
      <trkpt lat="42.635243" lon="-0.084593">
        <ele>1643.0</ele>
        <time>2016-06-09T10:44:40Z</time>
      </trkpt>
      <trkpt lat="42.635208" lon="-0.084076">
        <ele>1640.6</ele>
        <time>2016-06-09T10:44:47Z</time>
      </trkpt>
      <trkpt lat="42.635211" lon="-0.083984">
        <ele>1640.2</ele>
        <time>2016-06-09T10:44:48Z</time>
      </trkpt>
      <trkpt lat="42.635234" lon="-0.083216">
        <ele>1636.3</ele>
        <time>2016-06-09T10:44:55Z</time>
      </trkpt>
      <trkpt lat="42.635155" lon="-0.082285">
        <ele>1630.5</ele>
        <time>2016-06-09T10:45:03Z</time>
      </trkpt>
      <trkpt lat="42.634965" lon="-0.082064">
        <ele>1625.3</ele>
        <time>2016-06-09T10:45:10Z</time>
      </trkpt>
      <trkpt lat="42.634808" lon="-0.082329">
        <ele>1626.2</ele>
        <time>2016-06-09T10:45:17Z</time>
      </trkpt>
      <trkpt lat="42.634714" lon="-0.082552">
        <ele>1626.7</ele>
        <time>2016-06-09T10:45:21Z</time>
      </trkpt>
      <trkpt lat="42.634558" lon="-0.082788">
        <ele>1627.2</ele>
        <time>2016-06-09T10:45:25Z</time>
      </trkpt>
      <trkpt lat="42.634014" lon="-0.083776">
        <ele>1625.7</ele>
        <time>2016-06-09T10:45:36Z</time>
      </trkpt>
      <trkpt lat="42.633105" lon="-0.084730">
        <ele>1617.6</ele>
        <time>2016-06-09T10:45:47Z</time>
      </trkpt>
      <trkpt lat="42.632721" lon="-0.085183">
        <ele>1613.2</ele>
        <time>2016-06-09T10:45:52Z</time>
      </trkpt>
      <trkpt lat="42.632238" lon="-0.085138">
        <ele>1606.0</ele>
        <time>2016-06-09T10:45:58Z</time>
      </trkpt>
      <trkpt lat="42.631950" lon="-0.084847">
        <ele>1602.7</ele>
        <time>2016-06-09T10:46:02Z</time>
      </trkpt>
      <trkpt lat="42.631704" lon="-0.084831">
        <ele>1598.8</ele>
        <time>2016-06-09T10:46:08Z</time>
      </trkpt>
      <trkpt lat="42.631475" lon="-0.084899">
        <ele>1598.8</ele>
        <time>2016-06-09T10:46:14Z</time>
      </trkpt>
      <trkpt lat="42.630693" lon="-0.084711">
        <ele>1593.0</ele>
        <time>2016-06-09T10:46:24Z</time>
      </trkpt>
      <trkpt lat="42.630305" lon="-0.084693">
        <ele>1589.2</ele>
        <time>2016-06-09T10:46:28Z</time>
      </trkpt>
      <trkpt lat="42.629965" lon="-0.084838">
        <ele>1585.4</ele>
        <time>2016-06-09T10:46:32Z</time>
      </trkpt>
      <trkpt lat="42.629075" lon="-0.085466">
        <ele>1577.2</ele>
        <time>2016-06-09T10:46:42Z</time>
      </trkpt>
      <trkpt lat="42.628857" lon="-0.085656">
        <ele>1571.9</ele>
        <time>2016-06-09T10:46:48Z</time>
      </trkpt>
      <trkpt lat="42.628945" lon="-0.085675">
        <ele>1571.4</ele>
        <time>2016-06-09T10:46:51Z</time>
      </trkpt>
      <trkpt lat="42.629140" lon="-0.085575">
        <ele>1568.5</ele>
        <time>2016-06-09T10:46:55Z</time>
      </trkpt>
      <trkpt lat="42.630021" lon="-0.085331">
        <ele>1561.3</ele>
        <time>2016-06-09T10:47:06Z</time>
      </trkpt>
      <trkpt lat="42.630465" lon="-0.085325">
        <ele>1557.0</ele>
        <time>2016-06-09T10:47:11Z</time>
      </trkpt>
      <trkpt lat="42.631653" lon="-0.085892">
        <ele>1546.4</ele>
        <time>2016-06-09T10:47:23Z</time>
      </trkpt>
      <trkpt lat="42.631749" lon="-0.085937">
        <ele>1545.5</ele>
        <time>2016-06-09T10:47:24Z</time>
      </trkpt>
      <trkpt lat="42.631926" lon="-0.085996">
        <ele>1543.5</ele>
        <time>2016-06-09T10:47:26Z</time>
      </trkpt>
      <trkpt lat="42.632264" lon="-0.086299">
        <ele>1537.3</ele>
        <time>2016-06-09T10:47:31Z</time>
      </trkpt>
      <trkpt lat="42.632590" lon="-0.086512">
        <ele>1531.5</ele>
        <time>2016-06-09T10:47:35Z</time>
      </trkpt>
      <trkpt lat="42.632738" lon="-0.086890">
        <ele>1525.3</ele>
        <time>2016-06-09T10:47:41Z</time>
      </trkpt>
      <trkpt lat="42.632654" lon="-0.087141">
        <ele>1522.9</ele>
        <time>2016-06-09T10:47:44Z</time>
      </trkpt>
      <trkpt lat="42.632441" lon="-0.087452">
        <ele>1519.5</ele>
        <time>2016-06-09T10:47:48Z</time>
      </trkpt>
      <trkpt lat="42.632157" lon="-0.087702">
        <ele>1516.1</ele>
        <time>2016-06-09T10:47:52Z</time>
      </trkpt>
      <trkpt lat="42.632006" lon="-0.087791">
        <ele>1515.7</ele>
        <time>2016-06-09T10:47:54Z</time>
      </trkpt>
      <trkpt lat="42.631504" lon="-0.088621">
        <ele>1512.8</ele>
        <time>2016-06-09T10:48:04Z</time>
      </trkpt>
      <trkpt lat="42.630838" lon="-0.089951">
        <ele>1505.1</ele>
        <time>2016-06-09T10:48:16Z</time>
      </trkpt>
      <trkpt lat="42.630250" lon="-0.091033">
        <ele>1492.6</ele>
        <time>2016-06-09T10:48:26Z</time>
      </trkpt>
      <trkpt lat="42.630159" lon="-0.091224">
        <ele>1490.2</ele>
        <time>2016-06-09T10:48:28Z</time>
      </trkpt>
      <trkpt lat="42.629800" lon="-0.091344">
        <ele>1481.5</ele>
        <time>2016-06-09T10:48:35Z</time>
      </trkpt>
      <trkpt lat="42.629720" lon="-0.091240">
        <ele>1479.6</ele>
        <time>2016-06-09T10:48:37Z</time>
      </trkpt>
      <trkpt lat="42.629596" lon="-0.091039">
        <ele>1476.2</ele>
        <time>2016-06-09T10:48:41Z</time>
      </trkpt>
      <trkpt lat="42.629421" lon="-0.090929">
        <ele>1472.9</ele>
        <time>2016-06-09T10:48:45Z</time>
      </trkpt>
      <trkpt lat="42.629297" lon="-0.090892">
        <ele>1470.5</ele>
        <time>2016-06-09T10:48:47Z</time>
      </trkpt>
      <trkpt lat="42.628983" lon="-0.090661">
        <ele>1466.6</ele>
        <time>2016-06-09T10:48:52Z</time>
      </trkpt>
      <trkpt lat="42.628370" lon="-0.089829">
        <ele>1461.3</ele>
        <time>2016-06-09T10:49:03Z</time>
      </trkpt>
      <trkpt lat="42.628139" lon="-0.089680">
        <ele>1460.4</ele>
        <time>2016-06-09T10:49:07Z</time>
      </trkpt>
      <trkpt lat="42.627981" lon="-0.089558">
        <ele>1459.9</ele>
        <time>2016-06-09T10:49:10Z</time>
      </trkpt>
      <trkpt lat="42.627515" lon="-0.088846">
        <ele>1455.1</ele>
        <time>2016-06-09T10:49:20Z</time>
      </trkpt>
      <trkpt lat="42.627260" lon="-0.088544">
        <ele>1451.7</ele>
        <time>2016-06-09T10:49:25Z</time>
      </trkpt>
      <trkpt lat="42.626961" lon="-0.088363">
        <ele>1448.8</ele>
        <time>2016-06-09T10:49:30Z</time>
      </trkpt>
      <trkpt lat="42.626786" lon="-0.088247">
        <ele>1446.4</ele>
        <time>2016-06-09T10:49:33Z</time>
      </trkpt>
      <trkpt lat="42.626134" lon="-0.088273">
        <ele>1443.1</ele>
        <time>2016-06-09T10:49:42Z</time>
      </trkpt>
      <trkpt lat="42.626060" lon="-0.088275">
        <ele>1443.1</ele>
        <time>2016-06-09T10:49:43Z</time>
      </trkpt>
      <trkpt lat="42.625839" lon="-0.088378">
        <ele>1442.6</ele>
        <time>2016-06-09T10:49:47Z</time>
      </trkpt>
      <trkpt lat="42.625742" lon="-0.088959">
        <ele>1441.2</ele>
        <time>2016-06-09T10:49:55Z</time>
      </trkpt>
      <trkpt lat="42.625752" lon="-0.089064">
        <ele>1440.2</ele>
        <time>2016-06-09T10:49:56Z</time>
      </trkpt>
      <trkpt lat="42.625754" lon="-0.089285">
        <ele>1438.3</ele>
        <time>2016-06-09T10:49:58Z</time>
      </trkpt>
      <trkpt lat="42.625732" lon="-0.089490">
        <ele>1436.4</ele>
        <time>2016-06-09T10:50:00Z</time>
      </trkpt>
      <trkpt lat="42.625746" lon="-0.089868">
        <ele>1433.0</ele>
        <time>2016-06-09T10:50:04Z</time>
      </trkpt>
      <trkpt lat="42.625762" lon="-0.090109">
        <ele>1430.6</ele>
        <time>2016-06-09T10:50:07Z</time>
      </trkpt>
      <trkpt lat="42.625804" lon="-0.090317">
        <ele>1429.6</ele>
        <time>2016-06-09T10:50:10Z</time>
      </trkpt>
      <trkpt lat="42.625887" lon="-0.090444">
        <ele>1428.7</ele>
        <time>2016-06-09T10:50:13Z</time>
      </trkpt>
      <trkpt lat="42.626039" lon="-0.090494">
        <ele>1427.2</ele>
        <time>2016-06-09T10:50:16Z</time>
      </trkpt>
      <trkpt lat="42.626360" lon="-0.090593">
        <ele>1423.9</ele>
        <time>2016-06-09T10:50:22Z</time>
      </trkpt>
      <trkpt lat="42.626523" lon="-0.090524">
        <ele>1421.9</ele>
        <time>2016-06-09T10:50:25Z</time>
      </trkpt>
      <trkpt lat="42.626883" lon="-0.090555">
        <ele>1418.6</ele>
        <time>2016-06-09T10:50:31Z</time>
      </trkpt>
      <trkpt lat="42.627402" lon="-0.090693">
        <ele>1411.4</ele>
        <time>2016-06-09T10:50:40Z</time>
      </trkpt>
      <trkpt lat="42.627505" lon="-0.090719">
        <ele>1409.0</ele>
        <time>2016-06-09T10:50:42Z</time>
      </trkpt>
      <trkpt lat="42.627661" lon="-0.090786">
        <ele>1406.1</ele>
        <time>2016-06-09T10:50:45Z</time>
      </trkpt>
      <trkpt lat="42.627858" lon="-0.090988">
        <ele>1401.7</ele>
        <time>2016-06-09T10:50:49Z</time>
      </trkpt>
      <trkpt lat="42.628020" lon="-0.091387">
        <ele>1396.5</ele>
        <time>2016-06-09T10:50:54Z</time>
      </trkpt>
      <trkpt lat="42.628236" lon="-0.091852">
        <ele>1389.2</ele>
        <time>2016-06-09T10:51:00Z</time>
      </trkpt>
      <trkpt lat="42.628272" lon="-0.092100">
        <ele>1386.4</ele>
        <time>2016-06-09T10:51:03Z</time>
      </trkpt>
      <trkpt lat="42.628275" lon="-0.092252">
        <ele>1384.4</ele>
        <time>2016-06-09T10:51:05Z</time>
      </trkpt>
      <trkpt lat="42.628448" lon="-0.092768">
        <ele>1377.7</ele>
        <time>2016-06-09T10:51:12Z</time>
      </trkpt>
      <trkpt lat="42.628529" lon="-0.093122">
        <ele>1373.9</ele>
        <time>2016-06-09T10:51:16Z</time>
      </trkpt>
      <trkpt lat="42.628598" lon="-0.093277">
        <ele>1371.5</ele>
        <time>2016-06-09T10:51:18Z</time>
      </trkpt>
      <trkpt lat="42.628748" lon="-0.093898">
        <ele>1364.7</ele>
        <time>2016-06-09T10:51:24Z</time>
      </trkpt>
      <trkpt lat="42.628756" lon="-0.094549">
        <ele>1357.5</ele>
        <time>2016-06-09T10:51:30Z</time>
      </trkpt>
      <trkpt lat="42.629020" lon="-0.095256">
        <ele>1348.9</ele>
        <time>2016-06-09T10:51:37Z</time>
      </trkpt>
      <trkpt lat="42.629222" lon="-0.095590">
        <ele>1344.5</ele>
        <time>2016-06-09T10:51:41Z</time>
      </trkpt>
      <trkpt lat="42.629626" lon="-0.095904">
        <ele>1337.3</ele>
        <time>2016-06-09T10:51:48Z</time>
      </trkpt>
      <trkpt lat="42.629812" lon="-0.096035">
        <ele>1334.0</ele>
        <time>2016-06-09T10:51:51Z</time>
      </trkpt>
      <trkpt lat="42.630099" lon="-0.096165">
        <ele>1331.1</ele>
        <time>2016-06-09T10:51:55Z</time>
      </trkpt>
      <trkpt lat="42.630220" lon="-0.096239">
        <ele>1330.6</ele>
        <time>2016-06-09T10:51:57Z</time>
      </trkpt>
      <trkpt lat="42.630927" lon="-0.097190">
        <ele>1324.4</ele>
        <time>2016-06-09T10:52:07Z</time>
      </trkpt>
      <trkpt lat="42.631071" lon="-0.097385">
        <ele>1322.0</ele>
        <time>2016-06-09T10:52:09Z</time>
      </trkpt>
      <trkpt lat="42.631439" lon="-0.097682">
        <ele>1315.2</ele>
        <time>2016-06-09T10:52:14Z</time>
      </trkpt>
      <trkpt lat="42.631699" lon="-0.097699">
        <ele>1307.1</ele>
        <time>2016-06-09T10:52:18Z</time>
      </trkpt>
      <trkpt lat="42.631811" lon="-0.097839">
        <ele>1297.9</ele>
        <time>2016-06-09T10:52:24Z</time>
      </trkpt>
      <trkpt lat="42.631672" lon="-0.097883">
        <ele>1295.0</ele>
        <time>2016-06-09T10:52:27Z</time>
      </trkpt>
      <trkpt lat="42.631507" lon="-0.097961">
        <ele>1292.2</ele>
        <time>2016-06-09T10:52:30Z</time>
      </trkpt>
      <trkpt lat="42.631297" lon="-0.097916">
        <ele>1287.3</ele>
        <time>2016-06-09T10:52:34Z</time>
      </trkpt>
      <trkpt lat="42.630973" lon="-0.097777">
        <ele>1280.1</ele>
        <time>2016-06-09T10:52:39Z</time>
      </trkpt>
      <trkpt lat="42.630753" lon="-0.097651">
        <ele>1273.4</ele>
        <time>2016-06-09T10:52:43Z</time>
      </trkpt>
      <trkpt lat="42.630387" lon="-0.097599">
        <ele>1265.7</ele>
        <time>2016-06-09T10:52:48Z</time>
      </trkpt>
      <trkpt lat="42.629917" lon="-0.097609">
        <ele>1257.5</ele>
        <time>2016-06-09T10:52:54Z</time>
      </trkpt>
      <trkpt lat="42.629548" lon="-0.097450">
        <ele>1251.8</ele>
        <time>2016-06-09T10:52:59Z</time>
      </trkpt>
      <trkpt lat="42.629118" lon="-0.097257">
        <ele>1246.0</ele>
        <time>2016-06-09T10:53:05Z</time>
      </trkpt>
      <trkpt lat="42.628723" lon="-0.096997">
        <ele>1239.8</ele>
        <time>2016-06-09T10:53:11Z</time>
      </trkpt>
      <trkpt lat="42.628564" lon="-0.097171">
        <ele>1234.5</ele>
        <time>2016-06-09T10:53:18Z</time>
      </trkpt>
      <trkpt lat="42.628646" lon="-0.097207">
        <ele>1233.5</ele>
        <time>2016-06-09T10:53:21Z</time>
      </trkpt>
      <trkpt lat="42.628718" lon="-0.097205">
        <ele>1232.6</ele>
        <time>2016-06-09T10:53:23Z</time>
      </trkpt>
      <trkpt lat="42.628902" lon="-0.097335">
        <ele>1229.7</ele>
        <time>2016-06-09T10:53:27Z</time>
      </trkpt>
      <trkpt lat="42.628951" lon="-0.097397">
        <ele>1229.7</ele>
        <time>2016-06-09T10:53:28Z</time>
      </trkpt>
      <trkpt lat="42.629042" lon="-0.097566">
        <ele>1229.2</ele>
        <time>2016-06-09T10:53:30Z</time>
      </trkpt>
      <trkpt lat="42.629406" lon="-0.097841">
        <ele>1228.2</ele>
        <time>2016-06-09T10:53:37Z</time>
      </trkpt>
      <trkpt lat="42.629483" lon="-0.097938">
        <ele>1227.7</ele>
        <time>2016-06-09T10:53:39Z</time>
      </trkpt>
      <trkpt lat="42.629381" lon="-0.098111">
        <ele>1227.3</ele>
        <time>2016-06-09T10:53:44Z</time>
      </trkpt>
      <trkpt lat="42.629089" lon="-0.098092">
        <ele>1224.9</ele>
        <time>2016-06-09T10:53:49Z</time>
      </trkpt>
      <trkpt lat="42.628730" lon="-0.097807">
        <ele>1217.2</ele>
        <time>2016-06-09T10:53:57Z</time>
      </trkpt>
      <trkpt lat="42.628587" lon="-0.097889">
        <ele>1211.4</ele>
        <time>2016-06-09T10:54:03Z</time>
      </trkpt>
      <trkpt lat="42.628818" lon="-0.098170">
        <ele>1206.1</ele>
        <time>2016-06-09T10:54:11Z</time>
      </trkpt>
      <trkpt lat="42.628886" lon="-0.098459">
        <ele>1203.2</ele>
        <time>2016-06-09T10:54:20Z</time>
      </trkpt>
      <trkpt lat="42.628983" lon="-0.098539">
        <ele>1204.2</ele>
        <time>2016-06-09T10:54:40Z</time>
      </trkpt>
      <trkpt lat="42.629585" lon="-0.098783">
        <ele>1200.3</ele>
        <time>2016-06-09T10:54:51Z</time>
      </trkpt>
      <trkpt lat="42.629695" lon="-0.098817">
        <ele>1199.9</ele>
        <time>2016-06-09T10:54:53Z</time>
      </trkpt>
      <trkpt lat="42.629969" lon="-0.098971">
        <ele>1198.4</ele>
        <time>2016-06-09T10:54:59Z</time>
      </trkpt>
      <trkpt lat="42.630140" lon="-0.099298">
        <ele>1192.7</ele>
        <time>2016-06-09T10:55:05Z</time>
      </trkpt>
      <trkpt lat="42.630628" lon="-0.099886">
        <ele>1187.9</ele>
        <time>2016-06-09T10:55:15Z</time>
      </trkpt>
      <trkpt lat="42.630819" lon="-0.100128">
        <ele>1184.5</ele>
        <time>2016-06-09T10:55:19Z</time>
      </trkpt>
      <trkpt lat="42.630991" lon="-0.100429">
        <ele>1178.2</ele>
        <time>2016-06-09T10:55:24Z</time>
      </trkpt>
      <trkpt lat="42.631105" lon="-0.100593">
        <ele>1174.4</ele>
        <time>2016-06-09T10:55:27Z</time>
      </trkpt>
      <trkpt lat="42.631297" lon="-0.100769">
        <ele>1168.1</ele>
        <time>2016-06-09T10:55:31Z</time>
      </trkpt>
      <trkpt lat="42.631394" lon="-0.100887">
        <ele>1164.8</ele>
        <time>2016-06-09T10:55:33Z</time>
      </trkpt>
      <trkpt lat="42.631628" lon="-0.101037">
        <ele>1157.6</ele>
        <time>2016-06-09T10:55:38Z</time>
      </trkpt>
      <trkpt lat="42.631934" lon="-0.101095">
        <ele>1148.9</ele>
        <time>2016-06-09T10:55:43Z</time>
      </trkpt>
      <trkpt lat="42.632266" lon="-0.100992">
        <ele>1140.3</ele>
        <time>2016-06-09T10:55:49Z</time>
      </trkpt>
      <trkpt lat="42.632682" lon="-0.100516">
        <ele>1130.7</ele>
        <time>2016-06-09T10:55:57Z</time>
      </trkpt>
      <trkpt lat="42.632860" lon="-0.100431">
        <ele>1128.2</ele>
        <time>2016-06-09T10:56:01Z</time>
      </trkpt>
      <trkpt lat="42.633191" lon="-0.100910">
        <ele>1127.8</ele>
        <time>2016-06-09T10:56:09Z</time>
      </trkpt>
      <trkpt lat="42.633389" lon="-0.101107">
        <ele>1126.8</ele>
        <time>2016-06-09T10:56:12Z</time>
      </trkpt>
      <trkpt lat="42.633725" lon="-0.101267">
        <ele>1124.4</ele>
        <time>2016-06-09T10:56:17Z</time>
      </trkpt>
      <trkpt lat="42.634225" lon="-0.101366">
        <ele>1117.2</ele>
        <time>2016-06-09T10:56:23Z</time>
      </trkpt>
      <trkpt lat="42.634362" lon="-0.101419">
        <ele>1114.8</ele>
        <time>2016-06-09T10:56:25Z</time>
      </trkpt>
      <trkpt lat="42.634610" lon="-0.101703">
        <ele>1109.0</ele>
        <time>2016-06-09T10:56:29Z</time>
      </trkpt>
      <trkpt lat="42.635258" lon="-0.102211">
        <ele>1096.5</ele>
        <time>2016-06-09T10:56:38Z</time>
      </trkpt>
      <trkpt lat="42.635967" lon="-0.102295">
        <ele>1086.0</ele>
        <time>2016-06-09T10:56:47Z</time>
      </trkpt>
      <trkpt lat="42.636038" lon="-0.102298">
        <ele>1086.0</ele>
        <time>2016-06-09T10:56:48Z</time>
      </trkpt>
      <trkpt lat="42.636785" lon="-0.102600">
        <ele>1077.3</ele>
        <time>2016-06-09T10:56:58Z</time>
      </trkpt>
      <trkpt lat="42.637500" lon="-0.102844">
        <ele>1063.4</ele>
        <time>2016-06-09T10:57:07Z</time>
      </trkpt>
      <trkpt lat="42.637629" lon="-0.102849">
        <ele>1060.0</ele>
        <time>2016-06-09T10:57:09Z</time>
      </trkpt>
      <trkpt lat="42.637824" lon="-0.102970">
        <ele>1054.2</ele>
        <time>2016-06-09T10:57:13Z</time>
      </trkpt>
      <trkpt lat="42.638040" lon="-0.103095">
        <ele>1049.9</ele>
        <time>2016-06-09T10:57:17Z</time>
      </trkpt>
      <trkpt lat="42.638313" lon="-0.103146">
        <ele>1046.1</ele>
        <time>2016-06-09T10:57:21Z</time>
      </trkpt>
      <trkpt lat="42.638487" lon="-0.103288">
        <ele>1043.2</ele>
        <time>2016-06-09T10:57:24Z</time>
      </trkpt>
      <trkpt lat="42.638865" lon="-0.103316">
        <ele>1036.0</ele>
        <time>2016-06-09T10:57:31Z</time>
      </trkpt>
      <trkpt lat="42.639207" lon="-0.103359">
        <ele>1028.8</ele>
        <time>2016-06-09T10:57:40Z</time>
      </trkpt>
      <trkpt lat="42.639286" lon="-0.103440">
        <ele>1027.8</ele>
        <time>2016-06-09T10:57:42Z</time>
      </trkpt>
      <trkpt lat="42.639211" lon="-0.103725">
        <ele>1027.3</ele>
        <time>2016-06-09T10:57:48Z</time>
      </trkpt>
      <trkpt lat="42.638981" lon="-0.103906">
        <ele>1027.3</ele>
        <time>2016-06-09T10:57:53Z</time>
      </trkpt>
      <trkpt lat="42.638857" lon="-0.104106">
        <ele>1023.9</ele>
        <time>2016-06-09T10:57:57Z</time>
      </trkpt>
      <trkpt lat="42.638761" lon="-0.104352">
        <ele>1020.1</ele>
        <time>2016-06-09T10:58:01Z</time>
      </trkpt>
      <trkpt lat="42.638865" lon="-0.104718">
        <ele>1013.4</ele>
        <time>2016-06-09T10:58:08Z</time>
      </trkpt>
      <trkpt lat="42.639045" lon="-0.104929">
        <ele>1007.6</ele>
        <time>2016-06-09T10:58:13Z</time>
      </trkpt>
      <trkpt lat="42.639086" lon="-0.105159">
        <ele>1002.3</ele>
        <time>2016-06-09T10:58:20Z</time>
      </trkpt>
      <trkpt lat="42.639022" lon="-0.105235">
        <ele>1000.9</ele>
        <time>2016-06-09T10:58:22Z</time>
      </trkpt>
      <trkpt lat="42.638869" lon="-0.105413">
        <ele>998.0</ele>
        <time>2016-06-09T10:58:26Z</time>
      </trkpt>
      <trkpt lat="42.638503" lon="-0.105631">
        <ele>992.7</ele>
        <time>2016-06-09T10:58:34Z</time>
      </trkpt>
      <trkpt lat="42.638236" lon="-0.105736">
        <ele>990.3</ele>
        <time>2016-06-09T10:58:39Z</time>
      </trkpt>
      <trkpt lat="42.638083" lon="-0.105824">
        <ele>988.9</ele>
        <time>2016-06-09T10:58:42Z</time>
      </trkpt>
      <trkpt lat="42.637835" lon="-0.105898">
        <ele>986.0</ele>
        <time>2016-06-09T10:58:46Z</time>
      </trkpt>
      <trkpt lat="42.637440" lon="-0.105855">
        <ele>983.6</ele>
        <time>2016-06-09T10:58:52Z</time>
      </trkpt>
      <trkpt lat="42.636925" lon="-0.105967">
        <ele>982.6</ele>
        <time>2016-06-09T10:59:01Z</time>
      </trkpt>
      <trkpt lat="42.636716" lon="-0.106064">
        <ele>982.6</ele>
        <time>2016-06-09T10:59:05Z</time>
      </trkpt>
      <trkpt lat="42.636623" lon="-0.106130">
        <ele>983.1</ele>
        <time>2016-06-09T10:59:07Z</time>
      </trkpt>
      <trkpt lat="42.636068" lon="-0.106722">
        <ele>986.0</ele>
        <time>2016-06-09T10:59:21Z</time>
      </trkpt>
      <trkpt lat="42.635829" lon="-0.106917">
        <ele>986.5</ele>
        <time>2016-06-09T10:59:32Z</time>
      </trkpt>
      <trkpt lat="42.635398" lon="-0.107309">
        <ele>986.5</ele>
        <time>2016-06-09T10:59:47Z</time>
      </trkpt>
      <trkpt lat="42.635253" lon="-0.107516">
        <ele>986.0</ele>
        <time>2016-06-09T10:59:52Z</time>
      </trkpt>
      <trkpt lat="42.634604" lon="-0.108064">
        <ele>985.5</ele>
        <time>2016-06-09T11:00:07Z</time>
      </trkpt>
      <trkpt lat="42.634172" lon="-0.108409">
        <ele>985.0</ele>
        <time>2016-06-09T11:00:21Z</time>
      </trkpt>
      <trkpt lat="42.633887" lon="-0.108686">
        <ele>986.5</ele>
        <time>2016-06-09T11:00:30Z</time>
      </trkpt>
      <trkpt lat="42.633461" lon="-0.109086">
        <ele>985.5</ele>
        <time>2016-06-09T11:00:40Z</time>
      </trkpt>
      <trkpt lat="42.633024" lon="-0.109177">
        <ele>983.1</ele>
        <time>2016-06-09T11:00:51Z</time>
      </trkpt>
      <trkpt lat="42.632891" lon="-0.109053">
        <ele>982.6</ele>
        <time>2016-06-09T11:00:56Z</time>
      </trkpt>
      <trkpt lat="42.632658" lon="-0.108688">
        <ele>981.6</ele>
        <time>2016-06-09T11:01:03Z</time>
      </trkpt>
      <trkpt lat="42.632253" lon="-0.108301">
        <ele>978.3</ele>
        <time>2016-06-09T11:01:15Z</time>
      </trkpt>
      <trkpt lat="42.631763" lon="-0.107886">
        <ele>974.4</ele>
        <time>2016-06-09T11:01:27Z</time>
      </trkpt>
      <trkpt lat="42.631577" lon="-0.107736">
        <ele>974.0</ele>
        <time>2016-06-09T11:01:38Z</time>
      </trkpt>
      <trkpt lat="42.631314" lon="-0.107672">
        <ele>973.5</ele>
        <time>2016-06-09T11:01:46Z</time>
      </trkpt>
      <trkpt lat="42.630764" lon="-0.107613">
        <ele>970.1</ele>
        <time>2016-06-09T11:01:59Z</time>
      </trkpt>
      <trkpt lat="42.630409" lon="-0.107736">
        <ele>971.1</ele>
        <time>2016-06-09T11:02:13Z</time>
      </trkpt>
      <trkpt lat="42.630296" lon="-0.108057">
        <ele>970.6</ele>
        <time>2016-06-09T11:02:23Z</time>
      </trkpt>
      <trkpt lat="42.630299" lon="-0.108336">
        <ele>969.2</ele>
        <time>2016-06-09T11:02:31Z</time>
      </trkpt>
      <trkpt lat="42.630486" lon="-0.108661">
        <ele>966.3</ele>
        <time>2016-06-09T11:02:37Z</time>
      </trkpt>
      <trkpt lat="42.630762" lon="-0.108829">
        <ele>964.8</ele>
        <time>2016-06-09T11:02:42Z</time>
      </trkpt>
      <trkpt lat="42.631006" lon="-0.108938">
        <ele>965.3</ele>
        <time>2016-06-09T11:02:52Z</time>
      </trkpt>
      <trkpt lat="42.631376" lon="-0.109125">
        <ele>966.3</ele>
        <time>2016-06-09T11:03:11Z</time>
      </trkpt>
      <trkpt lat="42.631679" lon="-0.109326">
        <ele>967.7</ele>
        <time>2016-06-09T11:03:27Z</time>
      </trkpt>
      <trkpt lat="42.632005" lon="-0.109465">
        <ele>968.2</ele>
        <time>2016-06-09T11:03:44Z</time>
      </trkpt>
      <trkpt lat="42.632177" lon="-0.109570">
        <ele>969.2</ele>
        <time>2016-06-09T11:03:55Z</time>
      </trkpt>
      <trkpt lat="42.632239" lon="-0.109579">
        <ele>970.1</ele>
        <time>2016-06-09T11:03:59Z</time>
      </trkpt>
      <trkpt lat="42.632381" lon="-0.109776">
        <ele>972.5</ele>
        <time>2016-06-09T11:04:14Z</time>
      </trkpt>
      <trkpt lat="42.632475" lon="-0.109823">
        <ele>974.4</ele>
        <time>2016-06-09T11:04:21Z</time>
      </trkpt>
      <trkpt lat="42.632510" lon="-0.109904">
        <ele>975.4</ele>
        <time>2016-06-09T11:04:26Z</time>
      </trkpt>
      <trkpt lat="42.632619" lon="-0.109988">
        <ele>976.8</ele>
        <time>2016-06-09T11:04:35Z</time>
      </trkpt>
      <trkpt lat="42.632644" lon="-0.110051">
        <ele>977.3</ele>
        <time>2016-06-09T11:04:39Z</time>
      </trkpt>
      <trkpt lat="42.632754" lon="-0.110211">
        <ele>980.2</ele>
        <time>2016-06-09T11:04:51Z</time>
      </trkpt>
      <trkpt lat="42.632756" lon="-0.110294">
        <ele>981.2</ele>
        <time>2016-06-09T11:04:56Z</time>
      </trkpt>
      <trkpt lat="42.632671" lon="-0.110555">
        <ele>984.1</ele>
        <time>2016-06-09T11:05:11Z</time>
      </trkpt>
      <trkpt lat="42.632603" lon="-0.110640">
        <ele>985.5</ele>
        <time>2016-06-09T11:05:18Z</time>
      </trkpt>
      <trkpt lat="42.632578" lon="-0.110730">
        <ele>986.9</ele>
        <time>2016-06-09T11:05:23Z</time>
      </trkpt>
      <trkpt lat="42.632486" lon="-0.110864">
        <ele>990.3</ele>
        <time>2016-06-09T11:05:33Z</time>
      </trkpt>
      <trkpt lat="42.632585" lon="-0.111054">
        <ele>992.7</ele>
        <time>2016-06-09T11:05:48Z</time>
      </trkpt>
      <trkpt lat="42.632642" lon="-0.111066">
        <ele>993.2</ele>
        <time>2016-06-09T11:05:52Z</time>
      </trkpt>
      <trkpt lat="42.632716" lon="-0.111173">
        <ele>994.1</ele>
        <time>2016-06-09T11:06:00Z</time>
      </trkpt>
      <trkpt lat="42.632818" lon="-0.111306">
        <ele>997.5</ele>
        <time>2016-06-09T11:06:13Z</time>
      </trkpt>
      <trkpt lat="42.632874" lon="-0.111509">
        <ele>1000.4</ele>
        <time>2016-06-09T11:06:27Z</time>
      </trkpt>
      <trkpt lat="42.632880" lon="-0.111632">
        <ele>1002.3</ele>
        <time>2016-06-09T11:06:35Z</time>
      </trkpt>
      <trkpt lat="42.632904" lon="-0.111805">
        <ele>1005.7</ele>
        <time>2016-06-09T11:06:47Z</time>
      </trkpt>
      <trkpt lat="42.632982" lon="-0.111823">
        <ele>1006.6</ele>
        <time>2016-06-09T11:06:53Z</time>
      </trkpt>
      <trkpt lat="42.633174" lon="-0.111993">
        <ele>1010.5</ele>
        <time>2016-06-09T11:07:11Z</time>
      </trkpt>
      <trkpt lat="42.633131" lon="-0.112112">
        <ele>1011.9</ele>
        <time>2016-06-09T11:07:20Z</time>
      </trkpt>
      <trkpt lat="42.633066" lon="-0.112122">
        <ele>1012.9</ele>
        <time>2016-06-09T11:07:25Z</time>
      </trkpt>
      <trkpt lat="42.632818" lon="-0.112234">
        <ele>1018.7</ele>
        <time>2016-06-09T11:07:44Z</time>
      </trkpt>
      <trkpt lat="42.632742" lon="-0.112302">
        <ele>1019.1</ele>
        <time>2016-06-09T11:07:51Z</time>
      </trkpt>
      <trkpt lat="42.632563" lon="-0.112490">
        <ele>1020.1</ele>
        <time>2016-06-09T11:08:03Z</time>
      </trkpt>
      <trkpt lat="42.632185" lon="-0.112643">
        <ele>1020.6</ele>
        <time>2016-06-09T11:08:20Z</time>
      </trkpt>
      <trkpt lat="42.631798" lon="-0.112817">
        <ele>1020.6</ele>
        <time>2016-06-09T11:08:36Z</time>
      </trkpt>
      <trkpt lat="42.631407" lon="-0.112926">
        <ele>1020.6</ele>
        <time>2016-06-09T11:08:52Z</time>
      </trkpt>
      <trkpt lat="42.630910" lon="-0.112916">
        <ele>1021.5</ele>
        <time>2016-06-09T11:09:10Z</time>
      </trkpt>
      <trkpt lat="42.630383" lon="-0.112810">
        <ele>1023.0</ele>
        <time>2016-06-09T11:09:27Z</time>
      </trkpt>
      <trkpt lat="42.629885" lon="-0.112469">
        <ele>1023.5</ele>
        <time>2016-06-09T11:09:45Z</time>
      </trkpt>
      <trkpt lat="42.629574" lon="-0.112344">
        <ele>1023.5</ele>
        <time>2016-06-09T11:10:00Z</time>
      </trkpt>
      <trkpt lat="42.629291" lon="-0.112297">
        <ele>1025.9</ele>
        <time>2016-06-09T11:10:15Z</time>
      </trkpt>
      <trkpt lat="42.628992" lon="-0.112324">
        <ele>1033.1</ele>
        <time>2016-06-09T11:10:31Z</time>
      </trkpt>
      <trkpt lat="42.628936" lon="-0.112332">
        <ele>1033.1</ele>
        <time>2016-06-09T11:10:38Z</time>
      </trkpt>
      <trkpt lat="42.628874" lon="-0.112331">
        <ele>1033.1</ele>
        <time>2016-06-09T11:10:51Z</time>
      </trkpt>
      <trkpt lat="42.628722" lon="-0.112304">
        <ele>1024.9</ele>
        <time>2016-06-09T11:56:33Z</time>
      </trkpt>
      <trkpt lat="42.628614" lon="-0.112263">
        <ele>1029.7</ele>
        <time>2016-06-09T11:56:51Z</time>
      </trkpt>
      <trkpt lat="42.628489" lon="-0.112220">
        <ele>1051.3</ele>
        <time>2016-06-09T11:57:55Z</time>
      </trkpt>
      <trkpt lat="42.628298" lon="-0.112088">
        <ele>1049.9</ele>
        <time>2016-06-09T11:58:15Z</time>
      </trkpt>
      <trkpt lat="42.628167" lon="-0.112163">
        <ele>1043.7</ele>
        <time>2016-06-09T11:58:30Z</time>
      </trkpt>
      <trkpt lat="42.628133" lon="-0.112120">
        <ele>1040.8</ele>
        <time>2016-06-09T11:58:35Z</time>
      </trkpt>
      <trkpt lat="42.627957" lon="-0.112098">
        <ele>1038.8</ele>
        <time>2016-06-09T11:58:52Z</time>
      </trkpt>
      <trkpt lat="42.627792" lon="-0.112081">
        <ele>1037.4</ele>
        <time>2016-06-09T11:59:08Z</time>
      </trkpt>
      <trkpt lat="42.627671" lon="-0.112090">
        <ele>1037.4</ele>
        <time>2016-06-09T11:59:21Z</time>
      </trkpt>
      <trkpt lat="42.627615" lon="-0.112115">
        <ele>1036.9</ele>
        <time>2016-06-09T11:59:28Z</time>
      </trkpt>
      <trkpt lat="42.627549" lon="-0.112115">
        <ele>1036.9</ele>
        <time>2016-06-09T11:59:35Z</time>
      </trkpt>
      <trkpt lat="42.627337" lon="-0.112131">
        <ele>1037.4</ele>
        <time>2016-06-09T11:59:54Z</time>
      </trkpt>
      <trkpt lat="42.627202" lon="-0.112352">
        <ele>1035.0</ele>
        <time>2016-06-09T12:00:14Z</time>
      </trkpt>
      <trkpt lat="42.627086" lon="-0.112526">
        <ele>1032.6</ele>
        <time>2016-06-09T12:00:32Z</time>
      </trkpt>
      <trkpt lat="42.626976" lon="-0.112484">
        <ele>1032.1</ele>
        <time>2016-06-09T12:00:49Z</time>
      </trkpt>
      <trkpt lat="42.626811" lon="-0.112427">
        <ele>1032.6</ele>
        <time>2016-06-09T12:01:04Z</time>
      </trkpt>
      <trkpt lat="42.626673" lon="-0.112470">
        <ele>1032.6</ele>
        <time>2016-06-09T12:01:15Z</time>
      </trkpt>
      <trkpt lat="42.626599" lon="-0.112347">
        <ele>1031.6</ele>
        <time>2016-06-09T12:01:37Z</time>
      </trkpt>
      <trkpt lat="42.626550" lon="-0.112241">
        <ele>1030.7</ele>
        <time>2016-06-09T12:01:46Z</time>
      </trkpt>
      <trkpt lat="42.626541" lon="-0.112153">
        <ele>1030.2</ele>
        <time>2016-06-09T12:01:54Z</time>
      </trkpt>
      <trkpt lat="42.626602" lon="-0.111922">
        <ele>1024.4</ele>
        <time>2016-06-09T12:02:12Z</time>
      </trkpt>
      <trkpt lat="42.626545" lon="-0.111911">
        <ele>1022.0</ele>
        <time>2016-06-09T12:02:19Z</time>
      </trkpt>
      <trkpt lat="42.626420" lon="-0.111893">
        <ele>1017.2</ele>
        <time>2016-06-09T12:02:31Z</time>
      </trkpt>
      <trkpt lat="42.626294" lon="-0.111887">
        <ele>1014.8</ele>
        <time>2016-06-09T12:05:49Z</time>
      </trkpt>
      <trkpt lat="42.626032" lon="-0.111928">
        <ele>1015.3</ele>
        <time>2016-06-09T12:06:05Z</time>
      </trkpt>
      <trkpt lat="42.625725" lon="-0.111987">
        <ele>1014.3</ele>
        <time>2016-06-09T12:06:20Z</time>
      </trkpt>
      <trkpt lat="42.625392" lon="-0.112022">
        <ele>1014.3</ele>
        <time>2016-06-09T12:06:35Z</time>
      </trkpt>
      <trkpt lat="42.624883" lon="-0.112124">
        <ele>1015.8</ele>
        <time>2016-06-09T12:06:53Z</time>
      </trkpt>
      <trkpt lat="42.624281" lon="-0.112512">
        <ele>1015.3</ele>
        <time>2016-06-09T12:07:13Z</time>
      </trkpt>
      <trkpt lat="42.623931" lon="-0.113093">
        <ele>1014.8</ele>
        <time>2016-06-09T12:07:30Z</time>
      </trkpt>
      <trkpt lat="42.623582" lon="-0.113774">
        <ele>1014.3</ele>
        <time>2016-06-09T12:07:48Z</time>
      </trkpt>
      <trkpt lat="42.623105" lon="-0.114025">
        <ele>1016.3</ele>
        <time>2016-06-09T12:08:03Z</time>
      </trkpt>
      <trkpt lat="42.622513" lon="-0.114220">
        <ele>1016.7</ele>
        <time>2016-06-09T12:08:21Z</time>
      </trkpt>
      <trkpt lat="42.621852" lon="-0.114380">
        <ele>1017.7</ele>
        <time>2016-06-09T12:08:42Z</time>
      </trkpt>
      <trkpt lat="42.621183" lon="-0.114497">
        <ele>1020.6</ele>
        <time>2016-06-09T12:09:03Z</time>
      </trkpt>
      <trkpt lat="42.620641" lon="-0.114741">
        <ele>1020.6</ele>
        <time>2016-06-09T12:09:20Z</time>
      </trkpt>
      <trkpt lat="42.620289" lon="-0.115178">
        <ele>1021.1</ele>
        <time>2016-06-09T12:09:35Z</time>
      </trkpt>
      <trkpt lat="42.619950" lon="-0.115667">
        <ele>1022.5</ele>
        <time>2016-06-09T12:09:50Z</time>
      </trkpt>
      <trkpt lat="42.619511" lon="-0.115827">
        <ele>1022.5</ele>
        <time>2016-06-09T12:10:03Z</time>
      </trkpt>
      <trkpt lat="42.618944" lon="-0.115995">
        <ele>1022.5</ele>
        <time>2016-06-09T12:10:19Z</time>
      </trkpt>
      <trkpt lat="42.618406" lon="-0.116147">
        <ele>1024.4</ele>
        <time>2016-06-09T12:10:34Z</time>
      </trkpt>
      <trkpt lat="42.617824" lon="-0.116424">
        <ele>1024.4</ele>
        <time>2016-06-09T12:10:49Z</time>
      </trkpt>
      <trkpt lat="42.617215" lon="-0.116718">
        <ele>1023.9</ele>
        <time>2016-06-09T12:11:05Z</time>
      </trkpt>
      <trkpt lat="42.616465" lon="-0.117173">
        <ele>1024.9</ele>
        <time>2016-06-09T12:11:26Z</time>
      </trkpt>
      <trkpt lat="42.616134" lon="-0.117871">
        <ele>1022.5</ele>
        <time>2016-06-09T12:11:41Z</time>
      </trkpt>
      <trkpt lat="42.615770" lon="-0.118383">
        <ele>1023.0</ele>
        <time>2016-06-09T12:11:56Z</time>
      </trkpt>
      <trkpt lat="42.615619" lon="-0.118325">
        <ele>1022.0</ele>
        <time>2016-06-09T12:12:00Z</time>
      </trkpt>
      <trkpt lat="42.615142" lon="-0.118403">
        <ele>1018.2</ele>
        <time>2016-06-09T12:12:08Z</time>
      </trkpt>
      <trkpt lat="42.615007" lon="-0.118608">
        <ele>1016.7</ele>
        <time>2016-06-09T12:12:11Z</time>
      </trkpt>
      <trkpt lat="42.614620" lon="-0.119000">
        <ele>1014.3</ele>
        <time>2016-06-09T12:12:18Z</time>
      </trkpt>
      <trkpt lat="42.614475" lon="-0.119046">
        <ele>1013.9</ele>
        <time>2016-06-09T12:12:20Z</time>
      </trkpt>
      <trkpt lat="42.614206" lon="-0.119416">
        <ele>1011.9</ele>
        <time>2016-06-09T12:12:25Z</time>
      </trkpt>
      <trkpt lat="42.613732" lon="-0.119956">
        <ele>1009.5</ele>
        <time>2016-06-09T12:12:33Z</time>
      </trkpt>
      <trkpt lat="42.613498" lon="-0.119932">
        <ele>1009.0</ele>
        <time>2016-06-09T12:12:36Z</time>
      </trkpt>
      <trkpt lat="42.613024" lon="-0.120230">
        <ele>1008.6</ele>
        <time>2016-06-09T12:12:44Z</time>
      </trkpt>
      <trkpt lat="42.612984" lon="-0.120310">
        <ele>1008.6</ele>
        <time>2016-06-09T12:12:45Z</time>
      </trkpt>
      <trkpt lat="42.612835" lon="-0.120676">
        <ele>1006.6</ele>
        <time>2016-06-09T12:12:49Z</time>
      </trkpt>
      <trkpt lat="42.612836" lon="-0.121354">
        <ele>1003.8</ele>
        <time>2016-06-09T12:12:55Z</time>
      </trkpt>
      <trkpt lat="42.612955" lon="-0.121842">
        <ele>1001.4</ele>
        <time>2016-06-09T12:12:59Z</time>
      </trkpt>
      <trkpt lat="42.613035" lon="-0.123925">
        <ele>990.8</ele>
        <time>2016-06-09T12:13:13Z</time>
      </trkpt>
      <trkpt lat="42.612662" lon="-0.124531">
        <ele>986.0</ele>
        <time>2016-06-09T12:13:19Z</time>
      </trkpt>
      <trkpt lat="42.612240" lon="-0.124206">
        <ele>982.6</ele>
        <time>2016-06-09T12:13:24Z</time>
      </trkpt>
      <trkpt lat="42.612187" lon="-0.124080">
        <ele>982.1</ele>
        <time>2016-06-09T12:13:25Z</time>
      </trkpt>
      <trkpt lat="42.611833" lon="-0.122270">
        <ele>971.6</ele>
        <time>2016-06-09T12:13:37Z</time>
      </trkpt>
      <trkpt lat="42.611813" lon="-0.121606">
        <ele>967.7</ele>
        <time>2016-06-09T12:13:41Z</time>
      </trkpt>
      <trkpt lat="42.611941" lon="-0.120961">
        <ele>964.3</ele>
        <time>2016-06-09T12:13:45Z</time>
      </trkpt>
      <trkpt lat="42.612164" lon="-0.120348">
        <ele>961.0</ele>
        <time>2016-06-09T12:13:49Z</time>
      </trkpt>
      <trkpt lat="42.612121" lon="-0.119404">
        <ele>955.2</ele>
        <time>2016-06-09T12:13:56Z</time>
      </trkpt>
      <trkpt lat="42.611723" lon="-0.119268">
        <ele>951.4</ele>
        <time>2016-06-09T12:14:01Z</time>
      </trkpt>
      <trkpt lat="42.611498" lon="-0.119692">
        <ele>949.0</ele>
        <time>2016-06-09T12:14:05Z</time>
      </trkpt>
      <trkpt lat="42.611359" lon="-0.120366">
        <ele>946.1</ele>
        <time>2016-06-09T12:14:10Z</time>
      </trkpt>
      <trkpt lat="42.611358" lon="-0.121205">
        <ele>943.2</ele>
        <time>2016-06-09T12:14:16Z</time>
      </trkpt>
      <trkpt lat="42.611597" lon="-0.122986">
        <ele>938.4</ele>
        <time>2016-06-09T12:14:31Z</time>
      </trkpt>
      <trkpt lat="42.611588" lon="-0.123862">
        <ele>934.5</ele>
        <time>2016-06-09T12:14:38Z</time>
      </trkpt>
      <trkpt lat="42.611186" lon="-0.124402">
        <ele>930.7</ele>
        <time>2016-06-09T12:14:44Z</time>
      </trkpt>
      <trkpt lat="42.610874" lon="-0.124316">
        <ele>929.7</ele>
        <time>2016-06-09T12:14:47Z</time>
      </trkpt>
      <trkpt lat="42.609322" lon="-0.123376">
        <ele>922.0</ele>
        <time>2016-06-09T12:15:04Z</time>
      </trkpt>
      <trkpt lat="42.607987" lon="-0.122928">
        <ele>915.8</ele>
        <time>2016-06-09T12:15:17Z</time>
      </trkpt>
      <trkpt lat="42.606787" lon="-0.123201">
        <ele>906.2</ele>
        <time>2016-06-09T12:15:28Z</time>
      </trkpt>
      <trkpt lat="42.605673" lon="-0.123797">
        <ele>898.5</ele>
        <time>2016-06-09T12:15:39Z</time>
      </trkpt>
      <trkpt lat="42.605055" lon="-0.123683">
        <ele>897.5</ele>
        <time>2016-06-09T12:15:46Z</time>
      </trkpt>
      <trkpt lat="42.604868" lon="-0.123512">
        <ele>898.0</ele>
        <time>2016-06-09T12:15:49Z</time>
      </trkpt>
      <trkpt lat="42.604403" lon="-0.122802">
        <ele>897.5</ele>
        <time>2016-06-09T12:16:02Z</time>
      </trkpt>
      <trkpt lat="42.604186" lon="-0.122310">
        <ele>897.1</ele>
        <time>2016-06-09T12:16:13Z</time>
      </trkpt>
      <trkpt lat="42.604081" lon="-0.122117">
        <ele>897.1</ele>
        <time>2016-06-09T12:16:17Z</time>
      </trkpt>
      <trkpt lat="42.603905" lon="-0.121788">
        <ele>897.1</ele>
        <time>2016-06-09T12:16:28Z</time>
      </trkpt>
      <trkpt lat="42.603866" lon="-0.121741">
        <ele>916.8</ele>
        <time>2016-06-09T12:39:13Z</time>
      </trkpt>
      <trkpt lat="42.603581" lon="-0.121250">
        <ele>914.4</ele>
        <time>2016-06-09T12:39:26Z</time>
      </trkpt>
      <trkpt lat="42.603108" lon="-0.120756">
        <ele>905.7</ele>
        <time>2016-06-09T12:39:43Z</time>
      </trkpt>
      <trkpt lat="42.602574" lon="-0.120515">
        <ele>902.8</ele>
        <time>2016-06-09T12:40:00Z</time>
      </trkpt>
      <trkpt lat="42.601953" lon="-0.120502">
        <ele>900.9</ele>
        <time>2016-06-09T12:40:18Z</time>
      </trkpt>
      <trkpt lat="42.601428" lon="-0.120596">
        <ele>900.9</ele>
        <time>2016-06-09T12:40:33Z</time>
      </trkpt>
      <trkpt lat="42.600948" lon="-0.120378">
        <ele>900.4</ele>
        <time>2016-06-09T12:40:49Z</time>
      </trkpt>
      <trkpt lat="42.600717" lon="-0.119913">
        <ele>902.8</ele>
        <time>2016-06-09T12:41:07Z</time>
      </trkpt>
      <trkpt lat="42.600503" lon="-0.119563">
        <ele>907.1</ele>
        <time>2016-06-09T12:41:24Z</time>
      </trkpt>
      <trkpt lat="42.600243" lon="-0.119362">
        <ele>912.0</ele>
        <time>2016-06-09T12:41:40Z</time>
      </trkpt>
      <trkpt lat="42.599982" lon="-0.119202">
        <ele>916.8</ele>
        <time>2016-06-09T12:41:55Z</time>
      </trkpt>
      <trkpt lat="42.599698" lon="-0.118971">
        <ele>919.2</ele>
        <time>2016-06-09T12:42:12Z</time>
      </trkpt>
      <trkpt lat="42.599476" lon="-0.118774">
        <ele>918.7</ele>
        <time>2016-06-09T12:42:25Z</time>
      </trkpt>
      <trkpt lat="42.599189" lon="-0.118492">
        <ele>917.7</ele>
        <time>2016-06-09T12:42:43Z</time>
      </trkpt>
      <trkpt lat="42.598961" lon="-0.118237">
        <ele>917.7</ele>
        <time>2016-06-09T12:42:57Z</time>
      </trkpt>
      <trkpt lat="42.598715" lon="-0.117955">
        <ele>917.7</ele>
        <time>2016-06-09T12:43:13Z</time>
      </trkpt>
      <trkpt lat="42.598460" lon="-0.117667">
        <ele>918.2</ele>
        <time>2016-06-09T12:43:30Z</time>
      </trkpt>
      <trkpt lat="42.598183" lon="-0.117504">
        <ele>922.5</ele>
        <time>2016-06-09T12:43:46Z</time>
      </trkpt>
      <trkpt lat="42.597788" lon="-0.117595">
        <ele>924.5</ele>
        <time>2016-06-09T12:44:03Z</time>
      </trkpt>
      <trkpt lat="42.597406" lon="-0.117710">
        <ele>929.3</ele>
        <time>2016-06-09T12:44:20Z</time>
      </trkpt>
      <trkpt lat="42.597060" lon="-0.117961">
        <ele>929.3</ele>
        <time>2016-06-09T12:44:36Z</time>
      </trkpt>
      <trkpt lat="42.596678" lon="-0.118394">
        <ele>930.2</ele>
        <time>2016-06-09T12:44:56Z</time>
      </trkpt>
      <trkpt lat="42.596328" lon="-0.118784">
        <ele>932.6</ele>
        <time>2016-06-09T12:45:15Z</time>
      </trkpt>
      <trkpt lat="42.595968" lon="-0.118821">
        <ele>934.5</ele>
        <time>2016-06-09T12:45:31Z</time>
      </trkpt>
      <trkpt lat="42.595628" lon="-0.118608">
        <ele>936.0</ele>
        <time>2016-06-09T12:45:47Z</time>
      </trkpt>
      <trkpt lat="42.595311" lon="-0.118169">
        <ele>938.4</ele>
        <time>2016-06-09T12:46:06Z</time>
      </trkpt>
      <trkpt lat="42.595017" lon="-0.117938">
        <ele>938.4</ele>
        <time>2016-06-09T12:46:20Z</time>
      </trkpt>
      <trkpt lat="42.594497" lon="-0.117999">
        <ele>937.4</ele>
        <time>2016-06-09T12:46:36Z</time>
      </trkpt>
      <trkpt lat="42.594119" lon="-0.118063">
        <ele>936.9</ele>
        <time>2016-06-09T12:46:44Z</time>
      </trkpt>
      <trkpt lat="42.593629" lon="-0.118442">
        <ele>934.1</ele>
        <time>2016-06-09T12:46:52Z</time>
      </trkpt>
      <trkpt lat="42.593469" lon="-0.118443">
        <ele>933.6</ele>
        <time>2016-06-09T12:46:54Z</time>
      </trkpt>
      <trkpt lat="42.593123" lon="-0.118365">
        <ele>931.7</ele>
        <time>2016-06-09T12:46:58Z</time>
      </trkpt>
      <trkpt lat="42.592745" lon="-0.118435">
        <ele>930.7</ele>
        <time>2016-06-09T12:47:02Z</time>
      </trkpt>
      <trkpt lat="42.591515" lon="-0.118691">
        <ele>929.7</ele>
        <time>2016-06-09T12:47:14Z</time>
      </trkpt>
      <trkpt lat="42.591293" lon="-0.118717">
        <ele>928.8</ele>
        <time>2016-06-09T12:47:16Z</time>
      </trkpt>
      <trkpt lat="42.590472" lon="-0.118361">
        <ele>924.0</ele>
        <time>2016-06-09T12:47:24Z</time>
      </trkpt>
      <trkpt lat="42.589333" lon="-0.117983">
        <ele>918.7</ele>
        <time>2016-06-09T12:47:35Z</time>
      </trkpt>
      <trkpt lat="42.588310" lon="-0.117525">
        <ele>915.8</ele>
        <time>2016-06-09T12:47:47Z</time>
      </trkpt>
      <trkpt lat="42.587456" lon="-0.117114">
        <ele>913.9</ele>
        <time>2016-06-09T12:48:01Z</time>
      </trkpt>
      <trkpt lat="42.586749" lon="-0.116787">
        <ele>912.9</ele>
        <time>2016-06-09T12:48:15Z</time>
      </trkpt>
      <trkpt lat="42.585932" lon="-0.116416">
        <ele>909.5</ele>
        <time>2016-06-09T12:48:31Z</time>
      </trkpt>
      <trkpt lat="42.585224" lon="-0.116088">
        <ele>905.7</ele>
        <time>2016-06-09T12:48:46Z</time>
      </trkpt>
      <trkpt lat="42.585100" lon="-0.116031">
        <ele>905.2</ele>
        <time>2016-06-09T12:48:49Z</time>
      </trkpt>
      <trkpt lat="42.584345" lon="-0.115818">
        <ele>904.3</ele>
        <time>2016-06-09T12:49:03Z</time>
      </trkpt>
      <trkpt lat="42.583220" lon="-0.115620">
        <ele>897.1</ele>
        <time>2016-06-09T12:49:18Z</time>
      </trkpt>
      <trkpt lat="42.582109" lon="-0.115433">
        <ele>891.3</ele>
        <time>2016-06-09T12:49:31Z</time>
      </trkpt>
      <trkpt lat="42.581395" lon="-0.115063">
        <ele>890.3</ele>
        <time>2016-06-09T12:49:43Z</time>
      </trkpt>
      <trkpt lat="42.581107" lon="-0.114902">
        <ele>890.3</ele>
        <time>2016-06-09T12:49:49Z</time>
      </trkpt>
      <trkpt lat="42.580998" lon="-0.114882">
        <ele>890.3</ele>
        <time>2016-06-09T12:49:51Z</time>
      </trkpt>
      <trkpt lat="42.580217" lon="-0.115150">
        <ele>886.0</ele>
        <time>2016-06-09T12:50:06Z</time>
      </trkpt>
      <trkpt lat="42.580074" lon="-0.115202">
        <ele>884.6</ele>
        <time>2016-06-09T12:50:08Z</time>
      </trkpt>
      <trkpt lat="42.579631" lon="-0.115134">
        <ele>880.7</ele>
        <time>2016-06-09T12:50:13Z</time>
      </trkpt>
      <trkpt lat="42.578280" lon="-0.114414">
        <ele>867.7</ele>
        <time>2016-06-09T12:50:26Z</time>
      </trkpt>
      <trkpt lat="42.577575" lon="-0.113773">
        <ele>860.5</ele>
        <time>2016-06-09T12:50:33Z</time>
      </trkpt>
      <trkpt lat="42.577123" lon="-0.113560">
        <ele>857.6</ele>
        <time>2016-06-09T12:50:37Z</time>
      </trkpt>
      <trkpt lat="42.575735" lon="-0.113284">
        <ele>852.8</ele>
        <time>2016-06-09T12:50:51Z</time>
      </trkpt>
      <trkpt lat="42.574761" lon="-0.113069">
        <ele>852.4</ele>
        <time>2016-06-09T12:51:05Z</time>
      </trkpt>
      <trkpt lat="42.573970" lon="-0.112886">
        <ele>853.8</ele>
        <time>2016-06-09T12:51:22Z</time>
      </trkpt>
      <trkpt lat="42.573325" lon="-0.112753">
        <ele>855.7</ele>
        <time>2016-06-09T12:51:38Z</time>
      </trkpt>
      <trkpt lat="42.572724" lon="-0.112609">
        <ele>857.2</ele>
        <time>2016-06-09T12:51:53Z</time>
      </trkpt>
      <trkpt lat="42.572162" lon="-0.112489">
        <ele>857.6</ele>
        <time>2016-06-09T12:52:08Z</time>
      </trkpt>
      <trkpt lat="42.571421" lon="-0.112331">
        <ele>859.1</ele>
        <time>2016-06-09T12:52:27Z</time>
      </trkpt>
      <trkpt lat="42.570625" lon="-0.112155">
        <ele>861.0</ele>
        <time>2016-06-09T12:52:48Z</time>
      </trkpt>
      <trkpt lat="42.569940" lon="-0.111998">
        <ele>862.9</ele>
        <time>2016-06-09T12:53:06Z</time>
      </trkpt>
      <trkpt lat="42.569303" lon="-0.111860">
        <ele>865.3</ele>
        <time>2016-06-09T12:53:24Z</time>
      </trkpt>
      <trkpt lat="42.568767" lon="-0.111746">
        <ele>871.6</ele>
        <time>2016-06-09T12:53:41Z</time>
      </trkpt>
      <trkpt lat="42.568218" lon="-0.111621">
        <ele>874.0</ele>
        <time>2016-06-09T12:53:57Z</time>
      </trkpt>
      <trkpt lat="42.567611" lon="-0.111492">
        <ele>871.6</ele>
        <time>2016-06-09T12:54:13Z</time>
      </trkpt>
      <trkpt lat="42.566941" lon="-0.111342">
        <ele>868.2</ele>
        <time>2016-06-09T12:54:29Z</time>
      </trkpt>
      <trkpt lat="42.566581" lon="-0.111601">
        <ele>865.8</ele>
        <time>2016-06-09T12:54:37Z</time>
      </trkpt>
      <trkpt lat="42.566196" lon="-0.112928">
        <ele>858.6</ele>
        <time>2016-06-09T12:54:52Z</time>
      </trkpt>
      <trkpt lat="42.566035" lon="-0.113282">
        <ele>857.2</ele>
        <time>2016-06-09T12:54:56Z</time>
      </trkpt>
      <trkpt lat="42.565036" lon="-0.114446">
        <ele>852.4</ele>
        <time>2016-06-09T12:55:13Z</time>
      </trkpt>
      <trkpt lat="42.564621" lon="-0.114797">
        <ele>851.4</ele>
        <time>2016-06-09T12:55:20Z</time>
      </trkpt>
      <trkpt lat="42.563870" lon="-0.115360">
        <ele>849.9</ele>
        <time>2016-06-09T12:55:33Z</time>
      </trkpt>
      <trkpt lat="42.563100" lon="-0.115883">
        <ele>848.0</ele>
        <time>2016-06-09T12:55:47Z</time>
      </trkpt>
      <trkpt lat="42.563006" lon="-0.115949">
        <ele>848.0</ele>
        <time>2016-06-09T12:55:49Z</time>
      </trkpt>
      <trkpt lat="42.562819" lon="-0.116083">
        <ele>848.0</ele>
        <time>2016-06-09T12:55:53Z</time>
      </trkpt>
      <trkpt lat="42.562521" lon="-0.116268">
        <ele>849.0</ele>
        <time>2016-06-09T12:55:59Z</time>
      </trkpt>
      <trkpt lat="42.561599" lon="-0.116614">
        <ele>850.4</ele>
        <time>2016-06-09T12:56:15Z</time>
      </trkpt>
      <trkpt lat="42.560700" lon="-0.116919">
        <ele>851.4</ele>
        <time>2016-06-09T12:56:31Z</time>
      </trkpt>
      <trkpt lat="42.560041" lon="-0.117132">
        <ele>850.4</ele>
        <time>2016-06-09T12:56:43Z</time>
      </trkpt>
      <trkpt lat="42.559675" lon="-0.117311">
        <ele>850.4</ele>
        <time>2016-06-09T12:56:50Z</time>
      </trkpt>
      <trkpt lat="42.559239" lon="-0.117735">
        <ele>850.9</ele>
        <time>2016-06-09T12:57:00Z</time>
      </trkpt>
      <trkpt lat="42.559158" lon="-0.117822">
        <ele>851.4</ele>
        <time>2016-06-09T12:57:02Z</time>
      </trkpt>
      <trkpt lat="42.558500" lon="-0.118538">
        <ele>847.5</ele>
        <time>2016-06-09T12:57:18Z</time>
      </trkpt>
      <trkpt lat="42.557815" lon="-0.119226">
        <ele>844.2</ele>
        <time>2016-06-09T12:57:35Z</time>
      </trkpt>
      <trkpt lat="42.556883" lon="-0.120216">
        <ele>841.3</ele>
        <time>2016-06-09T12:57:58Z</time>
      </trkpt>
      <trkpt lat="42.556252" lon="-0.120877">
        <ele>840.3</ele>
        <time>2016-06-09T12:58:13Z</time>
      </trkpt>
      <trkpt lat="42.555887" lon="-0.121185">
        <ele>839.4</ele>
        <time>2016-06-09T12:58:21Z</time>
      </trkpt>
      <trkpt lat="42.555739" lon="-0.121284">
        <ele>838.9</ele>
        <time>2016-06-09T12:58:24Z</time>
      </trkpt>
      <trkpt lat="42.555491" lon="-0.121453">
        <ele>839.4</ele>
        <time>2016-06-09T12:58:29Z</time>
      </trkpt>
      <trkpt lat="42.555084" lon="-0.121641">
        <ele>838.9</ele>
        <time>2016-06-09T12:58:37Z</time>
      </trkpt>
      <trkpt lat="42.554802" lon="-0.121719">
        <ele>838.4</ele>
        <time>2016-06-09T12:58:42Z</time>
      </trkpt>
      <trkpt lat="42.554525" lon="-0.121662">
        <ele>838.4</ele>
        <time>2016-06-09T12:58:47Z</time>
      </trkpt>
      <trkpt lat="42.553838" lon="-0.121295">
        <ele>839.9</ele>
        <time>2016-06-09T12:59:00Z</time>
      </trkpt>
      <trkpt lat="42.553265" lon="-0.121031">
        <ele>841.3</ele>
        <time>2016-06-09T12:59:11Z</time>
      </trkpt>
      <trkpt lat="42.553026" lon="-0.121075">
        <ele>841.8</ele>
        <time>2016-06-09T12:59:15Z</time>
      </trkpt>
      <trkpt lat="42.552015" lon="-0.121661">
        <ele>841.3</ele>
        <time>2016-06-09T12:59:36Z</time>
      </trkpt>
      <trkpt lat="42.551838" lon="-0.121785">
        <ele>840.3</ele>
        <time>2016-06-09T12:59:40Z</time>
      </trkpt>
      <trkpt lat="42.551678" lon="-0.122034">
        <ele>839.9</ele>
        <time>2016-06-09T12:59:45Z</time>
      </trkpt>
      <trkpt lat="42.551614" lon="-0.122194">
        <ele>839.9</ele>
        <time>2016-06-09T12:59:48Z</time>
      </trkpt>
      <trkpt lat="42.551494" lon="-0.122380">
        <ele>839.4</ele>
        <time>2016-06-09T12:59:52Z</time>
      </trkpt>
      <trkpt lat="42.551165" lon="-0.122628">
        <ele>839.9</ele>
        <time>2016-06-09T13:00:00Z</time>
      </trkpt>
      <trkpt lat="42.550633" lon="-0.122973">
        <ele>842.3</ele>
        <time>2016-06-09T13:00:13Z</time>
      </trkpt>
      <trkpt lat="42.550163" lon="-0.123047">
        <ele>844.2</ele>
        <time>2016-06-09T13:00:24Z</time>
      </trkpt>
      <trkpt lat="42.550069" lon="-0.123066">
        <ele>844.7</ele>
        <time>2016-06-09T13:00:26Z</time>
      </trkpt>
      <trkpt lat="42.549902" lon="-0.123160">
        <ele>844.2</ele>
        <time>2016-06-09T13:00:30Z</time>
      </trkpt>
      <trkpt lat="42.549800" lon="-0.123264">
        <ele>844.2</ele>
        <time>2016-06-09T13:00:33Z</time>
      </trkpt>
      <trkpt lat="42.549521" lon="-0.123552">
        <ele>844.7</ele>
        <time>2016-06-09T13:00:41Z</time>
      </trkpt>
      <trkpt lat="42.549132" lon="-0.123992">
        <ele>842.3</ele>
        <time>2016-06-09T13:00:53Z</time>
      </trkpt>
      <trkpt lat="42.548987" lon="-0.124112">
        <ele>841.3</ele>
        <time>2016-06-09T13:00:57Z</time>
      </trkpt>
      <trkpt lat="42.548335" lon="-0.124411">
        <ele>842.7</ele>
        <time>2016-06-09T13:01:13Z</time>
      </trkpt>
      <trkpt lat="42.548149" lon="-0.124671">
        <ele>841.3</ele>
        <time>2016-06-09T13:01:19Z</time>
      </trkpt>
      <trkpt lat="42.548109" lon="-0.125510">
        <ele>840.3</ele>
        <time>2016-06-09T13:01:34Z</time>
      </trkpt>
      <trkpt lat="42.547953" lon="-0.126434">
        <ele>839.4</ele>
        <time>2016-06-09T13:01:50Z</time>
      </trkpt>
      <trkpt lat="42.547621" lon="-0.127134">
        <ele>838.9</ele>
        <time>2016-06-09T13:02:04Z</time>
      </trkpt>
      <trkpt lat="42.546999" lon="-0.128034">
        <ele>842.7</ele>
        <time>2016-06-09T13:02:24Z</time>
      </trkpt>
      <trkpt lat="42.546768" lon="-0.128219">
        <ele>843.2</ele>
        <time>2016-06-09T13:02:30Z</time>
      </trkpt>
      <trkpt lat="42.546436" lon="-0.128387">
        <ele>843.7</ele>
        <time>2016-06-09T13:02:38Z</time>
      </trkpt>
      <trkpt lat="42.545877" lon="-0.128662">
        <ele>844.2</ele>
        <time>2016-06-09T13:02:52Z</time>
      </trkpt>
      <trkpt lat="42.545669" lon="-0.128751">
        <ele>844.7</ele>
        <time>2016-06-09T13:02:57Z</time>
      </trkpt>
      <trkpt lat="42.545037" lon="-0.128669">
        <ele>850.9</ele>
        <time>2016-06-09T13:03:11Z</time>
      </trkpt>
      <trkpt lat="42.544897" lon="-0.128642">
        <ele>851.9</ele>
        <time>2016-06-09T13:03:14Z</time>
      </trkpt>
      <trkpt lat="42.544711" lon="-0.128674">
        <ele>852.4</ele>
        <time>2016-06-09T13:03:18Z</time>
      </trkpt>
      <trkpt lat="42.544505" lon="-0.128861">
        <ele>851.9</ele>
        <time>2016-06-09T13:03:23Z</time>
      </trkpt>
      <trkpt lat="42.544428" lon="-0.128969">
        <ele>850.9</ele>
        <time>2016-06-09T13:03:25Z</time>
      </trkpt>
      <trkpt lat="42.544351" lon="-0.129077">
        <ele>849.9</ele>
        <time>2016-06-09T13:03:27Z</time>
      </trkpt>
      <trkpt lat="42.543813" lon="-0.129966">
        <ele>843.2</ele>
        <time>2016-06-09T13:03:43Z</time>
      </trkpt>
      <trkpt lat="42.543268" lon="-0.130629">
        <ele>841.3</ele>
        <time>2016-06-09T13:03:57Z</time>
      </trkpt>
      <trkpt lat="42.542959" lon="-0.130962">
        <ele>841.8</ele>
        <time>2016-06-09T13:04:05Z</time>
      </trkpt>
      <trkpt lat="42.542737" lon="-0.131298">
        <ele>843.2</ele>
        <time>2016-06-09T13:04:12Z</time>
      </trkpt>
      <trkpt lat="42.542407" lon="-0.132042">
        <ele>842.7</ele>
        <time>2016-06-09T13:04:26Z</time>
      </trkpt>
      <trkpt lat="42.542317" lon="-0.132232">
        <ele>841.8</ele>
        <time>2016-06-09T13:04:30Z</time>
      </trkpt>
      <trkpt lat="42.541956" lon="-0.133101">
        <ele>841.3</ele>
        <time>2016-06-09T13:04:46Z</time>
      </trkpt>
      <trkpt lat="42.541831" lon="-0.133379">
        <ele>841.3</ele>
        <time>2016-06-09T13:04:51Z</time>
      </trkpt>
      <trkpt lat="42.541395" lon="-0.134215">
        <ele>841.8</ele>
        <time>2016-06-09T13:05:07Z</time>
      </trkpt>
      <trkpt lat="42.541295" lon="-0.134350">
        <ele>841.8</ele>
        <time>2016-06-09T13:05:10Z</time>
      </trkpt>
      <trkpt lat="42.540942" lon="-0.135097">
        <ele>841.3</ele>
        <time>2016-06-09T13:05:24Z</time>
      </trkpt>
      <trkpt lat="42.540796" lon="-0.135329">
        <ele>841.8</ele>
        <time>2016-06-09T13:05:29Z</time>
      </trkpt>
      <trkpt lat="42.540347" lon="-0.135983">
        <ele>842.3</ele>
        <time>2016-06-09T13:05:44Z</time>
      </trkpt>
      <trkpt lat="42.539778" lon="-0.136888">
        <ele>843.7</ele>
        <time>2016-06-09T13:06:04Z</time>
      </trkpt>
      <trkpt lat="42.539316" lon="-0.137593">
        <ele>844.7</ele>
        <time>2016-06-09T13:06:20Z</time>
      </trkpt>
      <trkpt lat="42.539107" lon="-0.137899">
        <ele>845.6</ele>
        <time>2016-06-09T13:06:27Z</time>
      </trkpt>
      <trkpt lat="42.538958" lon="-0.138038">
        <ele>846.1</ele>
        <time>2016-06-09T13:06:31Z</time>
      </trkpt>
      <trkpt lat="42.538539" lon="-0.138654">
        <ele>847.1</ele>
        <time>2016-06-09T13:06:45Z</time>
      </trkpt>
      <trkpt lat="42.538261" lon="-0.139172">
        <ele>847.1</ele>
        <time>2016-06-09T13:06:56Z</time>
      </trkpt>
      <trkpt lat="42.538102" lon="-0.139259">
        <ele>847.1</ele>
        <time>2016-06-09T13:07:00Z</time>
      </trkpt>
      <trkpt lat="42.538055" lon="-0.139276">
        <ele>847.1</ele>
        <time>2016-06-09T13:07:01Z</time>
      </trkpt>
      <trkpt lat="42.537630" lon="-0.139393">
        <ele>847.5</ele>
        <time>2016-06-09T13:07:14Z</time>
      </trkpt>
      <trkpt lat="42.537252" lon="-0.139578">
        <ele>847.5</ele>
        <time>2016-06-09T13:07:27Z</time>
      </trkpt>
      <trkpt lat="42.536877" lon="-0.139746">
        <ele>848.0</ele>
        <time>2016-06-09T13:07:40Z</time>
      </trkpt>
      <trkpt lat="42.536521" lon="-0.139910">
        <ele>848.5</ele>
        <time>2016-06-09T13:07:52Z</time>
      </trkpt>
      <trkpt lat="42.536121" lon="-0.139906">
        <ele>849.0</ele>
        <time>2016-06-09T13:08:08Z</time>
      </trkpt>
      <trkpt lat="42.535710" lon="-0.139970">
        <ele>849.9</ele>
        <time>2016-06-09T13:08:24Z</time>
      </trkpt>
      <trkpt lat="42.535323" lon="-0.140148">
        <ele>854.8</ele>
        <time>2016-06-09T13:08:40Z</time>
      </trkpt>
      <trkpt lat="42.534863" lon="-0.140196">
        <ele>857.6</ele>
        <time>2016-06-09T13:08:54Z</time>
      </trkpt>
      <trkpt lat="42.534408" lon="-0.140252">
        <ele>858.6</ele>
        <time>2016-06-09T13:09:07Z</time>
      </trkpt>
      <trkpt lat="42.533965" lon="-0.140317">
        <ele>859.6</ele>
        <time>2016-06-09T13:09:20Z</time>
      </trkpt>
      <trkpt lat="42.533582" lon="-0.140339">
        <ele>861.5</ele>
        <time>2016-06-09T13:09:31Z</time>
      </trkpt>
      <trkpt lat="42.533448" lon="-0.140314">
        <ele>861.5</ele>
        <time>2016-06-09T13:09:34Z</time>
      </trkpt>
      <trkpt lat="42.532898" lon="-0.140204">
        <ele>862.9</ele>
        <time>2016-06-09T13:09:47Z</time>
      </trkpt>
      <trkpt lat="42.532247" lon="-0.139968">
        <ele>862.0</ele>
        <time>2016-06-09T13:10:02Z</time>
      </trkpt>
      <trkpt lat="42.531638" lon="-0.139593">
        <ele>862.9</ele>
        <time>2016-06-09T13:10:15Z</time>
      </trkpt>
      <trkpt lat="42.531412" lon="-0.139460">
        <ele>863.4</ele>
        <time>2016-06-09T13:10:20Z</time>
      </trkpt>
      <trkpt lat="42.531180" lon="-0.139140">
        <ele>862.4</ele>
        <time>2016-06-09T13:10:27Z</time>
      </trkpt>
      <trkpt lat="42.530863" lon="-0.138158">
        <ele>862.0</ele>
        <time>2016-06-09T13:10:43Z</time>
      </trkpt>
      <trkpt lat="42.530720" lon="-0.137583">
        <ele>862.4</ele>
        <time>2016-06-09T13:10:52Z</time>
      </trkpt>
      <trkpt lat="42.530340" lon="-0.136677">
        <ele>863.4</ele>
        <time>2016-06-09T13:11:07Z</time>
      </trkpt>
      <trkpt lat="42.529867" lon="-0.135703">
        <ele>859.6</ele>
        <time>2016-06-09T13:11:21Z</time>
      </trkpt>
      <trkpt lat="42.529839" lon="-0.135621">
        <ele>859.6</ele>
        <time>2016-06-09T13:11:22Z</time>
      </trkpt>
      <trkpt lat="42.529727" lon="-0.135068">
        <ele>858.1</ele>
        <time>2016-06-09T13:11:28Z</time>
      </trkpt>
      <trkpt lat="42.528976" lon="-0.133539">
        <ele>854.8</ele>
        <time>2016-06-09T13:11:46Z</time>
      </trkpt>
      <trkpt lat="42.528720" lon="-0.133244">
        <ele>853.3</ele>
        <time>2016-06-09T13:11:50Z</time>
      </trkpt>
      <trkpt lat="42.527853" lon="-0.133064">
        <ele>849.9</ele>
        <time>2016-06-09T13:11:59Z</time>
      </trkpt>
      <trkpt lat="42.527336" lon="-0.132998">
        <ele>848.5</ele>
        <time>2016-06-09T13:12:04Z</time>
      </trkpt>
      <trkpt lat="42.527227" lon="-0.133008">
        <ele>848.5</ele>
        <time>2016-06-09T13:12:05Z</time>
      </trkpt>
      <trkpt lat="42.526624" lon="-0.133336">
        <ele>847.1</ele>
        <time>2016-06-09T13:12:11Z</time>
      </trkpt>
      <trkpt lat="42.526145" lon="-0.133480">
        <ele>845.6</ele>
        <time>2016-06-09T13:12:15Z</time>
      </trkpt>
      <trkpt lat="42.525944" lon="-0.133597">
        <ele>845.6</ele>
        <time>2016-06-09T13:12:17Z</time>
      </trkpt>
      <trkpt lat="42.525210" lon="-0.134446">
        <ele>841.8</ele>
        <time>2016-06-09T13:12:26Z</time>
      </trkpt>
      <trkpt lat="42.524749" lon="-0.134425">
        <ele>839.9</ele>
        <time>2016-06-09T13:12:32Z</time>
      </trkpt>
      <trkpt lat="42.524446" lon="-0.134135">
        <ele>838.4</ele>
        <time>2016-06-09T13:12:37Z</time>
      </trkpt>
      <trkpt lat="42.523857" lon="-0.133403">
        <ele>835.0</ele>
        <time>2016-06-09T13:12:49Z</time>
      </trkpt>
      <trkpt lat="42.523343" lon="-0.132658">
        <ele>831.7</ele>
        <time>2016-06-09T13:13:02Z</time>
      </trkpt>
      <trkpt lat="42.523314" lon="-0.132596">
        <ele>831.2</ele>
        <time>2016-06-09T13:13:03Z</time>
      </trkpt>
      <trkpt lat="42.523163" lon="-0.132380">
        <ele>829.8</ele>
        <time>2016-06-09T13:13:07Z</time>
      </trkpt>
      <trkpt lat="42.522278" lon="-0.131708">
        <ele>826.4</ele>
        <time>2016-06-09T13:13:25Z</time>
      </trkpt>
      <trkpt lat="42.521446" lon="-0.131104">
        <ele>825.0</ele>
        <time>2016-06-09T13:13:41Z</time>
      </trkpt>
      <trkpt lat="42.520561" lon="-0.130508">
        <ele>822.1</ele>
        <time>2016-06-09T13:13:58Z</time>
      </trkpt>
      <trkpt lat="42.519834" lon="-0.129725">
        <ele>820.6</ele>
        <time>2016-06-09T13:14:15Z</time>
      </trkpt>
      <trkpt lat="42.519067" lon="-0.129063">
        <ele>822.1</ele>
        <time>2016-06-09T13:14:32Z</time>
      </trkpt>
      <trkpt lat="42.518350" lon="-0.128452">
        <ele>821.1</ele>
        <time>2016-06-09T13:14:46Z</time>
      </trkpt>
      <trkpt lat="42.517940" lon="-0.128278">
        <ele>819.7</ele>
        <time>2016-06-09T13:14:51Z</time>
      </trkpt>
      <trkpt lat="42.517617" lon="-0.128087">
        <ele>819.2</ele>
        <time>2016-06-09T13:14:55Z</time>
      </trkpt>
      <trkpt lat="42.517298" lon="-0.128101">
        <ele>817.3</ele>
        <time>2016-06-09T13:14:58Z</time>
      </trkpt>
      <trkpt lat="42.516860" lon="-0.127897">
        <ele>813.4</ele>
        <time>2016-06-09T13:15:03Z</time>
      </trkpt>
      <trkpt lat="42.516215" lon="-0.127261">
        <ele>808.1</ele>
        <time>2016-06-09T13:15:12Z</time>
      </trkpt>
      <trkpt lat="42.515596" lon="-0.127028">
        <ele>805.7</ele>
        <time>2016-06-09T13:15:20Z</time>
      </trkpt>
      <trkpt lat="42.515292" lon="-0.126770">
        <ele>804.3</ele>
        <time>2016-06-09T13:15:25Z</time>
      </trkpt>
      <trkpt lat="42.515198" lon="-0.126611">
        <ele>803.8</ele>
        <time>2016-06-09T13:15:27Z</time>
      </trkpt>
      <trkpt lat="42.514590" lon="-0.126131">
        <ele>802.4</ele>
        <time>2016-06-09T13:15:36Z</time>
      </trkpt>
      <trkpt lat="42.514198" lon="-0.126095">
        <ele>801.9</ele>
        <time>2016-06-09T13:15:41Z</time>
      </trkpt>
      <trkpt lat="42.513087" lon="-0.126319">
        <ele>796.1</ele>
        <time>2016-06-09T13:15:58Z</time>
      </trkpt>
      <trkpt lat="42.511918" lon="-0.126549">
        <ele>789.9</ele>
        <time>2016-06-09T13:16:16Z</time>
      </trkpt>
      <trkpt lat="42.511606" lon="-0.126600">
        <ele>789.4</ele>
        <time>2016-06-09T13:16:21Z</time>
      </trkpt>
      <trkpt lat="42.511274" lon="-0.126454">
        <ele>789.9</ele>
        <time>2016-06-09T13:16:28Z</time>
      </trkpt>
      <trkpt lat="42.511196" lon="-0.126360">
        <ele>789.4</ele>
        <time>2016-06-09T13:16:30Z</time>
      </trkpt>
      <trkpt lat="42.510889" lon="-0.125979">
        <ele>788.9</ele>
        <time>2016-06-09T13:16:38Z</time>
      </trkpt>
      <trkpt lat="42.510520" lon="-0.125856">
        <ele>787.0</ele>
        <time>2016-06-09T13:16:45Z</time>
      </trkpt>
      <trkpt lat="42.509620" lon="-0.125932">
        <ele>783.6</ele>
        <time>2016-06-09T13:17:00Z</time>
      </trkpt>
      <trkpt lat="42.509240" lon="-0.125923">
        <ele>783.1</ele>
        <time>2016-06-09T13:17:07Z</time>
      </trkpt>
      <trkpt lat="42.509046" lon="-0.125818">
        <ele>782.7</ele>
        <time>2016-06-09T13:17:11Z</time>
      </trkpt>
      <trkpt lat="42.508157" lon="-0.125008">
        <ele>781.2</ele>
        <time>2016-06-09T13:17:31Z</time>
      </trkpt>
      <trkpt lat="42.507189" lon="-0.124130">
        <ele>778.8</ele>
        <time>2016-06-09T13:17:51Z</time>
      </trkpt>
      <trkpt lat="42.506428" lon="-0.123414">
        <ele>776.9</ele>
        <time>2016-06-09T13:18:08Z</time>
      </trkpt>
      <trkpt lat="42.505890" lon="-0.122583">
        <ele>774.5</ele>
        <time>2016-06-09T13:18:23Z</time>
      </trkpt>
      <trkpt lat="42.505100" lon="-0.121250">
        <ele>769.2</ele>
        <time>2016-06-09T13:18:44Z</time>
      </trkpt>
      <trkpt lat="42.504856" lon="-0.120863">
        <ele>768.7</ele>
        <time>2016-06-09T13:18:50Z</time>
      </trkpt>
      <trkpt lat="42.504587" lon="-0.120648">
        <ele>767.8</ele>
        <time>2016-06-09T13:18:55Z</time>
      </trkpt>
      <trkpt lat="42.503865" lon="-0.120441">
        <ele>765.4</ele>
        <time>2016-06-09T13:19:06Z</time>
      </trkpt>
      <trkpt lat="42.503619" lon="-0.120256">
        <ele>764.4</ele>
        <time>2016-06-09T13:19:10Z</time>
      </trkpt>
      <trkpt lat="42.503362" lon="-0.119900">
        <ele>763.4</ele>
        <time>2016-06-09T13:19:15Z</time>
      </trkpt>
      <trkpt lat="42.503007" lon="-0.119729">
        <ele>763.4</ele>
        <time>2016-06-09T13:19:21Z</time>
      </trkpt>
      <trkpt lat="42.502865" lon="-0.119680">
        <ele>762.9</ele>
        <time>2016-06-09T13:19:23Z</time>
      </trkpt>
      <trkpt lat="42.502734" lon="-0.119619">
        <ele>762.9</ele>
        <time>2016-06-09T13:19:25Z</time>
      </trkpt>
      <trkpt lat="42.502463" lon="-0.119359">
        <ele>762.0</ele>
        <time>2016-06-09T13:19:30Z</time>
      </trkpt>
      <trkpt lat="42.501982" lon="-0.118856">
        <ele>762.9</ele>
        <time>2016-06-09T13:19:40Z</time>
      </trkpt>
      <trkpt lat="42.501795" lon="-0.118779">
        <ele>763.4</ele>
        <time>2016-06-09T13:19:44Z</time>
      </trkpt>
      <trkpt lat="42.501625" lon="-0.118788">
        <ele>763.9</ele>
        <time>2016-06-09T13:19:48Z</time>
      </trkpt>
      <trkpt lat="42.501467" lon="-0.118807">
        <ele>764.4</ele>
        <time>2016-06-09T13:19:52Z</time>
      </trkpt>
      <trkpt lat="42.501308" lon="-0.118631">
        <ele>764.9</ele>
        <time>2016-06-09T13:19:57Z</time>
      </trkpt>
      <trkpt lat="42.501128" lon="-0.118414">
        <ele>763.9</ele>
        <time>2016-06-09T13:20:02Z</time>
      </trkpt>
      <trkpt lat="42.500688" lon="-0.118198">
        <ele>762.9</ele>
        <time>2016-06-09T13:20:11Z</time>
      </trkpt>
      <trkpt lat="42.500086" lon="-0.117598">
        <ele>762.9</ele>
        <time>2016-06-09T13:20:27Z</time>
      </trkpt>
      <trkpt lat="42.499709" lon="-0.117108">
        <ele>763.9</ele>
        <time>2016-06-09T13:20:41Z</time>
      </trkpt>
      <trkpt lat="42.499623" lon="-0.116948">
        <ele>765.4</ele>
        <time>2016-06-09T13:20:46Z</time>
      </trkpt>
      <trkpt lat="42.499469" lon="-0.116980">
        <ele>767.3</ele>
        <time>2016-06-09T13:20:51Z</time>
      </trkpt>
      <trkpt lat="42.498955" lon="-0.117640">
        <ele>760.1</ele>
        <time>2016-06-09T13:21:06Z</time>
      </trkpt>
      <trkpt lat="42.498693" lon="-0.117710">
        <ele>757.2</ele>
        <time>2016-06-09T13:21:14Z</time>
      </trkpt>
      <trkpt lat="42.498715" lon="-0.117815">
        <ele>757.2</ele>
        <time>2016-06-09T13:21:17Z</time>
      </trkpt>
      <trkpt lat="42.498938" lon="-0.118173">
        <ele>762.5</ele>
        <time>2016-06-09T13:21:31Z</time>
      </trkpt>
      <trkpt lat="42.499234" lon="-0.118745">
        <ele>762.9</ele>
        <time>2016-06-09T13:21:47Z</time>
      </trkpt>
      <trkpt lat="42.499316" lon="-0.119253">
        <ele>757.7</ele>
        <time>2016-06-09T13:22:00Z</time>
      </trkpt>
      <trkpt lat="42.499434" lon="-0.119766">
        <ele>762.5</ele>
        <time>2016-06-09T13:22:15Z</time>
      </trkpt>
      <trkpt lat="42.499563" lon="-0.119997">
        <ele>765.8</ele>
        <time>2016-06-09T13:22:24Z</time>
      </trkpt>
      <trkpt lat="42.499530" lon="-0.120087">
        <ele>766.8</ele>
        <time>2016-06-09T13:22:28Z</time>
      </trkpt>
      <trkpt lat="42.499549" lon="-0.120045">
        <ele>773.0</ele>
        <time>2016-06-10T06:57:00Z</time>
      </trkpt>
      <trkpt lat="42.499727" lon="-0.120253">
        <ele>771.6</ele>
        <time>2016-06-10T06:57:18Z</time>
      </trkpt>
      <trkpt lat="42.499940" lon="-0.120610">
        <ele>772.1</ele>
        <time>2016-06-10T06:57:33Z</time>
      </trkpt>
      <trkpt lat="42.499861" lon="-0.120876">
        <ele>773.5</ele>
        <time>2016-06-10T06:57:45Z</time>
      </trkpt>
      <trkpt lat="42.499637" lon="-0.121010">
        <ele>775.4</ele>
        <time>2016-06-10T06:58:00Z</time>
      </trkpt>
      <trkpt lat="42.499454" lon="-0.121053">
        <ele>777.4</ele>
        <time>2016-06-10T06:58:14Z</time>
      </trkpt>
      <trkpt lat="42.499256" lon="-0.121094">
        <ele>780.7</ele>
        <time>2016-06-10T06:58:31Z</time>
      </trkpt>
      <trkpt lat="42.499203" lon="-0.121091">
        <ele>781.2</ele>
        <time>2016-06-10T06:58:36Z</time>
      </trkpt>
      <trkpt lat="42.498925" lon="-0.121150">
        <ele>785.1</ele>
        <time>2016-06-10T06:58:58Z</time>
      </trkpt>
      <trkpt lat="42.498702" lon="-0.121321">
        <ele>786.0</ele>
        <time>2016-06-10T06:59:16Z</time>
      </trkpt>
      <trkpt lat="42.498498" lon="-0.121603">
        <ele>788.4</ele>
        <time>2016-06-10T06:59:36Z</time>
      </trkpt>
      <trkpt lat="42.498389" lon="-0.121875">
        <ele>789.9</ele>
        <time>2016-06-10T06:59:53Z</time>
      </trkpt>
      <trkpt lat="42.498388" lon="-0.122205">
        <ele>792.3</ele>
        <time>2016-06-10T07:00:12Z</time>
      </trkpt>
      <trkpt lat="42.498524" lon="-0.122460">
        <ele>794.7</ele>
        <time>2016-06-10T07:00:29Z</time>
      </trkpt>
      <trkpt lat="42.498741" lon="-0.122608">
        <ele>797.1</ele>
        <time>2016-06-10T07:00:46Z</time>
      </trkpt>
      <trkpt lat="42.498949" lon="-0.122630">
        <ele>799.0</ele>
        <time>2016-06-10T07:01:01Z</time>
      </trkpt>
      <trkpt lat="42.499162" lon="-0.122472">
        <ele>802.4</ele>
        <time>2016-06-10T07:01:19Z</time>
      </trkpt>
      <trkpt lat="42.499377" lon="-0.122207">
        <ele>804.3</ele>
        <time>2016-06-10T07:01:39Z</time>
      </trkpt>
      <trkpt lat="42.499582" lon="-0.121998">
        <ele>806.7</ele>
        <time>2016-06-10T07:01:57Z</time>
      </trkpt>
      <trkpt lat="42.499768" lon="-0.121737">
        <ele>809.6</ele>
        <time>2016-06-10T07:02:15Z</time>
      </trkpt>
      <trkpt lat="42.499953" lon="-0.121459">
        <ele>813.4</ele>
        <time>2016-06-10T07:02:34Z</time>
      </trkpt>
      <trkpt lat="42.500155" lon="-0.121287">
        <ele>816.3</ele>
        <time>2016-06-10T07:02:51Z</time>
      </trkpt>
      <trkpt lat="42.500366" lon="-0.121436">
        <ele>818.7</ele>
        <time>2016-06-10T07:03:08Z</time>
      </trkpt>
      <trkpt lat="42.500587" lon="-0.121563">
        <ele>818.2</ele>
        <time>2016-06-10T07:03:23Z</time>
      </trkpt>
      <trkpt lat="42.500857" lon="-0.121677">
        <ele>819.7</ele>
        <time>2016-06-10T07:03:39Z</time>
      </trkpt>
      <trkpt lat="42.501012" lon="-0.121779">
        <ele>820.1</ele>
        <time>2016-06-10T07:03:49Z</time>
      </trkpt>
      <trkpt lat="42.501062" lon="-0.121845">
        <ele>820.6</ele>
        <time>2016-06-10T07:03:53Z</time>
      </trkpt>
      <trkpt lat="42.501332" lon="-0.122069">
        <ele>821.1</ele>
        <time>2016-06-10T07:04:10Z</time>
      </trkpt>
      <trkpt lat="42.501507" lon="-0.122289">
        <ele>821.6</ele>
        <time>2016-06-10T07:04:23Z</time>
      </trkpt>
      <trkpt lat="42.501761" lon="-0.122495">
        <ele>824.0</ele>
        <time>2016-06-10T07:04:39Z</time>
      </trkpt>
      <trkpt lat="42.501995" lon="-0.122766">
        <ele>822.6</ele>
        <time>2016-06-10T07:04:54Z</time>
      </trkpt>
      <trkpt lat="42.502260" lon="-0.123013">
        <ele>823.0</ele>
        <time>2016-06-10T07:05:08Z</time>
      </trkpt>
      <trkpt lat="42.502521" lon="-0.123308">
        <ele>823.0</ele>
        <time>2016-06-10T07:05:21Z</time>
      </trkpt>
      <trkpt lat="42.502840" lon="-0.123779">
        <ele>822.1</ele>
        <time>2016-06-10T07:05:38Z</time>
      </trkpt>
      <trkpt lat="42.503183" lon="-0.124333">
        <ele>824.0</ele>
        <time>2016-06-10T07:05:58Z</time>
      </trkpt>
      <trkpt lat="42.503461" lon="-0.124801">
        <ele>826.9</ele>
        <time>2016-06-10T07:06:18Z</time>
      </trkpt>
      <trkpt lat="42.503717" lon="-0.125185">
        <ele>828.8</ele>
        <time>2016-06-10T07:06:37Z</time>
      </trkpt>
      <trkpt lat="42.503913" lon="-0.125572">
        <ele>832.2</ele>
        <time>2016-06-10T07:06:55Z</time>
      </trkpt>
      <trkpt lat="42.504083" lon="-0.125887">
        <ele>836.0</ele>
        <time>2016-06-10T07:07:09Z</time>
      </trkpt>
      <trkpt lat="42.504284" lon="-0.126185">
        <ele>838.4</ele>
        <time>2016-06-10T07:07:23Z</time>
      </trkpt>
      <trkpt lat="42.504317" lon="-0.126264">
        <ele>837.9</ele>
        <time>2016-06-10T07:07:27Z</time>
      </trkpt>
      <trkpt lat="42.504391" lon="-0.126396">
        <ele>837.0</ele>
        <time>2016-06-10T07:07:33Z</time>
      </trkpt>
      <trkpt lat="42.504609" lon="-0.126751">
        <ele>836.0</ele>
        <time>2016-06-10T07:07:49Z</time>
      </trkpt>
      <trkpt lat="42.504884" lon="-0.127051">
        <ele>837.5</ele>
        <time>2016-06-10T07:08:05Z</time>
      </trkpt>
      <trkpt lat="42.505061" lon="-0.127178">
        <ele>838.4</ele>
        <time>2016-06-10T07:08:15Z</time>
      </trkpt>
      <trkpt lat="42.505242" lon="-0.127355">
        <ele>838.4</ele>
        <time>2016-06-10T07:08:24Z</time>
      </trkpt>
      <trkpt lat="42.505528" lon="-0.127516">
        <ele>838.9</ele>
        <time>2016-06-10T07:08:36Z</time>
      </trkpt>
      <trkpt lat="42.505856" lon="-0.127711">
        <ele>839.9</ele>
        <time>2016-06-10T07:08:49Z</time>
      </trkpt>
      <trkpt lat="42.506107" lon="-0.128053">
        <ele>840.3</ele>
        <time>2016-06-10T07:09:02Z</time>
      </trkpt>
      <trkpt lat="42.506290" lon="-0.128316">
        <ele>840.8</ele>
        <time>2016-06-10T07:09:14Z</time>
      </trkpt>
      <trkpt lat="42.506512" lon="-0.128606">
        <ele>841.8</ele>
        <time>2016-06-10T07:09:25Z</time>
      </trkpt>
      <trkpt lat="42.506705" lon="-0.128969">
        <ele>841.8</ele>
        <time>2016-06-10T07:09:37Z</time>
      </trkpt>
      <trkpt lat="42.506906" lon="-0.129298">
        <ele>842.3</ele>
        <time>2016-06-10T07:09:49Z</time>
      </trkpt>
      <trkpt lat="42.507082" lon="-0.129613">
        <ele>843.2</ele>
        <time>2016-06-10T07:10:02Z</time>
      </trkpt>
      <trkpt lat="42.507361" lon="-0.129758">
        <ele>844.2</ele>
        <time>2016-06-10T07:10:17Z</time>
      </trkpt>
      <trkpt lat="42.507643" lon="-0.129992">
        <ele>844.2</ele>
        <time>2016-06-10T07:10:33Z</time>
      </trkpt>
      <trkpt lat="42.507851" lon="-0.130196">
        <ele>845.1</ele>
        <time>2016-06-10T07:10:47Z</time>
      </trkpt>
      <trkpt lat="42.508026" lon="-0.130401">
        <ele>847.5</ele>
        <time>2016-06-10T07:11:00Z</time>
      </trkpt>
      <trkpt lat="42.508198" lon="-0.130579">
        <ele>849.0</ele>
        <time>2016-06-10T07:11:14Z</time>
      </trkpt>
      <trkpt lat="42.508378" lon="-0.130743">
        <ele>850.9</ele>
        <time>2016-06-10T07:11:27Z</time>
      </trkpt>
      <trkpt lat="42.508586" lon="-0.130951">
        <ele>854.3</ele>
        <time>2016-06-10T07:11:43Z</time>
      </trkpt>
      <trkpt lat="42.508669" lon="-0.131212">
        <ele>854.8</ele>
        <time>2016-06-10T07:11:56Z</time>
      </trkpt>
      <trkpt lat="42.508702" lon="-0.131562">
        <ele>856.2</ele>
        <time>2016-06-10T07:12:12Z</time>
      </trkpt>
      <trkpt lat="42.508768" lon="-0.131911">
        <ele>857.2</ele>
        <time>2016-06-10T07:12:28Z</time>
      </trkpt>
      <trkpt lat="42.508780" lon="-0.132175">
        <ele>858.1</ele>
        <time>2016-06-10T07:12:38Z</time>
      </trkpt>
      <trkpt lat="42.508829" lon="-0.132552">
        <ele>859.6</ele>
        <time>2016-06-10T07:12:53Z</time>
      </trkpt>
      <trkpt lat="42.508948" lon="-0.132667">
        <ele>860.0</ele>
        <time>2016-06-10T07:12:59Z</time>
      </trkpt>
      <trkpt lat="42.509069" lon="-0.132519">
        <ele>862.9</ele>
        <time>2016-06-10T07:13:08Z</time>
      </trkpt>
      <trkpt lat="42.509359" lon="-0.132187">
        <ele>865.8</ele>
        <time>2016-06-10T07:13:26Z</time>
      </trkpt>
      <trkpt lat="42.509576" lon="-0.131983">
        <ele>865.8</ele>
        <time>2016-06-10T07:13:34Z</time>
      </trkpt>
      <trkpt lat="42.509667" lon="-0.131851">
        <ele>864.8</ele>
        <time>2016-06-10T07:13:37Z</time>
      </trkpt>
      <trkpt lat="42.509975" lon="-0.131744">
        <ele>862.4</ele>
        <time>2016-06-10T07:13:43Z</time>
      </trkpt>
      <trkpt lat="42.510544" lon="-0.131883">
        <ele>858.6</ele>
        <time>2016-06-10T07:13:51Z</time>
      </trkpt>
      <trkpt lat="42.510994" lon="-0.131827">
        <ele>855.7</ele>
        <time>2016-06-10T07:13:56Z</time>
      </trkpt>
      <trkpt lat="42.511904" lon="-0.132079">
        <ele>848.5</ele>
        <time>2016-06-10T07:14:05Z</time>
      </trkpt>
      <trkpt lat="42.512529" lon="-0.132132">
        <ele>844.7</ele>
        <time>2016-06-10T07:14:11Z</time>
      </trkpt>
      <trkpt lat="42.512841" lon="-0.132210">
        <ele>845.1</ele>
        <time>2016-06-10T07:14:15Z</time>
      </trkpt>
      <trkpt lat="42.513113" lon="-0.132405">
        <ele>847.1</ele>
        <time>2016-06-10T07:14:25Z</time>
      </trkpt>
      <trkpt lat="42.513371" lon="-0.132605">
        <ele>848.5</ele>
        <time>2016-06-10T07:14:41Z</time>
      </trkpt>
      <trkpt lat="42.513643" lon="-0.132779">
        <ele>850.4</ele>
        <time>2016-06-10T07:14:58Z</time>
      </trkpt>
      <trkpt lat="42.513793" lon="-0.132856">
        <ele>851.4</ele>
        <time>2016-06-10T07:15:07Z</time>
      </trkpt>
      <trkpt lat="42.513849" lon="-0.132901">
        <ele>851.9</ele>
        <time>2016-06-10T07:15:11Z</time>
      </trkpt>
      <trkpt lat="42.514183" lon="-0.133058">
        <ele>854.3</ele>
        <time>2016-06-10T07:15:30Z</time>
      </trkpt>
      <trkpt lat="42.514470" lon="-0.133159">
        <ele>857.2</ele>
        <time>2016-06-10T07:15:47Z</time>
      </trkpt>
      <trkpt lat="42.514731" lon="-0.133280">
        <ele>860.0</ele>
        <time>2016-06-10T07:16:03Z</time>
      </trkpt>
      <trkpt lat="42.514980" lon="-0.133358">
        <ele>862.0</ele>
        <time>2016-06-10T07:16:18Z</time>
      </trkpt>
      <trkpt lat="42.515184" lon="-0.133469">
        <ele>865.8</ele>
        <time>2016-06-10T07:16:33Z</time>
      </trkpt>
      <trkpt lat="42.515413" lon="-0.133572">
        <ele>865.8</ele>
        <time>2016-06-10T07:16:48Z</time>
      </trkpt>
      <trkpt lat="42.515618" lon="-0.133636">
        <ele>869.2</ele>
        <time>2016-06-10T07:17:01Z</time>
      </trkpt>
      <trkpt lat="42.515840" lon="-0.133745">
        <ele>870.1</ele>
        <time>2016-06-10T07:17:16Z</time>
      </trkpt>
      <trkpt lat="42.516056" lon="-0.133886">
        <ele>870.1</ele>
        <time>2016-06-10T07:17:32Z</time>
      </trkpt>
      <trkpt lat="42.516285" lon="-0.134003">
        <ele>872.1</ele>
        <time>2016-06-10T07:17:48Z</time>
      </trkpt>
      <trkpt lat="42.516521" lon="-0.134132">
        <ele>873.5</ele>
        <time>2016-06-10T07:18:04Z</time>
      </trkpt>
      <trkpt lat="42.516676" lon="-0.134179">
        <ele>874.5</ele>
        <time>2016-06-10T07:18:14Z</time>
      </trkpt>
      <trkpt lat="42.516882" lon="-0.134301">
        <ele>876.4</ele>
        <time>2016-06-10T07:18:29Z</time>
      </trkpt>
      <trkpt lat="42.517103" lon="-0.134478">
        <ele>880.2</ele>
        <time>2016-06-10T07:18:46Z</time>
      </trkpt>
      <trkpt lat="42.517320" lon="-0.134654">
        <ele>882.6</ele>
        <time>2016-06-10T07:19:02Z</time>
      </trkpt>
      <trkpt lat="42.517543" lon="-0.134686">
        <ele>886.5</ele>
        <time>2016-06-10T07:19:17Z</time>
      </trkpt>
      <trkpt lat="42.517773" lon="-0.134742">
        <ele>889.8</ele>
        <time>2016-06-10T07:19:32Z</time>
      </trkpt>
      <trkpt lat="42.518042" lon="-0.134710">
        <ele>891.8</ele>
        <time>2016-06-10T07:19:48Z</time>
      </trkpt>
      <trkpt lat="42.518334" lon="-0.134666">
        <ele>892.2</ele>
        <time>2016-06-10T07:20:05Z</time>
      </trkpt>
      <trkpt lat="42.518580" lon="-0.134693">
        <ele>892.2</ele>
        <time>2016-06-10T07:20:20Z</time>
      </trkpt>
      <trkpt lat="42.518903" lon="-0.134744">
        <ele>894.2</ele>
        <time>2016-06-10T07:20:39Z</time>
      </trkpt>
      <trkpt lat="42.519154" lon="-0.134870">
        <ele>895.6</ele>
        <time>2016-06-10T07:20:56Z</time>
      </trkpt>
      <trkpt lat="42.519369" lon="-0.134953">
        <ele>898.5</ele>
        <time>2016-06-10T07:21:11Z</time>
      </trkpt>
      <trkpt lat="42.519600" lon="-0.134934">
        <ele>900.9</ele>
        <time>2016-06-10T07:21:26Z</time>
      </trkpt>
      <trkpt lat="42.519881" lon="-0.134896">
        <ele>902.3</ele>
        <time>2016-06-10T07:21:44Z</time>
      </trkpt>
      <trkpt lat="42.520114" lon="-0.135105">
        <ele>904.3</ele>
        <time>2016-06-10T07:22:02Z</time>
      </trkpt>
      <trkpt lat="42.520333" lon="-0.135355">
        <ele>909.1</ele>
        <time>2016-06-10T07:22:21Z</time>
      </trkpt>
      <trkpt lat="42.520592" lon="-0.135538">
        <ele>912.0</ele>
        <time>2016-06-10T07:22:38Z</time>
      </trkpt>
      <trkpt lat="42.520917" lon="-0.135840">
        <ele>912.4</ele>
        <time>2016-06-10T07:22:58Z</time>
      </trkpt>
      <trkpt lat="42.521266" lon="-0.136085">
        <ele>909.5</ele>
        <time>2016-06-10T07:23:16Z</time>
      </trkpt>
      <trkpt lat="42.521461" lon="-0.136185">
        <ele>911.0</ele>
        <time>2016-06-10T07:23:26Z</time>
      </trkpt>
      <trkpt lat="42.521507" lon="-0.136255">
        <ele>912.0</ele>
        <time>2016-06-10T07:23:30Z</time>
      </trkpt>
      <trkpt lat="42.521670" lon="-0.136535">
        <ele>914.4</ele>
        <time>2016-06-10T07:23:45Z</time>
      </trkpt>
      <trkpt lat="42.521771" lon="-0.136816">
        <ele>914.8</ele>
        <time>2016-06-10T07:23:58Z</time>
      </trkpt>
      <trkpt lat="42.521862" lon="-0.136853">
        <ele>914.8</ele>
        <time>2016-06-10T07:24:03Z</time>
      </trkpt>
      <trkpt lat="42.522181" lon="-0.136858">
        <ele>915.8</ele>
        <time>2016-06-10T07:24:16Z</time>
      </trkpt>
      <trkpt lat="42.522527" lon="-0.137093">
        <ele>915.3</ele>
        <time>2016-06-10T07:24:27Z</time>
      </trkpt>
      <trkpt lat="42.522658" lon="-0.137311">
        <ele>913.9</ele>
        <time>2016-06-10T07:24:32Z</time>
      </trkpt>
      <trkpt lat="42.522871" lon="-0.137955">
        <ele>911.5</ele>
        <time>2016-06-10T07:24:41Z</time>
      </trkpt>
      <trkpt lat="42.523198" lon="-0.138098">
        <ele>907.6</ele>
        <time>2016-06-10T07:24:48Z</time>
      </trkpt>
      <trkpt lat="42.523326" lon="-0.138051">
        <ele>907.1</ele>
        <time>2016-06-10T07:24:50Z</time>
      </trkpt>
      <trkpt lat="42.523675" lon="-0.137962">
        <ele>905.7</ele>
        <time>2016-06-10T07:24:55Z</time>
      </trkpt>
      <trkpt lat="42.523917" lon="-0.138117">
        <ele>907.1</ele>
        <time>2016-06-10T07:25:00Z</time>
      </trkpt>
      <trkpt lat="42.524014" lon="-0.138420">
        <ele>908.6</ele>
        <time>2016-06-10T07:25:12Z</time>
      </trkpt>
      <trkpt lat="42.524165" lon="-0.138684">
        <ele>910.5</ele>
        <time>2016-06-10T07:25:27Z</time>
      </trkpt>
      <trkpt lat="42.524430" lon="-0.138823">
        <ele>913.9</ele>
        <time>2016-06-10T07:25:44Z</time>
      </trkpt>
      <trkpt lat="42.524683" lon="-0.138757">
        <ele>915.8</ele>
        <time>2016-06-10T07:26:00Z</time>
      </trkpt>
      <trkpt lat="42.524873" lon="-0.138909">
        <ele>917.2</ele>
        <time>2016-06-10T07:26:14Z</time>
      </trkpt>
      <trkpt lat="42.525112" lon="-0.139033">
        <ele>919.2</ele>
        <time>2016-06-10T07:26:30Z</time>
      </trkpt>
      <trkpt lat="42.525332" lon="-0.139217">
        <ele>923.0</ele>
        <time>2016-06-10T07:26:48Z</time>
      </trkpt>
      <trkpt lat="42.525463" lon="-0.139418">
        <ele>924.5</ele>
        <time>2016-06-10T07:27:01Z</time>
      </trkpt>
      <trkpt lat="42.525643" lon="-0.139663">
        <ele>926.9</ele>
        <time>2016-06-10T07:27:19Z</time>
      </trkpt>
      <trkpt lat="42.525767" lon="-0.139873">
        <ele>927.8</ele>
        <time>2016-06-10T07:27:33Z</time>
      </trkpt>
      <trkpt lat="42.525909" lon="-0.140104">
        <ele>927.8</ele>
        <time>2016-06-10T07:27:47Z</time>
      </trkpt>
      <trkpt lat="42.526173" lon="-0.140121">
        <ele>932.1</ele>
        <time>2016-06-10T07:28:05Z</time>
      </trkpt>
      <trkpt lat="42.526374" lon="-0.139981">
        <ele>936.5</ele>
        <time>2016-06-10T07:28:19Z</time>
      </trkpt>
      <trkpt lat="42.526578" lon="-0.139926">
        <ele>937.9</ele>
        <time>2016-06-10T07:28:32Z</time>
      </trkpt>
      <trkpt lat="42.526844" lon="-0.140004">
        <ele>938.9</ele>
        <time>2016-06-10T07:28:49Z</time>
      </trkpt>
      <trkpt lat="42.527046" lon="-0.140163">
        <ele>941.3</ele>
        <time>2016-06-10T07:29:04Z</time>
      </trkpt>
      <trkpt lat="42.527248" lon="-0.140358">
        <ele>943.2</ele>
        <time>2016-06-10T07:29:21Z</time>
      </trkpt>
      <trkpt lat="42.527489" lon="-0.140408">
        <ele>947.0</ele>
        <time>2016-06-10T07:29:37Z</time>
      </trkpt>
      <trkpt lat="42.527748" lon="-0.140417">
        <ele>950.9</ele>
        <time>2016-06-10T07:29:55Z</time>
      </trkpt>
      <trkpt lat="42.527967" lon="-0.140556">
        <ele>950.9</ele>
        <time>2016-06-10T07:30:11Z</time>
      </trkpt>
      <trkpt lat="42.528180" lon="-0.140811">
        <ele>950.4</ele>
        <time>2016-06-10T07:30:26Z</time>
      </trkpt>
      <trkpt lat="42.528328" lon="-0.141217">
        <ele>950.9</ele>
        <time>2016-06-10T07:30:41Z</time>
      </trkpt>
      <trkpt lat="42.528503" lon="-0.141635">
        <ele>949.0</ele>
        <time>2016-06-10T07:30:52Z</time>
      </trkpt>
      <trkpt lat="42.528778" lon="-0.141790">
        <ele>948.0</ele>
        <time>2016-06-10T07:31:05Z</time>
      </trkpt>
      <trkpt lat="42.529027" lon="-0.141967">
        <ele>948.5</ele>
        <time>2016-06-10T07:31:19Z</time>
      </trkpt>
      <trkpt lat="42.529228" lon="-0.142369">
        <ele>949.0</ele>
        <time>2016-06-10T07:31:34Z</time>
      </trkpt>
      <trkpt lat="42.529433" lon="-0.142815">
        <ele>949.9</ele>
        <time>2016-06-10T07:31:49Z</time>
      </trkpt>
      <trkpt lat="42.529614" lon="-0.143245">
        <ele>951.4</ele>
        <time>2016-06-10T07:32:04Z</time>
      </trkpt>
      <trkpt lat="42.529841" lon="-0.143549">
        <ele>950.4</ele>
        <time>2016-06-10T07:32:14Z</time>
      </trkpt>
      <trkpt lat="42.529955" lon="-0.143854">
        <ele>948.5</ele>
        <time>2016-06-10T07:32:19Z</time>
      </trkpt>
      <trkpt lat="42.530107" lon="-0.144198">
        <ele>947.0</ele>
        <time>2016-06-10T07:32:24Z</time>
      </trkpt>
      <trkpt lat="42.530459" lon="-0.144630">
        <ele>944.2</ele>
        <time>2016-06-10T07:32:32Z</time>
      </trkpt>
      <trkpt lat="42.530705" lon="-0.145001">
        <ele>946.1</ele>
        <time>2016-06-10T07:32:42Z</time>
      </trkpt>
      <trkpt lat="42.530865" lon="-0.145260">
        <ele>949.4</ele>
        <time>2016-06-10T07:32:56Z</time>
      </trkpt>
      <trkpt lat="42.530967" lon="-0.145508">
        <ele>952.3</ele>
        <time>2016-06-10T07:33:09Z</time>
      </trkpt>
      <trkpt lat="42.531105" lon="-0.145579">
        <ele>955.2</ele>
        <time>2016-06-10T07:33:19Z</time>
      </trkpt>
      <trkpt lat="42.531168" lon="-0.145601">
        <ele>956.2</ele>
        <time>2016-06-10T07:33:24Z</time>
      </trkpt>
      <trkpt lat="42.531324" lon="-0.145718">
        <ele>959.5</ele>
        <time>2016-06-10T07:33:38Z</time>
      </trkpt>
      <trkpt lat="42.531500" lon="-0.145898">
        <ele>961.5</ele>
        <time>2016-06-10T07:33:53Z</time>
      </trkpt>
      <trkpt lat="42.531664" lon="-0.146048">
        <ele>963.4</ele>
        <time>2016-06-10T07:34:08Z</time>
      </trkpt>
      <trkpt lat="42.531835" lon="-0.146143">
        <ele>964.8</ele>
        <time>2016-06-10T07:34:22Z</time>
      </trkpt>
      <trkpt lat="42.531909" lon="-0.146211">
        <ele>964.8</ele>
        <time>2016-06-10T07:34:30Z</time>
      </trkpt>
      <trkpt lat="42.531982" lon="-0.146238">
        <ele>964.3</ele>
        <time>2016-06-10T07:34:35Z</time>
      </trkpt>
      <trkpt lat="42.532189" lon="-0.146319">
        <ele>967.2</ele>
        <time>2016-06-10T07:34:50Z</time>
      </trkpt>
      <trkpt lat="42.532349" lon="-0.146415">
        <ele>970.6</ele>
        <time>2016-06-10T07:35:04Z</time>
      </trkpt>
      <trkpt lat="42.532514" lon="-0.146632">
        <ele>974.0</ele>
        <time>2016-06-10T07:35:21Z</time>
      </trkpt>
      <trkpt lat="42.532651" lon="-0.146809">
        <ele>975.4</ele>
        <time>2016-06-10T07:35:35Z</time>
      </trkpt>
      <trkpt lat="42.532804" lon="-0.146978">
        <ele>976.8</ele>
        <time>2016-06-10T07:35:49Z</time>
      </trkpt>
      <trkpt lat="42.533003" lon="-0.147128">
        <ele>980.2</ele>
        <time>2016-06-10T07:36:05Z</time>
      </trkpt>
      <trkpt lat="42.533107" lon="-0.147299">
        <ele>980.2</ele>
        <time>2016-06-10T07:36:18Z</time>
      </trkpt>
      <trkpt lat="42.533171" lon="-0.147327">
        <ele>982.1</ele>
        <time>2016-06-10T07:36:23Z</time>
      </trkpt>
      <trkpt lat="42.533329" lon="-0.147510">
        <ele>984.5</ele>
        <time>2016-06-10T07:36:38Z</time>
      </trkpt>
      <trkpt lat="42.533476" lon="-0.147682">
        <ele>988.9</ele>
        <time>2016-06-10T07:36:52Z</time>
      </trkpt>
      <trkpt lat="42.533616" lon="-0.147894">
        <ele>989.8</ele>
        <time>2016-06-10T07:37:06Z</time>
      </trkpt>
      <trkpt lat="42.533642" lon="-0.147960">
        <ele>989.8</ele>
        <time>2016-06-10T07:37:10Z</time>
      </trkpt>
      <trkpt lat="42.533767" lon="-0.148176">
        <ele>993.2</ele>
        <time>2016-06-10T07:37:24Z</time>
      </trkpt>
      <trkpt lat="42.533796" lon="-0.148245">
        <ele>994.1</ele>
        <time>2016-06-10T07:37:28Z</time>
      </trkpt>
      <trkpt lat="42.533828" lon="-0.148312">
        <ele>994.6</ele>
        <time>2016-06-10T07:37:32Z</time>
      </trkpt>
      <trkpt lat="42.533856" lon="-0.148381">
        <ele>996.1</ele>
        <time>2016-06-10T07:37:36Z</time>
      </trkpt>
      <trkpt lat="42.533970" lon="-0.148672">
        <ele>999.9</ele>
        <time>2016-06-10T07:37:53Z</time>
      </trkpt>
      <trkpt lat="42.533988" lon="-0.148747">
        <ele>1000.9</ele>
        <time>2016-06-10T07:37:57Z</time>
      </trkpt>
      <trkpt lat="42.534024" lon="-0.148809">
        <ele>1002.3</ele>
        <time>2016-06-10T07:38:01Z</time>
      </trkpt>
      <trkpt lat="42.534099" lon="-0.149073">
        <ele>1007.1</ele>
        <time>2016-06-10T07:38:16Z</time>
      </trkpt>
      <trkpt lat="42.534194" lon="-0.149334">
        <ele>1010.0</ele>
        <time>2016-06-10T07:38:31Z</time>
      </trkpt>
      <trkpt lat="42.534286" lon="-0.149623">
        <ele>1013.9</ele>
        <time>2016-06-10T07:38:47Z</time>
      </trkpt>
      <trkpt lat="42.534303" lon="-0.149886">
        <ele>1016.3</ele>
        <time>2016-06-10T07:39:02Z</time>
      </trkpt>
      <trkpt lat="42.534314" lon="-0.149975">
        <ele>1016.7</ele>
        <time>2016-06-10T07:39:07Z</time>
      </trkpt>
      <trkpt lat="42.534319" lon="-0.150074">
        <ele>1017.7</ele>
        <time>2016-06-10T07:39:13Z</time>
      </trkpt>
      <trkpt lat="42.534298" lon="-0.150215">
        <ele>1018.7</ele>
        <time>2016-06-10T07:39:20Z</time>
      </trkpt>
      <trkpt lat="42.534285" lon="-0.150565">
        <ele>1021.1</ele>
        <time>2016-06-10T07:39:37Z</time>
      </trkpt>
      <trkpt lat="42.534271" lon="-0.150747">
        <ele>1021.1</ele>
        <time>2016-06-10T07:39:46Z</time>
      </trkpt>
      <trkpt lat="42.534233" lon="-0.151065">
        <ele>1024.4</ele>
        <time>2016-06-10T07:40:02Z</time>
      </trkpt>
      <trkpt lat="42.534185" lon="-0.151343">
        <ele>1024.4</ele>
        <time>2016-06-10T07:40:16Z</time>
      </trkpt>
      <trkpt lat="42.534173" lon="-0.151643">
        <ele>1027.3</ele>
        <time>2016-06-10T07:40:30Z</time>
      </trkpt>
      <trkpt lat="42.534192" lon="-0.151797">
        <ele>1027.3</ele>
        <time>2016-06-10T07:40:37Z</time>
      </trkpt>
      <trkpt lat="42.534207" lon="-0.152149">
        <ele>1025.9</ele>
        <time>2016-06-10T07:40:54Z</time>
      </trkpt>
      <trkpt lat="42.534162" lon="-0.152325">
        <ele>1025.4</ele>
        <time>2016-06-10T07:41:03Z</time>
      </trkpt>
      <trkpt lat="42.534006" lon="-0.152596">
        <ele>1027.3</ele>
        <time>2016-06-10T07:41:20Z</time>
      </trkpt>
      <trkpt lat="42.533822" lon="-0.152775">
        <ele>1030.2</ele>
        <time>2016-06-10T07:41:36Z</time>
      </trkpt>
      <trkpt lat="42.533593" lon="-0.152964">
        <ele>1034.0</ele>
        <time>2016-06-10T07:41:54Z</time>
      </trkpt>
      <trkpt lat="42.533422" lon="-0.153138">
        <ele>1034.0</ele>
        <time>2016-06-10T07:42:09Z</time>
      </trkpt>
      <trkpt lat="42.533329" lon="-0.153202">
        <ele>1036.4</ele>
        <time>2016-06-10T07:42:46Z</time>
      </trkpt>
      <trkpt lat="42.533304" lon="-0.153446">
        <ele>1039.3</ele>
        <time>2016-06-10T07:42:59Z</time>
      </trkpt>
      <trkpt lat="42.533475" lon="-0.153592">
        <ele>1044.1</ele>
        <time>2016-06-10T07:43:11Z</time>
      </trkpt>
      <trkpt lat="42.533650" lon="-0.153879">
        <ele>1040.3</ele>
        <time>2016-06-10T07:43:23Z</time>
      </trkpt>
      <trkpt lat="42.533630" lon="-0.154289">
        <ele>1037.9</ele>
        <time>2016-06-10T07:43:35Z</time>
      </trkpt>
      <trkpt lat="42.533714" lon="-0.154836">
        <ele>1037.9</ele>
        <time>2016-06-10T07:43:51Z</time>
      </trkpt>
      <trkpt lat="42.533858" lon="-0.155393">
        <ele>1040.8</ele>
        <time>2016-06-10T07:44:09Z</time>
      </trkpt>
      <trkpt lat="42.533880" lon="-0.155886">
        <ele>1039.8</ele>
        <time>2016-06-10T07:44:23Z</time>
      </trkpt>
      <trkpt lat="42.533958" lon="-0.156403">
        <ele>1036.4</ele>
        <time>2016-06-10T07:44:38Z</time>
      </trkpt>
      <trkpt lat="42.534058" lon="-0.156950">
        <ele>1038.4</ele>
        <time>2016-06-10T07:44:55Z</time>
      </trkpt>
      <trkpt lat="42.533982" lon="-0.157312">
        <ele>1038.4</ele>
        <time>2016-06-10T07:45:07Z</time>
      </trkpt>
      <trkpt lat="42.533890" lon="-0.157609">
        <ele>1041.3</ele>
        <time>2016-06-10T07:45:22Z</time>
      </trkpt>
      <trkpt lat="42.533892" lon="-0.157696">
        <ele>1042.7</ele>
        <time>2016-06-10T07:45:26Z</time>
      </trkpt>
      <trkpt lat="42.533889" lon="-0.157785">
        <ele>1044.6</ele>
        <time>2016-06-10T07:45:31Z</time>
      </trkpt>
      <trkpt lat="42.533935" lon="-0.158023">
        <ele>1049.4</ele>
        <time>2016-06-10T07:45:44Z</time>
      </trkpt>
      <trkpt lat="42.533897" lon="-0.158321">
        <ele>1050.9</ele>
        <time>2016-06-10T07:45:59Z</time>
      </trkpt>
      <trkpt lat="42.533824" lon="-0.158643">
        <ele>1051.8</ele>
        <time>2016-06-10T07:46:15Z</time>
      </trkpt>
      <trkpt lat="42.533740" lon="-0.158982">
        <ele>1053.7</ele>
        <time>2016-06-10T07:46:32Z</time>
      </trkpt>
      <trkpt lat="42.533732" lon="-0.159043">
        <ele>1054.2</ele>
        <time>2016-06-10T07:46:35Z</time>
      </trkpt>
      <trkpt lat="42.533723" lon="-0.159377">
        <ele>1058.1</ele>
        <time>2016-06-10T07:46:51Z</time>
      </trkpt>
      <trkpt lat="42.533697" lon="-0.159749">
        <ele>1060.0</ele>
        <time>2016-06-10T07:47:07Z</time>
      </trkpt>
      <trkpt lat="42.533644" lon="-0.160188">
        <ele>1054.7</ele>
        <time>2016-06-10T07:47:22Z</time>
      </trkpt>
      <trkpt lat="42.533640" lon="-0.160646">
        <ele>1050.4</ele>
        <time>2016-06-10T07:47:38Z</time>
      </trkpt>
      <trkpt lat="42.533734" lon="-0.161142">
        <ele>1050.9</ele>
        <time>2016-06-10T07:47:55Z</time>
      </trkpt>
      <trkpt lat="42.533894" lon="-0.161517">
        <ele>1054.7</ele>
        <time>2016-06-10T07:48:10Z</time>
      </trkpt>
      <trkpt lat="42.533986" lon="-0.161997">
        <ele>1055.7</ele>
        <time>2016-06-10T07:48:26Z</time>
      </trkpt>
      <trkpt lat="42.533975" lon="-0.162622">
        <ele>1051.8</ele>
        <time>2016-06-10T07:48:40Z</time>
      </trkpt>
      <trkpt lat="42.533966" lon="-0.162724">
        <ele>1051.8</ele>
        <time>2016-06-10T07:48:42Z</time>
      </trkpt>
      <trkpt lat="42.533907" lon="-0.163256">
        <ele>1049.9</ele>
        <time>2016-06-10T07:48:51Z</time>
      </trkpt>
      <trkpt lat="42.533916" lon="-0.163998">
        <ele>1047.5</ele>
        <time>2016-06-10T07:49:04Z</time>
      </trkpt>
      <trkpt lat="42.533942" lon="-0.164421">
        <ele>1048.5</ele>
        <time>2016-06-10T07:49:17Z</time>
      </trkpt>
      <trkpt lat="42.533940" lon="-0.164910">
        <ele>1051.8</ele>
        <time>2016-06-10T07:49:35Z</time>
      </trkpt>
      <trkpt lat="42.534032" lon="-0.165378">
        <ele>1054.7</ele>
        <time>2016-06-10T07:49:53Z</time>
      </trkpt>
      <trkpt lat="42.534065" lon="-0.165748">
        <ele>1054.7</ele>
        <time>2016-06-10T07:50:05Z</time>
      </trkpt>
      <trkpt lat="42.533940" lon="-0.166191">
        <ele>1055.7</ele>
        <time>2016-06-10T07:50:19Z</time>
      </trkpt>
      <trkpt lat="42.533797" lon="-0.166621">
        <ele>1055.7</ele>
        <time>2016-06-10T07:50:34Z</time>
      </trkpt>
      <trkpt lat="42.533840" lon="-0.167059">
        <ele>1057.1</ele>
        <time>2016-06-10T07:50:51Z</time>
      </trkpt>
      <trkpt lat="42.533834" lon="-0.167414">
        <ele>1060.0</ele>
        <time>2016-06-10T07:51:06Z</time>
      </trkpt>
      <trkpt lat="42.533798" lon="-0.167772">
        <ele>1061.0</ele>
        <time>2016-06-10T07:51:21Z</time>
      </trkpt>
      <trkpt lat="42.533723" lon="-0.168063">
        <ele>1061.4</ele>
        <time>2016-06-10T07:51:33Z</time>
      </trkpt>
      <trkpt lat="42.533681" lon="-0.168457">
        <ele>1063.8</ele>
        <time>2016-06-10T07:51:48Z</time>
      </trkpt>
      <trkpt lat="42.533658" lon="-0.168954">
        <ele>1063.8</ele>
        <time>2016-06-10T07:52:06Z</time>
      </trkpt>
      <trkpt lat="42.533524" lon="-0.169410">
        <ele>1064.8</ele>
        <time>2016-06-10T07:52:24Z</time>
      </trkpt>
      <trkpt lat="42.533399" lon="-0.169858">
        <ele>1066.2</ele>
        <time>2016-06-10T07:52:42Z</time>
      </trkpt>
      <trkpt lat="42.533315" lon="-0.170182">
        <ele>1068.6</ele>
        <time>2016-06-10T07:52:57Z</time>
      </trkpt>
      <trkpt lat="42.533207" lon="-0.170501">
        <ele>1072.5</ele>
        <time>2016-06-10T07:53:12Z</time>
      </trkpt>
      <trkpt lat="42.533082" lon="-0.170814">
        <ele>1073.0</ele>
        <time>2016-06-10T07:53:26Z</time>
      </trkpt>
      <trkpt lat="42.532891" lon="-0.171040">
        <ele>1073.0</ele>
        <time>2016-06-10T07:53:41Z</time>
      </trkpt>
      <trkpt lat="42.532848" lon="-0.171080">
        <ele>1069.1</ele>
        <time>2016-06-10T07:54:47Z</time>
      </trkpt>
      <trkpt lat="42.532831" lon="-0.171181">
        <ele>1073.0</ele>
        <time>2016-06-10T08:04:36Z</time>
      </trkpt>
      <trkpt lat="42.532845" lon="-0.171405">
        <ele>1074.9</ele>
        <time>2016-06-10T08:04:48Z</time>
      </trkpt>
      <trkpt lat="42.532884" lon="-0.171750">
        <ele>1074.9</ele>
        <time>2016-06-10T08:05:02Z</time>
      </trkpt>
      <trkpt lat="42.532842" lon="-0.172442">
        <ele>1073.9</ele>
        <time>2016-06-10T08:05:14Z</time>
      </trkpt>
      <trkpt lat="42.532804" lon="-0.172739">
        <ele>1075.9</ele>
        <time>2016-06-10T08:05:24Z</time>
      </trkpt>
      <trkpt lat="42.532744" lon="-0.172903">
        <ele>1075.9</ele>
        <time>2016-06-10T08:05:32Z</time>
      </trkpt>
      <trkpt lat="42.532669" lon="-0.173229">
        <ele>1077.3</ele>
        <time>2016-06-10T08:05:48Z</time>
      </trkpt>
      <trkpt lat="42.532612" lon="-0.173519">
        <ele>1077.8</ele>
        <time>2016-06-10T08:06:03Z</time>
      </trkpt>
      <trkpt lat="42.532542" lon="-0.173845">
        <ele>1077.3</ele>
        <time>2016-06-10T08:06:19Z</time>
      </trkpt>
      <trkpt lat="42.532476" lon="-0.174083">
        <ele>1078.3</ele>
        <time>2016-06-10T08:06:31Z</time>
      </trkpt>
      <trkpt lat="42.532327" lon="-0.174352">
        <ele>1079.2</ele>
        <time>2016-06-10T08:06:47Z</time>
      </trkpt>
      <trkpt lat="42.532208" lon="-0.174615">
        <ele>1082.1</ele>
        <time>2016-06-10T08:07:04Z</time>
      </trkpt>
      <trkpt lat="42.532199" lon="-0.174910">
        <ele>1083.5</ele>
        <time>2016-06-10T08:07:19Z</time>
      </trkpt>
      <trkpt lat="42.532193" lon="-0.175018">
        <ele>1084.5</ele>
        <time>2016-06-10T08:07:24Z</time>
      </trkpt>
      <trkpt lat="42.532173" lon="-0.175111">
        <ele>1085.5</ele>
        <time>2016-06-10T08:07:28Z</time>
      </trkpt>
      <trkpt lat="42.532115" lon="-0.175504">
        <ele>1086.4</ele>
        <time>2016-06-10T08:07:41Z</time>
      </trkpt>
      <trkpt lat="42.532028" lon="-0.175823">
        <ele>1086.9</ele>
        <time>2016-06-10T08:07:53Z</time>
      </trkpt>
      <trkpt lat="42.531949" lon="-0.176254">
        <ele>1088.4</ele>
        <time>2016-06-10T08:08:10Z</time>
      </trkpt>
      <trkpt lat="42.531848" lon="-0.176708">
        <ele>1089.3</ele>
        <time>2016-06-10T08:08:23Z</time>
      </trkpt>
      <trkpt lat="42.531821" lon="-0.176808">
        <ele>1090.8</ele>
        <time>2016-06-10T08:08:27Z</time>
      </trkpt>
      <trkpt lat="42.531737" lon="-0.177063">
        <ele>1096.5</ele>
        <time>2016-06-10T08:08:40Z</time>
      </trkpt>
      <trkpt lat="42.531703" lon="-0.177123">
        <ele>1097.5</ele>
        <time>2016-06-10T08:08:44Z</time>
      </trkpt>
      <trkpt lat="42.531453" lon="-0.177338">
        <ele>1098.0</ele>
        <time>2016-06-10T08:08:59Z</time>
      </trkpt>
      <trkpt lat="42.531399" lon="-0.177433">
        <ele>1098.9</ele>
        <time>2016-06-10T08:09:05Z</time>
      </trkpt>
      <trkpt lat="42.531363" lon="-0.177652">
        <ele>1102.3</ele>
        <time>2016-06-10T08:09:16Z</time>
      </trkpt>
      <trkpt lat="42.531310" lon="-0.177897">
        <ele>1104.2</ele>
        <time>2016-06-10T08:09:29Z</time>
      </trkpt>
      <trkpt lat="42.531234" lon="-0.178172">
        <ele>1105.7</ele>
        <time>2016-06-10T08:09:43Z</time>
      </trkpt>
      <trkpt lat="42.531108" lon="-0.178489">
        <ele>1106.1</ele>
        <time>2016-06-10T08:09:58Z</time>
      </trkpt>
      <trkpt lat="42.530932" lon="-0.178772">
        <ele>1105.2</ele>
        <time>2016-06-10T08:10:11Z</time>
      </trkpt>
      <trkpt lat="42.530635" lon="-0.179045">
        <ele>1096.0</ele>
        <time>2016-06-10T08:10:25Z</time>
      </trkpt>
      <trkpt lat="42.530426" lon="-0.179285">
        <ele>1093.2</ele>
        <time>2016-06-10T08:10:40Z</time>
      </trkpt>
      <trkpt lat="42.530227" lon="-0.179495">
        <ele>1092.7</ele>
        <time>2016-06-10T08:10:54Z</time>
      </trkpt>
      <trkpt lat="42.530056" lon="-0.179642">
        <ele>1092.7</ele>
        <time>2016-06-10T08:11:06Z</time>
      </trkpt>
      <trkpt lat="42.530003" lon="-0.179694">
        <ele>1093.2</ele>
        <time>2016-06-10T08:11:10Z</time>
      </trkpt>
      <trkpt lat="42.529855" lon="-0.179926">
        <ele>1094.6</ele>
        <time>2016-06-10T08:11:24Z</time>
      </trkpt>
      <trkpt lat="42.529704" lon="-0.180150">
        <ele>1095.1</ele>
        <time>2016-06-10T08:11:36Z</time>
      </trkpt>
      <trkpt lat="42.529540" lon="-0.180367">
        <ele>1095.1</ele>
        <time>2016-06-10T08:11:49Z</time>
      </trkpt>
      <trkpt lat="42.529440" lon="-0.180506">
        <ele>1096.0</ele>
        <time>2016-06-10T08:11:58Z</time>
      </trkpt>
      <trkpt lat="42.529250" lon="-0.180769">
        <ele>1098.9</ele>
        <time>2016-06-10T08:12:13Z</time>
      </trkpt>
      <trkpt lat="42.529134" lon="-0.181075">
        <ele>1099.4</ele>
        <time>2016-06-10T08:12:28Z</time>
      </trkpt>
      <trkpt lat="42.529121" lon="-0.181166">
        <ele>1100.9</ele>
        <time>2016-06-10T08:12:33Z</time>
      </trkpt>
      <trkpt lat="42.529078" lon="-0.181314">
        <ele>1103.3</ele>
        <time>2016-06-10T08:12:40Z</time>
      </trkpt>
      <trkpt lat="42.528871" lon="-0.181556">
        <ele>1105.7</ele>
        <time>2016-06-10T08:12:53Z</time>
      </trkpt>
      <trkpt lat="42.528743" lon="-0.181743">
        <ele>1110.5</ele>
        <time>2016-06-10T08:13:06Z</time>
      </trkpt>
      <trkpt lat="42.528657" lon="-0.181920">
        <ele>1116.2</ele>
        <time>2016-06-10T08:13:17Z</time>
      </trkpt>
      <trkpt lat="42.528544" lon="-0.182132">
        <ele>1123.9</ele>
        <time>2016-06-10T08:13:30Z</time>
      </trkpt>
      <trkpt lat="42.528256" lon="-0.182434">
        <ele>1109.0</ele>
        <time>2016-06-10T08:13:41Z</time>
      </trkpt>
      <trkpt lat="42.527995" lon="-0.182590">
        <ele>1107.6</ele>
        <time>2016-06-10T08:13:54Z</time>
      </trkpt>
      <trkpt lat="42.527751" lon="-0.182715">
        <ele>1101.8</ele>
        <time>2016-06-10T08:14:06Z</time>
      </trkpt>
      <trkpt lat="42.527472" lon="-0.182776">
        <ele>1101.3</ele>
        <time>2016-06-10T08:14:19Z</time>
      </trkpt>
      <trkpt lat="42.527359" lon="-0.182896">
        <ele>1102.8</ele>
        <time>2016-06-10T08:14:25Z</time>
      </trkpt>
      <trkpt lat="42.527369" lon="-0.182973">
        <ele>1104.2</ele>
        <time>2016-06-10T08:14:30Z</time>
      </trkpt>
      <trkpt lat="42.527365" lon="-0.183052">
        <ele>1105.2</ele>
        <time>2016-06-10T08:14:35Z</time>
      </trkpt>
      <trkpt lat="42.527279" lon="-0.183218">
        <ele>1110.5</ele>
        <time>2016-06-10T08:14:49Z</time>
      </trkpt>
      <trkpt lat="42.527171" lon="-0.183359">
        <ele>1117.2</ele>
        <time>2016-06-10T08:15:02Z</time>
      </trkpt>
      <trkpt lat="42.526877" lon="-0.183667">
        <ele>1104.2</ele>
        <time>2016-06-10T08:15:19Z</time>
      </trkpt>
      <trkpt lat="42.526666" lon="-0.183804">
        <ele>1103.3</ele>
        <time>2016-06-10T08:15:34Z</time>
      </trkpt>
      <trkpt lat="42.526421" lon="-0.183928">
        <ele>1104.7</ele>
        <time>2016-06-10T08:15:51Z</time>
      </trkpt>
      <trkpt lat="42.526174" lon="-0.184043">
        <ele>1107.1</ele>
        <time>2016-06-10T08:16:07Z</time>
      </trkpt>
      <trkpt lat="42.526067" lon="-0.184225">
        <ele>1107.6</ele>
        <time>2016-06-10T08:16:21Z</time>
      </trkpt>
      <trkpt lat="42.525953" lon="-0.184378">
        <ele>1107.6</ele>
        <time>2016-06-10T08:16:31Z</time>
      </trkpt>
      <trkpt lat="42.525761" lon="-0.184500">
        <ele>1106.6</ele>
        <time>2016-06-10T08:16:45Z</time>
      </trkpt>
      <trkpt lat="42.525607" lon="-0.184601">
        <ele>1109.0</ele>
        <time>2016-06-10T08:16:55Z</time>
      </trkpt>
      <trkpt lat="42.525427" lon="-0.184689">
        <ele>1113.8</ele>
        <time>2016-06-10T08:17:09Z</time>
      </trkpt>
      <trkpt lat="42.525261" lon="-0.184765">
        <ele>1117.7</ele>
        <time>2016-06-10T08:17:19Z</time>
      </trkpt>
      <trkpt lat="42.524944" lon="-0.184774">
        <ele>1119.1</ele>
        <time>2016-06-10T08:17:32Z</time>
      </trkpt>
      <trkpt lat="42.524676" lon="-0.184791">
        <ele>1121.5</ele>
        <time>2016-06-10T08:17:45Z</time>
      </trkpt>
      <trkpt lat="42.524621" lon="-0.184817">
        <ele>1121.5</ele>
        <time>2016-06-10T08:17:48Z</time>
      </trkpt>
      <trkpt lat="42.524559" lon="-0.184845">
        <ele>1122.0</ele>
        <time>2016-06-10T08:17:52Z</time>
      </trkpt>
      <trkpt lat="42.524245" lon="-0.184988">
        <ele>1118.2</ele>
        <time>2016-06-10T08:18:07Z</time>
      </trkpt>
      <trkpt lat="42.524096" lon="-0.185113">
        <ele>1117.2</ele>
        <time>2016-06-10T08:18:17Z</time>
      </trkpt>
      <trkpt lat="42.524037" lon="-0.185158">
        <ele>1117.2</ele>
        <time>2016-06-10T08:18:21Z</time>
      </trkpt>
      <trkpt lat="42.523834" lon="-0.185319">
        <ele>1116.7</ele>
        <time>2016-06-10T08:18:36Z</time>
      </trkpt>
      <trkpt lat="42.523567" lon="-0.185513">
        <ele>1114.8</ele>
        <time>2016-06-10T08:18:53Z</time>
      </trkpt>
      <trkpt lat="42.523397" lon="-0.185659">
        <ele>1113.3</ele>
        <time>2016-06-10T08:19:05Z</time>
      </trkpt>
      <trkpt lat="42.523167" lon="-0.185879">
        <ele>1111.4</ele>
        <time>2016-06-10T08:19:22Z</time>
      </trkpt>
      <trkpt lat="42.522925" lon="-0.186037">
        <ele>1111.4</ele>
        <time>2016-06-10T08:19:38Z</time>
      </trkpt>
      <trkpt lat="42.522656" lon="-0.186149">
        <ele>1113.8</ele>
        <time>2016-06-10T08:19:54Z</time>
      </trkpt>
      <trkpt lat="42.522343" lon="-0.186213">
        <ele>1113.8</ele>
        <time>2016-06-10T08:20:11Z</time>
      </trkpt>
      <trkpt lat="42.522073" lon="-0.186234">
        <ele>1115.3</ele>
        <time>2016-06-10T08:20:25Z</time>
      </trkpt>
      <trkpt lat="42.521738" lon="-0.186393">
        <ele>1116.7</ele>
        <time>2016-06-10T08:20:43Z</time>
      </trkpt>
      <trkpt lat="42.521620" lon="-0.186449">
        <ele>1117.7</ele>
        <time>2016-06-10T08:20:51Z</time>
      </trkpt>
      <trkpt lat="42.521326" lon="-0.186562">
        <ele>1121.0</ele>
        <time>2016-06-10T08:21:06Z</time>
      </trkpt>
      <trkpt lat="42.521035" lon="-0.186725">
        <ele>1119.6</ele>
        <time>2016-06-10T08:21:17Z</time>
      </trkpt>
      <trkpt lat="42.520597" lon="-0.186637">
        <ele>1120.6</ele>
        <time>2016-06-10T08:21:29Z</time>
      </trkpt>
      <trkpt lat="42.520296" lon="-0.186570">
        <ele>1120.1</ele>
        <time>2016-06-10T08:21:34Z</time>
      </trkpt>
      <trkpt lat="42.520067" lon="-0.186459">
        <ele>1119.6</ele>
        <time>2016-06-10T08:21:39Z</time>
      </trkpt>
      <trkpt lat="42.519965" lon="-0.186372">
        <ele>1118.6</ele>
        <time>2016-06-10T08:21:42Z</time>
      </trkpt>
      <trkpt lat="42.519823" lon="-0.186408">
        <ele>1117.2</ele>
        <time>2016-06-10T08:21:49Z</time>
      </trkpt>
      <trkpt lat="42.519804" lon="-0.186503">
        <ele>1119.1</ele>
        <time>2016-06-10T08:21:56Z</time>
      </trkpt>
      <trkpt lat="42.519889" lon="-0.186636">
        <ele>1122.5</ele>
        <time>2016-06-10T08:22:09Z</time>
      </trkpt>
      <trkpt lat="42.519958" lon="-0.186859">
        <ele>1117.2</ele>
        <time>2016-06-10T08:22:25Z</time>
      </trkpt>
      <trkpt lat="42.519996" lon="-0.186981">
        <ele>1116.7</ele>
        <time>2016-06-10T08:22:42Z</time>
      </trkpt>
      <trkpt lat="42.520035" lon="-0.187097">
        <ele>1122.5</ele>
        <time>2016-06-10T08:22:59Z</time>
      </trkpt>
      <trkpt lat="42.520053" lon="-0.187198">
        <ele>1127.8</ele>
        <time>2016-06-10T08:23:13Z</time>
      </trkpt>
      <trkpt lat="42.520096" lon="-0.187371">
        <ele>1133.1</ele>
        <time>2016-06-10T08:23:30Z</time>
      </trkpt>
      <trkpt lat="42.520130" lon="-0.187486">
        <ele>1134.0</ele>
        <time>2016-06-10T08:23:47Z</time>
      </trkpt>
      <trkpt lat="42.520210" lon="-0.187585">
        <ele>1132.6</ele>
        <time>2016-06-10T08:23:55Z</time>
      </trkpt>
      <trkpt lat="42.520316" lon="-0.187906">
        <ele>1130.2</ele>
        <time>2016-06-10T08:24:07Z</time>
      </trkpt>
      <trkpt lat="42.520367" lon="-0.188171">
        <ele>1131.6</ele>
        <time>2016-06-10T08:24:24Z</time>
      </trkpt>
      <trkpt lat="42.520356" lon="-0.188395">
        <ele>1136.9</ele>
        <time>2016-06-10T08:24:39Z</time>
      </trkpt>
      <trkpt lat="42.520306" lon="-0.188569">
        <ele>1144.6</ele>
        <time>2016-06-10T08:24:54Z</time>
      </trkpt>
      <trkpt lat="42.520239" lon="-0.188780">
        <ele>1148.4</ele>
        <time>2016-06-10T08:25:09Z</time>
      </trkpt>
      <trkpt lat="42.520176" lon="-0.188970">
        <ele>1150.4</ele>
        <time>2016-06-10T08:25:22Z</time>
      </trkpt>
      <trkpt lat="42.520118" lon="-0.189086">
        <ele>1149.9</ele>
        <time>2016-06-10T08:25:30Z</time>
      </trkpt>
      <trkpt lat="42.520073" lon="-0.189119">
        <ele>1149.4</ele>
        <time>2016-06-10T08:25:34Z</time>
      </trkpt>
      <trkpt lat="42.519908" lon="-0.189157">
        <ele>1148.0</ele>
        <time>2016-06-10T08:25:48Z</time>
      </trkpt>
      <trkpt lat="42.519806" lon="-0.189187">
        <ele>1148.4</ele>
        <time>2016-06-10T08:25:56Z</time>
      </trkpt>
      <trkpt lat="42.519744" lon="-0.189253">
        <ele>1148.0</ele>
        <time>2016-06-10T08:26:03Z</time>
      </trkpt>
      <trkpt lat="42.519706" lon="-0.189310">
        <ele>1148.0</ele>
        <time>2016-06-10T08:26:07Z</time>
      </trkpt>
      <trkpt lat="42.519574" lon="-0.189492">
        <ele>1146.5</ele>
        <time>2016-06-10T08:26:21Z</time>
      </trkpt>
      <trkpt lat="42.519413" lon="-0.189598">
        <ele>1147.5</ele>
        <time>2016-06-10T08:26:35Z</time>
      </trkpt>
      <trkpt lat="42.519228" lon="-0.189724">
        <ele>1149.4</ele>
        <time>2016-06-10T08:26:49Z</time>
      </trkpt>
      <trkpt lat="42.519055" lon="-0.189864">
        <ele>1153.2</ele>
        <time>2016-06-10T08:27:03Z</time>
      </trkpt>
      <trkpt lat="42.518905" lon="-0.189936">
        <ele>1157.1</ele>
        <time>2016-06-10T08:27:17Z</time>
      </trkpt>
      <trkpt lat="42.518735" lon="-0.189981">
        <ele>1161.9</ele>
        <time>2016-06-10T08:27:32Z</time>
      </trkpt>
      <trkpt lat="42.518486" lon="-0.190040">
        <ele>1165.3</ele>
        <time>2016-06-10T08:27:48Z</time>
      </trkpt>
      <trkpt lat="42.518414" lon="-0.190006">
        <ele>1165.3</ele>
        <time>2016-06-10T08:27:54Z</time>
      </trkpt>
      <trkpt lat="42.518318" lon="-0.189981">
        <ele>1166.2</ele>
        <time>2016-06-10T08:28:01Z</time>
      </trkpt>
      <trkpt lat="42.518110" lon="-0.190006">
        <ele>1166.7</ele>
        <time>2016-06-10T08:28:15Z</time>
      </trkpt>
      <trkpt lat="42.517998" lon="-0.189994">
        <ele>1165.3</ele>
        <time>2016-06-10T08:28:25Z</time>
      </trkpt>
      <trkpt lat="42.517815" lon="-0.189951">
        <ele>1169.1</ele>
        <time>2016-06-10T08:28:40Z</time>
      </trkpt>
      <trkpt lat="42.517716" lon="-0.189885">
        <ele>1169.1</ele>
        <time>2016-06-10T08:28:49Z</time>
      </trkpt>
      <trkpt lat="42.517665" lon="-0.189846">
        <ele>1169.1</ele>
        <time>2016-06-10T08:28:53Z</time>
      </trkpt>
      <trkpt lat="42.517434" lon="-0.189694">
        <ele>1170.5</ele>
        <time>2016-06-10T08:29:09Z</time>
      </trkpt>
      <trkpt lat="42.517258" lon="-0.189640">
        <ele>1173.0</ele>
        <time>2016-06-10T08:29:20Z</time>
      </trkpt>
      <trkpt lat="42.517177" lon="-0.189633">
        <ele>1176.3</ele>
        <time>2016-06-10T08:29:25Z</time>
      </trkpt>
      <trkpt lat="42.516793" lon="-0.189667">
        <ele>1181.6</ele>
        <time>2016-06-10T08:29:36Z</time>
      </trkpt>
      <trkpt lat="42.516524" lon="-0.189693">
        <ele>1185.4</ele>
        <time>2016-06-10T08:29:45Z</time>
      </trkpt>
      <trkpt lat="42.516319" lon="-0.189675">
        <ele>1185.9</ele>
        <time>2016-06-10T08:29:55Z</time>
      </trkpt>
      <trkpt lat="42.516103" lon="-0.189640">
        <ele>1185.4</ele>
        <time>2016-06-10T08:30:06Z</time>
      </trkpt>
      <trkpt lat="42.515810" lon="-0.189615">
        <ele>1185.4</ele>
        <time>2016-06-10T08:30:19Z</time>
      </trkpt>
      <trkpt lat="42.515357" lon="-0.189629">
        <ele>1181.1</ele>
        <time>2016-06-10T08:30:31Z</time>
      </trkpt>
      <trkpt lat="42.515243" lon="-0.189588">
        <ele>1179.2</ele>
        <time>2016-06-10T08:30:33Z</time>
      </trkpt>
      <trkpt lat="42.515139" lon="-0.189533">
        <ele>1178.2</ele>
        <time>2016-06-10T08:30:35Z</time>
      </trkpt>
      <trkpt lat="42.514830" lon="-0.189436">
        <ele>1173.9</ele>
        <time>2016-06-10T08:30:40Z</time>
      </trkpt>
      <trkpt lat="42.514586" lon="-0.189378">
        <ele>1170.1</ele>
        <time>2016-06-10T08:30:44Z</time>
      </trkpt>
      <trkpt lat="42.514375" lon="-0.189363">
        <ele>1166.7</ele>
        <time>2016-06-10T08:30:48Z</time>
      </trkpt>
      <trkpt lat="42.514078" lon="-0.189383">
        <ele>1163.8</ele>
        <time>2016-06-10T08:30:53Z</time>
      </trkpt>
      <trkpt lat="42.513959" lon="-0.189405">
        <ele>1163.3</ele>
        <time>2016-06-10T08:30:55Z</time>
      </trkpt>
      <trkpt lat="42.513601" lon="-0.189279">
        <ele>1160.0</ele>
        <time>2016-06-10T08:31:04Z</time>
      </trkpt>
      <trkpt lat="42.513209" lon="-0.189215">
        <ele>1160.5</ele>
        <time>2016-06-10T08:31:21Z</time>
      </trkpt>
      <trkpt lat="42.512970" lon="-0.189083">
        <ele>1160.0</ele>
        <time>2016-06-10T08:31:32Z</time>
      </trkpt>
      <trkpt lat="42.512896" lon="-0.189080">
        <ele>1160.5</ele>
        <time>2016-06-10T08:31:36Z</time>
      </trkpt>
      <trkpt lat="42.512834" lon="-0.189083">
        <ele>1161.9</ele>
        <time>2016-06-10T08:31:40Z</time>
      </trkpt>
      <trkpt lat="42.512636" lon="-0.189004">
        <ele>1167.2</ele>
        <time>2016-06-10T08:31:54Z</time>
      </trkpt>
      <trkpt lat="42.512374" lon="-0.189218">
        <ele>1171.5</ele>
        <time>2016-06-10T08:32:10Z</time>
      </trkpt>
      <trkpt lat="42.512269" lon="-0.189439">
        <ele>1168.6</ele>
        <time>2016-06-10T08:32:26Z</time>
      </trkpt>
      <trkpt lat="42.512209" lon="-0.189593">
        <ele>1164.3</ele>
        <time>2016-06-10T08:32:37Z</time>
      </trkpt>
      <trkpt lat="42.512046" lon="-0.189806">
        <ele>1161.9</ele>
        <time>2016-06-10T08:32:54Z</time>
      </trkpt>
      <trkpt lat="42.511745" lon="-0.190035">
        <ele>1160.9</ele>
        <time>2016-06-10T08:33:16Z</time>
      </trkpt>
      <trkpt lat="42.511473" lon="-0.190141">
        <ele>1162.4</ele>
        <time>2016-06-10T08:33:33Z</time>
      </trkpt>
      <trkpt lat="42.511235" lon="-0.190240">
        <ele>1162.9</ele>
        <time>2016-06-10T08:33:49Z</time>
      </trkpt>
      <trkpt lat="42.510972" lon="-0.190380">
        <ele>1163.3</ele>
        <time>2016-06-10T08:34:06Z</time>
      </trkpt>
      <trkpt lat="42.510896" lon="-0.190481">
        <ele>1163.8</ele>
        <time>2016-06-10T08:34:13Z</time>
      </trkpt>
      <trkpt lat="42.510913" lon="-0.190560">
        <ele>1164.3</ele>
        <time>2016-06-10T08:34:18Z</time>
      </trkpt>
      <trkpt lat="42.511075" lon="-0.190526">
        <ele>1165.3</ele>
        <time>2016-06-10T08:34:32Z</time>
      </trkpt>
      <trkpt lat="42.511336" lon="-0.190449">
        <ele>1170.1</ele>
        <time>2016-06-10T08:34:54Z</time>
      </trkpt>
      <trkpt lat="42.511516" lon="-0.190387">
        <ele>1172.0</ele>
        <time>2016-06-10T08:35:10Z</time>
      </trkpt>
      <trkpt lat="42.511585" lon="-0.190367">
        <ele>1172.5</ele>
        <time>2016-06-10T08:35:16Z</time>
      </trkpt>
      <trkpt lat="42.511633" lon="-0.190376">
        <ele>1173.0</ele>
        <time>2016-06-10T08:35:20Z</time>
      </trkpt>
      <trkpt lat="42.511828" lon="-0.190313">
        <ele>1173.9</ele>
        <time>2016-06-10T08:35:34Z</time>
      </trkpt>
      <trkpt lat="42.512067" lon="-0.190170">
        <ele>1174.4</ele>
        <time>2016-06-10T08:35:52Z</time>
      </trkpt>
      <trkpt lat="42.512302" lon="-0.190025">
        <ele>1173.9</ele>
        <time>2016-06-10T08:36:08Z</time>
      </trkpt>
      <trkpt lat="42.512440" lon="-0.189859">
        <ele>1174.9</ele>
        <time>2016-06-10T08:36:21Z</time>
      </trkpt>
      <trkpt lat="42.512521" lon="-0.189827">
        <ele>1175.4</ele>
        <time>2016-06-10T08:36:27Z</time>
      </trkpt>
      <trkpt lat="42.512758" lon="-0.189983">
        <ele>1176.8</ele>
        <time>2016-06-10T08:36:45Z</time>
      </trkpt>
      <trkpt lat="42.512877" lon="-0.190211">
        <ele>1180.6</ele>
        <time>2016-06-10T08:37:00Z</time>
      </trkpt>
      <trkpt lat="42.512994" lon="-0.190416">
        <ele>1181.1</ele>
        <time>2016-06-10T08:37:13Z</time>
      </trkpt>
      <trkpt lat="42.513175" lon="-0.190461">
        <ele>1182.1</ele>
        <time>2016-06-10T08:37:27Z</time>
      </trkpt>
      <trkpt lat="42.513326" lon="-0.190435">
        <ele>1184.0</ele>
        <time>2016-06-10T08:37:38Z</time>
      </trkpt>
      <trkpt lat="42.513545" lon="-0.190497">
        <ele>1186.4</ele>
        <time>2016-06-10T08:37:54Z</time>
      </trkpt>
      <trkpt lat="42.513685" lon="-0.190606">
        <ele>1188.3</ele>
        <time>2016-06-10T08:38:09Z</time>
      </trkpt>
      <trkpt lat="42.513857" lon="-0.190684">
        <ele>1189.8</ele>
        <time>2016-06-10T08:38:23Z</time>
      </trkpt>
      <trkpt lat="42.514048" lon="-0.190838">
        <ele>1191.2</ele>
        <time>2016-06-10T08:38:41Z</time>
      </trkpt>
      <trkpt lat="42.514196" lon="-0.190926">
        <ele>1193.6</ele>
        <time>2016-06-10T08:38:55Z</time>
      </trkpt>
      <trkpt lat="42.514355" lon="-0.190979">
        <ele>1196.0</ele>
        <time>2016-06-10T08:39:08Z</time>
      </trkpt>
      <trkpt lat="42.514544" lon="-0.191086">
        <ele>1198.4</ele>
        <time>2016-06-10T08:39:23Z</time>
      </trkpt>
      <trkpt lat="42.514767" lon="-0.191103">
        <ele>1196.5</ele>
        <time>2016-06-10T08:39:39Z</time>
      </trkpt>
      <trkpt lat="42.514840" lon="-0.191104">
        <ele>1196.5</ele>
        <time>2016-06-10T08:39:44Z</time>
      </trkpt>
      <trkpt lat="42.514947" lon="-0.191065">
        <ele>1196.5</ele>
        <time>2016-06-10T08:39:50Z</time>
      </trkpt>
      <trkpt lat="42.515355" lon="-0.191170">
        <ele>1196.0</ele>
        <time>2016-06-10T08:40:02Z</time>
      </trkpt>
      <trkpt lat="42.515598" lon="-0.191267">
        <ele>1198.9</ele>
        <time>2016-06-10T08:40:15Z</time>
      </trkpt>
      <trkpt lat="42.515847" lon="-0.191421">
        <ele>1203.7</ele>
        <time>2016-06-10T08:40:32Z</time>
      </trkpt>
      <trkpt lat="42.515964" lon="-0.191591">
        <ele>1204.7</ele>
        <time>2016-06-10T08:40:44Z</time>
      </trkpt>
      <trkpt lat="42.516022" lon="-0.191684">
        <ele>1203.7</ele>
        <time>2016-06-10T08:40:50Z</time>
      </trkpt>
      <trkpt lat="42.516170" lon="-0.191900">
        <ele>1205.2</ele>
        <time>2016-06-10T08:41:05Z</time>
      </trkpt>
      <trkpt lat="42.516242" lon="-0.191971">
        <ele>1206.6</ele>
        <time>2016-06-10T08:41:12Z</time>
      </trkpt>
      <trkpt lat="42.516359" lon="-0.192185">
        <ele>1209.0</ele>
        <time>2016-06-10T08:41:28Z</time>
      </trkpt>
      <trkpt lat="42.516510" lon="-0.192391">
        <ele>1210.0</ele>
        <time>2016-06-10T08:41:43Z</time>
      </trkpt>
      <trkpt lat="42.516548" lon="-0.192444">
        <ele>1210.4</ele>
        <time>2016-06-10T08:41:47Z</time>
      </trkpt>
      <trkpt lat="42.516600" lon="-0.192533">
        <ele>1210.9</ele>
        <time>2016-06-10T08:41:53Z</time>
      </trkpt>
      <trkpt lat="42.516626" lon="-0.192635">
        <ele>1211.9</ele>
        <time>2016-06-10T08:41:59Z</time>
      </trkpt>
      <trkpt lat="42.516579" lon="-0.192790">
        <ele>1213.8</ele>
        <time>2016-06-10T08:42:10Z</time>
      </trkpt>
      <trkpt lat="42.516515" lon="-0.192786">
        <ele>1213.3</ele>
        <time>2016-06-10T08:42:15Z</time>
      </trkpt>
      <trkpt lat="42.516303" lon="-0.192696">
        <ele>1214.8</ele>
        <time>2016-06-10T08:42:32Z</time>
      </trkpt>
      <trkpt lat="42.516212" lon="-0.192812">
        <ele>1216.7</ele>
        <time>2016-06-10T08:42:42Z</time>
      </trkpt>
      <trkpt lat="42.516212" lon="-0.192896">
        <ele>1218.1</ele>
        <time>2016-06-10T08:42:47Z</time>
      </trkpt>
      <trkpt lat="42.516341" lon="-0.193102">
        <ele>1222.0</ele>
        <time>2016-06-10T08:43:03Z</time>
      </trkpt>
      <trkpt lat="42.516511" lon="-0.193232">
        <ele>1224.4</ele>
        <time>2016-06-10T08:43:17Z</time>
      </trkpt>
      <trkpt lat="42.516598" lon="-0.193271">
        <ele>1224.9</ele>
        <time>2016-06-10T08:43:30Z</time>
      </trkpt>
      <trkpt lat="42.516692" lon="-0.193348">
        <ele>1221.0</ele>
        <time>2016-06-10T08:44:23Z</time>
      </trkpt>
      <trkpt lat="42.516901" lon="-0.193585">
        <ele>1223.9</ele>
        <time>2016-06-10T08:44:40Z</time>
      </trkpt>
      <trkpt lat="42.517137" lon="-0.193631">
        <ele>1225.8</ele>
        <time>2016-06-10T08:44:56Z</time>
      </trkpt>
      <trkpt lat="42.517284" lon="-0.193591">
        <ele>1228.2</ele>
        <time>2016-06-10T08:45:07Z</time>
      </trkpt>
      <trkpt lat="42.517516" lon="-0.193547">
        <ele>1230.6</ele>
        <time>2016-06-10T08:45:24Z</time>
      </trkpt>
      <trkpt lat="42.517700" lon="-0.193575">
        <ele>1232.1</ele>
        <time>2016-06-10T08:45:39Z</time>
      </trkpt>
      <trkpt lat="42.517889" lon="-0.193694">
        <ele>1234.5</ele>
        <time>2016-06-10T08:45:55Z</time>
      </trkpt>
      <trkpt lat="42.518033" lon="-0.193831">
        <ele>1237.8</ele>
        <time>2016-06-10T08:46:11Z</time>
      </trkpt>
      <trkpt lat="42.518180" lon="-0.194017">
        <ele>1240.2</ele>
        <time>2016-06-10T08:46:27Z</time>
      </trkpt>
      <trkpt lat="42.518332" lon="-0.194189">
        <ele>1240.2</ele>
        <time>2016-06-10T08:46:41Z</time>
      </trkpt>
      <trkpt lat="42.518247" lon="-0.194327">
        <ele>1243.6</ele>
        <time>2016-06-10T08:56:36Z</time>
      </trkpt>
      <trkpt lat="42.518155" lon="-0.194317">
        <ele>1242.6</ele>
        <time>2016-06-10T08:57:17Z</time>
      </trkpt>
      <trkpt lat="42.518032" lon="-0.194274">
        <ele>1242.2</ele>
        <time>2016-06-10T08:57:25Z</time>
      </trkpt>
      <trkpt lat="42.517925" lon="-0.194323">
        <ele>1242.2</ele>
        <time>2016-06-10T08:57:32Z</time>
      </trkpt>
      <trkpt lat="42.517711" lon="-0.194527">
        <ele>1241.2</ele>
        <time>2016-06-10T08:57:48Z</time>
      </trkpt>
      <trkpt lat="42.517470" lon="-0.194764">
        <ele>1241.2</ele>
        <time>2016-06-10T08:58:07Z</time>
      </trkpt>
      <trkpt lat="42.517356" lon="-0.194897">
        <ele>1242.2</ele>
        <time>2016-06-10T08:58:17Z</time>
      </trkpt>
      <trkpt lat="42.517286" lon="-0.194894">
        <ele>1243.1</ele>
        <time>2016-06-10T08:58:22Z</time>
      </trkpt>
      <trkpt lat="42.517242" lon="-0.194876">
        <ele>1243.6</ele>
        <time>2016-06-10T08:58:26Z</time>
      </trkpt>
      <trkpt lat="42.517192" lon="-0.194876">
        <ele>1245.5</ele>
        <time>2016-06-10T08:58:42Z</time>
      </trkpt>
      <trkpt lat="42.517088" lon="-0.194879">
        <ele>1246.0</ele>
        <time>2016-06-10T08:58:50Z</time>
      </trkpt>
      <trkpt lat="42.517074" lon="-0.194995">
        <ele>1247.5</ele>
        <time>2016-06-10T08:58:57Z</time>
      </trkpt>
      <trkpt lat="42.517131" lon="-0.195359">
        <ele>1249.9</ele>
        <time>2016-06-10T08:59:18Z</time>
      </trkpt>
      <trkpt lat="42.517109" lon="-0.195645">
        <ele>1251.3</ele>
        <time>2016-06-10T08:59:34Z</time>
      </trkpt>
      <trkpt lat="42.517061" lon="-0.195904">
        <ele>1252.7</ele>
        <time>2016-06-10T08:59:49Z</time>
      </trkpt>
      <trkpt lat="42.517017" lon="-0.196092">
        <ele>1253.7</ele>
        <time>2016-06-10T09:00:00Z</time>
      </trkpt>
      <trkpt lat="42.516976" lon="-0.196361">
        <ele>1255.6</ele>
        <time>2016-06-10T09:00:16Z</time>
      </trkpt>
      <trkpt lat="42.516962" lon="-0.196629">
        <ele>1256.6</ele>
        <time>2016-06-10T09:00:30Z</time>
      </trkpt>
      <trkpt lat="42.516934" lon="-0.196827">
        <ele>1258.0</ele>
        <time>2016-06-10T09:00:41Z</time>
      </trkpt>
      <trkpt lat="42.516911" lon="-0.197035">
        <ele>1260.4</ele>
        <time>2016-06-10T09:00:53Z</time>
      </trkpt>
      <trkpt lat="42.516859" lon="-0.197350">
        <ele>1263.3</ele>
        <time>2016-06-10T09:01:11Z</time>
      </trkpt>
      <trkpt lat="42.516830" lon="-0.197681">
        <ele>1266.2</ele>
        <time>2016-06-10T09:01:29Z</time>
      </trkpt>
      <trkpt lat="42.516810" lon="-0.198009">
        <ele>1266.7</ele>
        <time>2016-06-10T09:01:46Z</time>
      </trkpt>
      <trkpt lat="42.516749" lon="-0.198276">
        <ele>1269.1</ele>
        <time>2016-06-10T09:02:01Z</time>
      </trkpt>
      <trkpt lat="42.516678" lon="-0.198473">
        <ele>1270.0</ele>
        <time>2016-06-10T09:02:13Z</time>
      </trkpt>
      <trkpt lat="42.516653" lon="-0.198557">
        <ele>1272.4</ele>
        <time>2016-06-10T09:02:18Z</time>
      </trkpt>
      <trkpt lat="42.516643" lon="-0.198618">
        <ele>1274.9</ele>
        <time>2016-06-10T09:02:22Z</time>
      </trkpt>
      <trkpt lat="42.516657" lon="-0.198755">
        <ele>1277.3</ele>
        <time>2016-06-10T09:02:29Z</time>
      </trkpt>
      <trkpt lat="42.516631" lon="-0.199009">
        <ele>1283.5</ele>
        <time>2016-06-10T09:02:43Z</time>
      </trkpt>
      <trkpt lat="42.516616" lon="-0.199275">
        <ele>1288.3</ele>
        <time>2016-06-10T09:02:57Z</time>
      </trkpt>
      <trkpt lat="42.516621" lon="-0.199354">
        <ele>1288.3</ele>
        <time>2016-06-10T09:03:01Z</time>
      </trkpt>
      <trkpt lat="42.516646" lon="-0.199636">
        <ele>1285.9</ele>
        <time>2016-06-10T09:03:14Z</time>
      </trkpt>
      <trkpt lat="42.516665" lon="-0.199721">
        <ele>1288.3</ele>
        <time>2016-06-10T09:03:19Z</time>
      </trkpt>
      <trkpt lat="42.516666" lon="-0.199861">
        <ele>1292.2</ele>
        <time>2016-06-10T09:03:28Z</time>
      </trkpt>
      <trkpt lat="42.516661" lon="-0.199968">
        <ele>1295.0</ele>
        <time>2016-06-10T09:03:34Z</time>
      </trkpt>
      <trkpt lat="42.516672" lon="-0.200240">
        <ele>1302.2</ele>
        <time>2016-06-10T09:03:50Z</time>
      </trkpt>
      <trkpt lat="42.516692" lon="-0.200497">
        <ele>1300.8</ele>
        <time>2016-06-10T09:04:04Z</time>
      </trkpt>
      <trkpt lat="42.516710" lon="-0.200777">
        <ele>1300.3</ele>
        <time>2016-06-10T09:04:16Z</time>
      </trkpt>
      <trkpt lat="42.516721" lon="-0.201057">
        <ele>1299.4</ele>
        <time>2016-06-10T09:04:27Z</time>
      </trkpt>
      <trkpt lat="42.516716" lon="-0.201389">
        <ele>1298.4</ele>
        <time>2016-06-10T09:04:41Z</time>
      </trkpt>
      <trkpt lat="42.516675" lon="-0.201648">
        <ele>1297.0</ele>
        <time>2016-06-10T09:04:54Z</time>
      </trkpt>
      <trkpt lat="42.516657" lon="-0.202001">
        <ele>1298.4</ele>
        <time>2016-06-10T09:05:07Z</time>
      </trkpt>
      <trkpt lat="42.516666" lon="-0.202398">
        <ele>1290.2</ele>
        <time>2016-06-10T09:05:19Z</time>
      </trkpt>
      <trkpt lat="42.516632" lon="-0.202609">
        <ele>1284.5</ele>
        <time>2016-06-10T09:05:25Z</time>
      </trkpt>
      <trkpt lat="42.516614" lon="-0.202665">
        <ele>1276.8</ele>
        <time>2016-06-10T09:09:56Z</time>
      </trkpt>
      <trkpt lat="42.516324" lon="-0.202577">
        <ele>1274.9</ele>
        <time>2016-06-10T09:10:26Z</time>
      </trkpt>
      <trkpt lat="42.515884" lon="-0.202526">
        <ele>1272.0</ele>
        <time>2016-06-10T09:10:38Z</time>
      </trkpt>
      <trkpt lat="42.515706" lon="-0.202499">
        <ele>1270.5</ele>
        <time>2016-06-10T09:10:47Z</time>
      </trkpt>
      <trkpt lat="42.515662" lon="-0.202613">
        <ele>1270.5</ele>
        <time>2016-06-10T09:10:53Z</time>
      </trkpt>
      <trkpt lat="42.515750" lon="-0.202671">
        <ele>1270.5</ele>
        <time>2016-06-10T09:11:00Z</time>
      </trkpt>
      <trkpt lat="42.515903" lon="-0.202871">
        <ele>1272.9</ele>
        <time>2016-06-10T09:11:13Z</time>
      </trkpt>
      <trkpt lat="42.515952" lon="-0.202971">
        <ele>1272.9</ele>
        <time>2016-06-10T09:11:18Z</time>
      </trkpt>
      <trkpt lat="42.516079" lon="-0.203287">
        <ele>1269.6</ele>
        <time>2016-06-10T09:11:33Z</time>
      </trkpt>
      <trkpt lat="42.516187" lon="-0.203640">
        <ele>1267.6</ele>
        <time>2016-06-10T09:11:47Z</time>
      </trkpt>
      <trkpt lat="42.516362" lon="-0.204183">
        <ele>1264.8</ele>
        <time>2016-06-10T09:12:03Z</time>
      </trkpt>
      <trkpt lat="42.516404" lon="-0.204356">
        <ele>1263.8</ele>
        <time>2016-06-10T09:12:06Z</time>
      </trkpt>
      <trkpt lat="42.516464" lon="-0.204675">
        <ele>1263.3</ele>
        <time>2016-06-10T09:12:11Z</time>
      </trkpt>
      <trkpt lat="42.516514" lon="-0.204935">
        <ele>1261.9</ele>
        <time>2016-06-10T09:12:15Z</time>
      </trkpt>
      <trkpt lat="42.516596" lon="-0.205314">
        <ele>1261.4</ele>
        <time>2016-06-10T09:12:21Z</time>
      </trkpt>
      <trkpt lat="42.516770" lon="-0.206054">
        <ele>1261.9</ele>
        <time>2016-06-10T09:12:35Z</time>
      </trkpt>
      <trkpt lat="42.516820" lon="-0.206415">
        <ele>1265.2</ele>
        <time>2016-06-10T09:12:46Z</time>
      </trkpt>
      <trkpt lat="42.516817" lon="-0.206833">
        <ele>1266.7</ele>
        <time>2016-06-10T09:12:59Z</time>
      </trkpt>
      <trkpt lat="42.516643" lon="-0.207063">
        <ele>1266.2</ele>
        <time>2016-06-10T09:13:11Z</time>
      </trkpt>
      <trkpt lat="42.516391" lon="-0.207310">
        <ele>1267.2</ele>
        <time>2016-06-10T09:13:25Z</time>
      </trkpt>
      <trkpt lat="42.516143" lon="-0.207639">
        <ele>1268.6</ele>
        <time>2016-06-10T09:13:37Z</time>
      </trkpt>
      <trkpt lat="42.515851" lon="-0.208059">
        <ele>1265.7</ele>
        <time>2016-06-10T09:13:49Z</time>
      </trkpt>
      <trkpt lat="42.515641" lon="-0.208252">
        <ele>1263.8</ele>
        <time>2016-06-10T09:13:59Z</time>
      </trkpt>
      <trkpt lat="42.515391" lon="-0.208428">
        <ele>1265.2</ele>
        <time>2016-06-10T09:14:15Z</time>
      </trkpt>
      <trkpt lat="42.515280" lon="-0.208698">
        <ele>1266.7</ele>
        <time>2016-06-10T09:14:28Z</time>
      </trkpt>
      <trkpt lat="42.515223" lon="-0.209031">
        <ele>1269.6</ele>
        <time>2016-06-10T09:14:41Z</time>
      </trkpt>
      <trkpt lat="42.515058" lon="-0.209262">
        <ele>1270.0</ele>
        <time>2016-06-10T09:14:53Z</time>
      </trkpt>
      <trkpt lat="42.514955" lon="-0.209373">
        <ele>1270.5</ele>
        <time>2016-06-10T09:14:58Z</time>
      </trkpt>
      <trkpt lat="42.514770" lon="-0.209730">
        <ele>1267.2</ele>
        <time>2016-06-10T09:15:10Z</time>
      </trkpt>
      <trkpt lat="42.514543" lon="-0.210136">
        <ele>1265.2</ele>
        <time>2016-06-10T09:15:22Z</time>
      </trkpt>
      <trkpt lat="42.514317" lon="-0.210393">
        <ele>1264.3</ele>
        <time>2016-06-10T09:15:33Z</time>
      </trkpt>
      <trkpt lat="42.514097" lon="-0.210561">
        <ele>1266.7</ele>
        <time>2016-06-10T09:15:47Z</time>
      </trkpt>
      <trkpt lat="42.513950" lon="-0.210673">
        <ele>1268.1</ele>
        <time>2016-06-10T09:15:58Z</time>
      </trkpt>
      <trkpt lat="42.513777" lon="-0.210866">
        <ele>1272.0</ele>
        <time>2016-06-10T09:16:11Z</time>
      </trkpt>
      <trkpt lat="42.513690" lon="-0.210962">
        <ele>1273.4</ele>
        <time>2016-06-10T09:16:17Z</time>
      </trkpt>
      <trkpt lat="42.513624" lon="-0.211068">
        <ele>1275.8</ele>
        <time>2016-06-10T09:16:23Z</time>
      </trkpt>
      <trkpt lat="42.513463" lon="-0.211214">
        <ele>1278.7</ele>
        <time>2016-06-10T09:16:35Z</time>
      </trkpt>
      <trkpt lat="42.513282" lon="-0.211499">
        <ele>1277.3</ele>
        <time>2016-06-10T09:16:51Z</time>
      </trkpt>
      <trkpt lat="42.513089" lon="-0.211667">
        <ele>1279.2</ele>
        <time>2016-06-10T09:17:04Z</time>
      </trkpt>
      <trkpt lat="42.513032" lon="-0.211719">
        <ele>1280.6</ele>
        <time>2016-06-10T09:17:08Z</time>
      </trkpt>
      <trkpt lat="42.512857" lon="-0.211904">
        <ele>1283.5</ele>
        <time>2016-06-10T09:17:21Z</time>
      </trkpt>
      <trkpt lat="42.512685" lon="-0.212081">
        <ele>1285.9</ele>
        <time>2016-06-10T09:17:32Z</time>
      </trkpt>
      <trkpt lat="42.512611" lon="-0.212123">
        <ele>1287.8</ele>
        <time>2016-06-10T09:17:36Z</time>
      </trkpt>
      <trkpt lat="42.512332" lon="-0.212150">
        <ele>1291.7</ele>
        <time>2016-06-10T09:17:51Z</time>
      </trkpt>
      <trkpt lat="42.512223" lon="-0.212088">
        <ele>1287.8</ele>
        <time>2016-06-10T09:18:01Z</time>
      </trkpt>
      <trkpt lat="42.512078" lon="-0.211982">
        <ele>1287.3</ele>
        <time>2016-06-10T09:18:10Z</time>
      </trkpt>
      <trkpt lat="42.511998" lon="-0.211933">
        <ele>1285.9</ele>
        <time>2016-06-10T09:18:16Z</time>
      </trkpt>
      <trkpt lat="42.511887" lon="-0.211927">
        <ele>1284.5</ele>
        <time>2016-06-10T09:18:23Z</time>
      </trkpt>
      <trkpt lat="42.511834" lon="-0.212033">
        <ele>1284.9</ele>
        <time>2016-06-10T09:18:30Z</time>
      </trkpt>
      <trkpt lat="42.511807" lon="-0.212084">
        <ele>1285.9</ele>
        <time>2016-06-10T09:18:34Z</time>
      </trkpt>
      <trkpt lat="42.511795" lon="-0.212149">
        <ele>1285.9</ele>
        <time>2016-06-10T09:18:38Z</time>
      </trkpt>
      <trkpt lat="42.511743" lon="-0.212382">
        <ele>1284.9</ele>
        <time>2016-06-10T09:18:51Z</time>
      </trkpt>
      <trkpt lat="42.511659" lon="-0.212589">
        <ele>1281.6</ele>
        <time>2016-06-10T09:19:04Z</time>
      </trkpt>
      <trkpt lat="42.511581" lon="-0.212720">
        <ele>1279.2</ele>
        <time>2016-06-10T09:19:12Z</time>
      </trkpt>
      <trkpt lat="42.511468" lon="-0.212956">
        <ele>1280.6</ele>
        <time>2016-06-10T09:19:26Z</time>
      </trkpt>
      <trkpt lat="42.511420" lon="-0.212996">
        <ele>1281.6</ele>
        <time>2016-06-10T09:19:30Z</time>
      </trkpt>
      <trkpt lat="42.511188" lon="-0.213132">
        <ele>1282.5</ele>
        <time>2016-06-10T09:19:47Z</time>
      </trkpt>
      <trkpt lat="42.511113" lon="-0.213174">
        <ele>1283.5</ele>
        <time>2016-06-10T09:19:52Z</time>
      </trkpt>
      <trkpt lat="42.511078" lon="-0.213220">
        <ele>1284.5</ele>
        <time>2016-06-10T09:19:55Z</time>
      </trkpt>
      <trkpt lat="42.510877" lon="-0.213381">
        <ele>1291.2</ele>
        <time>2016-06-10T09:20:10Z</time>
      </trkpt>
      <trkpt lat="42.510723" lon="-0.213514">
        <ele>1294.6</ele>
        <time>2016-06-10T09:20:22Z</time>
      </trkpt>
      <trkpt lat="42.510545" lon="-0.213674">
        <ele>1297.4</ele>
        <time>2016-06-10T09:20:37Z</time>
      </trkpt>
      <trkpt lat="42.510425" lon="-0.213865">
        <ele>1297.9</ele>
        <time>2016-06-10T09:20:49Z</time>
      </trkpt>
      <trkpt lat="42.510244" lon="-0.213979">
        <ele>1296.5</ele>
        <time>2016-06-10T09:21:01Z</time>
      </trkpt>
      <trkpt lat="42.510111" lon="-0.214087">
        <ele>1294.1</ele>
        <time>2016-06-10T09:21:10Z</time>
      </trkpt>
      <trkpt lat="42.509925" lon="-0.214301">
        <ele>1293.6</ele>
        <time>2016-06-10T09:21:24Z</time>
      </trkpt>
      <trkpt lat="42.509715" lon="-0.214495">
        <ele>1297.4</ele>
        <time>2016-06-10T09:21:36Z</time>
      </trkpt>
      <trkpt lat="42.509584" lon="-0.214598">
        <ele>1298.9</ele>
        <time>2016-06-10T09:21:43Z</time>
      </trkpt>
      <trkpt lat="42.509232" lon="-0.214778">
        <ele>1303.2</ele>
        <time>2016-06-10T09:21:56Z</time>
      </trkpt>
      <trkpt lat="42.508852" lon="-0.214877">
        <ele>1310.9</ele>
        <time>2016-06-10T09:22:10Z</time>
      </trkpt>
      <trkpt lat="42.508733" lon="-0.214898">
        <ele>1314.3</ele>
        <time>2016-06-10T09:22:16Z</time>
      </trkpt>
      <trkpt lat="42.508512" lon="-0.215192">
        <ele>1316.2</ele>
        <time>2016-06-10T09:22:30Z</time>
      </trkpt>
      <trkpt lat="42.508424" lon="-0.215261">
        <ele>1316.2</ele>
        <time>2016-06-10T09:22:34Z</time>
      </trkpt>
      <trkpt lat="42.508273" lon="-0.215626">
        <ele>1314.7</ele>
        <time>2016-06-10T09:22:47Z</time>
      </trkpt>
      <trkpt lat="42.508054" lon="-0.215935">
        <ele>1308.0</ele>
        <time>2016-06-10T09:23:01Z</time>
      </trkpt>
      <trkpt lat="42.507937" lon="-0.215943">
        <ele>1307.1</ele>
        <time>2016-06-10T09:23:04Z</time>
      </trkpt>
      <trkpt lat="42.507477" lon="-0.215937">
        <ele>1308.5</ele>
        <time>2016-06-10T09:23:16Z</time>
      </trkpt>
      <trkpt lat="42.507420" lon="-0.216162">
        <ele>1309.0</ele>
        <time>2016-06-10T09:23:22Z</time>
      </trkpt>
      <trkpt lat="42.507319" lon="-0.216666">
        <ele>1299.8</ele>
        <time>2016-06-10T09:23:29Z</time>
      </trkpt>
      <trkpt lat="42.507088" lon="-0.216886">
        <ele>1286.4</ele>
        <time>2016-06-10T09:23:37Z</time>
      </trkpt>
      <trkpt lat="42.506713" lon="-0.216950">
        <ele>1283.5</ele>
        <time>2016-06-10T09:23:49Z</time>
      </trkpt>
      <trkpt lat="42.506656" lon="-0.216985">
        <ele>1286.4</ele>
        <time>2016-06-10T09:23:54Z</time>
      </trkpt>
      <trkpt lat="42.506407" lon="-0.217214">
        <ele>1294.1</ele>
        <time>2016-06-10T09:24:05Z</time>
      </trkpt>
      <trkpt lat="42.506115" lon="-0.217508">
        <ele>1297.9</ele>
        <time>2016-06-10T09:24:16Z</time>
      </trkpt>
      <trkpt lat="42.506037" lon="-0.217623">
        <ele>1297.9</ele>
        <time>2016-06-10T09:24:19Z</time>
      </trkpt>
      <trkpt lat="42.505933" lon="-0.217745">
        <ele>1295.5</ele>
        <time>2016-06-10T09:24:23Z</time>
      </trkpt>
      <trkpt lat="42.505861" lon="-0.217743">
        <ele>1293.1</ele>
        <time>2016-06-10T09:24:25Z</time>
      </trkpt>
      <trkpt lat="42.505667" lon="-0.217683">
        <ele>1292.2</ele>
        <time>2016-06-10T09:24:29Z</time>
      </trkpt>
      <trkpt lat="42.505329" lon="-0.217752">
        <ele>1292.2</ele>
        <time>2016-06-10T09:24:36Z</time>
      </trkpt>
      <trkpt lat="42.504948" lon="-0.217783">
        <ele>1292.6</ele>
        <time>2016-06-10T09:24:46Z</time>
      </trkpt>
      <trkpt lat="42.504662" lon="-0.217905">
        <ele>1291.2</ele>
        <time>2016-06-10T09:24:58Z</time>
      </trkpt>
      <trkpt lat="42.504624" lon="-0.217951">
        <ele>1290.7</ele>
        <time>2016-06-10T09:25:00Z</time>
      </trkpt>
      <trkpt lat="42.504675" lon="-0.218098">
        <ele>1284.5</ele>
        <time>2016-06-10T09:25:07Z</time>
      </trkpt>
      <trkpt lat="42.504866" lon="-0.218133">
        <ele>1287.3</ele>
        <time>2016-06-10T09:25:17Z</time>
      </trkpt>
      <trkpt lat="42.504995" lon="-0.218155">
        <ele>1288.8</ele>
        <time>2016-06-10T09:25:25Z</time>
      </trkpt>
      <trkpt lat="42.505180" lon="-0.218125">
        <ele>1297.4</ele>
        <time>2016-06-10T09:25:38Z</time>
      </trkpt>
      <trkpt lat="42.505227" lon="-0.218099">
        <ele>1302.7</ele>
        <time>2016-06-10T09:25:42Z</time>
      </trkpt>
      <trkpt lat="42.505311" lon="-0.218101">
        <ele>1307.1</ele>
        <time>2016-06-10T09:25:48Z</time>
      </trkpt>
      <trkpt lat="42.505417" lon="-0.218108">
        <ele>1313.3</ele>
        <time>2016-06-10T09:25:56Z</time>
      </trkpt>
      <trkpt lat="42.505563" lon="-0.218156">
        <ele>1318.1</ele>
        <time>2016-06-10T09:26:08Z</time>
      </trkpt>
      <trkpt lat="42.505668" lon="-0.218166">
        <ele>1320.5</ele>
        <time>2016-06-10T09:26:16Z</time>
      </trkpt>
      <trkpt lat="42.505755" lon="-0.218099">
        <ele>1325.3</ele>
        <time>2016-06-10T09:26:27Z</time>
      </trkpt>
      <trkpt lat="42.505980" lon="-0.218265">
        <ele>1317.1</ele>
        <time>2016-06-10T09:26:39Z</time>
      </trkpt>
      <trkpt lat="42.506148" lon="-0.218312">
        <ele>1317.6</ele>
        <time>2016-06-10T09:26:52Z</time>
      </trkpt>
      <trkpt lat="42.506319" lon="-0.218159">
        <ele>1314.7</ele>
        <time>2016-06-10T09:27:04Z</time>
      </trkpt>
      <trkpt lat="42.506529" lon="-0.218059">
        <ele>1307.1</ele>
        <time>2016-06-10T09:27:17Z</time>
      </trkpt>
      <trkpt lat="42.506614" lon="-0.218003">
        <ele>1305.6</ele>
        <time>2016-06-10T09:27:22Z</time>
      </trkpt>
      <trkpt lat="42.506746" lon="-0.217929">
        <ele>1304.7</ele>
        <time>2016-06-10T09:27:29Z</time>
      </trkpt>
      <trkpt lat="42.506794" lon="-0.217916">
        <ele>1303.7</ele>
        <time>2016-06-10T09:27:32Z</time>
      </trkpt>
      <trkpt lat="42.506988" lon="-0.217826">
        <ele>1301.8</ele>
        <time>2016-06-10T09:27:39Z</time>
      </trkpt>
      <trkpt lat="42.507159" lon="-0.217845">
        <ele>1301.3</ele>
        <time>2016-06-10T09:27:44Z</time>
      </trkpt>
      <trkpt lat="42.507540" lon="-0.217689">
        <ele>1301.8</ele>
        <time>2016-06-10T09:27:54Z</time>
      </trkpt>
      <trkpt lat="42.507757" lon="-0.217493">
        <ele>1300.3</ele>
        <time>2016-06-10T09:28:00Z</time>
      </trkpt>
      <trkpt lat="42.507936" lon="-0.217347">
        <ele>1299.4</ele>
        <time>2016-06-10T09:28:04Z</time>
      </trkpt>
      <trkpt lat="42.508131" lon="-0.217254">
        <ele>1297.9</ele>
        <time>2016-06-10T09:28:09Z</time>
      </trkpt>
      <trkpt lat="42.508299" lon="-0.217217">
        <ele>1285.4</ele>
        <time>2016-06-10T09:28:20Z</time>
      </trkpt>
      <trkpt lat="42.508337" lon="-0.217292">
        <ele>1266.7</ele>
        <time>2016-06-10T09:29:25Z</time>
      </trkpt>
      <trkpt lat="42.508512" lon="-0.217339">
        <ele>1252.7</ele>
        <time>2016-06-10T09:47:21Z</time>
      </trkpt>
      <trkpt lat="42.508728" lon="-0.217346">
        <ele>1253.2</ele>
        <time>2016-06-10T09:47:29Z</time>
      </trkpt>
      <trkpt lat="42.508806" lon="-0.217355">
        <ele>1253.7</ele>
        <time>2016-06-10T09:47:32Z</time>
      </trkpt>
      <trkpt lat="42.508877" lon="-0.217354">
        <ele>1254.7</ele>
        <time>2016-06-10T09:47:36Z</time>
      </trkpt>
      <trkpt lat="42.509068" lon="-0.217283">
        <ele>1259.0</ele>
        <time>2016-06-10T09:47:48Z</time>
      </trkpt>
      <trkpt lat="42.509228" lon="-0.217145">
        <ele>1265.7</ele>
        <time>2016-06-10T09:48:01Z</time>
      </trkpt>
      <trkpt lat="42.509353" lon="-0.217063">
        <ele>1269.1</ele>
        <time>2016-06-10T09:48:11Z</time>
      </trkpt>
      <trkpt lat="42.509559" lon="-0.217011">
        <ele>1269.6</ele>
        <time>2016-06-10T09:48:26Z</time>
      </trkpt>
      <trkpt lat="42.509623" lon="-0.217008">
        <ele>1270.0</ele>
        <time>2016-06-10T09:48:30Z</time>
      </trkpt>
      <trkpt lat="42.509775" lon="-0.216783">
        <ele>1272.9</ele>
        <time>2016-06-10T09:48:46Z</time>
      </trkpt>
      <trkpt lat="42.509838" lon="-0.216720">
        <ele>1272.4</ele>
        <time>2016-06-10T09:48:53Z</time>
      </trkpt>
      <trkpt lat="42.509980" lon="-0.216636">
        <ele>1275.8</ele>
        <time>2016-06-10T09:49:06Z</time>
      </trkpt>
      <trkpt lat="42.510040" lon="-0.216650">
        <ele>1277.3</ele>
        <time>2016-06-10T09:49:11Z</time>
      </trkpt>
      <trkpt lat="42.510133" lon="-0.216623">
        <ele>1278.7</ele>
        <time>2016-06-10T09:49:18Z</time>
      </trkpt>
      <trkpt lat="42.510191" lon="-0.216626">
        <ele>1280.6</ele>
        <time>2016-06-10T09:49:23Z</time>
      </trkpt>
      <trkpt lat="42.510261" lon="-0.216614">
        <ele>1280.1</ele>
        <time>2016-06-10T09:49:28Z</time>
      </trkpt>
      <trkpt lat="42.510321" lon="-0.216628">
        <ele>1280.1</ele>
        <time>2016-06-10T09:49:32Z</time>
      </trkpt>
      <trkpt lat="42.510517" lon="-0.216547">
        <ele>1283.0</ele>
        <time>2016-06-10T09:49:47Z</time>
      </trkpt>
      <trkpt lat="42.510600" lon="-0.216526">
        <ele>1283.5</ele>
        <time>2016-06-10T09:49:53Z</time>
      </trkpt>
      <trkpt lat="42.510665" lon="-0.216494">
        <ele>1284.5</ele>
        <time>2016-06-10T09:49:58Z</time>
      </trkpt>
      <trkpt lat="42.510856" lon="-0.216366">
        <ele>1289.8</ele>
        <time>2016-06-10T09:50:15Z</time>
      </trkpt>
      <trkpt lat="42.511073" lon="-0.216227">
        <ele>1286.9</ele>
        <time>2016-06-10T09:50:30Z</time>
      </trkpt>
      <trkpt lat="42.511186" lon="-0.216184">
        <ele>1286.9</ele>
        <time>2016-06-10T09:50:40Z</time>
      </trkpt>
      <trkpt lat="42.511273" lon="-0.216209">
        <ele>1286.4</ele>
        <time>2016-06-10T09:50:46Z</time>
      </trkpt>
      <trkpt lat="42.511426" lon="-0.216386">
        <ele>1284.0</ele>
        <time>2016-06-10T09:51:00Z</time>
      </trkpt>
      <trkpt lat="42.511556" lon="-0.216596">
        <ele>1285.4</ele>
        <time>2016-06-10T09:51:13Z</time>
      </trkpt>
      <trkpt lat="42.511631" lon="-0.216791">
        <ele>1282.5</ele>
        <time>2016-06-10T09:51:25Z</time>
      </trkpt>
      <trkpt lat="42.511723" lon="-0.216975">
        <ele>1284.9</ele>
        <time>2016-06-10T09:51:38Z</time>
      </trkpt>
      <trkpt lat="42.511860" lon="-0.217117">
        <ele>1286.9</ele>
        <time>2016-06-10T09:51:51Z</time>
      </trkpt>
      <trkpt lat="42.511930" lon="-0.217067">
        <ele>1288.3</ele>
        <time>2016-06-10T09:51:56Z</time>
      </trkpt>
      <trkpt lat="42.511945" lon="-0.216995">
        <ele>1288.8</ele>
        <time>2016-06-10T09:52:00Z</time>
      </trkpt>
      <trkpt lat="42.512004" lon="-0.216903">
        <ele>1289.8</ele>
        <time>2016-06-10T09:52:07Z</time>
      </trkpt>
      <trkpt lat="42.512038" lon="-0.216831">
        <ele>1288.8</ele>
        <time>2016-06-10T09:52:11Z</time>
      </trkpt>
      <trkpt lat="42.512146" lon="-0.216583">
        <ele>1285.9</ele>
        <time>2016-06-10T09:52:25Z</time>
      </trkpt>
      <trkpt lat="42.512237" lon="-0.216346">
        <ele>1286.9</ele>
        <time>2016-06-10T09:52:38Z</time>
      </trkpt>
      <trkpt lat="42.512301" lon="-0.216223">
        <ele>1285.9</ele>
        <time>2016-06-10T09:52:47Z</time>
      </trkpt>
      <trkpt lat="42.512357" lon="-0.216156">
        <ele>1285.4</ele>
        <time>2016-06-10T09:52:53Z</time>
      </trkpt>
      <trkpt lat="42.512539" lon="-0.216066">
        <ele>1288.8</ele>
        <time>2016-06-10T09:53:10Z</time>
      </trkpt>
      <trkpt lat="42.512653" lon="-0.216023">
        <ele>1294.6</ele>
        <time>2016-06-10T09:53:20Z</time>
      </trkpt>
      <trkpt lat="42.512775" lon="-0.215996">
        <ele>1296.5</ele>
        <time>2016-06-10T09:53:28Z</time>
      </trkpt>
      <trkpt lat="42.512956" lon="-0.216054">
        <ele>1300.3</ele>
        <time>2016-06-10T09:53:43Z</time>
      </trkpt>
      <trkpt lat="42.513093" lon="-0.216202">
        <ele>1301.8</ele>
        <time>2016-06-10T09:53:57Z</time>
      </trkpt>
      <trkpt lat="42.513276" lon="-0.216322">
        <ele>1302.2</ele>
        <time>2016-06-10T09:54:12Z</time>
      </trkpt>
      <trkpt lat="42.513436" lon="-0.216426">
        <ele>1306.1</ele>
        <time>2016-06-10T09:54:24Z</time>
      </trkpt>
      <trkpt lat="42.513620" lon="-0.216592">
        <ele>1307.1</ele>
        <time>2016-06-10T09:54:38Z</time>
      </trkpt>
      <trkpt lat="42.513740" lon="-0.216756">
        <ele>1310.4</ele>
        <time>2016-06-10T09:54:52Z</time>
      </trkpt>
      <trkpt lat="42.513846" lon="-0.216884">
        <ele>1310.4</ele>
        <time>2016-06-10T09:55:05Z</time>
      </trkpt>
      <trkpt lat="42.513927" lon="-0.216884">
        <ele>1309.9</ele>
        <time>2016-06-10T09:55:08Z</time>
      </trkpt>
      <trkpt lat="42.514088" lon="-0.216581">
        <ele>1308.5</ele>
        <time>2016-06-10T09:55:26Z</time>
      </trkpt>
      <trkpt lat="42.514182" lon="-0.216399">
        <ele>1308.0</ele>
        <time>2016-06-10T09:55:37Z</time>
      </trkpt>
      <trkpt lat="42.514277" lon="-0.216180">
        <ele>1307.5</ele>
        <time>2016-06-10T09:55:50Z</time>
      </trkpt>
      <trkpt lat="42.514319" lon="-0.216062">
        <ele>1308.0</ele>
        <time>2016-06-10T09:55:56Z</time>
      </trkpt>
      <trkpt lat="42.514415" lon="-0.215737">
        <ele>1307.1</ele>
        <time>2016-06-10T09:56:10Z</time>
      </trkpt>
      <trkpt lat="42.514533" lon="-0.215420">
        <ele>1306.6</ele>
        <time>2016-06-10T09:56:25Z</time>
      </trkpt>
      <trkpt lat="42.514757" lon="-0.215218">
        <ele>1306.6</ele>
        <time>2016-06-10T09:56:41Z</time>
      </trkpt>
      <trkpt lat="42.514989" lon="-0.215222">
        <ele>1308.0</ele>
        <time>2016-06-10T09:56:53Z</time>
      </trkpt>
      <trkpt lat="42.515296" lon="-0.215226">
        <ele>1307.5</ele>
        <time>2016-06-10T09:57:05Z</time>
      </trkpt>
      <trkpt lat="42.515532" lon="-0.215247">
        <ele>1307.5</ele>
        <time>2016-06-10T09:57:18Z</time>
      </trkpt>
      <trkpt lat="42.515768" lon="-0.215199">
        <ele>1307.5</ele>
        <time>2016-06-10T09:57:31Z</time>
      </trkpt>
      <trkpt lat="42.515903" lon="-0.215282">
        <ele>1309.5</ele>
        <time>2016-06-10T09:57:43Z</time>
      </trkpt>
      <trkpt lat="42.516096" lon="-0.215231">
        <ele>1311.4</ele>
        <time>2016-06-10T09:57:55Z</time>
      </trkpt>
      <trkpt lat="42.516255" lon="-0.215004">
        <ele>1312.3</ele>
        <time>2016-06-10T09:58:09Z</time>
      </trkpt>
      <trkpt lat="42.516378" lon="-0.214812">
        <ele>1312.8</ele>
        <time>2016-06-10T09:58:23Z</time>
      </trkpt>
      <trkpt lat="42.516435" lon="-0.214781">
        <ele>1312.3</ele>
        <time>2016-06-10T09:58:27Z</time>
      </trkpt>
      <trkpt lat="42.516515" lon="-0.214815">
        <ele>1312.3</ele>
        <time>2016-06-10T09:58:33Z</time>
      </trkpt>
      <trkpt lat="42.516614" lon="-0.214840">
        <ele>1313.3</ele>
        <time>2016-06-10T09:58:41Z</time>
      </trkpt>
      <trkpt lat="42.516827" lon="-0.214728">
        <ele>1316.7</ele>
        <time>2016-06-10T09:58:57Z</time>
      </trkpt>
      <trkpt lat="42.517013" lon="-0.214649">
        <ele>1320.0</ele>
        <time>2016-06-10T09:59:12Z</time>
      </trkpt>
      <trkpt lat="42.517137" lon="-0.214407">
        <ele>1322.0</ele>
        <time>2016-06-10T09:59:27Z</time>
      </trkpt>
      <trkpt lat="42.517238" lon="-0.214133">
        <ele>1321.5</ele>
        <time>2016-06-10T09:59:41Z</time>
      </trkpt>
      <trkpt lat="42.517287" lon="-0.214027">
        <ele>1321.5</ele>
        <time>2016-06-10T09:59:47Z</time>
      </trkpt>
      <trkpt lat="42.517476" lon="-0.213804">
        <ele>1321.0</ele>
        <time>2016-06-10T10:00:03Z</time>
      </trkpt>
      <trkpt lat="42.517574" lon="-0.213702">
        <ele>1320.5</ele>
        <time>2016-06-10T10:00:11Z</time>
      </trkpt>
      <trkpt lat="42.517740" lon="-0.213566">
        <ele>1321.0</ele>
        <time>2016-06-10T10:00:25Z</time>
      </trkpt>
      <trkpt lat="42.517854" lon="-0.213723">
        <ele>1322.4</ele>
        <time>2016-06-10T10:00:38Z</time>
      </trkpt>
      <trkpt lat="42.517908" lon="-0.213988">
        <ele>1325.8</ele>
        <time>2016-06-10T10:00:52Z</time>
      </trkpt>
      <trkpt lat="42.517978" lon="-0.214279">
        <ele>1327.7</ele>
        <time>2016-06-10T10:01:05Z</time>
      </trkpt>
      <trkpt lat="42.518004" lon="-0.214409">
        <ele>1330.1</ele>
        <time>2016-06-10T10:01:11Z</time>
      </trkpt>
      <trkpt lat="42.518065" lon="-0.214752">
        <ele>1334.0</ele>
        <time>2016-06-10T10:01:27Z</time>
      </trkpt>
      <trkpt lat="42.518126" lon="-0.214981">
        <ele>1338.3</ele>
        <time>2016-06-10T10:01:37Z</time>
      </trkpt>
      <trkpt lat="42.518174" lon="-0.215279">
        <ele>1338.8</ele>
        <time>2016-06-10T10:01:50Z</time>
      </trkpt>
      <trkpt lat="42.518236" lon="-0.215552">
        <ele>1344.1</ele>
        <time>2016-06-10T10:02:03Z</time>
      </trkpt>
      <trkpt lat="42.518241" lon="-0.215773">
        <ele>1344.5</ele>
        <time>2016-06-10T10:02:14Z</time>
      </trkpt>
      <trkpt lat="42.518269" lon="-0.216019">
        <ele>1347.4</ele>
        <time>2016-06-10T10:02:26Z</time>
      </trkpt>
      <trkpt lat="42.518270" lon="-0.216110">
        <ele>1348.9</ele>
        <time>2016-06-10T10:02:31Z</time>
      </trkpt>
      <trkpt lat="42.518273" lon="-0.216201">
        <ele>1351.3</ele>
        <time>2016-06-10T10:02:36Z</time>
      </trkpt>
      <trkpt lat="42.518295" lon="-0.216382">
        <ele>1351.3</ele>
        <time>2016-06-10T10:02:47Z</time>
      </trkpt>
      <trkpt lat="42.518317" lon="-0.216476">
        <ele>1350.3</ele>
        <time>2016-06-10T10:02:52Z</time>
      </trkpt>
      <trkpt lat="42.518312" lon="-0.216650">
        <ele>1346.9</ele>
        <time>2016-06-10T10:03:00Z</time>
      </trkpt>
      <trkpt lat="42.518348" lon="-0.216901">
        <ele>1345.0</ele>
        <time>2016-06-10T10:03:12Z</time>
      </trkpt>
      <trkpt lat="42.518347" lon="-0.216970">
        <ele>1345.5</ele>
        <time>2016-06-10T10:03:16Z</time>
      </trkpt>
      <trkpt lat="42.518395" lon="-0.217275">
        <ele>1347.4</ele>
        <time>2016-06-10T10:03:32Z</time>
      </trkpt>
      <trkpt lat="42.518393" lon="-0.217347">
        <ele>1347.4</ele>
        <time>2016-06-10T10:03:36Z</time>
      </trkpt>
      <trkpt lat="42.518360" lon="-0.217680">
        <ele>1345.0</ele>
        <time>2016-06-10T10:03:52Z</time>
      </trkpt>
      <trkpt lat="42.518372" lon="-0.217764">
        <ele>1345.5</ele>
        <time>2016-06-10T10:03:56Z</time>
      </trkpt>
      <trkpt lat="42.518367" lon="-0.217876">
        <ele>1346.0</ele>
        <time>2016-06-10T10:04:02Z</time>
      </trkpt>
      <trkpt lat="42.518373" lon="-0.218054">
        <ele>1345.0</ele>
        <time>2016-06-10T10:04:11Z</time>
      </trkpt>
      <trkpt lat="42.518385" lon="-0.218133">
        <ele>1345.5</ele>
        <time>2016-06-10T10:04:15Z</time>
      </trkpt>
      <trkpt lat="42.518418" lon="-0.218420">
        <ele>1346.9</ele>
        <time>2016-06-10T10:04:29Z</time>
      </trkpt>
      <trkpt lat="42.518433" lon="-0.218682">
        <ele>1347.9</ele>
        <time>2016-06-10T10:04:42Z</time>
      </trkpt>
      <trkpt lat="42.518442" lon="-0.218866">
        <ele>1349.8</ele>
        <time>2016-06-10T10:04:52Z</time>
      </trkpt>
      <trkpt lat="42.518467" lon="-0.219157">
        <ele>1351.3</ele>
        <time>2016-06-10T10:05:07Z</time>
      </trkpt>
      <trkpt lat="42.518506" lon="-0.219361">
        <ele>1353.2</ele>
        <time>2016-06-10T10:05:18Z</time>
      </trkpt>
      <trkpt lat="42.518516" lon="-0.219512">
        <ele>1353.2</ele>
        <time>2016-06-10T10:05:25Z</time>
      </trkpt>
      <trkpt lat="42.518513" lon="-0.219821">
        <ele>1353.2</ele>
        <time>2016-06-10T10:05:41Z</time>
      </trkpt>
      <trkpt lat="42.518518" lon="-0.219941">
        <ele>1354.2</ele>
        <time>2016-06-10T10:05:47Z</time>
      </trkpt>
      <trkpt lat="42.518495" lon="-0.220179">
        <ele>1357.0</ele>
        <time>2016-06-10T10:06:00Z</time>
      </trkpt>
      <trkpt lat="42.518507" lon="-0.220311">
        <ele>1358.5</ele>
        <time>2016-06-10T10:06:07Z</time>
      </trkpt>
      <trkpt lat="42.518524" lon="-0.220455">
        <ele>1360.9</ele>
        <time>2016-06-10T10:06:15Z</time>
      </trkpt>
      <trkpt lat="42.518546" lon="-0.220611">
        <ele>1361.8</ele>
        <time>2016-06-10T10:06:23Z</time>
      </trkpt>
      <trkpt lat="42.518575" lon="-0.220933">
        <ele>1364.3</ele>
        <time>2016-06-10T10:06:38Z</time>
      </trkpt>
      <trkpt lat="42.518647" lon="-0.221248">
        <ele>1368.6</ele>
        <time>2016-06-10T10:06:54Z</time>
      </trkpt>
      <trkpt lat="42.518652" lon="-0.221510">
        <ele>1368.6</ele>
        <time>2016-06-10T10:07:07Z</time>
      </trkpt>
      <trkpt lat="42.518693" lon="-0.221823">
        <ele>1370.5</ele>
        <time>2016-06-10T10:07:23Z</time>
      </trkpt>
      <trkpt lat="42.518725" lon="-0.222077">
        <ele>1373.4</ele>
        <time>2016-06-10T10:07:36Z</time>
      </trkpt>
      <trkpt lat="42.518722" lon="-0.222243">
        <ele>1371.5</ele>
        <time>2016-06-10T10:07:44Z</time>
      </trkpt>
      <trkpt lat="42.518719" lon="-0.222348">
        <ele>1371.5</ele>
        <time>2016-06-10T10:07:49Z</time>
      </trkpt>
      <trkpt lat="42.518726" lon="-0.222552">
        <ele>1374.3</ele>
        <time>2016-06-10T10:08:00Z</time>
      </trkpt>
      <trkpt lat="42.518731" lon="-0.222616">
        <ele>1376.3</ele>
        <time>2016-06-10T10:08:04Z</time>
      </trkpt>
      <trkpt lat="42.518740" lon="-0.222738">
        <ele>1377.7</ele>
        <time>2016-06-10T10:08:10Z</time>
      </trkpt>
      <trkpt lat="42.518788" lon="-0.223044">
        <ele>1385.4</ele>
        <time>2016-06-10T10:08:26Z</time>
      </trkpt>
      <trkpt lat="42.518797" lon="-0.223165">
        <ele>1385.9</ele>
        <time>2016-06-10T10:08:32Z</time>
      </trkpt>
      <trkpt lat="42.518828" lon="-0.223469">
        <ele>1387.3</ele>
        <time>2016-06-10T10:08:47Z</time>
      </trkpt>
      <trkpt lat="42.518877" lon="-0.223706">
        <ele>1389.2</ele>
        <time>2016-06-10T10:08:59Z</time>
      </trkpt>
      <trkpt lat="42.518931" lon="-0.223953">
        <ele>1392.6</ele>
        <time>2016-06-10T10:09:12Z</time>
      </trkpt>
      <trkpt lat="42.518964" lon="-0.224055">
        <ele>1395.5</ele>
        <time>2016-06-10T10:09:17Z</time>
      </trkpt>
      <trkpt lat="42.519023" lon="-0.224347">
        <ele>1396.0</ele>
        <time>2016-06-10T10:09:31Z</time>
      </trkpt>
      <trkpt lat="42.519091" lon="-0.224637">
        <ele>1400.3</ele>
        <time>2016-06-10T10:09:46Z</time>
      </trkpt>
      <trkpt lat="42.519133" lon="-0.224754">
        <ele>1404.6</ele>
        <time>2016-06-10T10:09:53Z</time>
      </trkpt>
      <trkpt lat="42.519148" lon="-0.224825">
        <ele>1403.7</ele>
        <time>2016-06-10T10:09:56Z</time>
      </trkpt>
      <trkpt lat="42.519195" lon="-0.225099">
        <ele>1402.2</ele>
        <time>2016-06-10T10:10:09Z</time>
      </trkpt>
      <trkpt lat="42.519218" lon="-0.225224">
        <ele>1402.2</ele>
        <time>2016-06-10T10:10:15Z</time>
      </trkpt>
      <trkpt lat="42.519219" lon="-0.225370">
        <ele>1401.3</ele>
        <time>2016-06-10T10:10:22Z</time>
      </trkpt>
      <trkpt lat="42.519223" lon="-0.225433">
        <ele>1401.7</ele>
        <time>2016-06-10T10:10:25Z</time>
      </trkpt>
      <trkpt lat="42.519220" lon="-0.225547">
        <ele>1401.3</ele>
        <time>2016-06-10T10:10:32Z</time>
      </trkpt>
      <trkpt lat="42.519225" lon="-0.225615">
        <ele>1401.7</ele>
        <time>2016-06-10T10:10:36Z</time>
      </trkpt>
      <trkpt lat="42.519116" lon="-0.225945">
        <ele>1396.9</ele>
        <time>2016-06-10T10:10:51Z</time>
      </trkpt>
      <trkpt lat="42.519048" lon="-0.226132">
        <ele>1399.3</ele>
        <time>2016-06-10T10:11:03Z</time>
      </trkpt>
      <trkpt lat="42.518874" lon="-0.226409">
        <ele>1397.9</ele>
        <time>2016-06-10T10:11:19Z</time>
      </trkpt>
      <trkpt lat="42.518789" lon="-0.226489">
        <ele>1398.4</ele>
        <time>2016-06-10T10:11:26Z</time>
      </trkpt>
      <trkpt lat="42.518603" lon="-0.226666">
        <ele>1400.8</ele>
        <time>2016-06-10T10:11:42Z</time>
      </trkpt>
      <trkpt lat="42.518398" lon="-0.226879">
        <ele>1400.8</ele>
        <time>2016-06-10T10:11:57Z</time>
      </trkpt>
      <trkpt lat="42.518301" lon="-0.227088">
        <ele>1401.3</ele>
        <time>2016-06-10T10:12:07Z</time>
      </trkpt>
      <trkpt lat="42.518195" lon="-0.227324">
        <ele>1400.8</ele>
        <time>2016-06-10T10:12:16Z</time>
      </trkpt>
      <trkpt lat="42.518111" lon="-0.227527">
        <ele>1399.8</ele>
        <time>2016-06-10T10:12:23Z</time>
      </trkpt>
      <trkpt lat="42.518059" lon="-0.227680">
        <ele>1399.8</ele>
        <time>2016-06-10T10:12:29Z</time>
      </trkpt>
      <trkpt lat="42.518024" lon="-0.227872">
        <ele>1399.3</ele>
        <time>2016-06-10T10:12:37Z</time>
      </trkpt>
      <trkpt lat="42.517975" lon="-0.227944">
        <ele>1399.3</ele>
        <time>2016-06-10T10:12:40Z</time>
      </trkpt>
      <trkpt lat="42.517862" lon="-0.228173">
        <ele>1399.3</ele>
        <time>2016-06-10T10:12:51Z</time>
      </trkpt>
      <trkpt lat="42.517804" lon="-0.228397">
        <ele>1400.8</ele>
        <time>2016-06-10T10:13:01Z</time>
      </trkpt>
      <trkpt lat="42.517881" lon="-0.228570">
        <ele>1405.1</ele>
        <time>2016-06-10T10:13:13Z</time>
      </trkpt>
      <trkpt lat="42.517966" lon="-0.228578">
        <ele>1409.4</ele>
        <time>2016-06-10T10:13:22Z</time>
      </trkpt>
      <trkpt lat="42.518229" lon="-0.228668">
        <ele>1410.4</ele>
        <time>2016-06-10T10:13:38Z</time>
      </trkpt>
      <trkpt lat="42.518407" lon="-0.228650">
        <ele>1409.9</ele>
        <time>2016-06-10T10:13:49Z</time>
      </trkpt>
      <trkpt lat="42.518589" lon="-0.228610">
        <ele>1410.9</ele>
        <time>2016-06-10T10:14:03Z</time>
      </trkpt>
      <trkpt lat="42.518709" lon="-0.228688">
        <ele>1412.8</ele>
        <time>2016-06-10T10:14:14Z</time>
      </trkpt>
      <trkpt lat="42.518888" lon="-0.228858">
        <ele>1411.8</ele>
        <time>2016-06-10T10:14:28Z</time>
      </trkpt>
      <trkpt lat="42.519044" lon="-0.229113">
        <ele>1413.3</ele>
        <time>2016-06-10T10:14:45Z</time>
      </trkpt>
      <trkpt lat="42.519159" lon="-0.229336">
        <ele>1416.6</ele>
        <time>2016-06-10T10:14:59Z</time>
      </trkpt>
      <trkpt lat="42.519239" lon="-0.229599">
        <ele>1419.5</ele>
        <time>2016-06-10T10:15:12Z</time>
      </trkpt>
      <trkpt lat="42.519261" lon="-0.229678">
        <ele>1420.0</ele>
        <time>2016-06-10T10:15:16Z</time>
      </trkpt>
      <trkpt lat="42.519390" lon="-0.230040">
        <ele>1422.4</ele>
        <time>2016-06-10T10:15:31Z</time>
      </trkpt>
      <trkpt lat="42.519460" lon="-0.230212">
        <ele>1425.3</ele>
        <time>2016-06-10T10:15:39Z</time>
      </trkpt>
      <trkpt lat="42.519497" lon="-0.230310">
        <ele>1429.1</ele>
        <time>2016-06-10T10:15:44Z</time>
      </trkpt>
      <trkpt lat="42.519624" lon="-0.230566">
        <ele>1436.4</ele>
        <time>2016-06-10T10:15:57Z</time>
      </trkpt>
      <trkpt lat="42.519667" lon="-0.230814">
        <ele>1437.3</ele>
        <time>2016-06-10T10:16:09Z</time>
      </trkpt>
      <trkpt lat="42.519692" lon="-0.230933">
        <ele>1438.8</ele>
        <time>2016-06-10T10:16:15Z</time>
      </trkpt>
      <trkpt lat="42.519701" lon="-0.231147">
        <ele>1439.2</ele>
        <time>2016-06-10T10:16:24Z</time>
      </trkpt>
      <trkpt lat="42.519727" lon="-0.231365">
        <ele>1440.2</ele>
        <time>2016-06-10T10:16:33Z</time>
      </trkpt>
      <trkpt lat="42.519724" lon="-0.231435">
        <ele>1439.7</ele>
        <time>2016-06-10T10:16:36Z</time>
      </trkpt>
      <trkpt lat="42.519744" lon="-0.231732">
        <ele>1437.8</ele>
        <time>2016-06-10T10:16:48Z</time>
      </trkpt>
      <trkpt lat="42.519752" lon="-0.231824">
        <ele>1437.3</ele>
        <time>2016-06-10T10:16:52Z</time>
      </trkpt>
      <trkpt lat="42.519763" lon="-0.232151">
        <ele>1435.9</ele>
        <time>2016-06-10T10:17:06Z</time>
      </trkpt>
      <trkpt lat="42.519767" lon="-0.232344">
        <ele>1436.4</ele>
        <time>2016-06-10T10:17:14Z</time>
      </trkpt>
      <trkpt lat="42.519767" lon="-0.232500">
        <ele>1435.4</ele>
        <time>2016-06-10T10:17:20Z</time>
      </trkpt>
      <trkpt lat="42.519761" lon="-0.232713">
        <ele>1434.9</ele>
        <time>2016-06-10T10:17:29Z</time>
      </trkpt>
      <trkpt lat="42.519682" lon="-0.233178">
        <ele>1429.6</ele>
        <time>2016-06-10T10:17:46Z</time>
      </trkpt>
      <trkpt lat="42.519644" lon="-0.233298">
        <ele>1427.2</ele>
        <time>2016-06-10T10:17:51Z</time>
      </trkpt>
      <trkpt lat="42.519555" lon="-0.233668">
        <ele>1426.3</ele>
        <time>2016-06-10T10:18:06Z</time>
      </trkpt>
      <trkpt lat="42.519505" lon="-0.233799">
        <ele>1426.3</ele>
        <time>2016-06-10T10:18:12Z</time>
      </trkpt>
      <trkpt lat="42.519478" lon="-0.233916">
        <ele>1427.2</ele>
        <time>2016-06-10T10:18:17Z</time>
      </trkpt>
      <trkpt lat="42.519386" lon="-0.234138">
        <ele>1427.2</ele>
        <time>2016-06-10T10:18:28Z</time>
      </trkpt>
      <trkpt lat="42.519334" lon="-0.234253">
        <ele>1429.1</ele>
        <time>2016-06-10T10:18:34Z</time>
      </trkpt>
      <trkpt lat="42.519294" lon="-0.234347">
        <ele>1429.6</ele>
        <time>2016-06-10T10:18:39Z</time>
      </trkpt>
      <trkpt lat="42.519186" lon="-0.234564">
        <ele>1434.4</ele>
        <time>2016-06-10T10:18:51Z</time>
      </trkpt>
      <trkpt lat="42.519074" lon="-0.234814">
        <ele>1442.6</ele>
        <time>2016-06-10T10:19:04Z</time>
      </trkpt>
      <trkpt lat="42.518926" lon="-0.235084">
        <ele>1443.1</ele>
        <time>2016-06-10T10:19:17Z</time>
      </trkpt>
      <trkpt lat="42.518778" lon="-0.235309">
        <ele>1443.1</ele>
        <time>2016-06-10T10:19:29Z</time>
      </trkpt>
      <trkpt lat="42.518665" lon="-0.235578">
        <ele>1443.6</ele>
        <time>2016-06-10T10:19:41Z</time>
      </trkpt>
      <trkpt lat="42.518517" lon="-0.235876">
        <ele>1444.5</ele>
        <time>2016-06-10T10:19:52Z</time>
      </trkpt>
      <trkpt lat="42.518297" lon="-0.236241">
        <ele>1444.0</ele>
        <time>2016-06-10T10:20:05Z</time>
      </trkpt>
      <trkpt lat="42.518138" lon="-0.236516">
        <ele>1442.6</ele>
        <time>2016-06-10T10:20:16Z</time>
      </trkpt>
      <trkpt lat="42.518000" lon="-0.236759">
        <ele>1443.1</ele>
        <time>2016-06-10T10:20:28Z</time>
      </trkpt>
      <trkpt lat="42.517944" lon="-0.236861">
        <ele>1443.1</ele>
        <time>2016-06-10T10:20:32Z</time>
      </trkpt>
      <trkpt lat="42.517740" lon="-0.237125">
        <ele>1443.1</ele>
        <time>2016-06-10T10:20:44Z</time>
      </trkpt>
      <trkpt lat="42.517528" lon="-0.237293">
        <ele>1444.0</ele>
        <time>2016-06-10T10:20:56Z</time>
      </trkpt>
      <trkpt lat="42.517309" lon="-0.237473">
        <ele>1445.0</ele>
        <time>2016-06-10T10:21:08Z</time>
      </trkpt>
      <trkpt lat="42.516849" lon="-0.237760">
        <ele>1442.6</ele>
        <time>2016-06-10T10:21:19Z</time>
      </trkpt>
      <trkpt lat="42.516542" lon="-0.237961">
        <ele>1440.7</ele>
        <time>2016-06-10T10:21:28Z</time>
      </trkpt>
      <trkpt lat="42.516399" lon="-0.238027">
        <ele>1439.2</ele>
        <time>2016-06-10T10:21:37Z</time>
      </trkpt>
      <trkpt lat="42.516359" lon="-0.238065">
        <ele>1438.3</ele>
        <time>2016-06-10T10:22:01Z</time>
      </trkpt>
      <trkpt lat="42.516111" lon="-0.238075">
        <ele>1437.3</ele>
        <time>2016-06-10T10:22:38Z</time>
      </trkpt>
      <trkpt lat="42.515949" lon="-0.238029">
        <ele>1437.3</ele>
        <time>2016-06-10T10:22:42Z</time>
      </trkpt>
      <trkpt lat="42.515872" lon="-0.237994">
        <ele>1436.8</ele>
        <time>2016-06-10T10:22:44Z</time>
      </trkpt>
      <trkpt lat="42.515749" lon="-0.237952">
        <ele>1436.4</ele>
        <time>2016-06-10T10:22:47Z</time>
      </trkpt>
      <trkpt lat="42.515675" lon="-0.237990">
        <ele>1436.4</ele>
        <time>2016-06-10T10:22:49Z</time>
      </trkpt>
      <trkpt lat="42.515636" lon="-0.238046">
        <ele>1435.9</ele>
        <time>2016-06-10T10:22:51Z</time>
      </trkpt>
      <trkpt lat="42.515603" lon="-0.238155">
        <ele>1435.9</ele>
        <time>2016-06-10T10:22:56Z</time>
      </trkpt>
      <trkpt lat="42.515580" lon="-0.238257">
        <ele>1435.9</ele>
        <time>2016-06-10T10:23:01Z</time>
      </trkpt>
      <trkpt lat="42.515486" lon="-0.238510">
        <ele>1435.9</ele>
        <time>2016-06-10T10:23:11Z</time>
      </trkpt>
      <trkpt lat="42.515333" lon="-0.238773">
        <ele>1435.9</ele>
        <time>2016-06-10T10:23:25Z</time>
      </trkpt>
      <trkpt lat="42.515161" lon="-0.238862">
        <ele>1435.9</ele>
        <time>2016-06-10T10:23:37Z</time>
      </trkpt>
      <trkpt lat="42.515077" lon="-0.239297">
        <ele>1429.6</ele>
        <time>2016-06-10T10:23:52Z</time>
      </trkpt>
      <trkpt lat="42.514933" lon="-0.239517">
        <ele>1431.1</ele>
        <time>2016-06-10T10:24:04Z</time>
      </trkpt>
      <trkpt lat="42.514805" lon="-0.239755">
        <ele>1431.5</ele>
        <time>2016-06-10T10:24:14Z</time>
      </trkpt>
      <trkpt lat="42.514710" lon="-0.239883">
        <ele>1432.0</ele>
        <time>2016-06-10T10:24:21Z</time>
      </trkpt>
      <trkpt lat="42.514616" lon="-0.240082">
        <ele>1434.4</ele>
        <time>2016-06-10T10:24:32Z</time>
      </trkpt>
      <trkpt lat="42.514538" lon="-0.240283">
        <ele>1436.8</ele>
        <time>2016-06-10T10:24:42Z</time>
      </trkpt>
      <trkpt lat="42.514396" lon="-0.240549">
        <ele>1436.4</ele>
        <time>2016-06-10T10:24:53Z</time>
      </trkpt>
      <trkpt lat="42.514235" lon="-0.240835">
        <ele>1437.3</ele>
        <time>2016-06-10T10:25:06Z</time>
      </trkpt>
      <trkpt lat="42.514084" lon="-0.240994">
        <ele>1441.6</ele>
        <time>2016-06-10T10:25:18Z</time>
      </trkpt>
      <trkpt lat="42.513903" lon="-0.241140">
        <ele>1443.6</ele>
        <time>2016-06-10T10:25:29Z</time>
      </trkpt>
      <trkpt lat="42.513643" lon="-0.241337">
        <ele>1442.6</ele>
        <time>2016-06-10T10:25:40Z</time>
      </trkpt>
      <trkpt lat="42.513334" lon="-0.241546">
        <ele>1442.6</ele>
        <time>2016-06-10T10:25:56Z</time>
      </trkpt>
      <trkpt lat="42.513146" lon="-0.241637">
        <ele>1442.1</ele>
        <time>2016-06-10T10:26:07Z</time>
      </trkpt>
      <trkpt lat="42.512865" lon="-0.241793">
        <ele>1441.6</ele>
        <time>2016-06-10T10:26:21Z</time>
      </trkpt>
      <trkpt lat="42.512615" lon="-0.241877">
        <ele>1441.2</ele>
        <time>2016-06-10T10:26:34Z</time>
      </trkpt>
      <trkpt lat="42.512467" lon="-0.241907">
        <ele>1441.6</ele>
        <time>2016-06-10T10:26:42Z</time>
      </trkpt>
      <trkpt lat="42.512379" lon="-0.241882">
        <ele>1441.6</ele>
        <time>2016-06-10T10:26:48Z</time>
      </trkpt>
      <trkpt lat="42.512107" lon="-0.242026">
        <ele>1441.6</ele>
        <time>2016-06-10T10:27:04Z</time>
      </trkpt>
      <trkpt lat="42.511938" lon="-0.242171">
        <ele>1445.5</ele>
        <time>2016-06-10T10:27:16Z</time>
      </trkpt>
      <trkpt lat="42.511659" lon="-0.242334">
        <ele>1448.4</ele>
        <time>2016-06-10T10:27:32Z</time>
      </trkpt>
      <trkpt lat="42.511599" lon="-0.242452">
        <ele>1450.3</ele>
        <time>2016-06-10T10:27:39Z</time>
      </trkpt>
      <trkpt lat="42.511517" lon="-0.242548">
        <ele>1449.8</ele>
        <time>2016-06-10T10:27:46Z</time>
      </trkpt>
      <trkpt lat="42.511238" lon="-0.242581">
        <ele>1446.0</ele>
        <time>2016-06-10T10:28:01Z</time>
      </trkpt>
      <trkpt lat="42.511078" lon="-0.242482">
        <ele>1446.9</ele>
        <time>2016-06-10T10:28:13Z</time>
      </trkpt>
      <trkpt lat="42.510955" lon="-0.242388">
        <ele>1446.9</ele>
        <time>2016-06-10T10:28:21Z</time>
      </trkpt>
      <trkpt lat="42.510901" lon="-0.242333">
        <ele>1446.0</ele>
        <time>2016-06-10T10:28:25Z</time>
      </trkpt>
      <trkpt lat="42.510649" lon="-0.242170">
        <ele>1448.8</ele>
        <time>2016-06-10T10:28:42Z</time>
      </trkpt>
      <trkpt lat="42.510502" lon="-0.242043">
        <ele>1449.8</ele>
        <time>2016-06-10T10:28:54Z</time>
      </trkpt>
      <trkpt lat="42.510283" lon="-0.241894">
        <ele>1451.3</ele>
        <time>2016-06-10T10:29:10Z</time>
      </trkpt>
      <trkpt lat="42.510065" lon="-0.241650">
        <ele>1451.3</ele>
        <time>2016-06-10T10:29:27Z</time>
      </trkpt>
      <trkpt lat="42.509950" lon="-0.241562">
        <ele>1451.7</ele>
        <time>2016-06-10T10:29:35Z</time>
      </trkpt>
      <trkpt lat="42.509890" lon="-0.241571">
        <ele>1451.7</ele>
        <time>2016-06-10T10:29:38Z</time>
      </trkpt>
      <trkpt lat="42.509753" lon="-0.241861">
        <ele>1451.7</ele>
        <time>2016-06-10T10:29:53Z</time>
      </trkpt>
      <trkpt lat="42.509726" lon="-0.241973">
        <ele>1451.7</ele>
        <time>2016-06-10T10:29:58Z</time>
      </trkpt>
      <trkpt lat="42.509782" lon="-0.242325">
        <ele>1452.2</ele>
        <time>2016-06-10T10:30:13Z</time>
      </trkpt>
      <trkpt lat="42.509807" lon="-0.242426">
        <ele>1452.2</ele>
        <time>2016-06-10T10:30:18Z</time>
      </trkpt>
      <trkpt lat="42.509875" lon="-0.242693">
        <ele>1452.7</ele>
        <time>2016-06-10T10:30:31Z</time>
      </trkpt>
      <trkpt lat="42.509915" lon="-0.242992">
        <ele>1453.7</ele>
        <time>2016-06-10T10:30:44Z</time>
      </trkpt>
      <trkpt lat="42.510021" lon="-0.243272">
        <ele>1460.4</ele>
        <time>2016-06-10T10:30:51Z</time>
      </trkpt>
      <trkpt lat="42.510032" lon="-0.243434">
        <ele>1462.3</ele>
        <time>2016-06-10T10:30:58Z</time>
      </trkpt>
      <trkpt lat="42.510032" lon="-0.243771">
        <ele>1464.7</ele>
        <time>2016-06-10T10:31:13Z</time>
      </trkpt>
      <trkpt lat="42.510009" lon="-0.243935">
        <ele>1467.6</ele>
        <time>2016-06-10T10:31:26Z</time>
      </trkpt>
      <trkpt lat="42.509967" lon="-0.244014">
        <ele>1468.1</ele>
        <time>2016-06-10T10:31:32Z</time>
      </trkpt>
      <trkpt lat="42.509771" lon="-0.244272">
        <ele>1472.4</ele>
        <time>2016-06-10T10:31:46Z</time>
      </trkpt>
      <trkpt lat="42.509562" lon="-0.244379">
        <ele>1473.4</ele>
        <time>2016-06-10T10:32:01Z</time>
      </trkpt>
      <trkpt lat="42.509344" lon="-0.244444">
        <ele>1473.4</ele>
        <time>2016-06-10T10:32:15Z</time>
      </trkpt>
      <trkpt lat="42.509105" lon="-0.244478">
        <ele>1474.3</ele>
        <time>2016-06-10T10:32:30Z</time>
      </trkpt>
      <trkpt lat="42.508950" lon="-0.244646">
        <ele>1474.3</ele>
        <time>2016-06-10T10:32:44Z</time>
      </trkpt>
      <trkpt lat="42.508883" lon="-0.245019">
        <ele>1474.3</ele>
        <time>2016-06-10T10:33:03Z</time>
      </trkpt>
      <trkpt lat="42.508795" lon="-0.245343">
        <ele>1474.8</ele>
        <time>2016-06-10T10:33:18Z</time>
      </trkpt>
      <trkpt lat="42.508766" lon="-0.245406">
        <ele>1474.8</ele>
        <time>2016-06-10T10:33:22Z</time>
      </trkpt>
      <trkpt lat="42.508653" lon="-0.245516">
        <ele>1476.7</ele>
        <time>2016-06-10T10:33:31Z</time>
      </trkpt>
      <trkpt lat="42.508415" lon="-0.245530">
        <ele>1477.2</ele>
        <time>2016-06-10T10:33:45Z</time>
      </trkpt>
      <trkpt lat="42.508278" lon="-0.245600">
        <ele>1478.2</ele>
        <time>2016-06-10T10:33:55Z</time>
      </trkpt>
      <trkpt lat="42.508342" lon="-0.245799">
        <ele>1478.7</ele>
        <time>2016-06-10T10:34:06Z</time>
      </trkpt>
      <trkpt lat="42.508494" lon="-0.245967">
        <ele>1481.5</ele>
        <time>2016-06-10T10:34:20Z</time>
      </trkpt>
      <trkpt lat="42.508609" lon="-0.246108">
        <ele>1486.3</ele>
        <time>2016-06-10T10:34:32Z</time>
      </trkpt>
      <trkpt lat="42.508835" lon="-0.246233">
        <ele>1497.9</ele>
        <time>2016-06-10T10:34:47Z</time>
      </trkpt>
      <trkpt lat="42.509018" lon="-0.246329">
        <ele>1505.6</ele>
        <time>2016-06-10T10:35:01Z</time>
      </trkpt>
      <trkpt lat="42.509281" lon="-0.246605">
        <ele>1503.2</ele>
        <time>2016-06-10T10:35:17Z</time>
      </trkpt>
      <trkpt lat="42.509480" lon="-0.246849">
        <ele>1496.0</ele>
        <time>2016-06-10T10:35:32Z</time>
      </trkpt>
      <trkpt lat="42.509736" lon="-0.246989">
        <ele>1496.9</ele>
        <time>2016-06-10T10:35:50Z</time>
      </trkpt>
      <trkpt lat="42.509788" lon="-0.247008">
        <ele>1496.9</ele>
        <time>2016-06-10T10:35:53Z</time>
      </trkpt>
      <trkpt lat="42.509933" lon="-0.247204">
        <ele>1494.5</ele>
        <time>2016-06-10T10:36:08Z</time>
      </trkpt>
      <trkpt lat="42.509983" lon="-0.247306">
        <ele>1495.0</ele>
        <time>2016-06-10T10:36:14Z</time>
      </trkpt>
      <trkpt lat="42.510104" lon="-0.247568">
        <ele>1496.4</ele>
        <time>2016-06-10T10:36:31Z</time>
      </trkpt>
      <trkpt lat="42.510198" lon="-0.247762">
        <ele>1497.4</ele>
        <time>2016-06-10T10:36:46Z</time>
      </trkpt>
      <trkpt lat="42.510263" lon="-0.247927">
        <ele>1497.9</ele>
        <time>2016-06-10T10:36:57Z</time>
      </trkpt>
      <trkpt lat="42.510343" lon="-0.248147">
        <ele>1499.3</ele>
        <time>2016-06-10T10:37:11Z</time>
      </trkpt>
      <trkpt lat="42.510363" lon="-0.248246">
        <ele>1501.2</ele>
        <time>2016-06-10T10:37:17Z</time>
      </trkpt>
      <trkpt lat="42.510404" lon="-0.248400">
        <ele>1503.2</ele>
        <time>2016-06-10T10:37:27Z</time>
      </trkpt>
      <trkpt lat="42.510420" lon="-0.248541">
        <ele>1504.6</ele>
        <time>2016-06-10T10:37:34Z</time>
      </trkpt>
      <trkpt lat="42.510439" lon="-0.248652">
        <ele>1504.6</ele>
        <time>2016-06-10T10:37:39Z</time>
      </trkpt>
      <trkpt lat="42.510403" lon="-0.249042">
        <ele>1507.0</ele>
        <time>2016-06-10T10:38:00Z</time>
      </trkpt>
      <trkpt lat="42.510390" lon="-0.249101">
        <ele>1507.0</ele>
        <time>2016-06-10T10:38:03Z</time>
      </trkpt>
      <trkpt lat="42.510394" lon="-0.249185">
        <ele>1507.5</ele>
        <time>2016-06-10T10:38:07Z</time>
      </trkpt>
      <trkpt lat="42.510421" lon="-0.249474">
        <ele>1509.4</ele>
        <time>2016-06-10T10:38:22Z</time>
      </trkpt>
      <trkpt lat="42.510566" lon="-0.249630">
        <ele>1511.3</ele>
        <time>2016-06-10T10:38:37Z</time>
      </trkpt>
      <trkpt lat="42.510712" lon="-0.249656">
        <ele>1513.7</ele>
        <time>2016-06-10T10:38:48Z</time>
      </trkpt>
      <trkpt lat="42.511023" lon="-0.249668">
        <ele>1515.2</ele>
        <time>2016-06-10T10:39:09Z</time>
      </trkpt>
      <trkpt lat="42.511286" lon="-0.249797">
        <ele>1515.7</ele>
        <time>2016-06-10T10:39:26Z</time>
      </trkpt>
      <trkpt lat="42.511557" lon="-0.249989">
        <ele>1515.7</ele>
        <time>2016-06-10T10:39:45Z</time>
      </trkpt>
      <trkpt lat="42.511746" lon="-0.250245">
        <ele>1518.1</ele>
        <time>2016-06-10T10:40:04Z</time>
      </trkpt>
      <trkpt lat="42.511958" lon="-0.250507">
        <ele>1519.0</ele>
        <time>2016-06-10T10:40:22Z</time>
      </trkpt>
      <trkpt lat="42.512134" lon="-0.250705">
        <ele>1521.4</ele>
        <time>2016-06-10T10:40:37Z</time>
      </trkpt>
      <trkpt lat="42.512355" lon="-0.250877">
        <ele>1523.8</ele>
        <time>2016-06-10T10:40:53Z</time>
      </trkpt>
      <trkpt lat="42.512576" lon="-0.251028">
        <ele>1525.8</ele>
        <time>2016-06-10T10:41:09Z</time>
      </trkpt>
      <trkpt lat="42.512761" lon="-0.251130">
        <ele>1527.2</ele>
        <time>2016-06-10T10:41:22Z</time>
      </trkpt>
      <trkpt lat="42.512824" lon="-0.251173">
        <ele>1528.2</ele>
        <time>2016-06-10T10:41:27Z</time>
      </trkpt>
      <trkpt lat="42.513003" lon="-0.251405">
        <ele>1529.6</ele>
        <time>2016-06-10T10:41:44Z</time>
      </trkpt>
      <trkpt lat="42.512995" lon="-0.251527">
        <ele>1528.2</ele>
        <time>2016-06-10T10:41:55Z</time>
      </trkpt>
      <trkpt lat="42.512970" lon="-0.251580">
        <ele>1530.1</ele>
        <time>2016-06-10T10:57:07Z</time>
      </trkpt>
      <trkpt lat="42.512688" lon="-0.251836">
        <ele>1527.7</ele>
        <time>2016-06-10T10:57:21Z</time>
      </trkpt>
      <trkpt lat="42.512375" lon="-0.252214">
        <ele>1524.8</ele>
        <time>2016-06-10T10:57:30Z</time>
      </trkpt>
      <trkpt lat="42.511914" lon="-0.252966">
        <ele>1518.1</ele>
        <time>2016-06-10T10:57:41Z</time>
      </trkpt>
      <trkpt lat="42.511327" lon="-0.254090">
        <ele>1507.5</ele>
        <time>2016-06-10T10:57:52Z</time>
      </trkpt>
      <trkpt lat="42.511191" lon="-0.254447">
        <ele>1505.6</ele>
        <time>2016-06-10T10:57:55Z</time>
      </trkpt>
      <trkpt lat="42.511191" lon="-0.254852">
        <ele>1504.6</ele>
        <time>2016-06-10T10:58:00Z</time>
      </trkpt>
      <trkpt lat="42.511335" lon="-0.255175">
        <ele>1506.0</ele>
        <time>2016-06-10T10:58:11Z</time>
      </trkpt>
      <trkpt lat="42.511396" lon="-0.255487">
        <ele>1508.5</ele>
        <time>2016-06-10T10:58:25Z</time>
      </trkpt>
      <trkpt lat="42.511416" lon="-0.255807">
        <ele>1510.4</ele>
        <time>2016-06-10T10:58:40Z</time>
      </trkpt>
      <trkpt lat="42.511478" lon="-0.256108">
        <ele>1512.3</ele>
        <time>2016-06-10T10:58:55Z</time>
      </trkpt>
      <trkpt lat="42.511505" lon="-0.256505">
        <ele>1514.2</ele>
        <time>2016-06-10T10:59:13Z</time>
      </trkpt>
      <trkpt lat="42.511541" lon="-0.256932">
        <ele>1516.6</ele>
        <time>2016-06-10T10:59:32Z</time>
      </trkpt>
      <trkpt lat="42.511740" lon="-0.257228">
        <ele>1519.0</ele>
        <time>2016-06-10T10:59:50Z</time>
      </trkpt>
      <trkpt lat="42.511959" lon="-0.257456">
        <ele>1520.9</ele>
        <time>2016-06-10T11:00:07Z</time>
      </trkpt>
      <trkpt lat="42.512209" lon="-0.257714">
        <ele>1522.4</ele>
        <time>2016-06-10T11:00:27Z</time>
      </trkpt>
      <trkpt lat="42.512489" lon="-0.257940">
        <ele>1525.3</ele>
        <time>2016-06-10T11:00:48Z</time>
      </trkpt>
      <trkpt lat="42.512693" lon="-0.258259">
        <ele>1527.7</ele>
        <time>2016-06-10T11:01:08Z</time>
      </trkpt>
      <trkpt lat="42.512858" lon="-0.258631">
        <ele>1529.1</ele>
        <time>2016-06-10T11:01:27Z</time>
      </trkpt>
      <trkpt lat="42.512981" lon="-0.259038">
        <ele>1529.1</ele>
        <time>2016-06-10T11:01:43Z</time>
      </trkpt>
      <trkpt lat="42.513143" lon="-0.259277">
        <ele>1528.6</ele>
        <time>2016-06-10T11:01:55Z</time>
      </trkpt>
      <trkpt lat="42.513419" lon="-0.259162">
        <ele>1531.0</ele>
        <time>2016-06-10T11:02:13Z</time>
      </trkpt>
      <trkpt lat="42.513648" lon="-0.258958">
        <ele>1533.4</ele>
        <time>2016-06-10T11:02:30Z</time>
      </trkpt>
      <trkpt lat="42.513726" lon="-0.258871">
        <ele>1533.9</ele>
        <time>2016-06-10T11:02:36Z</time>
      </trkpt>
      <trkpt lat="42.513935" lon="-0.258657">
        <ele>1535.4</ele>
        <time>2016-06-10T11:02:52Z</time>
      </trkpt>
      <trkpt lat="42.514208" lon="-0.258471">
        <ele>1537.3</ele>
        <time>2016-06-10T11:03:10Z</time>
      </trkpt>
      <trkpt lat="42.514454" lon="-0.258577">
        <ele>1538.3</ele>
        <time>2016-06-10T11:03:27Z</time>
      </trkpt>
      <trkpt lat="42.514596" lon="-0.258850">
        <ele>1539.2</ele>
        <time>2016-06-10T11:03:43Z</time>
      </trkpt>
      <trkpt lat="42.514770" lon="-0.259143">
        <ele>1541.1</ele>
        <time>2016-06-10T11:04:01Z</time>
      </trkpt>
      <trkpt lat="42.515027" lon="-0.259410">
        <ele>1544.0</ele>
        <time>2016-06-10T11:04:21Z</time>
      </trkpt>
      <trkpt lat="42.515325" lon="-0.259581">
        <ele>1547.9</ele>
        <time>2016-06-10T11:04:41Z</time>
      </trkpt>
      <trkpt lat="42.515565" lon="-0.259771">
        <ele>1549.3</ele>
        <time>2016-06-10T11:04:58Z</time>
      </trkpt>
      <trkpt lat="42.515738" lon="-0.260062">
        <ele>1551.2</ele>
        <time>2016-06-10T11:05:15Z</time>
      </trkpt>
      <trkpt lat="42.515954" lon="-0.260223">
        <ele>1554.6</ele>
        <time>2016-06-10T11:05:31Z</time>
      </trkpt>
      <trkpt lat="42.516241" lon="-0.260411">
        <ele>1558.9</ele>
        <time>2016-06-10T11:05:52Z</time>
      </trkpt>
      <trkpt lat="42.516455" lon="-0.260619">
        <ele>1560.8</ele>
        <time>2016-06-10T11:06:08Z</time>
      </trkpt>
      <trkpt lat="42.516662" lon="-0.260770">
        <ele>1561.8</ele>
        <time>2016-06-10T11:06:23Z</time>
      </trkpt>
      <trkpt lat="42.516861" lon="-0.261015">
        <ele>1563.7</ele>
        <time>2016-06-10T11:06:40Z</time>
      </trkpt>
      <trkpt lat="42.516990" lon="-0.261318">
        <ele>1566.1</ele>
        <time>2016-06-10T11:06:56Z</time>
      </trkpt>
      <trkpt lat="42.517077" lon="-0.261675">
        <ele>1566.6</ele>
        <time>2016-06-10T11:07:14Z</time>
      </trkpt>
      <trkpt lat="42.517198" lon="-0.261924">
        <ele>1570.0</ele>
        <time>2016-06-10T11:07:28Z</time>
      </trkpt>
      <trkpt lat="42.517342" lon="-0.262162">
        <ele>1571.4</ele>
        <time>2016-06-10T11:07:42Z</time>
      </trkpt>
      <trkpt lat="42.517548" lon="-0.262327">
        <ele>1579.6</ele>
        <time>2016-06-10T11:07:58Z</time>
      </trkpt>
      <trkpt lat="42.517768" lon="-0.262556">
        <ele>1580.5</ele>
        <time>2016-06-10T11:08:13Z</time>
      </trkpt>
      <trkpt lat="42.517947" lon="-0.262854">
        <ele>1577.7</ele>
        <time>2016-06-10T11:08:27Z</time>
      </trkpt>
      <trkpt lat="42.518171" lon="-0.263053">
        <ele>1576.2</ele>
        <time>2016-06-10T11:08:40Z</time>
      </trkpt>
      <trkpt lat="42.518457" lon="-0.263396">
        <ele>1574.8</ele>
        <time>2016-06-10T11:08:55Z</time>
      </trkpt>
      <trkpt lat="42.518865" lon="-0.263657">
        <ele>1576.2</ele>
        <time>2016-06-10T11:09:14Z</time>
      </trkpt>
      <trkpt lat="42.519153" lon="-0.264064">
        <ele>1575.7</ele>
        <time>2016-06-10T11:09:31Z</time>
      </trkpt>
      <trkpt lat="42.519324" lon="-0.264614">
        <ele>1575.3</ele>
        <time>2016-06-10T11:09:48Z</time>
      </trkpt>
      <trkpt lat="42.519479" lon="-0.265142">
        <ele>1575.3</ele>
        <time>2016-06-10T11:10:03Z</time>
      </trkpt>
      <trkpt lat="42.519717" lon="-0.265585">
        <ele>1575.7</ele>
        <time>2016-06-10T11:10:18Z</time>
      </trkpt>
      <trkpt lat="42.520079" lon="-0.265882">
        <ele>1577.2</ele>
        <time>2016-06-10T11:10:33Z</time>
      </trkpt>
      <trkpt lat="42.520387" lon="-0.266226">
        <ele>1576.2</ele>
        <time>2016-06-10T11:10:47Z</time>
      </trkpt>
      <trkpt lat="42.520410" lon="-0.266455">
        <ele>1575.3</ele>
        <time>2016-06-10T11:10:51Z</time>
      </trkpt>
      <trkpt lat="42.520688" lon="-0.266841">
        <ele>1573.8</ele>
        <time>2016-06-10T11:10:59Z</time>
      </trkpt>
      <trkpt lat="42.521119" lon="-0.266996">
        <ele>1574.3</ele>
        <time>2016-06-10T11:11:14Z</time>
      </trkpt>
      <trkpt lat="42.521421" lon="-0.267341">
        <ele>1575.3</ele>
        <time>2016-06-10T11:11:30Z</time>
      </trkpt>
      <trkpt lat="42.521712" lon="-0.267685">
        <ele>1576.2</ele>
        <time>2016-06-10T11:11:45Z</time>
      </trkpt>
      <trkpt lat="42.521960" lon="-0.268142">
        <ele>1576.7</ele>
        <time>2016-06-10T11:12:01Z</time>
      </trkpt>
      <trkpt lat="42.522171" lon="-0.268706">
        <ele>1577.2</ele>
        <time>2016-06-10T11:12:19Z</time>
      </trkpt>
      <trkpt lat="42.522333" lon="-0.269246">
        <ele>1577.2</ele>
        <time>2016-06-10T11:12:36Z</time>
      </trkpt>
      <trkpt lat="42.522430" lon="-0.269844">
        <ele>1577.2</ele>
        <time>2016-06-10T11:12:54Z</time>
      </trkpt>
      <trkpt lat="42.522518" lon="-0.270455">
        <ele>1578.1</ele>
        <time>2016-06-10T11:13:12Z</time>
      </trkpt>
      <trkpt lat="42.522531" lon="-0.271108">
        <ele>1577.2</ele>
        <time>2016-06-10T11:13:30Z</time>
      </trkpt>
      <trkpt lat="42.522652" lon="-0.271539">
        <ele>1578.6</ele>
        <time>2016-06-10T11:13:44Z</time>
      </trkpt>
      <trkpt lat="42.522586" lon="-0.272152">
        <ele>1577.2</ele>
        <time>2016-06-10T11:14:00Z</time>
      </trkpt>
      <trkpt lat="42.522660" lon="-0.272280">
        <ele>1577.7</ele>
        <time>2016-06-10T11:14:06Z</time>
      </trkpt>
      <trkpt lat="42.523005" lon="-0.272298">
        <ele>1578.1</ele>
        <time>2016-06-10T11:14:22Z</time>
      </trkpt>
      <trkpt lat="42.523282" lon="-0.272309">
        <ele>1580.1</ele>
        <time>2016-06-10T11:14:37Z</time>
      </trkpt>
      <trkpt lat="42.523618" lon="-0.272325">
        <ele>1582.0</ele>
        <time>2016-06-10T11:14:57Z</time>
      </trkpt>
      <trkpt lat="42.523950" lon="-0.272335">
        <ele>1583.9</ele>
        <time>2016-06-10T11:15:17Z</time>
      </trkpt>
      <trkpt lat="42.524249" lon="-0.272375">
        <ele>1587.3</ele>
        <time>2016-06-10T11:15:36Z</time>
      </trkpt>
      <trkpt lat="42.524515" lon="-0.272622">
        <ele>1589.2</ele>
        <time>2016-06-10T11:15:56Z</time>
      </trkpt>
      <trkpt lat="42.524721" lon="-0.272756">
        <ele>1591.1</ele>
        <time>2016-06-10T11:16:11Z</time>
      </trkpt>
      <trkpt lat="42.524956" lon="-0.272829">
        <ele>1594.0</ele>
        <time>2016-06-10T11:16:27Z</time>
      </trkpt>
      <trkpt lat="42.524998" lon="-0.273093">
        <ele>1594.5</ele>
        <time>2016-06-10T11:16:40Z</time>
      </trkpt>
      <trkpt lat="42.525097" lon="-0.273385">
        <ele>1595.9</ele>
        <time>2016-06-10T11:16:55Z</time>
      </trkpt>
      <trkpt lat="42.525294" lon="-0.273553">
        <ele>1599.3</ele>
        <time>2016-06-10T11:17:12Z</time>
      </trkpt>
      <trkpt lat="42.525373" lon="-0.273623">
        <ele>1600.7</ele>
        <time>2016-06-10T11:17:20Z</time>
      </trkpt>
      <trkpt lat="42.525451" lon="-0.273686">
        <ele>1602.2</ele>
        <time>2016-06-10T11:17:27Z</time>
      </trkpt>
      <trkpt lat="42.525667" lon="-0.273786">
        <ele>1605.5</ele>
        <time>2016-06-10T11:17:44Z</time>
      </trkpt>
      <trkpt lat="42.525875" lon="-0.273808">
        <ele>1606.0</ele>
        <time>2016-06-10T11:17:59Z</time>
      </trkpt>
      <trkpt lat="42.526102" lon="-0.273759">
        <ele>1608.4</ele>
        <time>2016-06-10T11:18:16Z</time>
      </trkpt>
      <trkpt lat="42.526217" lon="-0.273528">
        <ele>1610.8</ele>
        <time>2016-06-10T11:18:29Z</time>
      </trkpt>
      <trkpt lat="42.526252" lon="-0.273138">
        <ele>1612.8</ele>
        <time>2016-06-10T11:18:48Z</time>
      </trkpt>
      <trkpt lat="42.526221" lon="-0.273060">
        <ele>1613.2</ele>
        <time>2016-06-10T11:18:52Z</time>
      </trkpt>
      <trkpt lat="42.526067" lon="-0.272813">
        <ele>1614.7</ele>
        <time>2016-06-10T11:19:08Z</time>
      </trkpt>
      <trkpt lat="42.526012" lon="-0.272739">
        <ele>1615.6</ele>
        <time>2016-06-10T11:19:14Z</time>
      </trkpt>
      <trkpt lat="42.525980" lon="-0.272689">
        <ele>1616.1</ele>
        <time>2016-06-10T11:19:18Z</time>
      </trkpt>
      <trkpt lat="42.525883" lon="-0.272359">
        <ele>1620.9</ele>
        <time>2016-06-10T11:19:39Z</time>
      </trkpt>
      <trkpt lat="42.525856" lon="-0.272102">
        <ele>1621.4</ele>
        <time>2016-06-10T11:19:52Z</time>
      </trkpt>
      <trkpt lat="42.525824" lon="-0.272025">
        <ele>1621.9</ele>
        <time>2016-06-10T11:19:56Z</time>
      </trkpt>
      <trkpt lat="42.525664" lon="-0.271686">
        <ele>1622.8</ele>
        <time>2016-06-10T11:20:14Z</time>
      </trkpt>
      <trkpt lat="42.525583" lon="-0.271209">
        <ele>1623.3</ele>
        <time>2016-06-10T11:20:30Z</time>
      </trkpt>
      <trkpt lat="42.525600" lon="-0.270890">
        <ele>1625.3</ele>
        <time>2016-06-10T11:20:45Z</time>
      </trkpt>
      <trkpt lat="42.525674" lon="-0.270610">
        <ele>1626.7</ele>
        <time>2016-06-10T11:20:59Z</time>
      </trkpt>
      <trkpt lat="42.525765" lon="-0.270273">
        <ele>1628.6</ele>
        <time>2016-06-10T11:21:15Z</time>
      </trkpt>
      <trkpt lat="42.525652" lon="-0.270002">
        <ele>1628.6</ele>
        <time>2016-06-10T11:21:30Z</time>
      </trkpt>
      <trkpt lat="42.525536" lon="-0.269653">
        <ele>1630.1</ele>
        <time>2016-06-10T11:21:47Z</time>
      </trkpt>
      <trkpt lat="42.525482" lon="-0.269321">
        <ele>1632.5</ele>
        <time>2016-06-10T11:22:04Z</time>
      </trkpt>
      <trkpt lat="42.525485" lon="-0.269239">
        <ele>1632.9</ele>
        <time>2016-06-10T11:22:08Z</time>
      </trkpt>
      <trkpt lat="42.525480" lon="-0.269040">
        <ele>1635.3</ele>
        <time>2016-06-10T11:22:19Z</time>
      </trkpt>
      <trkpt lat="42.525454" lon="-0.268950">
        <ele>1635.8</ele>
        <time>2016-06-10T11:22:24Z</time>
      </trkpt>
      <trkpt lat="42.525472" lon="-0.268598">
        <ele>1637.7</ele>
        <time>2016-06-10T11:22:41Z</time>
      </trkpt>
      <trkpt lat="42.525625" lon="-0.268318">
        <ele>1640.6</ele>
        <time>2016-06-10T11:22:58Z</time>
      </trkpt>
      <trkpt lat="42.525740" lon="-0.268029">
        <ele>1642.6</ele>
        <time>2016-06-10T11:23:14Z</time>
      </trkpt>
      <trkpt lat="42.525795" lon="-0.267660">
        <ele>1645.4</ele>
        <time>2016-06-10T11:23:31Z</time>
      </trkpt>
      <trkpt lat="42.525856" lon="-0.267391">
        <ele>1645.4</ele>
        <time>2016-06-10T11:23:43Z</time>
      </trkpt>
      <trkpt lat="42.525892" lon="-0.267081">
        <ele>1646.9</ele>
        <time>2016-06-10T11:23:57Z</time>
      </trkpt>
      <trkpt lat="42.525933" lon="-0.266710">
        <ele>1648.3</ele>
        <time>2016-06-10T11:24:15Z</time>
      </trkpt>
      <trkpt lat="42.526014" lon="-0.266343">
        <ele>1650.2</ele>
        <time>2016-06-10T11:24:32Z</time>
      </trkpt>
      <trkpt lat="42.526059" lon="-0.265967">
        <ele>1653.1</ele>
        <time>2016-06-10T11:24:50Z</time>
      </trkpt>
      <trkpt lat="42.526083" lon="-0.265557">
        <ele>1654.6</ele>
        <time>2016-06-10T11:25:09Z</time>
      </trkpt>
      <trkpt lat="42.526053" lon="-0.265191">
        <ele>1655.1</ele>
        <time>2016-06-10T11:25:23Z</time>
      </trkpt>
      <trkpt lat="42.526091" lon="-0.264754">
        <ele>1655.5</ele>
        <time>2016-06-10T11:25:39Z</time>
      </trkpt>
      <trkpt lat="42.526109" lon="-0.264475">
        <ele>1657.5</ele>
        <time>2016-06-10T11:25:53Z</time>
      </trkpt>
      <trkpt lat="42.526026" lon="-0.264088">
        <ele>1658.9</ele>
        <time>2016-06-10T11:26:12Z</time>
      </trkpt>
      <trkpt lat="42.525928" lon="-0.263676">
        <ele>1660.8</ele>
        <time>2016-06-10T11:26:33Z</time>
      </trkpt>
      <trkpt lat="42.525843" lon="-0.263303">
        <ele>1663.7</ele>
        <time>2016-06-10T11:26:52Z</time>
      </trkpt>
      <trkpt lat="42.525817" lon="-0.262988">
        <ele>1667.5</ele>
        <time>2016-06-10T11:27:10Z</time>
      </trkpt>
      <trkpt lat="42.525781" lon="-0.262719">
        <ele>1669.5</ele>
        <time>2016-06-10T11:27:24Z</time>
      </trkpt>
      <trkpt lat="42.525566" lon="-0.262401">
        <ele>1669.5</ele>
        <time>2016-06-10T11:27:44Z</time>
      </trkpt>
      <trkpt lat="42.525452" lon="-0.262028">
        <ele>1670.9</ele>
        <time>2016-06-10T11:28:02Z</time>
      </trkpt>
      <trkpt lat="42.525392" lon="-0.261758">
        <ele>1672.8</ele>
        <time>2016-06-10T11:28:16Z</time>
      </trkpt>
      <trkpt lat="42.525329" lon="-0.261457">
        <ele>1674.8</ele>
        <time>2016-06-10T11:28:31Z</time>
      </trkpt>
      <trkpt lat="42.525258" lon="-0.261300">
        <ele>1675.2</ele>
        <time>2016-06-10T11:28:40Z</time>
      </trkpt>
      <trkpt lat="42.525199" lon="-0.260933">
        <ele>1677.6</ele>
        <time>2016-06-10T11:28:58Z</time>
      </trkpt>
      <trkpt lat="42.525209" lon="-0.260613">
        <ele>1679.1</ele>
        <time>2016-06-10T11:29:13Z</time>
      </trkpt>
      <trkpt lat="42.525267" lon="-0.260369">
        <ele>1681.0</ele>
        <time>2016-06-10T11:29:26Z</time>
      </trkpt>
      <trkpt lat="42.525461" lon="-0.260483">
        <ele>1683.9</ele>
        <time>2016-06-10T11:29:43Z</time>
      </trkpt>
      <trkpt lat="42.525542" lon="-0.260656">
        <ele>1686.3</ele>
        <time>2016-06-10T11:30:00Z</time>
      </trkpt>
      <trkpt lat="42.525612" lon="-0.260778">
        <ele>1687.7</ele>
        <time>2016-06-10T11:30:16Z</time>
      </trkpt>
      <trkpt lat="42.525681" lon="-0.260996">
        <ele>1689.7</ele>
        <time>2016-06-10T11:30:32Z</time>
      </trkpt>
      <trkpt lat="42.525811" lon="-0.261189">
        <ele>1692.1</ele>
        <time>2016-06-10T11:30:50Z</time>
      </trkpt>
      <trkpt lat="42.525943" lon="-0.261348">
        <ele>1694.0</ele>
        <time>2016-06-10T11:31:08Z</time>
      </trkpt>
      <trkpt lat="42.526110" lon="-0.261478">
        <ele>1695.9</ele>
        <time>2016-06-10T11:31:28Z</time>
      </trkpt>
      <trkpt lat="42.526244" lon="-0.261591">
        <ele>1698.3</ele>
        <time>2016-06-10T11:31:47Z</time>
      </trkpt>
      <trkpt lat="42.526364" lon="-0.261695">
        <ele>1701.2</ele>
        <time>2016-06-10T11:32:05Z</time>
      </trkpt>
      <trkpt lat="42.526473" lon="-0.261794">
        <ele>1704.1</ele>
        <time>2016-06-10T11:32:23Z</time>
      </trkpt>
      <trkpt lat="42.526578" lon="-0.261910">
        <ele>1706.5</ele>
        <time>2016-06-10T11:32:40Z</time>
      </trkpt>
      <trkpt lat="42.526670" lon="-0.262059">
        <ele>1709.4</ele>
        <time>2016-06-10T11:32:58Z</time>
      </trkpt>
      <trkpt lat="42.526817" lon="-0.262110">
        <ele>1713.2</ele>
        <time>2016-06-10T11:33:18Z</time>
      </trkpt>
      <trkpt lat="42.526901" lon="-0.262101">
        <ele>1714.2</ele>
        <time>2016-06-10T11:33:29Z</time>
      </trkpt>
      <trkpt lat="42.527069" lon="-0.262126">
        <ele>1716.6</ele>
        <time>2016-06-10T11:33:49Z</time>
      </trkpt>
      <trkpt lat="42.527116" lon="-0.262171">
        <ele>1717.5</ele>
        <time>2016-06-10T11:33:56Z</time>
      </trkpt>
      <trkpt lat="42.527164" lon="-0.262399">
        <ele>1719.9</ele>
        <time>2016-06-10T11:34:15Z</time>
      </trkpt>
      <trkpt lat="42.527265" lon="-0.262621">
        <ele>1722.3</ele>
        <time>2016-06-10T11:34:34Z</time>
      </trkpt>
      <trkpt lat="42.527362" lon="-0.262838">
        <ele>1723.3</ele>
        <time>2016-06-10T11:34:52Z</time>
      </trkpt>
      <trkpt lat="42.527443" lon="-0.263069">
        <ele>1726.2</ele>
        <time>2016-06-10T11:35:11Z</time>
      </trkpt>
      <trkpt lat="42.527533" lon="-0.263307">
        <ele>1727.6</ele>
        <time>2016-06-10T11:35:30Z</time>
      </trkpt>
      <trkpt lat="42.527632" lon="-0.263533">
        <ele>1730.0</ele>
        <time>2016-06-10T11:35:48Z</time>
      </trkpt>
      <trkpt lat="42.527754" lon="-0.263785">
        <ele>1732.4</ele>
        <time>2016-06-10T11:36:09Z</time>
      </trkpt>
      <trkpt lat="42.527826" lon="-0.263998">
        <ele>1733.4</ele>
        <time>2016-06-10T11:36:26Z</time>
      </trkpt>
      <trkpt lat="42.527939" lon="-0.264174">
        <ele>1734.8</ele>
        <time>2016-06-10T11:36:43Z</time>
      </trkpt>
      <trkpt lat="42.528041" lon="-0.264346">
        <ele>1736.8</ele>
        <time>2016-06-10T11:37:01Z</time>
      </trkpt>
      <trkpt lat="42.528102" lon="-0.264501">
        <ele>1737.2</ele>
        <time>2016-06-10T11:37:14Z</time>
      </trkpt>
      <trkpt lat="42.528201" lon="-0.264624">
        <ele>1738.7</ele>
        <time>2016-06-10T11:37:32Z</time>
      </trkpt>
      <trkpt lat="42.528149" lon="-0.264394">
        <ele>1740.6</ele>
        <time>2016-06-10T11:37:51Z</time>
      </trkpt>
      <trkpt lat="42.528071" lon="-0.264143">
        <ele>1742.5</ele>
        <time>2016-06-10T11:38:10Z</time>
      </trkpt>
      <trkpt lat="42.528013" lon="-0.263871">
        <ele>1743.0</ele>
        <time>2016-06-10T11:38:28Z</time>
      </trkpt>
      <trkpt lat="42.527951" lon="-0.263619">
        <ele>1744.9</ele>
        <time>2016-06-10T11:38:46Z</time>
      </trkpt>
      <trkpt lat="42.527906" lon="-0.263377">
        <ele>1745.9</ele>
        <time>2016-06-10T11:39:03Z</time>
      </trkpt>
      <trkpt lat="42.527943" lon="-0.263138">
        <ele>1746.9</ele>
        <time>2016-06-10T11:39:21Z</time>
      </trkpt>
      <trkpt lat="42.528057" lon="-0.262961">
        <ele>1747.3</ele>
        <time>2016-06-10T11:39:39Z</time>
      </trkpt>
      <trkpt lat="42.528198" lon="-0.262827">
        <ele>1748.3</ele>
        <time>2016-06-10T11:39:58Z</time>
      </trkpt>
      <trkpt lat="42.528356" lon="-0.262662">
        <ele>1748.8</ele>
        <time>2016-06-10T11:40:16Z</time>
      </trkpt>
      <trkpt lat="42.528501" lon="-0.262480">
        <ele>1750.7</ele>
        <time>2016-06-10T11:40:34Z</time>
      </trkpt>
      <trkpt lat="42.528585" lon="-0.262167">
        <ele>1750.7</ele>
        <time>2016-06-10T11:40:55Z</time>
      </trkpt>
      <trkpt lat="42.528703" lon="-0.261970">
        <ele>1752.1</ele>
        <time>2016-06-10T11:41:13Z</time>
      </trkpt>
      <trkpt lat="42.528866" lon="-0.261907">
        <ele>1754.1</ele>
        <time>2016-06-10T11:41:32Z</time>
      </trkpt>
      <trkpt lat="42.529004" lon="-0.261853">
        <ele>1756.5</ele>
        <time>2016-06-10T11:41:50Z</time>
      </trkpt>
      <trkpt lat="42.529148" lon="-0.261779">
        <ele>1758.9</ele>
        <time>2016-06-10T11:42:08Z</time>
      </trkpt>
      <trkpt lat="42.529327" lon="-0.261726">
        <ele>1759.8</ele>
        <time>2016-06-10T11:42:26Z</time>
      </trkpt>
      <trkpt lat="42.529523" lon="-0.261672">
        <ele>1760.8</ele>
        <time>2016-06-10T11:42:45Z</time>
      </trkpt>
      <trkpt lat="42.529771" lon="-0.261639">
        <ele>1761.3</ele>
        <time>2016-06-10T11:43:06Z</time>
      </trkpt>
      <trkpt lat="42.530032" lon="-0.261613">
        <ele>1761.8</ele>
        <time>2016-06-10T11:43:28Z</time>
      </trkpt>
      <trkpt lat="42.530090" lon="-0.261610">
        <ele>1763.2</ele>
        <time>2016-06-10T11:43:34Z</time>
      </trkpt>
      <trkpt lat="42.530154" lon="-0.261562">
        <ele>1763.7</ele>
        <time>2016-06-10T11:43:42Z</time>
      </trkpt>
      <trkpt lat="42.530321" lon="-0.261402">
        <ele>1766.1</ele>
        <time>2016-06-10T11:44:02Z</time>
      </trkpt>
      <trkpt lat="42.530474" lon="-0.261351">
        <ele>1768.5</ele>
        <time>2016-06-10T11:44:22Z</time>
      </trkpt>
      <trkpt lat="42.530615" lon="-0.261267">
        <ele>1770.9</ele>
        <time>2016-06-10T11:44:40Z</time>
      </trkpt>
      <trkpt lat="42.530780" lon="-0.261176">
        <ele>1772.8</ele>
        <time>2016-06-10T11:44:57Z</time>
      </trkpt>
      <trkpt lat="42.530939" lon="-0.261027">
        <ele>1772.3</ele>
        <time>2016-06-10T11:45:13Z</time>
      </trkpt>
      <trkpt lat="42.531147" lon="-0.261110">
        <ele>1773.3</ele>
        <time>2016-06-10T11:45:32Z</time>
      </trkpt>
      <trkpt lat="42.531320" lon="-0.261242">
        <ele>1774.3</ele>
        <time>2016-06-10T11:45:49Z</time>
      </trkpt>
      <trkpt lat="42.531439" lon="-0.261361">
        <ele>1776.2</ele>
        <time>2016-06-10T11:46:07Z</time>
      </trkpt>
      <trkpt lat="42.531540" lon="-0.261450">
        <ele>1775.2</ele>
        <time>2016-06-10T11:46:28Z</time>
      </trkpt>
      <trkpt lat="42.531726" lon="-0.261702">
        <ele>1773.8</ele>
        <time>2016-06-10T11:46:40Z</time>
      </trkpt>
      <trkpt lat="42.531834" lon="-0.261949">
        <ele>1773.8</ele>
        <time>2016-06-10T11:46:53Z</time>
      </trkpt>
      <trkpt lat="42.531924" lon="-0.262232">
        <ele>1773.3</ele>
        <time>2016-06-10T11:47:05Z</time>
      </trkpt>
      <trkpt lat="42.532050" lon="-0.262540">
        <ele>1773.3</ele>
        <time>2016-06-10T11:47:17Z</time>
      </trkpt>
      <trkpt lat="42.532346" lon="-0.262919">
        <ele>1772.8</ele>
        <time>2016-06-10T11:47:29Z</time>
      </trkpt>
      <trkpt lat="42.532713" lon="-0.263268">
        <ele>1771.4</ele>
        <time>2016-06-10T11:47:42Z</time>
      </trkpt>
      <trkpt lat="42.533079" lon="-0.263535">
        <ele>1768.0</ele>
        <time>2016-06-10T11:47:55Z</time>
      </trkpt>
      <trkpt lat="42.533459" lon="-0.263774">
        <ele>1767.5</ele>
        <time>2016-06-10T11:48:11Z</time>
      </trkpt>
      <trkpt lat="42.533860" lon="-0.263924">
        <ele>1767.5</ele>
        <time>2016-06-10T11:48:26Z</time>
      </trkpt>
      <trkpt lat="42.534168" lon="-0.264022">
        <ele>1767.0</ele>
        <time>2016-06-10T11:48:39Z</time>
      </trkpt>
      <trkpt lat="42.534411" lon="-0.264073">
        <ele>1766.1</ele>
        <time>2016-06-10T11:48:50Z</time>
      </trkpt>
      <trkpt lat="42.534710" lon="-0.264039">
        <ele>1766.1</ele>
        <time>2016-06-10T11:49:03Z</time>
      </trkpt>
      <trkpt lat="42.535058" lon="-0.263865">
        <ele>1765.6</ele>
        <time>2016-06-10T11:49:18Z</time>
      </trkpt>
      <trkpt lat="42.535147" lon="-0.263783">
        <ele>1766.6</ele>
        <time>2016-06-10T11:49:24Z</time>
      </trkpt>
      <trkpt lat="42.535446" lon="-0.263723">
        <ele>1767.0</ele>
        <time>2016-06-10T11:49:41Z</time>
      </trkpt>
      <trkpt lat="42.535705" lon="-0.263920">
        <ele>1767.0</ele>
        <time>2016-06-10T11:49:55Z</time>
      </trkpt>
      <trkpt lat="42.536072" lon="-0.264310">
        <ele>1764.2</ele>
        <time>2016-06-10T11:50:09Z</time>
      </trkpt>
      <trkpt lat="42.536268" lon="-0.264413">
        <ele>1762.7</ele>
        <time>2016-06-10T11:50:14Z</time>
      </trkpt>
      <trkpt lat="42.536348" lon="-0.264473">
        <ele>1762.2</ele>
        <time>2016-06-10T11:50:16Z</time>
      </trkpt>
      <trkpt lat="42.536566" lon="-0.264585">
        <ele>1760.8</ele>
        <time>2016-06-10T11:50:21Z</time>
      </trkpt>
      <trkpt lat="42.536772" lon="-0.264650">
        <ele>1761.8</ele>
        <time>2016-06-10T11:50:30Z</time>
      </trkpt>
      <trkpt lat="42.536914" lon="-0.264626">
        <ele>1761.8</ele>
        <time>2016-06-10T11:50:38Z</time>
      </trkpt>
      <trkpt lat="42.537221" lon="-0.264377">
        <ele>1760.3</ele>
        <time>2016-06-10T11:50:54Z</time>
      </trkpt>
      <trkpt lat="42.537511" lon="-0.264218">
        <ele>1757.9</ele>
        <time>2016-06-10T11:51:05Z</time>
      </trkpt>
      <trkpt lat="42.537768" lon="-0.264149">
        <ele>1756.5</ele>
        <time>2016-06-10T11:51:17Z</time>
      </trkpt>
      <trkpt lat="42.537826" lon="-0.264119">
        <ele>1756.0</ele>
        <time>2016-06-10T11:51:20Z</time>
      </trkpt>
      <trkpt lat="42.538057" lon="-0.264045">
        <ele>1757.4</ele>
        <time>2016-06-10T11:51:35Z</time>
      </trkpt>
      <trkpt lat="42.538352" lon="-0.264089">
        <ele>1757.9</ele>
        <time>2016-06-10T11:51:51Z</time>
      </trkpt>
      <trkpt lat="42.538594" lon="-0.264243">
        <ele>1758.9</ele>
        <time>2016-06-10T11:52:06Z</time>
      </trkpt>
      <trkpt lat="42.538817" lon="-0.264424">
        <ele>1760.3</ele>
        <time>2016-06-10T11:52:21Z</time>
      </trkpt>
      <trkpt lat="42.539086" lon="-0.264601">
        <ele>1761.3</ele>
        <time>2016-06-10T11:52:39Z</time>
      </trkpt>
      <trkpt lat="42.539295" lon="-0.264768">
        <ele>1761.8</ele>
        <time>2016-06-10T11:52:53Z</time>
      </trkpt>
      <trkpt lat="42.539367" lon="-0.264831">
        <ele>1762.2</ele>
        <time>2016-06-10T11:52:58Z</time>
      </trkpt>
      <trkpt lat="42.539599" lon="-0.265007">
        <ele>1761.8</ele>
        <time>2016-06-10T11:53:13Z</time>
      </trkpt>
      <trkpt lat="42.539822" lon="-0.265181">
        <ele>1762.2</ele>
        <time>2016-06-10T11:53:29Z</time>
      </trkpt>
      <trkpt lat="42.540049" lon="-0.265290">
        <ele>1763.7</ele>
        <time>2016-06-10T11:53:44Z</time>
      </trkpt>
      <trkpt lat="42.540285" lon="-0.265416">
        <ele>1763.7</ele>
        <time>2016-06-10T11:53:58Z</time>
      </trkpt>
      <trkpt lat="42.540504" lon="-0.265491">
        <ele>1764.6</ele>
        <time>2016-06-10T11:54:12Z</time>
      </trkpt>
      <trkpt lat="42.540727" lon="-0.265580">
        <ele>1766.1</ele>
        <time>2016-06-10T11:54:27Z</time>
      </trkpt>
      <trkpt lat="42.540910" lon="-0.265593">
        <ele>1767.5</ele>
        <time>2016-06-10T11:54:40Z</time>
      </trkpt>
      <trkpt lat="42.541165" lon="-0.265478">
        <ele>1767.5</ele>
        <time>2016-06-10T11:54:55Z</time>
      </trkpt>
      <trkpt lat="42.541397" lon="-0.265191">
        <ele>1767.0</ele>
        <time>2016-06-10T11:55:09Z</time>
      </trkpt>
      <trkpt lat="42.541729" lon="-0.264896">
        <ele>1764.2</ele>
        <time>2016-06-10T11:55:24Z</time>
      </trkpt>
      <trkpt lat="42.542061" lon="-0.264777">
        <ele>1761.3</ele>
        <time>2016-06-10T11:55:35Z</time>
      </trkpt>
      <trkpt lat="42.542240" lon="-0.264662">
        <ele>1759.4</ele>
        <time>2016-06-10T11:55:42Z</time>
      </trkpt>
      <trkpt lat="42.542329" lon="-0.264467">
        <ele>1757.9</ele>
        <time>2016-06-10T11:55:50Z</time>
      </trkpt>
      <trkpt lat="42.542548" lon="-0.264144">
        <ele>1753.1</ele>
        <time>2016-06-10T11:56:02Z</time>
      </trkpt>
      <trkpt lat="42.542670" lon="-0.263856">
        <ele>1750.2</ele>
        <time>2016-06-10T11:56:14Z</time>
      </trkpt>
      <trkpt lat="42.542842" lon="-0.263387">
        <ele>1745.9</ele>
        <time>2016-06-10T11:56:29Z</time>
      </trkpt>
      <trkpt lat="42.542983" lon="-0.263114">
        <ele>1744.5</ele>
        <time>2016-06-10T11:56:41Z</time>
      </trkpt>
      <trkpt lat="42.543145" lon="-0.263102">
        <ele>1744.0</ele>
        <time>2016-06-10T11:56:52Z</time>
      </trkpt>
      <trkpt lat="42.543365" lon="-0.263343">
        <ele>1743.5</ele>
        <time>2016-06-10T11:57:06Z</time>
      </trkpt>
      <trkpt lat="42.543610" lon="-0.263653">
        <ele>1742.5</ele>
        <time>2016-06-10T11:57:22Z</time>
      </trkpt>
      <trkpt lat="42.543775" lon="-0.263937">
        <ele>1743.5</ele>
        <time>2016-06-10T11:57:36Z</time>
      </trkpt>
      <trkpt lat="42.543847" lon="-0.264255">
        <ele>1744.0</ele>
        <time>2016-06-10T11:57:50Z</time>
      </trkpt>
      <trkpt lat="42.543927" lon="-0.264584">
        <ele>1744.9</ele>
        <time>2016-06-10T11:58:05Z</time>
      </trkpt>
      <trkpt lat="42.543962" lon="-0.264880">
        <ele>1745.4</ele>
        <time>2016-06-10T11:58:19Z</time>
      </trkpt>
      <trkpt lat="42.544011" lon="-0.265286">
        <ele>1745.9</ele>
        <time>2016-06-10T11:58:36Z</time>
      </trkpt>
      <trkpt lat="42.544146" lon="-0.265610">
        <ele>1747.8</ele>
        <time>2016-06-10T11:58:51Z</time>
      </trkpt>
      <trkpt lat="42.544273" lon="-0.265890">
        <ele>1747.3</ele>
        <time>2016-06-10T11:59:06Z</time>
      </trkpt>
      <trkpt lat="42.544388" lon="-0.266146">
        <ele>1749.7</ele>
        <time>2016-06-10T11:59:20Z</time>
      </trkpt>
      <trkpt lat="42.544489" lon="-0.266416">
        <ele>1749.3</ele>
        <time>2016-06-10T11:59:34Z</time>
      </trkpt>
      <trkpt lat="42.544605" lon="-0.266632">
        <ele>1750.7</ele>
        <time>2016-06-10T11:59:47Z</time>
      </trkpt>
      <trkpt lat="42.544760" lon="-0.266839">
        <ele>1750.7</ele>
        <time>2016-06-10T12:00:01Z</time>
      </trkpt>
      <trkpt lat="42.544920" lon="-0.267098">
        <ele>1751.2</ele>
        <time>2016-06-10T12:00:16Z</time>
      </trkpt>
      <trkpt lat="42.545082" lon="-0.267312">
        <ele>1751.7</ele>
        <time>2016-06-10T12:00:30Z</time>
      </trkpt>
      <trkpt lat="42.545274" lon="-0.267517">
        <ele>1751.7</ele>
        <time>2016-06-10T12:00:44Z</time>
      </trkpt>
      <trkpt lat="42.545479" lon="-0.267646">
        <ele>1752.1</ele>
        <time>2016-06-10T12:00:58Z</time>
      </trkpt>
      <trkpt lat="42.545677" lon="-0.267705">
        <ele>1752.1</ele>
        <time>2016-06-10T12:01:11Z</time>
      </trkpt>
      <trkpt lat="42.545966" lon="-0.267786">
        <ele>1753.1</ele>
        <time>2016-06-10T12:01:28Z</time>
      </trkpt>
      <trkpt lat="42.546181" lon="-0.267846">
        <ele>1753.6</ele>
        <time>2016-06-10T12:01:42Z</time>
      </trkpt>
      <trkpt lat="42.546416" lon="-0.267909">
        <ele>1753.1</ele>
        <time>2016-06-10T12:01:56Z</time>
      </trkpt>
      <trkpt lat="42.546620" lon="-0.267982">
        <ele>1753.1</ele>
        <time>2016-06-10T12:02:10Z</time>
      </trkpt>
      <trkpt lat="42.546810" lon="-0.268038">
        <ele>1754.1</ele>
        <time>2016-06-10T12:02:23Z</time>
      </trkpt>
      <trkpt lat="42.547081" lon="-0.268070">
        <ele>1755.0</ele>
        <time>2016-06-10T12:02:40Z</time>
      </trkpt>
      <trkpt lat="42.547187" lon="-0.268137">
        <ele>1755.0</ele>
        <time>2016-06-10T12:02:54Z</time>
      </trkpt>
      <trkpt lat="42.547233" lon="-0.268578">
        <ele>1753.1</ele>
        <time>2016-06-10T12:03:32Z</time>
      </trkpt>
      <trkpt lat="42.547219" lon="-0.268953">
        <ele>1752.1</ele>
        <time>2016-06-10T12:03:45Z</time>
      </trkpt>
      <trkpt lat="42.547170" lon="-0.269122">
        <ele>1752.1</ele>
        <time>2016-06-10T12:03:52Z</time>
      </trkpt>
      <trkpt lat="42.547103" lon="-0.269413">
        <ele>1751.2</ele>
        <time>2016-06-10T12:04:03Z</time>
      </trkpt>
      <trkpt lat="42.547063" lon="-0.269621">
        <ele>1749.7</ele>
        <time>2016-06-10T12:04:12Z</time>
      </trkpt>
      <trkpt lat="42.547137" lon="-0.269679">
        <ele>1747.8</ele>
        <time>2016-06-10T12:04:17Z</time>
      </trkpt>
      <trkpt lat="42.547342" lon="-0.269442">
        <ele>1743.0</ele>
        <time>2016-06-10T12:04:29Z</time>
      </trkpt>
      <trkpt lat="42.547639" lon="-0.269036">
        <ele>1739.6</ele>
        <time>2016-06-10T12:04:42Z</time>
      </trkpt>
      <trkpt lat="42.547864" lon="-0.268620">
        <ele>1736.3</ele>
        <time>2016-06-10T12:04:56Z</time>
      </trkpt>
      <trkpt lat="42.548081" lon="-0.268176">
        <ele>1732.9</ele>
        <time>2016-06-10T12:05:09Z</time>
      </trkpt>
      <trkpt lat="42.548395" lon="-0.267760">
        <ele>1728.6</ele>
        <time>2016-06-10T12:05:22Z</time>
      </trkpt>
      <trkpt lat="42.548751" lon="-0.267477">
        <ele>1725.7</ele>
        <time>2016-06-10T12:05:35Z</time>
      </trkpt>
      <trkpt lat="42.549030" lon="-0.267237">
        <ele>1724.3</ele>
        <time>2016-06-10T12:05:49Z</time>
      </trkpt>
      <trkpt lat="42.549400" lon="-0.267002">
        <ele>1720.4</ele>
        <time>2016-06-10T12:06:02Z</time>
      </trkpt>
      <trkpt lat="42.549642" lon="-0.266758">
        <ele>1719.5</ele>
        <time>2016-06-10T12:06:16Z</time>
      </trkpt>
      <trkpt lat="42.549974" lon="-0.266446">
        <ele>1713.7</ele>
        <time>2016-06-10T12:06:30Z</time>
      </trkpt>
      <trkpt lat="42.550304" lon="-0.266213">
        <ele>1707.0</ele>
        <time>2016-06-10T12:06:43Z</time>
      </trkpt>
      <trkpt lat="42.550488" lon="-0.266085">
        <ele>1703.6</ele>
        <time>2016-06-10T12:06:50Z</time>
      </trkpt>
      <trkpt lat="42.550595" lon="-0.266270">
        <ele>1702.6</ele>
        <time>2016-06-10T12:06:58Z</time>
      </trkpt>
      <trkpt lat="42.550454" lon="-0.266456">
        <ele>1702.6</ele>
        <time>2016-06-10T12:07:10Z</time>
      </trkpt>
      <trkpt lat="42.550285" lon="-0.266603">
        <ele>1704.6</ele>
        <time>2016-06-10T12:07:23Z</time>
      </trkpt>
      <trkpt lat="42.550071" lon="-0.266830">
        <ele>1705.0</ele>
        <time>2016-06-10T12:07:40Z</time>
      </trkpt>
      <trkpt lat="42.549869" lon="-0.267059">
        <ele>1704.1</ele>
        <time>2016-06-10T12:07:55Z</time>
      </trkpt>
      <trkpt lat="42.549776" lon="-0.267174">
        <ele>1703.6</ele>
        <time>2016-06-10T12:08:07Z</time>
      </trkpt>
      <trkpt lat="42.549687" lon="-0.267309">
        <ele>1703.6</ele>
        <time>2016-06-10T12:08:18Z</time>
      </trkpt>
      <trkpt lat="42.549455" lon="-0.267622">
        <ele>1700.7</ele>
        <time>2016-06-10T12:08:34Z</time>
      </trkpt>
      <trkpt lat="42.549305" lon="-0.267913">
        <ele>1699.8</ele>
        <time>2016-06-10T12:08:48Z</time>
      </trkpt>
      <trkpt lat="42.549160" lon="-0.268199">
        <ele>1700.7</ele>
        <time>2016-06-10T12:09:01Z</time>
      </trkpt>
      <trkpt lat="42.549021" lon="-0.268554">
        <ele>1700.2</ele>
        <time>2016-06-10T12:09:15Z</time>
      </trkpt>
      <trkpt lat="42.548820" lon="-0.269038">
        <ele>1696.9</ele>
        <time>2016-06-10T12:09:31Z</time>
      </trkpt>
      <trkpt lat="42.548638" lon="-0.269387">
        <ele>1694.5</ele>
        <time>2016-06-10T12:09:43Z</time>
      </trkpt>
      <trkpt lat="42.548427" lon="-0.269790">
        <ele>1691.6</ele>
        <time>2016-06-10T12:09:57Z</time>
      </trkpt>
      <trkpt lat="42.548255" lon="-0.270230">
        <ele>1688.2</ele>
        <time>2016-06-10T12:10:09Z</time>
      </trkpt>
      <trkpt lat="42.548094" lon="-0.270728">
        <ele>1685.3</ele>
        <time>2016-06-10T12:10:23Z</time>
      </trkpt>
      <trkpt lat="42.548010" lon="-0.271128">
        <ele>1682.9</ele>
        <time>2016-06-10T12:10:34Z</time>
      </trkpt>
      <trkpt lat="42.548082" lon="-0.271578">
        <ele>1682.4</ele>
        <time>2016-06-10T12:10:47Z</time>
      </trkpt>
      <trkpt lat="42.548082" lon="-0.271651">
        <ele>1681.5</ele>
        <time>2016-06-10T12:10:57Z</time>
      </trkpt>
      <trkpt lat="42.548170" lon="-0.271676">
        <ele>1680.5</ele>
        <time>2016-06-10T12:11:08Z</time>
      </trkpt>
      <trkpt lat="42.548303" lon="-0.271321">
        <ele>1676.7</ele>
        <time>2016-06-10T12:11:19Z</time>
      </trkpt>
      <trkpt lat="42.548480" lon="-0.270713">
        <ele>1673.3</ele>
        <time>2016-06-10T12:11:33Z</time>
      </trkpt>
      <trkpt lat="42.548612" lon="-0.270445">
        <ele>1671.9</ele>
        <time>2016-06-10T12:11:39Z</time>
      </trkpt>
      <trkpt lat="42.548861" lon="-0.270046">
        <ele>1668.0</ele>
        <time>2016-06-10T12:11:50Z</time>
      </trkpt>
      <trkpt lat="42.548923" lon="-0.270108">
        <ele>1665.6</ele>
        <time>2016-06-10T12:11:56Z</time>
      </trkpt>
      <trkpt lat="42.548811" lon="-0.270588">
        <ele>1661.3</ele>
        <time>2016-06-10T12:12:06Z</time>
      </trkpt>
      <trkpt lat="42.548785" lon="-0.270697">
        <ele>1660.3</ele>
        <time>2016-06-10T12:12:08Z</time>
      </trkpt>
      <trkpt lat="42.548742" lon="-0.271003">
        <ele>1658.4</ele>
        <time>2016-06-10T12:12:13Z</time>
      </trkpt>
      <trkpt lat="42.548917" lon="-0.271577">
        <ele>1654.6</ele>
        <time>2016-06-10T12:12:26Z</time>
      </trkpt>
      <trkpt lat="42.549386" lon="-0.271934">
        <ele>1653.1</ele>
        <time>2016-06-10T12:12:39Z</time>
      </trkpt>
      <trkpt lat="42.549682" lon="-0.272311">
        <ele>1651.7</ele>
        <time>2016-06-10T12:12:50Z</time>
      </trkpt>
      <trkpt lat="42.549730" lon="-0.272406">
        <ele>1651.7</ele>
        <time>2016-06-10T12:12:52Z</time>
      </trkpt>
      <trkpt lat="42.549831" lon="-0.272702">
        <ele>1648.8</ele>
        <time>2016-06-10T12:12:58Z</time>
      </trkpt>
      <trkpt lat="42.549939" lon="-0.272961">
        <ele>1646.9</ele>
        <time>2016-06-10T12:13:03Z</time>
      </trkpt>
      <trkpt lat="42.550041" lon="-0.273465">
        <ele>1644.0</ele>
        <time>2016-06-10T12:13:14Z</time>
      </trkpt>
      <trkpt lat="42.550062" lon="-0.273563">
        <ele>1643.5</ele>
        <time>2016-06-10T12:13:16Z</time>
      </trkpt>
      <trkpt lat="42.550098" lon="-0.273663">
        <ele>1642.6</ele>
        <time>2016-06-10T12:13:18Z</time>
      </trkpt>
      <trkpt lat="42.550213" lon="-0.273978">
        <ele>1639.7</ele>
        <time>2016-06-10T12:13:24Z</time>
      </trkpt>
      <trkpt lat="42.550341" lon="-0.274160">
        <ele>1636.8</ele>
        <time>2016-06-10T12:13:28Z</time>
      </trkpt>
      <trkpt lat="42.550581" lon="-0.274440">
        <ele>1635.8</ele>
        <time>2016-06-10T12:13:38Z</time>
      </trkpt>
      <trkpt lat="42.550671" lon="-0.274741">
        <ele>1637.3</ele>
        <time>2016-06-10T12:13:51Z</time>
      </trkpt>
      <trkpt lat="42.550770" lon="-0.275109">
        <ele>1637.7</ele>
        <time>2016-06-10T12:14:07Z</time>
      </trkpt>
      <trkpt lat="42.550837" lon="-0.275283">
        <ele>1636.3</ele>
        <time>2016-06-10T12:28:38Z</time>
      </trkpt>
      <trkpt lat="42.550865" lon="-0.275357">
        <ele>1635.3</ele>
        <time>2016-06-10T12:28:48Z</time>
      </trkpt>
      <trkpt lat="42.551069" lon="-0.275862">
        <ele>1632.9</ele>
        <time>2016-06-10T12:29:01Z</time>
      </trkpt>
      <trkpt lat="42.551142" lon="-0.275983">
        <ele>1632.9</ele>
        <time>2016-06-10T12:29:04Z</time>
      </trkpt>
      <trkpt lat="42.551513" lon="-0.276395">
        <ele>1629.1</ele>
        <time>2016-06-10T12:29:17Z</time>
      </trkpt>
      <trkpt lat="42.551669" lon="-0.276585">
        <ele>1627.7</ele>
        <time>2016-06-10T12:29:22Z</time>
      </trkpt>
      <trkpt lat="42.551761" lon="-0.276753">
        <ele>1627.2</ele>
        <time>2016-06-10T12:29:27Z</time>
      </trkpt>
      <trkpt lat="42.551877" lon="-0.277062">
        <ele>1625.3</ele>
        <time>2016-06-10T12:29:40Z</time>
      </trkpt>
      <trkpt lat="42.551997" lon="-0.277526">
        <ele>1618.0</ele>
        <time>2016-06-10T12:29:55Z</time>
      </trkpt>
      <trkpt lat="42.552108" lon="-0.277910">
        <ele>1616.1</ele>
        <time>2016-06-10T12:30:06Z</time>
      </trkpt>
      <trkpt lat="42.552247" lon="-0.278254">
        <ele>1613.2</ele>
        <time>2016-06-10T12:30:17Z</time>
      </trkpt>
      <trkpt lat="42.552427" lon="-0.278737">
        <ele>1611.8</ele>
        <time>2016-06-10T12:30:29Z</time>
      </trkpt>
      <trkpt lat="42.552647" lon="-0.279045">
        <ele>1611.3</ele>
        <time>2016-06-10T12:30:39Z</time>
      </trkpt>
      <trkpt lat="42.552724" lon="-0.279089">
        <ele>1614.2</ele>
        <time>2016-06-10T12:30:48Z</time>
      </trkpt>
      <trkpt lat="42.552773" lon="-0.279088">
        <ele>1614.2</ele>
        <time>2016-06-10T12:31:08Z</time>
      </trkpt>
      <trkpt lat="42.553221" lon="-0.279309">
        <ele>1614.7</ele>
        <time>2016-06-10T12:31:20Z</time>
      </trkpt>
      <trkpt lat="42.553270" lon="-0.279326">
        <ele>1615.2</ele>
        <time>2016-06-10T12:31:21Z</time>
      </trkpt>
      <trkpt lat="42.553369" lon="-0.279366">
        <ele>1615.6</ele>
        <time>2016-06-10T12:31:23Z</time>
      </trkpt>
      <trkpt lat="42.553621" lon="-0.279617">
        <ele>1616.6</ele>
        <time>2016-06-10T12:31:30Z</time>
      </trkpt>
      <trkpt lat="42.553930" lon="-0.279901">
        <ele>1615.2</ele>
        <time>2016-06-10T12:31:40Z</time>
      </trkpt>
      <trkpt lat="42.554149" lon="-0.279889">
        <ele>1612.3</ele>
        <time>2016-06-10T12:31:47Z</time>
      </trkpt>
      <trkpt lat="42.554179" lon="-0.279786">
        <ele>1610.8</ele>
        <time>2016-06-10T12:31:49Z</time>
      </trkpt>
      <trkpt lat="42.554183" lon="-0.279240">
        <ele>1602.2</ele>
        <time>2016-06-10T12:32:00Z</time>
      </trkpt>
      <trkpt lat="42.554150" lon="-0.279127">
        <ele>1600.7</ele>
        <time>2016-06-10T12:32:03Z</time>
      </trkpt>
      <trkpt lat="42.553859" lon="-0.278599">
        <ele>1598.8</ele>
        <time>2016-06-10T12:32:16Z</time>
      </trkpt>
      <trkpt lat="42.553816" lon="-0.278438">
        <ele>1598.3</ele>
        <time>2016-06-10T12:32:20Z</time>
      </trkpt>
      <trkpt lat="42.553786" lon="-0.278204">
        <ele>1594.5</ele>
        <time>2016-06-10T12:32:26Z</time>
      </trkpt>
      <trkpt lat="42.553635" lon="-0.277709">
        <ele>1585.8</ele>
        <time>2016-06-10T12:32:37Z</time>
      </trkpt>
      <trkpt lat="42.553613" lon="-0.277588">
        <ele>1583.9</ele>
        <time>2016-06-10T12:32:39Z</time>
      </trkpt>
      <trkpt lat="42.553487" lon="-0.277119">
        <ele>1582.0</ele>
        <time>2016-06-10T12:32:49Z</time>
      </trkpt>
      <trkpt lat="42.553500" lon="-0.276533">
        <ele>1578.1</ele>
        <time>2016-06-10T12:32:58Z</time>
      </trkpt>
      <trkpt lat="42.553442" lon="-0.276230">
        <ele>1576.2</ele>
        <time>2016-06-10T12:33:03Z</time>
      </trkpt>
      <trkpt lat="42.553396" lon="-0.276035">
        <ele>1574.3</ele>
        <time>2016-06-10T12:33:06Z</time>
      </trkpt>
      <trkpt lat="42.553355" lon="-0.275829">
        <ele>1573.3</ele>
        <time>2016-06-10T12:33:09Z</time>
      </trkpt>
      <trkpt lat="42.553344" lon="-0.275551">
        <ele>1571.4</ele>
        <time>2016-06-10T12:33:13Z</time>
      </trkpt>
      <trkpt lat="42.553347" lon="-0.274897">
        <ele>1567.6</ele>
        <time>2016-06-10T12:33:26Z</time>
      </trkpt>
      <trkpt lat="42.553356" lon="-0.274445">
        <ele>1566.1</ele>
        <time>2016-06-10T12:33:37Z</time>
      </trkpt>
      <trkpt lat="42.553364" lon="-0.274073">
        <ele>1567.1</ele>
        <time>2016-06-10T12:33:47Z</time>
      </trkpt>
      <trkpt lat="42.553357" lon="-0.273701">
        <ele>1567.6</ele>
        <time>2016-06-10T12:33:56Z</time>
      </trkpt>
      <trkpt lat="42.553377" lon="-0.273264">
        <ele>1566.6</ele>
        <time>2016-06-10T12:34:06Z</time>
      </trkpt>
      <trkpt lat="42.553396" lon="-0.273112">
        <ele>1565.2</ele>
        <time>2016-06-10T12:34:11Z</time>
      </trkpt>
      <trkpt lat="42.553353" lon="-0.272887">
        <ele>1564.2</ele>
        <time>2016-06-10T12:34:16Z</time>
      </trkpt>
      <trkpt lat="42.553318" lon="-0.272748">
        <ele>1564.7</ele>
        <time>2016-06-10T12:34:19Z</time>
      </trkpt>
      <trkpt lat="42.553052" lon="-0.272417">
        <ele>1561.8</ele>
        <time>2016-06-10T12:34:30Z</time>
      </trkpt>
      <trkpt lat="42.552888" lon="-0.272266">
        <ele>1560.4</ele>
        <time>2016-06-10T12:34:36Z</time>
      </trkpt>
      <trkpt lat="42.552804" lon="-0.272077">
        <ele>1557.5</ele>
        <time>2016-06-10T12:34:42Z</time>
      </trkpt>
      <trkpt lat="42.552874" lon="-0.271644">
        <ele>1553.6</ele>
        <time>2016-06-10T12:34:54Z</time>
      </trkpt>
      <trkpt lat="42.552781" lon="-0.271147">
        <ele>1555.6</ele>
        <time>2016-06-10T12:35:07Z</time>
      </trkpt>
      <trkpt lat="42.552688" lon="-0.270876">
        <ele>1557.0</ele>
        <time>2016-06-10T12:35:13Z</time>
      </trkpt>
      <trkpt lat="42.552655" lon="-0.270772">
        <ele>1557.5</ele>
        <time>2016-06-10T12:35:16Z</time>
      </trkpt>
      <trkpt lat="42.552717" lon="-0.270684">
        <ele>1556.0</ele>
        <time>2016-06-10T12:35:20Z</time>
      </trkpt>
      <trkpt lat="42.552881" lon="-0.270615">
        <ele>1553.2</ele>
        <time>2016-06-10T12:35:30Z</time>
      </trkpt>
      <trkpt lat="42.553209" lon="-0.270720">
        <ele>1553.2</ele>
        <time>2016-06-10T12:35:41Z</time>
      </trkpt>
      <trkpt lat="42.553312" lon="-0.270817">
        <ele>1551.2</ele>
        <time>2016-06-10T12:35:50Z</time>
      </trkpt>
      <trkpt lat="42.553384" lon="-0.270857">
        <ele>1549.3</ele>
        <time>2016-06-10T12:36:01Z</time>
      </trkpt>
      <trkpt lat="42.553492" lon="-0.270957">
        <ele>1547.4</ele>
        <time>2016-06-10T12:36:08Z</time>
      </trkpt>
      <trkpt lat="42.553655" lon="-0.271273">
        <ele>1543.1</ele>
        <time>2016-06-10T12:36:20Z</time>
      </trkpt>
      <trkpt lat="42.553695" lon="-0.271466">
        <ele>1540.2</ele>
        <time>2016-06-10T12:36:32Z</time>
      </trkpt>
      <trkpt lat="42.553724" lon="-0.271621">
        <ele>1538.7</ele>
        <time>2016-06-10T12:36:37Z</time>
      </trkpt>
      <trkpt lat="42.553943" lon="-0.272010">
        <ele>1536.8</ele>
        <time>2016-06-10T12:36:49Z</time>
      </trkpt>
      <trkpt lat="42.554049" lon="-0.272251">
        <ele>1535.4</ele>
        <time>2016-06-10T12:36:54Z</time>
      </trkpt>
      <trkpt lat="42.554200" lon="-0.272535">
        <ele>1533.0</ele>
        <time>2016-06-10T12:37:00Z</time>
      </trkpt>
      <trkpt lat="42.554309" lon="-0.272776">
        <ele>1531.0</ele>
        <time>2016-06-10T12:37:05Z</time>
      </trkpt>
      <trkpt lat="42.554375" lon="-0.272925">
        <ele>1530.1</ele>
        <time>2016-06-10T12:37:08Z</time>
      </trkpt>
      <trkpt lat="42.554562" lon="-0.273296">
        <ele>1527.7</ele>
        <time>2016-06-10T12:37:18Z</time>
      </trkpt>
      <trkpt lat="42.554726" lon="-0.273580">
        <ele>1526.2</ele>
        <time>2016-06-10T12:37:24Z</time>
      </trkpt>
      <trkpt lat="42.554846" lon="-0.273831">
        <ele>1523.8</ele>
        <time>2016-06-10T12:37:31Z</time>
      </trkpt>
      <trkpt lat="42.554949" lon="-0.273694">
        <ele>1521.9</ele>
        <time>2016-06-10T12:37:34Z</time>
      </trkpt>
      <trkpt lat="42.555043" lon="-0.273590">
        <ele>1521.4</ele>
        <time>2016-06-10T12:37:37Z</time>
      </trkpt>
      <trkpt lat="42.555191" lon="-0.273661">
        <ele>1520.9</ele>
        <time>2016-06-10T12:37:41Z</time>
      </trkpt>
      <trkpt lat="42.555249" lon="-0.273755">
        <ele>1519.0</ele>
        <time>2016-06-10T12:37:43Z</time>
      </trkpt>
      <trkpt lat="42.555380" lon="-0.273906">
        <ele>1517.1</ele>
        <time>2016-06-10T12:37:47Z</time>
      </trkpt>
      <trkpt lat="42.555433" lon="-0.273918">
        <ele>1516.1</ele>
        <time>2016-06-10T12:37:49Z</time>
      </trkpt>
      <trkpt lat="42.555485" lon="-0.273743">
        <ele>1514.7</ele>
        <time>2016-06-10T12:37:54Z</time>
      </trkpt>
      <trkpt lat="42.555485" lon="-0.273674">
        <ele>1514.2</ele>
        <time>2016-06-10T12:37:55Z</time>
      </trkpt>
      <trkpt lat="42.555496" lon="-0.273614">
        <ele>1514.2</ele>
        <time>2016-06-10T12:37:56Z</time>
      </trkpt>
      <trkpt lat="42.555570" lon="-0.273429">
        <ele>1512.8</ele>
        <time>2016-06-10T12:37:59Z</time>
      </trkpt>
      <trkpt lat="42.555692" lon="-0.273132">
        <ele>1509.9</ele>
        <time>2016-06-10T12:38:03Z</time>
      </trkpt>
      <trkpt lat="42.555910" lon="-0.272907">
        <ele>1506.5</ele>
        <time>2016-06-10T12:38:08Z</time>
      </trkpt>
      <trkpt lat="42.556080" lon="-0.272725">
        <ele>1503.6</ele>
        <time>2016-06-10T12:38:12Z</time>
      </trkpt>
      <trkpt lat="42.556270" lon="-0.272663">
        <ele>1502.2</ele>
        <time>2016-06-10T12:38:16Z</time>
      </trkpt>
      <trkpt lat="42.556387" lon="-0.272657">
        <ele>1501.7</ele>
        <time>2016-06-10T12:38:18Z</time>
      </trkpt>
      <trkpt lat="42.556484" lon="-0.272626">
        <ele>1501.2</ele>
        <time>2016-06-10T12:38:20Z</time>
      </trkpt>
      <trkpt lat="42.556818" lon="-0.272356">
        <ele>1497.9</ele>
        <time>2016-06-10T12:38:27Z</time>
      </trkpt>
      <trkpt lat="42.557096" lon="-0.272200">
        <ele>1494.0</ele>
        <time>2016-06-10T12:38:32Z</time>
      </trkpt>
      <trkpt lat="42.557238" lon="-0.272139">
        <ele>1493.1</ele>
        <time>2016-06-10T12:38:35Z</time>
      </trkpt>
      <trkpt lat="42.557357" lon="-0.272003">
        <ele>1491.6</ele>
        <time>2016-06-10T12:38:38Z</time>
      </trkpt>
      <trkpt lat="42.557782" lon="-0.271819">
        <ele>1488.7</ele>
        <time>2016-06-10T12:38:46Z</time>
      </trkpt>
      <trkpt lat="42.557935" lon="-0.271811">
        <ele>1488.3</ele>
        <time>2016-06-10T12:38:49Z</time>
      </trkpt>
      <trkpt lat="42.558044" lon="-0.271811">
        <ele>1487.8</ele>
        <time>2016-06-10T12:38:51Z</time>
      </trkpt>
      <trkpt lat="42.558227" lon="-0.271973">
        <ele>1485.9</ele>
        <time>2016-06-10T12:38:56Z</time>
      </trkpt>
      <trkpt lat="42.558337" lon="-0.272125">
        <ele>1483.9</ele>
        <time>2016-06-10T12:38:59Z</time>
      </trkpt>
      <trkpt lat="42.558472" lon="-0.272349">
        <ele>1481.5</ele>
        <time>2016-06-10T12:39:03Z</time>
      </trkpt>
      <trkpt lat="42.558561" lon="-0.272703">
        <ele>1478.7</ele>
        <time>2016-06-10T12:39:08Z</time>
      </trkpt>
      <trkpt lat="42.558585" lon="-0.273037">
        <ele>1475.3</ele>
        <time>2016-06-10T12:39:12Z</time>
      </trkpt>
      <trkpt lat="42.558515" lon="-0.273868">
        <ele>1465.2</ele>
        <time>2016-06-10T12:39:22Z</time>
      </trkpt>
      <trkpt lat="42.558457" lon="-0.274232">
        <ele>1463.3</ele>
        <time>2016-06-10T12:39:27Z</time>
      </trkpt>
      <trkpt lat="42.558420" lon="-0.274448">
        <ele>1463.3</ele>
        <time>2016-06-10T12:39:29Z</time>
      </trkpt>
      <trkpt lat="42.558397" lon="-0.275669">
        <ele>1454.6</ele>
        <time>2016-06-10T12:39:42Z</time>
      </trkpt>
      <trkpt lat="42.558388" lon="-0.275862">
        <ele>1452.7</ele>
        <time>2016-06-10T12:39:44Z</time>
      </trkpt>
      <trkpt lat="42.558375" lon="-0.276159">
        <ele>1450.3</ele>
        <time>2016-06-10T12:39:47Z</time>
      </trkpt>
      <trkpt lat="42.558365" lon="-0.276561">
        <ele>1446.0</ele>
        <time>2016-06-10T12:39:51Z</time>
      </trkpt>
      <trkpt lat="42.558256" lon="-0.277876">
        <ele>1431.1</ele>
        <time>2016-06-10T12:40:04Z</time>
      </trkpt>
      <trkpt lat="42.557995" lon="-0.278992">
        <ele>1420.0</ele>
        <time>2016-06-10T12:40:15Z</time>
      </trkpt>
      <trkpt lat="42.557847" lon="-0.279714">
        <ele>1411.8</ele>
        <time>2016-06-10T12:40:22Z</time>
      </trkpt>
      <trkpt lat="42.557789" lon="-0.280205">
        <ele>1406.1</ele>
        <time>2016-06-10T12:40:27Z</time>
      </trkpt>
      <trkpt lat="42.557695" lon="-0.280698">
        <ele>1400.8</ele>
        <time>2016-06-10T12:40:32Z</time>
      </trkpt>
      <trkpt lat="42.557655" lon="-0.280903">
        <ele>1398.9</ele>
        <time>2016-06-10T12:40:34Z</time>
      </trkpt>
      <trkpt lat="42.557355" lon="-0.282114">
        <ele>1385.4</ele>
        <time>2016-06-10T12:40:45Z</time>
      </trkpt>
      <trkpt lat="42.557195" lon="-0.282744">
        <ele>1378.2</ele>
        <time>2016-06-10T12:40:51Z</time>
      </trkpt>
      <trkpt lat="42.557107" lon="-0.282986">
        <ele>1375.8</ele>
        <time>2016-06-10T12:40:54Z</time>
      </trkpt>
      <trkpt lat="42.557021" lon="-0.283431">
        <ele>1376.3</ele>
        <time>2016-06-10T12:41:00Z</time>
      </trkpt>
      <trkpt lat="42.556997" lon="-0.283576">
        <ele>1376.3</ele>
        <time>2016-06-10T12:41:02Z</time>
      </trkpt>
      <trkpt lat="42.556970" lon="-0.284017">
        <ele>1376.3</ele>
        <time>2016-06-10T12:41:06Z</time>
      </trkpt>
      <trkpt lat="42.556996" lon="-0.284589">
        <ele>1376.8</ele>
        <time>2016-06-10T12:41:12Z</time>
      </trkpt>
      <trkpt lat="42.556993" lon="-0.284807">
        <ele>1376.3</ele>
        <time>2016-06-10T12:41:14Z</time>
      </trkpt>
      <trkpt lat="42.557112" lon="-0.285457">
        <ele>1374.3</ele>
        <time>2016-06-10T12:41:23Z</time>
      </trkpt>
      <trkpt lat="42.557112" lon="-0.285530">
        <ele>1373.9</ele>
        <time>2016-06-10T12:41:24Z</time>
      </trkpt>
      <trkpt lat="42.557120" lon="-0.285828">
        <ele>1371.5</ele>
        <time>2016-06-10T12:41:28Z</time>
      </trkpt>
      <trkpt lat="42.557026" lon="-0.286350">
        <ele>1365.2</ele>
        <time>2016-06-10T12:41:35Z</time>
      </trkpt>
      <trkpt lat="42.556935" lon="-0.286985">
        <ele>1356.6</ele>
        <time>2016-06-10T12:41:43Z</time>
      </trkpt>
      <trkpt lat="42.556947" lon="-0.287262">
        <ele>1351.8</ele>
        <time>2016-06-10T12:41:47Z</time>
      </trkpt>
      <trkpt lat="42.556997" lon="-0.287589">
        <ele>1349.4</ele>
        <time>2016-06-10T12:41:51Z</time>
      </trkpt>
      <trkpt lat="42.557014" lon="-0.287868">
        <ele>1347.9</ele>
        <time>2016-06-10T12:41:55Z</time>
      </trkpt>
      <trkpt lat="42.557017" lon="-0.288015">
        <ele>1348.4</ele>
        <time>2016-06-10T12:41:58Z</time>
      </trkpt>
      <trkpt lat="42.557104" lon="-0.287931">
        <ele>1347.9</ele>
        <time>2016-06-10T12:42:05Z</time>
      </trkpt>
      <trkpt lat="42.557224" lon="-0.287492">
        <ele>1344.5</ele>
        <time>2016-06-10T12:42:12Z</time>
      </trkpt>
      <trkpt lat="42.557257" lon="-0.287338">
        <ele>1343.6</ele>
        <time>2016-06-10T12:42:14Z</time>
      </trkpt>
      <trkpt lat="42.557284" lon="-0.287087">
        <ele>1342.1</ele>
        <time>2016-06-10T12:42:17Z</time>
      </trkpt>
      <trkpt lat="42.557491" lon="-0.286328">
        <ele>1336.4</ele>
        <time>2016-06-10T12:42:26Z</time>
      </trkpt>
      <trkpt lat="42.557670" lon="-0.285917">
        <ele>1334.0</ele>
        <time>2016-06-10T12:42:31Z</time>
      </trkpt>
      <trkpt lat="42.557919" lon="-0.285355">
        <ele>1330.6</ele>
        <time>2016-06-10T12:42:40Z</time>
      </trkpt>
      <trkpt lat="42.558038" lon="-0.284994">
        <ele>1327.7</ele>
        <time>2016-06-10T12:42:46Z</time>
      </trkpt>
      <trkpt lat="42.558162" lon="-0.284731">
        <ele>1325.8</ele>
        <time>2016-06-10T12:42:54Z</time>
      </trkpt>
      <trkpt lat="42.558209" lon="-0.284592">
        <ele>1324.8</ele>
        <time>2016-06-10T12:42:57Z</time>
      </trkpt>
      <trkpt lat="42.558310" lon="-0.284390">
        <ele>1324.4</ele>
        <time>2016-06-10T12:43:01Z</time>
      </trkpt>
      <trkpt lat="42.558423" lon="-0.284127">
        <ele>1322.9</ele>
        <time>2016-06-10T12:43:06Z</time>
      </trkpt>
      <trkpt lat="42.558482" lon="-0.283627">
        <ele>1318.6</ele>
        <time>2016-06-10T12:43:13Z</time>
      </trkpt>
      <trkpt lat="42.558484" lon="-0.283509">
        <ele>1317.1</ele>
        <time>2016-06-10T12:43:15Z</time>
      </trkpt>
      <trkpt lat="42.558628" lon="-0.283074">
        <ele>1315.2</ele>
        <time>2016-06-10T12:43:24Z</time>
      </trkpt>
      <trkpt lat="42.558792" lon="-0.282791">
        <ele>1315.2</ele>
        <time>2016-06-10T12:43:31Z</time>
      </trkpt>
      <trkpt lat="42.558864" lon="-0.282707">
        <ele>1315.7</ele>
        <time>2016-06-10T12:43:33Z</time>
      </trkpt>
      <trkpt lat="42.558980" lon="-0.282467">
        <ele>1314.7</ele>
        <time>2016-06-10T12:43:38Z</time>
      </trkpt>
      <trkpt lat="42.559212" lon="-0.282139">
        <ele>1313.8</ele>
        <time>2016-06-10T12:43:45Z</time>
      </trkpt>
      <trkpt lat="42.559296" lon="-0.281968">
        <ele>1313.3</ele>
        <time>2016-06-10T12:43:48Z</time>
      </trkpt>
      <trkpt lat="42.559370" lon="-0.282111">
        <ele>1311.4</ele>
        <time>2016-06-10T12:43:55Z</time>
      </trkpt>
      <trkpt lat="42.559341" lon="-0.282162">
        <ele>1310.9</ele>
        <time>2016-06-10T12:43:56Z</time>
      </trkpt>
      <trkpt lat="42.559107" lon="-0.282567">
        <ele>1308.5</ele>
        <time>2016-06-10T12:44:07Z</time>
      </trkpt>
      <trkpt lat="42.558878" lon="-0.283085">
        <ele>1306.1</ele>
        <time>2016-06-10T12:44:18Z</time>
      </trkpt>
      <trkpt lat="42.558839" lon="-0.283187">
        <ele>1306.1</ele>
        <time>2016-06-10T12:44:20Z</time>
      </trkpt>
      <trkpt lat="42.558800" lon="-0.283525">
        <ele>1305.1</ele>
        <time>2016-06-10T12:44:30Z</time>
      </trkpt>
      <trkpt lat="42.558806" lon="-0.283609">
        <ele>1305.1</ele>
        <time>2016-06-10T12:44:42Z</time>
      </trkpt>
      <trkpt lat="42.558867" lon="-0.283996">
        <ele>1303.2</ele>
        <time>2016-06-10T12:44:51Z</time>
      </trkpt>
      <trkpt lat="42.558793" lon="-0.284565">
        <ele>1299.4</ele>
        <time>2016-06-10T12:45:02Z</time>
      </trkpt>
      <trkpt lat="42.558729" lon="-0.284731">
        <ele>1298.9</ele>
        <time>2016-06-10T12:45:06Z</time>
      </trkpt>
      <trkpt lat="42.558736" lon="-0.285038">
        <ele>1297.4</ele>
        <time>2016-06-10T12:45:12Z</time>
      </trkpt>
      <trkpt lat="42.558778" lon="-0.285116">
        <ele>1297.4</ele>
        <time>2016-06-10T12:45:14Z</time>
      </trkpt>
      <trkpt lat="42.558802" lon="-0.285183">
        <ele>1297.0</ele>
        <time>2016-06-10T12:45:15Z</time>
      </trkpt>
      <trkpt lat="42.558810" lon="-0.285428">
        <ele>1296.5</ele>
        <time>2016-06-10T12:45:19Z</time>
      </trkpt>
      <trkpt lat="42.558795" lon="-0.285583">
        <ele>1296.0</ele>
        <time>2016-06-10T12:45:21Z</time>
      </trkpt>
      <trkpt lat="42.558746" lon="-0.285798">
        <ele>1294.1</ele>
        <time>2016-06-10T12:45:24Z</time>
      </trkpt>
      <trkpt lat="42.558793" lon="-0.286082">
        <ele>1292.6</ele>
        <time>2016-06-10T12:45:29Z</time>
      </trkpt>
      <trkpt lat="42.558878" lon="-0.286642">
        <ele>1291.2</ele>
        <time>2016-06-10T12:45:37Z</time>
      </trkpt>
      <trkpt lat="42.558988" lon="-0.286925">
        <ele>1288.3</ele>
        <time>2016-06-10T12:45:41Z</time>
      </trkpt>
      <trkpt lat="42.559085" lon="-0.287238">
        <ele>1285.4</ele>
        <time>2016-06-10T12:45:45Z</time>
      </trkpt>
      <trkpt lat="42.559118" lon="-0.287373">
        <ele>1283.5</ele>
        <time>2016-06-10T12:45:47Z</time>
      </trkpt>
      <trkpt lat="42.559280" lon="-0.287911">
        <ele>1274.4</ele>
        <time>2016-06-10T12:45:57Z</time>
      </trkpt>
      <trkpt lat="42.559346" lon="-0.288074">
        <ele>1272.0</ele>
        <time>2016-06-10T12:46:00Z</time>
      </trkpt>
      <trkpt lat="42.559397" lon="-0.288313">
        <ele>1269.6</ele>
        <time>2016-06-10T12:46:04Z</time>
      </trkpt>
      <trkpt lat="42.559587" lon="-0.288842">
        <ele>1265.7</ele>
        <time>2016-06-10T12:46:14Z</time>
      </trkpt>
      <trkpt lat="42.559801" lon="-0.289676">
        <ele>1251.8</ele>
        <time>2016-06-10T12:46:27Z</time>
      </trkpt>
      <trkpt lat="42.560021" lon="-0.290060">
        <ele>1243.1</ele>
        <time>2016-06-10T12:46:37Z</time>
      </trkpt>
      <trkpt lat="42.560053" lon="-0.290111">
        <ele>1242.6</ele>
        <time>2016-06-10T12:46:38Z</time>
      </trkpt>
      <trkpt lat="42.560176" lon="-0.290456">
        <ele>1239.8</ele>
        <time>2016-06-10T12:46:43Z</time>
      </trkpt>
      <trkpt lat="42.560237" lon="-0.290764">
        <ele>1236.9</ele>
        <time>2016-06-10T12:46:47Z</time>
      </trkpt>
      <trkpt lat="42.560313" lon="-0.291096">
        <ele>1232.6</ele>
        <time>2016-06-10T12:46:51Z</time>
      </trkpt>
      <trkpt lat="42.560435" lon="-0.291758">
        <ele>1223.9</ele>
        <time>2016-06-10T12:46:58Z</time>
      </trkpt>
      <trkpt lat="42.560439" lon="-0.292006">
        <ele>1220.5</ele>
        <time>2016-06-10T12:47:01Z</time>
      </trkpt>
      <trkpt lat="42.560526" lon="-0.292285">
        <ele>1215.2</ele>
        <time>2016-06-10T12:47:08Z</time>
      </trkpt>
      <trkpt lat="42.560598" lon="-0.292241">
        <ele>1213.8</ele>
        <time>2016-06-10T12:47:10Z</time>
      </trkpt>
      <trkpt lat="42.561089" lon="-0.291959">
        <ele>1208.0</ele>
        <time>2016-06-10T12:47:18Z</time>
      </trkpt>
      <trkpt lat="42.561419" lon="-0.292076">
        <ele>1203.7</ele>
        <time>2016-06-10T12:47:24Z</time>
      </trkpt>
      <trkpt lat="42.561588" lon="-0.292350">
        <ele>1199.4</ele>
        <time>2016-06-10T12:47:28Z</time>
      </trkpt>
      <trkpt lat="42.561715" lon="-0.292700">
        <ele>1195.1</ele>
        <time>2016-06-10T12:47:32Z</time>
      </trkpt>
      <trkpt lat="42.561750" lon="-0.293083">
        <ele>1191.2</ele>
        <time>2016-06-10T12:47:36Z</time>
      </trkpt>
      <trkpt lat="42.561725" lon="-0.293729">
        <ele>1182.6</ele>
        <time>2016-06-10T12:47:45Z</time>
      </trkpt>
      <trkpt lat="42.561701" lon="-0.293894">
        <ele>1180.2</ele>
        <time>2016-06-10T12:47:49Z</time>
      </trkpt>
      <trkpt lat="42.561709" lon="-0.294318">
        <ele>1177.3</ele>
        <time>2016-06-10T12:47:55Z</time>
      </trkpt>
      <trkpt lat="42.561774" lon="-0.294517">
        <ele>1176.3</ele>
        <time>2016-06-10T12:47:58Z</time>
      </trkpt>
      <trkpt lat="42.561826" lon="-0.294744">
        <ele>1174.9</ele>
        <time>2016-06-10T12:48:01Z</time>
      </trkpt>
      <trkpt lat="42.561830" lon="-0.294892">
        <ele>1173.9</ele>
        <time>2016-06-10T12:48:03Z</time>
      </trkpt>
      <trkpt lat="42.561914" lon="-0.295831">
        <ele>1170.1</ele>
        <time>2016-06-10T12:48:15Z</time>
      </trkpt>
      <trkpt lat="42.561914" lon="-0.296093">
        <ele>1169.1</ele>
        <time>2016-06-10T12:48:18Z</time>
      </trkpt>
      <trkpt lat="42.561770" lon="-0.296895">
        <ele>1162.9</ele>
        <time>2016-06-10T12:48:26Z</time>
      </trkpt>
      <trkpt lat="42.561787" lon="-0.297355">
        <ele>1160.0</ele>
        <time>2016-06-10T12:48:31Z</time>
      </trkpt>
      <trkpt lat="42.561793" lon="-0.297490">
        <ele>1159.0</ele>
        <time>2016-06-10T12:48:33Z</time>
      </trkpt>
      <trkpt lat="42.561927" lon="-0.297996">
        <ele>1156.1</ele>
        <time>2016-06-10T12:48:39Z</time>
      </trkpt>
      <trkpt lat="42.562131" lon="-0.298462">
        <ele>1153.7</ele>
        <time>2016-06-10T12:48:44Z</time>
      </trkpt>
      <trkpt lat="42.562204" lon="-0.298791">
        <ele>1151.3</ele>
        <time>2016-06-10T12:48:48Z</time>
      </trkpt>
      <trkpt lat="42.562196" lon="-0.299315">
        <ele>1147.0</ele>
        <time>2016-06-10T12:48:55Z</time>
      </trkpt>
      <trkpt lat="42.562405" lon="-0.300190">
        <ele>1142.7</ele>
        <time>2016-06-10T12:49:05Z</time>
      </trkpt>
      <trkpt lat="42.562422" lon="-0.300350">
        <ele>1141.2</ele>
        <time>2016-06-10T12:49:07Z</time>
      </trkpt>
      <trkpt lat="42.562615" lon="-0.300472">
        <ele>1138.3</ele>
        <time>2016-06-10T12:49:14Z</time>
      </trkpt>
      <trkpt lat="42.562663" lon="-0.300348">
        <ele>1137.4</ele>
        <time>2016-06-10T12:49:16Z</time>
      </trkpt>
      <trkpt lat="42.562811" lon="-0.299992">
        <ele>1134.5</ele>
        <time>2016-06-10T12:49:21Z</time>
      </trkpt>
      <trkpt lat="42.563030" lon="-0.299646">
        <ele>1134.0</ele>
        <time>2016-06-10T12:49:26Z</time>
      </trkpt>
      <trkpt lat="42.563137" lon="-0.299442">
        <ele>1133.1</ele>
        <time>2016-06-10T12:49:29Z</time>
      </trkpt>
      <trkpt lat="42.563197" lon="-0.299330">
        <ele>1132.6</ele>
        <time>2016-06-10T12:49:31Z</time>
      </trkpt>
      <trkpt lat="42.563323" lon="-0.299191">
        <ele>1132.1</ele>
        <time>2016-06-10T12:49:35Z</time>
      </trkpt>
      <trkpt lat="42.563394" lon="-0.299149">
        <ele>1132.1</ele>
        <time>2016-06-10T12:49:37Z</time>
      </trkpt>
      <trkpt lat="42.563534" lon="-0.298984">
        <ele>1131.1</ele>
        <time>2016-06-10T12:49:41Z</time>
      </trkpt>
      <trkpt lat="42.563591" lon="-0.298859">
        <ele>1130.7</ele>
        <time>2016-06-10T12:49:43Z</time>
      </trkpt>
      <trkpt lat="42.563710" lon="-0.298483">
        <ele>1129.2</ele>
        <time>2016-06-10T12:49:48Z</time>
      </trkpt>
      <trkpt lat="42.563773" lon="-0.298081">
        <ele>1128.2</ele>
        <time>2016-06-10T12:49:53Z</time>
      </trkpt>
      <trkpt lat="42.563826" lon="-0.297776">
        <ele>1127.3</ele>
        <time>2016-06-10T12:49:57Z</time>
      </trkpt>
      <trkpt lat="42.563864" lon="-0.297631">
        <ele>1126.8</ele>
        <time>2016-06-10T12:49:59Z</time>
      </trkpt>
      <trkpt lat="42.564020" lon="-0.297254">
        <ele>1125.4</ele>
        <time>2016-06-10T12:50:04Z</time>
      </trkpt>
      <trkpt lat="42.564155" lon="-0.297076">
        <ele>1124.9</ele>
        <time>2016-06-10T12:50:07Z</time>
      </trkpt>
      <trkpt lat="42.564333" lon="-0.296731">
        <ele>1123.9</ele>
        <time>2016-06-10T12:50:12Z</time>
      </trkpt>
      <trkpt lat="42.564518" lon="-0.296172">
        <ele>1121.0</ele>
        <time>2016-06-10T12:50:18Z</time>
      </trkpt>
      <trkpt lat="42.564572" lon="-0.296034">
        <ele>1120.6</ele>
        <time>2016-06-10T12:50:20Z</time>
      </trkpt>
      <trkpt lat="42.564618" lon="-0.295902">
        <ele>1119.6</ele>
        <time>2016-06-10T12:50:22Z</time>
      </trkpt>
      <trkpt lat="42.564720" lon="-0.295565">
        <ele>1118.2</ele>
        <time>2016-06-10T12:50:27Z</time>
      </trkpt>
      <trkpt lat="42.564730" lon="-0.295129">
        <ele>1115.8</ele>
        <time>2016-06-10T12:50:33Z</time>
      </trkpt>
      <trkpt lat="42.564883" lon="-0.294668">
        <ele>1114.3</ele>
        <time>2016-06-10T12:50:39Z</time>
      </trkpt>
      <trkpt lat="42.565059" lon="-0.294014">
        <ele>1112.4</ele>
        <time>2016-06-10T12:50:47Z</time>
      </trkpt>
      <trkpt lat="42.565094" lon="-0.293853">
        <ele>1111.9</ele>
        <time>2016-06-10T12:50:49Z</time>
      </trkpt>
      <trkpt lat="42.565277" lon="-0.293541">
        <ele>1110.0</ele>
        <time>2016-06-10T12:50:55Z</time>
      </trkpt>
      <trkpt lat="42.565323" lon="-0.293404">
        <ele>1109.5</ele>
        <time>2016-06-10T12:50:57Z</time>
      </trkpt>
      <trkpt lat="42.565387" lon="-0.293243">
        <ele>1108.5</ele>
        <time>2016-06-10T12:51:00Z</time>
      </trkpt>
      <trkpt lat="42.565429" lon="-0.293139">
        <ele>1108.5</ele>
        <time>2016-06-10T12:51:02Z</time>
      </trkpt>
      <trkpt lat="42.565666" lon="-0.292626">
        <ele>1106.1</ele>
        <time>2016-06-10T12:51:13Z</time>
      </trkpt>
      <trkpt lat="42.565801" lon="-0.292340">
        <ele>1108.1</ele>
        <time>2016-06-10T12:52:13Z</time>
      </trkpt>
      <trkpt lat="42.565883" lon="-0.292235">
        <ele>1107.1</ele>
        <time>2016-06-10T12:52:16Z</time>
      </trkpt>
      <trkpt lat="42.566018" lon="-0.292087">
        <ele>1105.7</ele>
        <time>2016-06-10T12:52:20Z</time>
      </trkpt>
      <trkpt lat="42.566221" lon="-0.291611">
        <ele>1099.9</ele>
        <time>2016-06-10T12:52:28Z</time>
      </trkpt>
      <trkpt lat="42.566280" lon="-0.291344">
        <ele>1097.5</ele>
        <time>2016-06-10T12:52:32Z</time>
      </trkpt>
      <trkpt lat="42.566276" lon="-0.291124">
        <ele>1096.0</ele>
        <time>2016-06-10T12:52:35Z</time>
      </trkpt>
      <trkpt lat="42.566334" lon="-0.290901">
        <ele>1094.6</ele>
        <time>2016-06-10T12:52:39Z</time>
      </trkpt>
      <trkpt lat="42.566395" lon="-0.290825">
        <ele>1094.1</ele>
        <time>2016-06-10T12:52:41Z</time>
      </trkpt>
      <trkpt lat="42.566532" lon="-0.290419">
        <ele>1090.3</ele>
        <time>2016-06-10T12:52:49Z</time>
      </trkpt>
      <trkpt lat="42.566575" lon="-0.290395">
        <ele>1090.3</ele>
        <time>2016-06-10T12:52:50Z</time>
      </trkpt>
      <trkpt lat="42.566776" lon="-0.290201">
        <ele>1088.4</ele>
        <time>2016-06-10T12:52:55Z</time>
      </trkpt>
      <trkpt lat="42.566919" lon="-0.289845">
        <ele>1085.5</ele>
        <time>2016-06-10T12:53:00Z</time>
      </trkpt>
      <trkpt lat="42.567396" lon="-0.289201">
        <ele>1081.1</ele>
        <time>2016-06-10T12:53:12Z</time>
      </trkpt>
      <trkpt lat="42.567472" lon="-0.289079">
        <ele>1080.7</ele>
        <time>2016-06-10T12:53:14Z</time>
      </trkpt>
      <trkpt lat="42.567634" lon="-0.288758">
        <ele>1080.7</ele>
        <time>2016-06-10T12:53:19Z</time>
      </trkpt>
      <trkpt lat="42.567859" lon="-0.288524">
        <ele>1081.1</ele>
        <time>2016-06-10T12:53:25Z</time>
      </trkpt>
      <trkpt lat="42.567948" lon="-0.288476">
        <ele>1081.1</ele>
        <time>2016-06-10T12:53:27Z</time>
      </trkpt>
      <trkpt lat="42.568124" lon="-0.288304">
        <ele>1081.1</ele>
        <time>2016-06-10T12:53:32Z</time>
      </trkpt>
      <trkpt lat="42.568237" lon="-0.288203">
        <ele>1080.7</ele>
        <time>2016-06-10T12:53:35Z</time>
      </trkpt>
      <trkpt lat="42.568447" lon="-0.287897">
        <ele>1078.7</ele>
        <time>2016-06-10T12:53:41Z</time>
      </trkpt>
      <trkpt lat="42.568503" lon="-0.287767">
        <ele>1077.3</ele>
        <time>2016-06-10T12:53:43Z</time>
      </trkpt>
      <trkpt lat="42.568605" lon="-0.286889">
        <ele>1071.5</ele>
        <time>2016-06-10T12:53:54Z</time>
      </trkpt>
      <trkpt lat="42.568530" lon="-0.286146">
        <ele>1069.1</ele>
        <time>2016-06-10T12:54:03Z</time>
      </trkpt>
      <trkpt lat="42.568512" lon="-0.285742">
        <ele>1067.7</ele>
        <time>2016-06-10T12:54:08Z</time>
      </trkpt>
      <trkpt lat="42.568531" lon="-0.285411">
        <ele>1065.3</ele>
        <time>2016-06-10T12:54:12Z</time>
      </trkpt>
      <trkpt lat="42.568620" lon="-0.284813">
        <ele>1062.4</ele>
        <time>2016-06-10T12:54:19Z</time>
      </trkpt>
      <trkpt lat="42.568594" lon="-0.284037">
        <ele>1060.0</ele>
        <time>2016-06-10T12:54:28Z</time>
      </trkpt>
      <trkpt lat="42.568836" lon="-0.283105">
        <ele>1056.6</ele>
        <time>2016-06-10T12:54:39Z</time>
      </trkpt>
      <trkpt lat="42.568909" lon="-0.282756">
        <ele>1054.2</ele>
        <time>2016-06-10T12:54:43Z</time>
      </trkpt>
      <trkpt lat="42.569052" lon="-0.282326">
        <ele>1050.4</ele>
        <time>2016-06-10T12:54:51Z</time>
      </trkpt>
      <trkpt lat="42.569109" lon="-0.282388">
        <ele>1049.9</ele>
        <time>2016-06-10T12:54:53Z</time>
      </trkpt>
      <trkpt lat="42.569385" lon="-0.283305">
        <ele>1042.7</ele>
        <time>2016-06-10T12:55:06Z</time>
      </trkpt>
      <trkpt lat="42.569473" lon="-0.283672">
        <ele>1040.3</ele>
        <time>2016-06-10T12:55:10Z</time>
      </trkpt>
      <trkpt lat="42.569620" lon="-0.284117">
        <ele>1036.0</ele>
        <time>2016-06-10T12:55:15Z</time>
      </trkpt>
      <trkpt lat="42.569777" lon="-0.284513">
        <ele>1031.6</ele>
        <time>2016-06-10T12:55:23Z</time>
      </trkpt>
      <trkpt lat="42.569811" lon="-0.284433">
        <ele>1030.7</ele>
        <time>2016-06-10T12:55:25Z</time>
      </trkpt>
      <trkpt lat="42.569834" lon="-0.284322">
        <ele>1030.7</ele>
        <time>2016-06-10T12:55:27Z</time>
      </trkpt>
      <trkpt lat="42.569876" lon="-0.283963">
        <ele>1029.7</ele>
        <time>2016-06-10T12:55:33Z</time>
      </trkpt>
      <trkpt lat="42.569863" lon="-0.283662">
        <ele>1028.3</ele>
        <time>2016-06-10T12:55:37Z</time>
      </trkpt>
      <trkpt lat="42.569921" lon="-0.283358">
        <ele>1026.8</ele>
        <time>2016-06-10T12:55:41Z</time>
      </trkpt>
      <trkpt lat="42.569993" lon="-0.282795">
        <ele>1023.9</ele>
        <time>2016-06-10T12:55:47Z</time>
      </trkpt>
      <trkpt lat="42.570120" lon="-0.282167">
        <ele>1020.1</ele>
        <time>2016-06-10T12:55:53Z</time>
      </trkpt>
      <trkpt lat="42.570029" lon="-0.281410">
        <ele>1015.8</ele>
        <time>2016-06-10T12:56:01Z</time>
      </trkpt>
      <trkpt lat="42.569812" lon="-0.281000">
        <ele>1013.4</ele>
        <time>2016-06-10T12:56:06Z</time>
      </trkpt>
      <trkpt lat="42.569566" lon="-0.280794">
        <ele>1011.0</ele>
        <time>2016-06-10T12:56:10Z</time>
      </trkpt>
      <trkpt lat="42.569297" lon="-0.280362">
        <ele>1008.6</ele>
        <time>2016-06-10T12:56:19Z</time>
      </trkpt>
      <trkpt lat="42.569505" lon="-0.280407">
        <ele>1008.1</ele>
        <time>2016-06-10T12:56:23Z</time>
      </trkpt>
      <trkpt lat="42.569839" lon="-0.280747">
        <ele>1007.1</ele>
        <time>2016-06-10T12:56:30Z</time>
      </trkpt>
      <trkpt lat="42.569944" lon="-0.280888">
        <ele>1007.6</ele>
        <time>2016-06-10T12:56:33Z</time>
      </trkpt>
      <trkpt lat="42.570004" lon="-0.280989">
        <ele>1007.6</ele>
        <time>2016-06-10T12:56:35Z</time>
      </trkpt>
      <trkpt lat="42.570085" lon="-0.281128">
        <ele>1006.6</ele>
        <time>2016-06-10T12:56:38Z</time>
      </trkpt>
      <trkpt lat="42.570318" lon="-0.281662">
        <ele>1002.8</ele>
        <time>2016-06-10T12:56:49Z</time>
      </trkpt>
      <trkpt lat="42.570532" lon="-0.282389">
        <ele>994.1</ele>
        <time>2016-06-10T12:57:02Z</time>
      </trkpt>
      <trkpt lat="42.570710" lon="-0.283050">
        <ele>993.2</ele>
        <time>2016-06-10T12:57:16Z</time>
      </trkpt>
      <trkpt lat="42.570723" lon="-0.283152">
        <ele>993.7</ele>
        <time>2016-06-10T12:57:18Z</time>
      </trkpt>
      <trkpt lat="42.570922" lon="-0.283338">
        <ele>993.2</ele>
        <time>2016-06-10T12:57:24Z</time>
      </trkpt>
      <trkpt lat="42.571373" lon="-0.283607">
        <ele>993.7</ele>
        <time>2016-06-10T12:57:32Z</time>
      </trkpt>
      <trkpt lat="42.571537" lon="-0.284052">
        <ele>991.7</ele>
        <time>2016-06-10T12:57:37Z</time>
      </trkpt>
      <trkpt lat="42.571605" lon="-0.284710">
        <ele>987.4</ele>
        <time>2016-06-10T12:57:43Z</time>
      </trkpt>
      <trkpt lat="42.571615" lon="-0.285164">
        <ele>983.1</ele>
        <time>2016-06-10T12:57:49Z</time>
      </trkpt>
      <trkpt lat="42.571597" lon="-0.285297">
        <ele>982.1</ele>
        <time>2016-06-10T12:57:51Z</time>
      </trkpt>
      <trkpt lat="42.571580" lon="-0.285439">
        <ele>981.6</ele>
        <time>2016-06-10T12:57:53Z</time>
      </trkpt>
      <trkpt lat="42.571541" lon="-0.285744">
        <ele>980.2</ele>
        <time>2016-06-10T12:57:57Z</time>
      </trkpt>
      <trkpt lat="42.571522" lon="-0.285904">
        <ele>979.7</ele>
        <time>2016-06-10T12:57:59Z</time>
      </trkpt>
      <trkpt lat="42.571516" lon="-0.286270">
        <ele>978.3</ele>
        <time>2016-06-10T12:58:04Z</time>
      </trkpt>
      <trkpt lat="42.571484" lon="-0.286564">
        <ele>976.4</ele>
        <time>2016-06-10T12:58:08Z</time>
      </trkpt>
      <trkpt lat="42.571541" lon="-0.286990">
        <ele>975.9</ele>
        <time>2016-06-10T12:58:17Z</time>
      </trkpt>
      <trkpt lat="42.571617" lon="-0.286922">
        <ele>976.8</ele>
        <time>2016-06-10T12:58:20Z</time>
      </trkpt>
      <trkpt lat="42.571764" lon="-0.286779">
        <ele>977.8</ele>
        <time>2016-06-10T12:58:24Z</time>
      </trkpt>
      <trkpt lat="42.571858" lon="-0.286706">
        <ele>978.3</ele>
        <time>2016-06-10T12:58:26Z</time>
      </trkpt>
      <trkpt lat="42.572064" lon="-0.286516">
        <ele>980.2</ele>
        <time>2016-06-10T12:58:30Z</time>
      </trkpt>
      <trkpt lat="42.572370" lon="-0.286292">
        <ele>982.1</ele>
        <time>2016-06-10T12:58:36Z</time>
      </trkpt>
      <trkpt lat="42.572709" lon="-0.286249">
        <ele>983.1</ele>
        <time>2016-06-10T12:58:42Z</time>
      </trkpt>
      <trkpt lat="42.573036" lon="-0.286598">
        <ele>983.6</ele>
        <time>2016-06-10T12:58:48Z</time>
      </trkpt>
      <trkpt lat="42.573163" lon="-0.286788">
        <ele>983.1</ele>
        <time>2016-06-10T12:58:51Z</time>
      </trkpt>
      <trkpt lat="42.573302" lon="-0.286930">
        <ele>982.1</ele>
        <time>2016-06-10T12:58:54Z</time>
      </trkpt>
      <trkpt lat="42.573439" lon="-0.287121">
        <ele>981.6</ele>
        <time>2016-06-10T12:58:58Z</time>
      </trkpt>
      <trkpt lat="42.573478" lon="-0.287236">
        <ele>981.2</ele>
        <time>2016-06-10T12:59:00Z</time>
      </trkpt>
      <trkpt lat="42.573663" lon="-0.287821">
        <ele>977.8</ele>
        <time>2016-06-10T12:59:10Z</time>
      </trkpt>
      <trkpt lat="42.573811" lon="-0.288102">
        <ele>975.4</ele>
        <time>2016-06-10T12:59:15Z</time>
      </trkpt>
      <trkpt lat="42.573873" lon="-0.288276">
        <ele>974.4</ele>
        <time>2016-06-10T12:59:18Z</time>
      </trkpt>
      <trkpt lat="42.573943" lon="-0.288438">
        <ele>973.5</ele>
        <time>2016-06-10T12:59:21Z</time>
      </trkpt>
      <trkpt lat="42.573947" lon="-0.288786">
        <ele>971.6</ele>
        <time>2016-06-10T12:59:27Z</time>
      </trkpt>
      <trkpt lat="42.574032" lon="-0.289305">
        <ele>968.2</ele>
        <time>2016-06-10T12:59:33Z</time>
      </trkpt>
      <trkpt lat="42.574111" lon="-0.289835">
        <ele>965.3</ele>
        <time>2016-06-10T12:59:38Z</time>
      </trkpt>
      <trkpt lat="42.574252" lon="-0.290241">
        <ele>961.9</ele>
        <time>2016-06-10T12:59:45Z</time>
      </trkpt>
      <trkpt lat="42.574420" lon="-0.290924">
        <ele>955.7</ele>
        <time>2016-06-10T12:59:53Z</time>
      </trkpt>
      <trkpt lat="42.574589" lon="-0.291354">
        <ele>952.3</ele>
        <time>2016-06-10T12:59:57Z</time>
      </trkpt>
      <trkpt lat="42.574759" lon="-0.291983">
        <ele>948.0</ele>
        <time>2016-06-10T13:00:02Z</time>
      </trkpt>
      <trkpt lat="42.574877" lon="-0.292793">
        <ele>943.7</ele>
        <time>2016-06-10T13:00:08Z</time>
      </trkpt>
      <trkpt lat="42.574862" lon="-0.293298">
        <ele>941.3</ele>
        <time>2016-06-10T13:00:12Z</time>
      </trkpt>
      <trkpt lat="42.574838" lon="-0.293743">
        <ele>939.4</ele>
        <time>2016-06-10T13:00:17Z</time>
      </trkpt>
      <trkpt lat="42.574724" lon="-0.293979">
        <ele>937.4</ele>
        <time>2016-06-10T13:00:20Z</time>
      </trkpt>
      <trkpt lat="42.574650" lon="-0.294441">
        <ele>935.0</ele>
        <time>2016-06-10T13:00:25Z</time>
      </trkpt>
      <trkpt lat="42.574510" lon="-0.294948">
        <ele>930.7</ele>
        <time>2016-06-10T13:00:31Z</time>
      </trkpt>
      <trkpt lat="42.574395" lon="-0.295062">
        <ele>929.3</ele>
        <time>2016-06-10T13:00:33Z</time>
      </trkpt>
      <trkpt lat="42.574253" lon="-0.295346">
        <ele>925.4</ele>
        <time>2016-06-10T13:00:37Z</time>
      </trkpt>
      <trkpt lat="42.574026" lon="-0.295533">
        <ele>921.6</ele>
        <time>2016-06-10T13:00:42Z</time>
      </trkpt>
      <trkpt lat="42.573912" lon="-0.295538">
        <ele>921.1</ele>
        <time>2016-06-10T13:00:44Z</time>
      </trkpt>
      <trkpt lat="42.573586" lon="-0.295672">
        <ele>919.2</ele>
        <time>2016-06-10T13:00:49Z</time>
      </trkpt>
      <trkpt lat="42.573404" lon="-0.295779">
        <ele>918.2</ele>
        <time>2016-06-10T13:00:51Z</time>
      </trkpt>
      <trkpt lat="42.573118" lon="-0.295779">
        <ele>918.2</ele>
        <time>2016-06-10T13:00:55Z</time>
      </trkpt>
      <trkpt lat="42.572995" lon="-0.295716">
        <ele>917.7</ele>
        <time>2016-06-10T13:00:57Z</time>
      </trkpt>
      <trkpt lat="42.572823" lon="-0.295773">
        <ele>917.2</ele>
        <time>2016-06-10T13:01:01Z</time>
      </trkpt>
      <trkpt lat="42.573070" lon="-0.295977">
        <ele>916.8</ele>
        <time>2016-06-10T13:01:07Z</time>
      </trkpt>
      <trkpt lat="42.573854" lon="-0.296106">
        <ele>912.4</ele>
        <time>2016-06-10T13:01:17Z</time>
      </trkpt>
      <trkpt lat="42.574189" lon="-0.296236">
        <ele>911.0</ele>
        <time>2016-06-10T13:01:21Z</time>
      </trkpt>
      <trkpt lat="42.574434" lon="-0.296297">
        <ele>911.0</ele>
        <time>2016-06-10T13:01:24Z</time>
      </trkpt>
      <trkpt lat="42.574604" lon="-0.296350">
        <ele>910.5</ele>
        <time>2016-06-10T13:01:26Z</time>
      </trkpt>
      <trkpt lat="42.574934" lon="-0.296289">
        <ele>910.5</ele>
        <time>2016-06-10T13:01:31Z</time>
      </trkpt>
      <trkpt lat="42.575225" lon="-0.295947">
        <ele>907.1</ele>
        <time>2016-06-10T13:01:37Z</time>
      </trkpt>
      <trkpt lat="42.575336" lon="-0.295663">
        <ele>904.3</ele>
        <time>2016-06-10T13:01:41Z</time>
      </trkpt>
      <trkpt lat="42.575419" lon="-0.295419">
        <ele>901.4</ele>
        <time>2016-06-10T13:01:44Z</time>
      </trkpt>
      <trkpt lat="42.575837" lon="-0.294962">
        <ele>895.6</ele>
        <time>2016-06-10T13:01:51Z</time>
      </trkpt>
      <trkpt lat="42.576028" lon="-0.294929">
        <ele>893.2</ele>
        <time>2016-06-10T13:01:55Z</time>
      </trkpt>
      <trkpt lat="42.576283" lon="-0.295135">
        <ele>892.7</ele>
        <time>2016-06-10T13:02:02Z</time>
      </trkpt>
      <trkpt lat="42.576253" lon="-0.295357">
        <ele>891.3</ele>
        <time>2016-06-10T13:02:07Z</time>
      </trkpt>
      <trkpt lat="42.576132" lon="-0.295626">
        <ele>889.4</ele>
        <time>2016-06-10T13:02:12Z</time>
      </trkpt>
      <trkpt lat="42.575980" lon="-0.296073">
        <ele>886.0</ele>
        <time>2016-06-10T13:02:18Z</time>
      </trkpt>
      <trkpt lat="42.575580" lon="-0.296992">
        <ele>880.2</ele>
        <time>2016-06-10T13:02:28Z</time>
      </trkpt>
      <trkpt lat="42.575158" lon="-0.297423">
        <ele>877.3</ele>
        <time>2016-06-10T13:02:35Z</time>
      </trkpt>
      <trkpt lat="42.574928" lon="-0.297691">
        <ele>875.4</ele>
        <time>2016-06-10T13:02:39Z</time>
      </trkpt>
      <trkpt lat="42.574666" lon="-0.298136">
        <ele>872.1</ele>
        <time>2016-06-10T13:02:44Z</time>
      </trkpt>
      <trkpt lat="42.574049" lon="-0.298687">
        <ele>869.7</ele>
        <time>2016-06-10T13:02:53Z</time>
      </trkpt>
      <trkpt lat="42.573842" lon="-0.299014">
        <ele>869.2</ele>
        <time>2016-06-10T13:03:01Z</time>
      </trkpt>
      <trkpt lat="42.573741" lon="-0.300047">
        <ele>860.5</ele>
        <time>2016-06-10T13:03:13Z</time>
      </trkpt>
      <trkpt lat="42.573751" lon="-0.300255">
        <ele>859.1</ele>
        <time>2016-06-10T13:03:15Z</time>
      </trkpt>
      <trkpt lat="42.573708" lon="-0.300670">
        <ele>857.2</ele>
        <time>2016-06-10T13:03:19Z</time>
      </trkpt>
      <trkpt lat="42.573568" lon="-0.301147">
        <ele>856.7</ele>
        <time>2016-06-10T13:03:24Z</time>
      </trkpt>
      <trkpt lat="42.573521" lon="-0.301520">
        <ele>855.7</ele>
        <time>2016-06-10T13:03:28Z</time>
      </trkpt>
      <trkpt lat="42.573488" lon="-0.302141">
        <ele>853.8</ele>
        <time>2016-06-10T13:03:35Z</time>
      </trkpt>
      <trkpt lat="42.573234" lon="-0.303095">
        <ele>849.9</ele>
        <time>2016-06-10T13:03:45Z</time>
      </trkpt>
      <trkpt lat="42.573225" lon="-0.303459">
        <ele>849.0</ele>
        <time>2016-06-10T13:03:49Z</time>
      </trkpt>
      <trkpt lat="42.573310" lon="-0.304379">
        <ele>846.1</ele>
        <time>2016-06-10T13:03:59Z</time>
      </trkpt>
      <trkpt lat="42.573203" lon="-0.305240">
        <ele>843.2</ele>
        <time>2016-06-10T13:04:09Z</time>
      </trkpt>
      <trkpt lat="42.573027" lon="-0.306293">
        <ele>841.8</ele>
        <time>2016-06-10T13:04:23Z</time>
      </trkpt>
      <trkpt lat="42.573001" lon="-0.306495">
        <ele>841.3</ele>
        <time>2016-06-10T13:04:26Z</time>
      </trkpt>
      <trkpt lat="42.573047" lon="-0.306856">
        <ele>839.9</ele>
        <time>2016-06-10T13:04:31Z</time>
      </trkpt>
      <trkpt lat="42.573042" lon="-0.307489">
        <ele>837.0</ele>
        <time>2016-06-10T13:04:39Z</time>
      </trkpt>
      <trkpt lat="42.573053" lon="-0.307729">
        <ele>836.0</ele>
        <time>2016-06-10T13:04:42Z</time>
      </trkpt>
      <trkpt lat="42.573020" lon="-0.308226">
        <ele>834.6</ele>
        <time>2016-06-10T13:04:49Z</time>
      </trkpt>
      <trkpt lat="42.572645" lon="-0.308858">
        <ele>833.6</ele>
        <time>2016-06-10T13:05:02Z</time>
      </trkpt>
      <trkpt lat="42.572539" lon="-0.309053">
        <ele>832.6</ele>
        <time>2016-06-10T13:05:06Z</time>
      </trkpt>
      <trkpt lat="42.572422" lon="-0.309243">
        <ele>831.7</ele>
        <time>2016-06-10T13:05:10Z</time>
      </trkpt>
      <trkpt lat="42.572338" lon="-0.309387">
        <ele>831.2</ele>
        <time>2016-06-10T13:05:13Z</time>
      </trkpt>
      <trkpt lat="42.572231" lon="-0.309590">
        <ele>830.2</ele>
        <time>2016-06-10T13:05:17Z</time>
      </trkpt>
      <trkpt lat="42.572172" lon="-0.309678">
        <ele>830.2</ele>
        <time>2016-06-10T13:05:19Z</time>
      </trkpt>
      <trkpt lat="42.572068" lon="-0.309847">
        <ele>829.8</ele>
        <time>2016-06-10T13:05:23Z</time>
      </trkpt>
      <trkpt lat="42.571936" lon="-0.310081">
        <ele>829.3</ele>
        <time>2016-06-10T13:05:28Z</time>
      </trkpt>
      <trkpt lat="42.571879" lon="-0.310172">
        <ele>828.8</ele>
        <time>2016-06-10T13:05:30Z</time>
      </trkpt>
      <trkpt lat="42.571828" lon="-0.310266">
        <ele>828.3</ele>
        <time>2016-06-10T13:05:32Z</time>
      </trkpt>
      <trkpt lat="42.571365" lon="-0.311096">
        <ele>824.5</ele>
        <time>2016-06-10T13:05:49Z</time>
      </trkpt>
      <trkpt lat="42.571089" lon="-0.311551">
        <ele>823.5</ele>
        <time>2016-06-10T13:05:58Z</time>
      </trkpt>
      <trkpt lat="42.571036" lon="-0.311658">
        <ele>823.5</ele>
        <time>2016-06-10T13:06:00Z</time>
      </trkpt>
      <trkpt lat="42.570685" lon="-0.312241">
        <ele>821.6</ele>
        <time>2016-06-10T13:06:11Z</time>
      </trkpt>
      <trkpt lat="42.570588" lon="-0.312649">
        <ele>819.7</ele>
        <time>2016-06-10T13:06:17Z</time>
      </trkpt>
      <trkpt lat="42.570434" lon="-0.313007">
        <ele>818.7</ele>
        <time>2016-06-10T13:06:23Z</time>
      </trkpt>
      <trkpt lat="42.570017" lon="-0.313511">
        <ele>817.3</ele>
        <time>2016-06-10T13:06:33Z</time>
      </trkpt>
      <trkpt lat="42.569942" lon="-0.313611">
        <ele>816.8</ele>
        <time>2016-06-10T13:06:35Z</time>
      </trkpt>
      <trkpt lat="42.569753" lon="-0.313819">
        <ele>816.3</ele>
        <time>2016-06-10T13:06:40Z</time>
      </trkpt>
      <trkpt lat="42.569385" lon="-0.314046">
        <ele>814.9</ele>
        <time>2016-06-10T13:06:48Z</time>
      </trkpt>
      <trkpt lat="42.569202" lon="-0.314131">
        <ele>814.4</ele>
        <time>2016-06-10T13:06:52Z</time>
      </trkpt>
      <trkpt lat="42.568511" lon="-0.314094">
        <ele>814.9</ele>
        <time>2016-06-10T13:07:07Z</time>
      </trkpt>
      <trkpt lat="42.567811" lon="-0.314007">
        <ele>813.9</ele>
        <time>2016-06-10T13:07:23Z</time>
      </trkpt>
      <trkpt lat="42.567134" lon="-0.313886">
        <ele>813.4</ele>
        <time>2016-06-10T13:07:39Z</time>
      </trkpt>
      <trkpt lat="42.566918" lon="-0.313918">
        <ele>812.9</ele>
        <time>2016-06-10T13:07:45Z</time>
      </trkpt>
      <trkpt lat="42.566190" lon="-0.313775">
        <ele>812.0</ele>
        <time>2016-06-10T13:08:02Z</time>
      </trkpt>
      <trkpt lat="42.565493" lon="-0.313639">
        <ele>812.0</ele>
        <time>2016-06-10T13:08:19Z</time>
      </trkpt>
      <trkpt lat="42.564774" lon="-0.313485">
        <ele>812.5</ele>
        <time>2016-06-10T13:08:37Z</time>
      </trkpt>
      <trkpt lat="42.564215" lon="-0.313392">
        <ele>812.9</ele>
        <time>2016-06-10T13:08:53Z</time>
      </trkpt>
      <trkpt lat="42.563757" lon="-0.313281">
        <ele>813.4</ele>
        <time>2016-06-10T13:09:08Z</time>
      </trkpt>
      <trkpt lat="42.563649" lon="-0.313195">
        <ele>812.0</ele>
        <time>2016-06-10T13:24:18Z</time>
      </trkpt>
      <trkpt lat="42.563570" lon="-0.313163">
        <ele>812.9</ele>
        <time>2016-06-10T13:24:32Z</time>
      </trkpt>
      <trkpt lat="42.563367" lon="-0.313095">
        <ele>814.4</ele>
        <time>2016-06-10T13:24:44Z</time>
      </trkpt>
      <trkpt lat="42.563104" lon="-0.313026">
        <ele>816.8</ele>
        <time>2016-06-10T13:24:59Z</time>
      </trkpt>
      <trkpt lat="42.562774" lon="-0.312981">
        <ele>819.2</ele>
        <time>2016-06-10T13:25:17Z</time>
      </trkpt>
      <trkpt lat="42.562498" lon="-0.312935">
        <ele>821.6</ele>
        <time>2016-06-10T13:25:33Z</time>
      </trkpt>
      <trkpt lat="42.562205" lon="-0.312930">
        <ele>825.4</ele>
        <time>2016-06-10T13:25:50Z</time>
      </trkpt>
      <trkpt lat="42.561903" lon="-0.312916">
        <ele>827.4</ele>
        <time>2016-06-10T13:26:07Z</time>
      </trkpt>
      <trkpt lat="42.561617" lon="-0.312897">
        <ele>827.4</ele>
        <time>2016-06-10T13:26:24Z</time>
      </trkpt>
      <trkpt lat="42.561374" lon="-0.312894">
        <ele>830.2</ele>
        <time>2016-06-10T13:26:38Z</time>
      </trkpt>
      <trkpt lat="42.561071" lon="-0.312916">
        <ele>833.1</ele>
        <time>2016-06-10T13:26:55Z</time>
      </trkpt>
      <trkpt lat="42.560884" lon="-0.313018">
        <ele>832.6</ele>
        <time>2016-06-10T13:27:06Z</time>
      </trkpt>
      <trkpt lat="42.560599" lon="-0.313321">
        <ele>835.0</ele>
        <time>2016-06-10T13:27:25Z</time>
      </trkpt>
      <trkpt lat="42.560418" lon="-0.313535">
        <ele>836.0</ele>
        <time>2016-06-10T13:27:38Z</time>
      </trkpt>
      <trkpt lat="42.560145" lon="-0.313855">
        <ele>837.9</ele>
        <time>2016-06-10T13:27:55Z</time>
      </trkpt>
      <trkpt lat="42.559801" lon="-0.314240">
        <ele>839.9</ele>
        <time>2016-06-10T13:28:16Z</time>
      </trkpt>
      <trkpt lat="42.559510" lon="-0.314482">
        <ele>840.8</ele>
        <time>2016-06-10T13:28:31Z</time>
      </trkpt>
      <trkpt lat="42.559181" lon="-0.314782">
        <ele>841.8</ele>
        <time>2016-06-10T13:28:47Z</time>
      </trkpt>
      <trkpt lat="42.558936" lon="-0.315280">
        <ele>842.3</ele>
        <time>2016-06-10T13:29:03Z</time>
      </trkpt>
      <trkpt lat="42.558768" lon="-0.315547">
        <ele>840.8</ele>
        <time>2016-06-10T13:29:10Z</time>
      </trkpt>
      <trkpt lat="42.558078" lon="-0.316156">
        <ele>836.0</ele>
        <time>2016-06-10T13:29:24Z</time>
      </trkpt>
      <trkpt lat="42.556777" lon="-0.317156">
        <ele>826.9</ele>
        <time>2016-06-10T13:29:43Z</time>
      </trkpt>
      <trkpt lat="42.555779" lon="-0.317750">
        <ele>825.0</ele>
        <time>2016-06-10T13:29:59Z</time>
      </trkpt>
      <trkpt lat="42.555315" lon="-0.317981">
        <ele>826.4</ele>
        <time>2016-06-10T13:30:11Z</time>
      </trkpt>
      <trkpt lat="42.554884" lon="-0.317963">
        <ele>828.8</ele>
        <time>2016-06-10T13:30:26Z</time>
      </trkpt>
      <trkpt lat="42.554461" lon="-0.317835">
        <ele>830.7</ele>
        <time>2016-06-10T13:30:44Z</time>
      </trkpt>
      <trkpt lat="42.554108" lon="-0.317767">
        <ele>832.6</ele>
        <time>2016-06-10T13:31:00Z</time>
      </trkpt>
      <trkpt lat="42.553867" lon="-0.317827">
        <ele>833.1</ele>
        <time>2016-06-10T13:31:09Z</time>
      </trkpt>
      <trkpt lat="42.553569" lon="-0.317998">
        <ele>831.2</ele>
        <time>2016-06-10T13:31:16Z</time>
      </trkpt>
      <trkpt lat="42.552648" lon="-0.318182">
        <ele>828.8</ele>
        <time>2016-06-10T13:31:35Z</time>
      </trkpt>
      <trkpt lat="42.552482" lon="-0.318190">
        <ele>828.3</ele>
        <time>2016-06-10T13:31:38Z</time>
      </trkpt>
      <trkpt lat="42.552138" lon="-0.318034">
        <ele>830.7</ele>
        <time>2016-06-10T13:31:49Z</time>
      </trkpt>
      <trkpt lat="42.551815" lon="-0.317791">
        <ele>833.1</ele>
        <time>2016-06-10T13:32:07Z</time>
      </trkpt>
      <trkpt lat="42.551552" lon="-0.318258">
        <ele>829.8</ele>
        <time>2016-06-10T13:32:16Z</time>
      </trkpt>
      <trkpt lat="42.550980" lon="-0.319434">
        <ele>820.6</ele>
        <time>2016-06-10T13:32:28Z</time>
      </trkpt>
      <trkpt lat="42.550505" lon="-0.320915">
        <ele>812.0</ele>
        <time>2016-06-10T13:32:40Z</time>
      </trkpt>
      <trkpt lat="42.549898" lon="-0.322772">
        <ele>801.9</ele>
        <time>2016-06-10T13:32:55Z</time>
      </trkpt>
      <trkpt lat="42.549867" lon="-0.324144">
        <ele>798.0</ele>
        <time>2016-06-10T13:33:06Z</time>
      </trkpt>
      <trkpt lat="42.549745" lon="-0.325276">
        <ele>795.6</ele>
        <time>2016-06-10T13:33:17Z</time>
      </trkpt>
      <trkpt lat="42.549686" lon="-0.325694">
        <ele>795.2</ele>
        <time>2016-06-10T13:33:22Z</time>
      </trkpt>
      <trkpt lat="42.549843" lon="-0.326213">
        <ele>794.7</ele>
        <time>2016-06-10T13:33:31Z</time>
      </trkpt>
      <trkpt lat="42.549963" lon="-0.326634">
        <ele>795.6</ele>
        <time>2016-06-10T13:33:40Z</time>
      </trkpt>
      <trkpt lat="42.549962" lon="-0.327148">
        <ele>795.2</ele>
        <time>2016-06-10T13:33:50Z</time>
      </trkpt>
      <trkpt lat="42.549957" lon="-0.327449">
        <ele>793.7</ele>
        <time>2016-06-10T13:33:55Z</time>
      </trkpt>
      <trkpt lat="42.549939" lon="-0.327651">
        <ele>792.7</ele>
        <time>2016-06-10T13:33:58Z</time>
      </trkpt>
      <trkpt lat="42.549938" lon="-0.328835">
        <ele>790.3</ele>
        <time>2016-06-10T13:34:17Z</time>
      </trkpt>
      <trkpt lat="42.549964" lon="-0.329276">
        <ele>791.8</ele>
        <time>2016-06-10T13:34:30Z</time>
      </trkpt>
      <trkpt lat="42.549976" lon="-0.329629">
        <ele>793.2</ele>
        <time>2016-06-10T13:34:40Z</time>
      </trkpt>
      <trkpt lat="42.549984" lon="-0.329953">
        <ele>793.7</ele>
        <time>2016-06-10T13:34:50Z</time>
      </trkpt>
      <trkpt lat="42.549867" lon="-0.330140">
        <ele>795.2</ele>
        <time>2016-06-10T13:35:02Z</time>
      </trkpt>
      <trkpt lat="42.549620" lon="-0.330385">
        <ele>794.7</ele>
        <time>2016-06-10T13:35:17Z</time>
      </trkpt>
      <trkpt lat="42.549449" lon="-0.330276">
        <ele>796.6</ele>
        <time>2016-06-10T13:35:27Z</time>
      </trkpt>
      <trkpt lat="42.549205" lon="-0.330249">
        <ele>798.5</ele>
        <time>2016-06-10T13:35:41Z</time>
      </trkpt>
      <trkpt lat="42.548875" lon="-0.330349">
        <ele>796.6</ele>
        <time>2016-06-10T13:35:52Z</time>
      </trkpt>
      <trkpt lat="42.548411" lon="-0.330673">
        <ele>791.3</ele>
        <time>2016-06-10T13:36:01Z</time>
      </trkpt>
      <trkpt lat="42.548380" lon="-0.330748">
        <ele>790.8</ele>
        <time>2016-06-10T13:36:02Z</time>
      </trkpt>
      <trkpt lat="42.548327" lon="-0.330905">
        <ele>789.9</ele>
        <time>2016-06-10T13:36:04Z</time>
      </trkpt>
      <trkpt lat="42.548173" lon="-0.331223">
        <ele>788.9</ele>
        <time>2016-06-10T13:36:09Z</time>
      </trkpt>
      <trkpt lat="42.547887" lon="-0.331913">
        <ele>788.9</ele>
        <time>2016-06-10T13:36:24Z</time>
      </trkpt>
      <trkpt lat="42.547812" lon="-0.332341">
        <ele>792.3</ele>
        <time>2016-06-10T13:36:41Z</time>
      </trkpt>
      <trkpt lat="42.547703" lon="-0.332727">
        <ele>794.7</ele>
        <time>2016-06-10T13:36:58Z</time>
      </trkpt>
      <trkpt lat="42.547702" lon="-0.332794">
        <ele>795.6</ele>
        <time>2016-06-10T13:37:01Z</time>
      </trkpt>
      <trkpt lat="42.547723" lon="-0.333145">
        <ele>797.6</ele>
        <time>2016-06-10T13:37:16Z</time>
      </trkpt>
      <trkpt lat="42.547709" lon="-0.333267">
        <ele>798.5</ele>
        <time>2016-06-10T13:37:21Z</time>
      </trkpt>
      <trkpt lat="42.547645" lon="-0.333709">
        <ele>798.5</ele>
        <time>2016-06-10T13:37:36Z</time>
      </trkpt>
      <trkpt lat="42.547664" lon="-0.334399">
        <ele>797.1</ele>
        <time>2016-06-10T13:37:51Z</time>
      </trkpt>
      <trkpt lat="42.547816" lon="-0.334882">
        <ele>796.6</ele>
        <time>2016-06-10T13:38:04Z</time>
      </trkpt>
      <trkpt lat="42.548036" lon="-0.335095">
        <ele>796.6</ele>
        <time>2016-06-10T13:38:15Z</time>
      </trkpt>
      <trkpt lat="42.548170" lon="-0.335096">
        <ele>796.1</ele>
        <time>2016-06-10T13:38:20Z</time>
      </trkpt>
      <trkpt lat="42.548238" lon="-0.335323">
        <ele>796.6</ele>
        <time>2016-06-10T13:38:27Z</time>
      </trkpt>
      <trkpt lat="42.548306" lon="-0.335871">
        <ele>797.1</ele>
        <time>2016-06-10T13:38:43Z</time>
      </trkpt>
      <trkpt lat="42.548398" lon="-0.336471">
        <ele>798.0</ele>
        <time>2016-06-10T13:39:01Z</time>
      </trkpt>
      <trkpt lat="42.548496" lon="-0.337075">
        <ele>798.5</ele>
        <time>2016-06-10T13:39:19Z</time>
      </trkpt>
      <trkpt lat="42.548600" lon="-0.337711">
        <ele>800.0</ele>
        <time>2016-06-10T13:39:38Z</time>
      </trkpt>
      <trkpt lat="42.548672" lon="-0.338265">
        <ele>800.9</ele>
        <time>2016-06-10T13:39:55Z</time>
      </trkpt>
      <trkpt lat="42.548765" lon="-0.338802">
        <ele>801.4</ele>
        <time>2016-06-10T13:40:11Z</time>
      </trkpt>
      <trkpt lat="42.548854" lon="-0.339372">
        <ele>802.4</ele>
        <time>2016-06-10T13:40:28Z</time>
      </trkpt>
      <trkpt lat="42.548948" lon="-0.339974">
        <ele>803.3</ele>
        <time>2016-06-10T13:40:46Z</time>
      </trkpt>
      <trkpt lat="42.549043" lon="-0.340520">
        <ele>804.8</ele>
        <time>2016-06-10T13:41:03Z</time>
      </trkpt>
      <trkpt lat="42.549011" lon="-0.341013">
        <ele>805.2</ele>
        <time>2016-06-10T13:41:17Z</time>
      </trkpt>
      <trkpt lat="42.548963" lon="-0.341450">
        <ele>806.2</ele>
        <time>2016-06-10T13:41:30Z</time>
      </trkpt>
      <trkpt lat="42.548921" lon="-0.341892">
        <ele>806.2</ele>
        <time>2016-06-10T13:41:44Z</time>
      </trkpt>
      <trkpt lat="42.548806" lon="-0.342309">
        <ele>806.2</ele>
        <time>2016-06-10T13:41:59Z</time>
      </trkpt>
      <trkpt lat="42.548831" lon="-0.342643">
        <ele>808.1</ele>
        <time>2016-06-10T13:42:13Z</time>
      </trkpt>
      <trkpt lat="42.548850" lon="-0.342776">
        <ele>808.6</ele>
        <time>2016-06-10T13:42:19Z</time>
      </trkpt>
      <trkpt lat="42.548928" lon="-0.343114">
        <ele>812.0</ele>
        <time>2016-06-10T13:42:36Z</time>
      </trkpt>
      <trkpt lat="42.548949" lon="-0.343269">
        <ele>814.4</ele>
        <time>2016-06-10T13:42:45Z</time>
      </trkpt>
      <trkpt lat="42.548925" lon="-0.343447">
        <ele>816.8</ele>
        <time>2016-06-10T13:42:56Z</time>
      </trkpt>
      <trkpt lat="42.548966" lon="-0.343517">
        <ele>817.7</ele>
        <time>2016-06-10T13:43:01Z</time>
      </trkpt>
      <trkpt lat="42.548981" lon="-0.343603">
        <ele>819.2</ele>
        <time>2016-06-10T13:43:07Z</time>
      </trkpt>
      <trkpt lat="42.549085" lon="-0.343793">
        <ele>824.0</ele>
        <time>2016-06-10T13:43:22Z</time>
      </trkpt>
      <trkpt lat="42.549010" lon="-0.343926">
        <ele>825.4</ele>
        <time>2016-06-10T13:43:33Z</time>
      </trkpt>
      <trkpt lat="42.548945" lon="-0.344161">
        <ele>827.4</ele>
        <time>2016-06-10T13:43:48Z</time>
      </trkpt>
      <trkpt lat="42.548929" lon="-0.344261">
        <ele>827.8</ele>
        <time>2016-06-10T13:43:54Z</time>
      </trkpt>
      <trkpt lat="42.548927" lon="-0.344389">
        <ele>828.8</ele>
        <time>2016-06-10T13:44:00Z</time>
      </trkpt>
      <trkpt lat="42.549021" lon="-0.344641">
        <ele>830.7</ele>
        <time>2016-06-10T13:44:13Z</time>
      </trkpt>
      <trkpt lat="42.548981" lon="-0.344992">
        <ele>833.1</ele>
        <time>2016-06-10T13:44:22Z</time>
      </trkpt>
      <trkpt lat="42.548832" lon="-0.345164">
        <ele>831.2</ele>
        <time>2016-06-10T13:44:26Z</time>
      </trkpt>
      <trkpt lat="42.548734" lon="-0.345248">
        <ele>830.2</ele>
        <time>2016-06-10T13:44:28Z</time>
      </trkpt>
      <trkpt lat="42.548666" lon="-0.345504">
        <ele>828.8</ele>
        <time>2016-06-10T13:44:32Z</time>
      </trkpt>
      <trkpt lat="42.548801" lon="-0.345950">
        <ele>826.9</ele>
        <time>2016-06-10T13:44:37Z</time>
      </trkpt>
      <trkpt lat="42.548847" lon="-0.346179">
        <ele>825.9</ele>
        <time>2016-06-10T13:44:40Z</time>
      </trkpt>
      <trkpt lat="42.548974" lon="-0.346405">
        <ele>825.9</ele>
        <time>2016-06-10T13:44:45Z</time>
      </trkpt>
      <trkpt lat="42.549077" lon="-0.346510">
        <ele>826.4</ele>
        <time>2016-06-10T13:44:49Z</time>
      </trkpt>
      <trkpt lat="42.549286" lon="-0.346407">
        <ele>831.7</ele>
        <time>2016-06-10T14:22:09Z</time>
      </trkpt>
      <trkpt lat="42.549825" lon="-0.345760">
        <ele>825.9</ele>
        <time>2016-06-10T14:22:29Z</time>
      </trkpt>
      <trkpt lat="42.550427" lon="-0.345025">
        <ele>823.0</ele>
        <time>2016-06-10T14:22:50Z</time>
      </trkpt>
      <trkpt lat="42.551057" lon="-0.344263">
        <ele>821.6</ele>
        <time>2016-06-10T14:23:10Z</time>
      </trkpt>
      <trkpt lat="42.551860" lon="-0.343269">
        <ele>820.6</ele>
        <time>2016-06-10T14:23:33Z</time>
      </trkpt>
      <trkpt lat="42.552616" lon="-0.342346">
        <ele>820.6</ele>
        <time>2016-06-10T14:23:53Z</time>
      </trkpt>
      <trkpt lat="42.553358" lon="-0.341434">
        <ele>819.2</ele>
        <time>2016-06-10T14:24:12Z</time>
      </trkpt>
      <trkpt lat="42.554105" lon="-0.340513">
        <ele>818.2</ele>
        <time>2016-06-10T14:24:31Z</time>
      </trkpt>
      <trkpt lat="42.554843" lon="-0.339596">
        <ele>817.3</ele>
        <time>2016-06-10T14:24:49Z</time>
      </trkpt>
      <trkpt lat="42.555736" lon="-0.338493">
        <ele>815.3</ele>
        <time>2016-06-10T14:25:10Z</time>
      </trkpt>
      <trkpt lat="42.556538" lon="-0.337472">
        <ele>814.4</ele>
        <time>2016-06-10T14:25:30Z</time>
      </trkpt>
      <trkpt lat="42.556990" lon="-0.336894">
        <ele>814.4</ele>
        <time>2016-06-10T14:25:43Z</time>
      </trkpt>
      <trkpt lat="42.557076" lon="-0.336703">
        <ele>814.9</ele>
        <time>2016-06-10T14:25:47Z</time>
      </trkpt>
      <trkpt lat="42.557345" lon="-0.336439">
        <ele>814.9</ele>
        <time>2016-06-10T14:25:56Z</time>
      </trkpt>
      <trkpt lat="42.557549" lon="-0.336670">
        <ele>813.9</ele>
        <time>2016-06-10T14:26:07Z</time>
      </trkpt>
      <trkpt lat="42.557669" lon="-0.337177">
        <ele>814.9</ele>
        <time>2016-06-10T14:26:24Z</time>
      </trkpt>
      <trkpt lat="42.557829" lon="-0.337491">
        <ele>818.2</ele>
        <time>2016-06-10T14:26:39Z</time>
      </trkpt>
      <trkpt lat="42.557992" lon="-0.337798">
        <ele>820.1</ele>
        <time>2016-06-10T14:26:54Z</time>
      </trkpt>
      <trkpt lat="42.557925" lon="-0.337838">
        <ele>820.1</ele>
        <time>2016-06-10T14:26:59Z</time>
      </trkpt>
      <trkpt lat="42.557951" lon="-0.337833">
        <ele>821.1</ele>
        <time>2016-06-11T06:48:40Z</time>
      </trkpt>
      <trkpt lat="42.557978" lon="-0.337778">
        <ele>822.1</ele>
        <time>2016-06-11T06:48:54Z</time>
      </trkpt>
      <trkpt lat="42.557807" lon="-0.337412">
        <ele>820.1</ele>
        <time>2016-06-11T06:49:04Z</time>
      </trkpt>
      <trkpt lat="42.557524" lon="-0.336887">
        <ele>815.3</ele>
        <time>2016-06-11T06:49:11Z</time>
      </trkpt>
      <trkpt lat="42.557169" lon="-0.336850">
        <ele>812.9</ele>
        <time>2016-06-11T06:49:18Z</time>
      </trkpt>
      <trkpt lat="42.556625" lon="-0.337567">
        <ele>812.9</ele>
        <time>2016-06-11T06:49:36Z</time>
      </trkpt>
      <trkpt lat="42.556096" lon="-0.338212">
        <ele>812.9</ele>
        <time>2016-06-11T06:49:55Z</time>
      </trkpt>
      <trkpt lat="42.555537" lon="-0.338874">
        <ele>813.9</ele>
        <time>2016-06-11T06:50:15Z</time>
      </trkpt>
      <trkpt lat="42.554960" lon="-0.339575">
        <ele>814.9</ele>
        <time>2016-06-11T06:50:36Z</time>
      </trkpt>
      <trkpt lat="42.554288" lon="-0.340398">
        <ele>816.8</ele>
        <time>2016-06-11T06:51:00Z</time>
      </trkpt>
      <trkpt lat="42.553634" lon="-0.341211">
        <ele>816.8</ele>
        <time>2016-06-11T06:51:22Z</time>
      </trkpt>
      <trkpt lat="42.553062" lon="-0.341912">
        <ele>818.2</ele>
        <time>2016-06-11T06:51:41Z</time>
      </trkpt>
      <trkpt lat="42.552298" lon="-0.342849">
        <ele>819.2</ele>
        <time>2016-06-11T06:52:06Z</time>
      </trkpt>
      <trkpt lat="42.551616" lon="-0.343702">
        <ele>819.7</ele>
        <time>2016-06-11T06:52:29Z</time>
      </trkpt>
      <trkpt lat="42.550957" lon="-0.344540">
        <ele>820.1</ele>
        <time>2016-06-11T06:52:51Z</time>
      </trkpt>
      <trkpt lat="42.550312" lon="-0.345345">
        <ele>820.1</ele>
        <time>2016-06-11T06:53:12Z</time>
      </trkpt>
      <trkpt lat="42.549885" lon="-0.345800">
        <ele>821.1</ele>
        <time>2016-06-11T06:53:26Z</time>
      </trkpt>
      <trkpt lat="42.549195" lon="-0.346565">
        <ele>822.1</ele>
        <time>2016-06-11T06:53:49Z</time>
      </trkpt>
      <trkpt lat="42.549263" lon="-0.346583">
        <ele>823.0</ele>
        <time>2016-06-11T07:10:20Z</time>
      </trkpt>
      <trkpt lat="42.549599" lon="-0.346801">
        <ele>825.0</ele>
        <time>2016-06-11T07:10:35Z</time>
      </trkpt>
      <trkpt lat="42.549913" lon="-0.347144">
        <ele>826.4</ele>
        <time>2016-06-11T07:10:52Z</time>
      </trkpt>
      <trkpt lat="42.550162" lon="-0.347535">
        <ele>827.8</ele>
        <time>2016-06-11T07:11:10Z</time>
      </trkpt>
      <trkpt lat="42.550355" lon="-0.347926">
        <ele>829.3</ele>
        <time>2016-06-11T07:11:26Z</time>
      </trkpt>
      <trkpt lat="42.550500" lon="-0.348352">
        <ele>831.7</ele>
        <time>2016-06-11T07:11:43Z</time>
      </trkpt>
      <trkpt lat="42.550508" lon="-0.348721">
        <ele>832.6</ele>
        <time>2016-06-11T07:11:59Z</time>
      </trkpt>
      <trkpt lat="42.550438" lon="-0.349120">
        <ele>835.0</ele>
        <time>2016-06-11T07:12:18Z</time>
      </trkpt>
      <trkpt lat="42.550429" lon="-0.349570">
        <ele>837.0</ele>
        <time>2016-06-11T07:12:39Z</time>
      </trkpt>
      <trkpt lat="42.550462" lon="-0.350002">
        <ele>836.5</ele>
        <time>2016-06-11T07:12:56Z</time>
      </trkpt>
      <trkpt lat="42.550439" lon="-0.350349">
        <ele>836.5</ele>
        <time>2016-06-11T07:13:11Z</time>
      </trkpt>
      <trkpt lat="42.550434" lon="-0.350659">
        <ele>839.9</ele>
        <time>2016-06-11T07:13:27Z</time>
      </trkpt>
      <trkpt lat="42.550417" lon="-0.351053">
        <ele>842.3</ele>
        <time>2016-06-11T07:13:47Z</time>
      </trkpt>
      <trkpt lat="42.550378" lon="-0.351384">
        <ele>845.6</ele>
        <time>2016-06-11T07:14:06Z</time>
      </trkpt>
      <trkpt lat="42.550378" lon="-0.351775">
        <ele>849.0</ele>
        <time>2016-06-11T07:14:28Z</time>
      </trkpt>
      <trkpt lat="42.550256" lon="-0.351981">
        <ele>850.4</ele>
        <time>2016-06-11T07:14:43Z</time>
      </trkpt>
      <trkpt lat="42.550101" lon="-0.352119">
        <ele>851.4</ele>
        <time>2016-06-11T07:14:56Z</time>
      </trkpt>
      <trkpt lat="42.549963" lon="-0.352371">
        <ele>854.3</ele>
        <time>2016-06-11T07:15:13Z</time>
      </trkpt>
      <trkpt lat="42.549785" lon="-0.352555">
        <ele>856.2</ele>
        <time>2016-06-11T07:15:29Z</time>
      </trkpt>
      <trkpt lat="42.549723" lon="-0.352975">
        <ele>858.6</ele>
        <time>2016-06-11T07:15:50Z</time>
      </trkpt>
      <trkpt lat="42.549633" lon="-0.353238">
        <ele>858.6</ele>
        <time>2016-06-11T07:16:03Z</time>
      </trkpt>
      <trkpt lat="42.549365" lon="-0.353376">
        <ele>861.0</ele>
        <time>2016-06-11T07:16:21Z</time>
      </trkpt>
      <trkpt lat="42.549159" lon="-0.353476">
        <ele>862.9</ele>
        <time>2016-06-11T07:16:35Z</time>
      </trkpt>
      <trkpt lat="42.548984" lon="-0.353726">
        <ele>864.8</ele>
        <time>2016-06-11T07:16:53Z</time>
      </trkpt>
      <trkpt lat="42.548822" lon="-0.354026">
        <ele>866.8</ele>
        <time>2016-06-11T07:17:12Z</time>
      </trkpt>
      <trkpt lat="42.548632" lon="-0.354274">
        <ele>870.1</ele>
        <time>2016-06-11T07:17:31Z</time>
      </trkpt>
      <trkpt lat="42.548591" lon="-0.354425">
        <ele>871.6</ele>
        <time>2016-06-11T07:17:40Z</time>
      </trkpt>
      <trkpt lat="42.548837" lon="-0.354527">
        <ele>874.0</ele>
        <time>2016-06-11T07:18:00Z</time>
      </trkpt>
      <trkpt lat="42.549064" lon="-0.354249">
        <ele>875.9</ele>
        <time>2016-06-11T07:18:20Z</time>
      </trkpt>
      <trkpt lat="42.549168" lon="-0.354080">
        <ele>876.9</ele>
        <time>2016-06-11T07:18:30Z</time>
      </trkpt>
      <trkpt lat="42.549418" lon="-0.353782">
        <ele>878.3</ele>
        <time>2016-06-11T07:18:49Z</time>
      </trkpt>
      <trkpt lat="42.549665" lon="-0.353903">
        <ele>878.8</ele>
        <time>2016-06-11T07:19:01Z</time>
      </trkpt>
      <trkpt lat="42.549895" lon="-0.354094">
        <ele>880.7</ele>
        <time>2016-06-11T07:19:17Z</time>
      </trkpt>
      <trkpt lat="42.550151" lon="-0.354213">
        <ele>883.1</ele>
        <time>2016-06-11T07:19:35Z</time>
      </trkpt>
      <trkpt lat="42.550355" lon="-0.354346">
        <ele>885.5</ele>
        <time>2016-06-11T07:19:52Z</time>
      </trkpt>
      <trkpt lat="42.550416" lon="-0.354393">
        <ele>885.5</ele>
        <time>2016-06-11T07:19:57Z</time>
      </trkpt>
      <trkpt lat="42.550387" lon="-0.354613">
        <ele>887.4</ele>
        <time>2016-06-11T07:20:10Z</time>
      </trkpt>
      <trkpt lat="42.550324" lon="-0.354955">
        <ele>889.8</ele>
        <time>2016-06-11T07:20:28Z</time>
      </trkpt>
      <trkpt lat="42.550259" lon="-0.355320">
        <ele>891.3</ele>
        <time>2016-06-11T07:20:46Z</time>
      </trkpt>
      <trkpt lat="42.550164" lon="-0.355619">
        <ele>893.2</ele>
        <time>2016-06-11T07:21:02Z</time>
      </trkpt>
      <trkpt lat="42.550205" lon="-0.355914">
        <ele>896.6</ele>
        <time>2016-06-11T07:21:20Z</time>
      </trkpt>
      <trkpt lat="42.550355" lon="-0.356110">
        <ele>899.9</ele>
        <time>2016-06-11T07:21:38Z</time>
      </trkpt>
      <trkpt lat="42.550549" lon="-0.356277">
        <ele>903.8</ele>
        <time>2016-06-11T07:21:58Z</time>
      </trkpt>
      <trkpt lat="42.550689" lon="-0.356430">
        <ele>907.1</ele>
        <time>2016-06-11T07:22:15Z</time>
      </trkpt>
      <trkpt lat="42.550572" lon="-0.356509">
        <ele>910.0</ele>
        <time>2016-06-11T07:22:30Z</time>
      </trkpt>
      <trkpt lat="42.550358" lon="-0.356538">
        <ele>912.4</ele>
        <time>2016-06-11T07:22:47Z</time>
      </trkpt>
      <trkpt lat="42.550106" lon="-0.356633">
        <ele>914.4</ele>
        <time>2016-06-11T07:23:07Z</time>
      </trkpt>
      <trkpt lat="42.549874" lon="-0.356642">
        <ele>917.2</ele>
        <time>2016-06-11T07:23:24Z</time>
      </trkpt>
      <trkpt lat="42.549628" lon="-0.356643">
        <ele>919.6</ele>
        <time>2016-06-11T07:23:41Z</time>
      </trkpt>
      <trkpt lat="42.549564" lon="-0.356667">
        <ele>920.1</ele>
        <time>2016-06-11T07:23:46Z</time>
      </trkpt>
      <trkpt lat="42.549506" lon="-0.356773">
        <ele>921.1</ele>
        <time>2016-06-11T07:23:53Z</time>
      </trkpt>
      <trkpt lat="42.549446" lon="-0.357126">
        <ele>923.5</ele>
        <time>2016-06-11T07:24:11Z</time>
      </trkpt>
      <trkpt lat="42.549385" lon="-0.357533">
        <ele>924.0</ele>
        <time>2016-06-11T07:24:27Z</time>
      </trkpt>
      <trkpt lat="42.549375" lon="-0.358023">
        <ele>923.5</ele>
        <time>2016-06-11T07:24:44Z</time>
      </trkpt>
      <trkpt lat="42.549295" lon="-0.358539">
        <ele>923.5</ele>
        <time>2016-06-11T07:25:02Z</time>
      </trkpt>
      <trkpt lat="42.549175" lon="-0.359094">
        <ele>923.5</ele>
        <time>2016-06-11T07:25:21Z</time>
      </trkpt>
      <trkpt lat="42.549080" lon="-0.359643">
        <ele>923.5</ele>
        <time>2016-06-11T07:25:40Z</time>
      </trkpt>
      <trkpt lat="42.549063" lon="-0.360192">
        <ele>923.0</ele>
        <time>2016-06-11T07:25:57Z</time>
      </trkpt>
      <trkpt lat="42.548986" lon="-0.360826">
        <ele>923.0</ele>
        <time>2016-06-11T07:26:14Z</time>
      </trkpt>
      <trkpt lat="42.548953" lon="-0.361499">
        <ele>922.5</ele>
        <time>2016-06-11T07:26:31Z</time>
      </trkpt>
      <trkpt lat="42.548742" lon="-0.361858">
        <ele>922.0</ele>
        <time>2016-06-11T07:26:44Z</time>
      </trkpt>
      <trkpt lat="42.548031" lon="-0.362016">
        <ele>916.8</ele>
        <time>2016-06-11T07:26:58Z</time>
      </trkpt>
      <trkpt lat="42.547596" lon="-0.362100">
        <ele>912.9</ele>
        <time>2016-06-11T07:27:09Z</time>
      </trkpt>
      <trkpt lat="42.547545" lon="-0.362264">
        <ele>911.5</ele>
        <time>2016-06-11T07:27:22Z</time>
      </trkpt>
      <trkpt lat="42.547630" lon="-0.362900">
        <ele>912.9</ele>
        <time>2016-06-11T07:27:39Z</time>
      </trkpt>
      <trkpt lat="42.547742" lon="-0.363689">
        <ele>913.9</ele>
        <time>2016-06-11T07:27:59Z</time>
      </trkpt>
      <trkpt lat="42.547842" lon="-0.364429">
        <ele>913.9</ele>
        <time>2016-06-11T07:28:17Z</time>
      </trkpt>
      <trkpt lat="42.547961" lon="-0.365103">
        <ele>912.9</ele>
        <time>2016-06-11T07:28:33Z</time>
      </trkpt>
      <trkpt lat="42.548160" lon="-0.365182">
        <ele>911.5</ele>
        <time>2016-06-11T07:28:38Z</time>
      </trkpt>
      <trkpt lat="42.548602" lon="-0.364933">
        <ele>911.5</ele>
        <time>2016-06-11T07:28:51Z</time>
      </trkpt>
      <trkpt lat="42.548830" lon="-0.364816">
        <ele>910.0</ele>
        <time>2016-06-11T07:28:57Z</time>
      </trkpt>
      <trkpt lat="42.548960" lon="-0.364725">
        <ele>909.1</ele>
        <time>2016-06-11T07:29:00Z</time>
      </trkpt>
      <trkpt lat="42.549117" lon="-0.364647">
        <ele>907.6</ele>
        <time>2016-06-11T07:29:03Z</time>
      </trkpt>
      <trkpt lat="42.549355" lon="-0.364578">
        <ele>905.2</ele>
        <time>2016-06-11T07:29:07Z</time>
      </trkpt>
      <trkpt lat="42.549668" lon="-0.364545">
        <ele>900.4</ele>
        <time>2016-06-11T07:29:12Z</time>
      </trkpt>
      <trkpt lat="42.550069" lon="-0.364630">
        <ele>893.2</ele>
        <time>2016-06-11T07:29:19Z</time>
      </trkpt>
      <trkpt lat="42.550416" lon="-0.364811">
        <ele>885.5</ele>
        <time>2016-06-11T07:29:27Z</time>
      </trkpt>
      <trkpt lat="42.550821" lon="-0.365327">
        <ele>875.9</ele>
        <time>2016-06-11T07:29:36Z</time>
      </trkpt>
      <trkpt lat="42.550868" lon="-0.366113">
        <ele>866.8</ele>
        <time>2016-06-11T07:29:43Z</time>
      </trkpt>
      <trkpt lat="42.550973" lon="-0.366411">
        <ele>864.8</ele>
        <time>2016-06-11T07:29:46Z</time>
      </trkpt>
      <trkpt lat="42.551139" lon="-0.366756">
        <ele>867.3</ele>
        <time>2016-06-11T07:29:54Z</time>
      </trkpt>
      <trkpt lat="42.551243" lon="-0.366977">
        <ele>871.1</ele>
        <time>2016-06-11T07:30:08Z</time>
      </trkpt>
      <trkpt lat="42.551275" lon="-0.367081">
        <ele>872.5</ele>
        <time>2016-06-11T07:30:14Z</time>
      </trkpt>
      <trkpt lat="42.551393" lon="-0.367312">
        <ele>875.9</ele>
        <time>2016-06-11T07:30:30Z</time>
      </trkpt>
      <trkpt lat="42.551536" lon="-0.367620">
        <ele>878.8</ele>
        <time>2016-06-11T07:30:49Z</time>
      </trkpt>
      <trkpt lat="42.551657" lon="-0.367948">
        <ele>881.7</ele>
        <time>2016-06-11T07:31:06Z</time>
      </trkpt>
      <trkpt lat="42.551800" lon="-0.368176">
        <ele>880.7</ele>
        <time>2016-06-11T07:31:14Z</time>
      </trkpt>
      <trkpt lat="42.551897" lon="-0.368342">
        <ele>879.3</ele>
        <time>2016-06-11T07:31:18Z</time>
      </trkpt>
      <trkpt lat="42.551950" lon="-0.368423">
        <ele>878.3</ele>
        <time>2016-06-11T07:31:20Z</time>
      </trkpt>
      <trkpt lat="42.552030" lon="-0.368565">
        <ele>876.9</ele>
        <time>2016-06-11T07:31:23Z</time>
      </trkpt>
      <trkpt lat="42.552378" lon="-0.368669">
        <ele>874.0</ele>
        <time>2016-06-11T07:31:31Z</time>
      </trkpt>
      <trkpt lat="42.552455" lon="-0.368961">
        <ele>872.1</ele>
        <time>2016-06-11T07:31:36Z</time>
      </trkpt>
      <trkpt lat="42.552470" lon="-0.369106">
        <ele>871.1</ele>
        <time>2016-06-11T07:31:38Z</time>
      </trkpt>
      <trkpt lat="42.552570" lon="-0.369323">
        <ele>869.7</ele>
        <time>2016-06-11T07:31:42Z</time>
      </trkpt>
      <trkpt lat="42.553279" lon="-0.370031">
        <ele>861.5</ele>
        <time>2016-06-11T07:31:55Z</time>
      </trkpt>
      <trkpt lat="42.553708" lon="-0.370837">
        <ele>860.0</ele>
        <time>2016-06-11T07:32:06Z</time>
      </trkpt>
      <trkpt lat="42.554306" lon="-0.371508">
        <ele>860.0</ele>
        <time>2016-06-11T07:32:21Z</time>
      </trkpt>
      <trkpt lat="42.554762" lon="-0.372027">
        <ele>860.5</ele>
        <time>2016-06-11T07:32:38Z</time>
      </trkpt>
      <trkpt lat="42.555308" lon="-0.372586">
        <ele>861.5</ele>
        <time>2016-06-11T07:32:58Z</time>
      </trkpt>
      <trkpt lat="42.555736" lon="-0.373072">
        <ele>860.5</ele>
        <time>2016-06-11T07:33:13Z</time>
      </trkpt>
      <trkpt lat="42.556308" lon="-0.373566">
        <ele>858.1</ele>
        <time>2016-06-11T07:33:30Z</time>
      </trkpt>
      <trkpt lat="42.556383" lon="-0.373592">
        <ele>857.2</ele>
        <time>2016-06-11T07:33:33Z</time>
      </trkpt>
      <trkpt lat="42.556563" lon="-0.373613">
        <ele>856.7</ele>
        <time>2016-06-11T07:33:40Z</time>
      </trkpt>
      <trkpt lat="42.556908" lon="-0.373906">
        <ele>856.7</ele>
        <time>2016-06-11T07:33:55Z</time>
      </trkpt>
      <trkpt lat="42.556935" lon="-0.374290">
        <ele>856.2</ele>
        <time>2016-06-11T07:34:08Z</time>
      </trkpt>
      <trkpt lat="42.556886" lon="-0.374633">
        <ele>855.7</ele>
        <time>2016-06-11T07:34:20Z</time>
      </trkpt>
      <trkpt lat="42.556858" lon="-0.374694">
        <ele>855.7</ele>
        <time>2016-06-11T07:34:32Z</time>
      </trkpt>
      <trkpt lat="42.556851" lon="-0.374807">
        <ele>854.3</ele>
        <time>2016-06-11T07:34:53Z</time>
      </trkpt>
      <trkpt lat="42.556826" lon="-0.374999">
        <ele>854.3</ele>
        <time>2016-06-11T07:35:09Z</time>
      </trkpt>
      <trkpt lat="42.556825" lon="-0.375062">
        <ele>855.2</ele>
        <time>2016-06-11T07:35:14Z</time>
      </trkpt>
      <trkpt lat="42.556820" lon="-0.375168">
        <ele>856.2</ele>
        <time>2016-06-11T07:35:31Z</time>
      </trkpt>
      <trkpt lat="42.557018" lon="-0.375317">
        <ele>858.1</ele>
        <time>2016-06-11T07:41:18Z</time>
      </trkpt>
      <trkpt lat="42.557112" lon="-0.375331">
        <ele>858.6</ele>
        <time>2016-06-11T07:41:35Z</time>
      </trkpt>
      <trkpt lat="42.557434" lon="-0.375452">
        <ele>860.0</ele>
        <time>2016-06-11T07:41:51Z</time>
      </trkpt>
      <trkpt lat="42.557769" lon="-0.375608">
        <ele>859.6</ele>
        <time>2016-06-11T07:42:07Z</time>
      </trkpt>
      <trkpt lat="42.558085" lon="-0.375854">
        <ele>860.0</ele>
        <time>2016-06-11T07:42:24Z</time>
      </trkpt>
      <trkpt lat="42.558376" lon="-0.376089">
        <ele>861.5</ele>
        <time>2016-06-11T07:42:40Z</time>
      </trkpt>
      <trkpt lat="42.558635" lon="-0.376451">
        <ele>862.9</ele>
        <time>2016-06-11T07:42:58Z</time>
      </trkpt>
      <trkpt lat="42.558599" lon="-0.376961">
        <ele>863.4</ele>
        <time>2016-06-11T07:43:16Z</time>
      </trkpt>
      <trkpt lat="42.558596" lon="-0.377483">
        <ele>864.8</ele>
        <time>2016-06-11T07:43:34Z</time>
      </trkpt>
      <trkpt lat="42.558659" lon="-0.377861">
        <ele>865.8</ele>
        <time>2016-06-11T07:43:50Z</time>
      </trkpt>
      <trkpt lat="42.558752" lon="-0.378145">
        <ele>869.2</ele>
        <time>2016-06-11T07:44:06Z</time>
      </trkpt>
      <trkpt lat="42.558917" lon="-0.378275">
        <ele>871.6</ele>
        <time>2016-06-11T07:44:20Z</time>
      </trkpt>
      <trkpt lat="42.559133" lon="-0.378422">
        <ele>874.0</ele>
        <time>2016-06-11T07:44:37Z</time>
      </trkpt>
      <trkpt lat="42.559338" lon="-0.378627">
        <ele>877.3</ele>
        <time>2016-06-11T07:44:55Z</time>
      </trkpt>
      <trkpt lat="42.559585" lon="-0.378839">
        <ele>881.7</ele>
        <time>2016-06-11T07:45:17Z</time>
      </trkpt>
      <trkpt lat="42.559734" lon="-0.379021">
        <ele>884.1</ele>
        <time>2016-06-11T07:45:33Z</time>
      </trkpt>
      <trkpt lat="42.559797" lon="-0.379199">
        <ele>886.0</ele>
        <time>2016-06-11T07:45:45Z</time>
      </trkpt>
      <trkpt lat="42.559844" lon="-0.379352">
        <ele>887.4</ele>
        <time>2016-06-11T07:45:55Z</time>
      </trkpt>
      <trkpt lat="42.559894" lon="-0.379662">
        <ele>889.8</ele>
        <time>2016-06-11T07:46:13Z</time>
      </trkpt>
      <trkpt lat="42.559931" lon="-0.379961">
        <ele>892.2</ele>
        <time>2016-06-11T07:46:31Z</time>
      </trkpt>
      <trkpt lat="42.559910" lon="-0.380283">
        <ele>895.6</ele>
        <time>2016-06-11T07:46:50Z</time>
      </trkpt>
      <trkpt lat="42.559780" lon="-0.380428">
        <ele>899.0</ele>
        <time>2016-06-11T07:47:05Z</time>
      </trkpt>
      <trkpt lat="42.559666" lon="-0.380549">
        <ele>900.9</ele>
        <time>2016-06-11T07:47:17Z</time>
      </trkpt>
      <trkpt lat="42.559731" lon="-0.380629">
        <ele>902.3</ele>
        <time>2016-06-11T07:47:24Z</time>
      </trkpt>
      <trkpt lat="42.559949" lon="-0.380781">
        <ele>905.2</ele>
        <time>2016-06-11T07:47:41Z</time>
      </trkpt>
      <trkpt lat="42.560142" lon="-0.380916">
        <ele>908.6</ele>
        <time>2016-06-11T07:47:57Z</time>
      </trkpt>
      <trkpt lat="42.560376" lon="-0.381099">
        <ele>909.1</ele>
        <time>2016-06-11T07:48:15Z</time>
      </trkpt>
      <trkpt lat="42.560511" lon="-0.381325">
        <ele>912.9</ele>
        <time>2016-06-11T07:48:31Z</time>
      </trkpt>
      <trkpt lat="42.560598" lon="-0.381440">
        <ele>914.4</ele>
        <time>2016-06-11T07:48:40Z</time>
      </trkpt>
      <trkpt lat="42.560738" lon="-0.381654">
        <ele>916.3</ele>
        <time>2016-06-11T07:48:55Z</time>
      </trkpt>
      <trkpt lat="42.561008" lon="-0.381944">
        <ele>916.8</ele>
        <time>2016-06-11T07:49:13Z</time>
      </trkpt>
      <trkpt lat="42.561073" lon="-0.381999">
        <ele>916.3</ele>
        <time>2016-06-11T07:49:15Z</time>
      </trkpt>
      <trkpt lat="42.561153" lon="-0.382180">
        <ele>915.3</ele>
        <time>2016-06-11T07:49:19Z</time>
      </trkpt>
      <trkpt lat="42.561137" lon="-0.382449">
        <ele>913.4</ele>
        <time>2016-06-11T07:49:24Z</time>
      </trkpt>
      <trkpt lat="42.561220" lon="-0.382885">
        <ele>911.5</ele>
        <time>2016-06-11T07:49:33Z</time>
      </trkpt>
      <trkpt lat="42.561279" lon="-0.383033">
        <ele>911.5</ele>
        <time>2016-06-11T07:49:36Z</time>
      </trkpt>
      <trkpt lat="42.561533" lon="-0.383219">
        <ele>912.0</ele>
        <time>2016-06-11T07:49:46Z</time>
      </trkpt>
      <trkpt lat="42.561598" lon="-0.383311">
        <ele>912.9</ele>
        <time>2016-06-11T07:49:50Z</time>
      </trkpt>
      <trkpt lat="42.561820" lon="-0.383789">
        <ele>912.0</ele>
        <time>2016-06-11T07:50:08Z</time>
      </trkpt>
      <trkpt lat="42.561964" lon="-0.384030">
        <ele>911.0</ele>
        <time>2016-06-11T07:50:21Z</time>
      </trkpt>
      <trkpt lat="42.562083" lon="-0.384209">
        <ele>911.5</ele>
        <time>2016-06-11T07:50:35Z</time>
      </trkpt>
      <trkpt lat="42.562202" lon="-0.384447">
        <ele>911.0</ele>
        <time>2016-06-11T07:50:41Z</time>
      </trkpt>
      <trkpt lat="42.562405" lon="-0.384597">
        <ele>909.5</ele>
        <time>2016-06-11T07:50:47Z</time>
      </trkpt>
      <trkpt lat="42.562862" lon="-0.384711">
        <ele>908.1</ele>
        <time>2016-06-11T07:50:56Z</time>
      </trkpt>
      <trkpt lat="42.563687" lon="-0.384903">
        <ele>904.3</ele>
        <time>2016-06-11T07:51:10Z</time>
      </trkpt>
      <trkpt lat="42.563824" lon="-0.384900">
        <ele>903.8</ele>
        <time>2016-06-11T07:51:12Z</time>
      </trkpt>
      <trkpt lat="42.564064" lon="-0.384790">
        <ele>903.8</ele>
        <time>2016-06-11T07:51:16Z</time>
      </trkpt>
      <trkpt lat="42.564221" lon="-0.384644">
        <ele>902.8</ele>
        <time>2016-06-11T07:51:19Z</time>
      </trkpt>
      <trkpt lat="42.564391" lon="-0.384376">
        <ele>901.9</ele>
        <time>2016-06-11T07:51:23Z</time>
      </trkpt>
      <trkpt lat="42.564689" lon="-0.384181">
        <ele>900.4</ele>
        <time>2016-06-11T07:51:28Z</time>
      </trkpt>
      <trkpt lat="42.565660" lon="-0.383850">
        <ele>897.1</ele>
        <time>2016-06-11T07:51:40Z</time>
      </trkpt>
      <trkpt lat="42.566303" lon="-0.383739">
        <ele>897.5</ele>
        <time>2016-06-11T07:51:52Z</time>
      </trkpt>
      <trkpt lat="42.566788" lon="-0.383615">
        <ele>898.5</ele>
        <time>2016-06-11T07:52:10Z</time>
      </trkpt>
      <trkpt lat="42.567193" lon="-0.383528">
        <ele>901.4</ele>
        <time>2016-06-11T07:52:27Z</time>
      </trkpt>
      <trkpt lat="42.567516" lon="-0.383491">
        <ele>903.8</ele>
        <time>2016-06-11T07:52:43Z</time>
      </trkpt>
      <trkpt lat="42.567865" lon="-0.383461">
        <ele>907.6</ele>
        <time>2016-06-11T07:53:01Z</time>
      </trkpt>
      <trkpt lat="42.568233" lon="-0.383530">
        <ele>910.0</ele>
        <time>2016-06-11T07:53:21Z</time>
      </trkpt>
      <trkpt lat="42.568642" lon="-0.383606">
        <ele>913.9</ele>
        <time>2016-06-11T07:53:43Z</time>
      </trkpt>
      <trkpt lat="42.568973" lon="-0.383664">
        <ele>916.8</ele>
        <time>2016-06-11T07:54:00Z</time>
      </trkpt>
      <trkpt lat="42.569433" lon="-0.383697">
        <ele>915.8</ele>
        <time>2016-06-11T07:54:15Z</time>
      </trkpt>
      <trkpt lat="42.569839" lon="-0.383645">
        <ele>916.8</ele>
        <time>2016-06-11T07:54:30Z</time>
      </trkpt>
      <trkpt lat="42.570445" lon="-0.383716">
        <ele>915.3</ele>
        <time>2016-06-11T07:54:51Z</time>
      </trkpt>
      <trkpt lat="42.570822" lon="-0.383843">
        <ele>916.8</ele>
        <time>2016-06-11T07:55:05Z</time>
      </trkpt>
      <trkpt lat="42.571264" lon="-0.384355">
        <ele>916.3</ele>
        <time>2016-06-11T07:55:20Z</time>
      </trkpt>
      <trkpt lat="42.571580" lon="-0.384662">
        <ele>918.7</ele>
        <time>2016-06-11T07:55:36Z</time>
      </trkpt>
      <trkpt lat="42.571878" lon="-0.385010">
        <ele>920.6</ele>
        <time>2016-06-11T07:55:53Z</time>
      </trkpt>
      <trkpt lat="42.572269" lon="-0.385312">
        <ele>923.0</ele>
        <time>2016-06-11T07:56:14Z</time>
      </trkpt>
      <trkpt lat="42.572624" lon="-0.385595">
        <ele>923.5</ele>
        <time>2016-06-11T07:56:33Z</time>
      </trkpt>
      <trkpt lat="42.572895" lon="-0.385996">
        <ele>924.5</ele>
        <time>2016-06-11T07:56:49Z</time>
      </trkpt>
      <trkpt lat="42.573265" lon="-0.386546">
        <ele>926.9</ele>
        <time>2016-06-11T07:57:11Z</time>
      </trkpt>
      <trkpt lat="42.573515" lon="-0.387111">
        <ele>928.3</ele>
        <time>2016-06-11T07:57:31Z</time>
      </trkpt>
      <trkpt lat="42.573807" lon="-0.387369">
        <ele>929.7</ele>
        <time>2016-06-11T07:57:47Z</time>
      </trkpt>
      <trkpt lat="42.574173" lon="-0.387668">
        <ele>931.2</ele>
        <time>2016-06-11T07:58:05Z</time>
      </trkpt>
      <trkpt lat="42.574522" lon="-0.388098">
        <ele>933.1</ele>
        <time>2016-06-11T07:58:25Z</time>
      </trkpt>
      <trkpt lat="42.574795" lon="-0.388642">
        <ele>933.6</ele>
        <time>2016-06-11T07:58:45Z</time>
      </trkpt>
      <trkpt lat="42.574987" lon="-0.389110">
        <ele>935.0</ele>
        <time>2016-06-11T07:59:01Z</time>
      </trkpt>
      <trkpt lat="42.575222" lon="-0.389378">
        <ele>936.5</ele>
        <time>2016-06-11T07:59:14Z</time>
      </trkpt>
      <trkpt lat="42.575573" lon="-0.389486">
        <ele>937.4</ele>
        <time>2016-06-11T07:59:29Z</time>
      </trkpt>
      <trkpt lat="42.576014" lon="-0.389551">
        <ele>937.9</ele>
        <time>2016-06-11T07:59:47Z</time>
      </trkpt>
      <trkpt lat="42.576466" lon="-0.389510">
        <ele>939.8</ele>
        <time>2016-06-11T08:00:05Z</time>
      </trkpt>
      <trkpt lat="42.576865" lon="-0.389657">
        <ele>939.4</ele>
        <time>2016-06-11T08:00:20Z</time>
      </trkpt>
      <trkpt lat="42.577388" lon="-0.389829">
        <ele>939.8</ele>
        <time>2016-06-11T08:00:37Z</time>
      </trkpt>
      <trkpt lat="42.578053" lon="-0.389894">
        <ele>939.4</ele>
        <time>2016-06-11T08:00:55Z</time>
      </trkpt>
      <trkpt lat="42.578441" lon="-0.390002">
        <ele>940.3</ele>
        <time>2016-06-11T08:01:10Z</time>
      </trkpt>
      <trkpt lat="42.578828" lon="-0.390251">
        <ele>940.8</ele>
        <time>2016-06-11T08:01:25Z</time>
      </trkpt>
      <trkpt lat="42.579333" lon="-0.390324">
        <ele>942.2</ele>
        <time>2016-06-11T08:01:45Z</time>
      </trkpt>
      <trkpt lat="42.579656" lon="-0.390657">
        <ele>941.8</ele>
        <time>2016-06-11T08:02:01Z</time>
      </trkpt>
      <trkpt lat="42.579827" lon="-0.391097">
        <ele>943.2</ele>
        <time>2016-06-11T08:02:16Z</time>
      </trkpt>
      <trkpt lat="42.579898" lon="-0.391624">
        <ele>943.7</ele>
        <time>2016-06-11T08:02:32Z</time>
      </trkpt>
      <trkpt lat="42.580161" lon="-0.391818">
        <ele>945.1</ele>
        <time>2016-06-11T08:02:45Z</time>
      </trkpt>
      <trkpt lat="42.580521" lon="-0.392070">
        <ele>947.5</ele>
        <time>2016-06-11T08:03:03Z</time>
      </trkpt>
      <trkpt lat="42.580859" lon="-0.392281">
        <ele>948.5</ele>
        <time>2016-06-11T08:03:21Z</time>
      </trkpt>
      <trkpt lat="42.581212" lon="-0.392233">
        <ele>949.0</ele>
        <time>2016-06-11T08:03:37Z</time>
      </trkpt>
      <trkpt lat="42.581639" lon="-0.392337">
        <ele>948.5</ele>
        <time>2016-06-11T08:03:54Z</time>
      </trkpt>
      <trkpt lat="42.582128" lon="-0.392643">
        <ele>947.5</ele>
        <time>2016-06-11T08:04:12Z</time>
      </trkpt>
      <trkpt lat="42.582636" lon="-0.393135">
        <ele>948.0</ele>
        <time>2016-06-11T08:04:32Z</time>
      </trkpt>
      <trkpt lat="42.583009" lon="-0.393536">
        <ele>949.0</ele>
        <time>2016-06-11T08:04:51Z</time>
      </trkpt>
      <trkpt lat="42.583324" lon="-0.393923">
        <ele>950.4</ele>
        <time>2016-06-11T08:05:09Z</time>
      </trkpt>
      <trkpt lat="42.583603" lon="-0.394304">
        <ele>952.3</ele>
        <time>2016-06-11T08:05:27Z</time>
      </trkpt>
      <trkpt lat="42.584016" lon="-0.394595">
        <ele>953.3</ele>
        <time>2016-06-11T08:05:48Z</time>
      </trkpt>
      <trkpt lat="42.584369" lon="-0.394729">
        <ele>953.8</ele>
        <time>2016-06-11T08:06:03Z</time>
      </trkpt>
      <trkpt lat="42.584839" lon="-0.394921">
        <ele>952.8</ele>
        <time>2016-06-11T08:06:19Z</time>
      </trkpt>
      <trkpt lat="42.585343" lon="-0.395144">
        <ele>952.3</ele>
        <time>2016-06-11T08:06:36Z</time>
      </trkpt>
      <trkpt lat="42.585951" lon="-0.395421">
        <ele>951.4</ele>
        <time>2016-06-11T08:06:55Z</time>
      </trkpt>
      <trkpt lat="42.586295" lon="-0.395539">
        <ele>952.8</ele>
        <time>2016-06-11T08:07:08Z</time>
      </trkpt>
      <trkpt lat="42.586728" lon="-0.395471">
        <ele>955.7</ele>
        <time>2016-06-11T08:07:27Z</time>
      </trkpt>
      <trkpt lat="42.587099" lon="-0.395816">
        <ele>955.2</ele>
        <time>2016-06-11T08:07:45Z</time>
      </trkpt>
      <trkpt lat="42.587514" lon="-0.396287">
        <ele>956.2</ele>
        <time>2016-06-11T08:08:07Z</time>
      </trkpt>
      <trkpt lat="42.587825" lon="-0.396563">
        <ele>957.1</ele>
        <time>2016-06-11T08:08:21Z</time>
      </trkpt>
      <trkpt lat="42.588400" lon="-0.396813">
        <ele>957.1</ele>
        <time>2016-06-11T08:08:38Z</time>
      </trkpt>
      <trkpt lat="42.589077" lon="-0.397194">
        <ele>955.2</ele>
        <time>2016-06-11T08:08:51Z</time>
      </trkpt>
      <trkpt lat="42.589676" lon="-0.397679">
        <ele>954.7</ele>
        <time>2016-06-11T08:09:05Z</time>
      </trkpt>
      <trkpt lat="42.589993" lon="-0.397925">
        <ele>955.7</ele>
        <time>2016-06-11T08:09:19Z</time>
      </trkpt>
      <trkpt lat="42.590302" lon="-0.398178">
        <ele>957.6</ele>
        <time>2016-06-11T08:09:35Z</time>
      </trkpt>
      <trkpt lat="42.590525" lon="-0.398392">
        <ele>960.5</ele>
        <time>2016-06-11T08:09:49Z</time>
      </trkpt>
      <trkpt lat="42.590787" lon="-0.398527">
        <ele>961.9</ele>
        <time>2016-06-11T08:10:04Z</time>
      </trkpt>
      <trkpt lat="42.591068" lon="-0.398700">
        <ele>963.4</ele>
        <time>2016-06-11T08:10:22Z</time>
      </trkpt>
      <trkpt lat="42.591335" lon="-0.398885">
        <ele>966.3</ele>
        <time>2016-06-11T08:10:39Z</time>
      </trkpt>
      <trkpt lat="42.591603" lon="-0.399077">
        <ele>968.7</ele>
        <time>2016-06-11T08:10:56Z</time>
      </trkpt>
      <trkpt lat="42.591952" lon="-0.399257">
        <ele>970.6</ele>
        <time>2016-06-11T08:11:16Z</time>
      </trkpt>
      <trkpt lat="42.592268" lon="-0.399450">
        <ele>971.6</ele>
        <time>2016-06-11T08:11:33Z</time>
      </trkpt>
      <trkpt lat="42.592535" lon="-0.399727">
        <ele>973.0</ele>
        <time>2016-06-11T08:11:49Z</time>
      </trkpt>
      <trkpt lat="42.592724" lon="-0.400148">
        <ele>973.5</ele>
        <time>2016-06-11T08:12:06Z</time>
      </trkpt>
      <trkpt lat="42.592920" lon="-0.400361">
        <ele>974.4</ele>
        <time>2016-06-11T08:12:19Z</time>
      </trkpt>
      <trkpt lat="42.593155" lon="-0.400452">
        <ele>977.3</ele>
        <time>2016-06-11T08:12:34Z</time>
      </trkpt>
      <trkpt lat="42.593443" lon="-0.400540">
        <ele>980.2</ele>
        <time>2016-06-11T08:12:52Z</time>
      </trkpt>
      <trkpt lat="42.593680" lon="-0.400649">
        <ele>983.1</ele>
        <time>2016-06-11T08:13:08Z</time>
      </trkpt>
      <trkpt lat="42.593894" lon="-0.400804">
        <ele>986.5</ele>
        <time>2016-06-11T08:13:25Z</time>
      </trkpt>
      <trkpt lat="42.594121" lon="-0.400979">
        <ele>991.3</ele>
        <time>2016-06-11T08:13:42Z</time>
      </trkpt>
      <trkpt lat="42.594316" lon="-0.401217">
        <ele>991.3</ele>
        <time>2016-06-11T08:13:58Z</time>
      </trkpt>
      <trkpt lat="42.594600" lon="-0.401273">
        <ele>993.2</ele>
        <time>2016-06-11T08:14:13Z</time>
      </trkpt>
      <trkpt lat="42.594926" lon="-0.401343">
        <ele>991.7</ele>
        <time>2016-06-11T08:14:27Z</time>
      </trkpt>
      <trkpt lat="42.595233" lon="-0.401307">
        <ele>989.8</ele>
        <time>2016-06-11T08:14:38Z</time>
      </trkpt>
      <trkpt lat="42.595461" lon="-0.401281">
        <ele>988.9</ele>
        <time>2016-06-11T08:14:43Z</time>
      </trkpt>
      <trkpt lat="42.596092" lon="-0.401346">
        <ele>986.5</ele>
        <time>2016-06-11T08:14:54Z</time>
      </trkpt>
      <trkpt lat="42.596485" lon="-0.401501">
        <ele>983.1</ele>
        <time>2016-06-11T08:14:59Z</time>
      </trkpt>
      <trkpt lat="42.596843" lon="-0.401785">
        <ele>981.2</ele>
        <time>2016-06-11T08:15:04Z</time>
      </trkpt>
      <trkpt lat="42.597201" lon="-0.402135">
        <ele>977.8</ele>
        <time>2016-06-11T08:15:09Z</time>
      </trkpt>
      <trkpt lat="42.597448" lon="-0.402235">
        <ele>975.4</ele>
        <time>2016-06-11T08:15:12Z</time>
      </trkpt>
      <trkpt lat="42.597636" lon="-0.402285">
        <ele>974.4</ele>
        <time>2016-06-11T08:15:15Z</time>
      </trkpt>
      <trkpt lat="42.597769" lon="-0.402435">
        <ele>975.4</ele>
        <time>2016-06-11T08:15:23Z</time>
      </trkpt>
      <trkpt lat="42.597757" lon="-0.402531">
        <ele>976.4</ele>
        <time>2016-06-11T08:15:28Z</time>
      </trkpt>
      <trkpt lat="42.597697" lon="-0.402853">
        <ele>977.8</ele>
        <time>2016-06-11T08:15:43Z</time>
      </trkpt>
      <trkpt lat="42.597740" lon="-0.403178">
        <ele>979.7</ele>
        <time>2016-06-11T08:15:57Z</time>
      </trkpt>
      <trkpt lat="42.597884" lon="-0.403576">
        <ele>977.8</ele>
        <time>2016-06-11T08:16:11Z</time>
      </trkpt>
      <trkpt lat="42.597890" lon="-0.403649">
        <ele>978.3</ele>
        <time>2016-06-11T08:16:14Z</time>
      </trkpt>
      <trkpt lat="42.597899" lon="-0.403742">
        <ele>979.2</ele>
        <time>2016-06-11T08:16:18Z</time>
      </trkpt>
      <trkpt lat="42.597851" lon="-0.404113">
        <ele>984.5</ele>
        <time>2016-06-11T08:16:34Z</time>
      </trkpt>
      <trkpt lat="42.597828" lon="-0.404259">
        <ele>986.0</ele>
        <time>2016-06-11T08:16:40Z</time>
      </trkpt>
      <trkpt lat="42.597836" lon="-0.404345">
        <ele>987.9</ele>
        <time>2016-06-11T08:16:44Z</time>
      </trkpt>
      <trkpt lat="42.597840" lon="-0.404524">
        <ele>988.9</ele>
        <time>2016-06-11T08:16:52Z</time>
      </trkpt>
      <trkpt lat="42.597805" lon="-0.404912">
        <ele>988.9</ele>
        <time>2016-06-11T08:17:09Z</time>
      </trkpt>
      <trkpt lat="42.597815" lon="-0.405014">
        <ele>989.3</ele>
        <time>2016-06-11T08:17:14Z</time>
      </trkpt>
      <trkpt lat="42.597847" lon="-0.405194">
        <ele>990.3</ele>
        <time>2016-06-11T08:17:23Z</time>
      </trkpt>
      <trkpt lat="42.597899" lon="-0.405359">
        <ele>989.3</ele>
        <time>2016-06-11T08:17:36Z</time>
      </trkpt>
      <trkpt lat="42.597878" lon="-0.405418">
        <ele>987.9</ele>
        <time>2016-06-11T08:18:20Z</time>
      </trkpt>
      <trkpt lat="42.598008" lon="-0.405672">
        <ele>992.7</ele>
        <time>2016-06-11T08:30:59Z</time>
      </trkpt>
      <trkpt lat="42.598146" lon="-0.405955">
        <ele>994.1</ele>
        <time>2016-06-11T08:31:17Z</time>
      </trkpt>
      <trkpt lat="42.598245" lon="-0.406224">
        <ele>996.1</ele>
        <time>2016-06-11T08:31:33Z</time>
      </trkpt>
      <trkpt lat="42.598370" lon="-0.406528">
        <ele>996.5</ele>
        <time>2016-06-11T08:31:47Z</time>
      </trkpt>
      <trkpt lat="42.598549" lon="-0.406680">
        <ele>998.5</ele>
        <time>2016-06-11T08:32:01Z</time>
      </trkpt>
      <trkpt lat="42.598618" lon="-0.406816">
        <ele>999.4</ele>
        <time>2016-06-11T08:32:10Z</time>
      </trkpt>
      <trkpt lat="42.598796" lon="-0.407076">
        <ele>1001.4</ele>
        <time>2016-06-11T08:32:28Z</time>
      </trkpt>
      <trkpt lat="42.598990" lon="-0.407318">
        <ele>1002.3</ele>
        <time>2016-06-11T08:32:44Z</time>
      </trkpt>
      <trkpt lat="42.599193" lon="-0.407627">
        <ele>1003.3</ele>
        <time>2016-06-11T08:33:01Z</time>
      </trkpt>
      <trkpt lat="42.599328" lon="-0.407943">
        <ele>1000.9</ele>
        <time>2016-06-11T08:33:15Z</time>
      </trkpt>
      <trkpt lat="42.599379" lon="-0.408323">
        <ele>1002.3</ele>
        <time>2016-06-11T08:33:33Z</time>
      </trkpt>
      <trkpt lat="42.599376" lon="-0.408426">
        <ele>1002.3</ele>
        <time>2016-06-11T08:33:38Z</time>
      </trkpt>
      <trkpt lat="42.599376" lon="-0.408543">
        <ele>1003.3</ele>
        <time>2016-06-11T08:33:52Z</time>
      </trkpt>
      <trkpt lat="42.599400" lon="-0.408628">
        <ele>1003.8</ele>
        <time>2016-06-11T08:34:04Z</time>
      </trkpt>
      <trkpt lat="42.599417" lon="-0.408713">
        <ele>1005.2</ele>
        <time>2016-06-11T08:34:10Z</time>
      </trkpt>
      <trkpt lat="42.599488" lon="-0.408996">
        <ele>1008.6</ele>
        <time>2016-06-11T08:34:28Z</time>
      </trkpt>
      <trkpt lat="42.599548" lon="-0.409277">
        <ele>1011.0</ele>
        <time>2016-06-11T08:34:46Z</time>
      </trkpt>
      <trkpt lat="42.599578" lon="-0.409539">
        <ele>1014.8</ele>
        <time>2016-06-11T08:35:02Z</time>
      </trkpt>
      <trkpt lat="42.599674" lon="-0.409817">
        <ele>1016.7</ele>
        <time>2016-06-11T08:35:19Z</time>
      </trkpt>
      <trkpt lat="42.599735" lon="-0.410169">
        <ele>1020.1</ele>
        <time>2016-06-11T08:35:38Z</time>
      </trkpt>
      <trkpt lat="42.599804" lon="-0.410524">
        <ele>1022.5</ele>
        <time>2016-06-11T08:35:57Z</time>
      </trkpt>
      <trkpt lat="42.599884" lon="-0.410932">
        <ele>1023.0</ele>
        <time>2016-06-11T08:36:17Z</time>
      </trkpt>
      <trkpt lat="42.599884" lon="-0.411302">
        <ele>1024.4</ele>
        <time>2016-06-11T08:36:35Z</time>
      </trkpt>
      <trkpt lat="42.599898" lon="-0.411633">
        <ele>1027.3</ele>
        <time>2016-06-11T08:36:53Z</time>
      </trkpt>
      <trkpt lat="42.599919" lon="-0.411885">
        <ele>1029.2</ele>
        <time>2016-06-11T08:37:06Z</time>
      </trkpt>
      <trkpt lat="42.599924" lon="-0.412227">
        <ele>1032.1</ele>
        <time>2016-06-11T08:37:23Z</time>
      </trkpt>
      <trkpt lat="42.599988" lon="-0.412541">
        <ele>1032.6</ele>
        <time>2016-06-11T08:37:40Z</time>
      </trkpt>
      <trkpt lat="42.600156" lon="-0.412800">
        <ele>1036.4</ele>
        <time>2016-06-11T08:37:58Z</time>
      </trkpt>
      <trkpt lat="42.600284" lon="-0.413047">
        <ele>1038.4</ele>
        <time>2016-06-11T08:38:17Z</time>
      </trkpt>
      <trkpt lat="42.600279" lon="-0.413128">
        <ele>1040.3</ele>
        <time>2016-06-11T08:38:23Z</time>
      </trkpt>
      <trkpt lat="42.600322" lon="-0.413400">
        <ele>1043.2</ele>
        <time>2016-06-11T08:38:40Z</time>
      </trkpt>
      <trkpt lat="42.600331" lon="-0.413480">
        <ele>1044.1</ele>
        <time>2016-06-11T08:38:45Z</time>
      </trkpt>
      <trkpt lat="42.600281" lon="-0.413723">
        <ele>1047.0</ele>
        <time>2016-06-11T08:39:00Z</time>
      </trkpt>
      <trkpt lat="42.600249" lon="-0.413840">
        <ele>1046.5</ele>
        <time>2016-06-11T08:39:07Z</time>
      </trkpt>
      <trkpt lat="42.600267" lon="-0.414131">
        <ele>1049.9</ele>
        <time>2016-06-11T08:39:25Z</time>
      </trkpt>
      <trkpt lat="42.600230" lon="-0.414491">
        <ele>1054.2</ele>
        <time>2016-06-11T08:39:46Z</time>
      </trkpt>
      <trkpt lat="42.600164" lon="-0.414758">
        <ele>1055.7</ele>
        <time>2016-06-11T08:40:01Z</time>
      </trkpt>
      <trkpt lat="42.600083" lon="-0.415102">
        <ele>1058.6</ele>
        <time>2016-06-11T08:40:20Z</time>
      </trkpt>
      <trkpt lat="42.600050" lon="-0.415438">
        <ele>1059.0</ele>
        <time>2016-06-11T08:40:38Z</time>
      </trkpt>
      <trkpt lat="42.600016" lon="-0.415779">
        <ele>1064.3</ele>
        <time>2016-06-11T08:40:59Z</time>
      </trkpt>
      <trkpt lat="42.599953" lon="-0.416029">
        <ele>1067.2</ele>
        <time>2016-06-11T08:41:15Z</time>
      </trkpt>
      <trkpt lat="42.599912" lon="-0.416327">
        <ele>1069.6</ele>
        <time>2016-06-11T08:41:32Z</time>
      </trkpt>
      <trkpt lat="42.599892" lon="-0.416591">
        <ele>1073.5</ele>
        <time>2016-06-11T08:41:48Z</time>
      </trkpt>
      <trkpt lat="42.599911" lon="-0.416916">
        <ele>1075.4</ele>
        <time>2016-06-11T08:42:06Z</time>
      </trkpt>
      <trkpt lat="42.599973" lon="-0.417266">
        <ele>1077.3</ele>
        <time>2016-06-11T08:42:24Z</time>
      </trkpt>
      <trkpt lat="42.600090" lon="-0.417686">
        <ele>1074.9</ele>
        <time>2016-06-11T08:42:40Z</time>
      </trkpt>
      <trkpt lat="42.600166" lon="-0.417913">
        <ele>1077.8</ele>
        <time>2016-06-11T08:42:52Z</time>
      </trkpt>
      <trkpt lat="42.600257" lon="-0.418178">
        <ele>1080.2</ele>
        <time>2016-06-11T08:43:08Z</time>
      </trkpt>
      <trkpt lat="42.600367" lon="-0.418542">
        <ele>1081.1</ele>
        <time>2016-06-11T08:43:27Z</time>
      </trkpt>
      <trkpt lat="42.600481" lon="-0.418793">
        <ele>1082.1</ele>
        <time>2016-06-11T08:43:42Z</time>
      </trkpt>
      <trkpt lat="42.600645" lon="-0.419116">
        <ele>1093.6</ele>
        <time>2016-06-11T08:44:02Z</time>
      </trkpt>
      <trkpt lat="42.600812" lon="-0.419329">
        <ele>1095.1</ele>
        <time>2016-06-11T08:44:17Z</time>
      </trkpt>
      <trkpt lat="42.600964" lon="-0.419579">
        <ele>1092.2</ele>
        <time>2016-06-11T08:44:32Z</time>
      </trkpt>
      <trkpt lat="42.601088" lon="-0.419768">
        <ele>1091.2</ele>
        <time>2016-06-11T08:44:45Z</time>
      </trkpt>
      <trkpt lat="42.601182" lon="-0.419757">
        <ele>1092.2</ele>
        <time>2016-06-11T08:44:53Z</time>
      </trkpt>
      <trkpt lat="42.601194" lon="-0.419517">
        <ele>1092.7</ele>
        <time>2016-06-11T08:45:08Z</time>
      </trkpt>
      <trkpt lat="42.601173" lon="-0.419406">
        <ele>1093.2</ele>
        <time>2016-06-11T08:45:14Z</time>
      </trkpt>
      <trkpt lat="42.601118" lon="-0.419085">
        <ele>1092.2</ele>
        <time>2016-06-11T08:45:28Z</time>
      </trkpt>
      <trkpt lat="42.601054" lon="-0.418817">
        <ele>1091.2</ele>
        <time>2016-06-11T08:45:42Z</time>
      </trkpt>
      <trkpt lat="42.600965" lon="-0.418477">
        <ele>1093.6</ele>
        <time>2016-06-11T08:45:59Z</time>
      </trkpt>
      <trkpt lat="42.600942" lon="-0.418138">
        <ele>1094.1</ele>
        <time>2016-06-11T08:46:13Z</time>
      </trkpt>
      <trkpt lat="42.600924" lon="-0.417821">
        <ele>1095.6</ele>
        <time>2016-06-11T08:46:29Z</time>
      </trkpt>
      <trkpt lat="42.600901" lon="-0.417508">
        <ele>1098.0</ele>
        <time>2016-06-11T08:46:45Z</time>
      </trkpt>
      <trkpt lat="42.600924" lon="-0.417193">
        <ele>1098.0</ele>
        <time>2016-06-11T08:47:01Z</time>
      </trkpt>
      <trkpt lat="42.600983" lon="-0.416891">
        <ele>1100.9</ele>
        <time>2016-06-11T08:47:18Z</time>
      </trkpt>
      <trkpt lat="42.601052" lon="-0.416514">
        <ele>1103.7</ele>
        <time>2016-06-11T08:47:39Z</time>
      </trkpt>
      <trkpt lat="42.601137" lon="-0.416269">
        <ele>1105.7</ele>
        <time>2016-06-11T08:47:56Z</time>
      </trkpt>
      <trkpt lat="42.601232" lon="-0.416052">
        <ele>1107.6</ele>
        <time>2016-06-11T08:48:12Z</time>
      </trkpt>
      <trkpt lat="42.601276" lon="-0.415783">
        <ele>1108.5</ele>
        <time>2016-06-11T08:48:27Z</time>
      </trkpt>
      <trkpt lat="42.601316" lon="-0.415412">
        <ele>1111.4</ele>
        <time>2016-06-11T08:48:47Z</time>
      </trkpt>
      <trkpt lat="42.601421" lon="-0.415149">
        <ele>1114.8</ele>
        <time>2016-06-11T08:49:05Z</time>
      </trkpt>
      <trkpt lat="42.601459" lon="-0.415112">
        <ele>1115.8</ele>
        <time>2016-06-11T08:49:09Z</time>
      </trkpt>
      <trkpt lat="42.601647" lon="-0.415159">
        <ele>1120.6</ele>
        <time>2016-06-11T08:49:28Z</time>
      </trkpt>
      <trkpt lat="42.601658" lon="-0.415418">
        <ele>1123.9</ele>
        <time>2016-06-11T08:49:45Z</time>
      </trkpt>
      <trkpt lat="42.601603" lon="-0.415566">
        <ele>1125.4</ele>
        <time>2016-06-11T08:49:55Z</time>
      </trkpt>
      <trkpt lat="42.601569" lon="-0.415635">
        <ele>1125.8</ele>
        <time>2016-06-11T08:50:00Z</time>
      </trkpt>
      <trkpt lat="42.601532" lon="-0.415964">
        <ele>1128.2</ele>
        <time>2016-06-11T08:50:18Z</time>
      </trkpt>
      <trkpt lat="42.601553" lon="-0.416281">
        <ele>1130.7</ele>
        <time>2016-06-11T08:50:35Z</time>
      </trkpt>
      <trkpt lat="42.601560" lon="-0.416361">
        <ele>1130.7</ele>
        <time>2016-06-11T08:50:39Z</time>
      </trkpt>
      <trkpt lat="42.601575" lon="-0.416434">
        <ele>1131.6</ele>
        <time>2016-06-11T08:50:43Z</time>
      </trkpt>
      <trkpt lat="42.601660" lon="-0.416841">
        <ele>1131.1</ele>
        <time>2016-06-11T08:51:03Z</time>
      </trkpt>
      <trkpt lat="42.601701" lon="-0.417192">
        <ele>1132.1</ele>
        <time>2016-06-11T08:51:19Z</time>
      </trkpt>
      <trkpt lat="42.601751" lon="-0.417541">
        <ele>1135.0</ele>
        <time>2016-06-11T08:51:36Z</time>
      </trkpt>
      <trkpt lat="42.601889" lon="-0.417924">
        <ele>1135.0</ele>
        <time>2016-06-11T08:51:55Z</time>
      </trkpt>
      <trkpt lat="42.602116" lon="-0.418096">
        <ele>1135.5</ele>
        <time>2016-06-11T08:52:13Z</time>
      </trkpt>
      <trkpt lat="42.602278" lon="-0.418210">
        <ele>1137.9</ele>
        <time>2016-06-11T08:52:26Z</time>
      </trkpt>
      <trkpt lat="42.602383" lon="-0.418265">
        <ele>1140.7</ele>
        <time>2016-06-11T08:52:37Z</time>
      </trkpt>
      <trkpt lat="42.602425" lon="-0.418073">
        <ele>1143.1</ele>
        <time>2016-06-11T08:52:50Z</time>
      </trkpt>
      <trkpt lat="42.602355" lon="-0.417921">
        <ele>1143.1</ele>
        <time>2016-06-11T08:52:59Z</time>
      </trkpt>
      <trkpt lat="42.602193" lon="-0.417670">
        <ele>1144.1</ele>
        <time>2016-06-11T08:53:15Z</time>
      </trkpt>
      <trkpt lat="42.602179" lon="-0.417530">
        <ele>1145.1</ele>
        <time>2016-06-11T08:53:24Z</time>
      </trkpt>
      <trkpt lat="42.602399" lon="-0.417561">
        <ele>1148.4</ele>
        <time>2016-06-11T08:53:42Z</time>
      </trkpt>
      <trkpt lat="42.602549" lon="-0.417715">
        <ele>1150.8</ele>
        <time>2016-06-11T08:53:56Z</time>
      </trkpt>
      <trkpt lat="42.602694" lon="-0.417930">
        <ele>1154.2</ele>
        <time>2016-06-11T08:54:13Z</time>
      </trkpt>
      <trkpt lat="42.602830" lon="-0.418204">
        <ele>1154.7</ele>
        <time>2016-06-11T08:54:31Z</time>
      </trkpt>
      <trkpt lat="42.602952" lon="-0.418536">
        <ele>1156.6</ele>
        <time>2016-06-11T08:54:53Z</time>
      </trkpt>
      <trkpt lat="42.603060" lon="-0.418816">
        <ele>1159.5</ele>
        <time>2016-06-11T08:55:11Z</time>
      </trkpt>
      <trkpt lat="42.603138" lon="-0.419027">
        <ele>1160.5</ele>
        <time>2016-06-11T08:55:26Z</time>
      </trkpt>
      <trkpt lat="42.603241" lon="-0.419270">
        <ele>1163.3</ele>
        <time>2016-06-11T08:55:44Z</time>
      </trkpt>
      <trkpt lat="42.603346" lon="-0.419477">
        <ele>1166.2</ele>
        <time>2016-06-11T08:55:59Z</time>
      </trkpt>
      <trkpt lat="42.603468" lon="-0.419767">
        <ele>1168.1</ele>
        <time>2016-06-11T08:56:18Z</time>
      </trkpt>
      <trkpt lat="42.603566" lon="-0.420056">
        <ele>1170.1</ele>
        <time>2016-06-11T08:56:35Z</time>
      </trkpt>
      <trkpt lat="42.603641" lon="-0.420269">
        <ele>1172.0</ele>
        <time>2016-06-11T08:56:49Z</time>
      </trkpt>
      <trkpt lat="42.603690" lon="-0.420379">
        <ele>1172.5</ele>
        <time>2016-06-11T08:56:56Z</time>
      </trkpt>
      <trkpt lat="42.603848" lon="-0.420550">
        <ele>1174.9</ele>
        <time>2016-06-11T08:57:13Z</time>
      </trkpt>
      <trkpt lat="42.604030" lon="-0.420668">
        <ele>1176.3</ele>
        <time>2016-06-11T08:57:28Z</time>
      </trkpt>
      <trkpt lat="42.604227" lon="-0.420769">
        <ele>1178.7</ele>
        <time>2016-06-11T08:57:44Z</time>
      </trkpt>
      <trkpt lat="42.604385" lon="-0.420879">
        <ele>1181.1</ele>
        <time>2016-06-11T08:57:59Z</time>
      </trkpt>
      <trkpt lat="42.604573" lon="-0.421016">
        <ele>1183.5</ele>
        <time>2016-06-11T08:58:15Z</time>
      </trkpt>
      <trkpt lat="42.604803" lon="-0.421188">
        <ele>1188.3</ele>
        <time>2016-06-11T08:58:34Z</time>
      </trkpt>
      <trkpt lat="42.605045" lon="-0.421359">
        <ele>1188.8</ele>
        <time>2016-06-11T08:58:50Z</time>
      </trkpt>
      <trkpt lat="42.605159" lon="-0.421437">
        <ele>1189.3</ele>
        <time>2016-06-11T08:59:04Z</time>
      </trkpt>
      <trkpt lat="42.605358" lon="-0.421620">
        <ele>1187.4</ele>
        <time>2016-06-11T08:59:45Z</time>
      </trkpt>
      <trkpt lat="42.605554" lon="-0.421797">
        <ele>1190.3</ele>
        <time>2016-06-11T08:59:59Z</time>
      </trkpt>
      <trkpt lat="42.605770" lon="-0.421968">
        <ele>1192.7</ele>
        <time>2016-06-11T09:00:14Z</time>
      </trkpt>
      <trkpt lat="42.605994" lon="-0.422173">
        <ele>1192.7</ele>
        <time>2016-06-11T09:00:30Z</time>
      </trkpt>
      <trkpt lat="42.606090" lon="-0.422257">
        <ele>1191.7</ele>
        <time>2016-06-11T09:00:38Z</time>
      </trkpt>
      <trkpt lat="42.606134" lon="-0.422287">
        <ele>1191.2</ele>
        <time>2016-06-11T09:00:42Z</time>
      </trkpt>
      <trkpt lat="42.606329" lon="-0.422333">
        <ele>1192.7</ele>
        <time>2016-06-11T09:00:58Z</time>
      </trkpt>
      <trkpt lat="42.606552" lon="-0.422273">
        <ele>1196.5</ele>
        <time>2016-06-11T09:01:15Z</time>
      </trkpt>
      <trkpt lat="42.606809" lon="-0.422259">
        <ele>1200.3</ele>
        <time>2016-06-11T09:01:34Z</time>
      </trkpt>
      <trkpt lat="42.607082" lon="-0.422239">
        <ele>1200.3</ele>
        <time>2016-06-11T09:01:52Z</time>
      </trkpt>
      <trkpt lat="42.607326" lon="-0.422335">
        <ele>1201.8</ele>
        <time>2016-06-11T09:02:09Z</time>
      </trkpt>
      <trkpt lat="42.607565" lon="-0.422332">
        <ele>1203.2</ele>
        <time>2016-06-11T09:02:27Z</time>
      </trkpt>
      <trkpt lat="42.607773" lon="-0.422293">
        <ele>1207.1</ele>
        <time>2016-06-11T09:02:44Z</time>
      </trkpt>
      <trkpt lat="42.607822" lon="-0.422230">
        <ele>1207.6</ele>
        <time>2016-06-11T09:02:49Z</time>
      </trkpt>
      <trkpt lat="42.607846" lon="-0.422177">
        <ele>1208.0</ele>
        <time>2016-06-11T09:02:53Z</time>
      </trkpt>
      <trkpt lat="42.607853" lon="-0.421917">
        <ele>1209.5</ele>
        <time>2016-06-11T09:03:09Z</time>
      </trkpt>
      <trkpt lat="42.607801" lon="-0.421803">
        <ele>1212.8</ele>
        <time>2016-06-11T09:03:18Z</time>
      </trkpt>
      <trkpt lat="42.607616" lon="-0.421687">
        <ele>1216.2</ele>
        <time>2016-06-11T09:03:35Z</time>
      </trkpt>
      <trkpt lat="42.607404" lon="-0.421692">
        <ele>1218.1</ele>
        <time>2016-06-11T09:03:50Z</time>
      </trkpt>
      <trkpt lat="42.607152" lon="-0.421677">
        <ele>1218.6</ele>
        <time>2016-06-11T09:04:09Z</time>
      </trkpt>
      <trkpt lat="42.607095" lon="-0.421653">
        <ele>1218.6</ele>
        <time>2016-06-11T09:04:14Z</time>
      </trkpt>
      <trkpt lat="42.607139" lon="-0.421431">
        <ele>1219.6</ele>
        <time>2016-06-11T09:04:30Z</time>
      </trkpt>
      <trkpt lat="42.607339" lon="-0.421265">
        <ele>1222.0</ele>
        <time>2016-06-11T09:04:46Z</time>
      </trkpt>
      <trkpt lat="42.607585" lon="-0.421210">
        <ele>1224.9</ele>
        <time>2016-06-11T09:05:03Z</time>
      </trkpt>
      <trkpt lat="42.607897" lon="-0.421276">
        <ele>1225.3</ele>
        <time>2016-06-11T09:05:23Z</time>
      </trkpt>
      <trkpt lat="42.608167" lon="-0.421363">
        <ele>1225.8</ele>
        <time>2016-06-11T09:05:41Z</time>
      </trkpt>
      <trkpt lat="42.608401" lon="-0.421459">
        <ele>1226.8</ele>
        <time>2016-06-11T09:06:00Z</time>
      </trkpt>
      <trkpt lat="42.608629" lon="-0.421491">
        <ele>1229.2</ele>
        <time>2016-06-11T09:06:17Z</time>
      </trkpt>
      <trkpt lat="42.608832" lon="-0.421430">
        <ele>1231.6</ele>
        <time>2016-06-11T09:06:33Z</time>
      </trkpt>
      <trkpt lat="42.608932" lon="-0.421382">
        <ele>1234.0</ele>
        <time>2016-06-11T09:06:41Z</time>
      </trkpt>
      <trkpt lat="42.608989" lon="-0.421337">
        <ele>1234.5</ele>
        <time>2016-06-11T09:06:46Z</time>
      </trkpt>
      <trkpt lat="42.609177" lon="-0.421211">
        <ele>1236.9</ele>
        <time>2016-06-11T09:07:02Z</time>
      </trkpt>
      <trkpt lat="42.609339" lon="-0.421150">
        <ele>1235.9</ele>
        <time>2016-06-11T09:07:13Z</time>
      </trkpt>
      <trkpt lat="42.609651" lon="-0.421076">
        <ele>1239.3</ele>
        <time>2016-06-11T09:07:33Z</time>
      </trkpt>
      <trkpt lat="42.609918" lon="-0.421042">
        <ele>1239.3</ele>
        <time>2016-06-11T09:07:49Z</time>
      </trkpt>
      <trkpt lat="42.610174" lon="-0.420957">
        <ele>1240.2</ele>
        <time>2016-06-11T09:08:05Z</time>
      </trkpt>
      <trkpt lat="42.610408" lon="-0.420853">
        <ele>1240.7</ele>
        <time>2016-06-11T09:08:19Z</time>
      </trkpt>
      <trkpt lat="42.610654" lon="-0.420828">
        <ele>1242.2</ele>
        <time>2016-06-11T09:08:33Z</time>
      </trkpt>
      <trkpt lat="42.610892" lon="-0.420895">
        <ele>1244.1</ele>
        <time>2016-06-11T09:08:49Z</time>
      </trkpt>
      <trkpt lat="42.611124" lon="-0.420915">
        <ele>1245.5</ele>
        <time>2016-06-11T09:09:05Z</time>
      </trkpt>
      <trkpt lat="42.611315" lon="-0.420901">
        <ele>1247.5</ele>
        <time>2016-06-11T09:09:19Z</time>
      </trkpt>
      <trkpt lat="42.611539" lon="-0.420940">
        <ele>1250.3</ele>
        <time>2016-06-11T09:09:37Z</time>
      </trkpt>
      <trkpt lat="42.611715" lon="-0.421019">
        <ele>1253.2</ele>
        <time>2016-06-11T09:09:52Z</time>
      </trkpt>
      <trkpt lat="42.611791" lon="-0.421014">
        <ele>1253.7</ele>
        <time>2016-06-11T09:09:59Z</time>
      </trkpt>
      <trkpt lat="42.611836" lon="-0.420940">
        <ele>1253.2</ele>
        <time>2016-06-11T09:10:05Z</time>
      </trkpt>
      <trkpt lat="42.611827" lon="-0.420863">
        <ele>1254.2</ele>
        <time>2016-06-11T09:10:11Z</time>
      </trkpt>
      <trkpt lat="42.611661" lon="-0.420681">
        <ele>1257.1</ele>
        <time>2016-06-11T09:10:29Z</time>
      </trkpt>
      <trkpt lat="42.611493" lon="-0.420563">
        <ele>1259.0</ele>
        <time>2016-06-11T09:10:45Z</time>
      </trkpt>
      <trkpt lat="42.611274" lon="-0.420392">
        <ele>1260.9</ele>
        <time>2016-06-11T09:11:04Z</time>
      </trkpt>
      <trkpt lat="42.611196" lon="-0.420319">
        <ele>1259.9</ele>
        <time>2016-06-11T09:11:11Z</time>
      </trkpt>
      <trkpt lat="42.611184" lon="-0.420234">
        <ele>1260.4</ele>
        <time>2016-06-11T09:11:16Z</time>
      </trkpt>
      <trkpt lat="42.611335" lon="-0.420256">
        <ele>1263.8</ele>
        <time>2016-06-11T09:11:34Z</time>
      </trkpt>
      <trkpt lat="42.611557" lon="-0.420370">
        <ele>1265.7</ele>
        <time>2016-06-11T09:11:50Z</time>
      </trkpt>
      <trkpt lat="42.611804" lon="-0.420423">
        <ele>1265.2</ele>
        <time>2016-06-11T09:12:06Z</time>
      </trkpt>
      <trkpt lat="42.612023" lon="-0.420463">
        <ele>1266.2</ele>
        <time>2016-06-11T09:12:21Z</time>
      </trkpt>
      <trkpt lat="42.612277" lon="-0.420478">
        <ele>1269.1</ele>
        <time>2016-06-11T09:12:39Z</time>
      </trkpt>
      <trkpt lat="42.612371" lon="-0.420460">
        <ele>1270.0</ele>
        <time>2016-06-11T09:12:46Z</time>
      </trkpt>
      <trkpt lat="42.612593" lon="-0.420413">
        <ele>1273.9</ele>
        <time>2016-06-11T09:13:03Z</time>
      </trkpt>
      <trkpt lat="42.612813" lon="-0.420418">
        <ele>1278.7</ele>
        <time>2016-06-11T09:13:22Z</time>
      </trkpt>
      <trkpt lat="42.613035" lon="-0.420410">
        <ele>1280.6</ele>
        <time>2016-06-11T09:13:39Z</time>
      </trkpt>
      <trkpt lat="42.613213" lon="-0.420402">
        <ele>1281.6</ele>
        <time>2016-06-11T09:13:53Z</time>
      </trkpt>
      <trkpt lat="42.613383" lon="-0.420396">
        <ele>1283.0</ele>
        <time>2016-06-11T09:14:08Z</time>
      </trkpt>
      <trkpt lat="42.613463" lon="-0.420400">
        <ele>1284.0</ele>
        <time>2016-06-11T09:14:15Z</time>
      </trkpt>
      <trkpt lat="42.613514" lon="-0.420394">
        <ele>1284.9</ele>
        <time>2016-06-11T09:14:19Z</time>
      </trkpt>
      <trkpt lat="42.613730" lon="-0.420386">
        <ele>1288.8</ele>
        <time>2016-06-11T09:14:37Z</time>
      </trkpt>
      <trkpt lat="42.613933" lon="-0.420372">
        <ele>1292.6</ele>
        <time>2016-06-11T09:14:53Z</time>
      </trkpt>
      <trkpt lat="42.614135" lon="-0.420384">
        <ele>1294.6</ele>
        <time>2016-06-11T09:15:08Z</time>
      </trkpt>
      <trkpt lat="42.614186" lon="-0.420386">
        <ele>1295.5</ele>
        <time>2016-06-11T09:15:12Z</time>
      </trkpt>
      <trkpt lat="42.614379" lon="-0.420417">
        <ele>1297.9</ele>
        <time>2016-06-11T09:15:27Z</time>
      </trkpt>
      <trkpt lat="42.614569" lon="-0.420454">
        <ele>1299.8</ele>
        <time>2016-06-11T09:15:43Z</time>
      </trkpt>
      <trkpt lat="42.614792" lon="-0.420453">
        <ele>1301.8</ele>
        <time>2016-06-11T09:16:00Z</time>
      </trkpt>
      <trkpt lat="42.615021" lon="-0.420450">
        <ele>1305.6</ele>
        <time>2016-06-11T09:16:17Z</time>
      </trkpt>
      <trkpt lat="42.615130" lon="-0.420453">
        <ele>1307.1</ele>
        <time>2016-06-11T09:16:25Z</time>
      </trkpt>
      <trkpt lat="42.615349" lon="-0.420469">
        <ele>1309.0</ele>
        <time>2016-06-11T09:16:40Z</time>
      </trkpt>
      <trkpt lat="42.615608" lon="-0.420562">
        <ele>1305.6</ele>
        <time>2016-06-11T09:16:53Z</time>
      </trkpt>
      <trkpt lat="42.615805" lon="-0.420934">
        <ele>1301.8</ele>
        <time>2016-06-11T09:17:02Z</time>
      </trkpt>
      <trkpt lat="42.615934" lon="-0.421065">
        <ele>1302.2</ele>
        <time>2016-06-11T09:17:13Z</time>
      </trkpt>
      <trkpt lat="42.616118" lon="-0.421332">
        <ele>1304.2</ele>
        <time>2016-06-11T09:17:31Z</time>
      </trkpt>
      <trkpt lat="42.616335" lon="-0.421586">
        <ele>1305.6</ele>
        <time>2016-06-11T09:17:50Z</time>
      </trkpt>
      <trkpt lat="42.616452" lon="-0.421718">
        <ele>1303.7</ele>
        <time>2016-06-11T09:18:48Z</time>
      </trkpt>
      <trkpt lat="42.616597" lon="-0.421937">
        <ele>1308.0</ele>
        <time>2016-06-11T09:19:01Z</time>
      </trkpt>
      <trkpt lat="42.616706" lon="-0.422121">
        <ele>1311.4</ele>
        <time>2016-06-11T09:19:14Z</time>
      </trkpt>
      <trkpt lat="42.616794" lon="-0.422297">
        <ele>1315.2</ele>
        <time>2016-06-11T09:19:28Z</time>
      </trkpt>
      <trkpt lat="42.616826" lon="-0.422361">
        <ele>1316.2</ele>
        <time>2016-06-11T09:19:33Z</time>
      </trkpt>
      <trkpt lat="42.616859" lon="-0.422424">
        <ele>1317.1</ele>
        <time>2016-06-11T09:19:38Z</time>
      </trkpt>
      <trkpt lat="42.617059" lon="-0.422713">
        <ele>1317.1</ele>
        <time>2016-06-11T09:19:57Z</time>
      </trkpt>
      <trkpt lat="42.617272" lon="-0.423030">
        <ele>1317.1</ele>
        <time>2016-06-11T09:20:11Z</time>
      </trkpt>
      <trkpt lat="42.617447" lon="-0.423345">
        <ele>1318.1</ele>
        <time>2016-06-11T09:20:22Z</time>
      </trkpt>
      <trkpt lat="42.617599" lon="-0.423557">
        <ele>1322.4</ele>
        <time>2016-06-11T09:20:37Z</time>
      </trkpt>
      <trkpt lat="42.617688" lon="-0.423672">
        <ele>1324.4</ele>
        <time>2016-06-11T09:20:43Z</time>
      </trkpt>
      <trkpt lat="42.617732" lon="-0.423691">
        <ele>1325.3</ele>
        <time>2016-06-11T09:20:46Z</time>
      </trkpt>
      <trkpt lat="42.617970" lon="-0.423708">
        <ele>1328.2</ele>
        <time>2016-06-11T09:21:02Z</time>
      </trkpt>
      <trkpt lat="42.618055" lon="-0.423724">
        <ele>1329.6</ele>
        <time>2016-06-11T09:21:09Z</time>
      </trkpt>
      <trkpt lat="42.618221" lon="-0.423919">
        <ele>1333.5</ele>
        <time>2016-06-11T09:21:26Z</time>
      </trkpt>
      <trkpt lat="42.618270" lon="-0.424030">
        <ele>1333.0</ele>
        <time>2016-06-11T09:21:35Z</time>
      </trkpt>
      <trkpt lat="42.618202" lon="-0.424366">
        <ele>1329.2</ele>
        <time>2016-06-11T09:21:54Z</time>
      </trkpt>
      <trkpt lat="42.618275" lon="-0.424544">
        <ele>1332.0</ele>
        <time>2016-06-11T09:22:07Z</time>
      </trkpt>
      <trkpt lat="42.618404" lon="-0.424736">
        <ele>1335.4</ele>
        <time>2016-06-11T09:22:23Z</time>
      </trkpt>
      <trkpt lat="42.618565" lon="-0.424873">
        <ele>1340.7</ele>
        <time>2016-06-11T09:22:40Z</time>
      </trkpt>
      <trkpt lat="42.618695" lon="-0.424935">
        <ele>1343.1</ele>
        <time>2016-06-11T09:22:50Z</time>
      </trkpt>
      <trkpt lat="42.618776" lon="-0.424959">
        <ele>1345.0</ele>
        <time>2016-06-11T09:22:57Z</time>
      </trkpt>
      <trkpt lat="42.618962" lon="-0.424961">
        <ele>1349.4</ele>
        <time>2016-06-11T09:23:12Z</time>
      </trkpt>
      <trkpt lat="42.619221" lon="-0.425040">
        <ele>1347.4</ele>
        <time>2016-06-11T09:23:30Z</time>
      </trkpt>
      <trkpt lat="42.619347" lon="-0.425080">
        <ele>1348.9</ele>
        <time>2016-06-11T09:23:39Z</time>
      </trkpt>
      <trkpt lat="42.619537" lon="-0.425135">
        <ele>1352.7</ele>
        <time>2016-06-11T09:23:54Z</time>
      </trkpt>
      <trkpt lat="42.619762" lon="-0.425123">
        <ele>1357.5</ele>
        <time>2016-06-11T09:24:12Z</time>
      </trkpt>
      <trkpt lat="42.619973" lon="-0.425164">
        <ele>1360.4</ele>
        <time>2016-06-11T09:24:27Z</time>
      </trkpt>
      <trkpt lat="42.620181" lon="-0.425192">
        <ele>1360.4</ele>
        <time>2016-06-11T09:24:44Z</time>
      </trkpt>
      <trkpt lat="42.620379" lon="-0.425232">
        <ele>1360.9</ele>
        <time>2016-06-11T09:24:59Z</time>
      </trkpt>
      <trkpt lat="42.620566" lon="-0.425376">
        <ele>1363.8</ele>
        <time>2016-06-11T09:25:16Z</time>
      </trkpt>
      <trkpt lat="42.620542" lon="-0.425522">
        <ele>1364.3</ele>
        <time>2016-06-11T09:25:26Z</time>
      </trkpt>
      <trkpt lat="42.620476" lon="-0.425587">
        <ele>1363.3</ele>
        <time>2016-06-11T09:25:34Z</time>
      </trkpt>
      <trkpt lat="42.620325" lon="-0.425680">
        <ele>1361.8</ele>
        <time>2016-06-11T09:25:49Z</time>
      </trkpt>
      <trkpt lat="42.620210" lon="-0.425799">
        <ele>1360.4</ele>
        <time>2016-06-11T09:26:01Z</time>
      </trkpt>
      <trkpt lat="42.620166" lon="-0.425851">
        <ele>1360.4</ele>
        <time>2016-06-11T09:26:05Z</time>
      </trkpt>
      <trkpt lat="42.620155" lon="-0.426072">
        <ele>1364.3</ele>
        <time>2016-06-11T09:26:21Z</time>
      </trkpt>
      <trkpt lat="42.620293" lon="-0.426200">
        <ele>1367.6</ele>
        <time>2016-06-11T09:26:34Z</time>
      </trkpt>
      <trkpt lat="42.620465" lon="-0.426278">
        <ele>1372.4</ele>
        <time>2016-06-11T09:26:49Z</time>
      </trkpt>
      <trkpt lat="42.620658" lon="-0.426245">
        <ele>1375.8</ele>
        <time>2016-06-11T09:27:04Z</time>
      </trkpt>
      <trkpt lat="42.620719" lon="-0.426219">
        <ele>1376.3</ele>
        <time>2016-06-11T09:27:17Z</time>
      </trkpt>
      <trkpt lat="42.620939" lon="-0.426229">
        <ele>1376.8</ele>
        <time>2016-06-11T09:28:00Z</time>
      </trkpt>
      <trkpt lat="42.621054" lon="-0.426263">
        <ele>1379.2</ele>
        <time>2016-06-11T09:28:08Z</time>
      </trkpt>
      <trkpt lat="42.621246" lon="-0.426278">
        <ele>1385.4</ele>
        <time>2016-06-11T09:28:22Z</time>
      </trkpt>
      <trkpt lat="42.621444" lon="-0.426259">
        <ele>1391.2</ele>
        <time>2016-06-11T09:28:38Z</time>
      </trkpt>
      <trkpt lat="42.621509" lon="-0.426238">
        <ele>1391.2</ele>
        <time>2016-06-11T09:28:43Z</time>
      </trkpt>
      <trkpt lat="42.621595" lon="-0.426231">
        <ele>1391.2</ele>
        <time>2016-06-11T09:28:49Z</time>
      </trkpt>
      <trkpt lat="42.621700" lon="-0.426317">
        <ele>1390.2</ele>
        <time>2016-06-11T09:28:58Z</time>
      </trkpt>
      <trkpt lat="42.621757" lon="-0.426421">
        <ele>1390.2</ele>
        <time>2016-06-11T09:29:05Z</time>
      </trkpt>
      <trkpt lat="42.621784" lon="-0.426507">
        <ele>1388.3</ele>
        <time>2016-06-11T09:29:11Z</time>
      </trkpt>
      <trkpt lat="42.621764" lon="-0.426673">
        <ele>1385.9</ele>
        <time>2016-06-11T09:29:21Z</time>
      </trkpt>
      <trkpt lat="42.621754" lon="-0.426738">
        <ele>1384.9</ele>
        <time>2016-06-11T09:29:25Z</time>
      </trkpt>
      <trkpt lat="42.621730" lon="-0.426925">
        <ele>1386.8</ele>
        <time>2016-06-11T09:29:39Z</time>
      </trkpt>
      <trkpt lat="42.621829" lon="-0.427050">
        <ele>1389.7</ele>
        <time>2016-06-11T09:29:53Z</time>
      </trkpt>
      <trkpt lat="42.621942" lon="-0.427081">
        <ele>1392.1</ele>
        <time>2016-06-11T09:30:05Z</time>
      </trkpt>
      <trkpt lat="42.622067" lon="-0.427258">
        <ele>1394.1</ele>
        <time>2016-06-11T09:30:20Z</time>
      </trkpt>
      <trkpt lat="42.622061" lon="-0.427498">
        <ele>1395.0</ele>
        <time>2016-06-11T09:30:36Z</time>
      </trkpt>
      <trkpt lat="42.622036" lon="-0.427610">
        <ele>1395.5</ele>
        <time>2016-06-11T09:30:44Z</time>
      </trkpt>
      <trkpt lat="42.621995" lon="-0.427793">
        <ele>1397.9</ele>
        <time>2016-06-11T09:30:58Z</time>
      </trkpt>
      <trkpt lat="42.622010" lon="-0.428070">
        <ele>1401.7</ele>
        <time>2016-06-11T09:31:16Z</time>
      </trkpt>
      <trkpt lat="42.622081" lon="-0.428238">
        <ele>1404.1</ele>
        <time>2016-06-11T09:31:29Z</time>
      </trkpt>
      <trkpt lat="42.622080" lon="-0.428350">
        <ele>1405.6</ele>
        <time>2016-06-11T09:31:36Z</time>
      </trkpt>
      <trkpt lat="42.621945" lon="-0.428533">
        <ele>1408.5</ele>
        <time>2016-06-11T09:31:54Z</time>
      </trkpt>
      <trkpt lat="42.621952" lon="-0.428668">
        <ele>1408.5</ele>
        <time>2016-06-11T09:32:03Z</time>
      </trkpt>
      <trkpt lat="42.622014" lon="-0.428733">
        <ele>1409.9</ele>
        <time>2016-06-11T09:32:09Z</time>
      </trkpt>
      <trkpt lat="42.622140" lon="-0.428726">
        <ele>1414.2</ele>
        <time>2016-06-11T09:32:20Z</time>
      </trkpt>
      <trkpt lat="42.622339" lon="-0.428789">
        <ele>1418.1</ele>
        <time>2016-06-11T09:32:35Z</time>
      </trkpt>
      <trkpt lat="42.622538" lon="-0.428941">
        <ele>1419.0</ele>
        <time>2016-06-11T09:32:51Z</time>
      </trkpt>
      <trkpt lat="42.622600" lon="-0.428979">
        <ele>1419.5</ele>
        <time>2016-06-11T09:32:56Z</time>
      </trkpt>
      <trkpt lat="42.622831" lon="-0.429052">
        <ele>1423.4</ele>
        <time>2016-06-11T09:33:14Z</time>
      </trkpt>
      <trkpt lat="42.622966" lon="-0.429092">
        <ele>1426.7</ele>
        <time>2016-06-11T09:33:24Z</time>
      </trkpt>
      <trkpt lat="42.623176" lon="-0.429254">
        <ele>1425.8</ele>
        <time>2016-06-11T09:33:40Z</time>
      </trkpt>
      <trkpt lat="42.623337" lon="-0.429452">
        <ele>1425.8</ele>
        <time>2016-06-11T09:33:55Z</time>
      </trkpt>
      <trkpt lat="42.623485" lon="-0.429659">
        <ele>1426.7</ele>
        <time>2016-06-11T09:34:09Z</time>
      </trkpt>
      <trkpt lat="42.623660" lon="-0.429871">
        <ele>1427.7</ele>
        <time>2016-06-11T09:34:24Z</time>
      </trkpt>
      <trkpt lat="42.623808" lon="-0.430140">
        <ele>1428.2</ele>
        <time>2016-06-11T09:34:37Z</time>
      </trkpt>
      <trkpt lat="42.624015" lon="-0.430835">
        <ele>1425.8</ele>
        <time>2016-06-11T09:34:47Z</time>
      </trkpt>
      <trkpt lat="42.624178" lon="-0.431337">
        <ele>1425.3</ele>
        <time>2016-06-11T09:34:56Z</time>
      </trkpt>
      <trkpt lat="42.624402" lon="-0.431985">
        <ele>1423.9</ele>
        <time>2016-06-11T09:35:11Z</time>
      </trkpt>
      <trkpt lat="42.624565" lon="-0.432375">
        <ele>1422.9</ele>
        <time>2016-06-11T09:35:25Z</time>
      </trkpt>
      <trkpt lat="42.624779" lon="-0.432878">
        <ele>1421.5</ele>
        <time>2016-06-11T09:35:36Z</time>
      </trkpt>
      <trkpt lat="42.624966" lon="-0.433183">
        <ele>1421.9</ele>
        <time>2016-06-11T09:35:50Z</time>
      </trkpt>
      <trkpt lat="42.625298" lon="-0.433590">
        <ele>1420.0</ele>
        <time>2016-06-11T09:36:08Z</time>
      </trkpt>
      <trkpt lat="42.625540" lon="-0.433954">
        <ele>1415.7</ele>
        <time>2016-06-11T09:36:16Z</time>
      </trkpt>
      <trkpt lat="42.626177" lon="-0.434273">
        <ele>1412.3</ele>
        <time>2016-06-11T09:36:29Z</time>
      </trkpt>
      <trkpt lat="42.626423" lon="-0.434377">
        <ele>1413.8</ele>
        <time>2016-06-11T09:36:41Z</time>
      </trkpt>
      <trkpt lat="42.626715" lon="-0.434505">
        <ele>1414.2</ele>
        <time>2016-06-11T09:36:59Z</time>
      </trkpt>
      <trkpt lat="42.626959" lon="-0.434598">
        <ele>1415.2</ele>
        <time>2016-06-11T09:37:14Z</time>
      </trkpt>
      <trkpt lat="42.627030" lon="-0.434616">
        <ele>1416.2</ele>
        <time>2016-06-11T09:37:19Z</time>
      </trkpt>
      <trkpt lat="42.627294" lon="-0.434709">
        <ele>1417.1</ele>
        <time>2016-06-11T09:37:35Z</time>
      </trkpt>
      <trkpt lat="42.627528" lon="-0.434784">
        <ele>1417.1</ele>
        <time>2016-06-11T09:37:51Z</time>
      </trkpt>
      <trkpt lat="42.627711" lon="-0.434808">
        <ele>1420.5</ele>
        <time>2016-06-11T09:38:05Z</time>
      </trkpt>
      <trkpt lat="42.627827" lon="-0.434805">
        <ele>1421.9</ele>
        <time>2016-06-11T09:38:14Z</time>
      </trkpt>
      <trkpt lat="42.628061" lon="-0.434827">
        <ele>1426.7</ele>
        <time>2016-06-11T09:38:31Z</time>
      </trkpt>
      <trkpt lat="42.628261" lon="-0.434886">
        <ele>1429.6</ele>
        <time>2016-06-11T09:38:46Z</time>
      </trkpt>
      <trkpt lat="42.628338" lon="-0.434873">
        <ele>1432.0</ele>
        <time>2016-06-11T09:39:06Z</time>
      </trkpt>
      <trkpt lat="42.628503" lon="-0.434888">
        <ele>1433.5</ele>
        <time>2016-06-11T09:39:27Z</time>
      </trkpt>
      <trkpt lat="42.628645" lon="-0.434860">
        <ele>1433.5</ele>
        <time>2016-06-11T09:39:47Z</time>
      </trkpt>
      <trkpt lat="42.628788" lon="-0.434870">
        <ele>1435.4</ele>
        <time>2016-06-11T09:40:07Z</time>
      </trkpt>
      <trkpt lat="42.628884" lon="-0.434860">
        <ele>1437.8</ele>
        <time>2016-06-11T09:40:23Z</time>
      </trkpt>
      <trkpt lat="42.629004" lon="-0.434871">
        <ele>1441.2</ele>
        <time>2016-06-11T09:40:43Z</time>
      </trkpt>
      <trkpt lat="42.629128" lon="-0.434898">
        <ele>1442.6</ele>
        <time>2016-06-11T09:41:02Z</time>
      </trkpt>
      <trkpt lat="42.629224" lon="-0.434884">
        <ele>1446.4</ele>
        <time>2016-06-11T09:41:18Z</time>
      </trkpt>
      <trkpt lat="42.629331" lon="-0.434960">
        <ele>1449.3</ele>
        <time>2016-06-11T09:41:34Z</time>
      </trkpt>
      <trkpt lat="42.629391" lon="-0.435105">
        <ele>1450.3</ele>
        <time>2016-06-11T09:41:50Z</time>
      </trkpt>
      <trkpt lat="42.629401" lon="-0.435193">
        <ele>1450.8</ele>
        <time>2016-06-11T09:42:06Z</time>
      </trkpt>
      <trkpt lat="42.629423" lon="-0.435425">
        <ele>1453.2</ele>
        <time>2016-06-11T09:42:24Z</time>
      </trkpt>
      <trkpt lat="42.629473" lon="-0.435618">
        <ele>1455.6</ele>
        <time>2016-06-11T09:42:41Z</time>
      </trkpt>
      <trkpt lat="42.629530" lon="-0.435775">
        <ele>1458.0</ele>
        <time>2016-06-11T09:42:57Z</time>
      </trkpt>
      <trkpt lat="42.629596" lon="-0.435934">
        <ele>1459.4</ele>
        <time>2016-06-11T09:43:13Z</time>
      </trkpt>
      <trkpt lat="42.629685" lon="-0.436113">
        <ele>1462.8</ele>
        <time>2016-06-11T09:43:33Z</time>
      </trkpt>
      <trkpt lat="42.629801" lon="-0.436306">
        <ele>1464.7</ele>
        <time>2016-06-11T09:43:54Z</time>
      </trkpt>
      <trkpt lat="42.629919" lon="-0.436455">
        <ele>1466.2</ele>
        <time>2016-06-11T09:44:13Z</time>
      </trkpt>
      <trkpt lat="42.630071" lon="-0.436579">
        <ele>1470.0</ele>
        <time>2016-06-11T09:44:34Z</time>
      </trkpt>
      <trkpt lat="42.630114" lon="-0.436602">
        <ele>1471.0</ele>
        <time>2016-06-11T09:44:39Z</time>
      </trkpt>
      <trkpt lat="42.630290" lon="-0.436675">
        <ele>1472.9</ele>
        <time>2016-06-11T09:44:57Z</time>
      </trkpt>
      <trkpt lat="42.630489" lon="-0.436626">
        <ele>1473.8</ele>
        <time>2016-06-11T09:45:16Z</time>
      </trkpt>
      <trkpt lat="42.630651" lon="-0.436676">
        <ele>1477.2</ele>
        <time>2016-06-11T09:45:34Z</time>
      </trkpt>
      <trkpt lat="42.630803" lon="-0.436752">
        <ele>1480.1</ele>
        <time>2016-06-11T09:45:53Z</time>
      </trkpt>
      <trkpt lat="42.630881" lon="-0.436872">
        <ele>1483.0</ele>
        <time>2016-06-11T09:46:10Z</time>
      </trkpt>
      <trkpt lat="42.630977" lon="-0.436920">
        <ele>1485.4</ele>
        <time>2016-06-11T09:46:26Z</time>
      </trkpt>
      <trkpt lat="42.631077" lon="-0.436954">
        <ele>1489.2</ele>
        <time>2016-06-11T09:46:43Z</time>
      </trkpt>
      <trkpt lat="42.631219" lon="-0.437006">
        <ele>1491.6</ele>
        <time>2016-06-11T09:47:00Z</time>
      </trkpt>
      <trkpt lat="42.631329" lon="-0.437068">
        <ele>1492.1</ele>
        <time>2016-06-11T09:47:14Z</time>
      </trkpt>
      <trkpt lat="42.631480" lon="-0.437184">
        <ele>1494.0</ele>
        <time>2016-06-11T09:47:33Z</time>
      </trkpt>
      <trkpt lat="42.631601" lon="-0.437300">
        <ele>1495.5</ele>
        <time>2016-06-11T09:47:50Z</time>
      </trkpt>
      <trkpt lat="42.631740" lon="-0.437431">
        <ele>1497.9</ele>
        <time>2016-06-11T09:48:10Z</time>
      </trkpt>
      <trkpt lat="42.631796" lon="-0.437436">
        <ele>1497.9</ele>
        <time>2016-06-11T09:48:22Z</time>
      </trkpt>
      <trkpt lat="42.632075" lon="-0.437222">
        <ele>1493.6</ele>
        <time>2016-06-11T09:48:33Z</time>
      </trkpt>
      <trkpt lat="42.632390" lon="-0.437003">
        <ele>1491.1</ele>
        <time>2016-06-11T09:48:42Z</time>
      </trkpt>
      <trkpt lat="42.632438" lon="-0.436978">
        <ele>1490.7</ele>
        <time>2016-06-11T09:48:43Z</time>
      </trkpt>
      <trkpt lat="42.632774" lon="-0.436711">
        <ele>1489.7</ele>
        <time>2016-06-11T09:48:54Z</time>
      </trkpt>
      <trkpt lat="42.633102" lon="-0.436510">
        <ele>1488.7</ele>
        <time>2016-06-11T09:49:07Z</time>
      </trkpt>
      <trkpt lat="42.633369" lon="-0.436298">
        <ele>1488.3</ele>
        <time>2016-06-11T09:49:20Z</time>
      </trkpt>
      <trkpt lat="42.633482" lon="-0.436206">
        <ele>1488.7</ele>
        <time>2016-06-11T09:49:28Z</time>
      </trkpt>
      <trkpt lat="42.633653" lon="-0.436075">
        <ele>1490.2</ele>
        <time>2016-06-11T09:49:42Z</time>
      </trkpt>
      <trkpt lat="42.633786" lon="-0.435999">
        <ele>1492.6</ele>
        <time>2016-06-11T09:49:53Z</time>
      </trkpt>
      <trkpt lat="42.633821" lon="-0.435955">
        <ele>1493.1</ele>
        <time>2016-06-11T09:49:57Z</time>
      </trkpt>
      <trkpt lat="42.634013" lon="-0.435829">
        <ele>1496.4</ele>
        <time>2016-06-11T09:50:14Z</time>
      </trkpt>
      <trkpt lat="42.634130" lon="-0.435785">
        <ele>1497.9</ele>
        <time>2016-06-11T09:50:23Z</time>
      </trkpt>
      <trkpt lat="42.634213" lon="-0.435794">
        <ele>1497.9</ele>
        <time>2016-06-11T09:50:28Z</time>
      </trkpt>
      <trkpt lat="42.634399" lon="-0.435668">
        <ele>1500.3</ele>
        <time>2016-06-11T09:50:43Z</time>
      </trkpt>
      <trkpt lat="42.634549" lon="-0.435636">
        <ele>1502.7</ele>
        <time>2016-06-11T09:50:56Z</time>
      </trkpt>
      <trkpt lat="42.634597" lon="-0.435648">
        <ele>1503.2</ele>
        <time>2016-06-11T09:51:00Z</time>
      </trkpt>
      <trkpt lat="42.634791" lon="-0.435762">
        <ele>1506.0</ele>
        <time>2016-06-11T09:51:15Z</time>
      </trkpt>
      <trkpt lat="42.635043" lon="-0.435880">
        <ele>1507.0</ele>
        <time>2016-06-11T09:51:30Z</time>
      </trkpt>
      <trkpt lat="42.635391" lon="-0.435945">
        <ele>1506.0</ele>
        <time>2016-06-11T09:51:48Z</time>
      </trkpt>
      <trkpt lat="42.635434" lon="-0.435919">
        <ele>1505.6</ele>
        <time>2016-06-11T09:51:51Z</time>
      </trkpt>
      <trkpt lat="42.635472" lon="-0.435881">
        <ele>1503.6</ele>
        <time>2016-06-11T09:52:03Z</time>
      </trkpt>
      <trkpt lat="42.635620" lon="-0.435945">
        <ele>1498.4</ele>
        <time>2016-06-11T10:06:42Z</time>
      </trkpt>
      <trkpt lat="42.635780" lon="-0.436123">
        <ele>1496.4</ele>
        <time>2016-06-11T10:06:46Z</time>
      </trkpt>
      <trkpt lat="42.635858" lon="-0.436356">
        <ele>1496.0</ele>
        <time>2016-06-11T10:06:50Z</time>
      </trkpt>
      <trkpt lat="42.635961" lon="-0.436621">
        <ele>1494.5</ele>
        <time>2016-06-11T10:06:55Z</time>
      </trkpt>
      <trkpt lat="42.636353" lon="-0.437148">
        <ele>1490.2</ele>
        <time>2016-06-11T10:07:07Z</time>
      </trkpt>
      <trkpt lat="42.636399" lon="-0.437183">
        <ele>1490.2</ele>
        <time>2016-06-11T10:07:09Z</time>
      </trkpt>
      <trkpt lat="42.636482" lon="-0.437320">
        <ele>1488.7</ele>
        <time>2016-06-11T10:07:14Z</time>
      </trkpt>
      <trkpt lat="42.637038" lon="-0.438102">
        <ele>1482.5</ele>
        <time>2016-06-11T10:07:27Z</time>
      </trkpt>
      <trkpt lat="42.637439" lon="-0.438644">
        <ele>1479.1</ele>
        <time>2016-06-11T10:07:35Z</time>
      </trkpt>
      <trkpt lat="42.637748" lon="-0.439007">
        <ele>1476.7</ele>
        <time>2016-06-11T10:07:42Z</time>
      </trkpt>
      <trkpt lat="42.638269" lon="-0.439229">
        <ele>1471.9</ele>
        <time>2016-06-11T10:07:51Z</time>
      </trkpt>
      <trkpt lat="42.638385" lon="-0.439259">
        <ele>1470.5</ele>
        <time>2016-06-11T10:07:53Z</time>
      </trkpt>
      <trkpt lat="42.638654" lon="-0.439406">
        <ele>1468.1</ele>
        <time>2016-06-11T10:07:58Z</time>
      </trkpt>
      <trkpt lat="42.638870" lon="-0.439650">
        <ele>1465.2</ele>
        <time>2016-06-11T10:08:02Z</time>
      </trkpt>
      <trkpt lat="42.639020" lon="-0.440074">
        <ele>1461.8</ele>
        <time>2016-06-11T10:08:07Z</time>
      </trkpt>
      <trkpt lat="42.639072" lon="-0.440245">
        <ele>1461.3</ele>
        <time>2016-06-11T10:08:09Z</time>
      </trkpt>
      <trkpt lat="42.639175" lon="-0.440823">
        <ele>1458.5</ele>
        <time>2016-06-11T10:08:17Z</time>
      </trkpt>
      <trkpt lat="42.639267" lon="-0.441095">
        <ele>1457.0</ele>
        <time>2016-06-11T10:08:21Z</time>
      </trkpt>
      <trkpt lat="42.639388" lon="-0.441461">
        <ele>1453.2</ele>
        <time>2016-06-11T10:08:28Z</time>
      </trkpt>
      <trkpt lat="42.639169" lon="-0.441396">
        <ele>1449.8</ele>
        <time>2016-06-11T10:08:34Z</time>
      </trkpt>
      <trkpt lat="42.639105" lon="-0.441359">
        <ele>1448.8</ele>
        <time>2016-06-11T10:08:36Z</time>
      </trkpt>
      <trkpt lat="42.638749" lon="-0.441160">
        <ele>1444.5</ele>
        <time>2016-06-11T10:08:46Z</time>
      </trkpt>
      <trkpt lat="42.638684" lon="-0.441484">
        <ele>1442.1</ele>
        <time>2016-06-11T10:08:53Z</time>
      </trkpt>
      <trkpt lat="42.638876" lon="-0.441669">
        <ele>1440.7</ele>
        <time>2016-06-11T10:08:58Z</time>
      </trkpt>
      <trkpt lat="42.639194" lon="-0.442090">
        <ele>1436.8</ele>
        <time>2016-06-11T10:09:06Z</time>
      </trkpt>
      <trkpt lat="42.639143" lon="-0.442270">
        <ele>1434.4</ele>
        <time>2016-06-11T10:09:12Z</time>
      </trkpt>
      <trkpt lat="42.639064" lon="-0.442254">
        <ele>1433.9</ele>
        <time>2016-06-11T10:09:14Z</time>
      </trkpt>
      <trkpt lat="42.638738" lon="-0.442270">
        <ele>1431.5</ele>
        <time>2016-06-11T10:09:20Z</time>
      </trkpt>
      <trkpt lat="42.638175" lon="-0.441982">
        <ele>1425.3</ele>
        <time>2016-06-11T10:09:30Z</time>
      </trkpt>
      <trkpt lat="42.638060" lon="-0.441462">
        <ele>1420.0</ele>
        <time>2016-06-11T10:09:37Z</time>
      </trkpt>
      <trkpt lat="42.637948" lon="-0.441195">
        <ele>1417.1</ele>
        <time>2016-06-11T10:09:43Z</time>
      </trkpt>
      <trkpt lat="42.637900" lon="-0.441212">
        <ele>1416.6</ele>
        <time>2016-06-11T10:09:44Z</time>
      </trkpt>
      <trkpt lat="42.637791" lon="-0.441255">
        <ele>1416.6</ele>
        <time>2016-06-11T10:09:46Z</time>
      </trkpt>
      <trkpt lat="42.637540" lon="-0.441250">
        <ele>1415.7</ele>
        <time>2016-06-11T10:09:50Z</time>
      </trkpt>
      <trkpt lat="42.637376" lon="-0.441356">
        <ele>1412.8</ele>
        <time>2016-06-11T10:09:58Z</time>
      </trkpt>
      <trkpt lat="42.637488" lon="-0.441412">
        <ele>1411.8</ele>
        <time>2016-06-11T10:10:01Z</time>
      </trkpt>
      <trkpt lat="42.637617" lon="-0.441489">
        <ele>1410.9</ele>
        <time>2016-06-11T10:10:04Z</time>
      </trkpt>
      <trkpt lat="42.637630" lon="-0.441733">
        <ele>1409.9</ele>
        <time>2016-06-11T10:10:10Z</time>
      </trkpt>
      <trkpt lat="42.637511" lon="-0.441865">
        <ele>1409.0</ele>
        <time>2016-06-11T10:10:13Z</time>
      </trkpt>
      <trkpt lat="42.637343" lon="-0.442168">
        <ele>1406.6</ele>
        <time>2016-06-11T10:10:18Z</time>
      </trkpt>
      <trkpt lat="42.637344" lon="-0.442931">
        <ele>1401.3</ele>
        <time>2016-06-11T10:10:27Z</time>
      </trkpt>
      <trkpt lat="42.637532" lon="-0.443426">
        <ele>1397.9</ele>
        <time>2016-06-11T10:10:34Z</time>
      </trkpt>
      <trkpt lat="42.637596" lon="-0.443549">
        <ele>1396.9</ele>
        <time>2016-06-11T10:10:36Z</time>
      </trkpt>
      <trkpt lat="42.637977" lon="-0.443757">
        <ele>1392.6</ele>
        <time>2016-06-11T10:10:44Z</time>
      </trkpt>
      <trkpt lat="42.638275" lon="-0.443720">
        <ele>1390.2</ele>
        <time>2016-06-11T10:10:49Z</time>
      </trkpt>
      <trkpt lat="42.638540" lon="-0.443790">
        <ele>1388.8</ele>
        <time>2016-06-11T10:10:53Z</time>
      </trkpt>
      <trkpt lat="42.638849" lon="-0.443915">
        <ele>1385.4</ele>
        <time>2016-06-11T10:10:59Z</time>
      </trkpt>
      <trkpt lat="42.638968" lon="-0.443996">
        <ele>1384.0</ele>
        <time>2016-06-11T10:11:01Z</time>
      </trkpt>
      <trkpt lat="42.639382" lon="-0.444157">
        <ele>1378.2</ele>
        <time>2016-06-11T10:11:08Z</time>
      </trkpt>
      <trkpt lat="42.639329" lon="-0.444381">
        <ele>1372.9</ele>
        <time>2016-06-11T10:11:15Z</time>
      </trkpt>
      <trkpt lat="42.639282" lon="-0.444381">
        <ele>1372.4</ele>
        <time>2016-06-11T10:11:16Z</time>
      </trkpt>
      <trkpt lat="42.639186" lon="-0.444381">
        <ele>1371.5</ele>
        <time>2016-06-11T10:11:18Z</time>
      </trkpt>
      <trkpt lat="42.639010" lon="-0.444465">
        <ele>1370.5</ele>
        <time>2016-06-11T10:11:22Z</time>
      </trkpt>
      <trkpt lat="42.638818" lon="-0.444688">
        <ele>1370.0</ele>
        <time>2016-06-11T10:11:27Z</time>
      </trkpt>
      <trkpt lat="42.638494" lon="-0.444842">
        <ele>1367.6</ele>
        <time>2016-06-11T10:11:33Z</time>
      </trkpt>
      <trkpt lat="42.638383" lon="-0.444872">
        <ele>1366.2</ele>
        <time>2016-06-11T10:11:35Z</time>
      </trkpt>
      <trkpt lat="42.637467" lon="-0.444949">
        <ele>1358.0</ele>
        <time>2016-06-11T10:11:48Z</time>
      </trkpt>
      <trkpt lat="42.637150" lon="-0.444924">
        <ele>1355.1</ele>
        <time>2016-06-11T10:11:52Z</time>
      </trkpt>
      <trkpt lat="42.636446" lon="-0.444553">
        <ele>1348.4</ele>
        <time>2016-06-11T10:12:02Z</time>
      </trkpt>
      <trkpt lat="42.636212" lon="-0.444099">
        <ele>1345.0</ele>
        <time>2016-06-11T10:12:08Z</time>
      </trkpt>
      <trkpt lat="42.636079" lon="-0.443915">
        <ele>1341.7</ele>
        <time>2016-06-11T10:12:15Z</time>
      </trkpt>
      <trkpt lat="42.636073" lon="-0.443980">
        <ele>1341.2</ele>
        <time>2016-06-11T10:12:16Z</time>
      </trkpt>
      <trkpt lat="42.636088" lon="-0.444464">
        <ele>1335.9</ele>
        <time>2016-06-11T10:12:24Z</time>
      </trkpt>
      <trkpt lat="42.636154" lon="-0.444718">
        <ele>1334.0</ele>
        <time>2016-06-11T10:12:28Z</time>
      </trkpt>
      <trkpt lat="42.636236" lon="-0.444900">
        <ele>1333.0</ele>
        <time>2016-06-11T10:12:31Z</time>
      </trkpt>
      <trkpt lat="42.636609" lon="-0.445310">
        <ele>1329.2</ele>
        <time>2016-06-11T10:12:39Z</time>
      </trkpt>
      <trkpt lat="42.637345" lon="-0.445715">
        <ele>1323.9</ele>
        <time>2016-06-11T10:12:52Z</time>
      </trkpt>
      <trkpt lat="42.638023" lon="-0.445930">
        <ele>1318.6</ele>
        <time>2016-06-11T10:13:02Z</time>
      </trkpt>
      <trkpt lat="42.638395" lon="-0.446137">
        <ele>1314.7</ele>
        <time>2016-06-11T10:13:08Z</time>
      </trkpt>
      <trkpt lat="42.638474" lon="-0.446371">
        <ele>1311.4</ele>
        <time>2016-06-11T10:13:14Z</time>
      </trkpt>
      <trkpt lat="42.638122" lon="-0.446206">
        <ele>1308.0</ele>
        <time>2016-06-11T10:13:22Z</time>
      </trkpt>
      <trkpt lat="42.638057" lon="-0.446196">
        <ele>1308.0</ele>
        <time>2016-06-11T10:13:23Z</time>
      </trkpt>
      <trkpt lat="42.637926" lon="-0.446188">
        <ele>1307.1</ele>
        <time>2016-06-11T10:13:25Z</time>
      </trkpt>
      <trkpt lat="42.637077" lon="-0.446218">
        <ele>1300.8</ele>
        <time>2016-06-11T10:13:37Z</time>
      </trkpt>
      <trkpt lat="42.636558" lon="-0.446048">
        <ele>1296.0</ele>
        <time>2016-06-11T10:13:45Z</time>
      </trkpt>
      <trkpt lat="42.635995" lon="-0.445975">
        <ele>1290.2</ele>
        <time>2016-06-11T10:13:53Z</time>
      </trkpt>
      <trkpt lat="42.635782" lon="-0.445912">
        <ele>1288.3</ele>
        <time>2016-06-11T10:13:56Z</time>
      </trkpt>
      <trkpt lat="42.635667" lon="-0.445852">
        <ele>1286.9</ele>
        <time>2016-06-11T10:13:58Z</time>
      </trkpt>
      <trkpt lat="42.635526" lon="-0.445959">
        <ele>1283.0</ele>
        <time>2016-06-11T10:14:05Z</time>
      </trkpt>
      <trkpt lat="42.635577" lon="-0.446000">
        <ele>1282.5</ele>
        <time>2016-06-11T10:14:07Z</time>
      </trkpt>
      <trkpt lat="42.635637" lon="-0.446039">
        <ele>1281.6</ele>
        <time>2016-06-11T10:14:09Z</time>
      </trkpt>
      <trkpt lat="42.635881" lon="-0.446158">
        <ele>1278.2</ele>
        <time>2016-06-11T10:14:14Z</time>
      </trkpt>
      <trkpt lat="42.636226" lon="-0.446327">
        <ele>1274.9</ele>
        <time>2016-06-11T10:14:20Z</time>
      </trkpt>
      <trkpt lat="42.636399" lon="-0.446431">
        <ele>1273.9</ele>
        <time>2016-06-11T10:14:23Z</time>
      </trkpt>
      <trkpt lat="42.636619" lon="-0.446544">
        <ele>1272.0</ele>
        <time>2016-06-11T10:14:27Z</time>
      </trkpt>
      <trkpt lat="42.637294" lon="-0.447141">
        <ele>1263.8</ele>
        <time>2016-06-11T10:14:38Z</time>
      </trkpt>
      <trkpt lat="42.637541" lon="-0.447241">
        <ele>1261.4</ele>
        <time>2016-06-11T10:14:45Z</time>
      </trkpt>
      <trkpt lat="42.637860" lon="-0.447362">
        <ele>1257.1</ele>
        <time>2016-06-11T10:14:55Z</time>
      </trkpt>
      <trkpt lat="42.638012" lon="-0.447478">
        <ele>1253.7</ele>
        <time>2016-06-11T10:15:00Z</time>
      </trkpt>
      <trkpt lat="42.637902" lon="-0.447706">
        <ele>1253.2</ele>
        <time>2016-06-11T10:15:10Z</time>
      </trkpt>
      <trkpt lat="42.637525" lon="-0.447982">
        <ele>1254.7</ele>
        <time>2016-06-11T10:15:24Z</time>
      </trkpt>
      <trkpt lat="42.637292" lon="-0.448180">
        <ele>1254.2</ele>
        <time>2016-06-11T10:15:35Z</time>
      </trkpt>
      <trkpt lat="42.637002" lon="-0.448315">
        <ele>1258.0</ele>
        <time>2016-06-11T10:15:49Z</time>
      </trkpt>
      <trkpt lat="42.636459" lon="-0.448287">
        <ele>1256.6</ele>
        <time>2016-06-11T10:16:03Z</time>
      </trkpt>
      <trkpt lat="42.635908" lon="-0.448461">
        <ele>1251.8</ele>
        <time>2016-06-11T10:16:15Z</time>
      </trkpt>
      <trkpt lat="42.635606" lon="-0.448647">
        <ele>1248.4</ele>
        <time>2016-06-11T10:16:22Z</time>
      </trkpt>
      <trkpt lat="42.635383" lon="-0.448790">
        <ele>1244.1</ele>
        <time>2016-06-11T10:16:28Z</time>
      </trkpt>
      <trkpt lat="42.635229" lon="-0.448904">
        <ele>1241.2</ele>
        <time>2016-06-11T10:16:32Z</time>
      </trkpt>
      <trkpt lat="42.635094" lon="-0.449069">
        <ele>1238.3</ele>
        <time>2016-06-11T10:16:36Z</time>
      </trkpt>
      <trkpt lat="42.634841" lon="-0.449502">
        <ele>1232.1</ele>
        <time>2016-06-11T10:16:45Z</time>
      </trkpt>
      <trkpt lat="42.634636" lon="-0.449769">
        <ele>1228.2</ele>
        <time>2016-06-11T10:16:52Z</time>
      </trkpt>
      <trkpt lat="42.634568" lon="-0.450140">
        <ele>1225.8</ele>
        <time>2016-06-11T10:16:57Z</time>
      </trkpt>
      <trkpt lat="42.634346" lon="-0.450712">
        <ele>1221.0</ele>
        <time>2016-06-11T10:17:06Z</time>
      </trkpt>
      <trkpt lat="42.634599" lon="-0.451038">
        <ele>1219.1</ele>
        <time>2016-06-11T10:17:13Z</time>
      </trkpt>
      <trkpt lat="42.634645" lon="-0.451097">
        <ele>1218.6</ele>
        <time>2016-06-11T10:17:14Z</time>
      </trkpt>
      <trkpt lat="42.634789" lon="-0.451276">
        <ele>1217.2</ele>
        <time>2016-06-11T10:17:17Z</time>
      </trkpt>
      <trkpt lat="42.635075" lon="-0.451640">
        <ele>1213.3</ele>
        <time>2016-06-11T10:17:23Z</time>
      </trkpt>
      <trkpt lat="42.635337" lon="-0.451862">
        <ele>1210.0</ele>
        <time>2016-06-11T10:17:30Z</time>
      </trkpt>
      <trkpt lat="42.635572" lon="-0.452265">
        <ele>1203.7</ele>
        <time>2016-06-11T10:17:36Z</time>
      </trkpt>
      <trkpt lat="42.636039" lon="-0.452749">
        <ele>1197.5</ele>
        <time>2016-06-11T10:17:44Z</time>
      </trkpt>
      <trkpt lat="42.636375" lon="-0.452874">
        <ele>1194.1</ele>
        <time>2016-06-11T10:17:49Z</time>
      </trkpt>
      <trkpt lat="42.637105" lon="-0.452931">
        <ele>1189.3</ele>
        <time>2016-06-11T10:17:59Z</time>
      </trkpt>
      <trkpt lat="42.637343" lon="-0.452926">
        <ele>1187.9</ele>
        <time>2016-06-11T10:18:02Z</time>
      </trkpt>
      <trkpt lat="42.637872" lon="-0.452828">
        <ele>1184.5</ele>
        <time>2016-06-11T10:18:09Z</time>
      </trkpt>
      <trkpt lat="42.638158" lon="-0.452643">
        <ele>1183.0</ele>
        <time>2016-06-11T10:18:14Z</time>
      </trkpt>
      <trkpt lat="42.638339" lon="-0.452719">
        <ele>1182.6</ele>
        <time>2016-06-11T10:18:21Z</time>
      </trkpt>
      <trkpt lat="42.638287" lon="-0.452834">
        <ele>1182.6</ele>
        <time>2016-06-11T10:18:24Z</time>
      </trkpt>
      <trkpt lat="42.638158" lon="-0.453204">
        <ele>1182.1</ele>
        <time>2016-06-11T10:18:30Z</time>
      </trkpt>
      <trkpt lat="42.638047" lon="-0.453494">
        <ele>1181.6</ele>
        <time>2016-06-11T10:18:34Z</time>
      </trkpt>
      <trkpt lat="42.637856" lon="-0.454013">
        <ele>1180.2</ele>
        <time>2016-06-11T10:18:42Z</time>
      </trkpt>
      <trkpt lat="42.637667" lon="-0.454338">
        <ele>1178.2</ele>
        <time>2016-06-11T10:18:48Z</time>
      </trkpt>
      <trkpt lat="42.637484" lon="-0.454576">
        <ele>1176.3</ele>
        <time>2016-06-11T10:18:53Z</time>
      </trkpt>
      <trkpt lat="42.637371" lon="-0.454776">
        <ele>1175.8</ele>
        <time>2016-06-11T10:18:57Z</time>
      </trkpt>
      <trkpt lat="42.637045" lon="-0.455087">
        <ele>1177.3</ele>
        <time>2016-06-11T10:19:06Z</time>
      </trkpt>
      <trkpt lat="42.636515" lon="-0.455523">
        <ele>1176.3</ele>
        <time>2016-06-11T10:19:22Z</time>
      </trkpt>
      <trkpt lat="42.636106" lon="-0.456101">
        <ele>1172.5</ele>
        <time>2016-06-11T10:19:36Z</time>
      </trkpt>
      <trkpt lat="42.635814" lon="-0.456431">
        <ele>1173.9</ele>
        <time>2016-06-11T10:19:48Z</time>
      </trkpt>
      <trkpt lat="42.635543" lon="-0.456747">
        <ele>1177.3</ele>
        <time>2016-06-11T10:19:58Z</time>
      </trkpt>
      <trkpt lat="42.635371" lon="-0.456995">
        <ele>1178.2</ele>
        <time>2016-06-11T10:20:04Z</time>
      </trkpt>
      <trkpt lat="42.635281" lon="-0.457243">
        <ele>1177.8</ele>
        <time>2016-06-11T10:20:08Z</time>
      </trkpt>
      <trkpt lat="42.635211" lon="-0.457392">
        <ele>1176.8</ele>
        <time>2016-06-11T10:20:10Z</time>
      </trkpt>
      <trkpt lat="42.635128" lon="-0.457541">
        <ele>1175.4</ele>
        <time>2016-06-11T10:20:12Z</time>
      </trkpt>
      <trkpt lat="42.634965" lon="-0.457964">
        <ele>1171.0</ele>
        <time>2016-06-11T10:20:18Z</time>
      </trkpt>
      <trkpt lat="42.634923" lon="-0.458405">
        <ele>1166.7</ele>
        <time>2016-06-11T10:20:23Z</time>
      </trkpt>
      <trkpt lat="42.634905" lon="-0.458639">
        <ele>1162.4</ele>
        <time>2016-06-11T10:20:28Z</time>
      </trkpt>
      <trkpt lat="42.634693" lon="-0.458947">
        <ele>1159.0</ele>
        <time>2016-06-11T10:20:35Z</time>
      </trkpt>
      <trkpt lat="42.634608" lon="-0.459237">
        <ele>1157.6</ele>
        <time>2016-06-11T10:20:39Z</time>
      </trkpt>
      <trkpt lat="42.634571" lon="-0.459667">
        <ele>1155.6</ele>
        <time>2016-06-11T10:20:44Z</time>
      </trkpt>
      <trkpt lat="42.634407" lon="-0.460302">
        <ele>1153.2</ele>
        <time>2016-06-11T10:20:53Z</time>
      </trkpt>
      <trkpt lat="42.634481" lon="-0.460404">
        <ele>1152.8</ele>
        <time>2016-06-11T10:20:55Z</time>
      </trkpt>
      <trkpt lat="42.634882" lon="-0.460692">
        <ele>1147.5</ele>
        <time>2016-06-11T10:21:02Z</time>
      </trkpt>
      <trkpt lat="42.635095" lon="-0.460772">
        <ele>1143.6</ele>
        <time>2016-06-11T10:21:07Z</time>
      </trkpt>
      <trkpt lat="42.635249" lon="-0.460934">
        <ele>1141.2</ele>
        <time>2016-06-11T10:21:11Z</time>
      </trkpt>
      <trkpt lat="42.635352" lon="-0.461110">
        <ele>1139.8</ele>
        <time>2016-06-11T10:21:14Z</time>
      </trkpt>
      <trkpt lat="42.635586" lon="-0.461224">
        <ele>1137.4</ele>
        <time>2016-06-11T10:21:19Z</time>
      </trkpt>
      <trkpt lat="42.635788" lon="-0.461163">
        <ele>1136.4</ele>
        <time>2016-06-11T10:21:22Z</time>
      </trkpt>
      <trkpt lat="42.636234" lon="-0.461445">
        <ele>1134.0</ele>
        <time>2016-06-11T10:21:30Z</time>
      </trkpt>
      <trkpt lat="42.636500" lon="-0.461944">
        <ele>1129.7</ele>
        <time>2016-06-11T10:21:38Z</time>
      </trkpt>
      <trkpt lat="42.636917" lon="-0.462101">
        <ele>1124.9</ele>
        <time>2016-06-11T10:21:44Z</time>
      </trkpt>
      <trkpt lat="42.637085" lon="-0.462091">
        <ele>1123.9</ele>
        <time>2016-06-11T10:21:46Z</time>
      </trkpt>
      <trkpt lat="42.637295" lon="-0.462139">
        <ele>1123.0</ele>
        <time>2016-06-11T10:21:49Z</time>
      </trkpt>
      <trkpt lat="42.637733" lon="-0.462395">
        <ele>1120.6</ele>
        <time>2016-06-11T10:21:58Z</time>
      </trkpt>
      <trkpt lat="42.637886" lon="-0.462576">
        <ele>1119.6</ele>
        <time>2016-06-11T10:22:02Z</time>
      </trkpt>
      <trkpt lat="42.638096" lon="-0.463068">
        <ele>1117.7</ele>
        <time>2016-06-11T10:22:09Z</time>
      </trkpt>
      <trkpt lat="42.638197" lon="-0.463207">
        <ele>1116.7</ele>
        <time>2016-06-11T10:22:11Z</time>
      </trkpt>
      <trkpt lat="42.639115" lon="-0.463965">
        <ele>1110.0</ele>
        <time>2016-06-11T10:22:24Z</time>
      </trkpt>
      <trkpt lat="42.639465" lon="-0.464232">
        <ele>1109.5</ele>
        <time>2016-06-11T10:22:32Z</time>
      </trkpt>
      <trkpt lat="42.639535" lon="-0.464262">
        <ele>1115.8</ele>
        <time>2016-06-11T10:22:56Z</time>
      </trkpt>
      <trkpt lat="42.639653" lon="-0.464359">
        <ele>1115.3</ele>
        <time>2016-06-11T10:23:40Z</time>
      </trkpt>
      <trkpt lat="42.639819" lon="-0.464500">
        <ele>1115.3</ele>
        <time>2016-06-11T10:23:48Z</time>
      </trkpt>
      <trkpt lat="42.639678" lon="-0.464517">
        <ele>1114.8</ele>
        <time>2016-06-11T10:23:56Z</time>
      </trkpt>
      <trkpt lat="42.639615" lon="-0.464458">
        <ele>1114.3</ele>
        <time>2016-06-11T10:23:58Z</time>
      </trkpt>
      <trkpt lat="42.638894" lon="-0.464214">
        <ele>1108.1</ele>
        <time>2016-06-11T10:24:10Z</time>
      </trkpt>
      <trkpt lat="42.637935" lon="-0.463861">
        <ele>1103.3</ele>
        <time>2016-06-11T10:24:23Z</time>
      </trkpt>
      <trkpt lat="42.637338" lon="-0.463673">
        <ele>1099.4</ele>
        <time>2016-06-11T10:24:32Z</time>
      </trkpt>
      <trkpt lat="42.636660" lon="-0.463506">
        <ele>1093.2</ele>
        <time>2016-06-11T10:24:41Z</time>
      </trkpt>
      <trkpt lat="42.636435" lon="-0.463398">
        <ele>1090.3</ele>
        <time>2016-06-11T10:24:44Z</time>
      </trkpt>
      <trkpt lat="42.636229" lon="-0.463211">
        <ele>1087.4</ele>
        <time>2016-06-11T10:24:47Z</time>
      </trkpt>
      <trkpt lat="42.635997" lon="-0.463034">
        <ele>1086.0</ele>
        <time>2016-06-11T10:24:50Z</time>
      </trkpt>
      <trkpt lat="42.635875" lon="-0.462980">
        <ele>1086.0</ele>
        <time>2016-06-11T10:24:52Z</time>
      </trkpt>
      <trkpt lat="42.635782" lon="-0.462952">
        <ele>1086.0</ele>
        <time>2016-06-11T10:24:53Z</time>
      </trkpt>
      <trkpt lat="42.634978" lon="-0.463012">
        <ele>1078.3</ele>
        <time>2016-06-11T10:25:04Z</time>
      </trkpt>
      <trkpt lat="42.634682" lon="-0.462972">
        <ele>1074.4</ele>
        <time>2016-06-11T10:25:08Z</time>
      </trkpt>
      <trkpt lat="42.633701" lon="-0.462539">
        <ele>1064.3</ele>
        <time>2016-06-11T10:25:21Z</time>
      </trkpt>
      <trkpt lat="42.633310" lon="-0.462356">
        <ele>1061.0</ele>
        <time>2016-06-11T10:25:26Z</time>
      </trkpt>
      <trkpt lat="42.632604" lon="-0.462192">
        <ele>1055.7</ele>
        <time>2016-06-11T10:25:35Z</time>
      </trkpt>
      <trkpt lat="42.632344" lon="-0.462051">
        <ele>1053.7</ele>
        <time>2016-06-11T10:25:39Z</time>
      </trkpt>
      <trkpt lat="42.631886" lon="-0.461659">
        <ele>1048.5</ele>
        <time>2016-06-11T10:25:47Z</time>
      </trkpt>
      <trkpt lat="42.631825" lon="-0.461618">
        <ele>1048.5</ele>
        <time>2016-06-11T10:25:48Z</time>
      </trkpt>
      <trkpt lat="42.630833" lon="-0.461208">
        <ele>1044.6</ele>
        <time>2016-06-11T10:26:02Z</time>
      </trkpt>
      <trkpt lat="42.630642" lon="-0.461083">
        <ele>1044.1</ele>
        <time>2016-06-11T10:26:05Z</time>
      </trkpt>
      <trkpt lat="42.630390" lon="-0.460969">
        <ele>1044.1</ele>
        <time>2016-06-11T10:26:10Z</time>
      </trkpt>
      <trkpt lat="42.630206" lon="-0.460819">
        <ele>1043.2</ele>
        <time>2016-06-11T10:26:14Z</time>
      </trkpt>
      <trkpt lat="42.629923" lon="-0.460738">
        <ele>1042.2</ele>
        <time>2016-06-11T10:26:19Z</time>
      </trkpt>
      <trkpt lat="42.629742" lon="-0.460801">
        <ele>1041.3</ele>
        <time>2016-06-11T10:26:22Z</time>
      </trkpt>
      <trkpt lat="42.629475" lon="-0.460797">
        <ele>1039.3</ele>
        <time>2016-06-11T10:26:26Z</time>
      </trkpt>
      <trkpt lat="42.628820" lon="-0.460930">
        <ele>1036.4</ele>
        <time>2016-06-11T10:26:35Z</time>
      </trkpt>
      <trkpt lat="42.628387" lon="-0.460994">
        <ele>1036.9</ele>
        <time>2016-06-11T10:26:42Z</time>
      </trkpt>
      <trkpt lat="42.628138" lon="-0.461059">
        <ele>1036.4</ele>
        <time>2016-06-11T10:26:46Z</time>
      </trkpt>
      <trkpt lat="42.627511" lon="-0.461455">
        <ele>1034.0</ele>
        <time>2016-06-11T10:26:57Z</time>
      </trkpt>
      <trkpt lat="42.627333" lon="-0.461612">
        <ele>1033.1</ele>
        <time>2016-06-11T10:27:01Z</time>
      </trkpt>
      <trkpt lat="42.627139" lon="-0.461756">
        <ele>1031.6</ele>
        <time>2016-06-11T10:27:05Z</time>
      </trkpt>
      <trkpt lat="42.627080" lon="-0.462086">
        <ele>1030.7</ele>
        <time>2016-06-11T10:27:11Z</time>
      </trkpt>
      <trkpt lat="42.627220" lon="-0.462424">
        <ele>1028.8</ele>
        <time>2016-06-11T10:27:17Z</time>
      </trkpt>
      <trkpt lat="42.627386" lon="-0.462829">
        <ele>1029.7</ele>
        <time>2016-06-11T10:27:27Z</time>
      </trkpt>
      <trkpt lat="42.627406" lon="-0.462911">
        <ele>1030.7</ele>
        <time>2016-06-11T10:27:29Z</time>
      </trkpt>
      <trkpt lat="42.627345" lon="-0.463041">
        <ele>1031.2</ele>
        <time>2016-06-11T10:27:33Z</time>
      </trkpt>
      <trkpt lat="42.626880" lon="-0.463338">
        <ele>1027.8</ele>
        <time>2016-06-11T10:27:44Z</time>
      </trkpt>
      <trkpt lat="42.626285" lon="-0.463321">
        <ele>1022.0</ele>
        <time>2016-06-11T10:27:53Z</time>
      </trkpt>
      <trkpt lat="42.625988" lon="-0.463550">
        <ele>1019.1</ele>
        <time>2016-06-11T10:27:58Z</time>
      </trkpt>
      <trkpt lat="42.625813" lon="-0.463832">
        <ele>1017.2</ele>
        <time>2016-06-11T10:28:02Z</time>
      </trkpt>
      <trkpt lat="42.625705" lon="-0.464264">
        <ele>1014.3</ele>
        <time>2016-06-11T10:28:07Z</time>
      </trkpt>
      <trkpt lat="42.625455" lon="-0.464803">
        <ele>1011.4</ele>
        <time>2016-06-11T10:28:18Z</time>
      </trkpt>
      <trkpt lat="42.625365" lon="-0.464928">
        <ele>1011.0</ele>
        <time>2016-06-11T10:28:21Z</time>
      </trkpt>
      <trkpt lat="42.625129" lon="-0.465117">
        <ele>1011.0</ele>
        <time>2016-06-11T10:28:27Z</time>
      </trkpt>
      <trkpt lat="42.624995" lon="-0.465236">
        <ele>1010.5</ele>
        <time>2016-06-11T10:28:30Z</time>
      </trkpt>
      <trkpt lat="42.624909" lon="-0.465348">
        <ele>1009.5</ele>
        <time>2016-06-11T10:28:32Z</time>
      </trkpt>
      <trkpt lat="42.624773" lon="-0.465657">
        <ele>1007.6</ele>
        <time>2016-06-11T10:28:36Z</time>
      </trkpt>
      <trkpt lat="42.624602" lon="-0.465941">
        <ele>1006.6</ele>
        <time>2016-06-11T10:28:40Z</time>
      </trkpt>
      <trkpt lat="42.624207" lon="-0.466323">
        <ele>1003.3</ele>
        <time>2016-06-11T10:28:47Z</time>
      </trkpt>
      <trkpt lat="42.624008" lon="-0.466732">
        <ele>1000.9</ele>
        <time>2016-06-11T10:28:52Z</time>
      </trkpt>
      <trkpt lat="42.623846" lon="-0.467912">
        <ele>995.1</ele>
        <time>2016-06-11T10:29:05Z</time>
      </trkpt>
      <trkpt lat="42.623849" lon="-0.468391">
        <ele>993.7</ele>
        <time>2016-06-11T10:29:11Z</time>
      </trkpt>
      <trkpt lat="42.623827" lon="-0.468649">
        <ele>993.2</ele>
        <time>2016-06-11T10:29:15Z</time>
      </trkpt>
      <trkpt lat="42.623832" lon="-0.468891">
        <ele>992.7</ele>
        <time>2016-06-11T10:29:19Z</time>
      </trkpt>
      <trkpt lat="42.623846" lon="-0.469016">
        <ele>992.7</ele>
        <time>2016-06-11T10:29:21Z</time>
      </trkpt>
      <trkpt lat="42.623845" lon="-0.469324">
        <ele>992.7</ele>
        <time>2016-06-11T10:29:26Z</time>
      </trkpt>
      <trkpt lat="42.623815" lon="-0.469549">
        <ele>992.7</ele>
        <time>2016-06-11T10:29:30Z</time>
      </trkpt>
      <trkpt lat="42.623828" lon="-0.469841">
        <ele>993.2</ele>
        <time>2016-06-11T10:29:35Z</time>
      </trkpt>
      <trkpt lat="42.623859" lon="-0.470085">
        <ele>993.2</ele>
        <time>2016-06-11T10:29:39Z</time>
      </trkpt>
      <trkpt lat="42.623902" lon="-0.470868">
        <ele>994.1</ele>
        <time>2016-06-11T10:29:51Z</time>
      </trkpt>
      <trkpt lat="42.623889" lon="-0.471059">
        <ele>994.6</ele>
        <time>2016-06-11T10:29:54Z</time>
      </trkpt>
      <trkpt lat="42.623860" lon="-0.471645">
        <ele>997.0</ele>
        <time>2016-06-11T10:30:04Z</time>
      </trkpt>
      <trkpt lat="42.623701" lon="-0.472400">
        <ele>1000.9</ele>
        <time>2016-06-11T10:30:19Z</time>
      </trkpt>
      <trkpt lat="42.623584" lon="-0.473113">
        <ele>999.9</ele>
        <time>2016-06-11T10:30:34Z</time>
      </trkpt>
      <trkpt lat="42.623677" lon="-0.473575">
        <ele>998.0</ele>
        <time>2016-06-11T10:30:44Z</time>
      </trkpt>
      <trkpt lat="42.623734" lon="-0.473872">
        <ele>997.0</ele>
        <time>2016-06-11T10:30:50Z</time>
      </trkpt>
      <trkpt lat="42.623435" lon="-0.474110">
        <ele>997.5</ele>
        <time>2016-06-11T10:31:00Z</time>
      </trkpt>
      <trkpt lat="42.623093" lon="-0.474528">
        <ele>998.5</ele>
        <time>2016-06-11T10:31:12Z</time>
      </trkpt>
      <trkpt lat="42.623013" lon="-0.474804">
        <ele>998.5</ele>
        <time>2016-06-11T10:31:17Z</time>
      </trkpt>
      <trkpt lat="42.622904" lon="-0.475202">
        <ele>997.5</ele>
        <time>2016-06-11T10:31:24Z</time>
      </trkpt>
      <trkpt lat="42.622782" lon="-0.475448">
        <ele>997.5</ele>
        <time>2016-06-11T10:31:29Z</time>
      </trkpt>
      <trkpt lat="42.622683" lon="-0.475884">
        <ele>996.1</ele>
        <time>2016-06-11T10:31:36Z</time>
      </trkpt>
      <trkpt lat="42.622618" lon="-0.476540">
        <ele>993.2</ele>
        <time>2016-06-11T10:31:44Z</time>
      </trkpt>
      <trkpt lat="42.622266" lon="-0.477726">
        <ele>985.5</ele>
        <time>2016-06-11T10:31:56Z</time>
      </trkpt>
      <trkpt lat="42.622040" lon="-0.479030">
        <ele>978.3</ele>
        <time>2016-06-11T10:32:08Z</time>
      </trkpt>
      <trkpt lat="42.621875" lon="-0.480010">
        <ele>973.0</ele>
        <time>2016-06-11T10:32:23Z</time>
      </trkpt>
      <trkpt lat="42.621831" lon="-0.480225">
        <ele>972.5</ele>
        <time>2016-06-11T10:32:27Z</time>
      </trkpt>
      <trkpt lat="42.621812" lon="-0.480354">
        <ele>972.0</ele>
        <time>2016-06-11T10:32:29Z</time>
      </trkpt>
      <trkpt lat="42.621795" lon="-0.480967">
        <ele>969.6</ele>
        <time>2016-06-11T10:32:37Z</time>
      </trkpt>
      <trkpt lat="42.621727" lon="-0.481297">
        <ele>967.7</ele>
        <time>2016-06-11T10:32:41Z</time>
      </trkpt>
      <trkpt lat="42.621605" lon="-0.481532">
        <ele>966.3</ele>
        <time>2016-06-11T10:32:44Z</time>
      </trkpt>
      <trkpt lat="42.621482" lon="-0.481921">
        <ele>963.9</ele>
        <time>2016-06-11T10:32:48Z</time>
      </trkpt>
      <trkpt lat="42.621392" lon="-0.482685">
        <ele>961.0</ele>
        <time>2016-06-11T10:32:55Z</time>
      </trkpt>
      <trkpt lat="42.621268" lon="-0.483945">
        <ele>956.7</ele>
        <time>2016-06-11T10:33:07Z</time>
      </trkpt>
      <trkpt lat="42.621220" lon="-0.484317">
        <ele>956.2</ele>
        <time>2016-06-11T10:33:11Z</time>
      </trkpt>
      <trkpt lat="42.621190" lon="-0.484564">
        <ele>955.7</ele>
        <time>2016-06-11T10:33:14Z</time>
      </trkpt>
      <trkpt lat="42.621056" lon="-0.485632">
        <ele>954.7</ele>
        <time>2016-06-11T10:33:30Z</time>
      </trkpt>
      <trkpt lat="42.620877" lon="-0.486512">
        <ele>956.2</ele>
        <time>2016-06-11T10:33:45Z</time>
      </trkpt>
      <trkpt lat="42.620907" lon="-0.487571">
        <ele>957.1</ele>
        <time>2016-06-11T10:34:02Z</time>
      </trkpt>
      <trkpt lat="42.620994" lon="-0.488651">
        <ele>958.6</ele>
        <time>2016-06-11T10:34:20Z</time>
      </trkpt>
      <trkpt lat="42.621236" lon="-0.489869">
        <ele>955.7</ele>
        <time>2016-06-11T10:34:37Z</time>
      </trkpt>
      <trkpt lat="42.621373" lon="-0.490300">
        <ele>954.3</ele>
        <time>2016-06-11T10:34:42Z</time>
      </trkpt>
      <trkpt lat="42.621830" lon="-0.491584">
        <ele>949.4</ele>
        <time>2016-06-11T10:34:56Z</time>
      </trkpt>
      <trkpt lat="42.622057" lon="-0.492424">
        <ele>945.1</ele>
        <time>2016-06-11T10:35:03Z</time>
      </trkpt>
      <trkpt lat="42.622313" lon="-0.492855">
        <ele>941.8</ele>
        <time>2016-06-11T10:35:07Z</time>
      </trkpt>
      <trkpt lat="42.622654" lon="-0.493205">
        <ele>938.4</ele>
        <time>2016-06-11T10:35:11Z</time>
      </trkpt>
      <trkpt lat="42.622832" lon="-0.494023">
        <ele>934.5</ele>
        <time>2016-06-11T10:35:18Z</time>
      </trkpt>
      <trkpt lat="42.622881" lon="-0.494610">
        <ele>932.6</ele>
        <time>2016-06-11T10:35:23Z</time>
      </trkpt>
      <trkpt lat="42.622948" lon="-0.494700">
        <ele>932.1</ele>
        <time>2016-06-11T10:35:24Z</time>
      </trkpt>
      <trkpt lat="42.624030" lon="-0.495980">
        <ele>925.4</ele>
        <time>2016-06-11T10:35:41Z</time>
      </trkpt>
      <trkpt lat="42.624548" lon="-0.496614">
        <ele>922.5</ele>
        <time>2016-06-11T10:35:50Z</time>
      </trkpt>
      <trkpt lat="42.624710" lon="-0.497054">
        <ele>922.0</ele>
        <time>2016-06-11T10:35:55Z</time>
      </trkpt>
      <trkpt lat="42.624732" lon="-0.497455">
        <ele>922.5</ele>
        <time>2016-06-11T10:35:59Z</time>
      </trkpt>
      <trkpt lat="42.624837" lon="-0.497801">
        <ele>922.0</ele>
        <time>2016-06-11T10:36:03Z</time>
      </trkpt>
      <trkpt lat="42.625367" lon="-0.498778">
        <ele>919.2</ele>
        <time>2016-06-11T10:36:16Z</time>
      </trkpt>
      <trkpt lat="42.625471" lon="-0.499274">
        <ele>919.2</ele>
        <time>2016-06-11T10:36:21Z</time>
      </trkpt>
      <trkpt lat="42.625543" lon="-0.500969">
        <ele>914.8</ele>
        <time>2016-06-11T10:36:37Z</time>
      </trkpt>
      <trkpt lat="42.625588" lon="-0.501698">
        <ele>912.4</ele>
        <time>2016-06-11T10:36:43Z</time>
      </trkpt>
      <trkpt lat="42.625807" lon="-0.502255">
        <ele>912.0</ele>
        <time>2016-06-11T10:36:49Z</time>
      </trkpt>
      <trkpt lat="42.626067" lon="-0.502666">
        <ele>911.5</ele>
        <time>2016-06-11T10:36:55Z</time>
      </trkpt>
      <trkpt lat="42.626238" lon="-0.504047">
        <ele>909.5</ele>
        <time>2016-06-11T10:37:11Z</time>
      </trkpt>
      <trkpt lat="42.626466" lon="-0.504940">
        <ele>910.0</ele>
        <time>2016-06-11T10:37:25Z</time>
      </trkpt>
      <trkpt lat="42.626724" lon="-0.505637">
        <ele>913.9</ele>
        <time>2016-06-11T10:37:40Z</time>
      </trkpt>
      <trkpt lat="42.626848" lon="-0.505969">
        <ele>913.4</ele>
        <time>2016-06-11T10:37:47Z</time>
      </trkpt>
      <trkpt lat="42.626877" lon="-0.506226">
        <ele>912.4</ele>
        <time>2016-06-11T10:37:51Z</time>
      </trkpt>
      <trkpt lat="42.626686" lon="-0.507261">
        <ele>914.4</ele>
        <time>2016-06-11T10:38:07Z</time>
      </trkpt>
      <trkpt lat="42.626658" lon="-0.507399">
        <ele>914.8</ele>
        <time>2016-06-11T10:38:09Z</time>
      </trkpt>
      <trkpt lat="42.626470" lon="-0.508479">
        <ele>916.8</ele>
        <time>2016-06-11T10:38:25Z</time>
      </trkpt>
      <trkpt lat="42.626326" lon="-0.508793">
        <ele>916.8</ele>
        <time>2016-06-11T10:38:31Z</time>
      </trkpt>
      <trkpt lat="42.626161" lon="-0.509341">
        <ele>916.3</ele>
        <time>2016-06-11T10:38:39Z</time>
      </trkpt>
      <trkpt lat="42.626122" lon="-0.509634">
        <ele>915.3</ele>
        <time>2016-06-11T10:38:43Z</time>
      </trkpt>
      <trkpt lat="42.626172" lon="-0.510036">
        <ele>914.8</ele>
        <time>2016-06-11T10:38:48Z</time>
      </trkpt>
      <trkpt lat="42.626244" lon="-0.510291">
        <ele>914.8</ele>
        <time>2016-06-11T10:38:51Z</time>
      </trkpt>
      <trkpt lat="42.626368" lon="-0.510633">
        <ele>913.9</ele>
        <time>2016-06-11T10:38:55Z</time>
      </trkpt>
      <trkpt lat="42.626369" lon="-0.511342">
        <ele>911.5</ele>
        <time>2016-06-11T10:39:03Z</time>
      </trkpt>
      <trkpt lat="42.626205" lon="-0.512135">
        <ele>909.5</ele>
        <time>2016-06-11T10:39:16Z</time>
      </trkpt>
      <trkpt lat="42.626050" lon="-0.512901">
        <ele>907.6</ele>
        <time>2016-06-11T10:39:29Z</time>
      </trkpt>
      <trkpt lat="42.626046" lon="-0.513028">
        <ele>907.6</ele>
        <time>2016-06-11T10:39:31Z</time>
      </trkpt>
      <trkpt lat="42.626088" lon="-0.513592">
        <ele>905.7</ele>
        <time>2016-06-11T10:39:40Z</time>
      </trkpt>
      <trkpt lat="42.626298" lon="-0.514192">
        <ele>903.8</ele>
        <time>2016-06-11T10:39:49Z</time>
      </trkpt>
      <trkpt lat="42.626891" lon="-0.514844">
        <ele>899.9</ele>
        <time>2016-06-11T10:40:02Z</time>
      </trkpt>
      <trkpt lat="42.627254" lon="-0.515549">
        <ele>899.0</ele>
        <time>2016-06-11T10:40:14Z</time>
      </trkpt>
      <trkpt lat="42.627271" lon="-0.515613">
        <ele>899.0</ele>
        <time>2016-06-11T10:40:15Z</time>
      </trkpt>
      <trkpt lat="42.627281" lon="-0.516414">
        <ele>900.9</ele>
        <time>2016-06-11T10:40:27Z</time>
      </trkpt>
      <trkpt lat="42.627322" lon="-0.516677">
        <ele>900.4</ele>
        <time>2016-06-11T10:40:31Z</time>
      </trkpt>
      <trkpt lat="42.627366" lon="-0.516798">
        <ele>900.4</ele>
        <time>2016-06-11T10:40:33Z</time>
      </trkpt>
      <trkpt lat="42.627492" lon="-0.516996">
        <ele>899.9</ele>
        <time>2016-06-11T10:40:37Z</time>
      </trkpt>
      <trkpt lat="42.627648" lon="-0.517159">
        <ele>898.5</ele>
        <time>2016-06-11T10:40:41Z</time>
      </trkpt>
      <trkpt lat="42.627821" lon="-0.517778">
        <ele>898.0</ele>
        <time>2016-06-11T10:40:50Z</time>
      </trkpt>
      <trkpt lat="42.627701" lon="-0.519135">
        <ele>892.7</ele>
        <time>2016-06-11T10:41:05Z</time>
      </trkpt>
      <trkpt lat="42.627708" lon="-0.520295">
        <ele>888.9</ele>
        <time>2016-06-11T10:41:17Z</time>
      </trkpt>
      <trkpt lat="42.627693" lon="-0.520464">
        <ele>888.4</ele>
        <time>2016-06-11T10:41:19Z</time>
      </trkpt>
      <trkpt lat="42.627588" lon="-0.520759">
        <ele>888.9</ele>
        <time>2016-06-11T10:41:23Z</time>
      </trkpt>
      <trkpt lat="42.627114" lon="-0.521697">
        <ele>888.9</ele>
        <time>2016-06-11T10:41:38Z</time>
      </trkpt>
      <trkpt lat="42.626666" lon="-0.523092">
        <ele>884.6</ele>
        <time>2016-06-11T10:41:54Z</time>
      </trkpt>
      <trkpt lat="42.626501" lon="-0.524417">
        <ele>878.8</ele>
        <time>2016-06-11T10:42:08Z</time>
      </trkpt>
      <trkpt lat="42.626493" lon="-0.524505">
        <ele>878.3</ele>
        <time>2016-06-11T10:42:09Z</time>
      </trkpt>
      <trkpt lat="42.626369" lon="-0.525008">
        <ele>876.9</ele>
        <time>2016-06-11T10:42:15Z</time>
      </trkpt>
      <trkpt lat="42.626193" lon="-0.525986">
        <ele>874.5</ele>
        <time>2016-06-11T10:42:28Z</time>
      </trkpt>
      <trkpt lat="42.626200" lon="-0.527031">
        <ele>873.5</ele>
        <time>2016-06-11T10:42:42Z</time>
      </trkpt>
      <trkpt lat="42.626414" lon="-0.528114">
        <ele>872.1</ele>
        <time>2016-06-11T10:42:57Z</time>
      </trkpt>
      <trkpt lat="42.626439" lon="-0.528255">
        <ele>872.5</ele>
        <time>2016-06-11T10:42:59Z</time>
      </trkpt>
      <trkpt lat="42.626429" lon="-0.528549">
        <ele>872.1</ele>
        <time>2016-06-11T10:43:03Z</time>
      </trkpt>
      <trkpt lat="42.626447" lon="-0.529556">
        <ele>869.7</ele>
        <time>2016-06-11T10:43:15Z</time>
      </trkpt>
      <trkpt lat="42.626539" lon="-0.530748">
        <ele>866.8</ele>
        <time>2016-06-11T10:43:30Z</time>
      </trkpt>
      <trkpt lat="42.626612" lon="-0.531915">
        <ele>864.4</ele>
        <time>2016-06-11T10:43:42Z</time>
      </trkpt>
      <trkpt lat="42.626648" lon="-0.532550">
        <ele>863.4</ele>
        <time>2016-06-11T10:43:48Z</time>
      </trkpt>
      <trkpt lat="42.626562" lon="-0.532928">
        <ele>862.4</ele>
        <time>2016-06-11T10:43:52Z</time>
      </trkpt>
      <trkpt lat="42.626425" lon="-0.533328">
        <ele>862.9</ele>
        <time>2016-06-11T10:43:57Z</time>
      </trkpt>
      <trkpt lat="42.626405" lon="-0.534464">
        <ele>859.6</ele>
        <time>2016-06-11T10:44:11Z</time>
      </trkpt>
      <trkpt lat="42.626437" lon="-0.535215">
        <ele>859.1</ele>
        <time>2016-06-11T10:44:20Z</time>
      </trkpt>
      <trkpt lat="42.626402" lon="-0.535680">
        <ele>859.1</ele>
        <time>2016-06-11T10:44:25Z</time>
      </trkpt>
      <trkpt lat="42.626133" lon="-0.536806">
        <ele>859.6</ele>
        <time>2016-06-11T10:44:39Z</time>
      </trkpt>
      <trkpt lat="42.626119" lon="-0.536866">
        <ele>859.6</ele>
        <time>2016-06-11T10:44:40Z</time>
      </trkpt>
      <trkpt lat="42.625976" lon="-0.537247">
        <ele>860.5</ele>
        <time>2016-06-11T10:44:47Z</time>
      </trkpt>
      <trkpt lat="42.625610" lon="-0.538072">
        <ele>864.8</ele>
        <time>2016-06-11T10:45:06Z</time>
      </trkpt>
      <trkpt lat="42.625573" lon="-0.538881">
        <ele>863.9</ele>
        <time>2016-06-11T10:45:21Z</time>
      </trkpt>
      <trkpt lat="42.625582" lon="-0.539106">
        <ele>863.9</ele>
        <time>2016-06-11T10:45:25Z</time>
      </trkpt>
      <trkpt lat="42.625565" lon="-0.539578">
        <ele>863.9</ele>
        <time>2016-06-11T10:45:33Z</time>
      </trkpt>
      <trkpt lat="42.625377" lon="-0.540442">
        <ele>862.9</ele>
        <time>2016-06-11T10:45:48Z</time>
      </trkpt>
      <trkpt lat="42.625387" lon="-0.540728">
        <ele>862.9</ele>
        <time>2016-06-11T10:45:53Z</time>
      </trkpt>
      <trkpt lat="42.625476" lon="-0.541835">
        <ele>862.9</ele>
        <time>2016-06-11T10:46:13Z</time>
      </trkpt>
      <trkpt lat="42.625192" lon="-0.542561">
        <ele>863.9</ele>
        <time>2016-06-11T10:46:28Z</time>
      </trkpt>
      <trkpt lat="42.624903" lon="-0.543263">
        <ele>864.8</ele>
        <time>2016-06-11T10:46:41Z</time>
      </trkpt>
      <trkpt lat="42.624995" lon="-0.543613">
        <ele>862.4</ele>
        <time>2016-06-11T10:46:47Z</time>
      </trkpt>
      <trkpt lat="42.625277" lon="-0.543773">
        <ele>859.6</ele>
        <time>2016-06-11T10:46:51Z</time>
      </trkpt>
      <trkpt lat="42.625532" lon="-0.544072">
        <ele>857.2</ele>
        <time>2016-06-11T10:46:55Z</time>
      </trkpt>
      <trkpt lat="42.626275" lon="-0.545333">
        <ele>855.2</ele>
        <time>2016-06-11T10:47:11Z</time>
      </trkpt>
      <trkpt lat="42.626427" lon="-0.545608">
        <ele>855.2</ele>
        <time>2016-06-11T10:47:15Z</time>
      </trkpt>
      <trkpt lat="42.626890" lon="-0.546731">
        <ele>851.4</ele>
        <time>2016-06-11T10:47:30Z</time>
      </trkpt>
      <trkpt lat="42.626980" lon="-0.546899">
        <ele>850.9</ele>
        <time>2016-06-11T10:47:33Z</time>
      </trkpt>
      <trkpt lat="42.627373" lon="-0.547140">
        <ele>850.9</ele>
        <time>2016-06-11T10:47:44Z</time>
      </trkpt>
      <trkpt lat="42.627623" lon="-0.547299">
        <ele>855.2</ele>
        <time>2016-06-11T10:47:58Z</time>
      </trkpt>
      <trkpt lat="42.627675" lon="-0.547325">
        <ele>855.7</ele>
        <time>2016-06-11T10:48:12Z</time>
      </trkpt>
      <trkpt lat="42.627801" lon="-0.547429">
        <ele>866.8</ele>
        <time>2016-06-11T11:15:58Z</time>
      </trkpt>
      <trkpt lat="42.627929" lon="-0.547541">
        <ele>870.1</ele>
        <time>2016-06-11T11:16:11Z</time>
      </trkpt>
      <trkpt lat="42.628015" lon="-0.547628">
        <ele>871.1</ele>
        <time>2016-06-11T11:16:19Z</time>
      </trkpt>
      <trkpt lat="42.628190" lon="-0.547815">
        <ele>866.8</ele>
        <time>2016-06-11T11:16:34Z</time>
      </trkpt>
      <trkpt lat="42.628226" lon="-0.547877">
        <ele>866.8</ele>
        <time>2016-06-11T11:16:38Z</time>
      </trkpt>
      <trkpt lat="42.628427" lon="-0.548177">
        <ele>867.7</ele>
        <time>2016-06-11T11:16:59Z</time>
      </trkpt>
      <trkpt lat="42.628541" lon="-0.548491">
        <ele>870.6</ele>
        <time>2016-06-11T11:17:17Z</time>
      </trkpt>
      <trkpt lat="42.628756" lon="-0.548748">
        <ele>872.5</ele>
        <time>2016-06-11T11:17:36Z</time>
      </trkpt>
      <trkpt lat="42.628999" lon="-0.548894">
        <ele>875.4</ele>
        <time>2016-06-11T11:17:54Z</time>
      </trkpt>
      <trkpt lat="42.629233" lon="-0.548867">
        <ele>878.3</ele>
        <time>2016-06-11T11:18:11Z</time>
      </trkpt>
      <trkpt lat="42.629425" lon="-0.548889">
        <ele>877.8</ele>
        <time>2016-06-11T11:18:25Z</time>
      </trkpt>
      <trkpt lat="42.629533" lon="-0.548931">
        <ele>879.7</ele>
        <time>2016-06-11T11:18:33Z</time>
      </trkpt>
      <trkpt lat="42.629596" lon="-0.548932">
        <ele>879.7</ele>
        <time>2016-06-11T11:18:38Z</time>
      </trkpt>
      <trkpt lat="42.629719" lon="-0.549052">
        <ele>881.7</ele>
        <time>2016-06-11T11:18:50Z</time>
      </trkpt>
      <trkpt lat="42.629734" lon="-0.549129">
        <ele>883.6</ele>
        <time>2016-06-11T11:18:55Z</time>
      </trkpt>
      <trkpt lat="42.629804" lon="-0.549166">
        <ele>885.5</ele>
        <time>2016-06-11T11:19:02Z</time>
      </trkpt>
      <trkpt lat="42.629870" lon="-0.549155">
        <ele>889.4</ele>
        <time>2016-06-11T11:19:09Z</time>
      </trkpt>
      <trkpt lat="42.629986" lon="-0.549233">
        <ele>893.7</ele>
        <time>2016-06-11T11:19:20Z</time>
      </trkpt>
      <trkpt lat="42.630028" lon="-0.549262">
        <ele>894.2</ele>
        <time>2016-06-11T11:19:24Z</time>
      </trkpt>
      <trkpt lat="42.630185" lon="-0.549395">
        <ele>899.5</ele>
        <time>2016-06-11T11:19:40Z</time>
      </trkpt>
      <trkpt lat="42.630293" lon="-0.549432">
        <ele>900.4</ele>
        <time>2016-06-11T11:19:50Z</time>
      </trkpt>
      <trkpt lat="42.630404" lon="-0.549521">
        <ele>901.9</ele>
        <time>2016-06-11T11:20:01Z</time>
      </trkpt>
      <trkpt lat="42.630525" lon="-0.549640">
        <ele>904.3</ele>
        <time>2016-06-11T11:20:12Z</time>
      </trkpt>
      <trkpt lat="42.630596" lon="-0.549700">
        <ele>904.7</ele>
        <time>2016-06-11T11:20:18Z</time>
      </trkpt>
      <trkpt lat="42.630789" lon="-0.549788">
        <ele>904.3</ele>
        <time>2016-06-11T11:20:33Z</time>
      </trkpt>
      <trkpt lat="42.630960" lon="-0.549968">
        <ele>906.7</ele>
        <time>2016-06-11T11:20:49Z</time>
      </trkpt>
      <trkpt lat="42.631129" lon="-0.550090">
        <ele>908.6</ele>
        <time>2016-06-11T11:21:03Z</time>
      </trkpt>
      <trkpt lat="42.631304" lon="-0.550180">
        <ele>911.5</ele>
        <time>2016-06-11T11:21:17Z</time>
      </trkpt>
      <trkpt lat="42.631411" lon="-0.550239">
        <ele>911.5</ele>
        <time>2016-06-11T11:21:25Z</time>
      </trkpt>
      <trkpt lat="42.631458" lon="-0.550274">
        <ele>912.0</ele>
        <time>2016-06-11T11:21:29Z</time>
      </trkpt>
      <trkpt lat="42.631513" lon="-0.550334">
        <ele>913.9</ele>
        <time>2016-06-11T11:21:34Z</time>
      </trkpt>
      <trkpt lat="42.631696" lon="-0.550442">
        <ele>916.8</ele>
        <time>2016-06-11T11:21:48Z</time>
      </trkpt>
      <trkpt lat="42.631692" lon="-0.550305">
        <ele>917.7</ele>
        <time>2016-06-11T11:21:57Z</time>
      </trkpt>
      <trkpt lat="42.631578" lon="-0.550150">
        <ele>919.6</ele>
        <time>2016-06-11T11:22:09Z</time>
      </trkpt>
      <trkpt lat="42.631551" lon="-0.550099">
        <ele>920.1</ele>
        <time>2016-06-11T11:22:13Z</time>
      </trkpt>
      <trkpt lat="42.631496" lon="-0.549989">
        <ele>920.1</ele>
        <time>2016-06-11T11:22:20Z</time>
      </trkpt>
      <trkpt lat="42.631501" lon="-0.549878">
        <ele>920.6</ele>
        <time>2016-06-11T11:22:24Z</time>
      </trkpt>
      <trkpt lat="42.631636" lon="-0.549731">
        <ele>922.0</ele>
        <time>2016-06-11T11:22:36Z</time>
      </trkpt>
      <trkpt lat="42.632000" lon="-0.549735">
        <ele>926.9</ele>
        <time>2016-06-11T11:22:57Z</time>
      </trkpt>
      <trkpt lat="42.632392" lon="-0.549632">
        <ele>924.9</ele>
        <time>2016-06-11T11:23:12Z</time>
      </trkpt>
      <trkpt lat="42.632738" lon="-0.549471">
        <ele>924.0</ele>
        <time>2016-06-11T11:23:21Z</time>
      </trkpt>
      <trkpt lat="42.633072" lon="-0.549410">
        <ele>921.6</ele>
        <time>2016-06-11T11:23:27Z</time>
      </trkpt>
      <trkpt lat="42.634210" lon="-0.549675">
        <ele>912.9</ele>
        <time>2016-06-11T11:23:40Z</time>
      </trkpt>
      <trkpt lat="42.635638" lon="-0.550226">
        <ele>905.7</ele>
        <time>2016-06-11T11:23:54Z</time>
      </trkpt>
      <trkpt lat="42.636356" lon="-0.550743">
        <ele>903.3</ele>
        <time>2016-06-11T11:24:03Z</time>
      </trkpt>
      <trkpt lat="42.636808" lon="-0.550800">
        <ele>899.0</ele>
        <time>2016-06-11T11:24:08Z</time>
      </trkpt>
      <trkpt lat="42.636962" lon="-0.550755">
        <ele>897.5</ele>
        <time>2016-06-11T11:24:10Z</time>
      </trkpt>
      <trkpt lat="42.637151" lon="-0.550810">
        <ele>896.1</ele>
        <time>2016-06-11T11:24:14Z</time>
      </trkpt>
      <trkpt lat="42.637703" lon="-0.551248">
        <ele>897.1</ele>
        <time>2016-06-11T11:24:32Z</time>
      </trkpt>
      <trkpt lat="42.638124" lon="-0.551424">
        <ele>897.5</ele>
        <time>2016-06-11T11:24:46Z</time>
      </trkpt>
      <trkpt lat="42.638397" lon="-0.551349">
        <ele>897.5</ele>
        <time>2016-06-11T11:24:57Z</time>
      </trkpt>
      <trkpt lat="42.639056" lon="-0.551303">
        <ele>899.0</ele>
        <time>2016-06-11T11:25:17Z</time>
      </trkpt>
      <trkpt lat="42.639675" lon="-0.551171">
        <ele>901.4</ele>
        <time>2016-06-11T11:25:36Z</time>
      </trkpt>
      <trkpt lat="42.640345" lon="-0.551021">
        <ele>902.3</ele>
        <time>2016-06-11T11:25:56Z</time>
      </trkpt>
      <trkpt lat="42.641107" lon="-0.550919">
        <ele>903.8</ele>
        <time>2016-06-11T11:26:19Z</time>
      </trkpt>
      <trkpt lat="42.641802" lon="-0.550892">
        <ele>905.7</ele>
        <time>2016-06-11T11:26:40Z</time>
      </trkpt>
      <trkpt lat="42.642493" lon="-0.550918">
        <ele>907.1</ele>
        <time>2016-06-11T11:27:01Z</time>
      </trkpt>
      <trkpt lat="42.642965" lon="-0.550916">
        <ele>909.1</ele>
        <time>2016-06-11T11:27:17Z</time>
      </trkpt>
      <trkpt lat="42.643309" lon="-0.550910">
        <ele>911.5</ele>
        <time>2016-06-11T11:27:32Z</time>
      </trkpt>
      <trkpt lat="42.643722" lon="-0.550931">
        <ele>914.4</ele>
        <time>2016-06-11T11:27:51Z</time>
      </trkpt>
      <trkpt lat="42.644174" lon="-0.550984">
        <ele>917.2</ele>
        <time>2016-06-11T11:28:12Z</time>
      </trkpt>
      <trkpt lat="42.644578" lon="-0.551084">
        <ele>920.6</ele>
        <time>2016-06-11T11:28:31Z</time>
      </trkpt>
      <trkpt lat="42.644963" lon="-0.551228">
        <ele>922.5</ele>
        <time>2016-06-11T11:28:49Z</time>
      </trkpt>
      <trkpt lat="42.645365" lon="-0.551431">
        <ele>924.5</ele>
        <time>2016-06-11T11:29:07Z</time>
      </trkpt>
      <trkpt lat="42.645784" lon="-0.551681">
        <ele>924.9</ele>
        <time>2016-06-11T11:29:24Z</time>
      </trkpt>
      <trkpt lat="42.646293" lon="-0.552007">
        <ele>925.9</ele>
        <time>2016-06-11T11:29:41Z</time>
      </trkpt>
      <trkpt lat="42.646764" lon="-0.552356">
        <ele>927.3</ele>
        <time>2016-06-11T11:29:57Z</time>
      </trkpt>
      <trkpt lat="42.647294" lon="-0.552913">
        <ele>926.9</ele>
        <time>2016-06-11T11:30:15Z</time>
      </trkpt>
      <trkpt lat="42.647766" lon="-0.553891">
        <ele>924.5</ele>
        <time>2016-06-11T11:30:31Z</time>
      </trkpt>
      <trkpt lat="42.648250" lon="-0.555412">
        <ele>924.0</ele>
        <time>2016-06-11T11:30:51Z</time>
      </trkpt>
      <trkpt lat="42.648654" lon="-0.556051">
        <ele>926.4</ele>
        <time>2016-06-11T11:31:07Z</time>
      </trkpt>
      <trkpt lat="42.649118" lon="-0.556668">
        <ele>929.3</ele>
        <time>2016-06-11T11:31:26Z</time>
      </trkpt>
      <trkpt lat="42.649612" lon="-0.557240">
        <ele>930.2</ele>
        <time>2016-06-11T11:31:46Z</time>
      </trkpt>
      <trkpt lat="42.650117" lon="-0.557625">
        <ele>930.7</ele>
        <time>2016-06-11T11:32:04Z</time>
      </trkpt>
      <trkpt lat="42.650132" lon="-0.557992">
        <ele>930.2</ele>
        <time>2016-06-11T11:32:15Z</time>
      </trkpt>
      <trkpt lat="42.650140" lon="-0.558263">
        <ele>932.6</ele>
        <time>2016-06-11T11:32:27Z</time>
      </trkpt>
      <trkpt lat="42.650268" lon="-0.558486">
        <ele>936.0</ele>
        <time>2016-06-11T11:32:41Z</time>
      </trkpt>
      <trkpt lat="42.650319" lon="-0.558638">
        <ele>936.9</ele>
        <time>2016-06-11T11:32:50Z</time>
      </trkpt>
      <trkpt lat="42.650412" lon="-0.558853">
        <ele>938.9</ele>
        <time>2016-06-11T11:33:03Z</time>
      </trkpt>
      <trkpt lat="42.650563" lon="-0.559138">
        <ele>943.7</ele>
        <time>2016-06-11T11:33:21Z</time>
      </trkpt>
      <trkpt lat="42.650689" lon="-0.559403">
        <ele>946.6</ele>
        <time>2016-06-11T11:33:37Z</time>
      </trkpt>
      <trkpt lat="42.650828" lon="-0.559655">
        <ele>949.4</ele>
        <time>2016-06-11T11:33:53Z</time>
      </trkpt>
      <trkpt lat="42.650794" lon="-0.559938">
        <ele>947.5</ele>
        <time>2016-06-11T11:34:07Z</time>
      </trkpt>
      <trkpt lat="42.650777" lon="-0.560193">
        <ele>950.9</ele>
        <time>2016-06-11T11:34:21Z</time>
      </trkpt>
      <trkpt lat="42.650996" lon="-0.560332">
        <ele>957.6</ele>
        <time>2016-06-11T11:34:37Z</time>
      </trkpt>
      <trkpt lat="42.651303" lon="-0.560540">
        <ele>961.5</ele>
        <time>2016-06-11T11:34:57Z</time>
      </trkpt>
      <trkpt lat="42.651452" lon="-0.560680">
        <ele>965.8</ele>
        <time>2016-06-11T11:35:09Z</time>
      </trkpt>
      <trkpt lat="42.651516" lon="-0.560692">
        <ele>967.2</ele>
        <time>2016-06-11T11:35:13Z</time>
      </trkpt>
      <trkpt lat="42.651767" lon="-0.560845">
        <ele>971.1</ele>
        <time>2016-06-11T11:35:31Z</time>
      </trkpt>
      <trkpt lat="42.651996" lon="-0.560959">
        <ele>971.1</ele>
        <time>2016-06-11T11:35:46Z</time>
      </trkpt>
      <trkpt lat="42.652298" lon="-0.561097">
        <ele>973.5</ele>
        <time>2016-06-11T11:36:06Z</time>
      </trkpt>
      <trkpt lat="42.652378" lon="-0.561138">
        <ele>973.5</ele>
        <time>2016-06-11T11:36:11Z</time>
      </trkpt>
      <trkpt lat="42.652665" lon="-0.561277">
        <ele>974.0</ele>
        <time>2016-06-11T11:36:30Z</time>
      </trkpt>
      <trkpt lat="42.652927" lon="-0.561409">
        <ele>974.9</ele>
        <time>2016-06-11T11:36:48Z</time>
      </trkpt>
      <trkpt lat="42.653178" lon="-0.561551">
        <ele>976.8</ele>
        <time>2016-06-11T11:37:06Z</time>
      </trkpt>
      <trkpt lat="42.653414" lon="-0.561696">
        <ele>978.8</ele>
        <time>2016-06-11T11:37:23Z</time>
      </trkpt>
      <trkpt lat="42.653715" lon="-0.561839">
        <ele>981.2</ele>
        <time>2016-06-11T11:37:44Z</time>
      </trkpt>
      <trkpt lat="42.653992" lon="-0.561926">
        <ele>984.1</ele>
        <time>2016-06-11T11:38:03Z</time>
      </trkpt>
      <trkpt lat="42.654235" lon="-0.562085">
        <ele>986.5</ele>
        <time>2016-06-11T11:38:21Z</time>
      </trkpt>
      <trkpt lat="42.654403" lon="-0.562285">
        <ele>989.8</ele>
        <time>2016-06-11T11:38:36Z</time>
      </trkpt>
      <trkpt lat="42.654692" lon="-0.562464">
        <ele>994.6</ele>
        <time>2016-06-11T11:38:57Z</time>
      </trkpt>
      <trkpt lat="42.654956" lon="-0.562575">
        <ele>996.1</ele>
        <time>2016-06-11T11:39:16Z</time>
      </trkpt>
      <trkpt lat="42.655255" lon="-0.562713">
        <ele>999.0</ele>
        <time>2016-06-11T11:39:37Z</time>
      </trkpt>
      <trkpt lat="42.655533" lon="-0.562834">
        <ele>1001.4</ele>
        <time>2016-06-11T11:39:57Z</time>
      </trkpt>
      <trkpt lat="42.655802" lon="-0.562957">
        <ele>1004.7</ele>
        <time>2016-06-11T11:40:16Z</time>
      </trkpt>
      <trkpt lat="42.656059" lon="-0.563054">
        <ele>1007.1</ele>
        <time>2016-06-11T11:40:34Z</time>
      </trkpt>
      <trkpt lat="42.656326" lon="-0.563173">
        <ele>1011.4</ele>
        <time>2016-06-11T11:40:53Z</time>
      </trkpt>
      <trkpt lat="42.656543" lon="-0.563331">
        <ele>1014.3</ele>
        <time>2016-06-11T11:41:09Z</time>
      </trkpt>
      <trkpt lat="42.656782" lon="-0.563635">
        <ele>1017.2</ele>
        <time>2016-06-11T11:41:29Z</time>
      </trkpt>
      <trkpt lat="42.656979" lon="-0.564013">
        <ele>1020.6</ele>
        <time>2016-06-11T11:41:50Z</time>
      </trkpt>
      <trkpt lat="42.657046" lon="-0.564367">
        <ele>1021.5</ele>
        <time>2016-06-11T11:42:05Z</time>
      </trkpt>
      <trkpt lat="42.657071" lon="-0.564560">
        <ele>1021.5</ele>
        <time>2016-06-11T11:42:59Z</time>
      </trkpt>
      <trkpt lat="42.657072" lon="-0.565026">
        <ele>1022.0</ele>
        <time>2016-06-11T11:43:14Z</time>
      </trkpt>
      <trkpt lat="42.657030" lon="-0.565396">
        <ele>1022.0</ele>
        <time>2016-06-11T11:43:26Z</time>
      </trkpt>
      <trkpt lat="42.656855" lon="-0.565639">
        <ele>1021.5</ele>
        <time>2016-06-11T11:43:32Z</time>
      </trkpt>
      <trkpt lat="42.656648" lon="-0.565806">
        <ele>1020.1</ele>
        <time>2016-06-11T11:43:37Z</time>
      </trkpt>
      <trkpt lat="42.656546" lon="-0.565833">
        <ele>1019.6</ele>
        <time>2016-06-11T11:43:39Z</time>
      </trkpt>
      <trkpt lat="42.655916" lon="-0.566426">
        <ele>1014.3</ele>
        <time>2016-06-11T11:43:51Z</time>
      </trkpt>
      <trkpt lat="42.655727" lon="-0.566680">
        <ele>1012.4</ele>
        <time>2016-06-11T11:43:54Z</time>
      </trkpt>
      <trkpt lat="42.655288" lon="-0.566772">
        <ele>1012.4</ele>
        <time>2016-06-11T11:44:00Z</time>
      </trkpt>
      <trkpt lat="42.655155" lon="-0.566704">
        <ele>1013.9</ele>
        <time>2016-06-11T11:44:03Z</time>
      </trkpt>
      <trkpt lat="42.654921" lon="-0.566691">
        <ele>1017.2</ele>
        <time>2016-06-11T11:44:17Z</time>
      </trkpt>
      <trkpt lat="42.654663" lon="-0.566727">
        <ele>1020.1</ele>
        <time>2016-06-11T11:44:34Z</time>
      </trkpt>
      <trkpt lat="42.654352" lon="-0.566846">
        <ele>1023.9</ele>
        <time>2016-06-11T11:44:55Z</time>
      </trkpt>
      <trkpt lat="42.654040" lon="-0.567002">
        <ele>1027.3</ele>
        <time>2016-06-11T11:45:17Z</time>
      </trkpt>
      <trkpt lat="42.653814" lon="-0.567216">
        <ele>1031.2</ele>
        <time>2016-06-11T11:45:36Z</time>
      </trkpt>
      <trkpt lat="42.653675" lon="-0.567520">
        <ele>1034.5</ele>
        <time>2016-06-11T11:45:54Z</time>
      </trkpt>
      <trkpt lat="42.653633" lon="-0.567930">
        <ele>1036.9</ele>
        <time>2016-06-11T11:46:15Z</time>
      </trkpt>
      <trkpt lat="42.653597" lon="-0.568312">
        <ele>1039.8</ele>
        <time>2016-06-11T11:46:34Z</time>
      </trkpt>
      <trkpt lat="42.653647" lon="-0.568629">
        <ele>1043.2</ele>
        <time>2016-06-11T11:46:51Z</time>
      </trkpt>
      <trkpt lat="42.653834" lon="-0.568528">
        <ele>1045.6</ele>
        <time>2016-06-11T11:47:04Z</time>
      </trkpt>
      <trkpt lat="42.654078" lon="-0.568236">
        <ele>1047.0</ele>
        <time>2016-06-11T11:47:23Z</time>
      </trkpt>
      <trkpt lat="42.654298" lon="-0.567988">
        <ele>1048.5</ele>
        <time>2016-06-11T11:47:40Z</time>
      </trkpt>
      <trkpt lat="42.654550" lon="-0.567692">
        <ele>1049.9</ele>
        <time>2016-06-11T11:47:58Z</time>
      </trkpt>
      <trkpt lat="42.654735" lon="-0.567814">
        <ele>1052.3</ele>
        <time>2016-06-11T11:48:13Z</time>
      </trkpt>
      <trkpt lat="42.654601" lon="-0.568128">
        <ele>1054.2</ele>
        <time>2016-06-11T11:48:30Z</time>
      </trkpt>
      <trkpt lat="42.654390" lon="-0.568457">
        <ele>1057.6</ele>
        <time>2016-06-11T11:48:51Z</time>
      </trkpt>
      <trkpt lat="42.654278" lon="-0.568835">
        <ele>1060.5</ele>
        <time>2016-06-11T11:49:11Z</time>
      </trkpt>
      <trkpt lat="42.654197" lon="-0.569209">
        <ele>1063.4</ele>
        <time>2016-06-11T11:49:30Z</time>
      </trkpt>
      <trkpt lat="42.654067" lon="-0.569567">
        <ele>1066.7</ele>
        <time>2016-06-11T11:49:49Z</time>
      </trkpt>
      <trkpt lat="42.653910" lon="-0.569912">
        <ele>1069.6</ele>
        <time>2016-06-11T11:50:08Z</time>
      </trkpt>
      <trkpt lat="42.653806" lon="-0.570247">
        <ele>1072.5</ele>
        <time>2016-06-11T11:50:26Z</time>
      </trkpt>
      <trkpt lat="42.653783" lon="-0.570637">
        <ele>1075.4</ele>
        <time>2016-06-11T11:50:45Z</time>
      </trkpt>
      <trkpt lat="42.653778" lon="-0.571002">
        <ele>1078.3</ele>
        <time>2016-06-11T11:51:03Z</time>
      </trkpt>
      <trkpt lat="42.653845" lon="-0.571376">
        <ele>1081.6</ele>
        <time>2016-06-11T11:51:22Z</time>
      </trkpt>
      <trkpt lat="42.653982" lon="-0.571723">
        <ele>1085.5</ele>
        <time>2016-06-11T11:51:41Z</time>
      </trkpt>
      <trkpt lat="42.654153" lon="-0.571990">
        <ele>1089.8</ele>
        <time>2016-06-11T11:51:59Z</time>
      </trkpt>
      <trkpt lat="42.654294" lon="-0.572237">
        <ele>1091.7</ele>
        <time>2016-06-11T11:52:15Z</time>
      </trkpt>
      <trkpt lat="42.654480" lon="-0.572542">
        <ele>1096.0</ele>
        <time>2016-06-11T11:52:35Z</time>
      </trkpt>
      <trkpt lat="42.654554" lon="-0.572821">
        <ele>1097.0</ele>
        <time>2016-06-11T11:52:50Z</time>
      </trkpt>
      <trkpt lat="42.654561" lon="-0.572905">
        <ele>1097.5</ele>
        <time>2016-06-11T11:52:54Z</time>
      </trkpt>
      <trkpt lat="42.654473" lon="-0.573250">
        <ele>1099.4</ele>
        <time>2016-06-11T11:53:12Z</time>
      </trkpt>
      <trkpt lat="42.654281" lon="-0.573481">
        <ele>1103.3</ele>
        <time>2016-06-11T11:53:29Z</time>
      </trkpt>
      <trkpt lat="42.654078" lon="-0.573505">
        <ele>1105.2</ele>
        <time>2016-06-11T11:53:42Z</time>
      </trkpt>
      <trkpt lat="42.653807" lon="-0.573485">
        <ele>1107.1</ele>
        <time>2016-06-11T11:54:00Z</time>
      </trkpt>
      <trkpt lat="42.653518" lon="-0.573505">
        <ele>1109.0</ele>
        <time>2016-06-11T11:54:18Z</time>
      </trkpt>
      <trkpt lat="42.653285" lon="-0.573601">
        <ele>1111.9</ele>
        <time>2016-06-11T11:54:34Z</time>
      </trkpt>
      <trkpt lat="42.653064" lon="-0.573758">
        <ele>1115.8</ele>
        <time>2016-06-11T11:54:51Z</time>
      </trkpt>
      <trkpt lat="42.652765" lon="-0.573878">
        <ele>1118.2</ele>
        <time>2016-06-11T11:55:12Z</time>
      </trkpt>
      <trkpt lat="42.652509" lon="-0.573865">
        <ele>1121.5</ele>
        <time>2016-06-11T11:55:29Z</time>
      </trkpt>
      <trkpt lat="42.652238" lon="-0.573748">
        <ele>1123.9</ele>
        <time>2016-06-11T11:55:47Z</time>
      </trkpt>
      <trkpt lat="42.651999" lon="-0.573545">
        <ele>1126.8</ele>
        <time>2016-06-11T11:56:05Z</time>
      </trkpt>
      <trkpt lat="42.651767" lon="-0.573356">
        <ele>1128.2</ele>
        <time>2016-06-11T11:56:22Z</time>
      </trkpt>
      <trkpt lat="42.651474" lon="-0.573177">
        <ele>1132.6</ele>
        <time>2016-06-11T11:56:43Z</time>
      </trkpt>
      <trkpt lat="42.651270" lon="-0.573170">
        <ele>1133.5</ele>
        <time>2016-06-11T11:56:56Z</time>
      </trkpt>
      <trkpt lat="42.651022" lon="-0.573176">
        <ele>1135.9</ele>
        <time>2016-06-11T11:57:12Z</time>
      </trkpt>
      <trkpt lat="42.650764" lon="-0.573321">
        <ele>1139.3</ele>
        <time>2016-06-11T11:57:30Z</time>
      </trkpt>
      <trkpt lat="42.650643" lon="-0.573606">
        <ele>1139.3</ele>
        <time>2016-06-11T11:57:44Z</time>
      </trkpt>
      <trkpt lat="42.650641" lon="-0.573976">
        <ele>1138.8</ele>
        <time>2016-06-11T11:57:57Z</time>
      </trkpt>
      <trkpt lat="42.650743" lon="-0.574310">
        <ele>1137.9</ele>
        <time>2016-06-11T12:14:39Z</time>
      </trkpt>
      <trkpt lat="42.650812" lon="-0.574333">
        <ele>1137.4</ele>
        <time>2016-06-11T12:14:43Z</time>
      </trkpt>
      <trkpt lat="42.651231" lon="-0.574762">
        <ele>1132.1</ele>
        <time>2016-06-11T12:14:51Z</time>
      </trkpt>
      <trkpt lat="42.651759" lon="-0.575856">
        <ele>1121.0</ele>
        <time>2016-06-11T12:15:00Z</time>
      </trkpt>
      <trkpt lat="42.651885" lon="-0.576527">
        <ele>1113.8</ele>
        <time>2016-06-11T12:15:04Z</time>
      </trkpt>
      <trkpt lat="42.651915" lon="-0.576888">
        <ele>1110.5</ele>
        <time>2016-06-11T12:15:06Z</time>
      </trkpt>
      <trkpt lat="42.652418" lon="-0.577820">
        <ele>1097.0</ele>
        <time>2016-06-11T12:15:13Z</time>
      </trkpt>
      <trkpt lat="42.653153" lon="-0.578354">
        <ele>1085.5</ele>
        <time>2016-06-11T12:15:19Z</time>
      </trkpt>
      <trkpt lat="42.653296" lon="-0.578891">
        <ele>1079.2</ele>
        <time>2016-06-11T12:15:22Z</time>
      </trkpt>
      <trkpt lat="42.653379" lon="-0.579469">
        <ele>1073.9</ele>
        <time>2016-06-11T12:15:25Z</time>
      </trkpt>
      <trkpt lat="42.653764" lon="-0.580229">
        <ele>1065.3</ele>
        <time>2016-06-11T12:15:30Z</time>
      </trkpt>
      <trkpt lat="42.654829" lon="-0.581481">
        <ele>1049.4</ele>
        <time>2016-06-11T12:15:40Z</time>
      </trkpt>
      <trkpt lat="42.655496" lon="-0.581783">
        <ele>1038.8</ele>
        <time>2016-06-11T12:15:46Z</time>
      </trkpt>
      <trkpt lat="42.655733" lon="-0.581628">
        <ele>1036.0</ele>
        <time>2016-06-11T12:15:48Z</time>
      </trkpt>
      <trkpt lat="42.656079" lon="-0.581302">
        <ele>1031.2</ele>
        <time>2016-06-11T12:15:51Z</time>
      </trkpt>
      <trkpt lat="42.656269" lon="-0.581053">
        <ele>1028.8</ele>
        <time>2016-06-11T12:15:53Z</time>
      </trkpt>
      <trkpt lat="42.656800" lon="-0.580797">
        <ele>1023.9</ele>
        <time>2016-06-11T12:15:59Z</time>
      </trkpt>
      <trkpt lat="42.657021" lon="-0.581070">
        <ele>1022.0</ele>
        <time>2016-06-11T12:16:04Z</time>
      </trkpt>
      <trkpt lat="42.656931" lon="-0.581379">
        <ele>1021.1</ele>
        <time>2016-06-11T12:16:08Z</time>
      </trkpt>
      <trkpt lat="42.656760" lon="-0.581659">
        <ele>1020.1</ele>
        <time>2016-06-11T12:16:12Z</time>
      </trkpt>
      <trkpt lat="42.656617" lon="-0.582105">
        <ele>1017.7</ele>
        <time>2016-06-11T12:16:17Z</time>
      </trkpt>
      <trkpt lat="42.656566" lon="-0.582862">
        <ele>1014.3</ele>
        <time>2016-06-11T12:16:24Z</time>
      </trkpt>
      <trkpt lat="42.656379" lon="-0.584074">
        <ele>1011.0</ele>
        <time>2016-06-11T12:16:34Z</time>
      </trkpt>
      <trkpt lat="42.656337" lon="-0.584334">
        <ele>1010.5</ele>
        <time>2016-06-11T12:16:36Z</time>
      </trkpt>
      <trkpt lat="42.656539" lon="-0.585078">
        <ele>1005.7</ele>
        <time>2016-06-11T12:16:42Z</time>
      </trkpt>
      <trkpt lat="42.657590" lon="-0.586589">
        <ele>990.8</ele>
        <time>2016-06-11T12:16:54Z</time>
      </trkpt>
      <trkpt lat="42.657711" lon="-0.586781">
        <ele>990.3</ele>
        <time>2016-06-11T12:16:56Z</time>
      </trkpt>
      <trkpt lat="42.658268" lon="-0.586934">
        <ele>988.4</ele>
        <time>2016-06-11T12:17:04Z</time>
      </trkpt>
      <trkpt lat="42.658343" lon="-0.586888">
        <ele>988.4</ele>
        <time>2016-06-11T12:17:05Z</time>
      </trkpt>
      <trkpt lat="42.658980" lon="-0.586315">
        <ele>991.3</ele>
        <time>2016-06-11T12:17:17Z</time>
      </trkpt>
      <trkpt lat="42.659113" lon="-0.585949">
        <ele>993.7</ele>
        <time>2016-06-11T12:17:31Z</time>
      </trkpt>
      <trkpt lat="42.659227" lon="-0.585717">
        <ele>997.0</ele>
        <time>2016-06-11T12:17:44Z</time>
      </trkpt>
      <trkpt lat="42.659291" lon="-0.585767">
        <ele>997.0</ele>
        <time>2016-06-11T12:17:48Z</time>
      </trkpt>
      <trkpt lat="42.659353" lon="-0.585905">
        <ele>998.5</ele>
        <time>2016-06-11T12:17:55Z</time>
      </trkpt>
      <trkpt lat="42.659281" lon="-0.586299">
        <ele>999.0</ele>
        <time>2016-06-11T12:18:14Z</time>
      </trkpt>
      <trkpt lat="42.659252" lon="-0.586623">
        <ele>1000.9</ele>
        <time>2016-06-11T12:18:29Z</time>
      </trkpt>
      <trkpt lat="42.659276" lon="-0.586980">
        <ele>1003.3</ele>
        <time>2016-06-11T12:18:47Z</time>
      </trkpt>
      <trkpt lat="42.659219" lon="-0.587305">
        <ele>1004.2</ele>
        <time>2016-06-11T12:19:03Z</time>
      </trkpt>
      <trkpt lat="42.659085" lon="-0.587677">
        <ele>1007.6</ele>
        <time>2016-06-11T12:19:24Z</time>
      </trkpt>
      <trkpt lat="42.659043" lon="-0.588110">
        <ele>1009.5</ele>
        <time>2016-06-11T12:19:44Z</time>
      </trkpt>
      <trkpt lat="42.659094" lon="-0.588276">
        <ele>1009.0</ele>
        <time>2016-06-11T12:19:48Z</time>
      </trkpt>
      <trkpt lat="42.659662" lon="-0.588851">
        <ele>1004.7</ele>
        <time>2016-06-11T12:20:00Z</time>
      </trkpt>
      <trkpt lat="42.660774" lon="-0.589395">
        <ele>999.9</ele>
        <time>2016-06-11T12:20:14Z</time>
      </trkpt>
      <trkpt lat="42.660862" lon="-0.589428">
        <ele>999.4</ele>
        <time>2016-06-11T12:20:15Z</time>
      </trkpt>
      <trkpt lat="42.661396" lon="-0.589800">
        <ele>997.5</ele>
        <time>2016-06-11T12:20:22Z</time>
      </trkpt>
      <trkpt lat="42.661544" lon="-0.590337">
        <ele>999.0</ele>
        <time>2016-06-11T12:20:29Z</time>
      </trkpt>
      <trkpt lat="42.661542" lon="-0.590631">
        <ele>999.4</ele>
        <time>2016-06-11T12:20:35Z</time>
      </trkpt>
      <trkpt lat="42.661634" lon="-0.590793">
        <ele>999.0</ele>
        <time>2016-06-11T12:20:39Z</time>
      </trkpt>
      <trkpt lat="42.661825" lon="-0.590986">
        <ele>1000.4</ele>
        <time>2016-06-11T12:20:51Z</time>
      </trkpt>
      <trkpt lat="42.662086" lon="-0.591239">
        <ele>1004.2</ele>
        <time>2016-06-11T12:21:09Z</time>
      </trkpt>
      <trkpt lat="42.662289" lon="-0.591493">
        <ele>1005.2</ele>
        <time>2016-06-11T12:21:26Z</time>
      </trkpt>
      <trkpt lat="42.662501" lon="-0.591752">
        <ele>1006.6</ele>
        <time>2016-06-11T12:21:44Z</time>
      </trkpt>
      <trkpt lat="42.662673" lon="-0.591985">
        <ele>1007.6</ele>
        <time>2016-06-11T12:22:00Z</time>
      </trkpt>
      <trkpt lat="42.662833" lon="-0.592287">
        <ele>1010.5</ele>
        <time>2016-06-11T12:22:18Z</time>
      </trkpt>
      <trkpt lat="42.663035" lon="-0.592519">
        <ele>1012.4</ele>
        <time>2016-06-11T12:22:36Z</time>
      </trkpt>
      <trkpt lat="42.663281" lon="-0.592674">
        <ele>1015.3</ele>
        <time>2016-06-11T12:22:54Z</time>
      </trkpt>
      <trkpt lat="42.663561" lon="-0.592863">
        <ele>1018.7</ele>
        <time>2016-06-11T12:23:15Z</time>
      </trkpt>
      <trkpt lat="42.663758" lon="-0.593053">
        <ele>1021.5</ele>
        <time>2016-06-11T12:23:32Z</time>
      </trkpt>
      <trkpt lat="42.663997" lon="-0.593256">
        <ele>1023.9</ele>
        <time>2016-06-11T12:23:51Z</time>
      </trkpt>
      <trkpt lat="42.664263" lon="-0.593391">
        <ele>1025.9</ele>
        <time>2016-06-11T12:24:10Z</time>
      </trkpt>
      <trkpt lat="42.664581" lon="-0.593495">
        <ele>1029.2</ele>
        <time>2016-06-11T12:24:31Z</time>
      </trkpt>
      <trkpt lat="42.664832" lon="-0.593603">
        <ele>1031.2</ele>
        <time>2016-06-11T12:24:48Z</time>
      </trkpt>
      <trkpt lat="42.665102" lon="-0.593706">
        <ele>1034.0</ele>
        <time>2016-06-11T12:25:06Z</time>
      </trkpt>
      <trkpt lat="42.665397" lon="-0.593748">
        <ele>1035.0</ele>
        <time>2016-06-11T12:25:22Z</time>
      </trkpt>
      <trkpt lat="42.665792" lon="-0.593803">
        <ele>1034.5</ele>
        <time>2016-06-11T12:25:40Z</time>
      </trkpt>
      <trkpt lat="42.666188" lon="-0.593976">
        <ele>1034.5</ele>
        <time>2016-06-11T12:25:58Z</time>
      </trkpt>
      <trkpt lat="42.666449" lon="-0.594116">
        <ele>1036.0</ele>
        <time>2016-06-11T12:26:14Z</time>
      </trkpt>
      <trkpt lat="42.666703" lon="-0.594072">
        <ele>1038.8</ele>
        <time>2016-06-11T12:26:31Z</time>
      </trkpt>
      <trkpt lat="42.666988" lon="-0.593994">
        <ele>1042.2</ele>
        <time>2016-06-11T12:26:51Z</time>
      </trkpt>
      <trkpt lat="42.667219" lon="-0.593999">
        <ele>1044.6</ele>
        <time>2016-06-11T12:27:07Z</time>
      </trkpt>
      <trkpt lat="42.667197" lon="-0.594231">
        <ele>1047.0</ele>
        <time>2016-06-11T12:27:21Z</time>
      </trkpt>
      <trkpt lat="42.666971" lon="-0.594421">
        <ele>1048.9</ele>
        <time>2016-06-11T12:27:38Z</time>
      </trkpt>
      <trkpt lat="42.666746" lon="-0.594659">
        <ele>1050.9</ele>
        <time>2016-06-11T12:27:56Z</time>
      </trkpt>
      <trkpt lat="42.666756" lon="-0.594920">
        <ele>1051.8</ele>
        <time>2016-06-11T12:28:11Z</time>
      </trkpt>
      <trkpt lat="42.666963" lon="-0.594808">
        <ele>1054.2</ele>
        <time>2016-06-11T12:28:26Z</time>
      </trkpt>
      <trkpt lat="42.667194" lon="-0.594609">
        <ele>1058.1</ele>
        <time>2016-06-11T12:28:45Z</time>
      </trkpt>
      <trkpt lat="42.667422" lon="-0.594391">
        <ele>1061.9</ele>
        <time>2016-06-11T12:29:05Z</time>
      </trkpt>
      <trkpt lat="42.667533" lon="-0.594305">
        <ele>1063.4</ele>
        <time>2016-06-11T12:29:14Z</time>
      </trkpt>
      <trkpt lat="42.667770" lon="-0.594149">
        <ele>1065.3</ele>
        <time>2016-06-11T12:29:33Z</time>
      </trkpt>
      <trkpt lat="42.668040" lon="-0.594117">
        <ele>1067.7</ele>
        <time>2016-06-11T12:29:52Z</time>
      </trkpt>
      <trkpt lat="42.668321" lon="-0.594023">
        <ele>1071.5</ele>
        <time>2016-06-11T12:30:13Z</time>
      </trkpt>
      <trkpt lat="42.668574" lon="-0.593985">
        <ele>1073.9</ele>
        <time>2016-06-11T12:30:31Z</time>
      </trkpt>
      <trkpt lat="42.668774" lon="-0.593944">
        <ele>1075.9</ele>
        <time>2016-06-11T12:30:45Z</time>
      </trkpt>
      <trkpt lat="42.669117" lon="-0.593938">
        <ele>1081.1</ele>
        <time>2016-06-11T12:31:08Z</time>
      </trkpt>
      <trkpt lat="42.669101" lon="-0.594139">
        <ele>1084.0</ele>
        <time>2016-06-11T12:31:25Z</time>
      </trkpt>
      <trkpt lat="42.668819" lon="-0.594161">
        <ele>1086.4</ele>
        <time>2016-06-11T12:31:44Z</time>
      </trkpt>
      <trkpt lat="42.668577" lon="-0.594345">
        <ele>1089.3</ele>
        <time>2016-06-11T12:32:03Z</time>
      </trkpt>
      <trkpt lat="42.668413" lon="-0.594574">
        <ele>1091.2</ele>
        <time>2016-06-11T12:32:19Z</time>
      </trkpt>
      <trkpt lat="42.668298" lon="-0.594842">
        <ele>1092.7</ele>
        <time>2016-06-11T12:32:34Z</time>
      </trkpt>
      <trkpt lat="42.668198" lon="-0.595075">
        <ele>1094.1</ele>
        <time>2016-06-11T12:32:48Z</time>
      </trkpt>
      <trkpt lat="42.668049" lon="-0.595367">
        <ele>1097.0</ele>
        <time>2016-06-11T12:33:06Z</time>
      </trkpt>
      <trkpt lat="42.667874" lon="-0.595652">
        <ele>1099.4</ele>
        <time>2016-06-11T12:33:25Z</time>
      </trkpt>
      <trkpt lat="42.667736" lon="-0.595884">
        <ele>1101.8</ele>
        <time>2016-06-11T12:33:42Z</time>
      </trkpt>
      <trkpt lat="42.667991" lon="-0.595808">
        <ele>1104.2</ele>
        <time>2016-06-11T12:34:01Z</time>
      </trkpt>
      <trkpt lat="42.668242" lon="-0.595831">
        <ele>1106.6</ele>
        <time>2016-06-11T12:34:19Z</time>
      </trkpt>
      <trkpt lat="42.668442" lon="-0.595743">
        <ele>1109.5</ele>
        <time>2016-06-11T12:34:34Z</time>
      </trkpt>
      <trkpt lat="42.668563" lon="-0.595716">
        <ele>1110.0</ele>
        <time>2016-06-11T12:34:43Z</time>
      </trkpt>
      <trkpt lat="42.668587" lon="-0.595824">
        <ele>1110.9</ele>
        <time>2016-06-11T12:34:49Z</time>
      </trkpt>
      <trkpt lat="42.668373" lon="-0.596057">
        <ele>1112.4</ele>
        <time>2016-06-11T12:35:07Z</time>
      </trkpt>
      <trkpt lat="42.668122" lon="-0.596186">
        <ele>1114.8</ele>
        <time>2016-06-11T12:35:25Z</time>
      </trkpt>
      <trkpt lat="42.667885" lon="-0.596333">
        <ele>1121.5</ele>
        <time>2016-06-11T12:35:43Z</time>
      </trkpt>
      <trkpt lat="42.667659" lon="-0.596412">
        <ele>1123.9</ele>
        <time>2016-06-11T12:35:59Z</time>
      </trkpt>
      <trkpt lat="42.667545" lon="-0.596639">
        <ele>1123.9</ele>
        <time>2016-06-11T12:36:14Z</time>
      </trkpt>
      <trkpt lat="42.667615" lon="-0.596676">
        <ele>1124.4</ele>
        <time>2016-06-11T12:36:20Z</time>
      </trkpt>
      <trkpt lat="42.667871" lon="-0.596645">
        <ele>1127.3</ele>
        <time>2016-06-11T12:36:38Z</time>
      </trkpt>
      <trkpt lat="42.668066" lon="-0.596680">
        <ele>1128.7</ele>
        <time>2016-06-11T12:36:52Z</time>
      </trkpt>
      <trkpt lat="42.668274" lon="-0.596670">
        <ele>1132.1</ele>
        <time>2016-06-11T12:37:07Z</time>
      </trkpt>
      <trkpt lat="42.668443" lon="-0.596633">
        <ele>1133.5</ele>
        <time>2016-06-11T12:37:19Z</time>
      </trkpt>
      <trkpt lat="42.668634" lon="-0.596727">
        <ele>1135.9</ele>
        <time>2016-06-11T12:37:36Z</time>
      </trkpt>
      <trkpt lat="42.668493" lon="-0.596992">
        <ele>1137.4</ele>
        <time>2016-06-11T12:37:53Z</time>
      </trkpt>
      <trkpt lat="42.668352" lon="-0.597262">
        <ele>1139.3</ele>
        <time>2016-06-11T12:38:09Z</time>
      </trkpt>
      <trkpt lat="42.668153" lon="-0.597481">
        <ele>1140.7</ele>
        <time>2016-06-11T12:38:26Z</time>
      </trkpt>
      <trkpt lat="42.667921" lon="-0.597487">
        <ele>1143.1</ele>
        <time>2016-06-11T12:38:42Z</time>
      </trkpt>
      <trkpt lat="42.667601" lon="-0.597498">
        <ele>1146.0</ele>
        <time>2016-06-11T12:39:02Z</time>
      </trkpt>
      <trkpt lat="42.667387" lon="-0.597617">
        <ele>1146.5</ele>
        <time>2016-06-11T12:39:17Z</time>
      </trkpt>
      <trkpt lat="42.667237" lon="-0.597885">
        <ele>1148.0</ele>
        <time>2016-06-11T12:39:33Z</time>
      </trkpt>
      <trkpt lat="42.667081" lon="-0.598213">
        <ele>1149.9</ele>
        <time>2016-06-11T12:39:52Z</time>
      </trkpt>
      <trkpt lat="42.666950" lon="-0.598457">
        <ele>1151.8</ele>
        <time>2016-06-11T12:40:07Z</time>
      </trkpt>
      <trkpt lat="42.666805" lon="-0.598731">
        <ele>1153.7</ele>
        <time>2016-06-11T12:40:23Z</time>
      </trkpt>
      <trkpt lat="42.666612" lon="-0.598879">
        <ele>1155.6</ele>
        <time>2016-06-11T12:40:38Z</time>
      </trkpt>
      <trkpt lat="42.666398" lon="-0.598848">
        <ele>1157.6</ele>
        <time>2016-06-11T12:40:53Z</time>
      </trkpt>
      <trkpt lat="42.666140" lon="-0.598747">
        <ele>1161.4</ele>
        <time>2016-06-11T12:41:11Z</time>
      </trkpt>
      <trkpt lat="42.665885" lon="-0.598623">
        <ele>1162.9</ele>
        <time>2016-06-11T12:41:28Z</time>
      </trkpt>
      <trkpt lat="42.665678" lon="-0.598534">
        <ele>1163.3</ele>
        <time>2016-06-11T12:41:42Z</time>
      </trkpt>
      <trkpt lat="42.665434" lon="-0.598462">
        <ele>1164.8</ele>
        <time>2016-06-11T12:41:58Z</time>
      </trkpt>
      <trkpt lat="42.665449" lon="-0.598622">
        <ele>1166.2</ele>
        <time>2016-06-11T12:42:08Z</time>
      </trkpt>
      <trkpt lat="42.665684" lon="-0.598710">
        <ele>1168.6</ele>
        <time>2016-06-11T12:42:24Z</time>
      </trkpt>
      <trkpt lat="42.665893" lon="-0.598957">
        <ele>1171.5</ele>
        <time>2016-06-11T12:42:43Z</time>
      </trkpt>
      <trkpt lat="42.666096" lon="-0.599174">
        <ele>1173.0</ele>
        <time>2016-06-11T12:43:00Z</time>
      </trkpt>
      <trkpt lat="42.666281" lon="-0.599374">
        <ele>1175.4</ele>
        <time>2016-06-11T12:43:16Z</time>
      </trkpt>
      <trkpt lat="42.666514" lon="-0.599611">
        <ele>1177.3</ele>
        <time>2016-06-11T12:43:35Z</time>
      </trkpt>
      <trkpt lat="42.666728" lon="-0.599865">
        <ele>1180.2</ele>
        <time>2016-06-11T12:43:54Z</time>
      </trkpt>
      <trkpt lat="42.666901" lon="-0.600211">
        <ele>1183.0</ele>
        <time>2016-06-11T12:44:14Z</time>
      </trkpt>
      <trkpt lat="42.667123" lon="-0.600375">
        <ele>1184.5</ele>
        <time>2016-06-11T12:44:29Z</time>
      </trkpt>
      <trkpt lat="42.667384" lon="-0.600571">
        <ele>1185.9</ele>
        <time>2016-06-11T12:44:46Z</time>
      </trkpt>
      <trkpt lat="42.667632" lon="-0.600782">
        <ele>1187.4</ele>
        <time>2016-06-11T12:45:02Z</time>
      </trkpt>
      <trkpt lat="42.667993" lon="-0.600978">
        <ele>1187.9</ele>
        <time>2016-06-11T12:45:21Z</time>
      </trkpt>
      <trkpt lat="42.668316" lon="-0.601078">
        <ele>1187.4</ele>
        <time>2016-06-11T12:45:37Z</time>
      </trkpt>
      <trkpt lat="42.668711" lon="-0.601319">
        <ele>1188.3</ele>
        <time>2016-06-11T12:45:58Z</time>
      </trkpt>
      <trkpt lat="42.668917" lon="-0.601755">
        <ele>1190.3</ele>
        <time>2016-06-11T12:46:17Z</time>
      </trkpt>
      <trkpt lat="42.668937" lon="-0.602284">
        <ele>1192.7</ele>
        <time>2016-06-11T12:46:36Z</time>
      </trkpt>
      <trkpt lat="42.668935" lon="-0.602780">
        <ele>1195.1</ele>
        <time>2016-06-11T12:46:54Z</time>
      </trkpt>
      <trkpt lat="42.668949" lon="-0.603168">
        <ele>1196.5</ele>
        <time>2016-06-11T12:47:08Z</time>
      </trkpt>
      <trkpt lat="42.668995" lon="-0.603692">
        <ele>1199.9</ele>
        <time>2016-06-11T12:47:27Z</time>
      </trkpt>
      <trkpt lat="42.669163" lon="-0.604173">
        <ele>1199.4</ele>
        <time>2016-06-11T12:47:42Z</time>
      </trkpt>
      <trkpt lat="42.669462" lon="-0.604713">
        <ele>1197.9</ele>
        <time>2016-06-11T12:48:00Z</time>
      </trkpt>
      <trkpt lat="42.669617" lon="-0.604993">
        <ele>1197.0</ele>
        <time>2016-06-11T12:48:07Z</time>
      </trkpt>
      <trkpt lat="42.670233" lon="-0.605455">
        <ele>1193.1</ele>
        <time>2016-06-11T12:48:18Z</time>
      </trkpt>
      <trkpt lat="42.670906" lon="-0.605368">
        <ele>1188.3</ele>
        <time>2016-06-11T12:48:26Z</time>
      </trkpt>
      <trkpt lat="42.671386" lon="-0.605740">
        <ele>1185.4</ele>
        <time>2016-06-11T12:48:32Z</time>
      </trkpt>
      <trkpt lat="42.671595" lon="-0.606107">
        <ele>1184.0</ele>
        <time>2016-06-11T12:48:36Z</time>
      </trkpt>
      <trkpt lat="42.671728" lon="-0.606698">
        <ele>1183.0</ele>
        <time>2016-06-11T12:48:42Z</time>
      </trkpt>
      <trkpt lat="42.671703" lon="-0.607106">
        <ele>1182.1</ele>
        <time>2016-06-11T12:48:46Z</time>
      </trkpt>
      <trkpt lat="42.671518" lon="-0.607751">
        <ele>1180.2</ele>
        <time>2016-06-11T12:48:53Z</time>
      </trkpt>
      <trkpt lat="42.671647" lon="-0.608473">
        <ele>1178.2</ele>
        <time>2016-06-11T12:49:01Z</time>
      </trkpt>
      <trkpt lat="42.672194" lon="-0.608810">
        <ele>1176.3</ele>
        <time>2016-06-11T12:49:09Z</time>
      </trkpt>
      <trkpt lat="42.672276" lon="-0.608797">
        <ele>1176.3</ele>
        <time>2016-06-11T12:49:10Z</time>
      </trkpt>
      <trkpt lat="42.672898" lon="-0.609114">
        <ele>1172.0</ele>
        <time>2016-06-11T12:49:18Z</time>
      </trkpt>
      <trkpt lat="42.673062" lon="-0.609578">
        <ele>1170.1</ele>
        <time>2016-06-11T12:49:22Z</time>
      </trkpt>
      <trkpt lat="42.673169" lon="-0.610528">
        <ele>1165.3</ele>
        <time>2016-06-11T12:49:29Z</time>
      </trkpt>
      <trkpt lat="42.673420" lon="-0.611033">
        <ele>1160.9</ele>
        <time>2016-06-11T12:49:34Z</time>
      </trkpt>
      <trkpt lat="42.673596" lon="-0.611182">
        <ele>1159.5</ele>
        <time>2016-06-11T12:49:36Z</time>
      </trkpt>
      <trkpt lat="42.674307" lon="-0.612202">
        <ele>1149.9</ele>
        <time>2016-06-11T12:49:45Z</time>
      </trkpt>
      <trkpt lat="42.674428" lon="-0.613016">
        <ele>1143.1</ele>
        <time>2016-06-11T12:49:51Z</time>
      </trkpt>
      <trkpt lat="42.674100" lon="-0.613647">
        <ele>1138.8</ele>
        <time>2016-06-11T12:49:56Z</time>
      </trkpt>
      <trkpt lat="42.673558" lon="-0.614403">
        <ele>1134.0</ele>
        <time>2016-06-11T12:50:03Z</time>
      </trkpt>
      <trkpt lat="42.673386" lon="-0.615083">
        <ele>1128.2</ele>
        <time>2016-06-11T12:50:08Z</time>
      </trkpt>
      <trkpt lat="42.673367" lon="-0.615407">
        <ele>1125.8</ele>
        <time>2016-06-11T12:50:10Z</time>
      </trkpt>
      <trkpt lat="42.673090" lon="-0.616083">
        <ele>1119.1</ele>
        <time>2016-06-11T12:50:15Z</time>
      </trkpt>
      <trkpt lat="42.672836" lon="-0.616367">
        <ele>1115.8</ele>
        <time>2016-06-11T12:50:18Z</time>
      </trkpt>
      <trkpt lat="42.672836" lon="-0.616827">
        <ele>1110.0</ele>
        <time>2016-06-11T12:50:24Z</time>
      </trkpt>
      <trkpt lat="42.673284" lon="-0.616955">
        <ele>1106.1</ele>
        <time>2016-06-11T12:50:29Z</time>
      </trkpt>
      <trkpt lat="42.674747" lon="-0.616957">
        <ele>1091.2</ele>
        <time>2016-06-11T12:50:41Z</time>
      </trkpt>
      <trkpt lat="42.674860" lon="-0.616984">
        <ele>1090.3</ele>
        <time>2016-06-11T12:50:42Z</time>
      </trkpt>
      <trkpt lat="42.675358" lon="-0.616799">
        <ele>1085.0</ele>
        <time>2016-06-11T12:50:47Z</time>
      </trkpt>
      <trkpt lat="42.676067" lon="-0.616228">
        <ele>1075.9</ele>
        <time>2016-06-11T12:50:54Z</time>
      </trkpt>
      <trkpt lat="42.676429" lon="-0.616448">
        <ele>1070.1</ele>
        <time>2016-06-11T12:51:00Z</time>
      </trkpt>
      <trkpt lat="42.676443" lon="-0.616560">
        <ele>1069.1</ele>
        <time>2016-06-11T12:51:01Z</time>
      </trkpt>
      <trkpt lat="42.676546" lon="-0.617662">
        <ele>1061.0</ele>
        <time>2016-06-11T12:51:09Z</time>
      </trkpt>
      <trkpt lat="42.676807" lon="-0.618128">
        <ele>1055.7</ele>
        <time>2016-06-11T12:51:15Z</time>
      </trkpt>
      <trkpt lat="42.677007" lon="-0.617856">
        <ele>1052.3</ele>
        <time>2016-06-11T12:51:19Z</time>
      </trkpt>
      <trkpt lat="42.677197" lon="-0.617074">
        <ele>1046.1</ele>
        <time>2016-06-11T12:51:25Z</time>
      </trkpt>
      <trkpt lat="42.677204" lon="-0.616017">
        <ele>1037.4</ele>
        <time>2016-06-11T12:51:32Z</time>
      </trkpt>
      <trkpt lat="42.677468" lon="-0.615580">
        <ele>1032.6</ele>
        <time>2016-06-11T12:51:38Z</time>
      </trkpt>
      <trkpt lat="42.677611" lon="-0.615702">
        <ele>1032.6</ele>
        <time>2016-06-11T12:51:41Z</time>
      </trkpt>
      <trkpt lat="42.677690" lon="-0.615875">
        <ele>1033.1</ele>
        <time>2016-06-11T12:51:44Z</time>
      </trkpt>
      <trkpt lat="42.678038" lon="-0.616779">
        <ele>1032.1</ele>
        <time>2016-06-11T12:52:00Z</time>
      </trkpt>
      <trkpt lat="42.678394" lon="-0.617895">
        <ele>1033.1</ele>
        <time>2016-06-11T12:52:20Z</time>
      </trkpt>
      <trkpt lat="42.678477" lon="-0.618222">
        <ele>1033.1</ele>
        <time>2016-06-11T12:52:26Z</time>
      </trkpt>
      <trkpt lat="42.678771" lon="-0.618285">
        <ele>1032.1</ele>
        <time>2016-06-11T12:52:34Z</time>
      </trkpt>
      <trkpt lat="42.679138" lon="-0.617853">
        <ele>1030.7</ele>
        <time>2016-06-11T12:52:43Z</time>
      </trkpt>
      <trkpt lat="42.679360" lon="-0.617347">
        <ele>1028.3</ele>
        <time>2016-06-11T12:52:50Z</time>
      </trkpt>
      <trkpt lat="42.679744" lon="-0.617170">
        <ele>1026.3</ele>
        <time>2016-06-11T12:52:57Z</time>
      </trkpt>
      <trkpt lat="42.679812" lon="-0.617345">
        <ele>1027.3</ele>
        <time>2016-06-11T12:53:00Z</time>
      </trkpt>
      <trkpt lat="42.679932" lon="-0.617801">
        <ele>1030.7</ele>
        <time>2016-06-11T12:53:14Z</time>
      </trkpt>
      <trkpt lat="42.679930" lon="-0.618076">
        <ele>1033.1</ele>
        <time>2016-06-11T12:53:26Z</time>
      </trkpt>
      <trkpt lat="42.679909" lon="-0.618440">
        <ele>1037.4</ele>
        <time>2016-06-11T12:53:43Z</time>
      </trkpt>
      <trkpt lat="42.679896" lon="-0.618754">
        <ele>1041.7</ele>
        <time>2016-06-11T12:53:58Z</time>
      </trkpt>
      <trkpt lat="42.679916" lon="-0.619114">
        <ele>1044.1</ele>
        <time>2016-06-11T12:54:15Z</time>
      </trkpt>
      <trkpt lat="42.679925" lon="-0.619301">
        <ele>1045.6</ele>
        <time>2016-06-11T12:54:24Z</time>
      </trkpt>
      <trkpt lat="42.679907" lon="-0.619421">
        <ele>1047.5</ele>
        <time>2016-06-11T12:54:30Z</time>
      </trkpt>
      <trkpt lat="42.679914" lon="-0.619838">
        <ele>1049.9</ele>
        <time>2016-06-11T12:54:48Z</time>
      </trkpt>
      <trkpt lat="42.679927" lon="-0.620183">
        <ele>1048.9</ele>
        <time>2016-06-11T12:55:01Z</time>
      </trkpt>
      <trkpt lat="42.679973" lon="-0.620242">
        <ele>1050.9</ele>
        <time>2016-06-11T12:55:12Z</time>
      </trkpt>
      <trkpt lat="42.680023" lon="-0.620300">
        <ele>1046.5</ele>
        <time>2016-06-11T12:57:02Z</time>
      </trkpt>
      <trkpt lat="42.680154" lon="-0.620533">
        <ele>1044.6</ele>
        <time>2016-06-11T13:40:22Z</time>
      </trkpt>
      <trkpt lat="42.680865" lon="-0.620804">
        <ele>1041.3</ele>
        <time>2016-06-11T13:40:35Z</time>
      </trkpt>
      <trkpt lat="42.681559" lon="-0.621222">
        <ele>1041.3</ele>
        <time>2016-06-11T13:40:47Z</time>
      </trkpt>
      <trkpt lat="42.682202" lon="-0.621614">
        <ele>1038.8</ele>
        <time>2016-06-11T13:40:59Z</time>
      </trkpt>
      <trkpt lat="42.682538" lon="-0.621653">
        <ele>1036.4</ele>
        <time>2016-06-11T13:41:03Z</time>
      </trkpt>
      <trkpt lat="42.683024" lon="-0.621558">
        <ele>1034.5</ele>
        <time>2016-06-11T13:41:09Z</time>
      </trkpt>
      <trkpt lat="42.683510" lon="-0.621297">
        <ele>1034.0</ele>
        <time>2016-06-11T13:41:17Z</time>
      </trkpt>
      <trkpt lat="42.683688" lon="-0.621050">
        <ele>1033.6</ele>
        <time>2016-06-11T13:41:22Z</time>
      </trkpt>
      <trkpt lat="42.683993" lon="-0.621031">
        <ele>1034.0</ele>
        <time>2016-06-11T13:41:29Z</time>
      </trkpt>
      <trkpt lat="42.684046" lon="-0.621153">
        <ele>1034.5</ele>
        <time>2016-06-11T13:41:31Z</time>
      </trkpt>
      <trkpt lat="42.684315" lon="-0.621536">
        <ele>1034.5</ele>
        <time>2016-06-11T13:41:43Z</time>
      </trkpt>
      <trkpt lat="42.684535" lon="-0.621515">
        <ele>1035.5</ele>
        <time>2016-06-11T13:41:56Z</time>
      </trkpt>
      <trkpt lat="42.684766" lon="-0.621452">
        <ele>1037.4</ele>
        <time>2016-06-11T13:42:09Z</time>
      </trkpt>
      <trkpt lat="42.685054" lon="-0.621327">
        <ele>1038.8</ele>
        <time>2016-06-11T13:42:26Z</time>
      </trkpt>
      <trkpt lat="42.685357" lon="-0.621257">
        <ele>1040.8</ele>
        <time>2016-06-11T13:42:42Z</time>
      </trkpt>
      <trkpt lat="42.685821" lon="-0.621199">
        <ele>1043.2</ele>
        <time>2016-06-11T13:43:04Z</time>
      </trkpt>
      <trkpt lat="42.686208" lon="-0.621142">
        <ele>1045.1</ele>
        <time>2016-06-11T13:43:22Z</time>
      </trkpt>
      <trkpt lat="42.686585" lon="-0.621109">
        <ele>1047.0</ele>
        <time>2016-06-11T13:43:37Z</time>
      </trkpt>
      <trkpt lat="42.686985" lon="-0.621135">
        <ele>1044.1</ele>
        <time>2016-06-11T13:43:47Z</time>
      </trkpt>
      <trkpt lat="42.687541" lon="-0.620821">
        <ele>1041.7</ele>
        <time>2016-06-11T13:43:58Z</time>
      </trkpt>
      <trkpt lat="42.687796" lon="-0.620898">
        <ele>1041.3</ele>
        <time>2016-06-11T13:44:04Z</time>
      </trkpt>
      <trkpt lat="42.687823" lon="-0.620950">
        <ele>1041.3</ele>
        <time>2016-06-11T13:44:06Z</time>
      </trkpt>
      <trkpt lat="42.687866" lon="-0.621035">
        <ele>1041.3</ele>
        <time>2016-06-11T13:47:40Z</time>
      </trkpt>
      <trkpt lat="42.688027" lon="-0.621382">
        <ele>1041.3</ele>
        <time>2016-06-11T13:47:54Z</time>
      </trkpt>
      <trkpt lat="42.688228" lon="-0.621687">
        <ele>1042.7</ele>
        <time>2016-06-11T13:48:09Z</time>
      </trkpt>
      <trkpt lat="42.688436" lon="-0.621760">
        <ele>1044.6</ele>
        <time>2016-06-11T13:48:23Z</time>
      </trkpt>
      <trkpt lat="42.688724" lon="-0.621682">
        <ele>1047.0</ele>
        <time>2016-06-11T13:48:42Z</time>
      </trkpt>
      <trkpt lat="42.688962" lon="-0.621605">
        <ele>1048.0</ele>
        <time>2016-06-11T13:48:58Z</time>
      </trkpt>
      <trkpt lat="42.689222" lon="-0.621530">
        <ele>1050.4</ele>
        <time>2016-06-11T13:49:15Z</time>
      </trkpt>
      <trkpt lat="42.689528" lon="-0.621429">
        <ele>1053.7</ele>
        <time>2016-06-11T13:49:35Z</time>
      </trkpt>
      <trkpt lat="42.689831" lon="-0.621331">
        <ele>1056.2</ele>
        <time>2016-06-11T13:49:55Z</time>
      </trkpt>
      <trkpt lat="42.690107" lon="-0.621246">
        <ele>1059.0</ele>
        <time>2016-06-11T13:50:13Z</time>
      </trkpt>
      <trkpt lat="42.690369" lon="-0.621166">
        <ele>1061.0</ele>
        <time>2016-06-11T13:50:30Z</time>
      </trkpt>
      <trkpt lat="42.690704" lon="-0.621101">
        <ele>1064.3</ele>
        <time>2016-06-11T13:50:51Z</time>
      </trkpt>
      <trkpt lat="42.690873" lon="-0.621314">
        <ele>1066.7</ele>
        <time>2016-06-11T13:51:06Z</time>
      </trkpt>
      <trkpt lat="42.690910" lon="-0.621383">
        <ele>1067.2</ele>
        <time>2016-06-11T13:51:19Z</time>
      </trkpt>
      <trkpt lat="42.690815" lon="-0.621437">
        <ele>1067.2</ele>
        <time>2016-06-11T13:52:58Z</time>
      </trkpt>
      <trkpt lat="42.690619" lon="-0.621630">
        <ele>1068.2</ele>
        <time>2016-06-11T13:53:13Z</time>
      </trkpt>
      <trkpt lat="42.690398" lon="-0.621843">
        <ele>1068.2</ele>
        <time>2016-06-11T13:53:29Z</time>
      </trkpt>
      <trkpt lat="42.690129" lon="-0.622065">
        <ele>1069.6</ele>
        <time>2016-06-11T13:53:48Z</time>
      </trkpt>
      <trkpt lat="42.689868" lon="-0.622267">
        <ele>1071.1</ele>
        <time>2016-06-11T13:54:06Z</time>
      </trkpt>
      <trkpt lat="42.689579" lon="-0.622502">
        <ele>1072.0</ele>
        <time>2016-06-11T13:54:25Z</time>
      </trkpt>
      <trkpt lat="42.689142" lon="-0.622779">
        <ele>1070.6</ele>
        <time>2016-06-11T13:54:42Z</time>
      </trkpt>
      <trkpt lat="42.688538" lon="-0.623276">
        <ele>1068.6</ele>
        <time>2016-06-11T13:54:59Z</time>
      </trkpt>
      <trkpt lat="42.688345" lon="-0.623615">
        <ele>1070.1</ele>
        <time>2016-06-11T13:55:13Z</time>
      </trkpt>
      <trkpt lat="42.688178" lon="-0.623980">
        <ele>1073.0</ele>
        <time>2016-06-11T13:55:31Z</time>
      </trkpt>
      <trkpt lat="42.688062" lon="-0.624283">
        <ele>1075.4</ele>
        <time>2016-06-11T13:55:47Z</time>
      </trkpt>
      <trkpt lat="42.687981" lon="-0.624645">
        <ele>1077.8</ele>
        <time>2016-06-11T13:56:05Z</time>
      </trkpt>
      <trkpt lat="42.687935" lon="-0.625005">
        <ele>1080.2</ele>
        <time>2016-06-11T13:56:23Z</time>
      </trkpt>
      <trkpt lat="42.687945" lon="-0.625319">
        <ele>1083.1</ele>
        <time>2016-06-11T13:56:39Z</time>
      </trkpt>
      <trkpt lat="42.687944" lon="-0.625634">
        <ele>1087.4</ele>
        <time>2016-06-11T13:56:54Z</time>
      </trkpt>
      <trkpt lat="42.687956" lon="-0.625966">
        <ele>1089.3</ele>
        <time>2016-06-11T13:57:11Z</time>
      </trkpt>
      <trkpt lat="42.688013" lon="-0.626104">
        <ele>1091.2</ele>
        <time>2016-06-11T13:57:19Z</time>
      </trkpt>
      <trkpt lat="42.688094" lon="-0.626023">
        <ele>1092.7</ele>
        <time>2016-06-11T13:57:28Z</time>
      </trkpt>
      <trkpt lat="42.688158" lon="-0.625646">
        <ele>1096.0</ele>
        <time>2016-06-11T13:57:47Z</time>
      </trkpt>
      <trkpt lat="42.688323" lon="-0.625354">
        <ele>1098.4</ele>
        <time>2016-06-11T13:58:05Z</time>
      </trkpt>
      <trkpt lat="42.688548" lon="-0.625159">
        <ele>1098.9</ele>
        <time>2016-06-11T13:58:22Z</time>
      </trkpt>
      <trkpt lat="42.688822" lon="-0.624928">
        <ele>1099.9</ele>
        <time>2016-06-11T13:58:42Z</time>
      </trkpt>
      <trkpt lat="42.689115" lon="-0.624635">
        <ele>1102.3</ele>
        <time>2016-06-11T13:59:04Z</time>
      </trkpt>
      <trkpt lat="42.689349" lon="-0.624475">
        <ele>1102.3</ele>
        <time>2016-06-11T13:59:20Z</time>
      </trkpt>
      <trkpt lat="42.689626" lon="-0.624339">
        <ele>1102.8</ele>
        <time>2016-06-11T13:59:38Z</time>
      </trkpt>
      <trkpt lat="42.689925" lon="-0.624217">
        <ele>1105.7</ele>
        <time>2016-06-11T13:59:57Z</time>
      </trkpt>
      <trkpt lat="42.690129" lon="-0.624113">
        <ele>1107.6</ele>
        <time>2016-06-11T14:00:11Z</time>
      </trkpt>
      <trkpt lat="42.690351" lon="-0.623990">
        <ele>1109.5</ele>
        <time>2016-06-11T14:00:26Z</time>
      </trkpt>
      <trkpt lat="42.690634" lon="-0.623909">
        <ele>1111.4</ele>
        <time>2016-06-11T14:00:44Z</time>
      </trkpt>
      <trkpt lat="42.690938" lon="-0.623866">
        <ele>1114.3</ele>
        <time>2016-06-11T14:01:03Z</time>
      </trkpt>
      <trkpt lat="42.691236" lon="-0.623803">
        <ele>1117.7</ele>
        <time>2016-06-11T14:01:22Z</time>
      </trkpt>
      <trkpt lat="42.691501" lon="-0.623741">
        <ele>1118.6</ele>
        <time>2016-06-11T14:01:39Z</time>
      </trkpt>
      <trkpt lat="42.691595" lon="-0.623944">
        <ele>1120.6</ele>
        <time>2016-06-11T14:01:53Z</time>
      </trkpt>
      <trkpt lat="42.691382" lon="-0.624014">
        <ele>1123.9</ele>
        <time>2016-06-11T14:02:07Z</time>
      </trkpt>
      <trkpt lat="42.691061" lon="-0.624134">
        <ele>1127.8</ele>
        <time>2016-06-11T14:02:28Z</time>
      </trkpt>
      <trkpt lat="42.690768" lon="-0.624288">
        <ele>1129.7</ele>
        <time>2016-06-11T14:02:47Z</time>
      </trkpt>
      <trkpt lat="42.690502" lon="-0.624525">
        <ele>1130.2</ele>
        <time>2016-06-11T14:03:07Z</time>
      </trkpt>
      <trkpt lat="42.690325" lon="-0.624712">
        <ele>1132.1</ele>
        <time>2016-06-11T14:03:21Z</time>
      </trkpt>
      <trkpt lat="42.690260" lon="-0.624782">
        <ele>1132.6</ele>
        <time>2016-06-11T14:03:26Z</time>
      </trkpt>
      <trkpt lat="42.690091" lon="-0.624997">
        <ele>1134.0</ele>
        <time>2016-06-11T14:03:41Z</time>
      </trkpt>
      <trkpt lat="42.689885" lon="-0.625208">
        <ele>1135.9</ele>
        <time>2016-06-11T14:03:57Z</time>
      </trkpt>
      <trkpt lat="42.689735" lon="-0.625456">
        <ele>1137.4</ele>
        <time>2016-06-11T14:04:12Z</time>
      </trkpt>
      <trkpt lat="42.689626" lon="-0.625756">
        <ele>1139.3</ele>
        <time>2016-06-11T14:04:27Z</time>
      </trkpt>
      <trkpt lat="42.689568" lon="-0.626115">
        <ele>1140.3</ele>
        <time>2016-06-11T14:04:44Z</time>
      </trkpt>
      <trkpt lat="42.689643" lon="-0.626451">
        <ele>1143.1</ele>
        <time>2016-06-11T14:05:01Z</time>
      </trkpt>
      <trkpt lat="42.689724" lon="-0.626885">
        <ele>1146.5</ele>
        <time>2016-06-11T14:05:22Z</time>
      </trkpt>
      <trkpt lat="42.689801" lon="-0.627231">
        <ele>1148.9</ele>
        <time>2016-06-11T14:05:39Z</time>
      </trkpt>
      <trkpt lat="42.689840" lon="-0.627570">
        <ele>1150.4</ele>
        <time>2016-06-11T14:05:55Z</time>
      </trkpt>
      <trkpt lat="42.689980" lon="-0.627872">
        <ele>1152.8</ele>
        <time>2016-06-11T14:06:12Z</time>
      </trkpt>
      <trkpt lat="42.690182" lon="-0.628165">
        <ele>1157.1</ele>
        <time>2016-06-11T14:06:31Z</time>
      </trkpt>
      <trkpt lat="42.690311" lon="-0.628502">
        <ele>1160.0</ele>
        <time>2016-06-11T14:06:49Z</time>
      </trkpt>
      <trkpt lat="42.690384" lon="-0.628829">
        <ele>1161.9</ele>
        <time>2016-06-11T14:07:06Z</time>
      </trkpt>
      <trkpt lat="42.690570" lon="-0.628886">
        <ele>1165.3</ele>
        <time>2016-06-11T14:07:21Z</time>
      </trkpt>
      <trkpt lat="42.690642" lon="-0.628536">
        <ele>1168.6</ele>
        <time>2016-06-11T14:07:39Z</time>
      </trkpt>
      <trkpt lat="42.690622" lon="-0.628208">
        <ele>1171.0</ele>
        <time>2016-06-11T14:07:55Z</time>
      </trkpt>
      <trkpt lat="42.690577" lon="-0.627861">
        <ele>1173.0</ele>
        <time>2016-06-11T14:08:12Z</time>
      </trkpt>
      <trkpt lat="42.690449" lon="-0.627501">
        <ele>1176.3</ele>
        <time>2016-06-11T14:08:31Z</time>
      </trkpt>
      <trkpt lat="42.690362" lon="-0.627158">
        <ele>1178.2</ele>
        <time>2016-06-11T14:08:48Z</time>
      </trkpt>
      <trkpt lat="42.690418" lon="-0.626767">
        <ele>1181.6</ele>
        <time>2016-06-11T14:09:07Z</time>
      </trkpt>
      <trkpt lat="42.690478" lon="-0.626511">
        <ele>1183.5</ele>
        <time>2016-06-11T14:09:20Z</time>
      </trkpt>
      <trkpt lat="42.690682" lon="-0.626280">
        <ele>1186.4</ele>
        <time>2016-06-11T14:09:38Z</time>
      </trkpt>
      <trkpt lat="42.690799" lon="-0.626457">
        <ele>1188.8</ele>
        <time>2016-06-11T14:09:50Z</time>
      </trkpt>
      <trkpt lat="42.690785" lon="-0.626578">
        <ele>1188.8</ele>
        <time>2016-06-11T14:09:56Z</time>
      </trkpt>
      <trkpt lat="42.690820" lon="-0.626985">
        <ele>1189.8</ele>
        <time>2016-06-11T14:10:15Z</time>
      </trkpt>
      <trkpt lat="42.690978" lon="-0.627300">
        <ele>1192.2</ele>
        <time>2016-06-11T14:10:32Z</time>
      </trkpt>
      <trkpt lat="42.691185" lon="-0.627670">
        <ele>1194.6</ele>
        <time>2016-06-11T14:10:53Z</time>
      </trkpt>
      <trkpt lat="42.691412" lon="-0.627973">
        <ele>1196.5</ele>
        <time>2016-06-11T14:11:12Z</time>
      </trkpt>
      <trkpt lat="42.691615" lon="-0.628300">
        <ele>1198.9</ele>
        <time>2016-06-11T14:11:31Z</time>
      </trkpt>
      <trkpt lat="42.691671" lon="-0.628656">
        <ele>1201.3</ele>
        <time>2016-06-11T14:11:49Z</time>
      </trkpt>
      <trkpt lat="42.691629" lon="-0.629022">
        <ele>1202.8</ele>
        <time>2016-06-11T14:12:06Z</time>
      </trkpt>
      <trkpt lat="42.691622" lon="-0.629447">
        <ele>1204.2</ele>
        <time>2016-06-11T14:12:25Z</time>
      </trkpt>
      <trkpt lat="42.691463" lon="-0.629759">
        <ele>1207.1</ele>
        <time>2016-06-11T14:12:42Z</time>
      </trkpt>
      <trkpt lat="42.691294" lon="-0.629953">
        <ele>1208.0</ele>
        <time>2016-06-11T14:12:56Z</time>
      </trkpt>
      <trkpt lat="42.691092" lon="-0.630229">
        <ele>1207.6</ele>
        <time>2016-06-11T14:13:13Z</time>
      </trkpt>
      <trkpt lat="42.690886" lon="-0.630447">
        <ele>1208.0</ele>
        <time>2016-06-11T14:13:29Z</time>
      </trkpt>
      <trkpt lat="42.690698" lon="-0.630690">
        <ele>1210.0</ele>
        <time>2016-06-11T14:13:45Z</time>
      </trkpt>
      <trkpt lat="42.690616" lon="-0.631024">
        <ele>1210.0</ele>
        <time>2016-06-11T14:14:00Z</time>
      </trkpt>
      <trkpt lat="42.690646" lon="-0.631429">
        <ele>1210.9</ele>
        <time>2016-06-11T14:14:17Z</time>
      </trkpt>
      <trkpt lat="42.690696" lon="-0.631753">
        <ele>1212.4</ele>
        <time>2016-06-11T14:14:31Z</time>
      </trkpt>
      <trkpt lat="42.690671" lon="-0.632115">
        <ele>1214.3</ele>
        <time>2016-06-11T14:14:47Z</time>
      </trkpt>
      <trkpt lat="42.690567" lon="-0.632511">
        <ele>1216.7</ele>
        <time>2016-06-11T14:15:06Z</time>
      </trkpt>
      <trkpt lat="42.690499" lon="-0.632829">
        <ele>1217.7</ele>
        <time>2016-06-11T14:15:21Z</time>
      </trkpt>
      <trkpt lat="42.690421" lon="-0.633162">
        <ele>1220.1</ele>
        <time>2016-06-11T14:15:37Z</time>
      </trkpt>
      <trkpt lat="42.690358" lon="-0.633378">
        <ele>1221.5</ele>
        <time>2016-06-11T14:15:48Z</time>
      </trkpt>
      <trkpt lat="42.690334" lon="-0.633474">
        <ele>1222.5</ele>
        <time>2016-06-11T14:15:53Z</time>
      </trkpt>
      <trkpt lat="42.690236" lon="-0.633830">
        <ele>1223.9</ele>
        <time>2016-06-11T14:16:10Z</time>
      </trkpt>
      <trkpt lat="42.690480" lon="-0.633926">
        <ele>1224.4</ele>
        <time>2016-06-11T14:16:20Z</time>
      </trkpt>
      <trkpt lat="42.690724" lon="-0.633811">
        <ele>1224.4</ele>
        <time>2016-06-11T14:16:26Z</time>
      </trkpt>
      <trkpt lat="42.690863" lon="-0.633708">
        <ele>1224.9</ele>
        <time>2016-06-11T14:16:30Z</time>
      </trkpt>
      <trkpt lat="42.691101" lon="-0.633593">
        <ele>1225.8</ele>
        <time>2016-06-11T14:16:38Z</time>
      </trkpt>
      <trkpt lat="42.691008" lon="-0.633769">
        <ele>1225.3</ele>
        <time>2016-06-11T14:16:41Z</time>
      </trkpt>
      <trkpt lat="42.690762" lon="-0.634119">
        <ele>1225.3</ele>
        <time>2016-06-11T14:16:46Z</time>
      </trkpt>
      <trkpt lat="42.690886" lon="-0.634301">
        <ele>1222.9</ele>
        <time>2016-06-11T14:16:52Z</time>
      </trkpt>
      <trkpt lat="42.690943" lon="-0.634262">
        <ele>1222.5</ele>
        <time>2016-06-11T14:16:53Z</time>
      </trkpt>
      <trkpt lat="42.690999" lon="-0.634213">
        <ele>1222.5</ele>
        <time>2016-06-11T14:16:54Z</time>
      </trkpt>
      <trkpt lat="42.691313" lon="-0.633769">
        <ele>1222.5</ele>
        <time>2016-06-11T14:17:01Z</time>
      </trkpt>
      <trkpt lat="42.691430" lon="-0.633482">
        <ele>1222.5</ele>
        <time>2016-06-11T14:17:04Z</time>
      </trkpt>
      <trkpt lat="42.691664" lon="-0.633229">
        <ele>1222.0</ele>
        <time>2016-06-11T14:17:08Z</time>
      </trkpt>
      <trkpt lat="42.691810" lon="-0.633123">
        <ele>1221.5</ele>
        <time>2016-06-11T14:17:10Z</time>
      </trkpt>
      <trkpt lat="42.691890" lon="-0.633084">
        <ele>1221.5</ele>
        <time>2016-06-11T14:17:11Z</time>
      </trkpt>
      <trkpt lat="42.692236" lon="-0.633118">
        <ele>1221.0</ele>
        <time>2016-06-11T14:17:15Z</time>
      </trkpt>
      <trkpt lat="42.692314" lon="-0.633115">
        <ele>1221.0</ele>
        <time>2016-06-11T14:17:16Z</time>
      </trkpt>
      <trkpt lat="42.692541" lon="-0.632996">
        <ele>1221.0</ele>
        <time>2016-06-11T14:17:19Z</time>
      </trkpt>
      <trkpt lat="42.692624" lon="-0.632964">
        <ele>1221.0</ele>
        <time>2016-06-11T14:17:20Z</time>
      </trkpt>
      <trkpt lat="42.692886" lon="-0.633019">
        <ele>1220.5</ele>
        <time>2016-06-11T14:17:23Z</time>
      </trkpt>
      <trkpt lat="42.693379" lon="-0.633443">
        <ele>1220.5</ele>
        <time>2016-06-11T14:17:28Z</time>
      </trkpt>
      <trkpt lat="42.693847" lon="-0.634494">
        <ele>1219.1</ele>
        <time>2016-06-11T14:17:36Z</time>
      </trkpt>
      <trkpt lat="42.693994" lon="-0.634857">
        <ele>1216.7</ele>
        <time>2016-06-11T14:17:42Z</time>
      </trkpt>
      <trkpt lat="42.693509" lon="-0.634354">
        <ele>1210.9</ele>
        <time>2016-06-11T14:17:51Z</time>
      </trkpt>
      <trkpt lat="42.693144" lon="-0.634063">
        <ele>1208.0</ele>
        <time>2016-06-11T14:17:56Z</time>
      </trkpt>
      <trkpt lat="42.692785" lon="-0.634017">
        <ele>1205.6</ele>
        <time>2016-06-11T14:18:00Z</time>
      </trkpt>
      <trkpt lat="42.692247" lon="-0.634041">
        <ele>1202.3</ele>
        <time>2016-06-11T14:18:06Z</time>
      </trkpt>
      <trkpt lat="42.692182" lon="-0.634070">
        <ele>1202.3</ele>
        <time>2016-06-11T14:18:07Z</time>
      </trkpt>
      <trkpt lat="42.692113" lon="-0.634128">
        <ele>1201.8</ele>
        <time>2016-06-11T14:18:08Z</time>
      </trkpt>
      <trkpt lat="42.691833" lon="-0.634431">
        <ele>1199.9</ele>
        <time>2016-06-11T14:18:12Z</time>
      </trkpt>
      <trkpt lat="42.691750" lon="-0.634541">
        <ele>1199.4</ele>
        <time>2016-06-11T14:18:14Z</time>
      </trkpt>
      <trkpt lat="42.691699" lon="-0.634711">
        <ele>1198.9</ele>
        <time>2016-06-11T14:18:15Z</time>
      </trkpt>
      <trkpt lat="42.691683" lon="-0.634908">
        <ele>1198.9</ele>
        <time>2016-06-11T14:18:17Z</time>
      </trkpt>
      <trkpt lat="42.691669" lon="-0.635012">
        <ele>1198.4</ele>
        <time>2016-06-11T14:18:18Z</time>
      </trkpt>
      <trkpt lat="42.691499" lon="-0.635336">
        <ele>1197.9</ele>
        <time>2016-06-11T14:18:22Z</time>
      </trkpt>
      <trkpt lat="42.691250" lon="-0.635712">
        <ele>1197.0</ele>
        <time>2016-06-11T14:18:26Z</time>
      </trkpt>
      <trkpt lat="42.691222" lon="-0.635833">
        <ele>1197.0</ele>
        <time>2016-06-11T14:18:27Z</time>
      </trkpt>
      <trkpt lat="42.691188" lon="-0.636213">
        <ele>1196.5</ele>
        <time>2016-06-11T14:18:30Z</time>
      </trkpt>
      <trkpt lat="42.691283" lon="-0.636449">
        <ele>1196.0</ele>
        <time>2016-06-11T14:18:33Z</time>
      </trkpt>
      <trkpt lat="42.691337" lon="-0.636464">
        <ele>1195.5</ele>
        <time>2016-06-11T14:18:34Z</time>
      </trkpt>
      <trkpt lat="42.691437" lon="-0.636377">
        <ele>1195.1</ele>
        <time>2016-06-11T14:18:36Z</time>
      </trkpt>
      <trkpt lat="42.691469" lon="-0.636305">
        <ele>1194.6</ele>
        <time>2016-06-11T14:18:37Z</time>
      </trkpt>
      <trkpt lat="42.691809" lon="-0.635441">
        <ele>1193.6</ele>
        <time>2016-06-11T14:18:46Z</time>
      </trkpt>
      <trkpt lat="42.692088" lon="-0.635159">
        <ele>1192.7</ele>
        <time>2016-06-11T14:18:50Z</time>
      </trkpt>
      <trkpt lat="42.692169" lon="-0.635132">
        <ele>1192.7</ele>
        <time>2016-06-11T14:18:51Z</time>
      </trkpt>
      <trkpt lat="42.692690" lon="-0.635112">
        <ele>1191.7</ele>
        <time>2016-06-11T14:18:57Z</time>
      </trkpt>
      <trkpt lat="42.692780" lon="-0.635137">
        <ele>1191.7</ele>
        <time>2016-06-11T14:18:58Z</time>
      </trkpt>
      <trkpt lat="42.692870" lon="-0.635175">
        <ele>1191.2</ele>
        <time>2016-06-11T14:18:59Z</time>
      </trkpt>
      <trkpt lat="42.693111" lon="-0.635354">
        <ele>1190.7</ele>
        <time>2016-06-11T14:19:02Z</time>
      </trkpt>
      <trkpt lat="42.693339" lon="-0.635446">
        <ele>1190.3</ele>
        <time>2016-06-11T14:19:04Z</time>
      </trkpt>
      <trkpt lat="42.693416" lon="-0.635483">
        <ele>1189.8</ele>
        <time>2016-06-11T14:19:05Z</time>
      </trkpt>
      <trkpt lat="42.693496" lon="-0.635541">
        <ele>1189.8</ele>
        <time>2016-06-11T14:19:06Z</time>
      </trkpt>
      <trkpt lat="42.693756" lon="-0.635824">
        <ele>1188.8</ele>
        <time>2016-06-11T14:19:10Z</time>
      </trkpt>
      <trkpt lat="42.693917" lon="-0.636114">
        <ele>1185.0</ele>
        <time>2016-06-11T14:19:14Z</time>
      </trkpt>
      <trkpt lat="42.693956" lon="-0.636183">
        <ele>1185.0</ele>
        <time>2016-06-11T14:19:15Z</time>
      </trkpt>
      <trkpt lat="42.693999" lon="-0.636239">
        <ele>1184.5</ele>
        <time>2016-06-11T14:19:16Z</time>
      </trkpt>
      <trkpt lat="42.694096" lon="-0.636316">
        <ele>1183.5</ele>
        <time>2016-06-11T14:19:18Z</time>
      </trkpt>
      <trkpt lat="42.694201" lon="-0.636357">
        <ele>1183.5</ele>
        <time>2016-06-11T14:19:20Z</time>
      </trkpt>
      <trkpt lat="42.694258" lon="-0.636355">
        <ele>1182.6</ele>
        <time>2016-06-11T14:19:21Z</time>
      </trkpt>
      <trkpt lat="42.695153" lon="-0.636372">
        <ele>1180.2</ele>
        <time>2016-06-11T14:19:34Z</time>
      </trkpt>
      <trkpt lat="42.695243" lon="-0.636366">
        <ele>1180.2</ele>
        <time>2016-06-11T14:19:35Z</time>
      </trkpt>
      <trkpt lat="42.695382" lon="-0.636337">
        <ele>1179.7</ele>
        <time>2016-06-11T14:19:37Z</time>
      </trkpt>
      <trkpt lat="42.695454" lon="-0.636306">
        <ele>1179.2</ele>
        <time>2016-06-11T14:19:38Z</time>
      </trkpt>
      <trkpt lat="42.695518" lon="-0.636262">
        <ele>1179.2</ele>
        <time>2016-06-11T14:19:39Z</time>
      </trkpt>
      <trkpt lat="42.695639" lon="-0.636147">
        <ele>1178.7</ele>
        <time>2016-06-11T14:19:41Z</time>
      </trkpt>
      <trkpt lat="42.695777" lon="-0.635904">
        <ele>1178.7</ele>
        <time>2016-06-11T14:19:44Z</time>
      </trkpt>
      <trkpt lat="42.695901" lon="-0.635546">
        <ele>1175.8</ele>
        <time>2016-06-11T14:19:48Z</time>
      </trkpt>
      <trkpt lat="42.695982" lon="-0.635424">
        <ele>1174.4</ele>
        <time>2016-06-11T14:19:50Z</time>
      </trkpt>
      <trkpt lat="42.696111" lon="-0.635354">
        <ele>1173.9</ele>
        <time>2016-06-11T14:19:52Z</time>
      </trkpt>
      <trkpt lat="42.696193" lon="-0.635352">
        <ele>1173.9</ele>
        <time>2016-06-11T14:19:53Z</time>
      </trkpt>
      <trkpt lat="42.697198" lon="-0.635870">
        <ele>1170.1</ele>
        <time>2016-06-11T14:20:04Z</time>
      </trkpt>
      <trkpt lat="42.697543" lon="-0.636149">
        <ele>1167.7</ele>
        <time>2016-06-11T14:20:08Z</time>
      </trkpt>
      <trkpt lat="42.697662" lon="-0.636413">
        <ele>1166.2</ele>
        <time>2016-06-11T14:20:12Z</time>
      </trkpt>
      <trkpt lat="42.697631" lon="-0.636588">
        <ele>1165.3</ele>
        <time>2016-06-11T14:20:14Z</time>
      </trkpt>
      <trkpt lat="42.697674" lon="-0.636970">
        <ele>1160.9</ele>
        <time>2016-06-11T14:20:18Z</time>
      </trkpt>
      <trkpt lat="42.697975" lon="-0.637420">
        <ele>1149.9</ele>
        <time>2016-06-11T14:20:25Z</time>
      </trkpt>
      <trkpt lat="42.697792" lon="-0.637414">
        <ele>1141.7</ele>
        <time>2016-06-11T14:20:29Z</time>
      </trkpt>
      <trkpt lat="42.697352" lon="-0.636996">
        <ele>1129.2</ele>
        <time>2016-06-11T14:20:37Z</time>
      </trkpt>
      <trkpt lat="42.697226" lon="-0.636621">
        <ele>1125.4</ele>
        <time>2016-06-11T14:20:41Z</time>
      </trkpt>
      <trkpt lat="42.697110" lon="-0.636301">
        <ele>1123.9</ele>
        <time>2016-06-11T14:20:44Z</time>
      </trkpt>
      <trkpt lat="42.696844" lon="-0.636114">
        <ele>1122.5</ele>
        <time>2016-06-11T14:20:48Z</time>
      </trkpt>
      <trkpt lat="42.696743" lon="-0.636111">
        <ele>1122.0</ele>
        <time>2016-06-11T14:20:50Z</time>
      </trkpt>
      <trkpt lat="42.696691" lon="-0.636187">
        <ele>1121.5</ele>
        <time>2016-06-11T14:20:52Z</time>
      </trkpt>
      <trkpt lat="42.696702" lon="-0.636250">
        <ele>1121.5</ele>
        <time>2016-06-11T14:20:53Z</time>
      </trkpt>
      <trkpt lat="42.696830" lon="-0.636460">
        <ele>1120.1</ele>
        <time>2016-06-11T14:20:56Z</time>
      </trkpt>
      <trkpt lat="42.697110" lon="-0.637415">
        <ele>1114.8</ele>
        <time>2016-06-11T14:21:04Z</time>
      </trkpt>
      <trkpt lat="42.697303" lon="-0.637880">
        <ele>1112.4</ele>
        <time>2016-06-11T14:21:08Z</time>
      </trkpt>
      <trkpt lat="42.697662" lon="-0.638195">
        <ele>1110.0</ele>
        <time>2016-06-11T14:21:13Z</time>
      </trkpt>
      <trkpt lat="42.697707" lon="-0.638266">
        <ele>1110.0</ele>
        <time>2016-06-11T14:21:14Z</time>
      </trkpt>
      <trkpt lat="42.697526" lon="-0.638564">
        <ele>1105.7</ele>
        <time>2016-06-11T14:21:20Z</time>
      </trkpt>
      <trkpt lat="42.696633" lon="-0.638838">
        <ele>1094.6</ele>
        <time>2016-06-11T14:21:33Z</time>
      </trkpt>
      <trkpt lat="42.696478" lon="-0.638847">
        <ele>1093.2</ele>
        <time>2016-06-11T14:21:35Z</time>
      </trkpt>
      <trkpt lat="42.696143" lon="-0.639104">
        <ele>1089.3</ele>
        <time>2016-06-11T14:21:40Z</time>
      </trkpt>
      <trkpt lat="42.695325" lon="-0.640330">
        <ele>1084.5</ele>
        <time>2016-06-11T14:21:52Z</time>
      </trkpt>
      <trkpt lat="42.695286" lon="-0.640402">
        <ele>1084.5</ele>
        <time>2016-06-11T14:21:53Z</time>
      </trkpt>
      <trkpt lat="42.695221" lon="-0.640910">
        <ele>1081.1</ele>
        <time>2016-06-11T14:21:57Z</time>
      </trkpt>
      <trkpt lat="42.695256" lon="-0.642562">
        <ele>1065.3</ele>
        <time>2016-06-11T14:22:09Z</time>
      </trkpt>
      <trkpt lat="42.695325" lon="-0.643986">
        <ele>1051.8</ele>
        <time>2016-06-11T14:22:19Z</time>
      </trkpt>
      <trkpt lat="42.695389" lon="-0.644263">
        <ele>1048.0</ele>
        <time>2016-06-11T14:22:21Z</time>
      </trkpt>
      <trkpt lat="42.695412" lon="-0.644959">
        <ele>1039.3</ele>
        <time>2016-06-11T14:22:26Z</time>
      </trkpt>
      <trkpt lat="42.695707" lon="-0.645582">
        <ele>1032.1</ele>
        <time>2016-06-11T14:22:32Z</time>
      </trkpt>
      <trkpt lat="42.695989" lon="-0.645662">
        <ele>1029.7</ele>
        <time>2016-06-11T14:22:35Z</time>
      </trkpt>
      <trkpt lat="42.696477" lon="-0.645687">
        <ele>1026.8</ele>
        <time>2016-06-11T14:22:40Z</time>
      </trkpt>
      <trkpt lat="42.696642" lon="-0.645670">
        <ele>1026.8</ele>
        <time>2016-06-11T14:22:42Z</time>
      </trkpt>
      <trkpt lat="42.696744" lon="-0.645641">
        <ele>1026.8</ele>
        <time>2016-06-11T14:22:43Z</time>
      </trkpt>
      <trkpt lat="42.696848" lon="-0.645598">
        <ele>1026.8</ele>
        <time>2016-06-11T14:22:44Z</time>
      </trkpt>
      <trkpt lat="42.697020" lon="-0.645498">
        <ele>1026.8</ele>
        <time>2016-06-11T14:22:46Z</time>
      </trkpt>
      <trkpt lat="42.697165" lon="-0.645461">
        <ele>1026.8</ele>
        <time>2016-06-11T14:22:47Z</time>
      </trkpt>
      <trkpt lat="42.697238" lon="-0.645484">
        <ele>1026.8</ele>
        <time>2016-06-11T14:22:48Z</time>
      </trkpt>
      <trkpt lat="42.697296" lon="-0.645530">
        <ele>1026.8</ele>
        <time>2016-06-11T14:22:49Z</time>
      </trkpt>
      <trkpt lat="42.697349" lon="-0.645601">
        <ele>1026.8</ele>
        <time>2016-06-11T14:22:50Z</time>
      </trkpt>
      <trkpt lat="42.697376" lon="-0.645676">
        <ele>1026.8</ele>
        <time>2016-06-11T14:22:51Z</time>
      </trkpt>
      <trkpt lat="42.697302" lon="-0.645982">
        <ele>1026.3</ele>
        <time>2016-06-11T14:22:55Z</time>
      </trkpt>
      <trkpt lat="42.696737" lon="-0.646831">
        <ele>1023.0</ele>
        <time>2016-06-11T14:23:06Z</time>
      </trkpt>
      <trkpt lat="42.695913" lon="-0.647280">
        <ele>1015.8</ele>
        <time>2016-06-11T14:23:15Z</time>
      </trkpt>
      <trkpt lat="42.695815" lon="-0.647323">
        <ele>1014.3</ele>
        <time>2016-06-11T14:23:16Z</time>
      </trkpt>
      <trkpt lat="42.695479" lon="-0.647982">
        <ele>1003.8</ele>
        <time>2016-06-11T14:23:23Z</time>
      </trkpt>
      <trkpt lat="42.695559" lon="-0.648372">
        <ele>999.4</ele>
        <time>2016-06-11T14:23:26Z</time>
      </trkpt>
      <trkpt lat="42.695647" lon="-0.648613">
        <ele>997.5</ele>
        <time>2016-06-11T14:23:28Z</time>
      </trkpt>
      <trkpt lat="42.695996" lon="-0.649014">
        <ele>993.7</ele>
        <time>2016-06-11T14:23:33Z</time>
      </trkpt>
      <trkpt lat="42.696427" lon="-0.649381">
        <ele>990.8</ele>
        <time>2016-06-11T14:23:38Z</time>
      </trkpt>
      <trkpt lat="42.696466" lon="-0.649502">
        <ele>990.3</ele>
        <time>2016-06-11T14:23:39Z</time>
      </trkpt>
      <trkpt lat="42.696487" lon="-0.649629">
        <ele>990.3</ele>
        <time>2016-06-11T14:23:40Z</time>
      </trkpt>
      <trkpt lat="42.696482" lon="-0.650174">
        <ele>989.8</ele>
        <time>2016-06-11T14:23:44Z</time>
      </trkpt>
      <trkpt lat="42.696707" lon="-0.651287">
        <ele>983.1</ele>
        <time>2016-06-11T14:23:53Z</time>
      </trkpt>
      <trkpt lat="42.696875" lon="-0.651598">
        <ele>980.7</ele>
        <time>2016-06-11T14:23:57Z</time>
      </trkpt>
      <trkpt lat="42.697060" lon="-0.651812">
        <ele>980.7</ele>
        <time>2016-06-11T14:24:00Z</time>
      </trkpt>
      <trkpt lat="42.697090" lon="-0.652008">
        <ele>980.7</ele>
        <time>2016-06-11T14:24:01Z</time>
      </trkpt>
      <trkpt lat="42.696733" lon="-0.652473">
        <ele>977.8</ele>
        <time>2016-06-11T14:24:08Z</time>
      </trkpt>
      <trkpt lat="42.696662" lon="-0.652781">
        <ele>976.4</ele>
        <time>2016-06-11T14:24:11Z</time>
      </trkpt>
      <trkpt lat="42.696625" lon="-0.654494">
        <ele>966.7</ele>
        <time>2016-06-11T14:24:25Z</time>
      </trkpt>
      <trkpt lat="42.696628" lon="-0.654742">
        <ele>964.8</ele>
        <time>2016-06-11T14:24:27Z</time>
      </trkpt>
      <trkpt lat="42.696668" lon="-0.654998">
        <ele>963.4</ele>
        <time>2016-06-11T14:24:29Z</time>
      </trkpt>
      <trkpt lat="42.696714" lon="-0.655096">
        <ele>963.4</ele>
        <time>2016-06-11T14:24:30Z</time>
      </trkpt>
      <trkpt lat="42.697055" lon="-0.655405">
        <ele>962.9</ele>
        <time>2016-06-11T14:24:35Z</time>
      </trkpt>
      <trkpt lat="42.697240" lon="-0.655816">
        <ele>961.9</ele>
        <time>2016-06-11T14:24:41Z</time>
      </trkpt>
      <trkpt lat="42.696871" lon="-0.656044">
        <ele>958.6</ele>
        <time>2016-06-11T14:24:48Z</time>
      </trkpt>
      <trkpt lat="42.696680" lon="-0.656088">
        <ele>956.7</ele>
        <time>2016-06-11T14:24:51Z</time>
      </trkpt>
      <trkpt lat="42.696399" lon="-0.656543">
        <ele>949.4</ele>
        <time>2016-06-11T14:24:58Z</time>
      </trkpt>
      <trkpt lat="42.696255" lon="-0.658227">
        <ele>938.9</ele>
        <time>2016-06-11T14:25:16Z</time>
      </trkpt>
      <trkpt lat="42.696228" lon="-0.658479">
        <ele>937.4</ele>
        <time>2016-06-11T14:25:19Z</time>
      </trkpt>
      <trkpt lat="42.696489" lon="-0.658998">
        <ele>935.5</ele>
        <time>2016-06-11T14:25:28Z</time>
      </trkpt>
      <trkpt lat="42.696607" lon="-0.659002">
        <ele>935.0</ele>
        <time>2016-06-11T14:25:30Z</time>
      </trkpt>
      <trkpt lat="42.696932" lon="-0.658987">
        <ele>933.6</ele>
        <time>2016-06-11T14:25:35Z</time>
      </trkpt>
      <trkpt lat="42.697171" lon="-0.659162">
        <ele>932.6</ele>
        <time>2016-06-11T14:25:39Z</time>
      </trkpt>
      <trkpt lat="42.697188" lon="-0.659236">
        <ele>932.6</ele>
        <time>2016-06-11T14:25:40Z</time>
      </trkpt>
      <trkpt lat="42.697005" lon="-0.659568">
        <ele>932.1</ele>
        <time>2016-06-11T14:25:45Z</time>
      </trkpt>
      <trkpt lat="42.696167" lon="-0.660071">
        <ele>931.2</ele>
        <time>2016-06-11T14:26:01Z</time>
      </trkpt>
      <trkpt lat="42.695665" lon="-0.660397">
        <ele>930.7</ele>
        <time>2016-06-11T14:26:13Z</time>
      </trkpt>
      <trkpt lat="42.695549" lon="-0.660586">
        <ele>930.2</ele>
        <time>2016-06-11T14:26:17Z</time>
      </trkpt>
      <trkpt lat="42.695314" lon="-0.661296">
        <ele>931.2</ele>
        <time>2016-06-11T14:26:33Z</time>
      </trkpt>
      <trkpt lat="42.695158" lon="-0.662094">
        <ele>933.6</ele>
        <time>2016-06-11T14:26:50Z</time>
      </trkpt>
      <trkpt lat="42.694985" lon="-0.662855">
        <ele>934.1</ele>
        <time>2016-06-11T14:27:06Z</time>
      </trkpt>
      <trkpt lat="42.694651" lon="-0.663630">
        <ele>933.6</ele>
        <time>2016-06-11T14:27:23Z</time>
      </trkpt>
      <trkpt lat="42.694298" lon="-0.664460">
        <ele>931.2</ele>
        <time>2016-06-11T14:27:38Z</time>
      </trkpt>
      <trkpt lat="42.694103" lon="-0.664776">
        <ele>930.7</ele>
        <time>2016-06-11T14:27:44Z</time>
      </trkpt>
      <trkpt lat="42.693861" lon="-0.665346">
        <ele>932.1</ele>
        <time>2016-06-11T14:27:59Z</time>
      </trkpt>
      <trkpt lat="42.693849" lon="-0.665725">
        <ele>933.1</ele>
        <time>2016-06-11T14:28:11Z</time>
      </trkpt>
      <trkpt lat="42.694006" lon="-0.666037">
        <ele>936.5</ele>
        <time>2016-06-11T14:28:23Z</time>
      </trkpt>
      <trkpt lat="42.694027" lon="-0.666144">
        <ele>936.5</ele>
        <time>2016-06-11T14:28:27Z</time>
      </trkpt>
      <trkpt lat="42.693945" lon="-0.666494">
        <ele>936.9</ele>
        <time>2016-06-11T14:28:36Z</time>
      </trkpt>
      <trkpt lat="42.694165" lon="-0.666634">
        <ele>936.0</ele>
        <time>2016-06-11T14:28:49Z</time>
      </trkpt>
      <trkpt lat="42.694430" lon="-0.666561">
        <ele>940.3</ele>
        <time>2016-06-11T14:29:05Z</time>
      </trkpt>
      <trkpt lat="42.694688" lon="-0.666495">
        <ele>942.7</ele>
        <time>2016-06-11T14:29:21Z</time>
      </trkpt>
      <trkpt lat="42.694846" lon="-0.666469">
        <ele>944.2</ele>
        <time>2016-06-11T14:29:31Z</time>
      </trkpt>
      <trkpt lat="42.694923" lon="-0.666433">
        <ele>945.1</ele>
        <time>2016-06-11T14:29:36Z</time>
      </trkpt>
      <trkpt lat="42.695202" lon="-0.666370">
        <ele>947.5</ele>
        <time>2016-06-11T14:29:54Z</time>
      </trkpt>
      <trkpt lat="42.695451" lon="-0.666333">
        <ele>951.4</ele>
        <time>2016-06-11T14:30:10Z</time>
      </trkpt>
      <trkpt lat="42.695684" lon="-0.666442">
        <ele>950.9</ele>
        <time>2016-06-11T14:30:21Z</time>
      </trkpt>
      <trkpt lat="42.695979" lon="-0.666625">
        <ele>950.9</ele>
        <time>2016-06-11T14:30:38Z</time>
      </trkpt>
      <trkpt lat="42.696260" lon="-0.666837">
        <ele>948.0</ele>
        <time>2016-06-11T14:30:53Z</time>
      </trkpt>
      <trkpt lat="42.696538" lon="-0.667022">
        <ele>946.6</ele>
        <time>2016-06-11T14:31:10Z</time>
      </trkpt>
      <trkpt lat="42.696796" lon="-0.667165">
        <ele>946.1</ele>
        <time>2016-06-11T14:31:25Z</time>
      </trkpt>
      <trkpt lat="42.697086" lon="-0.667356">
        <ele>946.6</ele>
        <time>2016-06-11T14:31:42Z</time>
      </trkpt>
      <trkpt lat="42.697361" lon="-0.667529">
        <ele>948.0</ele>
        <time>2016-06-11T14:31:58Z</time>
      </trkpt>
      <trkpt lat="42.697626" lon="-0.667707">
        <ele>951.8</ele>
        <time>2016-06-11T14:32:14Z</time>
      </trkpt>
      <trkpt lat="42.697912" lon="-0.668009">
        <ele>950.4</ele>
        <time>2016-06-11T14:32:29Z</time>
      </trkpt>
      <trkpt lat="42.698116" lon="-0.668120">
        <ele>950.9</ele>
        <time>2016-06-11T14:32:44Z</time>
      </trkpt>
      <trkpt lat="42.698230" lon="-0.668218">
        <ele>951.4</ele>
        <time>2016-06-11T14:32:58Z</time>
      </trkpt>
      <trkpt lat="42.698336" lon="-0.668273">
        <ele>950.4</ele>
        <time>2016-06-11T14:33:10Z</time>
      </trkpt>
      <trkpt lat="42.698568" lon="-0.668443">
        <ele>949.9</ele>
        <time>2016-06-11T14:33:24Z</time>
      </trkpt>
      <trkpt lat="42.698780" lon="-0.668715">
        <ele>949.9</ele>
        <time>2016-06-11T14:33:38Z</time>
      </trkpt>
      <trkpt lat="42.698970" lon="-0.668923">
        <ele>949.0</ele>
        <time>2016-06-11T14:33:50Z</time>
      </trkpt>
      <trkpt lat="42.699215" lon="-0.669112">
        <ele>947.5</ele>
        <time>2016-06-11T14:34:00Z</time>
      </trkpt>
      <trkpt lat="42.699502" lon="-0.669103">
        <ele>943.2</ele>
        <time>2016-06-11T14:34:12Z</time>
      </trkpt>
      <trkpt lat="42.699601" lon="-0.669093">
        <ele>941.8</ele>
        <time>2016-06-11T14:34:16Z</time>
      </trkpt>
      <trkpt lat="42.699851" lon="-0.669053">
        <ele>938.4</ele>
        <time>2016-06-11T14:34:29Z</time>
      </trkpt>
      <trkpt lat="42.700115" lon="-0.669081">
        <ele>934.5</ele>
        <time>2016-06-11T14:34:41Z</time>
      </trkpt>
      <trkpt lat="42.700382" lon="-0.669034">
        <ele>931.7</ele>
        <time>2016-06-11T14:34:53Z</time>
      </trkpt>
      <trkpt lat="42.700565" lon="-0.668955">
        <ele>928.3</ele>
        <time>2016-06-11T14:35:04Z</time>
      </trkpt>
      <trkpt lat="42.700848" lon="-0.668925">
        <ele>927.8</ele>
        <time>2016-06-11T14:35:16Z</time>
      </trkpt>
      <trkpt lat="42.701098" lon="-0.668875">
        <ele>925.9</ele>
        <time>2016-06-11T14:35:28Z</time>
      </trkpt>
      <trkpt lat="42.701224" lon="-0.668808">
        <ele>926.4</ele>
        <time>2016-06-11T14:35:33Z</time>
      </trkpt>
      <trkpt lat="42.701568" lon="-0.668799">
        <ele>923.5</ele>
        <time>2016-06-11T14:35:45Z</time>
      </trkpt>
      <trkpt lat="42.701704" lon="-0.668782">
        <ele>922.0</ele>
        <time>2016-06-11T14:35:51Z</time>
      </trkpt>
      <trkpt lat="42.701772" lon="-0.668784">
        <ele>921.6</ele>
        <time>2016-06-11T14:36:03Z</time>
      </trkpt>
      <trkpt lat="42.701869" lon="-0.668803">
        <ele>921.1</ele>
        <time>2016-06-11T14:36:16Z</time>
      </trkpt>
      <trkpt lat="42.702003" lon="-0.668853">
        <ele>923.0</ele>
        <time>2016-06-11T14:36:29Z</time>
      </trkpt>
      <trkpt lat="42.702131" lon="-0.668854">
        <ele>924.0</ele>
        <time>2016-06-11T14:36:43Z</time>
      </trkpt>
      <trkpt lat="42.702371" lon="-0.668955">
        <ele>924.0</ele>
        <time>2016-06-11T14:36:57Z</time>
      </trkpt>
      <trkpt lat="42.702580" lon="-0.669151">
        <ele>924.5</ele>
        <time>2016-06-11T14:37:11Z</time>
      </trkpt>
      <trkpt lat="42.702684" lon="-0.669217">
        <ele>924.5</ele>
        <time>2016-06-11T14:37:18Z</time>
      </trkpt>
      <trkpt lat="42.702740" lon="-0.669271">
        <ele>924.0</ele>
        <time>2016-06-11T14:37:22Z</time>
      </trkpt>
      <trkpt lat="42.702822" lon="-0.669385">
        <ele>923.5</ele>
        <time>2016-06-11T14:37:29Z</time>
      </trkpt>
      <trkpt lat="42.702914" lon="-0.669437">
        <ele>920.1</ele>
        <time>2016-06-11T14:37:40Z</time>
      </trkpt>
      <trkpt lat="42.703062" lon="-0.669522">
        <ele>919.2</ele>
        <time>2016-06-11T14:37:57Z</time>
      </trkpt>
      <trkpt lat="42.703101" lon="-0.669582">
        <ele>919.6</ele>
        <time>2016-06-11T14:38:07Z</time>
      </trkpt>
      <trkpt lat="42.703202" lon="-0.669791">
        <ele>919.2</ele>
        <time>2016-06-11T14:38:19Z</time>
      </trkpt>
      <trkpt lat="42.703272" lon="-0.669850">
        <ele>919.2</ele>
        <time>2016-06-11T14:38:23Z</time>
      </trkpt>
      <trkpt lat="42.703375" lon="-0.669878">
        <ele>918.2</ele>
        <time>2016-06-11T14:38:33Z</time>
      </trkpt>
      <trkpt lat="42.703383" lon="-0.669940">
        <ele>919.2</ele>
        <time>2016-06-11T14:38:49Z</time>
      </trkpt>
      <trkpt lat="42.703416" lon="-0.670006">
        <ele>919.6</ele>
        <time>2016-06-11T14:39:00Z</time>
      </trkpt>
      <trkpt lat="42.703448" lon="-0.670074">
        <ele>919.2</ele>
        <time>2016-06-11T14:39:05Z</time>
      </trkpt>
      <trkpt lat="42.703580" lon="-0.670430">
        <ele>920.1</ele>
        <time>2016-06-11T14:39:23Z</time>
      </trkpt>
      <trkpt lat="42.703673" lon="-0.670526">
        <ele>923.0</ele>
        <time>2016-06-11T14:39:32Z</time>
      </trkpt>
      <trkpt lat="42.703611" lon="-0.670629">
        <ele>924.5</ele>
        <time>2016-06-11T14:39:40Z</time>
      </trkpt>
      <trkpt lat="42.703526" lon="-0.670658">
        <ele>925.4</ele>
        <time>2016-06-11T14:39:46Z</time>
      </trkpt>
      <trkpt lat="42.703547" lon="-0.670724">
        <ele>926.9</ele>
        <time>2016-06-11T14:39:52Z</time>
      </trkpt>
      <trkpt lat="42.703817" lon="-0.670530">
        <ele>930.7</ele>
        <time>2016-06-11T14:40:10Z</time>
      </trkpt>
      <trkpt lat="42.704065" lon="-0.670324">
        <ele>933.6</ele>
        <time>2016-06-11T14:40:28Z</time>
      </trkpt>
      <trkpt lat="42.704345" lon="-0.670266">
        <ele>937.9</ele>
        <time>2016-06-11T14:40:45Z</time>
      </trkpt>
      <trkpt lat="42.704583" lon="-0.670252">
        <ele>939.8</ele>
        <time>2016-06-11T14:41:00Z</time>
      </trkpt>
      <trkpt lat="42.704899" lon="-0.670186">
        <ele>944.2</ele>
        <time>2016-06-11T14:41:19Z</time>
      </trkpt>
      <trkpt lat="42.705112" lon="-0.670135">
        <ele>945.1</ele>
        <time>2016-06-11T14:41:32Z</time>
      </trkpt>
      <trkpt lat="42.705402" lon="-0.670064">
        <ele>948.0</ele>
        <time>2016-06-11T14:41:48Z</time>
      </trkpt>
      <trkpt lat="42.705686" lon="-0.670060">
        <ele>947.0</ele>
        <time>2016-06-11T14:42:04Z</time>
      </trkpt>
      <trkpt lat="42.706000" lon="-0.670007">
        <ele>950.9</ele>
        <time>2016-06-11T14:42:21Z</time>
      </trkpt>
      <trkpt lat="42.706267" lon="-0.669959">
        <ele>953.3</ele>
        <time>2016-06-11T14:42:36Z</time>
      </trkpt>
      <trkpt lat="42.706595" lon="-0.670006">
        <ele>951.8</ele>
        <time>2016-06-11T14:42:54Z</time>
      </trkpt>
      <trkpt lat="42.706897" lon="-0.669995">
        <ele>952.8</ele>
        <time>2016-06-11T14:43:10Z</time>
      </trkpt>
      <trkpt lat="42.707157" lon="-0.669985">
        <ele>952.3</ele>
        <time>2016-06-11T14:43:24Z</time>
      </trkpt>
      <trkpt lat="42.707503" lon="-0.669891">
        <ele>951.8</ele>
        <time>2016-06-11T14:43:43Z</time>
      </trkpt>
      <trkpt lat="42.707834" lon="-0.669790">
        <ele>957.1</ele>
        <time>2016-06-11T14:44:01Z</time>
      </trkpt>
      <trkpt lat="42.708043" lon="-0.669726">
        <ele>959.5</ele>
        <time>2016-06-11T14:44:12Z</time>
      </trkpt>
      <trkpt lat="42.708022" lon="-0.669804">
        <ele>959.1</ele>
        <time>2016-06-11T14:44:20Z</time>
      </trkpt>
      <trkpt lat="42.707771" lon="-0.669919">
        <ele>958.6</ele>
        <time>2016-06-11T14:44:37Z</time>
      </trkpt>
      <trkpt lat="42.707651" lon="-0.669962">
        <ele>962.4</ele>
        <time>2016-06-11T14:44:46Z</time>
      </trkpt>
      <trkpt lat="42.707525" lon="-0.670077">
        <ele>961.9</ele>
        <time>2016-06-11T14:44:56Z</time>
      </trkpt>
      <trkpt lat="42.707400" lon="-0.670202">
        <ele>961.5</ele>
        <time>2016-06-11T14:45:07Z</time>
      </trkpt>
      <trkpt lat="42.707343" lon="-0.670261">
        <ele>961.5</ele>
        <time>2016-06-11T14:45:12Z</time>
      </trkpt>
      <trkpt lat="42.707279" lon="-0.670297">
        <ele>962.4</ele>
        <time>2016-06-11T14:45:17Z</time>
      </trkpt>
      <trkpt lat="42.707120" lon="-0.670420">
        <ele>964.8</ele>
        <time>2016-06-11T14:45:30Z</time>
      </trkpt>
      <trkpt lat="42.706930" lon="-0.670538">
        <ele>969.6</ele>
        <time>2016-06-11T14:45:46Z</time>
      </trkpt>
      <trkpt lat="42.706869" lon="-0.670810">
        <ele>971.1</ele>
        <time>2016-06-11T14:46:02Z</time>
      </trkpt>
      <trkpt lat="42.706777" lon="-0.670946">
        <ele>970.6</ele>
        <time>2016-06-11T14:46:12Z</time>
      </trkpt>
      <trkpt lat="42.706815" lon="-0.670999">
        <ele>972.0</ele>
        <time>2016-06-11T14:46:17Z</time>
      </trkpt>
      <trkpt lat="42.706831" lon="-0.671065">
        <ele>974.4</ele>
        <time>2016-06-12T06:49:02Z</time>
      </trkpt>
      <trkpt lat="42.706792" lon="-0.671128">
        <ele>975.4</ele>
        <time>2016-06-12T06:49:08Z</time>
      </trkpt>
      <trkpt lat="42.706735" lon="-0.671223">
        <ele>975.4</ele>
        <time>2016-06-12T06:49:22Z</time>
      </trkpt>
      <trkpt lat="42.706640" lon="-0.671235">
        <ele>975.4</ele>
        <time>2016-06-12T06:49:35Z</time>
      </trkpt>
      <trkpt lat="42.706539" lon="-0.671435">
        <ele>975.9</ele>
        <time>2016-06-12T06:49:50Z</time>
      </trkpt>
      <trkpt lat="42.706464" lon="-0.671678">
        <ele>975.9</ele>
        <time>2016-06-12T06:50:08Z</time>
      </trkpt>
      <trkpt lat="42.706480" lon="-0.671741">
        <ele>975.9</ele>
        <time>2016-06-12T06:50:13Z</time>
      </trkpt>
      <trkpt lat="42.706528" lon="-0.671758">
        <ele>975.9</ele>
        <time>2016-06-12T06:50:19Z</time>
      </trkpt>
      <trkpt lat="42.706710" lon="-0.671795">
        <ele>979.2</ele>
        <time>2016-06-12T06:50:53Z</time>
      </trkpt>
      <trkpt lat="42.706869" lon="-0.671901">
        <ele>981.2</ele>
        <time>2016-06-12T06:51:11Z</time>
      </trkpt>
      <trkpt lat="42.707073" lon="-0.672016">
        <ele>983.6</ele>
        <time>2016-06-12T06:51:34Z</time>
      </trkpt>
      <trkpt lat="42.707203" lon="-0.672195">
        <ele>986.9</ele>
        <time>2016-06-12T06:51:56Z</time>
      </trkpt>
      <trkpt lat="42.707148" lon="-0.672510">
        <ele>986.9</ele>
        <time>2016-06-12T06:52:20Z</time>
      </trkpt>
      <trkpt lat="42.707094" lon="-0.672672">
        <ele>987.9</ele>
        <time>2016-06-12T06:52:35Z</time>
      </trkpt>
      <trkpt lat="42.707105" lon="-0.672841">
        <ele>989.3</ele>
        <time>2016-06-12T06:52:49Z</time>
      </trkpt>
      <trkpt lat="42.707152" lon="-0.672983">
        <ele>991.7</ele>
        <time>2016-06-12T06:53:03Z</time>
      </trkpt>
      <trkpt lat="42.707136" lon="-0.673109">
        <ele>993.2</ele>
        <time>2016-06-12T06:53:19Z</time>
      </trkpt>
      <trkpt lat="42.707169" lon="-0.673431">
        <ele>993.2</ele>
        <time>2016-06-12T06:53:42Z</time>
      </trkpt>
      <trkpt lat="42.707230" lon="-0.673659">
        <ele>994.1</ele>
        <time>2016-06-12T06:53:59Z</time>
      </trkpt>
      <trkpt lat="42.707264" lon="-0.673885">
        <ele>993.2</ele>
        <time>2016-06-12T06:54:19Z</time>
      </trkpt>
      <trkpt lat="42.707145" lon="-0.674214">
        <ele>992.2</ele>
        <time>2016-06-12T06:54:37Z</time>
      </trkpt>
      <trkpt lat="42.707167" lon="-0.674623">
        <ele>991.7</ele>
        <time>2016-06-12T06:54:49Z</time>
      </trkpt>
      <trkpt lat="42.707227" lon="-0.674888">
        <ele>991.3</ele>
        <time>2016-06-12T06:54:59Z</time>
      </trkpt>
      <trkpt lat="42.707258" lon="-0.674938">
        <ele>991.7</ele>
        <time>2016-06-12T06:55:12Z</time>
      </trkpt>
      <trkpt lat="42.707337" lon="-0.675234">
        <ele>991.7</ele>
        <time>2016-06-12T06:55:32Z</time>
      </trkpt>
      <trkpt lat="42.707391" lon="-0.675507">
        <ele>993.2</ele>
        <time>2016-06-12T06:55:51Z</time>
      </trkpt>
      <trkpt lat="42.707494" lon="-0.675748">
        <ele>994.1</ele>
        <time>2016-06-12T06:56:09Z</time>
      </trkpt>
      <trkpt lat="42.707526" lon="-0.676042">
        <ele>993.2</ele>
        <time>2016-06-12T06:56:29Z</time>
      </trkpt>
      <trkpt lat="42.707603" lon="-0.676248">
        <ele>993.7</ele>
        <time>2016-06-12T06:56:46Z</time>
      </trkpt>
      <trkpt lat="42.707651" lon="-0.676440">
        <ele>996.1</ele>
        <time>2016-06-12T06:57:03Z</time>
      </trkpt>
      <trkpt lat="42.707711" lon="-0.676568">
        <ele>999.9</ele>
        <time>2016-06-12T06:57:20Z</time>
      </trkpt>
      <trkpt lat="42.707760" lon="-0.676680">
        <ele>1001.4</ele>
        <time>2016-06-12T06:57:35Z</time>
      </trkpt>
      <trkpt lat="42.707835" lon="-0.676796">
        <ele>1003.8</ele>
        <time>2016-06-12T06:57:53Z</time>
      </trkpt>
      <trkpt lat="42.707902" lon="-0.676916">
        <ele>1004.7</ele>
        <time>2016-06-12T06:58:08Z</time>
      </trkpt>
      <trkpt lat="42.707960" lon="-0.677065">
        <ele>1006.6</ele>
        <time>2016-06-12T06:58:26Z</time>
      </trkpt>
      <trkpt lat="42.708029" lon="-0.677284">
        <ele>1007.6</ele>
        <time>2016-06-12T06:58:45Z</time>
      </trkpt>
      <trkpt lat="42.708105" lon="-0.677485">
        <ele>1009.5</ele>
        <time>2016-06-12T06:59:05Z</time>
      </trkpt>
      <trkpt lat="42.708190" lon="-0.677682">
        <ele>1012.9</ele>
        <time>2016-06-12T06:59:27Z</time>
      </trkpt>
      <trkpt lat="42.708324" lon="-0.677895">
        <ele>1013.4</ele>
        <time>2016-06-12T06:59:48Z</time>
      </trkpt>
      <trkpt lat="42.708491" lon="-0.677963">
        <ele>1013.9</ele>
        <time>2016-06-12T07:00:07Z</time>
      </trkpt>
      <trkpt lat="42.708592" lon="-0.677962">
        <ele>1015.8</ele>
        <time>2016-06-12T07:00:24Z</time>
      </trkpt>
      <trkpt lat="42.708706" lon="-0.677920">
        <ele>1017.7</ele>
        <time>2016-06-12T07:00:41Z</time>
      </trkpt>
      <trkpt lat="42.708792" lon="-0.677788">
        <ele>1021.1</ele>
        <time>2016-06-12T07:01:00Z</time>
      </trkpt>
      <trkpt lat="42.708849" lon="-0.677680">
        <ele>1023.0</ele>
        <time>2016-06-12T07:01:16Z</time>
      </trkpt>
      <trkpt lat="42.708921" lon="-0.677606">
        <ele>1024.9</ele>
        <time>2016-06-12T07:01:31Z</time>
      </trkpt>
      <trkpt lat="42.709100" lon="-0.677479">
        <ele>1028.8</ele>
        <time>2016-06-12T07:01:52Z</time>
      </trkpt>
      <trkpt lat="42.709234" lon="-0.677513">
        <ele>1025.9</ele>
        <time>2016-06-12T07:02:07Z</time>
      </trkpt>
      <trkpt lat="42.709349" lon="-0.677543">
        <ele>1025.9</ele>
        <time>2016-06-12T07:02:26Z</time>
      </trkpt>
      <trkpt lat="42.709431" lon="-0.677547">
        <ele>1031.6</ele>
        <time>2016-06-12T07:03:04Z</time>
      </trkpt>
      <trkpt lat="42.709510" lon="-0.677570">
        <ele>1034.0</ele>
        <time>2016-06-12T07:03:21Z</time>
      </trkpt>
      <trkpt lat="42.709546" lon="-0.677630">
        <ele>1036.0</ele>
        <time>2016-06-12T07:03:37Z</time>
      </trkpt>
      <trkpt lat="42.709542" lon="-0.677815">
        <ele>1037.4</ele>
        <time>2016-06-12T07:04:09Z</time>
      </trkpt>
      <trkpt lat="42.709563" lon="-0.677933">
        <ele>1039.3</ele>
        <time>2016-06-12T07:04:25Z</time>
      </trkpt>
      <trkpt lat="42.709558" lon="-0.678080">
        <ele>1041.7</ele>
        <time>2016-06-12T07:04:43Z</time>
      </trkpt>
      <trkpt lat="42.709566" lon="-0.678232">
        <ele>1044.6</ele>
        <time>2016-06-12T07:05:00Z</time>
      </trkpt>
      <trkpt lat="42.709562" lon="-0.678302">
        <ele>1047.0</ele>
        <time>2016-06-12T07:05:15Z</time>
      </trkpt>
      <trkpt lat="42.709569" lon="-0.678384">
        <ele>1047.5</ele>
        <time>2016-06-12T07:05:31Z</time>
      </trkpt>
      <trkpt lat="42.709567" lon="-0.678479">
        <ele>1049.4</ele>
        <time>2016-06-12T07:05:46Z</time>
      </trkpt>
      <trkpt lat="42.709556" lon="-0.678601">
        <ele>1051.8</ele>
        <time>2016-06-12T07:06:04Z</time>
      </trkpt>
      <trkpt lat="42.709540" lon="-0.678738">
        <ele>1055.2</ele>
        <time>2016-06-12T07:06:23Z</time>
      </trkpt>
      <trkpt lat="42.709475" lon="-0.678876">
        <ele>1057.6</ele>
        <time>2016-06-12T07:06:41Z</time>
      </trkpt>
      <trkpt lat="42.709387" lon="-0.679028">
        <ele>1060.5</ele>
        <time>2016-06-12T07:06:59Z</time>
      </trkpt>
      <trkpt lat="42.709320" lon="-0.679143">
        <ele>1061.4</ele>
        <time>2016-06-12T07:07:15Z</time>
      </trkpt>
      <trkpt lat="42.709249" lon="-0.679269">
        <ele>1063.4</ele>
        <time>2016-06-12T07:07:37Z</time>
      </trkpt>
      <trkpt lat="42.709220" lon="-0.679354">
        <ele>1064.8</ele>
        <time>2016-06-12T07:07:50Z</time>
      </trkpt>
      <trkpt lat="42.709214" lon="-0.679459">
        <ele>1067.7</ele>
        <time>2016-06-12T07:08:05Z</time>
      </trkpt>
      <trkpt lat="42.709214" lon="-0.679543">
        <ele>1069.6</ele>
        <time>2016-06-12T07:08:18Z</time>
      </trkpt>
      <trkpt lat="42.709271" lon="-0.679555">
        <ele>1076.3</ele>
        <time>2016-06-12T07:08:48Z</time>
      </trkpt>
      <trkpt lat="42.709258" lon="-0.679688">
        <ele>1078.3</ele>
        <time>2016-06-12T07:09:06Z</time>
      </trkpt>
      <trkpt lat="42.709296" lon="-0.679750">
        <ele>1078.7</ele>
        <time>2016-06-12T07:09:19Z</time>
      </trkpt>
      <trkpt lat="42.709361" lon="-0.679828">
        <ele>1079.7</ele>
        <time>2016-06-12T07:09:34Z</time>
      </trkpt>
      <trkpt lat="42.709445" lon="-0.679898">
        <ele>1083.1</ele>
        <time>2016-06-12T07:09:50Z</time>
      </trkpt>
      <trkpt lat="42.709503" lon="-0.679836">
        <ele>1083.5</ele>
        <time>2016-06-12T07:10:06Z</time>
      </trkpt>
      <trkpt lat="42.709494" lon="-0.679702">
        <ele>1085.5</ele>
        <time>2016-06-12T07:10:24Z</time>
      </trkpt>
      <trkpt lat="42.709534" lon="-0.679557">
        <ele>1087.4</ele>
        <time>2016-06-12T07:10:41Z</time>
      </trkpt>
      <trkpt lat="42.709612" lon="-0.679637">
        <ele>1089.8</ele>
        <time>2016-06-12T07:10:59Z</time>
      </trkpt>
      <trkpt lat="42.709694" lon="-0.679758">
        <ele>1092.2</ele>
        <time>2016-06-12T07:11:17Z</time>
      </trkpt>
      <trkpt lat="42.709747" lon="-0.679891">
        <ele>1093.6</ele>
        <time>2016-06-12T07:11:34Z</time>
      </trkpt>
      <trkpt lat="42.709793" lon="-0.680037">
        <ele>1095.6</ele>
        <time>2016-06-12T07:11:52Z</time>
      </trkpt>
      <trkpt lat="42.709818" lon="-0.680147">
        <ele>1097.0</ele>
        <time>2016-06-12T07:12:03Z</time>
      </trkpt>
      <trkpt lat="42.709902" lon="-0.680316">
        <ele>1098.4</ele>
        <time>2016-06-12T07:12:22Z</time>
      </trkpt>
      <trkpt lat="42.709981" lon="-0.680399">
        <ele>1100.4</ele>
        <time>2016-06-12T07:12:39Z</time>
      </trkpt>
      <trkpt lat="42.710026" lon="-0.680467">
        <ele>1102.3</ele>
        <time>2016-06-12T07:12:56Z</time>
      </trkpt>
      <trkpt lat="42.710076" lon="-0.680614">
        <ele>1105.2</ele>
        <time>2016-06-12T07:13:16Z</time>
      </trkpt>
      <trkpt lat="42.710134" lon="-0.680780">
        <ele>1104.7</ele>
        <time>2016-06-12T07:13:34Z</time>
      </trkpt>
      <trkpt lat="42.710196" lon="-0.680898">
        <ele>1106.6</ele>
        <time>2016-06-12T07:13:51Z</time>
      </trkpt>
      <trkpt lat="42.710265" lon="-0.681029">
        <ele>1108.5</ele>
        <time>2016-06-12T07:14:12Z</time>
      </trkpt>
      <trkpt lat="42.710312" lon="-0.681133">
        <ele>1109.5</ele>
        <time>2016-06-12T07:14:24Z</time>
      </trkpt>
      <trkpt lat="42.710413" lon="-0.681329">
        <ele>1109.5</ele>
        <time>2016-06-12T07:14:43Z</time>
      </trkpt>
      <trkpt lat="42.710477" lon="-0.681447">
        <ele>1111.9</ele>
        <time>2016-06-12T07:15:00Z</time>
      </trkpt>
      <trkpt lat="42.710517" lon="-0.681546">
        <ele>1113.3</ele>
        <time>2016-06-12T07:15:15Z</time>
      </trkpt>
      <trkpt lat="42.710551" lon="-0.681674">
        <ele>1116.2</ele>
        <time>2016-06-12T07:15:33Z</time>
      </trkpt>
      <trkpt lat="42.710574" lon="-0.681798">
        <ele>1120.1</ele>
        <time>2016-06-12T07:15:51Z</time>
      </trkpt>
      <trkpt lat="42.710593" lon="-0.681939">
        <ele>1121.5</ele>
        <time>2016-06-12T07:16:10Z</time>
      </trkpt>
      <trkpt lat="42.710654" lon="-0.682093">
        <ele>1122.5</ele>
        <time>2016-06-12T07:16:27Z</time>
      </trkpt>
      <trkpt lat="42.710710" lon="-0.682225">
        <ele>1123.9</ele>
        <time>2016-06-12T07:16:44Z</time>
      </trkpt>
      <trkpt lat="42.710715" lon="-0.682343">
        <ele>1124.9</ele>
        <time>2016-06-12T07:17:00Z</time>
      </trkpt>
      <trkpt lat="42.710724" lon="-0.682452">
        <ele>1124.9</ele>
        <time>2016-06-12T07:17:14Z</time>
      </trkpt>
      <trkpt lat="42.710720" lon="-0.682555">
        <ele>1126.8</ele>
        <time>2016-06-12T07:17:30Z</time>
      </trkpt>
      <trkpt lat="42.710700" lon="-0.682648">
        <ele>1129.2</ele>
        <time>2016-06-12T07:17:46Z</time>
      </trkpt>
      <trkpt lat="42.710701" lon="-0.682750">
        <ele>1130.2</ele>
        <time>2016-06-12T07:18:02Z</time>
      </trkpt>
      <trkpt lat="42.710728" lon="-0.682805">
        <ele>1130.7</ele>
        <time>2016-06-12T07:18:18Z</time>
      </trkpt>
      <trkpt lat="42.710746" lon="-0.682889">
        <ele>1132.1</ele>
        <time>2016-06-12T07:18:51Z</time>
      </trkpt>
      <trkpt lat="42.710718" lon="-0.683024">
        <ele>1135.0</ele>
        <time>2016-06-12T07:19:08Z</time>
      </trkpt>
      <trkpt lat="42.710727" lon="-0.683138">
        <ele>1138.3</ele>
        <time>2016-06-12T07:19:25Z</time>
      </trkpt>
      <trkpt lat="42.710676" lon="-0.683241">
        <ele>1142.2</ele>
        <time>2016-06-12T07:19:44Z</time>
      </trkpt>
      <trkpt lat="42.710625" lon="-0.683333">
        <ele>1147.5</ele>
        <time>2016-06-12T07:20:20Z</time>
      </trkpt>
      <trkpt lat="42.710616" lon="-0.683398">
        <ele>1150.4</ele>
        <time>2016-06-12T07:20:37Z</time>
      </trkpt>
      <trkpt lat="42.710601" lon="-0.683491">
        <ele>1150.4</ele>
        <time>2016-06-12T07:20:51Z</time>
      </trkpt>
      <trkpt lat="42.710539" lon="-0.683501">
        <ele>1150.8</ele>
        <time>2016-06-12T07:21:01Z</time>
      </trkpt>
      <trkpt lat="42.710388" lon="-0.683454">
        <ele>1150.8</ele>
        <time>2016-06-12T07:21:16Z</time>
      </trkpt>
      <trkpt lat="42.710244" lon="-0.683391">
        <ele>1150.8</ele>
        <time>2016-06-12T07:21:33Z</time>
      </trkpt>
      <trkpt lat="42.710090" lon="-0.683356">
        <ele>1150.8</ele>
        <time>2016-06-12T07:21:50Z</time>
      </trkpt>
      <trkpt lat="42.709959" lon="-0.683369">
        <ele>1151.8</ele>
        <time>2016-06-12T07:22:07Z</time>
      </trkpt>
      <trkpt lat="42.709836" lon="-0.683392">
        <ele>1152.8</ele>
        <time>2016-06-12T07:22:24Z</time>
      </trkpt>
      <trkpt lat="42.709708" lon="-0.683443">
        <ele>1152.8</ele>
        <time>2016-06-12T07:22:40Z</time>
      </trkpt>
      <trkpt lat="42.709628" lon="-0.683495">
        <ele>1152.3</ele>
        <time>2016-06-12T07:22:52Z</time>
      </trkpt>
      <trkpt lat="42.709589" lon="-0.683568">
        <ele>1152.3</ele>
        <time>2016-06-12T07:23:08Z</time>
      </trkpt>
      <trkpt lat="42.709546" lon="-0.683596">
        <ele>1150.4</ele>
        <time>2016-06-12T07:23:22Z</time>
      </trkpt>
      <trkpt lat="42.709427" lon="-0.683624">
        <ele>1150.4</ele>
        <time>2016-06-12T07:23:37Z</time>
      </trkpt>
      <trkpt lat="42.709219" lon="-0.683696">
        <ele>1153.7</ele>
        <time>2016-06-12T07:24:01Z</time>
      </trkpt>
      <trkpt lat="42.709023" lon="-0.683848">
        <ele>1153.7</ele>
        <time>2016-06-12T07:24:22Z</time>
      </trkpt>
      <trkpt lat="42.708847" lon="-0.683981">
        <ele>1151.8</ele>
        <time>2016-06-12T07:24:41Z</time>
      </trkpt>
      <trkpt lat="42.708664" lon="-0.684031">
        <ele>1151.3</ele>
        <time>2016-06-12T07:24:58Z</time>
      </trkpt>
      <trkpt lat="42.708493" lon="-0.684052">
        <ele>1150.4</ele>
        <time>2016-06-12T07:25:16Z</time>
      </trkpt>
      <trkpt lat="42.708357" lon="-0.684054">
        <ele>1150.4</ele>
        <time>2016-06-12T07:25:29Z</time>
      </trkpt>
      <trkpt lat="42.708202" lon="-0.684105">
        <ele>1148.0</ele>
        <time>2016-06-12T07:25:44Z</time>
      </trkpt>
      <trkpt lat="42.708072" lon="-0.684149">
        <ele>1146.0</ele>
        <time>2016-06-12T07:25:59Z</time>
      </trkpt>
      <trkpt lat="42.707907" lon="-0.684203">
        <ele>1144.6</ele>
        <time>2016-06-12T07:26:16Z</time>
      </trkpt>
      <trkpt lat="42.707790" lon="-0.684361">
        <ele>1143.1</ele>
        <time>2016-06-12T07:26:32Z</time>
      </trkpt>
      <trkpt lat="42.707722" lon="-0.684440">
        <ele>1141.2</ele>
        <time>2016-06-12T07:26:44Z</time>
      </trkpt>
      <trkpt lat="42.707603" lon="-0.684615">
        <ele>1137.9</ele>
        <time>2016-06-12T07:27:05Z</time>
      </trkpt>
      <trkpt lat="42.707480" lon="-0.684756">
        <ele>1137.9</ele>
        <time>2016-06-12T07:27:21Z</time>
      </trkpt>
      <trkpt lat="42.707312" lon="-0.684802">
        <ele>1138.3</ele>
        <time>2016-06-12T07:27:37Z</time>
      </trkpt>
      <trkpt lat="42.707165" lon="-0.684886">
        <ele>1139.8</ele>
        <time>2016-06-12T07:27:54Z</time>
      </trkpt>
      <trkpt lat="42.707019" lon="-0.685029">
        <ele>1140.3</ele>
        <time>2016-06-12T07:28:13Z</time>
      </trkpt>
      <trkpt lat="42.706958" lon="-0.685067">
        <ele>1140.7</ele>
        <time>2016-06-12T07:28:20Z</time>
      </trkpt>
      <trkpt lat="42.706796" lon="-0.685126">
        <ele>1142.2</ele>
        <time>2016-06-12T07:28:38Z</time>
      </trkpt>
      <trkpt lat="42.706664" lon="-0.685147">
        <ele>1143.6</ele>
        <time>2016-06-12T07:28:53Z</time>
      </trkpt>
      <trkpt lat="42.706477" lon="-0.685163">
        <ele>1145.1</ele>
        <time>2016-06-12T07:29:11Z</time>
      </trkpt>
      <trkpt lat="42.706280" lon="-0.685218">
        <ele>1145.6</ele>
        <time>2016-06-12T07:29:29Z</time>
      </trkpt>
      <trkpt lat="42.706099" lon="-0.685212">
        <ele>1145.6</ele>
        <time>2016-06-12T07:29:47Z</time>
      </trkpt>
      <trkpt lat="42.705929" lon="-0.685164">
        <ele>1146.5</ele>
        <time>2016-06-12T07:30:04Z</time>
      </trkpt>
      <trkpt lat="42.705768" lon="-0.685062">
        <ele>1147.5</ele>
        <time>2016-06-12T07:30:22Z</time>
      </trkpt>
      <trkpt lat="42.705658" lon="-0.684949">
        <ele>1148.0</ele>
        <time>2016-06-12T07:30:37Z</time>
      </trkpt>
      <trkpt lat="42.705601" lon="-0.684896">
        <ele>1147.5</ele>
        <time>2016-06-12T07:30:51Z</time>
      </trkpt>
      <trkpt lat="42.705536" lon="-0.684886">
        <ele>1147.0</ele>
        <time>2016-06-12T07:31:04Z</time>
      </trkpt>
      <trkpt lat="42.705587" lon="-0.685025">
        <ele>1148.9</ele>
        <time>2016-06-12T07:31:21Z</time>
      </trkpt>
      <trkpt lat="42.705626" lon="-0.685113">
        <ele>1152.3</ele>
        <time>2016-06-12T07:31:37Z</time>
      </trkpt>
      <trkpt lat="42.705664" lon="-0.685251">
        <ele>1153.7</ele>
        <time>2016-06-12T07:31:53Z</time>
      </trkpt>
      <trkpt lat="42.705676" lon="-0.685341">
        <ele>1156.1</ele>
        <time>2016-06-12T07:32:06Z</time>
      </trkpt>
      <trkpt lat="42.705600" lon="-0.685393">
        <ele>1158.1</ele>
        <time>2016-06-12T07:32:22Z</time>
      </trkpt>
      <trkpt lat="42.705468" lon="-0.685388">
        <ele>1160.9</ele>
        <time>2016-06-12T07:32:41Z</time>
      </trkpt>
      <trkpt lat="42.705365" lon="-0.685401">
        <ele>1162.9</ele>
        <time>2016-06-12T07:32:59Z</time>
      </trkpt>
      <trkpt lat="42.705277" lon="-0.685386">
        <ele>1165.3</ele>
        <time>2016-06-12T07:33:14Z</time>
      </trkpt>
      <trkpt lat="42.705188" lon="-0.685366">
        <ele>1168.1</ele>
        <time>2016-06-12T07:33:30Z</time>
      </trkpt>
      <trkpt lat="42.705100" lon="-0.685368">
        <ele>1169.6</ele>
        <time>2016-06-12T07:33:47Z</time>
      </trkpt>
      <trkpt lat="42.705020" lon="-0.685383">
        <ele>1170.5</ele>
        <time>2016-06-12T07:34:02Z</time>
      </trkpt>
      <trkpt lat="42.704950" lon="-0.685489">
        <ele>1173.0</ele>
        <time>2016-06-12T07:34:21Z</time>
      </trkpt>
      <trkpt lat="42.704918" lon="-0.685609">
        <ele>1176.3</ele>
        <time>2016-06-12T07:34:40Z</time>
      </trkpt>
      <trkpt lat="42.704880" lon="-0.685725">
        <ele>1178.2</ele>
        <time>2016-06-12T07:34:57Z</time>
      </trkpt>
      <trkpt lat="42.704796" lon="-0.685905">
        <ele>1180.2</ele>
        <time>2016-06-12T07:35:18Z</time>
      </trkpt>
      <trkpt lat="42.704803" lon="-0.685993">
        <ele>1180.6</ele>
        <time>2016-06-12T07:35:38Z</time>
      </trkpt>
      <trkpt lat="42.705043" lon="-0.686140">
        <ele>1180.6</ele>
        <time>2016-06-12T07:35:57Z</time>
      </trkpt>
      <trkpt lat="42.705088" lon="-0.686184">
        <ele>1180.6</ele>
        <time>2016-06-12T07:36:02Z</time>
      </trkpt>
      <trkpt lat="42.705317" lon="-0.686282">
        <ele>1180.6</ele>
        <time>2016-06-12T07:36:19Z</time>
      </trkpt>
      <trkpt lat="42.705530" lon="-0.686353">
        <ele>1182.1</ele>
        <time>2016-06-12T07:36:35Z</time>
      </trkpt>
      <trkpt lat="42.705682" lon="-0.686418">
        <ele>1184.0</ele>
        <time>2016-06-12T07:36:48Z</time>
      </trkpt>
      <trkpt lat="42.705822" lon="-0.686452">
        <ele>1185.0</ele>
        <time>2016-06-12T07:36:58Z</time>
      </trkpt>
      <trkpt lat="42.705969" lon="-0.686500">
        <ele>1185.4</ele>
        <time>2016-06-12T07:37:08Z</time>
      </trkpt>
      <trkpt lat="42.706149" lon="-0.686478">
        <ele>1185.9</ele>
        <time>2016-06-12T07:37:22Z</time>
      </trkpt>
      <trkpt lat="42.706361" lon="-0.686460">
        <ele>1185.4</ele>
        <time>2016-06-12T07:37:40Z</time>
      </trkpt>
      <trkpt lat="42.706422" lon="-0.686449">
        <ele>1185.4</ele>
        <time>2016-06-12T07:37:45Z</time>
      </trkpt>
      <trkpt lat="42.706600" lon="-0.686479">
        <ele>1185.9</ele>
        <time>2016-06-12T07:37:58Z</time>
      </trkpt>
      <trkpt lat="42.706904" lon="-0.686564">
        <ele>1185.4</ele>
        <time>2016-06-12T07:38:16Z</time>
      </trkpt>
      <trkpt lat="42.707263" lon="-0.686543">
        <ele>1183.5</ele>
        <time>2016-06-12T07:38:29Z</time>
      </trkpt>
      <trkpt lat="42.707641" lon="-0.686499">
        <ele>1178.7</ele>
        <time>2016-06-12T07:38:42Z</time>
      </trkpt>
      <trkpt lat="42.708056" lon="-0.686655">
        <ele>1175.4</ele>
        <time>2016-06-12T07:38:57Z</time>
      </trkpt>
      <trkpt lat="42.708439" lon="-0.686820">
        <ele>1171.5</ele>
        <time>2016-06-12T07:39:10Z</time>
      </trkpt>
      <trkpt lat="42.708816" lon="-0.686987">
        <ele>1168.1</ele>
        <time>2016-06-12T07:39:24Z</time>
      </trkpt>
      <trkpt lat="42.709073" lon="-0.686993">
        <ele>1167.7</ele>
        <time>2016-06-12T07:39:36Z</time>
      </trkpt>
      <trkpt lat="42.709369" lon="-0.686966">
        <ele>1167.2</ele>
        <time>2016-06-12T07:39:47Z</time>
      </trkpt>
      <trkpt lat="42.709719" lon="-0.686788">
        <ele>1163.8</ele>
        <time>2016-06-12T07:40:00Z</time>
      </trkpt>
      <trkpt lat="42.709824" lon="-0.686730">
        <ele>1162.9</ele>
        <time>2016-06-12T07:40:04Z</time>
      </trkpt>
      <trkpt lat="42.710193" lon="-0.686516">
        <ele>1159.5</ele>
        <time>2016-06-12T07:40:18Z</time>
      </trkpt>
      <trkpt lat="42.710261" lon="-0.686688">
        <ele>1155.2</ele>
        <time>2016-06-12T07:40:26Z</time>
      </trkpt>
      <trkpt lat="42.710029" lon="-0.687085">
        <ele>1147.5</ele>
        <time>2016-06-12T07:40:39Z</time>
      </trkpt>
      <trkpt lat="42.709836" lon="-0.687508">
        <ele>1144.6</ele>
        <time>2016-06-12T07:40:52Z</time>
      </trkpt>
      <trkpt lat="42.709628" lon="-0.687918">
        <ele>1137.4</ele>
        <time>2016-06-12T07:41:04Z</time>
      </trkpt>
      <trkpt lat="42.709649" lon="-0.688068">
        <ele>1134.0</ele>
        <time>2016-06-12T07:41:09Z</time>
      </trkpt>
      <trkpt lat="42.709987" lon="-0.687854">
        <ele>1130.7</ele>
        <time>2016-06-12T07:41:23Z</time>
      </trkpt>
      <trkpt lat="42.710184" lon="-0.687549">
        <ele>1126.3</ele>
        <time>2016-06-12T07:41:32Z</time>
      </trkpt>
      <trkpt lat="42.710262" lon="-0.687472">
        <ele>1124.9</ele>
        <time>2016-06-12T07:41:35Z</time>
      </trkpt>
      <trkpt lat="42.710330" lon="-0.687676">
        <ele>1120.1</ele>
        <time>2016-06-12T07:41:42Z</time>
      </trkpt>
      <trkpt lat="42.710192" lon="-0.688157">
        <ele>1115.3</ele>
        <time>2016-06-12T07:41:54Z</time>
      </trkpt>
      <trkpt lat="42.710064" lon="-0.688405">
        <ele>1113.8</ele>
        <time>2016-06-12T07:42:00Z</time>
      </trkpt>
      <trkpt lat="42.709762" lon="-0.688694">
        <ele>1110.9</ele>
        <time>2016-06-12T07:42:13Z</time>
      </trkpt>
      <trkpt lat="42.709672" lon="-0.688732">
        <ele>1109.5</ele>
        <time>2016-06-12T07:42:17Z</time>
      </trkpt>
      <trkpt lat="42.709718" lon="-0.688884">
        <ele>1105.7</ele>
        <time>2016-06-12T07:42:25Z</time>
      </trkpt>
      <trkpt lat="42.710072" lon="-0.688892">
        <ele>1100.4</ele>
        <time>2016-06-12T07:42:36Z</time>
      </trkpt>
      <trkpt lat="42.710319" lon="-0.688619">
        <ele>1097.5</ele>
        <time>2016-06-12T07:42:47Z</time>
      </trkpt>
      <trkpt lat="42.710403" lon="-0.688770">
        <ele>1094.6</ele>
        <time>2016-06-12T07:42:55Z</time>
      </trkpt>
      <trkpt lat="42.710254" lon="-0.689069">
        <ele>1088.8</ele>
        <time>2016-06-12T07:43:04Z</time>
      </trkpt>
      <trkpt lat="42.709834" lon="-0.689315">
        <ele>1086.0</ele>
        <time>2016-06-12T07:43:18Z</time>
      </trkpt>
      <trkpt lat="42.709507" lon="-0.689331">
        <ele>1081.6</ele>
        <time>2016-06-12T07:43:30Z</time>
      </trkpt>
      <trkpt lat="42.709242" lon="-0.689272">
        <ele>1079.2</ele>
        <time>2016-06-12T07:43:39Z</time>
      </trkpt>
      <trkpt lat="42.708854" lon="-0.689011">
        <ele>1072.5</ele>
        <time>2016-06-12T07:43:53Z</time>
      </trkpt>
      <trkpt lat="42.708587" lon="-0.688908">
        <ele>1070.1</ele>
        <time>2016-06-12T07:44:02Z</time>
      </trkpt>
      <trkpt lat="42.708542" lon="-0.688946">
        <ele>1070.1</ele>
        <time>2016-06-12T07:44:04Z</time>
      </trkpt>
      <trkpt lat="42.708841" lon="-0.689258">
        <ele>1066.7</ele>
        <time>2016-06-12T07:44:18Z</time>
      </trkpt>
      <trkpt lat="42.709211" lon="-0.689755">
        <ele>1065.8</ele>
        <time>2016-06-12T07:44:32Z</time>
      </trkpt>
      <trkpt lat="42.709536" lon="-0.689917">
        <ele>1063.4</ele>
        <time>2016-06-12T07:44:42Z</time>
      </trkpt>
      <trkpt lat="42.709700" lon="-0.689981">
        <ele>1061.9</ele>
        <time>2016-06-12T07:44:47Z</time>
      </trkpt>
      <trkpt lat="42.709921" lon="-0.690158">
        <ele>1060.0</ele>
        <time>2016-06-12T07:45:01Z</time>
      </trkpt>
      <trkpt lat="42.710133" lon="-0.690192">
        <ele>1058.6</ele>
        <time>2016-06-12T07:45:11Z</time>
      </trkpt>
      <trkpt lat="42.710554" lon="-0.690264">
        <ele>1049.4</ele>
        <time>2016-06-12T07:45:24Z</time>
      </trkpt>
      <trkpt lat="42.710735" lon="-0.690094">
        <ele>1045.6</ele>
        <time>2016-06-12T07:45:31Z</time>
      </trkpt>
      <trkpt lat="42.710811" lon="-0.690238">
        <ele>1042.2</ele>
        <time>2016-06-12T07:45:38Z</time>
      </trkpt>
      <trkpt lat="42.710597" lon="-0.690555">
        <ele>1036.0</ele>
        <time>2016-06-12T07:45:49Z</time>
      </trkpt>
      <trkpt lat="42.710282" lon="-0.690614">
        <ele>1034.0</ele>
        <time>2016-06-12T07:45:59Z</time>
      </trkpt>
      <trkpt lat="42.709778" lon="-0.690662">
        <ele>1030.2</ele>
        <time>2016-06-12T07:46:12Z</time>
      </trkpt>
      <trkpt lat="42.709366" lon="-0.690620">
        <ele>1023.5</ele>
        <time>2016-06-12T07:46:23Z</time>
      </trkpt>
      <trkpt lat="42.709103" lon="-0.690595">
        <ele>1019.1</ele>
        <time>2016-06-12T07:46:30Z</time>
      </trkpt>
      <trkpt lat="42.709154" lon="-0.690774">
        <ele>1014.3</ele>
        <time>2016-06-12T07:46:38Z</time>
      </trkpt>
      <trkpt lat="42.709329" lon="-0.690817">
        <ele>1011.9</ele>
        <time>2016-06-12T07:46:43Z</time>
      </trkpt>
      <trkpt lat="42.709588" lon="-0.690924">
        <ele>1010.0</ele>
        <time>2016-06-12T07:46:51Z</time>
      </trkpt>
      <trkpt lat="42.709730" lon="-0.691023">
        <ele>1010.0</ele>
        <time>2016-06-12T07:46:55Z</time>
      </trkpt>
      <trkpt lat="42.710000" lon="-0.691110">
        <ele>1008.1</ele>
        <time>2016-06-12T07:47:02Z</time>
      </trkpt>
      <trkpt lat="42.710429" lon="-0.691340">
        <ele>1005.2</ele>
        <time>2016-06-12T07:47:15Z</time>
      </trkpt>
      <trkpt lat="42.710725" lon="-0.691358">
        <ele>1001.8</ele>
        <time>2016-06-12T07:47:24Z</time>
      </trkpt>
      <trkpt lat="42.710974" lon="-0.691137">
        <ele>997.5</ele>
        <time>2016-06-12T07:47:32Z</time>
      </trkpt>
      <trkpt lat="42.711051" lon="-0.691095">
        <ele>996.5</ele>
        <time>2016-06-12T07:47:34Z</time>
      </trkpt>
      <trkpt lat="42.711129" lon="-0.691048">
        <ele>995.1</ele>
        <time>2016-06-12T07:47:36Z</time>
      </trkpt>
      <trkpt lat="42.711212" lon="-0.691005">
        <ele>993.7</ele>
        <time>2016-06-12T07:47:38Z</time>
      </trkpt>
      <trkpt lat="42.711596" lon="-0.690933">
        <ele>989.8</ele>
        <time>2016-06-12T07:47:48Z</time>
      </trkpt>
      <trkpt lat="42.711640" lon="-0.691121">
        <ele>986.9</ele>
        <time>2016-06-12T07:47:56Z</time>
      </trkpt>
      <trkpt lat="42.711377" lon="-0.691543">
        <ele>979.7</ele>
        <time>2016-06-12T07:48:08Z</time>
      </trkpt>
      <trkpt lat="42.711247" lon="-0.691871">
        <ele>974.4</ele>
        <time>2016-06-12T07:48:15Z</time>
      </trkpt>
      <trkpt lat="42.711149" lon="-0.692048">
        <ele>971.6</ele>
        <time>2016-06-12T07:48:19Z</time>
      </trkpt>
      <trkpt lat="42.711077" lon="-0.692206">
        <ele>969.2</ele>
        <time>2016-06-12T07:48:22Z</time>
      </trkpt>
      <trkpt lat="42.710928" lon="-0.692545">
        <ele>963.9</ele>
        <time>2016-06-12T07:48:29Z</time>
      </trkpt>
      <trkpt lat="42.710802" lon="-0.693125">
        <ele>960.0</ele>
        <time>2016-06-12T07:48:41Z</time>
      </trkpt>
      <trkpt lat="42.710725" lon="-0.693319">
        <ele>958.6</ele>
        <time>2016-06-12T07:48:45Z</time>
      </trkpt>
      <trkpt lat="42.710642" lon="-0.693687">
        <ele>955.7</ele>
        <time>2016-06-12T07:48:52Z</time>
      </trkpt>
      <trkpt lat="42.710701" lon="-0.694098">
        <ele>951.4</ele>
        <time>2016-06-12T07:48:59Z</time>
      </trkpt>
      <trkpt lat="42.710683" lon="-0.694315">
        <ele>949.0</ele>
        <time>2016-06-12T07:49:03Z</time>
      </trkpt>
      <trkpt lat="42.710611" lon="-0.694748">
        <ele>940.8</ele>
        <time>2016-06-12T07:49:10Z</time>
      </trkpt>
      <trkpt lat="42.710607" lon="-0.694878">
        <ele>938.4</ele>
        <time>2016-06-12T07:49:12Z</time>
      </trkpt>
      <trkpt lat="42.710591" lon="-0.695003">
        <ele>936.5</ele>
        <time>2016-06-12T07:49:14Z</time>
      </trkpt>
      <trkpt lat="42.710571" lon="-0.695302">
        <ele>932.6</ele>
        <time>2016-06-12T07:49:19Z</time>
      </trkpt>
      <trkpt lat="42.710589" lon="-0.695567">
        <ele>929.3</ele>
        <time>2016-06-12T07:49:24Z</time>
      </trkpt>
      <trkpt lat="42.710631" lon="-0.695665">
        <ele>928.3</ele>
        <time>2016-06-12T07:49:26Z</time>
      </trkpt>
      <trkpt lat="42.710697" lon="-0.695846">
        <ele>926.4</ele>
        <time>2016-06-12T07:49:30Z</time>
      </trkpt>
      <trkpt lat="42.710762" lon="-0.696409">
        <ele>921.6</ele>
        <time>2016-06-12T07:49:41Z</time>
      </trkpt>
      <trkpt lat="42.710791" lon="-0.696771">
        <ele>920.1</ele>
        <time>2016-06-12T07:49:48Z</time>
      </trkpt>
      <trkpt lat="42.710807" lon="-0.696851">
        <ele>921.1</ele>
        <time>2016-06-12T07:49:50Z</time>
      </trkpt>
      <trkpt lat="42.710789" lon="-0.697056">
        <ele>920.6</ele>
        <time>2016-06-12T07:49:55Z</time>
      </trkpt>
      <trkpt lat="42.710689" lon="-0.697582">
        <ele>917.2</ele>
        <time>2016-06-12T07:50:06Z</time>
      </trkpt>
      <trkpt lat="42.710773" lon="-0.698001">
        <ele>917.2</ele>
        <time>2016-06-12T07:50:16Z</time>
      </trkpt>
      <trkpt lat="42.710898" lon="-0.698447">
        <ele>912.9</ele>
        <time>2016-06-12T07:50:28Z</time>
      </trkpt>
      <trkpt lat="42.711042" lon="-0.699058">
        <ele>907.1</ele>
        <time>2016-06-12T07:50:41Z</time>
      </trkpt>
      <trkpt lat="42.711130" lon="-0.699754">
        <ele>902.8</ele>
        <time>2016-06-12T07:50:54Z</time>
      </trkpt>
      <trkpt lat="42.711098" lon="-0.700581">
        <ele>901.4</ele>
        <time>2016-06-12T07:51:08Z</time>
      </trkpt>
      <trkpt lat="42.710916" lon="-0.701490">
        <ele>897.5</ele>
        <time>2016-06-12T07:51:23Z</time>
      </trkpt>
      <trkpt lat="42.710843" lon="-0.701724">
        <ele>895.6</ele>
        <time>2016-06-12T07:51:28Z</time>
      </trkpt>
      <trkpt lat="42.710773" lon="-0.701927">
        <ele>893.2</ele>
        <time>2016-06-12T07:51:32Z</time>
      </trkpt>
      <trkpt lat="42.710588" lon="-0.702311">
        <ele>889.4</ele>
        <time>2016-06-12T07:51:42Z</time>
      </trkpt>
      <trkpt lat="42.710567" lon="-0.702428">
        <ele>887.9</ele>
        <time>2016-06-12T07:51:48Z</time>
      </trkpt>
      <trkpt lat="42.710604" lon="-0.702606">
        <ele>888.4</ele>
        <time>2016-06-12T07:51:54Z</time>
      </trkpt>
      <trkpt lat="42.710556" lon="-0.702715">
        <ele>888.9</ele>
        <time>2016-06-12T07:51:58Z</time>
      </trkpt>
      <trkpt lat="42.710456" lon="-0.702862">
        <ele>888.4</ele>
        <time>2016-06-12T07:52:10Z</time>
      </trkpt>
      <trkpt lat="42.710308" lon="-0.703089">
        <ele>889.8</ele>
        <time>2016-06-12T07:52:46Z</time>
      </trkpt>
      <trkpt lat="42.709883" lon="-0.703632">
        <ele>888.9</ele>
        <time>2016-06-12T07:53:04Z</time>
      </trkpt>
      <trkpt lat="42.709542" lon="-0.703922">
        <ele>887.0</ele>
        <time>2016-06-12T07:53:16Z</time>
      </trkpt>
      <trkpt lat="42.709294" lon="-0.704152">
        <ele>883.6</ele>
        <time>2016-06-12T07:53:21Z</time>
      </trkpt>
      <trkpt lat="42.709188" lon="-0.704286">
        <ele>882.6</ele>
        <time>2016-06-12T07:53:23Z</time>
      </trkpt>
      <trkpt lat="42.709023" lon="-0.704455">
        <ele>881.7</ele>
        <time>2016-06-12T07:53:26Z</time>
      </trkpt>
      <trkpt lat="42.708836" lon="-0.704562">
        <ele>881.2</ele>
        <time>2016-06-12T07:53:30Z</time>
      </trkpt>
      <trkpt lat="42.708565" lon="-0.704699">
        <ele>877.8</ele>
        <time>2016-06-12T07:53:36Z</time>
      </trkpt>
      <trkpt lat="42.708213" lon="-0.705117">
        <ele>872.5</ele>
        <time>2016-06-12T07:53:49Z</time>
      </trkpt>
      <trkpt lat="42.708150" lon="-0.705174">
        <ele>871.1</ele>
        <time>2016-06-12T07:53:59Z</time>
      </trkpt>
      <trkpt lat="42.708111" lon="-0.705233">
        <ele>870.1</ele>
        <time>2016-06-12T07:54:11Z</time>
      </trkpt>
      <trkpt lat="42.708061" lon="-0.705275">
        <ele>869.7</ele>
        <time>2016-06-12T07:54:16Z</time>
      </trkpt>
      <trkpt lat="42.707851" lon="-0.705341">
        <ele>871.1</ele>
        <time>2016-06-12T07:54:30Z</time>
      </trkpt>
      <trkpt lat="42.707735" lon="-0.705670">
        <ele>874.0</ele>
        <time>2016-06-12T07:54:43Z</time>
      </trkpt>
      <trkpt lat="42.707459" lon="-0.706163">
        <ele>872.5</ele>
        <time>2016-06-12T07:54:56Z</time>
      </trkpt>
      <trkpt lat="42.707413" lon="-0.706233">
        <ele>872.5</ele>
        <time>2016-06-12T07:54:58Z</time>
      </trkpt>
      <trkpt lat="42.706968" lon="-0.706781">
        <ele>869.7</ele>
        <time>2016-06-12T07:55:12Z</time>
      </trkpt>
      <trkpt lat="42.706762" lon="-0.707015">
        <ele>867.3</ele>
        <time>2016-06-12T07:55:17Z</time>
      </trkpt>
      <trkpt lat="42.706633" lon="-0.707195">
        <ele>865.8</ele>
        <time>2016-06-12T07:55:20Z</time>
      </trkpt>
      <trkpt lat="42.705967" lon="-0.707856">
        <ele>862.4</ele>
        <time>2016-06-12T07:55:35Z</time>
      </trkpt>
      <trkpt lat="42.705923" lon="-0.707899">
        <ele>862.0</ele>
        <time>2016-06-12T07:55:36Z</time>
      </trkpt>
      <trkpt lat="42.705833" lon="-0.707980">
        <ele>862.0</ele>
        <time>2016-06-12T07:55:38Z</time>
      </trkpt>
      <trkpt lat="42.705655" lon="-0.708128">
        <ele>860.5</ele>
        <time>2016-06-12T07:55:42Z</time>
      </trkpt>
      <trkpt lat="42.705508" lon="-0.708290">
        <ele>859.1</ele>
        <time>2016-06-12T07:55:46Z</time>
      </trkpt>
      <trkpt lat="42.705068" lon="-0.708444">
        <ele>856.7</ele>
        <time>2016-06-12T07:55:59Z</time>
      </trkpt>
      <trkpt lat="42.704826" lon="-0.708617">
        <ele>855.2</ele>
        <time>2016-06-12T07:56:10Z</time>
      </trkpt>
      <trkpt lat="42.704564" lon="-0.709028">
        <ele>853.3</ele>
        <time>2016-06-12T07:56:23Z</time>
      </trkpt>
      <trkpt lat="42.704348" lon="-0.709216">
        <ele>851.9</ele>
        <time>2016-06-12T07:56:33Z</time>
      </trkpt>
      <trkpt lat="42.704037" lon="-0.709273">
        <ele>851.9</ele>
        <time>2016-06-12T07:56:45Z</time>
      </trkpt>
      <trkpt lat="42.703707" lon="-0.709383">
        <ele>851.9</ele>
        <time>2016-06-12T07:56:58Z</time>
      </trkpt>
      <trkpt lat="42.703443" lon="-0.709578">
        <ele>850.9</ele>
        <time>2016-06-12T07:57:10Z</time>
      </trkpt>
      <trkpt lat="42.703267" lon="-0.709898">
        <ele>851.4</ele>
        <time>2016-06-12T07:57:23Z</time>
      </trkpt>
      <trkpt lat="42.703119" lon="-0.710383">
        <ele>849.0</ele>
        <time>2016-06-12T07:57:36Z</time>
      </trkpt>
      <trkpt lat="42.702972" lon="-0.710794">
        <ele>848.5</ele>
        <time>2016-06-12T07:57:49Z</time>
      </trkpt>
      <trkpt lat="42.702770" lon="-0.711045">
        <ele>845.6</ele>
        <time>2016-06-12T07:57:59Z</time>
      </trkpt>
      <trkpt lat="42.702622" lon="-0.711046">
        <ele>846.1</ele>
        <time>2016-06-12T07:58:06Z</time>
      </trkpt>
      <trkpt lat="42.702468" lon="-0.711090">
        <ele>846.6</ele>
        <time>2016-06-12T07:58:14Z</time>
      </trkpt>
      <trkpt lat="42.702246" lon="-0.711289">
        <ele>844.7</ele>
        <time>2016-06-12T07:58:27Z</time>
      </trkpt>
      <trkpt lat="42.702183" lon="-0.711378">
        <ele>843.7</ele>
        <time>2016-06-12T07:58:31Z</time>
      </trkpt>
      <trkpt lat="42.701925" lon="-0.711511">
        <ele>842.7</ele>
        <time>2016-06-12T07:58:43Z</time>
      </trkpt>
      <trkpt lat="42.701485" lon="-0.711722">
        <ele>840.3</ele>
        <time>2016-06-12T07:58:57Z</time>
      </trkpt>
      <trkpt lat="42.701431" lon="-0.711726">
        <ele>840.3</ele>
        <time>2016-06-12T07:58:59Z</time>
      </trkpt>
      <trkpt lat="42.701273" lon="-0.712020">
        <ele>839.4</ele>
        <time>2016-06-12T07:59:10Z</time>
      </trkpt>
      <trkpt lat="42.701159" lon="-0.712375">
        <ele>838.4</ele>
        <time>2016-06-12T07:59:22Z</time>
      </trkpt>
      <trkpt lat="42.700962" lon="-0.712693">
        <ele>838.4</ele>
        <time>2016-06-12T07:59:35Z</time>
      </trkpt>
      <trkpt lat="42.700632" lon="-0.713001">
        <ele>835.5</ele>
        <time>2016-06-12T07:59:49Z</time>
      </trkpt>
      <trkpt lat="42.700293" lon="-0.713200">
        <ele>833.6</ele>
        <time>2016-06-12T07:59:59Z</time>
      </trkpt>
      <trkpt lat="42.699811" lon="-0.713547">
        <ele>828.8</ele>
        <time>2016-06-12T08:00:13Z</time>
      </trkpt>
      <trkpt lat="42.699478" lon="-0.713705">
        <ele>826.4</ele>
        <time>2016-06-12T08:00:25Z</time>
      </trkpt>
      <trkpt lat="42.699213" lon="-0.713810">
        <ele>827.8</ele>
        <time>2016-06-12T08:00:36Z</time>
      </trkpt>
      <trkpt lat="42.698921" lon="-0.713912">
        <ele>828.3</ele>
        <time>2016-06-12T08:00:48Z</time>
      </trkpt>
      <trkpt lat="42.698570" lon="-0.713868">
        <ele>827.4</ele>
        <time>2016-06-12T08:01:00Z</time>
      </trkpt>
      <trkpt lat="42.698299" lon="-0.713967">
        <ele>826.9</ele>
        <time>2016-06-12T08:01:12Z</time>
      </trkpt>
      <trkpt lat="42.698030" lon="-0.714178">
        <ele>825.9</ele>
        <time>2016-06-12T08:01:24Z</time>
      </trkpt>
      <trkpt lat="42.697965" lon="-0.714663">
        <ele>825.0</ele>
        <time>2016-06-12T08:01:37Z</time>
      </trkpt>
      <trkpt lat="42.698187" lon="-0.714807">
        <ele>826.9</ele>
        <time>2016-06-12T08:01:48Z</time>
      </trkpt>
      <trkpt lat="42.698592" lon="-0.714763">
        <ele>829.3</ele>
        <time>2016-06-12T08:02:04Z</time>
      </trkpt>
      <trkpt lat="42.698999" lon="-0.714772">
        <ele>832.6</ele>
        <time>2016-06-12T08:02:21Z</time>
      </trkpt>
      <trkpt lat="42.699407" lon="-0.714889">
        <ele>834.1</ele>
        <time>2016-06-12T08:02:39Z</time>
      </trkpt>
      <trkpt lat="42.699715" lon="-0.714989">
        <ele>837.0</ele>
        <time>2016-06-12T08:02:54Z</time>
      </trkpt>
      <trkpt lat="42.700084" lon="-0.715195">
        <ele>838.9</ele>
        <time>2016-06-12T08:03:13Z</time>
      </trkpt>
      <trkpt lat="42.700415" lon="-0.715399">
        <ele>841.8</ele>
        <time>2016-06-12T08:03:30Z</time>
      </trkpt>
      <trkpt lat="42.700781" lon="-0.715432">
        <ele>842.3</ele>
        <time>2016-06-12T08:03:46Z</time>
      </trkpt>
      <trkpt lat="42.701136" lon="-0.715410">
        <ele>842.3</ele>
        <time>2016-06-12T08:04:02Z</time>
      </trkpt>
      <trkpt lat="42.701499" lon="-0.715438">
        <ele>844.7</ele>
        <time>2016-06-12T08:04:19Z</time>
      </trkpt>
      <trkpt lat="42.701913" lon="-0.715391">
        <ele>846.6</ele>
        <time>2016-06-12T08:04:38Z</time>
      </trkpt>
      <trkpt lat="42.702236" lon="-0.715588">
        <ele>847.1</ele>
        <time>2016-06-12T08:04:54Z</time>
      </trkpt>
      <trkpt lat="42.702607" lon="-0.715888">
        <ele>847.5</ele>
        <time>2016-06-12T08:05:13Z</time>
      </trkpt>
      <trkpt lat="42.702993" lon="-0.716013">
        <ele>849.5</ele>
        <time>2016-06-12T08:05:31Z</time>
      </trkpt>
      <trkpt lat="42.703211" lon="-0.716110">
        <ele>849.9</ele>
        <time>2016-06-12T08:05:42Z</time>
      </trkpt>
      <trkpt lat="42.703602" lon="-0.716137">
        <ele>852.4</ele>
        <time>2016-06-12T08:06:00Z</time>
      </trkpt>
      <trkpt lat="42.703983" lon="-0.716178">
        <ele>856.2</ele>
        <time>2016-06-12T08:06:18Z</time>
      </trkpt>
      <trkpt lat="42.704310" lon="-0.716216">
        <ele>860.0</ele>
        <time>2016-06-12T08:06:35Z</time>
      </trkpt>
      <trkpt lat="42.704681" lon="-0.716146">
        <ele>859.6</ele>
        <time>2016-06-12T08:06:52Z</time>
      </trkpt>
      <trkpt lat="42.705014" lon="-0.715993">
        <ele>861.0</ele>
        <time>2016-06-12T08:07:07Z</time>
      </trkpt>
      <trkpt lat="42.705455" lon="-0.715831">
        <ele>861.5</ele>
        <time>2016-06-12T08:07:26Z</time>
      </trkpt>
      <trkpt lat="42.705910" lon="-0.715614">
        <ele>864.8</ele>
        <time>2016-06-12T08:07:46Z</time>
      </trkpt>
      <trkpt lat="42.706334" lon="-0.715413">
        <ele>866.8</ele>
        <time>2016-06-12T08:08:05Z</time>
      </trkpt>
      <trkpt lat="42.706820" lon="-0.715256">
        <ele>866.8</ele>
        <time>2016-06-12T08:08:25Z</time>
      </trkpt>
      <trkpt lat="42.707331" lon="-0.715069">
        <ele>868.7</ele>
        <time>2016-06-12T08:08:46Z</time>
      </trkpt>
      <trkpt lat="42.707841" lon="-0.714898">
        <ele>869.7</ele>
        <time>2016-06-12T08:09:07Z</time>
      </trkpt>
      <trkpt lat="42.708207" lon="-0.714755">
        <ele>871.1</ele>
        <time>2016-06-12T08:09:23Z</time>
      </trkpt>
      <trkpt lat="42.708591" lon="-0.714616">
        <ele>874.0</ele>
        <time>2016-06-12T08:09:40Z</time>
      </trkpt>
      <trkpt lat="42.708936" lon="-0.714497">
        <ele>875.9</ele>
        <time>2016-06-12T08:09:56Z</time>
      </trkpt>
      <trkpt lat="42.709396" lon="-0.714386">
        <ele>877.8</ele>
        <time>2016-06-12T08:10:17Z</time>
      </trkpt>
      <trkpt lat="42.709736" lon="-0.714340">
        <ele>877.8</ele>
        <time>2016-06-12T08:10:33Z</time>
      </trkpt>
      <trkpt lat="42.710071" lon="-0.714274">
        <ele>880.7</ele>
        <time>2016-06-12T08:10:49Z</time>
      </trkpt>
      <trkpt lat="42.710421" lon="-0.714173">
        <ele>883.6</ele>
        <time>2016-06-12T08:11:06Z</time>
      </trkpt>
      <trkpt lat="42.710777" lon="-0.714198">
        <ele>886.0</ele>
        <time>2016-06-12T08:11:23Z</time>
      </trkpt>
      <trkpt lat="42.711180" lon="-0.714329">
        <ele>888.4</ele>
        <time>2016-06-12T08:11:42Z</time>
      </trkpt>
      <trkpt lat="42.711395" lon="-0.714623">
        <ele>889.4</ele>
        <time>2016-06-12T08:11:58Z</time>
      </trkpt>
      <trkpt lat="42.711443" lon="-0.714668">
        <ele>892.2</ele>
        <time>2016-06-12T08:12:18Z</time>
      </trkpt>
      <trkpt lat="42.711558" lon="-0.714723">
        <ele>899.9</ele>
        <time>2016-06-12T08:28:06Z</time>
      </trkpt>
      <trkpt lat="42.711660" lon="-0.714800">
        <ele>898.5</ele>
        <time>2016-06-12T08:28:13Z</time>
      </trkpt>
      <trkpt lat="42.711776" lon="-0.714882">
        <ele>895.1</ele>
        <time>2016-06-12T08:28:21Z</time>
      </trkpt>
      <trkpt lat="42.711873" lon="-0.714905">
        <ele>894.6</ele>
        <time>2016-06-12T08:28:28Z</time>
      </trkpt>
      <trkpt lat="42.711947" lon="-0.714930">
        <ele>894.6</ele>
        <time>2016-06-12T08:28:33Z</time>
      </trkpt>
      <trkpt lat="42.712129" lon="-0.715228">
        <ele>896.6</ele>
        <time>2016-06-12T08:28:48Z</time>
      </trkpt>
      <trkpt lat="42.712181" lon="-0.715383">
        <ele>895.6</ele>
        <time>2016-06-12T08:28:54Z</time>
      </trkpt>
      <trkpt lat="42.712293" lon="-0.715646">
        <ele>895.6</ele>
        <time>2016-06-12T08:29:28Z</time>
      </trkpt>
      <trkpt lat="42.712644" lon="-0.715848">
        <ele>895.1</ele>
        <time>2016-06-12T08:29:40Z</time>
      </trkpt>
      <trkpt lat="42.712690" lon="-0.715928">
        <ele>895.6</ele>
        <time>2016-06-12T08:29:45Z</time>
      </trkpt>
      <trkpt lat="42.712772" lon="-0.716166">
        <ele>896.6</ele>
        <time>2016-06-12T08:29:59Z</time>
      </trkpt>
      <trkpt lat="42.712855" lon="-0.716421">
        <ele>898.5</ele>
        <time>2016-06-12T08:30:15Z</time>
      </trkpt>
      <trkpt lat="42.712870" lon="-0.716505">
        <ele>899.0</ele>
        <time>2016-06-12T08:30:20Z</time>
      </trkpt>
      <trkpt lat="42.712914" lon="-0.716578">
        <ele>898.5</ele>
        <time>2016-06-12T08:30:25Z</time>
      </trkpt>
      <trkpt lat="42.713026" lon="-0.716859">
        <ele>901.9</ele>
        <time>2016-06-12T08:30:43Z</time>
      </trkpt>
      <trkpt lat="42.713077" lon="-0.716936">
        <ele>904.3</ele>
        <time>2016-06-12T08:30:49Z</time>
      </trkpt>
      <trkpt lat="42.713131" lon="-0.717042">
        <ele>906.2</ele>
        <time>2016-06-12T08:30:56Z</time>
      </trkpt>
      <trkpt lat="42.713252" lon="-0.717287">
        <ele>907.6</ele>
        <time>2016-06-12T08:31:11Z</time>
      </trkpt>
      <trkpt lat="42.713388" lon="-0.717574">
        <ele>908.6</ele>
        <time>2016-06-12T08:31:29Z</time>
      </trkpt>
      <trkpt lat="42.713626" lon="-0.717844">
        <ele>911.5</ele>
        <time>2016-06-12T08:31:50Z</time>
      </trkpt>
      <trkpt lat="42.713815" lon="-0.717913">
        <ele>912.0</ele>
        <time>2016-06-12T08:32:03Z</time>
      </trkpt>
      <trkpt lat="42.714118" lon="-0.717974">
        <ele>912.4</ele>
        <time>2016-06-12T08:32:22Z</time>
      </trkpt>
      <trkpt lat="42.714375" lon="-0.718135">
        <ele>912.0</ele>
        <time>2016-06-12T08:32:36Z</time>
      </trkpt>
      <trkpt lat="42.714637" lon="-0.718378">
        <ele>912.9</ele>
        <time>2016-06-12T08:32:55Z</time>
      </trkpt>
      <trkpt lat="42.714824" lon="-0.718615">
        <ele>913.9</ele>
        <time>2016-06-12T08:33:11Z</time>
      </trkpt>
      <trkpt lat="42.714992" lon="-0.718841">
        <ele>916.3</ele>
        <time>2016-06-12T08:33:26Z</time>
      </trkpt>
      <trkpt lat="42.715253" lon="-0.719202">
        <ele>918.7</ele>
        <time>2016-06-12T08:33:50Z</time>
      </trkpt>
      <trkpt lat="42.715450" lon="-0.719454">
        <ele>921.1</ele>
        <time>2016-06-12T08:34:07Z</time>
      </trkpt>
      <trkpt lat="42.715598" lon="-0.719720">
        <ele>923.0</ele>
        <time>2016-06-12T08:34:23Z</time>
      </trkpt>
      <trkpt lat="42.715824" lon="-0.719888">
        <ele>924.0</ele>
        <time>2016-06-12T08:34:39Z</time>
      </trkpt>
      <trkpt lat="42.716025" lon="-0.720059">
        <ele>926.4</ele>
        <time>2016-06-12T08:34:54Z</time>
      </trkpt>
      <trkpt lat="42.716311" lon="-0.720169">
        <ele>928.3</ele>
        <time>2016-06-12T08:35:12Z</time>
      </trkpt>
      <trkpt lat="42.716643" lon="-0.720224">
        <ele>928.8</ele>
        <time>2016-06-12T08:35:32Z</time>
      </trkpt>
      <trkpt lat="42.716872" lon="-0.720450">
        <ele>929.7</ele>
        <time>2016-06-12T08:35:49Z</time>
      </trkpt>
      <trkpt lat="42.716805" lon="-0.720504">
        <ele>930.2</ele>
        <time>2016-06-12T08:35:57Z</time>
      </trkpt>
      <trkpt lat="42.716557" lon="-0.720448">
        <ele>933.6</ele>
        <time>2016-06-12T08:36:14Z</time>
      </trkpt>
      <trkpt lat="42.716332" lon="-0.720427">
        <ele>936.5</ele>
        <time>2016-06-12T08:36:31Z</time>
      </trkpt>
      <trkpt lat="42.716091" lon="-0.720383">
        <ele>938.4</ele>
        <time>2016-06-12T08:36:48Z</time>
      </trkpt>
      <trkpt lat="42.715891" lon="-0.720307">
        <ele>940.8</ele>
        <time>2016-06-12T08:37:03Z</time>
      </trkpt>
      <trkpt lat="42.715579" lon="-0.720299">
        <ele>944.6</ele>
        <time>2016-06-12T08:37:24Z</time>
      </trkpt>
      <trkpt lat="42.715493" lon="-0.720289">
        <ele>945.1</ele>
        <time>2016-06-12T08:37:30Z</time>
      </trkpt>
      <trkpt lat="42.715396" lon="-0.720385">
        <ele>945.1</ele>
        <time>2016-06-12T08:37:38Z</time>
      </trkpt>
      <trkpt lat="42.715283" lon="-0.720492">
        <ele>947.0</ele>
        <time>2016-06-12T08:37:53Z</time>
      </trkpt>
      <trkpt lat="42.715247" lon="-0.720592">
        <ele>949.9</ele>
        <time>2016-06-12T08:38:08Z</time>
      </trkpt>
      <trkpt lat="42.715193" lon="-0.720757">
        <ele>953.3</ele>
        <time>2016-06-12T08:38:26Z</time>
      </trkpt>
      <trkpt lat="42.715127" lon="-0.720906">
        <ele>954.7</ele>
        <time>2016-06-12T08:38:45Z</time>
      </trkpt>
      <trkpt lat="42.715102" lon="-0.721046">
        <ele>957.6</ele>
        <time>2016-06-12T08:39:01Z</time>
      </trkpt>
      <trkpt lat="42.715004" lon="-0.721214">
        <ele>960.5</ele>
        <time>2016-06-12T08:39:20Z</time>
      </trkpt>
      <trkpt lat="42.714909" lon="-0.721355">
        <ele>963.4</ele>
        <time>2016-06-12T08:39:37Z</time>
      </trkpt>
      <trkpt lat="42.714786" lon="-0.721489">
        <ele>966.7</ele>
        <time>2016-06-12T08:39:57Z</time>
      </trkpt>
      <trkpt lat="42.714827" lon="-0.721524">
        <ele>968.7</ele>
        <time>2016-06-12T08:40:10Z</time>
      </trkpt>
      <trkpt lat="42.714940" lon="-0.721520">
        <ele>971.1</ele>
        <time>2016-06-12T08:40:27Z</time>
      </trkpt>
      <trkpt lat="42.715044" lon="-0.721528">
        <ele>971.6</ele>
        <time>2016-06-12T08:40:43Z</time>
      </trkpt>
      <trkpt lat="42.715162" lon="-0.721553">
        <ele>971.6</ele>
        <time>2016-06-12T08:41:00Z</time>
      </trkpt>
      <trkpt lat="42.715235" lon="-0.721631">
        <ele>971.6</ele>
        <time>2016-06-12T08:41:11Z</time>
      </trkpt>
      <trkpt lat="42.715326" lon="-0.721809">
        <ele>973.0</ele>
        <time>2016-06-12T08:41:28Z</time>
      </trkpt>
      <trkpt lat="42.715433" lon="-0.721977">
        <ele>975.4</ele>
        <time>2016-06-12T08:41:45Z</time>
      </trkpt>
      <trkpt lat="42.715580" lon="-0.722037">
        <ele>979.7</ele>
        <time>2016-06-12T08:42:04Z</time>
      </trkpt>
      <trkpt lat="42.715753" lon="-0.722073">
        <ele>977.8</ele>
        <time>2016-06-12T08:42:23Z</time>
      </trkpt>
      <trkpt lat="42.715945" lon="-0.722141">
        <ele>979.7</ele>
        <time>2016-06-12T08:42:47Z</time>
      </trkpt>
      <trkpt lat="42.716072" lon="-0.722212">
        <ele>981.6</ele>
        <time>2016-06-12T08:43:07Z</time>
      </trkpt>
      <trkpt lat="42.716180" lon="-0.722286">
        <ele>983.1</ele>
        <time>2016-06-12T08:43:29Z</time>
      </trkpt>
      <trkpt lat="42.716294" lon="-0.722380">
        <ele>984.1</ele>
        <time>2016-06-12T08:43:45Z</time>
      </trkpt>
      <trkpt lat="42.716410" lon="-0.722464">
        <ele>987.9</ele>
        <time>2016-06-12T08:44:03Z</time>
      </trkpt>
      <trkpt lat="42.716505" lon="-0.722518">
        <ele>990.3</ele>
        <time>2016-06-12T08:44:19Z</time>
      </trkpt>
      <trkpt lat="42.716617" lon="-0.722579">
        <ele>992.2</ele>
        <time>2016-06-12T08:44:36Z</time>
      </trkpt>
      <trkpt lat="42.716701" lon="-0.722681">
        <ele>994.1</ele>
        <time>2016-06-12T08:44:53Z</time>
      </trkpt>
      <trkpt lat="42.716770" lon="-0.722763">
        <ele>995.6</ele>
        <time>2016-06-12T08:45:06Z</time>
      </trkpt>
      <trkpt lat="42.716881" lon="-0.722872">
        <ele>997.0</ele>
        <time>2016-06-12T08:45:23Z</time>
      </trkpt>
      <trkpt lat="42.717002" lon="-0.722967">
        <ele>998.0</ele>
        <time>2016-06-12T08:45:41Z</time>
      </trkpt>
      <trkpt lat="42.717080" lon="-0.723168">
        <ele>1001.4</ele>
        <time>2016-06-12T08:46:13Z</time>
      </trkpt>
      <trkpt lat="42.717166" lon="-0.723314">
        <ele>1003.8</ele>
        <time>2016-06-12T08:46:33Z</time>
      </trkpt>
      <trkpt lat="42.717226" lon="-0.723428">
        <ele>1006.2</ele>
        <time>2016-06-12T08:46:50Z</time>
      </trkpt>
      <trkpt lat="42.717308" lon="-0.723543">
        <ele>1008.1</ele>
        <time>2016-06-12T08:47:07Z</time>
      </trkpt>
      <trkpt lat="42.717375" lon="-0.723650">
        <ele>1009.0</ele>
        <time>2016-06-12T08:47:23Z</time>
      </trkpt>
      <trkpt lat="42.717402" lon="-0.723827">
        <ele>1011.9</ele>
        <time>2016-06-12T08:47:44Z</time>
      </trkpt>
      <trkpt lat="42.717420" lon="-0.723938">
        <ele>1014.3</ele>
        <time>2016-06-12T08:47:58Z</time>
      </trkpt>
      <trkpt lat="42.717432" lon="-0.724057">
        <ele>1017.2</ele>
        <time>2016-06-12T08:48:14Z</time>
      </trkpt>
      <trkpt lat="42.717445" lon="-0.724181">
        <ele>1020.1</ele>
        <time>2016-06-12T08:48:30Z</time>
      </trkpt>
      <trkpt lat="42.717468" lon="-0.724316">
        <ele>1023.5</ele>
        <time>2016-06-12T08:48:47Z</time>
      </trkpt>
      <trkpt lat="42.717481" lon="-0.724463">
        <ele>1024.9</ele>
        <time>2016-06-12T08:49:06Z</time>
      </trkpt>
      <trkpt lat="42.717501" lon="-0.724578">
        <ele>1025.9</ele>
        <time>2016-06-12T08:49:21Z</time>
      </trkpt>
      <trkpt lat="42.717531" lon="-0.724716">
        <ele>1026.8</ele>
        <time>2016-06-12T08:49:37Z</time>
      </trkpt>
      <trkpt lat="42.717569" lon="-0.724880">
        <ele>1029.2</ele>
        <time>2016-06-12T08:49:54Z</time>
      </trkpt>
      <trkpt lat="42.717612" lon="-0.725037">
        <ele>1030.7</ele>
        <time>2016-06-12T08:50:12Z</time>
      </trkpt>
      <trkpt lat="42.717656" lon="-0.725214">
        <ele>1033.1</ele>
        <time>2016-06-12T08:50:30Z</time>
      </trkpt>
      <trkpt lat="42.717708" lon="-0.725384">
        <ele>1035.0</ele>
        <time>2016-06-12T08:50:48Z</time>
      </trkpt>
      <trkpt lat="42.717741" lon="-0.725521">
        <ele>1036.4</ele>
        <time>2016-06-12T08:51:03Z</time>
      </trkpt>
      <trkpt lat="42.717797" lon="-0.725714">
        <ele>1037.9</ele>
        <time>2016-06-12T08:51:22Z</time>
      </trkpt>
      <trkpt lat="42.717847" lon="-0.725899">
        <ele>1039.3</ele>
        <time>2016-06-12T08:51:40Z</time>
      </trkpt>
      <trkpt lat="42.717918" lon="-0.726080">
        <ele>1040.8</ele>
        <time>2016-06-12T08:51:58Z</time>
      </trkpt>
      <trkpt lat="42.717960" lon="-0.726144">
        <ele>1041.3</ele>
        <time>2016-06-12T08:52:05Z</time>
      </trkpt>
      <trkpt lat="42.718071" lon="-0.726318">
        <ele>1042.2</ele>
        <time>2016-06-12T08:52:24Z</time>
      </trkpt>
      <trkpt lat="42.718152" lon="-0.726467">
        <ele>1044.1</ele>
        <time>2016-06-12T08:52:40Z</time>
      </trkpt>
      <trkpt lat="42.718257" lon="-0.726612">
        <ele>1046.1</ele>
        <time>2016-06-12T08:52:58Z</time>
      </trkpt>
      <trkpt lat="42.718358" lon="-0.726805">
        <ele>1049.4</ele>
        <time>2016-06-12T08:53:19Z</time>
      </trkpt>
      <trkpt lat="42.718438" lon="-0.726936">
        <ele>1050.9</ele>
        <time>2016-06-12T08:53:35Z</time>
      </trkpt>
      <trkpt lat="42.718513" lon="-0.727047">
        <ele>1053.3</ele>
        <time>2016-06-12T08:53:51Z</time>
      </trkpt>
      <trkpt lat="42.718608" lon="-0.727212">
        <ele>1055.7</ele>
        <time>2016-06-12T08:54:11Z</time>
      </trkpt>
      <trkpt lat="42.718646" lon="-0.727337">
        <ele>1057.1</ele>
        <time>2016-06-12T08:54:27Z</time>
      </trkpt>
      <trkpt lat="42.718799" lon="-0.727490">
        <ele>1053.3</ele>
        <time>2016-06-12T08:55:24Z</time>
      </trkpt>
      <trkpt lat="42.719048" lon="-0.727412">
        <ele>1052.3</ele>
        <time>2016-06-12T08:55:31Z</time>
      </trkpt>
      <trkpt lat="42.719364" lon="-0.727352">
        <ele>1050.4</ele>
        <time>2016-06-12T08:55:39Z</time>
      </trkpt>
      <trkpt lat="42.719534" lon="-0.727402">
        <ele>1048.5</ele>
        <time>2016-06-12T08:55:43Z</time>
      </trkpt>
      <trkpt lat="42.720004" lon="-0.727587">
        <ele>1042.2</ele>
        <time>2016-06-12T08:55:56Z</time>
      </trkpt>
      <trkpt lat="42.720175" lon="-0.727640">
        <ele>1039.3</ele>
        <time>2016-06-12T08:56:02Z</time>
      </trkpt>
      <trkpt lat="42.720637" lon="-0.727629">
        <ele>1034.5</ele>
        <time>2016-06-12T08:56:14Z</time>
      </trkpt>
      <trkpt lat="42.720949" lon="-0.727676">
        <ele>1028.8</ele>
        <time>2016-06-12T08:56:24Z</time>
      </trkpt>
      <trkpt lat="42.721329" lon="-0.727879">
        <ele>1020.6</ele>
        <time>2016-06-12T08:56:37Z</time>
      </trkpt>
      <trkpt lat="42.721504" lon="-0.728345">
        <ele>1018.7</ele>
        <time>2016-06-12T08:56:48Z</time>
      </trkpt>
      <trkpt lat="42.721421" lon="-0.728649">
        <ele>1018.7</ele>
        <time>2016-06-12T08:56:58Z</time>
      </trkpt>
      <trkpt lat="42.721251" lon="-0.729047">
        <ele>1018.2</ele>
        <time>2016-06-12T08:57:10Z</time>
      </trkpt>
      <trkpt lat="42.721213" lon="-0.729303">
        <ele>1018.7</ele>
        <time>2016-06-12T08:57:21Z</time>
      </trkpt>
      <trkpt lat="42.721243" lon="-0.729632">
        <ele>1020.1</ele>
        <time>2016-06-12T08:57:36Z</time>
      </trkpt>
      <trkpt lat="42.721419" lon="-0.730032">
        <ele>1017.2</ele>
        <time>2016-06-12T08:57:48Z</time>
      </trkpt>
      <trkpt lat="42.721476" lon="-0.730177">
        <ele>1015.8</ele>
        <time>2016-06-12T08:57:51Z</time>
      </trkpt>
      <trkpt lat="42.721643" lon="-0.730520">
        <ele>1011.9</ele>
        <time>2016-06-12T08:57:58Z</time>
      </trkpt>
      <trkpt lat="42.721821" lon="-0.730813">
        <ele>1009.5</ele>
        <time>2016-06-12T08:58:05Z</time>
      </trkpt>
      <trkpt lat="42.721877" lon="-0.730893">
        <ele>1009.0</ele>
        <time>2016-06-12T08:58:07Z</time>
      </trkpt>
      <trkpt lat="42.722099" lon="-0.731028">
        <ele>1008.6</ele>
        <time>2016-06-12T08:58:13Z</time>
      </trkpt>
      <trkpt lat="42.722452" lon="-0.731073">
        <ele>1008.6</ele>
        <time>2016-06-12T08:58:22Z</time>
      </trkpt>
      <trkpt lat="42.722997" lon="-0.730926">
        <ele>1004.7</ele>
        <time>2016-06-12T08:58:36Z</time>
      </trkpt>
      <trkpt lat="42.723508" lon="-0.730686">
        <ele>1003.8</ele>
        <time>2016-06-12T08:58:49Z</time>
      </trkpt>
      <trkpt lat="42.723809" lon="-0.730564">
        <ele>1004.7</ele>
        <time>2016-06-12T08:58:58Z</time>
      </trkpt>
      <trkpt lat="42.724165" lon="-0.730409">
        <ele>998.5</ele>
        <time>2016-06-12T08:59:11Z</time>
      </trkpt>
      <trkpt lat="42.724409" lon="-0.730414">
        <ele>999.9</ele>
        <time>2016-06-12T08:59:21Z</time>
      </trkpt>
      <trkpt lat="42.724604" lon="-0.730700">
        <ele>1001.8</ele>
        <time>2016-06-12T08:59:34Z</time>
      </trkpt>
      <trkpt lat="42.724669" lon="-0.730998">
        <ele>1007.1</ele>
        <time>2016-06-12T08:59:47Z</time>
      </trkpt>
      <trkpt lat="42.724674" lon="-0.731116">
        <ele>1007.1</ele>
        <time>2016-06-12T08:59:52Z</time>
      </trkpt>
      <trkpt lat="42.724665" lon="-0.731233">
        <ele>1007.1</ele>
        <time>2016-06-12T08:59:57Z</time>
      </trkpt>
      <trkpt lat="42.724641" lon="-0.731546">
        <ele>1008.6</ele>
        <time>2016-06-12T09:00:13Z</time>
      </trkpt>
      <trkpt lat="42.724587" lon="-0.731906">
        <ele>1010.0</ele>
        <time>2016-06-12T09:00:30Z</time>
      </trkpt>
      <trkpt lat="42.724566" lon="-0.732298">
        <ele>1009.5</ele>
        <time>2016-06-12T09:00:44Z</time>
      </trkpt>
      <trkpt lat="42.724657" lon="-0.732504">
        <ele>1007.6</ele>
        <time>2016-06-12T09:00:52Z</time>
      </trkpt>
      <trkpt lat="42.725031" lon="-0.732821">
        <ele>1004.7</ele>
        <time>2016-06-12T09:01:06Z</time>
      </trkpt>
      <trkpt lat="42.725109" lon="-0.732973">
        <ele>1004.2</ele>
        <time>2016-06-12T09:01:10Z</time>
      </trkpt>
      <trkpt lat="42.725185" lon="-0.733177">
        <ele>1002.8</ele>
        <time>2016-06-12T09:01:14Z</time>
      </trkpt>
      <trkpt lat="42.725226" lon="-0.733697">
        <ele>1000.9</ele>
        <time>2016-06-12T09:01:26Z</time>
      </trkpt>
      <trkpt lat="42.725241" lon="-0.734083">
        <ele>1002.3</ele>
        <time>2016-06-12T09:01:39Z</time>
      </trkpt>
      <trkpt lat="42.725296" lon="-0.734457">
        <ele>1003.8</ele>
        <time>2016-06-12T09:01:54Z</time>
      </trkpt>
      <trkpt lat="42.725352" lon="-0.734838">
        <ele>1005.2</ele>
        <time>2016-06-12T09:02:11Z</time>
      </trkpt>
      <trkpt lat="42.725383" lon="-0.735112">
        <ele>1008.1</ele>
        <time>2016-06-12T09:02:25Z</time>
      </trkpt>
      <trkpt lat="42.725388" lon="-0.735190">
        <ele>1006.6</ele>
        <time>2016-06-12T09:02:40Z</time>
      </trkpt>
      <trkpt lat="42.725327" lon="-0.735557">
        <ele>1005.2</ele>
        <time>2016-06-12T09:03:19Z</time>
      </trkpt>
      <trkpt lat="42.725373" lon="-0.735958">
        <ele>1002.3</ele>
        <time>2016-06-12T09:03:30Z</time>
      </trkpt>
      <trkpt lat="42.725479" lon="-0.736354">
        <ele>999.4</ele>
        <time>2016-06-12T09:03:41Z</time>
      </trkpt>
      <trkpt lat="42.725617" lon="-0.736628">
        <ele>997.5</ele>
        <time>2016-06-12T09:03:48Z</time>
      </trkpt>
      <trkpt lat="42.725894" lon="-0.737002">
        <ele>992.7</ele>
        <time>2016-06-12T09:03:59Z</time>
      </trkpt>
      <trkpt lat="42.726224" lon="-0.737581">
        <ele>989.3</ele>
        <time>2016-06-12T09:04:14Z</time>
      </trkpt>
      <trkpt lat="42.726250" lon="-0.738095">
        <ele>987.9</ele>
        <time>2016-06-12T09:04:27Z</time>
      </trkpt>
      <trkpt lat="42.726229" lon="-0.738210">
        <ele>986.5</ele>
        <time>2016-06-12T09:04:32Z</time>
      </trkpt>
      <trkpt lat="42.726078" lon="-0.738517">
        <ele>983.6</ele>
        <time>2016-06-12T09:04:44Z</time>
      </trkpt>
      <trkpt lat="42.725961" lon="-0.738753">
        <ele>982.6</ele>
        <time>2016-06-12T09:04:54Z</time>
      </trkpt>
      <trkpt lat="42.725801" lon="-0.739001">
        <ele>984.1</ele>
        <time>2016-06-12T09:05:05Z</time>
      </trkpt>
      <trkpt lat="42.725625" lon="-0.739235">
        <ele>984.1</ele>
        <time>2016-06-12T09:05:18Z</time>
      </trkpt>
      <trkpt lat="42.725407" lon="-0.739634">
        <ele>980.2</ele>
        <time>2016-06-12T09:05:32Z</time>
      </trkpt>
      <trkpt lat="42.725401" lon="-0.740112">
        <ele>973.5</ele>
        <time>2016-06-12T09:05:44Z</time>
      </trkpt>
      <trkpt lat="42.725481" lon="-0.740747">
        <ele>968.2</ele>
        <time>2016-06-12T09:05:57Z</time>
      </trkpt>
      <trkpt lat="42.725534" lon="-0.741154">
        <ele>965.3</ele>
        <time>2016-06-12T09:06:08Z</time>
      </trkpt>
      <trkpt lat="42.725552" lon="-0.741265">
        <ele>963.9</ele>
        <time>2016-06-12T09:06:12Z</time>
      </trkpt>
      <trkpt lat="42.725456" lon="-0.741376">
        <ele>961.0</ele>
        <time>2016-06-12T09:06:20Z</time>
      </trkpt>
      <trkpt lat="42.725383" lon="-0.741388">
        <ele>958.6</ele>
        <time>2016-06-12T09:06:31Z</time>
      </trkpt>
      <trkpt lat="42.725356" lon="-0.741438">
        <ele>957.6</ele>
        <time>2016-06-12T09:06:35Z</time>
      </trkpt>
      <trkpt lat="42.725329" lon="-0.741520">
        <ele>956.7</ele>
        <time>2016-06-12T09:06:40Z</time>
      </trkpt>
      <trkpt lat="42.725325" lon="-0.741635">
        <ele>954.3</ele>
        <time>2016-06-12T09:06:49Z</time>
      </trkpt>
      <trkpt lat="42.725304" lon="-0.741707">
        <ele>952.8</ele>
        <time>2016-06-12T09:07:00Z</time>
      </trkpt>
      <trkpt lat="42.725278" lon="-0.741830">
        <ele>950.9</ele>
        <time>2016-06-12T09:07:06Z</time>
      </trkpt>
      <trkpt lat="42.725228" lon="-0.742148">
        <ele>948.0</ele>
        <time>2016-06-12T09:07:16Z</time>
      </trkpt>
      <trkpt lat="42.725270" lon="-0.742548">
        <ele>942.7</ele>
        <time>2016-06-12T09:07:29Z</time>
      </trkpt>
      <trkpt lat="42.725356" lon="-0.742676">
        <ele>940.3</ele>
        <time>2016-06-12T09:07:35Z</time>
      </trkpt>
      <trkpt lat="42.725512" lon="-0.742641">
        <ele>938.4</ele>
        <time>2016-06-12T09:07:40Z</time>
      </trkpt>
      <trkpt lat="42.725795" lon="-0.742433">
        <ele>936.5</ele>
        <time>2016-06-12T09:07:50Z</time>
      </trkpt>
      <trkpt lat="42.725861" lon="-0.742563">
        <ele>935.0</ele>
        <time>2016-06-12T09:07:57Z</time>
      </trkpt>
      <trkpt lat="42.725705" lon="-0.743004">
        <ele>928.3</ele>
        <time>2016-06-12T09:08:10Z</time>
      </trkpt>
      <trkpt lat="42.725686" lon="-0.743419">
        <ele>919.2</ele>
        <time>2016-06-12T09:08:21Z</time>
      </trkpt>
      <trkpt lat="42.725701" lon="-0.743791">
        <ele>912.0</ele>
        <time>2016-06-12T09:08:34Z</time>
      </trkpt>
      <trkpt lat="42.725693" lon="-0.743962">
        <ele>908.6</ele>
        <time>2016-06-12T09:08:40Z</time>
      </trkpt>
      <trkpt lat="42.725653" lon="-0.744082">
        <ele>906.7</ele>
        <time>2016-06-12T09:08:45Z</time>
      </trkpt>
      <trkpt lat="42.725598" lon="-0.744485">
        <ele>903.8</ele>
        <time>2016-06-12T09:08:58Z</time>
      </trkpt>
      <trkpt lat="42.725559" lon="-0.744669">
        <ele>901.9</ele>
        <time>2016-06-12T09:09:04Z</time>
      </trkpt>
      <trkpt lat="42.725522" lon="-0.745036">
        <ele>897.5</ele>
        <time>2016-06-12T09:09:17Z</time>
      </trkpt>
      <trkpt lat="42.725546" lon="-0.745197">
        <ele>892.7</ele>
        <time>2016-06-12T09:09:31Z</time>
      </trkpt>
      <trkpt lat="42.725542" lon="-0.745353">
        <ele>890.3</ele>
        <time>2016-06-12T09:09:45Z</time>
      </trkpt>
      <trkpt lat="42.725542" lon="-0.745600">
        <ele>887.0</ele>
        <time>2016-06-12T09:10:13Z</time>
      </trkpt>
      <trkpt lat="42.725544" lon="-0.745717">
        <ele>884.6</ele>
        <time>2016-06-12T09:10:18Z</time>
      </trkpt>
      <trkpt lat="42.725542" lon="-0.746057">
        <ele>877.3</ele>
        <time>2016-06-12T09:10:31Z</time>
      </trkpt>
      <trkpt lat="42.725497" lon="-0.746198">
        <ele>874.0</ele>
        <time>2016-06-12T09:10:37Z</time>
      </trkpt>
      <trkpt lat="42.725495" lon="-0.746527">
        <ele>868.2</ele>
        <time>2016-06-12T09:10:50Z</time>
      </trkpt>
      <trkpt lat="42.725495" lon="-0.746712">
        <ele>864.8</ele>
        <time>2016-06-12T09:10:57Z</time>
      </trkpt>
      <trkpt lat="42.725466" lon="-0.747021">
        <ele>859.1</ele>
        <time>2016-06-12T09:11:09Z</time>
      </trkpt>
      <trkpt lat="42.725454" lon="-0.747592">
        <ele>849.5</ele>
        <time>2016-06-12T09:11:23Z</time>
      </trkpt>
      <trkpt lat="42.725468" lon="-0.747734">
        <ele>845.1</ele>
        <time>2016-06-12T09:11:32Z</time>
      </trkpt>
      <trkpt lat="42.725573" lon="-0.747751">
        <ele>842.7</ele>
        <time>2016-06-12T09:11:39Z</time>
      </trkpt>
      <trkpt lat="42.725864" lon="-0.747765">
        <ele>840.8</ele>
        <time>2016-06-12T09:11:53Z</time>
      </trkpt>
      <trkpt lat="42.726188" lon="-0.747620">
        <ele>836.5</ele>
        <time>2016-06-12T09:12:05Z</time>
      </trkpt>
      <trkpt lat="42.726277" lon="-0.747542">
        <ele>833.6</ele>
        <time>2016-06-12T09:12:09Z</time>
      </trkpt>
      <trkpt lat="42.726270" lon="-0.747642">
        <ele>831.7</ele>
        <time>2016-06-12T09:12:15Z</time>
      </trkpt>
      <trkpt lat="42.726081" lon="-0.748111">
        <ele>828.8</ele>
        <time>2016-06-12T09:12:25Z</time>
      </trkpt>
      <trkpt lat="42.725976" lon="-0.748470">
        <ele>825.9</ele>
        <time>2016-06-12T09:12:30Z</time>
      </trkpt>
      <trkpt lat="42.725821" lon="-0.748810">
        <ele>824.5</ele>
        <time>2016-06-12T09:12:35Z</time>
      </trkpt>
      <trkpt lat="42.725747" lon="-0.749018">
        <ele>825.0</ele>
        <time>2016-06-12T09:12:39Z</time>
      </trkpt>
      <trkpt lat="42.725500" lon="-0.749454">
        <ele>826.9</ele>
        <time>2016-06-12T09:12:54Z</time>
      </trkpt>
      <trkpt lat="42.725238" lon="-0.749905">
        <ele>827.4</ele>
        <time>2016-06-12T09:13:07Z</time>
      </trkpt>
      <trkpt lat="42.725038" lon="-0.750037">
        <ele>826.9</ele>
        <time>2016-06-12T09:13:14Z</time>
      </trkpt>
      <trkpt lat="42.724934" lon="-0.749792">
        <ele>824.5</ele>
        <time>2016-06-12T09:13:20Z</time>
      </trkpt>
      <trkpt lat="42.724820" lon="-0.750046">
        <ele>820.1</ele>
        <time>2016-06-12T09:13:27Z</time>
      </trkpt>
      <trkpt lat="42.724838" lon="-0.750355">
        <ele>818.2</ele>
        <time>2016-06-12T09:13:31Z</time>
      </trkpt>
      <trkpt lat="42.724816" lon="-0.750581">
        <ele>816.8</ele>
        <time>2016-06-12T09:13:34Z</time>
      </trkpt>
      <trkpt lat="42.724811" lon="-0.750796">
        <ele>815.8</ele>
        <time>2016-06-12T09:13:37Z</time>
      </trkpt>
      <trkpt lat="42.724790" lon="-0.750933">
        <ele>814.9</ele>
        <time>2016-06-12T09:13:39Z</time>
      </trkpt>
      <trkpt lat="42.724753" lon="-0.751849">
        <ele>807.2</ele>
        <time>2016-06-12T09:13:52Z</time>
      </trkpt>
      <trkpt lat="42.724823" lon="-0.751955">
        <ele>806.2</ele>
        <time>2016-06-12T09:13:57Z</time>
      </trkpt>
      <trkpt lat="42.725360" lon="-0.752008">
        <ele>805.7</ele>
        <time>2016-06-12T09:14:12Z</time>
      </trkpt>
      <trkpt lat="42.726040" lon="-0.752339">
        <ele>805.2</ele>
        <time>2016-06-12T09:14:30Z</time>
      </trkpt>
      <trkpt lat="42.726568" lon="-0.752764">
        <ele>806.2</ele>
        <time>2016-06-12T09:14:46Z</time>
      </trkpt>
      <trkpt lat="42.726956" lon="-0.753049">
        <ele>807.2</ele>
        <time>2016-06-12T09:14:59Z</time>
      </trkpt>
      <trkpt lat="42.727329" lon="-0.753257">
        <ele>809.1</ele>
        <time>2016-06-12T09:15:14Z</time>
      </trkpt>
      <trkpt lat="42.727753" lon="-0.753381">
        <ele>812.5</ele>
        <time>2016-06-12T09:15:32Z</time>
      </trkpt>
      <trkpt lat="42.728184" lon="-0.753437">
        <ele>814.4</ele>
        <time>2016-06-12T09:15:49Z</time>
      </trkpt>
      <trkpt lat="42.728619" lon="-0.753430">
        <ele>815.8</ele>
        <time>2016-06-12T09:16:05Z</time>
      </trkpt>
      <trkpt lat="42.729144" lon="-0.753355">
        <ele>816.3</ele>
        <time>2016-06-12T09:16:22Z</time>
      </trkpt>
      <trkpt lat="42.729772" lon="-0.753215">
        <ele>815.8</ele>
        <time>2016-06-12T09:16:40Z</time>
      </trkpt>
      <trkpt lat="42.730401" lon="-0.753055">
        <ele>815.3</ele>
        <time>2016-06-12T09:16:58Z</time>
      </trkpt>
      <trkpt lat="42.731132" lon="-0.752870">
        <ele>814.4</ele>
        <time>2016-06-12T09:17:17Z</time>
      </trkpt>
      <trkpt lat="42.731914" lon="-0.752691">
        <ele>814.9</ele>
        <time>2016-06-12T09:17:37Z</time>
      </trkpt>
      <trkpt lat="42.732630" lon="-0.752507">
        <ele>814.9</ele>
        <time>2016-06-12T09:17:56Z</time>
      </trkpt>
      <trkpt lat="42.733226" lon="-0.752363">
        <ele>816.8</ele>
        <time>2016-06-12T09:18:12Z</time>
      </trkpt>
      <trkpt lat="42.733778" lon="-0.752225">
        <ele>818.2</ele>
        <time>2016-06-12T09:18:29Z</time>
      </trkpt>
      <trkpt lat="42.734322" lon="-0.752093">
        <ele>820.6</ele>
        <time>2016-06-12T09:18:46Z</time>
      </trkpt>
      <trkpt lat="42.735040" lon="-0.751921">
        <ele>821.1</ele>
        <time>2016-06-12T09:19:07Z</time>
      </trkpt>
      <trkpt lat="42.735619" lon="-0.751792">
        <ele>821.1</ele>
        <time>2016-06-12T09:19:24Z</time>
      </trkpt>
    </trkseg>
  </trk>
</gpx>
